<?xml version="1.0" encoding="UTF-8" standalone="no" ?>
<gpx xmlns="http://www.topografix.com/GPX/1/1" xmlns:xsi="http://www.w3.org/2001/XMLSchema-instance" xsi:schemaLocation="http://www.topografix.com/GPX/1/1 http://www.topografix.com/GPX/1/1/gpx.xsd" version="1.1" creator="VisuGPX - https://www.visugpx.com">
  <metadata>
    <name>Coligny Cyclisme sur route</name>
  </metadata>
  <trk>
    <name><![CDATA[Coligny Cyclisme sur route_1]]></name>
    <trkseg>
      <trkpt lat="46.37937" lon="5.34849">
        <ele>290.2</ele>
        <time>2022-03-26T11:45:33Z</time>
      </trkpt>
      <trkpt lat="46.37937" lon="5.34849">
        <ele>290</ele>
        <time>2022-03-26T11:45:34Z</time>
      </trkpt>
      <trkpt lat="46.37944" lon="5.34844">
        <ele>291</ele>
        <time>2022-03-26T11:46:53Z</time>
      </trkpt>
      <trkpt lat="46.3795" lon="5.34836">
        <ele>291</ele>
        <time>2022-03-26T11:46:55Z</time>
      </trkpt>
      <trkpt lat="46.37956" lon="5.34809">
        <ele>290.8</ele>
        <time>2022-03-26T11:46:59Z</time>
      </trkpt>
      <trkpt lat="46.37969" lon="5.34766">
        <ele>290</ele>
        <time>2022-03-26T11:47:04Z</time>
      </trkpt>
      <trkpt lat="46.37977" lon="5.34736">
        <ele>288.6</ele>
        <time>2022-03-26T11:47:07Z</time>
      </trkpt>
      <trkpt lat="46.37983" lon="5.34706">
        <ele>288</ele>
        <time>2022-03-26T11:47:10Z</time>
      </trkpt>
      <trkpt lat="46.38" lon="5.34637">
        <ele>287.8</ele>
        <time>2022-03-26T11:47:18Z</time>
      </trkpt>
      <trkpt lat="46.38007" lon="5.3461">
        <ele>288.2</ele>
        <time>2022-03-26T11:47:22Z</time>
      </trkpt>
      <trkpt lat="46.38011" lon="5.34597">
        <ele>288.4</ele>
        <time>2022-03-26T11:47:24Z</time>
      </trkpt>
      <trkpt lat="46.38016" lon="5.3458">
        <ele>289.2</ele>
        <time>2022-03-26T11:47:28Z</time>
      </trkpt>
      <trkpt lat="46.38017" lon="5.34576">
        <ele>290</ele>
        <time>2022-03-26T11:47:30Z</time>
      </trkpt>
      <trkpt lat="46.38013" lon="5.34573">
        <ele>290.4</ele>
        <time>2022-03-26T11:47:32Z</time>
      </trkpt>
      <trkpt lat="46.38001" lon="5.34568">
        <ele>291</ele>
        <time>2022-03-26T11:47:37Z</time>
      </trkpt>
      <trkpt lat="46.37998" lon="5.34566">
        <ele>291</ele>
        <time>2022-03-26T11:47:38Z</time>
      </trkpt>
      <trkpt lat="46.37983" lon="5.34559">
        <ele>291.2</ele>
        <time>2022-03-26T11:47:41Z</time>
      </trkpt>
      <trkpt lat="46.37977" lon="5.34558">
        <ele>291</ele>
        <time>2022-03-26T11:47:42Z</time>
      </trkpt>
      <trkpt lat="46.37947" lon="5.34556">
        <ele>290.6</ele>
        <time>2022-03-26T11:47:47Z</time>
      </trkpt>
      <trkpt lat="46.37905" lon="5.34556">
        <ele>290</ele>
        <time>2022-03-26T11:47:53Z</time>
      </trkpt>
      <trkpt lat="46.37863" lon="5.34557">
        <ele>288.6</ele>
        <time>2022-03-26T11:47:58Z</time>
      </trkpt>
      <trkpt lat="46.37855" lon="5.34557">
        <ele>288.4</ele>
        <time>2022-03-26T11:47:59Z</time>
      </trkpt>
      <trkpt lat="46.37838" lon="5.34556">
        <ele>287.4</ele>
        <time>2022-03-26T11:48:01Z</time>
      </trkpt>
      <trkpt lat="46.37816" lon="5.34556">
        <ele>286.2</ele>
        <time>2022-03-26T11:48:03Z</time>
      </trkpt>
      <trkpt lat="46.37795" lon="5.34554">
        <ele>285</ele>
        <time>2022-03-26T11:48:05Z</time>
      </trkpt>
      <trkpt lat="46.37774" lon="5.34552">
        <ele>284</ele>
        <time>2022-03-26T11:48:07Z</time>
      </trkpt>
      <trkpt lat="46.37752" lon="5.34548">
        <ele>283</ele>
        <time>2022-03-26T11:48:09Z</time>
      </trkpt>
      <trkpt lat="46.37732" lon="5.34545">
        <ele>281.8</ele>
        <time>2022-03-26T11:48:11Z</time>
      </trkpt>
      <trkpt lat="46.37719" lon="5.34542">
        <ele>280.4</ele>
        <time>2022-03-26T11:48:13Z</time>
      </trkpt>
      <trkpt lat="46.37697" lon="5.34538">
        <ele>279.4</ele>
        <time>2022-03-26T11:48:14Z</time>
      </trkpt>
      <trkpt lat="46.37675" lon="5.34531">
        <ele>278</ele>
        <time>2022-03-26T11:48:16Z</time>
      </trkpt>
      <trkpt lat="46.37667" lon="5.34527">
        <ele>276.6</ele>
        <time>2022-03-26T11:48:17Z</time>
      </trkpt>
      <trkpt lat="46.37643" lon="5.34515">
        <ele>275.4</ele>
        <time>2022-03-26T11:48:19Z</time>
      </trkpt>
      <trkpt lat="46.37611" lon="5.34502">
        <ele>273.6</ele>
        <time>2022-03-26T11:48:22Z</time>
      </trkpt>
      <trkpt lat="46.37602" lon="5.345">
        <ele>273.2</ele>
        <time>2022-03-26T11:48:23Z</time>
      </trkpt>
      <trkpt lat="46.37589" lon="5.34496">
        <ele>272.2</ele>
        <time>2022-03-26T11:48:24Z</time>
      </trkpt>
      <trkpt lat="46.3755" lon="5.34486">
        <ele>271.2</ele>
        <time>2022-03-26T11:48:28Z</time>
      </trkpt>
      <trkpt lat="46.37518" lon="5.34479">
        <ele>270.2</ele>
        <time>2022-03-26T11:48:31Z</time>
      </trkpt>
      <trkpt lat="46.37508" lon="5.34477">
        <ele>270</ele>
        <time>2022-03-26T11:48:32Z</time>
      </trkpt>
      <trkpt lat="46.37467" lon="5.34466">
        <ele>268.6</ele>
        <time>2022-03-26T11:48:36Z</time>
      </trkpt>
      <trkpt lat="46.37427" lon="5.34451">
        <ele>267.2</ele>
        <time>2022-03-26T11:48:40Z</time>
      </trkpt>
      <trkpt lat="46.37398" lon="5.34433">
        <ele>265.8</ele>
        <time>2022-03-26T11:48:43Z</time>
      </trkpt>
      <trkpt lat="46.37388" lon="5.34428">
        <ele>265.6</ele>
        <time>2022-03-26T11:48:44Z</time>
      </trkpt>
      <trkpt lat="46.37368" lon="5.34425">
        <ele>265.4</ele>
        <time>2022-03-26T11:48:46Z</time>
      </trkpt>
      <trkpt lat="46.37348" lon="5.34438">
        <ele>264.8</ele>
        <time>2022-03-26T11:48:48Z</time>
      </trkpt>
      <trkpt lat="46.37339" lon="5.34448">
        <ele>264</ele>
        <time>2022-03-26T11:48:49Z</time>
      </trkpt>
      <trkpt lat="46.37328" lon="5.34456">
        <ele>263.4</ele>
        <time>2022-03-26T11:48:50Z</time>
      </trkpt>
      <trkpt lat="46.37317" lon="5.34462">
        <ele>262.8</ele>
        <time>2022-03-26T11:48:51Z</time>
      </trkpt>
      <trkpt lat="46.37305" lon="5.34467">
        <ele>262</ele>
        <time>2022-03-26T11:48:52Z</time>
      </trkpt>
      <trkpt lat="46.37294" lon="5.34472">
        <ele>261.8</ele>
        <time>2022-03-26T11:48:53Z</time>
      </trkpt>
      <trkpt lat="46.3727" lon="5.34482">
        <ele>260.2</ele>
        <time>2022-03-26T11:48:55Z</time>
      </trkpt>
      <trkpt lat="46.37255" lon="5.34487">
        <ele>259.2</ele>
        <time>2022-03-26T11:48:56Z</time>
      </trkpt>
      <trkpt lat="46.37246" lon="5.34489">
        <ele>258.6</ele>
        <time>2022-03-26T11:48:57Z</time>
      </trkpt>
      <trkpt lat="46.37234" lon="5.3449">
        <ele>258</ele>
        <time>2022-03-26T11:48:58Z</time>
      </trkpt>
      <trkpt lat="46.37221" lon="5.34488">
        <ele>257.2</ele>
        <time>2022-03-26T11:48:59Z</time>
      </trkpt>
      <trkpt lat="46.3721" lon="5.34484">
        <ele>257</ele>
        <time>2022-03-26T11:49:00Z</time>
      </trkpt>
      <trkpt lat="46.3719" lon="5.34473">
        <ele>256</ele>
        <time>2022-03-26T11:49:02Z</time>
      </trkpt>
      <trkpt lat="46.3717" lon="5.34461">
        <ele>255</ele>
        <time>2022-03-26T11:49:04Z</time>
      </trkpt>
      <trkpt lat="46.3716" lon="5.34457">
        <ele>254.8</ele>
        <time>2022-03-26T11:49:05Z</time>
      </trkpt>
      <trkpt lat="46.37132" lon="5.34448">
        <ele>254.6</ele>
        <time>2022-03-26T11:49:08Z</time>
      </trkpt>
      <trkpt lat="46.37122" lon="5.34447">
        <ele>254.4</ele>
        <time>2022-03-26T11:49:09Z</time>
      </trkpt>
      <trkpt lat="46.37081" lon="5.34449">
        <ele>254.8</ele>
        <time>2022-03-26T11:49:14Z</time>
      </trkpt>
      <trkpt lat="46.3704" lon="5.34456">
        <ele>256.4</ele>
        <time>2022-03-26T11:49:20Z</time>
      </trkpt>
      <trkpt lat="46.37027" lon="5.3446">
        <ele>256.8</ele>
        <time>2022-03-26T11:49:22Z</time>
      </trkpt>
      <trkpt lat="46.37003" lon="5.34474">
        <ele>257.6</ele>
        <time>2022-03-26T11:49:26Z</time>
      </trkpt>
      <trkpt lat="46.36952" lon="5.34506">
        <ele>257.2</ele>
        <time>2022-03-26T11:49:34Z</time>
      </trkpt>
      <trkpt lat="46.36915" lon="5.34524">
        <ele>256.4</ele>
        <time>2022-03-26T11:49:39Z</time>
      </trkpt>
      <trkpt lat="46.36891" lon="5.34536">
        <ele>255.8</ele>
        <time>2022-03-26T11:49:42Z</time>
      </trkpt>
      <trkpt lat="46.36878" lon="5.34543">
        <ele>255.4</ele>
        <time>2022-03-26T11:49:44Z</time>
      </trkpt>
      <trkpt lat="46.36863" lon="5.3455">
        <ele>255</ele>
        <time>2022-03-26T11:49:46Z</time>
      </trkpt>
      <trkpt lat="46.36819" lon="5.34575">
        <ele>254.6</ele>
        <time>2022-03-26T11:49:52Z</time>
      </trkpt>
      <trkpt lat="46.3678" lon="5.34597">
        <ele>254.2</ele>
        <time>2022-03-26T11:49:57Z</time>
      </trkpt>
      <trkpt lat="46.3675" lon="5.34611">
        <ele>253.2</ele>
        <time>2022-03-26T11:50:01Z</time>
      </trkpt>
      <trkpt lat="46.36739" lon="5.34614">
        <ele>252.8</ele>
        <time>2022-03-26T11:50:02Z</time>
      </trkpt>
      <trkpt lat="46.36714" lon="5.34618">
        <ele>252</ele>
        <time>2022-03-26T11:50:05Z</time>
      </trkpt>
      <trkpt lat="46.36704" lon="5.34619">
        <ele>251.6</ele>
        <time>2022-03-26T11:50:06Z</time>
      </trkpt>
      <trkpt lat="46.36659" lon="5.34622">
        <ele>250.4</ele>
        <time>2022-03-26T11:50:11Z</time>
      </trkpt>
      <trkpt lat="46.3665" lon="5.34622">
        <ele>250.2</ele>
        <time>2022-03-26T11:50:12Z</time>
      </trkpt>
      <trkpt lat="46.36615" lon="5.34626">
        <ele>249.4</ele>
        <time>2022-03-26T11:50:16Z</time>
      </trkpt>
      <trkpt lat="46.366" lon="5.34631">
        <ele>249.2</ele>
        <time>2022-03-26T11:50:18Z</time>
      </trkpt>
      <trkpt lat="46.36583" lon="5.3464">
        <ele>249.2</ele>
        <time>2022-03-26T11:50:20Z</time>
      </trkpt>
      <trkpt lat="46.36569" lon="5.34654">
        <ele>248.8</ele>
        <time>2022-03-26T11:50:22Z</time>
      </trkpt>
      <trkpt lat="46.36552" lon="5.34679">
        <ele>248.2</ele>
        <time>2022-03-26T11:50:25Z</time>
      </trkpt>
      <trkpt lat="46.36535" lon="5.34703">
        <ele>248</ele>
        <time>2022-03-26T11:50:28Z</time>
      </trkpt>
      <trkpt lat="46.36501" lon="5.34727">
        <ele>247.2</ele>
        <time>2022-03-26T11:50:33Z</time>
      </trkpt>
      <trkpt lat="46.36493" lon="5.3473">
        <ele>247</ele>
        <time>2022-03-26T11:50:34Z</time>
      </trkpt>
      <trkpt lat="46.36467" lon="5.34741">
        <ele>246.8</ele>
        <time>2022-03-26T11:50:37Z</time>
      </trkpt>
      <trkpt lat="46.36458" lon="5.34743">
        <ele>246.6</ele>
        <time>2022-03-26T11:50:38Z</time>
      </trkpt>
      <trkpt lat="46.36448" lon="5.34744">
        <ele>246.4</ele>
        <time>2022-03-26T11:50:39Z</time>
      </trkpt>
      <trkpt lat="46.36429" lon="5.34742">
        <ele>245.6</ele>
        <time>2022-03-26T11:50:41Z</time>
      </trkpt>
      <trkpt lat="46.36421" lon="5.34742">
        <ele>245.4</ele>
        <time>2022-03-26T11:50:42Z</time>
      </trkpt>
      <trkpt lat="46.36415" lon="5.3474">
        <ele>244.4</ele>
        <time>2022-03-26T11:50:43Z</time>
      </trkpt>
      <trkpt lat="46.36393" lon="5.34735">
        <ele>243.6</ele>
        <time>2022-03-26T11:50:46Z</time>
      </trkpt>
      <trkpt lat="46.36386" lon="5.34735">
        <ele>243.4</ele>
        <time>2022-03-26T11:50:47Z</time>
      </trkpt>
      <trkpt lat="46.36355" lon="5.34731">
        <ele>244.2</ele>
        <time>2022-03-26T11:50:52Z</time>
      </trkpt>
      <trkpt lat="46.3635" lon="5.3473">
        <ele>244.6</ele>
        <time>2022-03-26T11:50:53Z</time>
      </trkpt>
      <trkpt lat="46.36326" lon="5.34726">
        <ele>245.6</ele>
        <time>2022-03-26T11:50:58Z</time>
      </trkpt>
      <trkpt lat="46.36321" lon="5.34725">
        <ele>245.8</ele>
        <time>2022-03-26T11:50:59Z</time>
      </trkpt>
      <trkpt lat="46.36314" lon="5.34724">
        <ele>246.4</ele>
        <time>2022-03-26T11:51:01Z</time>
      </trkpt>
      <trkpt lat="46.363" lon="5.34721">
        <ele>247</ele>
        <time>2022-03-26T11:51:04Z</time>
      </trkpt>
      <trkpt lat="46.36288" lon="5.34718">
        <ele>248</ele>
        <time>2022-03-26T11:51:07Z</time>
      </trkpt>
      <trkpt lat="46.36277" lon="5.34718">
        <ele>248.6</ele>
        <time>2022-03-26T11:51:10Z</time>
      </trkpt>
      <trkpt lat="46.36262" lon="5.34722">
        <ele>249.4</ele>
        <time>2022-03-26T11:51:14Z</time>
      </trkpt>
      <trkpt lat="46.36246" lon="5.34727">
        <ele>250.2</ele>
        <time>2022-03-26T11:51:18Z</time>
      </trkpt>
      <trkpt lat="46.36239" lon="5.34729">
        <ele>250.6</ele>
        <time>2022-03-26T11:51:20Z</time>
      </trkpt>
      <trkpt lat="46.36223" lon="5.34735">
        <ele>251.6</ele>
        <time>2022-03-26T11:51:24Z</time>
      </trkpt>
      <trkpt lat="46.36219" lon="5.34737">
        <ele>251.8</ele>
        <time>2022-03-26T11:51:25Z</time>
      </trkpt>
      <trkpt lat="46.36194" lon="5.3474">
        <ele>252.8</ele>
        <time>2022-03-26T11:51:32Z</time>
      </trkpt>
      <trkpt lat="46.36191" lon="5.34739">
        <ele>252.8</ele>
        <time>2022-03-26T11:51:33Z</time>
      </trkpt>
      <trkpt lat="46.36176" lon="5.34723">
        <ele>253.8</ele>
        <time>2022-03-26T11:51:38Z</time>
      </trkpt>
      <trkpt lat="46.36173" lon="5.34699">
        <ele>254.8</ele>
        <time>2022-03-26T11:51:43Z</time>
      </trkpt>
      <trkpt lat="46.36174" lon="5.34694">
        <ele>255.2</ele>
        <time>2022-03-26T11:51:44Z</time>
      </trkpt>
      <trkpt lat="46.36181" lon="5.34677">
        <ele>256</ele>
        <time>2022-03-26T11:51:48Z</time>
      </trkpt>
      <trkpt lat="46.36194" lon="5.3466">
        <ele>257</ele>
        <time>2022-03-26T11:51:53Z</time>
      </trkpt>
      <trkpt lat="46.36202" lon="5.34649">
        <ele>257.4</ele>
        <time>2022-03-26T11:51:56Z</time>
      </trkpt>
      <trkpt lat="46.36206" lon="5.34643">
        <ele>258.2</ele>
        <time>2022-03-26T11:51:58Z</time>
      </trkpt>
      <trkpt lat="46.36214" lon="5.34629">
        <ele>259.2</ele>
        <time>2022-03-26T11:52:02Z</time>
      </trkpt>
      <trkpt lat="46.36217" lon="5.34621">
        <ele>259.8</ele>
        <time>2022-03-26T11:52:04Z</time>
      </trkpt>
      <trkpt lat="46.36219" lon="5.34612">
        <ele>260.2</ele>
        <time>2022-03-26T11:52:06Z</time>
      </trkpt>
      <trkpt lat="46.3622" lon="5.3459">
        <ele>261</ele>
        <time>2022-03-26T11:52:11Z</time>
      </trkpt>
      <trkpt lat="46.3622" lon="5.34586">
        <ele>261.4</ele>
        <time>2022-03-26T11:52:12Z</time>
      </trkpt>
      <trkpt lat="46.36213" lon="5.34566">
        <ele>262.4</ele>
        <time>2022-03-26T11:52:17Z</time>
      </trkpt>
      <trkpt lat="46.36202" lon="5.34556">
        <ele>263.6</ele>
        <time>2022-03-26T11:52:21Z</time>
      </trkpt>
      <trkpt lat="46.36194" lon="5.3455">
        <ele>264</ele>
        <time>2022-03-26T11:52:24Z</time>
      </trkpt>
      <trkpt lat="46.36185" lon="5.34546">
        <ele>264.6</ele>
        <time>2022-03-26T11:52:27Z</time>
      </trkpt>
      <trkpt lat="46.36169" lon="5.34542">
        <ele>265.8</ele>
        <time>2022-03-26T11:52:32Z</time>
      </trkpt>
      <trkpt lat="46.36163" lon="5.3454">
        <ele>266.4</ele>
        <time>2022-03-26T11:52:34Z</time>
      </trkpt>
      <trkpt lat="46.36153" lon="5.34538">
        <ele>267</ele>
        <time>2022-03-26T11:52:37Z</time>
      </trkpt>
      <trkpt lat="46.36137" lon="5.34538">
        <ele>268</ele>
        <time>2022-03-26T11:52:42Z</time>
      </trkpt>
      <trkpt lat="46.36134" lon="5.34538">
        <ele>268</ele>
        <time>2022-03-26T11:52:43Z</time>
      </trkpt>
      <trkpt lat="46.36121" lon="5.34542">
        <ele>269.2</ele>
        <time>2022-03-26T11:52:47Z</time>
      </trkpt>
      <trkpt lat="46.36108" lon="5.34544">
        <ele>269.8</ele>
        <time>2022-03-26T11:52:51Z</time>
      </trkpt>
      <trkpt lat="46.36098" lon="5.34545">
        <ele>270.4</ele>
        <time>2022-03-26T11:52:54Z</time>
      </trkpt>
      <trkpt lat="46.36075" lon="5.34546">
        <ele>271.4</ele>
        <time>2022-03-26T11:53:01Z</time>
      </trkpt>
      <trkpt lat="46.36069" lon="5.34547">
        <ele>271.8</ele>
        <time>2022-03-26T11:53:03Z</time>
      </trkpt>
      <trkpt lat="46.36056" lon="5.34548">
        <ele>272.6</ele>
        <time>2022-03-26T11:53:07Z</time>
      </trkpt>
      <trkpt lat="46.36037" lon="5.34552">
        <ele>273.6</ele>
        <time>2022-03-26T11:53:13Z</time>
      </trkpt>
      <trkpt lat="46.36034" lon="5.34553">
        <ele>274</ele>
        <time>2022-03-26T11:53:14Z</time>
      </trkpt>
      <trkpt lat="46.36017" lon="5.34561">
        <ele>274.6</ele>
        <time>2022-03-26T11:53:19Z</time>
      </trkpt>
      <trkpt lat="46.36013" lon="5.34563">
        <ele>274.8</ele>
        <time>2022-03-26T11:53:20Z</time>
      </trkpt>
      <trkpt lat="46.35984" lon="5.34584">
        <ele>275.8</ele>
        <time>2022-03-26T11:53:28Z</time>
      </trkpt>
      <trkpt lat="46.35952" lon="5.34607">
        <ele>276.8</ele>
        <time>2022-03-26T11:53:36Z</time>
      </trkpt>
      <trkpt lat="46.35938" lon="5.34616">
        <ele>277.4</ele>
        <time>2022-03-26T11:53:39Z</time>
      </trkpt>
      <trkpt lat="46.35907" lon="5.34637">
        <ele>277.4</ele>
        <time>2022-03-26T11:53:45Z</time>
      </trkpt>
      <trkpt lat="46.35864" lon="5.34666">
        <ele>276.6</ele>
        <time>2022-03-26T11:53:52Z</time>
      </trkpt>
      <trkpt lat="46.35836" lon="5.34686">
        <ele>275.6</ele>
        <time>2022-03-26T11:53:56Z</time>
      </trkpt>
      <trkpt lat="46.35808" lon="5.34707">
        <ele>274.8</ele>
        <time>2022-03-26T11:54:00Z</time>
      </trkpt>
      <trkpt lat="46.35794" lon="5.34716">
        <ele>274.6</ele>
        <time>2022-03-26T11:54:02Z</time>
      </trkpt>
      <trkpt lat="46.3576" lon="5.34739">
        <ele>274</ele>
        <time>2022-03-26T11:54:07Z</time>
      </trkpt>
      <trkpt lat="46.35723" lon="5.34764">
        <ele>274.4</ele>
        <time>2022-03-26T11:54:13Z</time>
      </trkpt>
      <trkpt lat="46.35689" lon="5.34789">
        <ele>275.6</ele>
        <time>2022-03-26T11:54:19Z</time>
      </trkpt>
      <trkpt lat="46.35642" lon="5.34814">
        <ele>275.2</ele>
        <time>2022-03-26T11:54:26Z</time>
      </trkpt>
      <trkpt lat="46.35599" lon="5.3482">
        <ele>273.8</ele>
        <time>2022-03-26T11:54:31Z</time>
      </trkpt>
      <trkpt lat="46.3558" lon="5.34822">
        <ele>273.2</ele>
        <time>2022-03-26T11:54:33Z</time>
      </trkpt>
      <trkpt lat="46.35549" lon="5.34825">
        <ele>272</ele>
        <time>2022-03-26T11:54:36Z</time>
      </trkpt>
      <trkpt lat="46.35529" lon="5.34827">
        <ele>271.2</ele>
        <time>2022-03-26T11:54:38Z</time>
      </trkpt>
      <trkpt lat="46.35518" lon="5.34827">
        <ele>270.8</ele>
        <time>2022-03-26T11:54:39Z</time>
      </trkpt>
      <trkpt lat="46.35497" lon="5.34826">
        <ele>269</ele>
        <time>2022-03-26T11:54:41Z</time>
      </trkpt>
      <trkpt lat="46.35486" lon="5.34825">
        <ele>268</ele>
        <time>2022-03-26T11:54:42Z</time>
      </trkpt>
      <trkpt lat="46.35466" lon="5.34823">
        <ele>267.2</ele>
        <time>2022-03-26T11:54:44Z</time>
      </trkpt>
      <trkpt lat="46.35456" lon="5.34821">
        <ele>266.6</ele>
        <time>2022-03-26T11:54:45Z</time>
      </trkpt>
      <trkpt lat="46.35436" lon="5.34819">
        <ele>265.4</ele>
        <time>2022-03-26T11:54:47Z</time>
      </trkpt>
      <trkpt lat="46.35398" lon="5.34818">
        <ele>264.4</ele>
        <time>2022-03-26T11:54:51Z</time>
      </trkpt>
      <trkpt lat="46.35379" lon="5.34819">
        <ele>264.2</ele>
        <time>2022-03-26T11:54:53Z</time>
      </trkpt>
      <trkpt lat="46.35326" lon="5.34831">
        <ele>263.2</ele>
        <time>2022-03-26T11:54:59Z</time>
      </trkpt>
      <trkpt lat="46.35272" lon="5.34845">
        <ele>262</ele>
        <time>2022-03-26T11:55:05Z</time>
      </trkpt>
      <trkpt lat="46.35262" lon="5.34848">
        <ele>261.6</ele>
        <time>2022-03-26T11:55:06Z</time>
      </trkpt>
      <trkpt lat="46.35243" lon="5.34853">
        <ele>261</ele>
        <time>2022-03-26T11:55:08Z</time>
      </trkpt>
      <trkpt lat="46.35205" lon="5.34864">
        <ele>259.2</ele>
        <time>2022-03-26T11:55:12Z</time>
      </trkpt>
      <trkpt lat="46.35187" lon="5.34869">
        <ele>258.2</ele>
        <time>2022-03-26T11:55:14Z</time>
      </trkpt>
      <trkpt lat="46.35158" lon="5.34877">
        <ele>256.8</ele>
        <time>2022-03-26T11:55:17Z</time>
      </trkpt>
      <trkpt lat="46.35112" lon="5.34889">
        <ele>255.2</ele>
        <time>2022-03-26T11:55:22Z</time>
      </trkpt>
      <trkpt lat="46.35094" lon="5.34896">
        <ele>254.8</ele>
        <time>2022-03-26T11:55:24Z</time>
      </trkpt>
      <trkpt lat="46.35066" lon="5.34909">
        <ele>254.2</ele>
        <time>2022-03-26T11:55:27Z</time>
      </trkpt>
      <trkpt lat="46.3503" lon="5.34928">
        <ele>253.2</ele>
        <time>2022-03-26T11:55:31Z</time>
      </trkpt>
      <trkpt lat="46.35011" lon="5.34938">
        <ele>252.8</ele>
        <time>2022-03-26T11:55:33Z</time>
      </trkpt>
      <trkpt lat="46.34972" lon="5.34959">
        <ele>251.8</ele>
        <time>2022-03-26T11:55:37Z</time>
      </trkpt>
      <trkpt lat="46.34951" lon="5.3497">
        <ele>250.4</ele>
        <time>2022-03-26T11:55:39Z</time>
      </trkpt>
      <trkpt lat="46.3492" lon="5.34988">
        <ele>249.2</ele>
        <time>2022-03-26T11:55:42Z</time>
      </trkpt>
      <trkpt lat="46.34909" lon="5.34994">
        <ele>248.2</ele>
        <time>2022-03-26T11:55:43Z</time>
      </trkpt>
      <trkpt lat="46.34898" lon="5.35">
        <ele>247.8</ele>
        <time>2022-03-26T11:55:44Z</time>
      </trkpt>
      <trkpt lat="46.34877" lon="5.35012">
        <ele>246.4</ele>
        <time>2022-03-26T11:55:46Z</time>
      </trkpt>
      <trkpt lat="46.34854" lon="5.35024">
        <ele>245</ele>
        <time>2022-03-26T11:55:48Z</time>
      </trkpt>
      <trkpt lat="46.34843" lon="5.35029">
        <ele>244.4</ele>
        <time>2022-03-26T11:55:49Z</time>
      </trkpt>
      <trkpt lat="46.34832" lon="5.35036">
        <ele>243.2</ele>
        <time>2022-03-26T11:55:50Z</time>
      </trkpt>
      <trkpt lat="46.34798" lon="5.35056">
        <ele>242</ele>
        <time>2022-03-26T11:55:53Z</time>
      </trkpt>
      <trkpt lat="46.34788" lon="5.35063">
        <ele>241</ele>
        <time>2022-03-26T11:55:54Z</time>
      </trkpt>
      <trkpt lat="46.34766" lon="5.35079">
        <ele>239.6</ele>
        <time>2022-03-26T11:55:56Z</time>
      </trkpt>
      <trkpt lat="46.34744" lon="5.35094">
        <ele>238.2</ele>
        <time>2022-03-26T11:55:58Z</time>
      </trkpt>
      <trkpt lat="46.34733" lon="5.35102">
        <ele>237.2</ele>
        <time>2022-03-26T11:55:59Z</time>
      </trkpt>
      <trkpt lat="46.34712" lon="5.35119">
        <ele>235.4</ele>
        <time>2022-03-26T11:56:01Z</time>
      </trkpt>
      <trkpt lat="46.34691" lon="5.35135">
        <ele>234</ele>
        <time>2022-03-26T11:56:03Z</time>
      </trkpt>
      <trkpt lat="46.34669" lon="5.35152">
        <ele>232.8</ele>
        <time>2022-03-26T11:56:05Z</time>
      </trkpt>
      <trkpt lat="46.34646" lon="5.35168">
        <ele>231.4</ele>
        <time>2022-03-26T11:56:07Z</time>
      </trkpt>
      <trkpt lat="46.34635" lon="5.35176">
        <ele>230.4</ele>
        <time>2022-03-26T11:56:08Z</time>
      </trkpt>
      <trkpt lat="46.34623" lon="5.35183">
        <ele>229.8</ele>
        <time>2022-03-26T11:56:09Z</time>
      </trkpt>
      <trkpt lat="46.34612" lon="5.35192">
        <ele>228.8</ele>
        <time>2022-03-26T11:56:10Z</time>
      </trkpt>
      <trkpt lat="46.3459" lon="5.3521">
        <ele>227</ele>
        <time>2022-03-26T11:56:12Z</time>
      </trkpt>
      <trkpt lat="46.34567" lon="5.35227">
        <ele>225.8</ele>
        <time>2022-03-26T11:56:14Z</time>
      </trkpt>
      <trkpt lat="46.34548" lon="5.35242">
        <ele>224.2</ele>
        <time>2022-03-26T11:56:16Z</time>
      </trkpt>
      <trkpt lat="46.34541" lon="5.35247">
        <ele>223</ele>
        <time>2022-03-26T11:56:17Z</time>
      </trkpt>
      <trkpt lat="46.34535" lon="5.3525">
        <ele>222.2</ele>
        <time>2022-03-26T11:56:18Z</time>
      </trkpt>
      <trkpt lat="46.3453" lon="5.3525">
        <ele>221.2</ele>
        <time>2022-03-26T11:56:19Z</time>
      </trkpt>
      <trkpt lat="46.34525" lon="5.35247">
        <ele>220.6</ele>
        <time>2022-03-26T11:56:20Z</time>
      </trkpt>
      <trkpt lat="46.34519" lon="5.35234">
        <ele>220.2</ele>
        <time>2022-03-26T11:56:22Z</time>
      </trkpt>
      <trkpt lat="46.34514" lon="5.35216">
        <ele>219.8</ele>
        <time>2022-03-26T11:56:24Z</time>
      </trkpt>
      <trkpt lat="46.34503" lon="5.35178">
        <ele>219.2</ele>
        <time>2022-03-26T11:56:28Z</time>
      </trkpt>
      <trkpt lat="46.34492" lon="5.35138">
        <ele>219</ele>
        <time>2022-03-26T11:56:32Z</time>
      </trkpt>
      <trkpt lat="46.34481" lon="5.35097">
        <ele>219</ele>
        <time>2022-03-26T11:56:36Z</time>
      </trkpt>
      <trkpt lat="46.34458" lon="5.35017">
        <ele>218.8</ele>
        <time>2022-03-26T11:56:44Z</time>
      </trkpt>
      <trkpt lat="46.34455" lon="5.35008">
        <ele>218.8</ele>
        <time>2022-03-26T11:56:45Z</time>
      </trkpt>
      <trkpt lat="46.3443" lon="5.34938">
        <ele>218.2</ele>
        <time>2022-03-26T11:56:53Z</time>
      </trkpt>
      <trkpt lat="46.34427" lon="5.34929">
        <ele>218</ele>
        <time>2022-03-26T11:56:54Z</time>
      </trkpt>
      <trkpt lat="46.34405" lon="5.3487">
        <ele>218</ele>
        <time>2022-03-26T11:57:01Z</time>
      </trkpt>
      <trkpt lat="46.34378" lon="5.34798">
        <ele>218</ele>
        <time>2022-03-26T11:57:10Z</time>
      </trkpt>
      <trkpt lat="46.34351" lon="5.34722">
        <ele>218.6</ele>
        <time>2022-03-26T11:57:20Z</time>
      </trkpt>
      <trkpt lat="46.34325" lon="5.34651">
        <ele>218.8</ele>
        <time>2022-03-26T11:57:30Z</time>
      </trkpt>
      <trkpt lat="46.34322" lon="5.34644">
        <ele>219</ele>
        <time>2022-03-26T11:57:31Z</time>
      </trkpt>
      <trkpt lat="46.34302" lon="5.34587">
        <ele>219</ele>
        <time>2022-03-26T11:57:39Z</time>
      </trkpt>
      <trkpt lat="46.3429" lon="5.34556">
        <ele>218.8</ele>
        <time>2022-03-26T11:57:43Z</time>
      </trkpt>
      <trkpt lat="46.34281" lon="5.34527">
        <ele>218.4</ele>
        <time>2022-03-26T11:57:47Z</time>
      </trkpt>
      <trkpt lat="46.34276" lon="5.34503">
        <ele>218.4</ele>
        <time>2022-03-26T11:57:50Z</time>
      </trkpt>
      <trkpt lat="46.34271" lon="5.34442">
        <ele>218.6</ele>
        <time>2022-03-26T11:57:57Z</time>
      </trkpt>
      <trkpt lat="46.34263" lon="5.34372">
        <ele>218.8</ele>
        <time>2022-03-26T11:58:05Z</time>
      </trkpt>
      <trkpt lat="46.34244" lon="5.34292">
        <ele>218.8</ele>
        <time>2022-03-26T11:58:14Z</time>
      </trkpt>
      <trkpt lat="46.34231" lon="5.34245">
        <ele>218</ele>
        <time>2022-03-26T11:58:19Z</time>
      </trkpt>
      <trkpt lat="46.34224" lon="5.34218">
        <ele>217.8</ele>
        <time>2022-03-26T11:58:22Z</time>
      </trkpt>
      <trkpt lat="46.34204" lon="5.34136">
        <ele>217.6</ele>
        <time>2022-03-26T11:58:31Z</time>
      </trkpt>
      <trkpt lat="46.34202" lon="5.34127">
        <ele>217.8</ele>
        <time>2022-03-26T11:58:32Z</time>
      </trkpt>
      <trkpt lat="46.34184" lon="5.34047">
        <ele>217.6</ele>
        <time>2022-03-26T11:58:41Z</time>
      </trkpt>
      <trkpt lat="46.34181" lon="5.3403">
        <ele>217.6</ele>
        <time>2022-03-26T11:58:43Z</time>
      </trkpt>
      <trkpt lat="46.34168" lon="5.33959">
        <ele>217.4</ele>
        <time>2022-03-26T11:58:51Z</time>
      </trkpt>
      <trkpt lat="46.34162" lon="5.33899">
        <ele>217</ele>
        <time>2022-03-26T11:58:57Z</time>
      </trkpt>
      <trkpt lat="46.34161" lon="5.33888">
        <ele>217</ele>
        <time>2022-03-26T11:58:58Z</time>
      </trkpt>
      <trkpt lat="46.34155" lon="5.33826">
        <ele>216</ele>
        <time>2022-03-26T11:59:04Z</time>
      </trkpt>
      <trkpt lat="46.34154" lon="5.33815">
        <ele>215.8</ele>
        <time>2022-03-26T11:59:05Z</time>
      </trkpt>
      <trkpt lat="46.34153" lon="5.33805">
        <ele>215.4</ele>
        <time>2022-03-26T11:59:06Z</time>
      </trkpt>
      <trkpt lat="46.34149" lon="5.33764">
        <ele>214.8</ele>
        <time>2022-03-26T11:59:10Z</time>
      </trkpt>
      <trkpt lat="46.34142" lon="5.3371">
        <ele>214.4</ele>
        <time>2022-03-26T11:59:16Z</time>
      </trkpt>
      <trkpt lat="46.34139" lon="5.33702">
        <ele>214.2</ele>
        <time>2022-03-26T11:59:17Z</time>
      </trkpt>
      <trkpt lat="46.34131" lon="5.33687">
        <ele>214.2</ele>
        <time>2022-03-26T11:59:19Z</time>
      </trkpt>
      <trkpt lat="46.34106" lon="5.3366">
        <ele>214.2</ele>
        <time>2022-03-26T11:59:24Z</time>
      </trkpt>
      <trkpt lat="46.34059" lon="5.33615">
        <ele>214.2</ele>
        <time>2022-03-26T11:59:33Z</time>
      </trkpt>
      <trkpt lat="46.34049" lon="5.33605">
        <ele>214.2</ele>
        <time>2022-03-26T11:59:35Z</time>
      </trkpt>
      <trkpt lat="46.34" lon="5.33558">
        <ele>214.6</ele>
        <time>2022-03-26T11:59:44Z</time>
      </trkpt>
      <trkpt lat="46.33951" lon="5.33511">
        <ele>214</ele>
        <time>2022-03-26T11:59:53Z</time>
      </trkpt>
      <trkpt lat="46.33945" lon="5.33506">
        <ele>214</ele>
        <time>2022-03-26T11:59:54Z</time>
      </trkpt>
      <trkpt lat="46.33896" lon="5.33459">
        <ele>214</ele>
        <time>2022-03-26T12:00:03Z</time>
      </trkpt>
      <trkpt lat="46.33849" lon="5.33415">
        <ele>214</ele>
        <time>2022-03-26T12:00:12Z</time>
      </trkpt>
      <trkpt lat="46.33844" lon="5.3341">
        <ele>214</ele>
        <time>2022-03-26T12:00:13Z</time>
      </trkpt>
      <trkpt lat="46.33829" lon="5.33395">
        <ele>213.8</ele>
        <time>2022-03-26T12:00:16Z</time>
      </trkpt>
      <trkpt lat="46.33793" lon="5.33361">
        <ele>213.2</ele>
        <time>2022-03-26T12:00:23Z</time>
      </trkpt>
      <trkpt lat="46.33744" lon="5.33313">
        <ele>214</ele>
        <time>2022-03-26T12:00:33Z</time>
      </trkpt>
      <trkpt lat="46.33728" lon="5.33299">
        <ele>214.2</ele>
        <time>2022-03-26T12:00:36Z</time>
      </trkpt>
      <trkpt lat="46.33718" lon="5.33289">
        <ele>214</ele>
        <time>2022-03-26T12:00:38Z</time>
      </trkpt>
      <trkpt lat="46.33706" lon="5.33269">
        <ele>214</ele>
        <time>2022-03-26T12:00:41Z</time>
      </trkpt>
      <trkpt lat="46.33685" lon="5.33218">
        <ele>213.2</ele>
        <time>2022-03-26T12:00:48Z</time>
      </trkpt>
      <trkpt lat="46.33673" lon="5.3317">
        <ele>213.2</ele>
        <time>2022-03-26T12:00:54Z</time>
      </trkpt>
      <trkpt lat="46.33672" lon="5.33161">
        <ele>213.2</ele>
        <time>2022-03-26T12:00:55Z</time>
      </trkpt>
      <trkpt lat="46.33671" lon="5.33119">
        <ele>213.8</ele>
        <time>2022-03-26T12:01:00Z</time>
      </trkpt>
      <trkpt lat="46.33673" lon="5.33039">
        <ele>214</ele>
        <time>2022-03-26T12:01:09Z</time>
      </trkpt>
      <trkpt lat="46.33673" lon="5.32954">
        <ele>214.2</ele>
        <time>2022-03-26T12:01:19Z</time>
      </trkpt>
      <trkpt lat="46.33672" lon="5.32946">
        <ele>214.4</ele>
        <time>2022-03-26T12:01:20Z</time>
      </trkpt>
      <trkpt lat="46.33662" lon="5.329">
        <ele>214.8</ele>
        <time>2022-03-26T12:01:26Z</time>
      </trkpt>
      <trkpt lat="46.33642" lon="5.32841">
        <ele>215.2</ele>
        <time>2022-03-26T12:01:34Z</time>
      </trkpt>
      <trkpt lat="46.33631" lon="5.32824">
        <ele>215.2</ele>
        <time>2022-03-26T12:01:37Z</time>
      </trkpt>
      <trkpt lat="46.33627" lon="5.32823">
        <ele>215.2</ele>
        <time>2022-03-26T12:01:38Z</time>
      </trkpt>
      <trkpt lat="46.33623" lon="5.32824">
        <ele>215</ele>
        <time>2022-03-26T12:01:39Z</time>
      </trkpt>
      <trkpt lat="46.33621" lon="5.32827">
        <ele>215</ele>
        <time>2022-03-26T12:01:40Z</time>
      </trkpt>
      <trkpt lat="46.3362" lon="5.32841">
        <ele>215.4</ele>
        <time>2022-03-26T12:01:44Z</time>
      </trkpt>
      <trkpt lat="46.33622" lon="5.32857">
        <ele>215.8</ele>
        <time>2022-03-26T12:01:48Z</time>
      </trkpt>
      <trkpt lat="46.33624" lon="5.32864">
        <ele>216.2</ele>
        <time>2022-03-26T12:01:50Z</time>
      </trkpt>
      <trkpt lat="46.33627" lon="5.32877">
        <ele>216.8</ele>
        <time>2022-03-26T12:01:53Z</time>
      </trkpt>
      <trkpt lat="46.33632" lon="5.329">
        <ele>218</ele>
        <time>2022-03-26T12:01:58Z</time>
      </trkpt>
      <trkpt lat="46.33634" lon="5.32906">
        <ele>218.2</ele>
        <time>2022-03-26T12:01:59Z</time>
      </trkpt>
      <trkpt lat="46.33638" lon="5.32931">
        <ele>219.2</ele>
        <time>2022-03-26T12:02:04Z</time>
      </trkpt>
      <trkpt lat="46.33638" lon="5.32941">
        <ele>219.8</ele>
        <time>2022-03-26T12:02:06Z</time>
      </trkpt>
      <trkpt lat="46.33634" lon="5.32954">
        <ele>220.6</ele>
        <time>2022-03-26T12:02:09Z</time>
      </trkpt>
      <trkpt lat="46.33629" lon="5.3296">
        <ele>221</ele>
        <time>2022-03-26T12:02:11Z</time>
      </trkpt>
      <trkpt lat="46.33621" lon="5.32964">
        <ele>221.8</ele>
        <time>2022-03-26T12:02:14Z</time>
      </trkpt>
      <trkpt lat="46.33618" lon="5.32964">
        <ele>222</ele>
        <time>2022-03-26T12:02:15Z</time>
      </trkpt>
      <trkpt lat="46.33608" lon="5.32964">
        <ele>223</ele>
        <time>2022-03-26T12:02:18Z</time>
      </trkpt>
      <trkpt lat="46.33593" lon="5.32965">
        <ele>224</ele>
        <time>2022-03-26T12:02:23Z</time>
      </trkpt>
      <trkpt lat="46.33581" lon="5.32966">
        <ele>225.2</ele>
        <time>2022-03-26T12:02:27Z</time>
      </trkpt>
      <trkpt lat="46.33575" lon="5.32966">
        <ele>225.4</ele>
        <time>2022-03-26T12:02:29Z</time>
      </trkpt>
      <trkpt lat="46.33566" lon="5.32966">
        <ele>226.2</ele>
        <time>2022-03-26T12:02:32Z</time>
      </trkpt>
      <trkpt lat="46.33554" lon="5.32967">
        <ele>227.2</ele>
        <time>2022-03-26T12:02:36Z</time>
      </trkpt>
      <trkpt lat="46.33545" lon="5.32968">
        <ele>228</ele>
        <time>2022-03-26T12:02:39Z</time>
      </trkpt>
      <trkpt lat="46.33536" lon="5.32969">
        <ele>228.4</ele>
        <time>2022-03-26T12:02:42Z</time>
      </trkpt>
      <trkpt lat="46.33519" lon="5.3297">
        <ele>229.4</ele>
        <time>2022-03-26T12:02:47Z</time>
      </trkpt>
      <trkpt lat="46.33516" lon="5.3297">
        <ele>229.8</ele>
        <time>2022-03-26T12:02:48Z</time>
      </trkpt>
      <trkpt lat="46.33497" lon="5.32971">
        <ele>230.8</ele>
        <time>2022-03-26T12:02:53Z</time>
      </trkpt>
      <trkpt lat="46.33487" lon="5.32973">
        <ele>231</ele>
        <time>2022-03-26T12:02:56Z</time>
      </trkpt>
      <trkpt lat="46.33456" lon="5.32975">
        <ele>231.8</ele>
        <time>2022-03-26T12:03:04Z</time>
      </trkpt>
      <trkpt lat="46.33452" lon="5.32976">
        <ele>231.8</ele>
        <time>2022-03-26T12:03:05Z</time>
      </trkpt>
      <trkpt lat="46.33418" lon="5.3297">
        <ele>233</ele>
        <time>2022-03-26T12:03:13Z</time>
      </trkpt>
      <trkpt lat="46.33378" lon="5.32949">
        <ele>233.2</ele>
        <time>2022-03-26T12:03:21Z</time>
      </trkpt>
      <trkpt lat="46.33335" lon="5.32922">
        <ele>232.8</ele>
        <time>2022-03-26T12:03:29Z</time>
      </trkpt>
      <trkpt lat="46.33289" lon="5.32894">
        <ele>232.4</ele>
        <time>2022-03-26T12:03:37Z</time>
      </trkpt>
      <trkpt lat="46.33248" lon="5.32878">
        <ele>232</ele>
        <time>2022-03-26T12:03:44Z</time>
      </trkpt>
      <trkpt lat="46.33212" lon="5.32846">
        <ele>232</ele>
        <time>2022-03-26T12:03:51Z</time>
      </trkpt>
      <trkpt lat="46.33192" lon="5.32815">
        <ele>232</ele>
        <time>2022-03-26T12:03:56Z</time>
      </trkpt>
      <trkpt lat="46.33187" lon="5.3281">
        <ele>232</ele>
        <time>2022-03-26T12:03:57Z</time>
      </trkpt>
      <trkpt lat="46.33172" lon="5.32794">
        <ele>232</ele>
        <time>2022-03-26T12:04:00Z</time>
      </trkpt>
      <trkpt lat="46.33163" lon="5.32783">
        <ele>232</ele>
        <time>2022-03-26T12:04:02Z</time>
      </trkpt>
      <trkpt lat="46.33159" lon="5.32778">
        <ele>232</ele>
        <time>2022-03-26T12:04:03Z</time>
      </trkpt>
      <trkpt lat="46.33131" lon="5.3274">
        <ele>232.4</ele>
        <time>2022-03-26T12:04:10Z</time>
      </trkpt>
      <trkpt lat="46.33095" lon="5.32691">
        <ele>233.8</ele>
        <time>2022-03-26T12:04:19Z</time>
      </trkpt>
      <trkpt lat="46.33065" lon="5.32654">
        <ele>234</ele>
        <time>2022-03-26T12:04:26Z</time>
      </trkpt>
      <trkpt lat="46.33057" lon="5.32646">
        <ele>234.4</ele>
        <time>2022-03-26T12:04:28Z</time>
      </trkpt>
      <trkpt lat="46.33008" lon="5.32606">
        <ele>234.8</ele>
        <time>2022-03-26T12:04:38Z</time>
      </trkpt>
      <trkpt lat="46.32969" lon="5.32567">
        <ele>234.6</ele>
        <time>2022-03-26T12:04:47Z</time>
      </trkpt>
      <trkpt lat="46.32946" lon="5.32548">
        <ele>235</ele>
        <time>2022-03-26T12:04:52Z</time>
      </trkpt>
      <trkpt lat="46.32928" lon="5.32534">
        <ele>235.4</ele>
        <time>2022-03-26T12:04:56Z</time>
      </trkpt>
      <trkpt lat="46.32883" lon="5.32502">
        <ele>236.2</ele>
        <time>2022-03-26T12:05:05Z</time>
      </trkpt>
      <trkpt lat="46.32833" lon="5.3248">
        <ele>236.4</ele>
        <time>2022-03-26T12:05:14Z</time>
      </trkpt>
      <trkpt lat="46.32788" lon="5.32465">
        <ele>236.8</ele>
        <time>2022-03-26T12:05:22Z</time>
      </trkpt>
      <trkpt lat="46.32754" lon="5.32455">
        <ele>236.8</ele>
        <time>2022-03-26T12:05:28Z</time>
      </trkpt>
      <trkpt lat="46.3272" lon="5.32431">
        <ele>237</ele>
        <time>2022-03-26T12:05:34Z</time>
      </trkpt>
      <trkpt lat="46.32689" lon="5.324">
        <ele>236.8</ele>
        <time>2022-03-26T12:05:40Z</time>
      </trkpt>
      <trkpt lat="46.32686" lon="5.32394">
        <ele>236.8</ele>
        <time>2022-03-26T12:05:41Z</time>
      </trkpt>
      <trkpt lat="46.32681" lon="5.32386">
        <ele>236.6</ele>
        <time>2022-03-26T12:05:42Z</time>
      </trkpt>
      <trkpt lat="46.32667" lon="5.32353">
        <ele>236</ele>
        <time>2022-03-26T12:05:46Z</time>
      </trkpt>
      <trkpt lat="46.32664" lon="5.32347">
        <ele>236</ele>
        <time>2022-03-26T12:05:47Z</time>
      </trkpt>
      <trkpt lat="46.32647" lon="5.32327">
        <ele>235.8</ele>
        <time>2022-03-26T12:05:50Z</time>
      </trkpt>
      <trkpt lat="46.32611" lon="5.32299">
        <ele>235.6</ele>
        <time>2022-03-26T12:05:56Z</time>
      </trkpt>
      <trkpt lat="46.32562" lon="5.3226">
        <ele>235.8</ele>
        <time>2022-03-26T12:06:05Z</time>
      </trkpt>
      <trkpt lat="46.32524" lon="5.32222">
        <ele>235.6</ele>
        <time>2022-03-26T12:06:12Z</time>
      </trkpt>
      <trkpt lat="46.32481" lon="5.32171">
        <ele>236</ele>
        <time>2022-03-26T12:06:21Z</time>
      </trkpt>
      <trkpt lat="46.32475" lon="5.32165">
        <ele>236</ele>
        <time>2022-03-26T12:06:22Z</time>
      </trkpt>
      <trkpt lat="46.32448" lon="5.3213">
        <ele>236.4</ele>
        <time>2022-03-26T12:06:28Z</time>
      </trkpt>
      <trkpt lat="46.32444" lon="5.32124">
        <ele>236.4</ele>
        <time>2022-03-26T12:06:29Z</time>
      </trkpt>
      <trkpt lat="46.32427" lon="5.32079">
        <ele>237</ele>
        <time>2022-03-26T12:06:35Z</time>
      </trkpt>
      <trkpt lat="46.32419" lon="5.32058">
        <ele>237.4</ele>
        <time>2022-03-26T12:06:38Z</time>
      </trkpt>
      <trkpt lat="46.32414" lon="5.3205">
        <ele>237.4</ele>
        <time>2022-03-26T12:06:39Z</time>
      </trkpt>
      <trkpt lat="46.32406" lon="5.32038">
        <ele>237.6</ele>
        <time>2022-03-26T12:06:41Z</time>
      </trkpt>
      <trkpt lat="46.32398" lon="5.32026">
        <ele>237.6</ele>
        <time>2022-03-26T12:06:43Z</time>
      </trkpt>
      <trkpt lat="46.32382" lon="5.31998">
        <ele>237.6</ele>
        <time>2022-03-26T12:06:47Z</time>
      </trkpt>
      <trkpt lat="46.32356" lon="5.31934">
        <ele>237.2</ele>
        <time>2022-03-26T12:06:55Z</time>
      </trkpt>
      <trkpt lat="46.32343" lon="5.31908">
        <ele>236.8</ele>
        <time>2022-03-26T12:06:58Z</time>
      </trkpt>
      <trkpt lat="46.32333" lon="5.31892">
        <ele>236.4</ele>
        <time>2022-03-26T12:07:00Z</time>
      </trkpt>
      <trkpt lat="46.32314" lon="5.31871">
        <ele>235.4</ele>
        <time>2022-03-26T12:07:03Z</time>
      </trkpt>
      <trkpt lat="46.32297" lon="5.31849">
        <ele>235</ele>
        <time>2022-03-26T12:07:06Z</time>
      </trkpt>
      <trkpt lat="46.32261" lon="5.31789">
        <ele>234.8</ele>
        <time>2022-03-26T12:07:13Z</time>
      </trkpt>
      <trkpt lat="46.32244" lon="5.31735">
        <ele>234.4</ele>
        <time>2022-03-26T12:07:19Z</time>
      </trkpt>
      <trkpt lat="46.3223" lon="5.31694">
        <ele>234.8</ele>
        <time>2022-03-26T12:07:24Z</time>
      </trkpt>
      <trkpt lat="46.32222" lon="5.31683">
        <ele>235</ele>
        <time>2022-03-26T12:07:26Z</time>
      </trkpt>
      <trkpt lat="46.32212" lon="5.31675">
        <ele>235.4</ele>
        <time>2022-03-26T12:07:28Z</time>
      </trkpt>
      <trkpt lat="46.322" lon="5.31672">
        <ele>236</ele>
        <time>2022-03-26T12:07:30Z</time>
      </trkpt>
      <trkpt lat="46.32189" lon="5.31674">
        <ele>236.2</ele>
        <time>2022-03-26T12:07:32Z</time>
      </trkpt>
      <trkpt lat="46.32183" lon="5.31676">
        <ele>236.6</ele>
        <time>2022-03-26T12:07:33Z</time>
      </trkpt>
      <trkpt lat="46.3215" lon="5.3169">
        <ele>237.6</ele>
        <time>2022-03-26T12:07:39Z</time>
      </trkpt>
      <trkpt lat="46.32113" lon="5.3169">
        <ele>238</ele>
        <time>2022-03-26T12:07:45Z</time>
      </trkpt>
      <trkpt lat="46.32062" lon="5.31681">
        <ele>238.4</ele>
        <time>2022-03-26T12:07:53Z</time>
      </trkpt>
      <trkpt lat="46.32044" lon="5.31674">
        <ele>238.6</ele>
        <time>2022-03-26T12:07:56Z</time>
      </trkpt>
      <trkpt lat="46.32014" lon="5.31659">
        <ele>238.2</ele>
        <time>2022-03-26T12:08:01Z</time>
      </trkpt>
      <trkpt lat="46.31976" lon="5.3163">
        <ele>238</ele>
        <time>2022-03-26T12:08:08Z</time>
      </trkpt>
      <trkpt lat="46.31967" lon="5.31618">
        <ele>238</ele>
        <time>2022-03-26T12:08:10Z</time>
      </trkpt>
      <trkpt lat="46.31952" lon="5.3159">
        <ele>237.6</ele>
        <time>2022-03-26T12:08:14Z</time>
      </trkpt>
      <trkpt lat="46.31948" lon="5.31581">
        <ele>237.6</ele>
        <time>2022-03-26T12:08:15Z</time>
      </trkpt>
      <trkpt lat="46.31944" lon="5.31558">
        <ele>237.6</ele>
        <time>2022-03-26T12:08:18Z</time>
      </trkpt>
      <trkpt lat="46.31941" lon="5.31523">
        <ele>237.6</ele>
        <time>2022-03-26T12:08:22Z</time>
      </trkpt>
      <trkpt lat="46.31938" lon="5.31506">
        <ele>237.6</ele>
        <time>2022-03-26T12:08:24Z</time>
      </trkpt>
      <trkpt lat="46.31931" lon="5.31491">
        <ele>237.6</ele>
        <time>2022-03-26T12:08:26Z</time>
      </trkpt>
      <trkpt lat="46.31923" lon="5.31479">
        <ele>237.8</ele>
        <time>2022-03-26T12:08:28Z</time>
      </trkpt>
      <trkpt lat="46.31905" lon="5.31457">
        <ele>237.8</ele>
        <time>2022-03-26T12:08:32Z</time>
      </trkpt>
      <trkpt lat="46.31894" lon="5.31451">
        <ele>237.8</ele>
        <time>2022-03-26T12:08:34Z</time>
      </trkpt>
      <trkpt lat="46.31882" lon="5.31454">
        <ele>238</ele>
        <time>2022-03-26T12:08:36Z</time>
      </trkpt>
      <trkpt lat="46.31876" lon="5.31457">
        <ele>238</ele>
        <time>2022-03-26T12:08:37Z</time>
      </trkpt>
      <trkpt lat="46.31848" lon="5.31476">
        <ele>238.4</ele>
        <time>2022-03-26T12:08:42Z</time>
      </trkpt>
      <trkpt lat="46.31844" lon="5.31483">
        <ele>238.6</ele>
        <time>2022-03-26T12:08:43Z</time>
      </trkpt>
      <trkpt lat="46.31841" lon="5.31491">
        <ele>238.6</ele>
        <time>2022-03-26T12:08:44Z</time>
      </trkpt>
      <trkpt lat="46.31832" lon="5.31528">
        <ele>238.6</ele>
        <time>2022-03-26T12:08:48Z</time>
      </trkpt>
      <trkpt lat="46.31813" lon="5.31595">
        <ele>238</ele>
        <time>2022-03-26T12:08:55Z</time>
      </trkpt>
      <trkpt lat="46.31797" lon="5.31642">
        <ele>237.6</ele>
        <time>2022-03-26T12:09:00Z</time>
      </trkpt>
      <trkpt lat="46.31791" lon="5.31661">
        <ele>237.4</ele>
        <time>2022-03-26T12:09:02Z</time>
      </trkpt>
      <trkpt lat="46.31767" lon="5.31727">
        <ele>237</ele>
        <time>2022-03-26T12:09:09Z</time>
      </trkpt>
      <trkpt lat="46.31762" lon="5.31735">
        <ele>236.8</ele>
        <time>2022-03-26T12:09:10Z</time>
      </trkpt>
      <trkpt lat="46.31757" lon="5.31742">
        <ele>236.8</ele>
        <time>2022-03-26T12:09:11Z</time>
      </trkpt>
      <trkpt lat="46.31744" lon="5.31753">
        <ele>236.6</ele>
        <time>2022-03-26T12:09:13Z</time>
      </trkpt>
      <trkpt lat="46.31737" lon="5.31758">
        <ele>236.4</ele>
        <time>2022-03-26T12:09:14Z</time>
      </trkpt>
      <trkpt lat="46.31702" lon="5.3178">
        <ele>235.4</ele>
        <time>2022-03-26T12:09:19Z</time>
      </trkpt>
      <trkpt lat="46.31681" lon="5.31791">
        <ele>235</ele>
        <time>2022-03-26T12:09:22Z</time>
      </trkpt>
      <trkpt lat="46.31632" lon="5.31818">
        <ele>234.6</ele>
        <time>2022-03-26T12:09:29Z</time>
      </trkpt>
      <trkpt lat="46.31624" lon="5.31821">
        <ele>234.6</ele>
        <time>2022-03-26T12:09:30Z</time>
      </trkpt>
      <trkpt lat="46.31615" lon="5.31822">
        <ele>234.2</ele>
        <time>2022-03-26T12:09:31Z</time>
      </trkpt>
      <trkpt lat="46.31573" lon="5.31825">
        <ele>233.2</ele>
        <time>2022-03-26T12:09:36Z</time>
      </trkpt>
      <trkpt lat="46.3154" lon="5.31835">
        <ele>232</ele>
        <time>2022-03-26T12:09:40Z</time>
      </trkpt>
      <trkpt lat="46.31533" lon="5.31841">
        <ele>232</ele>
        <time>2022-03-26T12:09:41Z</time>
      </trkpt>
      <trkpt lat="46.31526" lon="5.31848">
        <ele>231.8</ele>
        <time>2022-03-26T12:09:42Z</time>
      </trkpt>
      <trkpt lat="46.31517" lon="5.31867">
        <ele>231.6</ele>
        <time>2022-03-26T12:09:44Z</time>
      </trkpt>
      <trkpt lat="46.3151" lon="5.31889">
        <ele>231.4</ele>
        <time>2022-03-26T12:09:46Z</time>
      </trkpt>
      <trkpt lat="46.31509" lon="5.31912">
        <ele>231.2</ele>
        <time>2022-03-26T12:09:48Z</time>
      </trkpt>
      <trkpt lat="46.31516" lon="5.31978">
        <ele>231.2</ele>
        <time>2022-03-26T12:09:54Z</time>
      </trkpt>
      <trkpt lat="46.31517" lon="5.3203">
        <ele>231.4</ele>
        <time>2022-03-26T12:09:59Z</time>
      </trkpt>
      <trkpt lat="46.31518" lon="5.3209">
        <ele>232.6</ele>
        <time>2022-03-26T12:10:06Z</time>
      </trkpt>
      <trkpt lat="46.31515" lon="5.32106">
        <ele>233</ele>
        <time>2022-03-26T12:10:08Z</time>
      </trkpt>
      <trkpt lat="46.3151" lon="5.32121">
        <ele>233.6</ele>
        <time>2022-03-26T12:10:10Z</time>
      </trkpt>
      <trkpt lat="46.31502" lon="5.32134">
        <ele>234.2</ele>
        <time>2022-03-26T12:10:12Z</time>
      </trkpt>
      <trkpt lat="46.31483" lon="5.32174">
        <ele>235</ele>
        <time>2022-03-26T12:10:18Z</time>
      </trkpt>
      <trkpt lat="46.3148" lon="5.32181">
        <ele>235.2</ele>
        <time>2022-03-26T12:10:19Z</time>
      </trkpt>
      <trkpt lat="46.31457" lon="5.32237">
        <ele>235.6</ele>
        <time>2022-03-26T12:10:26Z</time>
      </trkpt>
      <trkpt lat="46.31447" lon="5.32266">
        <ele>235</ele>
        <time>2022-03-26T12:10:29Z</time>
      </trkpt>
      <trkpt lat="46.31442" lon="5.32287">
        <ele>234.6</ele>
        <time>2022-03-26T12:10:31Z</time>
      </trkpt>
      <trkpt lat="46.31438" lon="5.32321">
        <ele>233.8</ele>
        <time>2022-03-26T12:10:34Z</time>
      </trkpt>
      <trkpt lat="46.31436" lon="5.32354">
        <ele>233.2</ele>
        <time>2022-03-26T12:10:37Z</time>
      </trkpt>
      <trkpt lat="46.31432" lon="5.32417">
        <ele>233.2</ele>
        <time>2022-03-26T12:10:43Z</time>
      </trkpt>
      <trkpt lat="46.31423" lon="5.32458">
        <ele>233.6</ele>
        <time>2022-03-26T12:10:48Z</time>
      </trkpt>
      <trkpt lat="46.31416" lon="5.32481">
        <ele>234.8</ele>
        <time>2022-03-26T12:10:52Z</time>
      </trkpt>
      <trkpt lat="46.31413" lon="5.32491">
        <ele>235.8</ele>
        <time>2022-03-26T12:10:54Z</time>
      </trkpt>
      <trkpt lat="46.31411" lon="5.32495">
        <ele>236</ele>
        <time>2022-03-26T12:10:55Z</time>
      </trkpt>
      <trkpt lat="46.31407" lon="5.32505">
        <ele>237.2</ele>
        <time>2022-03-26T12:10:57Z</time>
      </trkpt>
      <trkpt lat="46.31403" lon="5.32515">
        <ele>238.4</ele>
        <time>2022-03-26T12:10:59Z</time>
      </trkpt>
      <trkpt lat="46.31398" lon="5.3253">
        <ele>239.6</ele>
        <time>2022-03-26T12:11:02Z</time>
      </trkpt>
      <trkpt lat="46.3139" lon="5.32552">
        <ele>240.8</ele>
        <time>2022-03-26T12:11:06Z</time>
      </trkpt>
      <trkpt lat="46.31383" lon="5.32566">
        <ele>241.2</ele>
        <time>2022-03-26T12:11:09Z</time>
      </trkpt>
      <trkpt lat="46.31376" lon="5.32583">
        <ele>241.6</ele>
        <time>2022-03-26T12:11:12Z</time>
      </trkpt>
      <trkpt lat="46.31372" lon="5.32589">
        <ele>241.6</ele>
        <time>2022-03-26T12:11:13Z</time>
      </trkpt>
      <trkpt lat="46.31365" lon="5.32601">
        <ele>241.8</ele>
        <time>2022-03-26T12:11:15Z</time>
      </trkpt>
      <trkpt lat="46.31362" lon="5.32607">
        <ele>241.8</ele>
        <time>2022-03-26T12:11:16Z</time>
      </trkpt>
      <trkpt lat="46.31353" lon="5.32629">
        <ele>241.6</ele>
        <time>2022-03-26T12:11:19Z</time>
      </trkpt>
      <trkpt lat="46.31332" lon="5.3269">
        <ele>241.2</ele>
        <time>2022-03-26T12:11:26Z</time>
      </trkpt>
      <trkpt lat="46.31318" lon="5.32735">
        <ele>240.6</ele>
        <time>2022-03-26T12:11:31Z</time>
      </trkpt>
      <trkpt lat="46.31316" lon="5.32754">
        <ele>240.6</ele>
        <time>2022-03-26T12:11:33Z</time>
      </trkpt>
      <trkpt lat="46.31315" lon="5.32764">
        <ele>240.6</ele>
        <time>2022-03-26T12:11:34Z</time>
      </trkpt>
      <trkpt lat="46.31316" lon="5.32794">
        <ele>240.6</ele>
        <time>2022-03-26T12:11:37Z</time>
      </trkpt>
      <trkpt lat="46.31312" lon="5.32875">
        <ele>240</ele>
        <time>2022-03-26T12:11:45Z</time>
      </trkpt>
      <trkpt lat="46.3131" lon="5.32905">
        <ele>239.6</ele>
        <time>2022-03-26T12:11:48Z</time>
      </trkpt>
      <trkpt lat="46.31302" lon="5.32926">
        <ele>239.4</ele>
        <time>2022-03-26T12:11:50Z</time>
      </trkpt>
      <trkpt lat="46.31281" lon="5.32967">
        <ele>238.8</ele>
        <time>2022-03-26T12:11:54Z</time>
      </trkpt>
      <trkpt lat="46.31269" lon="5.3299">
        <ele>238.2</ele>
        <time>2022-03-26T12:11:56Z</time>
      </trkpt>
      <trkpt lat="46.31256" lon="5.33013">
        <ele>237.2</ele>
        <time>2022-03-26T12:11:58Z</time>
      </trkpt>
      <trkpt lat="46.3125" lon="5.33026">
        <ele>236.4</ele>
        <time>2022-03-26T12:11:59Z</time>
      </trkpt>
      <trkpt lat="46.31225" lon="5.33077">
        <ele>235.6</ele>
        <time>2022-03-26T12:12:03Z</time>
      </trkpt>
      <trkpt lat="46.31213" lon="5.33102">
        <ele>234.4</ele>
        <time>2022-03-26T12:12:05Z</time>
      </trkpt>
      <trkpt lat="46.31208" lon="5.33115">
        <ele>233.2</ele>
        <time>2022-03-26T12:12:06Z</time>
      </trkpt>
      <trkpt lat="46.3119" lon="5.33155">
        <ele>231.8</ele>
        <time>2022-03-26T12:12:09Z</time>
      </trkpt>
      <trkpt lat="46.31177" lon="5.33184">
        <ele>230.4</ele>
        <time>2022-03-26T12:12:11Z</time>
      </trkpt>
      <trkpt lat="46.31171" lon="5.33199">
        <ele>229.8</ele>
        <time>2022-03-26T12:12:12Z</time>
      </trkpt>
      <trkpt lat="46.31165" lon="5.33214">
        <ele>229</ele>
        <time>2022-03-26T12:12:13Z</time>
      </trkpt>
      <trkpt lat="46.31152" lon="5.33245">
        <ele>227.4</ele>
        <time>2022-03-26T12:12:15Z</time>
      </trkpt>
      <trkpt lat="46.31149" lon="5.33257">
        <ele>226.4</ele>
        <time>2022-03-26T12:12:16Z</time>
      </trkpt>
      <trkpt lat="46.31146" lon="5.33273">
        <ele>226</ele>
        <time>2022-03-26T12:12:17Z</time>
      </trkpt>
      <trkpt lat="46.31146" lon="5.33292">
        <ele>224.8</ele>
        <time>2022-03-26T12:12:18Z</time>
      </trkpt>
      <trkpt lat="46.31145" lon="5.33323">
        <ele>223.6</ele>
        <time>2022-03-26T12:12:20Z</time>
      </trkpt>
      <trkpt lat="46.31134" lon="5.33347">
        <ele>223.4</ele>
        <time>2022-03-26T12:12:22Z</time>
      </trkpt>
      <trkpt lat="46.31118" lon="5.3336">
        <ele>223.2</ele>
        <time>2022-03-26T12:12:24Z</time>
      </trkpt>
      <trkpt lat="46.31109" lon="5.33364">
        <ele>223.2</ele>
        <time>2022-03-26T12:12:25Z</time>
      </trkpt>
      <trkpt lat="46.31102" lon="5.33369">
        <ele>223.4</ele>
        <time>2022-03-26T12:12:26Z</time>
      </trkpt>
      <trkpt lat="46.31093" lon="5.33385">
        <ele>223.6</ele>
        <time>2022-03-26T12:12:28Z</time>
      </trkpt>
      <trkpt lat="46.31094" lon="5.33406">
        <ele>223.6</ele>
        <time>2022-03-26T12:12:30Z</time>
      </trkpt>
      <trkpt lat="46.31096" lon="5.33417">
        <ele>223.8</ele>
        <time>2022-03-26T12:12:31Z</time>
      </trkpt>
      <trkpt lat="46.31111" lon="5.33492">
        <ele>223.8</ele>
        <time>2022-03-26T12:12:38Z</time>
      </trkpt>
      <trkpt lat="46.31115" lon="5.33513">
        <ele>223.8</ele>
        <time>2022-03-26T12:12:40Z</time>
      </trkpt>
      <trkpt lat="46.3113" lon="5.33591">
        <ele>224.4</ele>
        <time>2022-03-26T12:12:48Z</time>
      </trkpt>
      <trkpt lat="46.31132" lon="5.336">
        <ele>224.4</ele>
        <time>2022-03-26T12:12:49Z</time>
      </trkpt>
      <trkpt lat="46.31135" lon="5.33616">
        <ele>224.4</ele>
        <time>2022-03-26T12:12:51Z</time>
      </trkpt>
      <trkpt lat="46.31133" lon="5.33631">
        <ele>224.8</ele>
        <time>2022-03-26T12:12:53Z</time>
      </trkpt>
      <trkpt lat="46.31126" lon="5.3364">
        <ele>224.8</ele>
        <time>2022-03-26T12:12:55Z</time>
      </trkpt>
      <trkpt lat="46.31121" lon="5.33642">
        <ele>224.8</ele>
        <time>2022-03-26T12:12:56Z</time>
      </trkpt>
      <trkpt lat="46.31105" lon="5.33642">
        <ele>225.6</ele>
        <time>2022-03-26T12:12:59Z</time>
      </trkpt>
      <trkpt lat="46.31083" lon="5.33644">
        <ele>227</ele>
        <time>2022-03-26T12:13:03Z</time>
      </trkpt>
      <trkpt lat="46.31049" lon="5.33648">
        <ele>227.6</ele>
        <time>2022-03-26T12:13:09Z</time>
      </trkpt>
      <trkpt lat="46.31037" lon="5.3365">
        <ele>227.8</ele>
        <time>2022-03-26T12:13:11Z</time>
      </trkpt>
      <trkpt lat="46.31001" lon="5.33661">
        <ele>228.4</ele>
        <time>2022-03-26T12:13:17Z</time>
      </trkpt>
      <trkpt lat="46.30953" lon="5.33684">
        <ele>229</ele>
        <time>2022-03-26T12:13:25Z</time>
      </trkpt>
      <trkpt lat="46.30946" lon="5.33687">
        <ele>229</ele>
        <time>2022-03-26T12:13:26Z</time>
      </trkpt>
      <trkpt lat="46.3089" lon="5.33715">
        <ele>228.6</ele>
        <time>2022-03-26T12:13:35Z</time>
      </trkpt>
      <trkpt lat="46.30878" lon="5.33722">
        <ele>228.6</ele>
        <time>2022-03-26T12:13:37Z</time>
      </trkpt>
      <trkpt lat="46.3084" lon="5.33753">
        <ele>228.6</ele>
        <time>2022-03-26T12:13:44Z</time>
      </trkpt>
      <trkpt lat="46.3081" lon="5.33799">
        <ele>229.2</ele>
        <time>2022-03-26T12:13:51Z</time>
      </trkpt>
      <trkpt lat="46.30778" lon="5.33847">
        <ele>229</ele>
        <time>2022-03-26T12:13:58Z</time>
      </trkpt>
      <trkpt lat="46.30772" lon="5.33853">
        <ele>228.8</ele>
        <time>2022-03-26T12:13:59Z</time>
      </trkpt>
      <trkpt lat="46.30754" lon="5.33875">
        <ele>228.2</ele>
        <time>2022-03-26T12:14:02Z</time>
      </trkpt>
      <trkpt lat="46.30747" lon="5.33881">
        <ele>228.4</ele>
        <time>2022-03-26T12:14:03Z</time>
      </trkpt>
      <trkpt lat="46.3074" lon="5.33882">
        <ele>228.2</ele>
        <time>2022-03-26T12:14:04Z</time>
      </trkpt>
      <trkpt lat="46.30733" lon="5.33881">
        <ele>228</ele>
        <time>2022-03-26T12:14:05Z</time>
      </trkpt>
      <trkpt lat="46.30726" lon="5.33877">
        <ele>227.6</ele>
        <time>2022-03-26T12:14:06Z</time>
      </trkpt>
      <trkpt lat="46.30713" lon="5.33867">
        <ele>227</ele>
        <time>2022-03-26T12:14:08Z</time>
      </trkpt>
      <trkpt lat="46.30707" lon="5.33862">
        <ele>226.6</ele>
        <time>2022-03-26T12:14:09Z</time>
      </trkpt>
      <trkpt lat="46.30673" lon="5.3382">
        <ele>226</ele>
        <time>2022-03-26T12:14:15Z</time>
      </trkpt>
      <trkpt lat="46.30667" lon="5.33813">
        <ele>225.8</ele>
        <time>2022-03-26T12:14:16Z</time>
      </trkpt>
      <trkpt lat="46.30655" lon="5.33787">
        <ele>225.8</ele>
        <time>2022-03-26T12:14:19Z</time>
      </trkpt>
      <trkpt lat="46.3064" lon="5.33748">
        <ele>226</ele>
        <time>2022-03-26T12:14:24Z</time>
      </trkpt>
      <trkpt lat="46.30625" lon="5.33713">
        <ele>227.2</ele>
        <time>2022-03-26T12:14:29Z</time>
      </trkpt>
      <trkpt lat="46.30621" lon="5.33706">
        <ele>227.4</ele>
        <time>2022-03-26T12:14:30Z</time>
      </trkpt>
      <trkpt lat="46.30617" lon="5.337">
        <ele>227.6</ele>
        <time>2022-03-26T12:14:31Z</time>
      </trkpt>
      <trkpt lat="46.30609" lon="5.3369">
        <ele>227.8</ele>
        <time>2022-03-26T12:14:33Z</time>
      </trkpt>
      <trkpt lat="46.30604" lon="5.33685">
        <ele>228</ele>
        <time>2022-03-26T12:14:34Z</time>
      </trkpt>
      <trkpt lat="46.30596" lon="5.33677">
        <ele>228.2</ele>
        <time>2022-03-26T12:14:36Z</time>
      </trkpt>
      <trkpt lat="46.30591" lon="5.33674">
        <ele>228.4</ele>
        <time>2022-03-26T12:14:37Z</time>
      </trkpt>
      <trkpt lat="46.30578" lon="5.33666">
        <ele>229</ele>
        <time>2022-03-26T12:14:40Z</time>
      </trkpt>
      <trkpt lat="46.30574" lon="5.33664">
        <ele>229.4</ele>
        <time>2022-03-26T12:14:41Z</time>
      </trkpt>
      <trkpt lat="46.30556" lon="5.33656">
        <ele>230.2</ele>
        <time>2022-03-26T12:14:45Z</time>
      </trkpt>
      <trkpt lat="46.30552" lon="5.33656">
        <ele>230.4</ele>
        <time>2022-03-26T12:14:46Z</time>
      </trkpt>
      <trkpt lat="46.30547" lon="5.33657">
        <ele>230.6</ele>
        <time>2022-03-26T12:14:47Z</time>
      </trkpt>
      <trkpt lat="46.30532" lon="5.33662">
        <ele>231.6</ele>
        <time>2022-03-26T12:14:50Z</time>
      </trkpt>
      <trkpt lat="46.30499" lon="5.33676">
        <ele>232.4</ele>
        <time>2022-03-26T12:14:56Z</time>
      </trkpt>
      <trkpt lat="46.30465" lon="5.33682">
        <ele>232.4</ele>
        <time>2022-03-26T12:15:01Z</time>
      </trkpt>
      <trkpt lat="46.30431" lon="5.33692">
        <ele>231.4</ele>
        <time>2022-03-26T12:15:05Z</time>
      </trkpt>
      <trkpt lat="46.30414" lon="5.33699">
        <ele>230</ele>
        <time>2022-03-26T12:15:07Z</time>
      </trkpt>
      <trkpt lat="46.30383" lon="5.33712">
        <ele>228.8</ele>
        <time>2022-03-26T12:15:11Z</time>
      </trkpt>
      <trkpt lat="46.30376" lon="5.33716">
        <ele>228.8</ele>
        <time>2022-03-26T12:15:12Z</time>
      </trkpt>
      <trkpt lat="46.30321" lon="5.33744">
        <ele>229</ele>
        <time>2022-03-26T12:15:20Z</time>
      </trkpt>
      <trkpt lat="46.30263" lon="5.33773">
        <ele>229</ele>
        <time>2022-03-26T12:15:28Z</time>
      </trkpt>
      <trkpt lat="46.30255" lon="5.33776">
        <ele>229</ele>
        <time>2022-03-26T12:15:29Z</time>
      </trkpt>
      <trkpt lat="46.30218" lon="5.33786">
        <ele>228.6</ele>
        <time>2022-03-26T12:15:34Z</time>
      </trkpt>
      <trkpt lat="46.30187" lon="5.33786">
        <ele>229</ele>
        <time>2022-03-26T12:15:39Z</time>
      </trkpt>
      <trkpt lat="46.30167" lon="5.33783">
        <ele>230.4</ele>
        <time>2022-03-26T12:15:43Z</time>
      </trkpt>
      <trkpt lat="46.30159" lon="5.3378">
        <ele>231.4</ele>
        <time>2022-03-26T12:15:45Z</time>
      </trkpt>
      <trkpt lat="46.30144" lon="5.33777">
        <ele>232.8</ele>
        <time>2022-03-26T12:15:48Z</time>
      </trkpt>
      <trkpt lat="46.30122" lon="5.33772">
        <ele>234.2</ele>
        <time>2022-03-26T12:15:53Z</time>
      </trkpt>
      <trkpt lat="46.30117" lon="5.33771">
        <ele>234.4</ele>
        <time>2022-03-26T12:15:54Z</time>
      </trkpt>
      <trkpt lat="46.30101" lon="5.33769">
        <ele>235.2</ele>
        <time>2022-03-26T12:15:58Z</time>
      </trkpt>
      <trkpt lat="46.30085" lon="5.33767">
        <ele>236.4</ele>
        <time>2022-03-26T12:16:02Z</time>
      </trkpt>
      <trkpt lat="46.30069" lon="5.33764">
        <ele>237.6</ele>
        <time>2022-03-26T12:16:06Z</time>
      </trkpt>
      <trkpt lat="46.30048" lon="5.33764">
        <ele>238.6</ele>
        <time>2022-03-26T12:16:11Z</time>
      </trkpt>
      <trkpt lat="46.30043" lon="5.33764">
        <ele>238.8</ele>
        <time>2022-03-26T12:16:12Z</time>
      </trkpt>
      <trkpt lat="46.30016" lon="5.33768">
        <ele>239.8</ele>
        <time>2022-03-26T12:16:18Z</time>
      </trkpt>
      <trkpt lat="46.30007" lon="5.33769">
        <ele>240.2</ele>
        <time>2022-03-26T12:16:20Z</time>
      </trkpt>
      <trkpt lat="46.29993" lon="5.33768">
        <ele>241</ele>
        <time>2022-03-26T12:16:23Z</time>
      </trkpt>
      <trkpt lat="46.29984" lon="5.33766">
        <ele>241.4</ele>
        <time>2022-03-26T12:16:25Z</time>
      </trkpt>
      <trkpt lat="46.29975" lon="5.33762">
        <ele>241.6</ele>
        <time>2022-03-26T12:16:27Z</time>
      </trkpt>
      <trkpt lat="46.29952" lon="5.33752">
        <ele>242</ele>
        <time>2022-03-26T12:16:32Z</time>
      </trkpt>
      <trkpt lat="46.29939" lon="5.33748">
        <ele>242.4</ele>
        <time>2022-03-26T12:16:35Z</time>
      </trkpt>
      <trkpt lat="46.29912" lon="5.33743">
        <ele>243.2</ele>
        <time>2022-03-26T12:16:41Z</time>
      </trkpt>
      <trkpt lat="46.29893" lon="5.33743">
        <ele>243.6</ele>
        <time>2022-03-26T12:16:45Z</time>
      </trkpt>
      <trkpt lat="46.29879" lon="5.33743">
        <ele>244.4</ele>
        <time>2022-03-26T12:16:48Z</time>
      </trkpt>
      <trkpt lat="46.29842" lon="5.33748">
        <ele>245.4</ele>
        <time>2022-03-26T12:16:56Z</time>
      </trkpt>
      <trkpt lat="46.29815" lon="5.33752">
        <ele>246.4</ele>
        <time>2022-03-26T12:17:02Z</time>
      </trkpt>
      <trkpt lat="46.298" lon="5.33754">
        <ele>247.2</ele>
        <time>2022-03-26T12:17:05Z</time>
      </trkpt>
      <trkpt lat="46.29791" lon="5.33756">
        <ele>247.6</ele>
        <time>2022-03-26T12:17:07Z</time>
      </trkpt>
      <trkpt lat="46.2976" lon="5.33757">
        <ele>248</ele>
        <time>2022-03-26T12:17:13Z</time>
      </trkpt>
      <trkpt lat="46.29755" lon="5.33757">
        <ele>248.2</ele>
        <time>2022-03-26T12:17:14Z</time>
      </trkpt>
      <trkpt lat="46.29746" lon="5.33755">
        <ele>248.6</ele>
        <time>2022-03-26T12:17:16Z</time>
      </trkpt>
      <trkpt lat="46.29731" lon="5.33753">
        <ele>249</ele>
        <time>2022-03-26T12:17:19Z</time>
      </trkpt>
      <trkpt lat="46.29722" lon="5.33751">
        <ele>249.2</ele>
        <time>2022-03-26T12:17:21Z</time>
      </trkpt>
      <trkpt lat="46.29704" lon="5.33752">
        <ele>249.6</ele>
        <time>2022-03-26T12:17:25Z</time>
      </trkpt>
      <trkpt lat="46.29699" lon="5.33752">
        <ele>249.6</ele>
        <time>2022-03-26T12:17:26Z</time>
      </trkpt>
      <trkpt lat="46.2968" lon="5.33751">
        <ele>250.6</ele>
        <time>2022-03-26T12:17:30Z</time>
      </trkpt>
      <trkpt lat="46.29661" lon="5.3375">
        <ele>251</ele>
        <time>2022-03-26T12:17:34Z</time>
      </trkpt>
      <trkpt lat="46.29647" lon="5.3375">
        <ele>251.8</ele>
        <time>2022-03-26T12:17:37Z</time>
      </trkpt>
      <trkpt lat="46.2961" lon="5.33752">
        <ele>252.8</ele>
        <time>2022-03-26T12:17:45Z</time>
      </trkpt>
      <trkpt lat="46.29606" lon="5.33752">
        <ele>252.8</ele>
        <time>2022-03-26T12:17:46Z</time>
      </trkpt>
      <trkpt lat="46.29592" lon="5.33751">
        <ele>254</ele>
        <time>2022-03-26T12:17:49Z</time>
      </trkpt>
      <trkpt lat="46.29567" lon="5.33746">
        <ele>254.4</ele>
        <time>2022-03-26T12:17:54Z</time>
      </trkpt>
      <trkpt lat="46.29558" lon="5.33744">
        <ele>254.6</ele>
        <time>2022-03-26T12:17:56Z</time>
      </trkpt>
      <trkpt lat="46.29539" lon="5.3374">
        <ele>255</ele>
        <time>2022-03-26T12:18:00Z</time>
      </trkpt>
      <trkpt lat="46.29529" lon="5.33738">
        <ele>255</ele>
        <time>2022-03-26T12:18:02Z</time>
      </trkpt>
      <trkpt lat="46.29487" lon="5.3373">
        <ele>256.2</ele>
        <time>2022-03-26T12:18:11Z</time>
      </trkpt>
      <trkpt lat="46.29478" lon="5.33729">
        <ele>256.4</ele>
        <time>2022-03-26T12:18:13Z</time>
      </trkpt>
      <trkpt lat="46.29449" lon="5.33729">
        <ele>257.2</ele>
        <time>2022-03-26T12:18:19Z</time>
      </trkpt>
      <trkpt lat="46.29445" lon="5.33729">
        <ele>257.6</ele>
        <time>2022-03-26T12:18:20Z</time>
      </trkpt>
      <trkpt lat="46.29431" lon="5.3373">
        <ele>258.4</ele>
        <time>2022-03-26T12:18:23Z</time>
      </trkpt>
      <trkpt lat="46.29402" lon="5.33734">
        <ele>259</ele>
        <time>2022-03-26T12:18:29Z</time>
      </trkpt>
      <trkpt lat="46.29377" lon="5.33739">
        <ele>259.4</ele>
        <time>2022-03-26T12:18:34Z</time>
      </trkpt>
      <trkpt lat="46.29358" lon="5.33742">
        <ele>260</ele>
        <time>2022-03-26T12:18:38Z</time>
      </trkpt>
      <trkpt lat="46.29348" lon="5.33744">
        <ele>260.6</ele>
        <time>2022-03-26T12:18:40Z</time>
      </trkpt>
      <trkpt lat="46.29332" lon="5.33748">
        <ele>260.8</ele>
        <time>2022-03-26T12:18:43Z</time>
      </trkpt>
      <trkpt lat="46.29317" lon="5.33751">
        <ele>261.4</ele>
        <time>2022-03-26T12:18:46Z</time>
      </trkpt>
      <trkpt lat="46.293" lon="5.33756">
        <ele>261.6</ele>
        <time>2022-03-26T12:18:49Z</time>
      </trkpt>
      <trkpt lat="46.29272" lon="5.33768">
        <ele>262</ele>
        <time>2022-03-26T12:18:54Z</time>
      </trkpt>
      <trkpt lat="46.29266" lon="5.33772">
        <ele>262</ele>
        <time>2022-03-26T12:18:55Z</time>
      </trkpt>
      <trkpt lat="46.29244" lon="5.33792">
        <ele>262.4</ele>
        <time>2022-03-26T12:19:00Z</time>
      </trkpt>
      <trkpt lat="46.29235" lon="5.33801">
        <ele>262.8</ele>
        <time>2022-03-26T12:19:02Z</time>
      </trkpt>
      <trkpt lat="46.2923" lon="5.33805">
        <ele>263</ele>
        <time>2022-03-26T12:19:03Z</time>
      </trkpt>
      <trkpt lat="46.29226" lon="5.33809">
        <ele>263</ele>
        <time>2022-03-26T12:19:04Z</time>
      </trkpt>
      <trkpt lat="46.29222" lon="5.33814">
        <ele>263.2</ele>
        <time>2022-03-26T12:19:05Z</time>
      </trkpt>
      <trkpt lat="46.29204" lon="5.3383">
        <ele>264</ele>
        <time>2022-03-26T12:19:09Z</time>
      </trkpt>
      <trkpt lat="46.2919" lon="5.33842">
        <ele>265.2</ele>
        <time>2022-03-26T12:19:12Z</time>
      </trkpt>
      <trkpt lat="46.29185" lon="5.33845">
        <ele>265.2</ele>
        <time>2022-03-26T12:19:13Z</time>
      </trkpt>
      <trkpt lat="46.29156" lon="5.33857">
        <ele>265.6</ele>
        <time>2022-03-26T12:19:18Z</time>
      </trkpt>
      <trkpt lat="46.29115" lon="5.3387">
        <ele>266</ele>
        <time>2022-03-26T12:19:25Z</time>
      </trkpt>
      <trkpt lat="46.29098" lon="5.33877">
        <ele>266.2</ele>
        <time>2022-03-26T12:19:28Z</time>
      </trkpt>
      <trkpt lat="46.29081" lon="5.33882">
        <ele>266.4</ele>
        <time>2022-03-26T12:19:31Z</time>
      </trkpt>
      <trkpt lat="46.29038" lon="5.33898">
        <ele>267</ele>
        <time>2022-03-26T12:19:39Z</time>
      </trkpt>
      <trkpt lat="46.29032" lon="5.33899">
        <ele>267.2</ele>
        <time>2022-03-26T12:19:40Z</time>
      </trkpt>
      <trkpt lat="46.29004" lon="5.33902">
        <ele>267.4</ele>
        <time>2022-03-26T12:19:45Z</time>
      </trkpt>
      <trkpt lat="46.28992" lon="5.33902">
        <ele>267.6</ele>
        <time>2022-03-26T12:19:47Z</time>
      </trkpt>
      <trkpt lat="46.28963" lon="5.33902">
        <ele>267.8</ele>
        <time>2022-03-26T12:19:52Z</time>
      </trkpt>
      <trkpt lat="46.28916" lon="5.33907">
        <ele>268.2</ele>
        <time>2022-03-26T12:20:00Z</time>
      </trkpt>
      <trkpt lat="46.2891" lon="5.33909">
        <ele>268.2</ele>
        <time>2022-03-26T12:20:01Z</time>
      </trkpt>
      <trkpt lat="46.28866" lon="5.33923">
        <ele>268.2</ele>
        <time>2022-03-26T12:20:08Z</time>
      </trkpt>
      <trkpt lat="46.28821" lon="5.33952">
        <ele>267.2</ele>
        <time>2022-03-26T12:20:15Z</time>
      </trkpt>
      <trkpt lat="46.28815" lon="5.33956">
        <ele>267</ele>
        <time>2022-03-26T12:20:16Z</time>
      </trkpt>
      <trkpt lat="46.28781" lon="5.3398">
        <ele>266</ele>
        <time>2022-03-26T12:20:21Z</time>
      </trkpt>
      <trkpt lat="46.28761" lon="5.33994">
        <ele>265.4</ele>
        <time>2022-03-26T12:20:24Z</time>
      </trkpt>
      <trkpt lat="46.28754" lon="5.34">
        <ele>265.4</ele>
        <time>2022-03-26T12:20:25Z</time>
      </trkpt>
      <trkpt lat="46.28733" lon="5.34014">
        <ele>265</ele>
        <time>2022-03-26T12:20:28Z</time>
      </trkpt>
      <trkpt lat="46.28712" lon="5.34028">
        <ele>264.6</ele>
        <time>2022-03-26T12:20:31Z</time>
      </trkpt>
      <trkpt lat="46.28661" lon="5.34066">
        <ele>265</ele>
        <time>2022-03-26T12:20:39Z</time>
      </trkpt>
      <trkpt lat="46.2865" lon="5.34074">
        <ele>265.2</ele>
        <time>2022-03-26T12:20:41Z</time>
      </trkpt>
      <trkpt lat="46.28621" lon="5.34095">
        <ele>266</ele>
        <time>2022-03-26T12:20:46Z</time>
      </trkpt>
      <trkpt lat="46.28593" lon="5.34117">
        <ele>266.2</ele>
        <time>2022-03-26T12:20:51Z</time>
      </trkpt>
      <trkpt lat="46.28575" lon="5.34132">
        <ele>266.6</ele>
        <time>2022-03-26T12:20:54Z</time>
      </trkpt>
      <trkpt lat="46.28561" lon="5.34145">
        <ele>267.2</ele>
        <time>2022-03-26T12:20:57Z</time>
      </trkpt>
      <trkpt lat="46.28549" lon="5.34155">
        <ele>267.6</ele>
        <time>2022-03-26T12:20:59Z</time>
      </trkpt>
      <trkpt lat="46.28544" lon="5.34158">
        <ele>267.8</ele>
        <time>2022-03-26T12:21:00Z</time>
      </trkpt>
      <trkpt lat="46.28534" lon="5.34165">
        <ele>267.8</ele>
        <time>2022-03-26T12:21:02Z</time>
      </trkpt>
      <trkpt lat="46.28525" lon="5.34165">
        <ele>268</ele>
        <time>2022-03-26T12:21:04Z</time>
      </trkpt>
      <trkpt lat="46.28517" lon="5.34157">
        <ele>267.8</ele>
        <time>2022-03-26T12:21:06Z</time>
      </trkpt>
      <trkpt lat="46.28513" lon="5.3415">
        <ele>267.8</ele>
        <time>2022-03-26T12:21:07Z</time>
      </trkpt>
      <trkpt lat="46.28489" lon="5.34119">
        <ele>267.2</ele>
        <time>2022-03-26T12:21:12Z</time>
      </trkpt>
      <trkpt lat="46.28457" lon="5.34074">
        <ele>267.4</ele>
        <time>2022-03-26T12:21:19Z</time>
      </trkpt>
      <trkpt lat="46.28425" lon="5.34031">
        <ele>267.6</ele>
        <time>2022-03-26T12:21:26Z</time>
      </trkpt>
      <trkpt lat="46.28383" lon="5.33974">
        <ele>267.8</ele>
        <time>2022-03-26T12:21:35Z</time>
      </trkpt>
      <trkpt lat="46.28346" lon="5.33926">
        <ele>268</ele>
        <time>2022-03-26T12:21:43Z</time>
      </trkpt>
      <trkpt lat="46.28302" lon="5.33867">
        <ele>268</ele>
        <time>2022-03-26T12:21:52Z</time>
      </trkpt>
      <trkpt lat="46.28292" lon="5.33855">
        <ele>267.8</ele>
        <time>2022-03-26T12:21:54Z</time>
      </trkpt>
      <trkpt lat="46.28251" lon="5.338">
        <ele>267.8</ele>
        <time>2022-03-26T12:22:02Z</time>
      </trkpt>
      <trkpt lat="46.28235" lon="5.33778">
        <ele>267.6</ele>
        <time>2022-03-26T12:22:05Z</time>
      </trkpt>
      <trkpt lat="46.28198" lon="5.3373">
        <ele>266.4</ele>
        <time>2022-03-26T12:22:12Z</time>
      </trkpt>
      <trkpt lat="46.28187" lon="5.33716">
        <ele>266</ele>
        <time>2022-03-26T12:22:14Z</time>
      </trkpt>
      <trkpt lat="46.28176" lon="5.33698">
        <ele>265.8</ele>
        <time>2022-03-26T12:22:17Z</time>
      </trkpt>
      <trkpt lat="46.28165" lon="5.33693">
        <ele>265.6</ele>
        <time>2022-03-26T12:22:19Z</time>
      </trkpt>
      <trkpt lat="46.28157" lon="5.33691">
        <ele>265.6</ele>
        <time>2022-03-26T12:22:20Z</time>
      </trkpt>
      <trkpt lat="46.28122" lon="5.33675">
        <ele>265.2</ele>
        <time>2022-03-26T12:22:25Z</time>
      </trkpt>
      <trkpt lat="46.2811" lon="5.33669">
        <ele>265</ele>
        <time>2022-03-26T12:22:27Z</time>
      </trkpt>
      <trkpt lat="46.28057" lon="5.33644">
        <ele>265.2</ele>
        <time>2022-03-26T12:22:35Z</time>
      </trkpt>
      <trkpt lat="46.28051" lon="5.33641">
        <ele>265</ele>
        <time>2022-03-26T12:22:36Z</time>
      </trkpt>
      <trkpt lat="46.28011" lon="5.33623">
        <ele>264.8</ele>
        <time>2022-03-26T12:22:42Z</time>
      </trkpt>
      <trkpt lat="46.27958" lon="5.33598">
        <ele>264.8</ele>
        <time>2022-03-26T12:22:50Z</time>
      </trkpt>
      <trkpt lat="46.27944" lon="5.33591">
        <ele>264.6</ele>
        <time>2022-03-26T12:22:52Z</time>
      </trkpt>
      <trkpt lat="46.2789" lon="5.33566">
        <ele>264.4</ele>
        <time>2022-03-26T12:23:00Z</time>
      </trkpt>
      <trkpt lat="46.27862" lon="5.33553">
        <ele>264.4</ele>
        <time>2022-03-26T12:23:04Z</time>
      </trkpt>
      <trkpt lat="46.27848" lon="5.33547">
        <ele>264</ele>
        <time>2022-03-26T12:23:06Z</time>
      </trkpt>
      <trkpt lat="46.27833" lon="5.33541">
        <ele>264</ele>
        <time>2022-03-26T12:23:08Z</time>
      </trkpt>
      <trkpt lat="46.27819" lon="5.33535">
        <ele>263.8</ele>
        <time>2022-03-26T12:23:10Z</time>
      </trkpt>
      <trkpt lat="46.27812" lon="5.3353">
        <ele>263.8</ele>
        <time>2022-03-26T12:23:11Z</time>
      </trkpt>
      <trkpt lat="46.27798" lon="5.33518">
        <ele>263.6</ele>
        <time>2022-03-26T12:23:13Z</time>
      </trkpt>
      <trkpt lat="46.27793" lon="5.33511">
        <ele>263.6</ele>
        <time>2022-03-26T12:23:14Z</time>
      </trkpt>
      <trkpt lat="46.27754" lon="5.33449">
        <ele>263.2</ele>
        <time>2022-03-26T12:23:22Z</time>
      </trkpt>
      <trkpt lat="46.27713" lon="5.33391">
        <ele>263.4</ele>
        <time>2022-03-26T12:23:30Z</time>
      </trkpt>
      <trkpt lat="46.27673" lon="5.33365">
        <ele>263.4</ele>
        <time>2022-03-26T12:23:36Z</time>
      </trkpt>
      <trkpt lat="46.2763" lon="5.33348">
        <ele>263.4</ele>
        <time>2022-03-26T12:23:42Z</time>
      </trkpt>
      <trkpt lat="46.27601" lon="5.3333">
        <ele>263.4</ele>
        <time>2022-03-26T12:23:46Z</time>
      </trkpt>
      <trkpt lat="46.27554" lon="5.33277">
        <ele>263.4</ele>
        <time>2022-03-26T12:23:54Z</time>
      </trkpt>
      <trkpt lat="46.2751" lon="5.33221">
        <ele>263.8</ele>
        <time>2022-03-26T12:24:02Z</time>
      </trkpt>
      <trkpt lat="46.27499" lon="5.33205">
        <ele>263.8</ele>
        <time>2022-03-26T12:24:04Z</time>
      </trkpt>
      <trkpt lat="46.27472" lon="5.33152">
        <ele>263.4</ele>
        <time>2022-03-26T12:24:10Z</time>
      </trkpt>
      <trkpt lat="46.27456" lon="5.33116">
        <ele>263</ele>
        <time>2022-03-26T12:24:14Z</time>
      </trkpt>
      <trkpt lat="46.27434" lon="5.3307">
        <ele>262.6</ele>
        <time>2022-03-26T12:24:19Z</time>
      </trkpt>
      <trkpt lat="46.27411" lon="5.33023">
        <ele>261.8</ele>
        <time>2022-03-26T12:24:24Z</time>
      </trkpt>
      <trkpt lat="46.27401" lon="5.33004">
        <ele>261.6</ele>
        <time>2022-03-26T12:24:26Z</time>
      </trkpt>
      <trkpt lat="46.27396" lon="5.32994">
        <ele>261.6</ele>
        <time>2022-03-26T12:24:27Z</time>
      </trkpt>
      <trkpt lat="46.27387" lon="5.32961">
        <ele>261</ele>
        <time>2022-03-26T12:24:30Z</time>
      </trkpt>
      <trkpt lat="46.2737" lon="5.32901">
        <ele>260.2</ele>
        <time>2022-03-26T12:24:36Z</time>
      </trkpt>
      <trkpt lat="46.27367" lon="5.32894">
        <ele>260.2</ele>
        <time>2022-03-26T12:24:37Z</time>
      </trkpt>
      <trkpt lat="46.27359" lon="5.32882">
        <ele>260</ele>
        <time>2022-03-26T12:24:39Z</time>
      </trkpt>
      <trkpt lat="46.27347" lon="5.32875">
        <ele>260</ele>
        <time>2022-03-26T12:24:41Z</time>
      </trkpt>
      <trkpt lat="46.2734" lon="5.32873">
        <ele>260</ele>
        <time>2022-03-26T12:24:42Z</time>
      </trkpt>
      <trkpt lat="46.27303" lon="5.32862">
        <ele>259.6</ele>
        <time>2022-03-26T12:24:47Z</time>
      </trkpt>
      <trkpt lat="46.2728" lon="5.32858">
        <ele>258.8</ele>
        <time>2022-03-26T12:24:50Z</time>
      </trkpt>
      <trkpt lat="46.27257" lon="5.32856">
        <ele>258</ele>
        <time>2022-03-26T12:24:53Z</time>
      </trkpt>
      <trkpt lat="46.27249" lon="5.32857">
        <ele>258</ele>
        <time>2022-03-26T12:24:54Z</time>
      </trkpt>
      <trkpt lat="46.27242" lon="5.32859">
        <ele>257.6</ele>
        <time>2022-03-26T12:24:55Z</time>
      </trkpt>
      <trkpt lat="46.27229" lon="5.32867">
        <ele>257.2</ele>
        <time>2022-03-26T12:24:57Z</time>
      </trkpt>
      <trkpt lat="46.27206" lon="5.32898">
        <ele>256.6</ele>
        <time>2022-03-26T12:25:01Z</time>
      </trkpt>
      <trkpt lat="46.272" lon="5.32906">
        <ele>256.4</ele>
        <time>2022-03-26T12:25:02Z</time>
      </trkpt>
      <trkpt lat="46.27174" lon="5.32948">
        <ele>255.8</ele>
        <time>2022-03-26T12:25:07Z</time>
      </trkpt>
      <trkpt lat="46.2715" lon="5.32995">
        <ele>255.2</ele>
        <time>2022-03-26T12:25:12Z</time>
      </trkpt>
      <trkpt lat="46.27125" lon="5.33047">
        <ele>254.6</ele>
        <time>2022-03-26T12:25:17Z</time>
      </trkpt>
      <trkpt lat="46.27114" lon="5.3307">
        <ele>253.8</ele>
        <time>2022-03-26T12:25:19Z</time>
      </trkpt>
      <trkpt lat="46.27103" lon="5.33092">
        <ele>252.6</ele>
        <time>2022-03-26T12:25:21Z</time>
      </trkpt>
      <trkpt lat="46.27091" lon="5.33116">
        <ele>251.4</ele>
        <time>2022-03-26T12:25:23Z</time>
      </trkpt>
      <trkpt lat="46.27085" lon="5.33127">
        <ele>250.8</ele>
        <time>2022-03-26T12:25:24Z</time>
      </trkpt>
      <trkpt lat="46.2708" lon="5.33138">
        <ele>250.2</ele>
        <time>2022-03-26T12:25:25Z</time>
      </trkpt>
      <trkpt lat="46.27067" lon="5.33158">
        <ele>249.4</ele>
        <time>2022-03-26T12:25:27Z</time>
      </trkpt>
      <trkpt lat="46.27059" lon="5.33165">
        <ele>249</ele>
        <time>2022-03-26T12:25:28Z</time>
      </trkpt>
      <trkpt lat="46.2705" lon="5.33171">
        <ele>248.8</ele>
        <time>2022-03-26T12:25:29Z</time>
      </trkpt>
      <trkpt lat="46.2703" lon="5.33178">
        <ele>247.4</ele>
        <time>2022-03-26T12:25:31Z</time>
      </trkpt>
      <trkpt lat="46.27011" lon="5.33186">
        <ele>245.8</ele>
        <time>2022-03-26T12:25:33Z</time>
      </trkpt>
      <trkpt lat="46.26976" lon="5.33198">
        <ele>244.8</ele>
        <time>2022-03-26T12:25:37Z</time>
      </trkpt>
      <trkpt lat="46.26969" lon="5.33202">
        <ele>244.6</ele>
        <time>2022-03-26T12:25:38Z</time>
      </trkpt>
      <trkpt lat="46.26951" lon="5.33208">
        <ele>243.8</ele>
        <time>2022-03-26T12:25:41Z</time>
      </trkpt>
      <trkpt lat="46.26945" lon="5.33211">
        <ele>243.6</ele>
        <time>2022-03-26T12:25:42Z</time>
      </trkpt>
      <trkpt lat="46.26918" lon="5.3322">
        <ele>243.4</ele>
        <time>2022-03-26T12:25:47Z</time>
      </trkpt>
      <trkpt lat="46.26873" lon="5.33241">
        <ele>243.4</ele>
        <time>2022-03-26T12:25:55Z</time>
      </trkpt>
      <trkpt lat="46.2684" lon="5.33256">
        <ele>243.8</ele>
        <time>2022-03-26T12:26:01Z</time>
      </trkpt>
      <trkpt lat="46.2683" lon="5.3326">
        <ele>244.2</ele>
        <time>2022-03-26T12:26:03Z</time>
      </trkpt>
      <trkpt lat="46.26818" lon="5.33264">
        <ele>244.8</ele>
        <time>2022-03-26T12:26:05Z</time>
      </trkpt>
      <trkpt lat="46.26808" lon="5.33267">
        <ele>245.6</ele>
        <time>2022-03-26T12:26:07Z</time>
      </trkpt>
      <trkpt lat="46.26803" lon="5.33268">
        <ele>245.8</ele>
        <time>2022-03-26T12:26:08Z</time>
      </trkpt>
      <trkpt lat="46.26779" lon="5.33277">
        <ele>246.6</ele>
        <time>2022-03-26T12:26:13Z</time>
      </trkpt>
      <trkpt lat="46.26772" lon="5.33279">
        <ele>246.8</ele>
        <time>2022-03-26T12:26:14Z</time>
      </trkpt>
      <trkpt lat="46.26767" lon="5.33281">
        <ele>247</ele>
        <time>2022-03-26T12:26:15Z</time>
      </trkpt>
      <trkpt lat="46.26742" lon="5.33289">
        <ele>247.8</ele>
        <time>2022-03-26T12:26:20Z</time>
      </trkpt>
      <trkpt lat="46.2673" lon="5.33293">
        <ele>248.2</ele>
        <time>2022-03-26T12:26:22Z</time>
      </trkpt>
      <trkpt lat="46.26712" lon="5.33299">
        <ele>248.8</ele>
        <time>2022-03-26T12:26:26Z</time>
      </trkpt>
      <trkpt lat="46.26703" lon="5.33302">
        <ele>249.4</ele>
        <time>2022-03-26T12:26:28Z</time>
      </trkpt>
      <trkpt lat="46.26693" lon="5.33297">
        <ele>250</ele>
        <time>2022-03-26T12:26:31Z</time>
      </trkpt>
      <trkpt lat="46.26687" lon="5.33288">
        <ele>250.4</ele>
        <time>2022-03-26T12:26:33Z</time>
      </trkpt>
      <trkpt lat="46.26683" lon="5.33284">
        <ele>250.6</ele>
        <time>2022-03-26T12:26:34Z</time>
      </trkpt>
      <trkpt lat="46.26677" lon="5.33273">
        <ele>250.6</ele>
        <time>2022-03-26T12:26:36Z</time>
      </trkpt>
      <trkpt lat="46.26657" lon="5.3324">
        <ele>250.4</ele>
        <time>2022-03-26T12:26:41Z</time>
      </trkpt>
      <trkpt lat="46.26639" lon="5.33225">
        <ele>249.8</ele>
        <time>2022-03-26T12:26:44Z</time>
      </trkpt>
      <trkpt lat="46.26634" lon="5.33222">
        <ele>249.6</ele>
        <time>2022-03-26T12:26:45Z</time>
      </trkpt>
      <trkpt lat="46.26621" lon="5.33219">
        <ele>249.6</ele>
        <time>2022-03-26T12:26:47Z</time>
      </trkpt>
      <trkpt lat="46.26596" lon="5.33214">
        <ele>249</ele>
        <time>2022-03-26T12:26:51Z</time>
      </trkpt>
      <trkpt lat="46.26572" lon="5.3321">
        <ele>248.4</ele>
        <time>2022-03-26T12:26:55Z</time>
      </trkpt>
      <trkpt lat="46.26563" lon="5.33209">
        <ele>248.2</ele>
        <time>2022-03-26T12:26:57Z</time>
      </trkpt>
      <trkpt lat="46.26555" lon="5.33208">
        <ele>247.6</ele>
        <time>2022-03-26T12:27:00Z</time>
      </trkpt>
      <trkpt lat="46.26554" lon="5.33207">
        <ele>247.4</ele>
        <time>2022-03-26T12:27:01Z</time>
      </trkpt>
      <trkpt lat="46.26554" lon="5.33207">
        <ele>247</ele>
        <time>2022-03-26T12:27:03Z</time>
      </trkpt>
      <trkpt lat="46.2655" lon="5.33208">
        <ele>246</ele>
        <time>2022-03-26T12:27:52Z</time>
      </trkpt>
      <trkpt lat="46.26532" lon="5.33211">
        <ele>245.6</ele>
        <time>2022-03-26T12:27:56Z</time>
      </trkpt>
      <trkpt lat="46.26519" lon="5.33211">
        <ele>245.6</ele>
        <time>2022-03-26T12:27:58Z</time>
      </trkpt>
      <trkpt lat="46.26505" lon="5.33204">
        <ele>245.4</ele>
        <time>2022-03-26T12:28:00Z</time>
      </trkpt>
      <trkpt lat="46.26492" lon="5.33188">
        <ele>245.2</ele>
        <time>2022-03-26T12:28:02Z</time>
      </trkpt>
      <trkpt lat="46.26489" lon="5.33181">
        <ele>245.2</ele>
        <time>2022-03-26T12:28:03Z</time>
      </trkpt>
      <trkpt lat="46.26469" lon="5.33124">
        <ele>245.2</ele>
        <time>2022-03-26T12:28:09Z</time>
      </trkpt>
      <trkpt lat="46.26444" lon="5.33055">
        <ele>245.4</ele>
        <time>2022-03-26T12:28:17Z</time>
      </trkpt>
      <trkpt lat="46.26438" lon="5.33028">
        <ele>245.4</ele>
        <time>2022-03-26T12:28:20Z</time>
      </trkpt>
      <trkpt lat="46.26438" lon="5.33019">
        <ele>245.4</ele>
        <time>2022-03-26T12:28:21Z</time>
      </trkpt>
      <trkpt lat="46.26435" lon="5.32983">
        <ele>245.8</ele>
        <time>2022-03-26T12:28:26Z</time>
      </trkpt>
      <trkpt lat="46.26433" lon="5.32976">
        <ele>246.4</ele>
        <time>2022-03-26T12:28:27Z</time>
      </trkpt>
      <trkpt lat="46.26432" lon="5.3297">
        <ele>246.4</ele>
        <time>2022-03-26T12:28:28Z</time>
      </trkpt>
      <trkpt lat="46.26428" lon="5.32959">
        <ele>247</ele>
        <time>2022-03-26T12:28:30Z</time>
      </trkpt>
      <trkpt lat="46.26421" lon="5.32943">
        <ele>248</ele>
        <time>2022-03-26T12:28:33Z</time>
      </trkpt>
      <trkpt lat="46.26413" lon="5.32929">
        <ele>249</ele>
        <time>2022-03-26T12:28:36Z</time>
      </trkpt>
      <trkpt lat="46.26405" lon="5.32915">
        <ele>249.8</ele>
        <time>2022-03-26T12:28:39Z</time>
      </trkpt>
      <trkpt lat="46.26403" lon="5.32911">
        <ele>250</ele>
        <time>2022-03-26T12:28:40Z</time>
      </trkpt>
      <trkpt lat="46.264" lon="5.32906">
        <ele>250.4</ele>
        <time>2022-03-26T12:28:41Z</time>
      </trkpt>
      <trkpt lat="46.26394" lon="5.32887">
        <ele>251.6</ele>
        <time>2022-03-26T12:28:45Z</time>
      </trkpt>
      <trkpt lat="46.26393" lon="5.32882">
        <ele>252</ele>
        <time>2022-03-26T12:28:46Z</time>
      </trkpt>
      <trkpt lat="46.26387" lon="5.32863">
        <ele>253</ele>
        <time>2022-03-26T12:28:50Z</time>
      </trkpt>
      <trkpt lat="46.26383" lon="5.32849">
        <ele>254</ele>
        <time>2022-03-26T12:28:53Z</time>
      </trkpt>
      <trkpt lat="46.26381" lon="5.32845">
        <ele>254.2</ele>
        <time>2022-03-26T12:28:54Z</time>
      </trkpt>
      <trkpt lat="46.26373" lon="5.32827">
        <ele>255.2</ele>
        <time>2022-03-26T12:28:58Z</time>
      </trkpt>
      <trkpt lat="46.26368" lon="5.32811">
        <ele>256</ele>
        <time>2022-03-26T12:29:01Z</time>
      </trkpt>
      <trkpt lat="46.26365" lon="5.32806">
        <ele>256.4</ele>
        <time>2022-03-26T12:29:02Z</time>
      </trkpt>
      <trkpt lat="46.26347" lon="5.32773">
        <ele>257.6</ele>
        <time>2022-03-26T12:29:09Z</time>
      </trkpt>
      <trkpt lat="46.26324" lon="5.32742">
        <ele>258.6</ele>
        <time>2022-03-26T12:29:16Z</time>
      </trkpt>
      <trkpt lat="46.26321" lon="5.32738">
        <ele>258.8</ele>
        <time>2022-03-26T12:29:17Z</time>
      </trkpt>
      <trkpt lat="46.26313" lon="5.32734">
        <ele>259</ele>
        <time>2022-03-26T12:29:19Z</time>
      </trkpt>
      <trkpt lat="46.26303" lon="5.32733">
        <ele>259.2</ele>
        <time>2022-03-26T12:29:21Z</time>
      </trkpt>
      <trkpt lat="46.26283" lon="5.3274">
        <ele>259.6</ele>
        <time>2022-03-26T12:29:25Z</time>
      </trkpt>
      <trkpt lat="46.26273" lon="5.32741">
        <ele>259.8</ele>
        <time>2022-03-26T12:29:27Z</time>
      </trkpt>
      <trkpt lat="46.26235" lon="5.3274">
        <ele>260.4</ele>
        <time>2022-03-26T12:29:34Z</time>
      </trkpt>
      <trkpt lat="46.26196" lon="5.32741">
        <ele>260.8</ele>
        <time>2022-03-26T12:29:41Z</time>
      </trkpt>
      <trkpt lat="46.26155" lon="5.32745">
        <ele>261.2</ele>
        <time>2022-03-26T12:29:48Z</time>
      </trkpt>
      <trkpt lat="46.26098" lon="5.32755">
        <ele>261.4</ele>
        <time>2022-03-26T12:29:58Z</time>
      </trkpt>
      <trkpt lat="46.26056" lon="5.32767">
        <ele>261.6</ele>
        <time>2022-03-26T12:30:05Z</time>
      </trkpt>
      <trkpt lat="46.26035" lon="5.32775">
        <ele>261.8</ele>
        <time>2022-03-26T12:30:09Z</time>
      </trkpt>
      <trkpt lat="46.26013" lon="5.32787">
        <ele>262.2</ele>
        <time>2022-03-26T12:30:13Z</time>
      </trkpt>
      <trkpt lat="46.25962" lon="5.32819">
        <ele>262.6</ele>
        <time>2022-03-26T12:30:22Z</time>
      </trkpt>
      <trkpt lat="46.2593" lon="5.32841">
        <ele>262.8</ele>
        <time>2022-03-26T12:30:28Z</time>
      </trkpt>
      <trkpt lat="46.25924" lon="5.32845">
        <ele>262.8</ele>
        <time>2022-03-26T12:30:29Z</time>
      </trkpt>
      <trkpt lat="46.25914" lon="5.32851">
        <ele>262.8</ele>
        <time>2022-03-26T12:30:31Z</time>
      </trkpt>
      <trkpt lat="46.25908" lon="5.32851">
        <ele>262.8</ele>
        <time>2022-03-26T12:30:32Z</time>
      </trkpt>
      <trkpt lat="46.25903" lon="5.3285">
        <ele>262.8</ele>
        <time>2022-03-26T12:30:33Z</time>
      </trkpt>
      <trkpt lat="46.25894" lon="5.32841">
        <ele>262.8</ele>
        <time>2022-03-26T12:30:35Z</time>
      </trkpt>
      <trkpt lat="46.25874" lon="5.32801">
        <ele>262.6</ele>
        <time>2022-03-26T12:30:40Z</time>
      </trkpt>
      <trkpt lat="46.25848" lon="5.32742">
        <ele>262.4</ele>
        <time>2022-03-26T12:30:47Z</time>
      </trkpt>
      <trkpt lat="46.25832" lon="5.32677">
        <ele>262.2</ele>
        <time>2022-03-26T12:30:54Z</time>
      </trkpt>
      <trkpt lat="46.25822" lon="5.32642">
        <ele>262.2</ele>
        <time>2022-03-26T12:30:58Z</time>
      </trkpt>
      <trkpt lat="46.25818" lon="5.32635">
        <ele>262.2</ele>
        <time>2022-03-26T12:30:59Z</time>
      </trkpt>
      <trkpt lat="46.25812" lon="5.3263">
        <ele>262.2</ele>
        <time>2022-03-26T12:31:00Z</time>
      </trkpt>
      <trkpt lat="46.25798" lon="5.32626">
        <ele>262.2</ele>
        <time>2022-03-26T12:31:02Z</time>
      </trkpt>
      <trkpt lat="46.25761" lon="5.32636">
        <ele>262.2</ele>
        <time>2022-03-26T12:31:08Z</time>
      </trkpt>
      <trkpt lat="46.25713" lon="5.32649">
        <ele>262.4</ele>
        <time>2022-03-26T12:31:16Z</time>
      </trkpt>
      <trkpt lat="46.2568" lon="5.32657">
        <ele>262.8</ele>
        <time>2022-03-26T12:31:21Z</time>
      </trkpt>
      <trkpt lat="46.25653" lon="5.32665">
        <ele>262.8</ele>
        <time>2022-03-26T12:31:25Z</time>
      </trkpt>
      <trkpt lat="46.25631" lon="5.32671">
        <ele>262.8</ele>
        <time>2022-03-26T12:31:28Z</time>
      </trkpt>
      <trkpt lat="46.25602" lon="5.32678">
        <ele>262.6</ele>
        <time>2022-03-26T12:31:32Z</time>
      </trkpt>
      <trkpt lat="46.25548" lon="5.32692">
        <ele>263.2</ele>
        <time>2022-03-26T12:31:40Z</time>
      </trkpt>
      <trkpt lat="46.25491" lon="5.32709">
        <ele>264</ele>
        <time>2022-03-26T12:31:49Z</time>
      </trkpt>
      <trkpt lat="46.25478" lon="5.32712">
        <ele>264</ele>
        <time>2022-03-26T12:31:51Z</time>
      </trkpt>
      <trkpt lat="46.25435" lon="5.32723">
        <ele>264.6</ele>
        <time>2022-03-26T12:31:58Z</time>
      </trkpt>
      <trkpt lat="46.25403" lon="5.32733">
        <ele>265.2</ele>
        <time>2022-03-26T12:32:03Z</time>
      </trkpt>
      <trkpt lat="46.25372" lon="5.32741">
        <ele>265.2</ele>
        <time>2022-03-26T12:32:08Z</time>
      </trkpt>
      <trkpt lat="46.25314" lon="5.32755">
        <ele>265.4</ele>
        <time>2022-03-26T12:32:17Z</time>
      </trkpt>
      <trkpt lat="46.25256" lon="5.32771">
        <ele>265.8</ele>
        <time>2022-03-26T12:32:26Z</time>
      </trkpt>
      <trkpt lat="46.2525" lon="5.32773">
        <ele>265.8</ele>
        <time>2022-03-26T12:32:27Z</time>
      </trkpt>
      <trkpt lat="46.25227" lon="5.32784">
        <ele>266.2</ele>
        <time>2022-03-26T12:32:31Z</time>
      </trkpt>
      <trkpt lat="46.25204" lon="5.32796">
        <ele>266.4</ele>
        <time>2022-03-26T12:32:35Z</time>
      </trkpt>
      <trkpt lat="46.25158" lon="5.32818">
        <ele>267.2</ele>
        <time>2022-03-26T12:32:43Z</time>
      </trkpt>
      <trkpt lat="46.25153" lon="5.32821">
        <ele>267.2</ele>
        <time>2022-03-26T12:32:44Z</time>
      </trkpt>
      <trkpt lat="46.25112" lon="5.32832">
        <ele>267.8</ele>
        <time>2022-03-26T12:32:51Z</time>
      </trkpt>
      <trkpt lat="46.25072" lon="5.32836">
        <ele>268.2</ele>
        <time>2022-03-26T12:32:58Z</time>
      </trkpt>
      <trkpt lat="46.25066" lon="5.32836">
        <ele>268.4</ele>
        <time>2022-03-26T12:32:59Z</time>
      </trkpt>
      <trkpt lat="46.25038" lon="5.32836">
        <ele>268.4</ele>
        <time>2022-03-26T12:33:05Z</time>
      </trkpt>
      <trkpt lat="46.25033" lon="5.32838">
        <ele>268.6</ele>
        <time>2022-03-26T12:33:07Z</time>
      </trkpt>
      <trkpt lat="46.25031" lon="5.32842">
        <ele>268.6</ele>
        <time>2022-03-26T12:33:08Z</time>
      </trkpt>
      <trkpt lat="46.25032" lon="5.32862">
        <ele>268.6</ele>
        <time>2022-03-26T12:33:11Z</time>
      </trkpt>
      <trkpt lat="46.25032" lon="5.32904">
        <ele>268.8</ele>
        <time>2022-03-26T12:33:16Z</time>
      </trkpt>
      <trkpt lat="46.25032" lon="5.3297">
        <ele>269.6</ele>
        <time>2022-03-26T12:33:24Z</time>
      </trkpt>
      <trkpt lat="46.25032" lon="5.32979">
        <ele>269.6</ele>
        <time>2022-03-26T12:33:25Z</time>
      </trkpt>
      <trkpt lat="46.25033" lon="5.33045">
        <ele>270.2</ele>
        <time>2022-03-26T12:33:33Z</time>
      </trkpt>
      <trkpt lat="46.25034" lon="5.3313">
        <ele>270.6</ele>
        <time>2022-03-26T12:33:43Z</time>
      </trkpt>
      <trkpt lat="46.25034" lon="5.33138">
        <ele>270.6</ele>
        <time>2022-03-26T12:33:44Z</time>
      </trkpt>
      <trkpt lat="46.25031" lon="5.3321">
        <ele>270.6</ele>
        <time>2022-03-26T12:33:53Z</time>
      </trkpt>
      <trkpt lat="46.25027" lon="5.33258">
        <ele>270.6</ele>
        <time>2022-03-26T12:33:59Z</time>
      </trkpt>
      <trkpt lat="46.25025" lon="5.33294">
        <ele>270.8</ele>
        <time>2022-03-26T12:34:03Z</time>
      </trkpt>
      <trkpt lat="46.25019" lon="5.33306">
        <ele>270.6</ele>
        <time>2022-03-26T12:34:05Z</time>
      </trkpt>
      <trkpt lat="46.25009" lon="5.3331">
        <ele>270.2</ele>
        <time>2022-03-26T12:34:07Z</time>
      </trkpt>
      <trkpt lat="46.25005" lon="5.3331">
        <ele>270.2</ele>
        <time>2022-03-26T12:34:08Z</time>
      </trkpt>
      <trkpt lat="46.25" lon="5.33308">
        <ele>270.2</ele>
        <time>2022-03-26T12:34:09Z</time>
      </trkpt>
      <trkpt lat="46.24981" lon="5.33301">
        <ele>270.6</ele>
        <time>2022-03-26T12:34:13Z</time>
      </trkpt>
      <trkpt lat="46.24972" lon="5.33298">
        <ele>271</ele>
        <time>2022-03-26T12:34:15Z</time>
      </trkpt>
      <trkpt lat="46.24956" lon="5.3329">
        <ele>271.4</ele>
        <time>2022-03-26T12:34:19Z</time>
      </trkpt>
      <trkpt lat="46.24942" lon="5.33285">
        <ele>271.8</ele>
        <time>2022-03-26T12:34:22Z</time>
      </trkpt>
      <trkpt lat="46.24934" lon="5.33283">
        <ele>272.2</ele>
        <time>2022-03-26T12:34:24Z</time>
      </trkpt>
      <trkpt lat="46.2493" lon="5.33281">
        <ele>272.4</ele>
        <time>2022-03-26T12:34:25Z</time>
      </trkpt>
      <trkpt lat="46.24926" lon="5.3328">
        <ele>272.4</ele>
        <time>2022-03-26T12:34:26Z</time>
      </trkpt>
      <trkpt lat="46.24908" lon="5.33273">
        <ele>272.8</ele>
        <time>2022-03-26T12:34:30Z</time>
      </trkpt>
      <trkpt lat="46.24898" lon="5.33271">
        <ele>273.2</ele>
        <time>2022-03-26T12:34:32Z</time>
      </trkpt>
      <trkpt lat="46.24887" lon="5.33267">
        <ele>273.4</ele>
        <time>2022-03-26T12:34:34Z</time>
      </trkpt>
      <trkpt lat="46.24877" lon="5.33264">
        <ele>273.6</ele>
        <time>2022-03-26T12:34:36Z</time>
      </trkpt>
      <trkpt lat="46.24871" lon="5.33263">
        <ele>273.6</ele>
        <time>2022-03-26T12:34:37Z</time>
      </trkpt>
      <trkpt lat="46.24865" lon="5.33262">
        <ele>273.8</ele>
        <time>2022-03-26T12:34:38Z</time>
      </trkpt>
      <trkpt lat="46.2482" lon="5.33251">
        <ele>274</ele>
        <time>2022-03-26T12:34:46Z</time>
      </trkpt>
      <trkpt lat="46.24776" lon="5.33231">
        <ele>274.4</ele>
        <time>2022-03-26T12:34:54Z</time>
      </trkpt>
      <trkpt lat="46.24735" lon="5.33202">
        <ele>274.8</ele>
        <time>2022-03-26T12:35:02Z</time>
      </trkpt>
      <trkpt lat="46.24725" lon="5.33193">
        <ele>275</ele>
        <time>2022-03-26T12:35:04Z</time>
      </trkpt>
      <trkpt lat="46.24704" lon="5.33176">
        <ele>275</ele>
        <time>2022-03-26T12:35:08Z</time>
      </trkpt>
      <trkpt lat="46.24696" lon="5.33164">
        <ele>275</ele>
        <time>2022-03-26T12:35:10Z</time>
      </trkpt>
      <trkpt lat="46.24692" lon="5.33147">
        <ele>274.8</ele>
        <time>2022-03-26T12:35:12Z</time>
      </trkpt>
      <trkpt lat="46.24692" lon="5.33138">
        <ele>275</ele>
        <time>2022-03-26T12:35:13Z</time>
      </trkpt>
      <trkpt lat="46.24692" lon="5.33111">
        <ele>275</ele>
        <time>2022-03-26T12:35:16Z</time>
      </trkpt>
      <trkpt lat="46.24691" lon="5.33103">
        <ele>275</ele>
        <time>2022-03-26T12:35:17Z</time>
      </trkpt>
      <trkpt lat="46.24688" lon="5.33095">
        <ele>275</ele>
        <time>2022-03-26T12:35:18Z</time>
      </trkpt>
      <trkpt lat="46.24677" lon="5.33085">
        <ele>274.8</ele>
        <time>2022-03-26T12:35:20Z</time>
      </trkpt>
      <trkpt lat="46.24647" lon="5.33074">
        <ele>274.6</ele>
        <time>2022-03-26T12:35:25Z</time>
      </trkpt>
      <trkpt lat="46.24617" lon="5.3308">
        <ele>275</ele>
        <time>2022-03-26T12:35:30Z</time>
      </trkpt>
      <trkpt lat="46.24593" lon="5.33082">
        <ele>275.6</ele>
        <time>2022-03-26T12:35:34Z</time>
      </trkpt>
      <trkpt lat="46.24582" lon="5.33079">
        <ele>276</ele>
        <time>2022-03-26T12:35:36Z</time>
      </trkpt>
      <trkpt lat="46.24564" lon="5.33073">
        <ele>276.4</ele>
        <time>2022-03-26T12:35:39Z</time>
      </trkpt>
      <trkpt lat="46.24553" lon="5.33067">
        <ele>276.8</ele>
        <time>2022-03-26T12:35:41Z</time>
      </trkpt>
      <trkpt lat="46.24541" lon="5.33062">
        <ele>277</ele>
        <time>2022-03-26T12:35:43Z</time>
      </trkpt>
      <trkpt lat="46.2453" lon="5.33056">
        <ele>277.2</ele>
        <time>2022-03-26T12:35:45Z</time>
      </trkpt>
      <trkpt lat="46.24525" lon="5.33051">
        <ele>277.4</ele>
        <time>2022-03-26T12:35:46Z</time>
      </trkpt>
      <trkpt lat="46.24491" lon="5.33018">
        <ele>277.8</ele>
        <time>2022-03-26T12:35:53Z</time>
      </trkpt>
      <trkpt lat="46.2448" lon="5.33014">
        <ele>277.8</ele>
        <time>2022-03-26T12:35:55Z</time>
      </trkpt>
      <trkpt lat="46.24464" lon="5.33012">
        <ele>277.8</ele>
        <time>2022-03-26T12:35:58Z</time>
      </trkpt>
      <trkpt lat="46.24441" lon="5.33016">
        <ele>278</ele>
        <time>2022-03-26T12:36:02Z</time>
      </trkpt>
      <trkpt lat="46.24428" lon="5.33017">
        <ele>278</ele>
        <time>2022-03-26T12:36:04Z</time>
      </trkpt>
      <trkpt lat="46.24391" lon="5.33029">
        <ele>278.8</ele>
        <time>2022-03-26T12:36:10Z</time>
      </trkpt>
      <trkpt lat="46.24386" lon="5.33033">
        <ele>279</ele>
        <time>2022-03-26T12:36:11Z</time>
      </trkpt>
      <trkpt lat="46.24381" lon="5.33037">
        <ele>279</ele>
        <time>2022-03-26T12:36:12Z</time>
      </trkpt>
      <trkpt lat="46.24376" lon="5.33044">
        <ele>279.2</ele>
        <time>2022-03-26T12:36:13Z</time>
      </trkpt>
      <trkpt lat="46.24368" lon="5.33066">
        <ele>279.2</ele>
        <time>2022-03-26T12:36:16Z</time>
      </trkpt>
      <trkpt lat="46.24363" lon="5.33072">
        <ele>279.2</ele>
        <time>2022-03-26T12:36:17Z</time>
      </trkpt>
      <trkpt lat="46.24359" lon="5.33076">
        <ele>279.4</ele>
        <time>2022-03-26T12:36:18Z</time>
      </trkpt>
      <trkpt lat="46.24346" lon="5.33082">
        <ele>279.8</ele>
        <time>2022-03-26T12:36:20Z</time>
      </trkpt>
      <trkpt lat="46.2434" lon="5.33083">
        <ele>280</ele>
        <time>2022-03-26T12:36:21Z</time>
      </trkpt>
      <trkpt lat="46.24298" lon="5.33096">
        <ele>280.2</ele>
        <time>2022-03-26T12:36:28Z</time>
      </trkpt>
      <trkpt lat="46.24287" lon="5.33102">
        <ele>280.2</ele>
        <time>2022-03-26T12:36:30Z</time>
      </trkpt>
      <trkpt lat="46.24241" lon="5.33122">
        <ele>281</ele>
        <time>2022-03-26T12:36:38Z</time>
      </trkpt>
      <trkpt lat="46.24236" lon="5.33125">
        <ele>281.2</ele>
        <time>2022-03-26T12:36:39Z</time>
      </trkpt>
      <trkpt lat="46.24215" lon="5.33134">
        <ele>281.4</ele>
        <time>2022-03-26T12:36:43Z</time>
      </trkpt>
      <trkpt lat="46.2421" lon="5.33136">
        <ele>281.4</ele>
        <time>2022-03-26T12:36:44Z</time>
      </trkpt>
      <trkpt lat="46.24188" lon="5.33146">
        <ele>281.6</ele>
        <time>2022-03-26T12:36:48Z</time>
      </trkpt>
      <trkpt lat="46.24166" lon="5.33157">
        <ele>282</ele>
        <time>2022-03-26T12:36:52Z</time>
      </trkpt>
      <trkpt lat="46.2416" lon="5.3316">
        <ele>282.2</ele>
        <time>2022-03-26T12:36:53Z</time>
      </trkpt>
      <trkpt lat="46.24144" lon="5.33167">
        <ele>282.8</ele>
        <time>2022-03-26T12:36:56Z</time>
      </trkpt>
      <trkpt lat="46.24107" lon="5.33183">
        <ele>282.8</ele>
        <time>2022-03-26T12:37:03Z</time>
      </trkpt>
      <trkpt lat="46.24091" lon="5.3319">
        <ele>282.6</ele>
        <time>2022-03-26T12:37:06Z</time>
      </trkpt>
      <trkpt lat="46.24083" lon="5.33201">
        <ele>282.6</ele>
        <time>2022-03-26T12:37:08Z</time>
      </trkpt>
      <trkpt lat="46.2408" lon="5.33216">
        <ele>282.8</ele>
        <time>2022-03-26T12:37:10Z</time>
      </trkpt>
      <trkpt lat="46.24079" lon="5.33225">
        <ele>282.8</ele>
        <time>2022-03-26T12:37:11Z</time>
      </trkpt>
      <trkpt lat="46.24077" lon="5.3324">
        <ele>282.8</ele>
        <time>2022-03-26T12:37:13Z</time>
      </trkpt>
      <trkpt lat="46.24074" lon="5.33256">
        <ele>283</ele>
        <time>2022-03-26T12:37:15Z</time>
      </trkpt>
      <trkpt lat="46.2407" lon="5.33261">
        <ele>283</ele>
        <time>2022-03-26T12:37:16Z</time>
      </trkpt>
      <trkpt lat="46.24065" lon="5.33264">
        <ele>283.2</ele>
        <time>2022-03-26T12:37:17Z</time>
      </trkpt>
      <trkpt lat="46.24059" lon="5.33266">
        <ele>283.4</ele>
        <time>2022-03-26T12:37:18Z</time>
      </trkpt>
      <trkpt lat="46.24053" lon="5.33266">
        <ele>283.4</ele>
        <time>2022-03-26T12:37:19Z</time>
      </trkpt>
      <trkpt lat="46.24013" lon="5.33258">
        <ele>283</ele>
        <time>2022-03-26T12:37:25Z</time>
      </trkpt>
      <trkpt lat="46.23999" lon="5.33255">
        <ele>282.2</ele>
        <time>2022-03-26T12:37:27Z</time>
      </trkpt>
      <trkpt lat="46.23966" lon="5.33247">
        <ele>281.2</ele>
        <time>2022-03-26T12:37:31Z</time>
      </trkpt>
      <trkpt lat="46.23941" lon="5.33239">
        <ele>280</ele>
        <time>2022-03-26T12:37:34Z</time>
      </trkpt>
      <trkpt lat="46.23924" lon="5.33233">
        <ele>279.4</ele>
        <time>2022-03-26T12:37:36Z</time>
      </trkpt>
      <trkpt lat="46.23907" lon="5.33232">
        <ele>278.8</ele>
        <time>2022-03-26T12:37:38Z</time>
      </trkpt>
      <trkpt lat="46.23899" lon="5.33235">
        <ele>278</ele>
        <time>2022-03-26T12:37:39Z</time>
      </trkpt>
      <trkpt lat="46.23891" lon="5.33238">
        <ele>277.4</ele>
        <time>2022-03-26T12:37:40Z</time>
      </trkpt>
      <trkpt lat="46.23887" lon="5.33241">
        <ele>277.2</ele>
        <time>2022-03-26T12:37:41Z</time>
      </trkpt>
      <trkpt lat="46.23882" lon="5.33246">
        <ele>276.8</ele>
        <time>2022-03-26T12:37:42Z</time>
      </trkpt>
      <trkpt lat="46.23881" lon="5.33252">
        <ele>276.6</ele>
        <time>2022-03-26T12:37:43Z</time>
      </trkpt>
      <trkpt lat="46.23881" lon="5.33259">
        <ele>276.4</ele>
        <time>2022-03-26T12:37:44Z</time>
      </trkpt>
      <trkpt lat="46.23886" lon="5.3331">
        <ele>276</ele>
        <time>2022-03-26T12:37:50Z</time>
      </trkpt>
      <trkpt lat="46.23892" lon="5.33383">
        <ele>275.8</ele>
        <time>2022-03-26T12:37:58Z</time>
      </trkpt>
      <trkpt lat="46.23899" lon="5.33454">
        <ele>276</ele>
        <time>2022-03-26T12:38:06Z</time>
      </trkpt>
      <trkpt lat="46.23905" lon="5.3349">
        <ele>276.6</ele>
        <time>2022-03-26T12:38:10Z</time>
      </trkpt>
      <trkpt lat="46.23905" lon="5.33508">
        <ele>276.8</ele>
        <time>2022-03-26T12:38:12Z</time>
      </trkpt>
      <trkpt lat="46.239" lon="5.33549">
        <ele>277.6</ele>
        <time>2022-03-26T12:38:17Z</time>
      </trkpt>
      <trkpt lat="46.23898" lon="5.33556">
        <ele>277.6</ele>
        <time>2022-03-26T12:38:18Z</time>
      </trkpt>
      <trkpt lat="46.2388" lon="5.33599">
        <ele>278.6</ele>
        <time>2022-03-26T12:38:24Z</time>
      </trkpt>
      <trkpt lat="46.23878" lon="5.33604">
        <ele>278.6</ele>
        <time>2022-03-26T12:38:25Z</time>
      </trkpt>
      <trkpt lat="46.23864" lon="5.33629">
        <ele>279.2</ele>
        <time>2022-03-26T12:38:29Z</time>
      </trkpt>
      <trkpt lat="46.23856" lon="5.33639">
        <ele>279.4</ele>
        <time>2022-03-26T12:38:31Z</time>
      </trkpt>
      <trkpt lat="46.23852" lon="5.33643">
        <ele>279.4</ele>
        <time>2022-03-26T12:38:32Z</time>
      </trkpt>
      <trkpt lat="46.23842" lon="5.33652">
        <ele>279.4</ele>
        <time>2022-03-26T12:38:34Z</time>
      </trkpt>
      <trkpt lat="46.23834" lon="5.33662">
        <ele>279.4</ele>
        <time>2022-03-26T12:38:36Z</time>
      </trkpt>
      <trkpt lat="46.23831" lon="5.33668">
        <ele>279.6</ele>
        <time>2022-03-26T12:38:37Z</time>
      </trkpt>
      <trkpt lat="46.23826" lon="5.3368">
        <ele>279.8</ele>
        <time>2022-03-26T12:38:39Z</time>
      </trkpt>
      <trkpt lat="46.23821" lon="5.33693">
        <ele>280.2</ele>
        <time>2022-03-26T12:38:41Z</time>
      </trkpt>
      <trkpt lat="46.23816" lon="5.33714">
        <ele>280.8</ele>
        <time>2022-03-26T12:38:44Z</time>
      </trkpt>
      <trkpt lat="46.23807" lon="5.33749">
        <ele>282</ele>
        <time>2022-03-26T12:38:49Z</time>
      </trkpt>
      <trkpt lat="46.23794" lon="5.33808">
        <ele>283</ele>
        <time>2022-03-26T12:38:58Z</time>
      </trkpt>
      <trkpt lat="46.23786" lon="5.33838">
        <ele>284.2</ele>
        <time>2022-03-26T12:39:03Z</time>
      </trkpt>
      <trkpt lat="46.23785" lon="5.33844">
        <ele>284.4</ele>
        <time>2022-03-26T12:39:04Z</time>
      </trkpt>
      <trkpt lat="46.23784" lon="5.3385">
        <ele>284.8</ele>
        <time>2022-03-26T12:39:05Z</time>
      </trkpt>
      <trkpt lat="46.23782" lon="5.33863">
        <ele>285.6</ele>
        <time>2022-03-26T12:39:07Z</time>
      </trkpt>
      <trkpt lat="46.23776" lon="5.33897">
        <ele>286.8</ele>
        <time>2022-03-26T12:39:12Z</time>
      </trkpt>
      <trkpt lat="46.23775" lon="5.33913">
        <ele>287</ele>
        <time>2022-03-26T12:39:14Z</time>
      </trkpt>
      <trkpt lat="46.23766" lon="5.33973">
        <ele>286.2</ele>
        <time>2022-03-26T12:39:21Z</time>
      </trkpt>
      <trkpt lat="46.23759" lon="5.34003">
        <ele>285.2</ele>
        <time>2022-03-26T12:39:24Z</time>
      </trkpt>
      <trkpt lat="46.23753" lon="5.34041">
        <ele>284.8</ele>
        <time>2022-03-26T12:39:28Z</time>
      </trkpt>
      <trkpt lat="46.23752" lon="5.34049">
        <ele>284.6</ele>
        <time>2022-03-26T12:39:29Z</time>
      </trkpt>
      <trkpt lat="46.23754" lon="5.34068">
        <ele>284.4</ele>
        <time>2022-03-26T12:39:31Z</time>
      </trkpt>
      <trkpt lat="46.23756" lon="5.34077">
        <ele>284.4</ele>
        <time>2022-03-26T12:39:32Z</time>
      </trkpt>
      <trkpt lat="46.23759" lon="5.34085">
        <ele>284.2</ele>
        <time>2022-03-26T12:39:33Z</time>
      </trkpt>
      <trkpt lat="46.23768" lon="5.34109">
        <ele>283.8</ele>
        <time>2022-03-26T12:39:36Z</time>
      </trkpt>
      <trkpt lat="46.2377" lon="5.34118">
        <ele>283.8</ele>
        <time>2022-03-26T12:39:37Z</time>
      </trkpt>
      <trkpt lat="46.2377" lon="5.34127">
        <ele>283.8</ele>
        <time>2022-03-26T12:39:38Z</time>
      </trkpt>
      <trkpt lat="46.23766" lon="5.34144">
        <ele>283.8</ele>
        <time>2022-03-26T12:39:40Z</time>
      </trkpt>
      <trkpt lat="46.23748" lon="5.34189">
        <ele>284</ele>
        <time>2022-03-26T12:39:46Z</time>
      </trkpt>
      <trkpt lat="46.23731" lon="5.34229">
        <ele>284.8</ele>
        <time>2022-03-26T12:39:52Z</time>
      </trkpt>
      <trkpt lat="46.23729" lon="5.34235">
        <ele>285.2</ele>
        <time>2022-03-26T12:39:53Z</time>
      </trkpt>
      <trkpt lat="46.23721" lon="5.34261">
        <ele>286.2</ele>
        <time>2022-03-26T12:39:57Z</time>
      </trkpt>
      <trkpt lat="46.23721" lon="5.34267">
        <ele>286.8</ele>
        <time>2022-03-26T12:39:58Z</time>
      </trkpt>
      <trkpt lat="46.23719" lon="5.34287">
        <ele>287.4</ele>
        <time>2022-03-26T12:40:01Z</time>
      </trkpt>
      <trkpt lat="46.23715" lon="5.34297">
        <ele>287.6</ele>
        <time>2022-03-26T12:40:03Z</time>
      </trkpt>
      <trkpt lat="46.23697" lon="5.34311">
        <ele>287.8</ele>
        <time>2022-03-26T12:40:07Z</time>
      </trkpt>
      <trkpt lat="46.23688" lon="5.3432">
        <ele>287.8</ele>
        <time>2022-03-26T12:40:09Z</time>
      </trkpt>
      <trkpt lat="46.23681" lon="5.34333">
        <ele>287.8</ele>
        <time>2022-03-26T12:40:11Z</time>
      </trkpt>
      <trkpt lat="46.23661" lon="5.34381">
        <ele>287.8</ele>
        <time>2022-03-26T12:40:18Z</time>
      </trkpt>
      <trkpt lat="46.23656" lon="5.34394">
        <ele>287.6</ele>
        <time>2022-03-26T12:40:20Z</time>
      </trkpt>
      <trkpt lat="46.23651" lon="5.34398">
        <ele>287.6</ele>
        <time>2022-03-26T12:40:21Z</time>
      </trkpt>
      <trkpt lat="46.23638" lon="5.34398">
        <ele>287.6</ele>
        <time>2022-03-26T12:40:23Z</time>
      </trkpt>
      <trkpt lat="46.23632" lon="5.34396">
        <ele>287.6</ele>
        <time>2022-03-26T12:40:24Z</time>
      </trkpt>
      <trkpt lat="46.23615" lon="5.3439">
        <ele>287.6</ele>
        <time>2022-03-26T12:40:27Z</time>
      </trkpt>
      <trkpt lat="46.23606" lon="5.34387">
        <ele>287.8</ele>
        <time>2022-03-26T12:40:29Z</time>
      </trkpt>
      <trkpt lat="46.23602" lon="5.34389">
        <ele>287.8</ele>
        <time>2022-03-26T12:40:30Z</time>
      </trkpt>
      <trkpt lat="46.23599" lon="5.34394">
        <ele>288</ele>
        <time>2022-03-26T12:40:31Z</time>
      </trkpt>
      <trkpt lat="46.23595" lon="5.34409">
        <ele>287.8</ele>
        <time>2022-03-26T12:40:33Z</time>
      </trkpt>
      <trkpt lat="46.23594" lon="5.34434">
        <ele>287.8</ele>
        <time>2022-03-26T12:40:36Z</time>
      </trkpt>
      <trkpt lat="46.23591" lon="5.3445">
        <ele>288</ele>
        <time>2022-03-26T12:40:38Z</time>
      </trkpt>
      <trkpt lat="46.23585" lon="5.34475">
        <ele>288.2</ele>
        <time>2022-03-26T12:40:42Z</time>
      </trkpt>
      <trkpt lat="46.23583" lon="5.34479">
        <ele>288.4</ele>
        <time>2022-03-26T12:40:43Z</time>
      </trkpt>
      <trkpt lat="46.23581" lon="5.34481">
        <ele>288.4</ele>
        <time>2022-03-26T12:40:44Z</time>
      </trkpt>
      <trkpt lat="46.23578" lon="5.34482">
        <ele>288.6</ele>
        <time>2022-03-26T12:40:45Z</time>
      </trkpt>
      <trkpt lat="46.23576" lon="5.34481">
        <ele>288.6</ele>
        <time>2022-03-26T12:40:46Z</time>
      </trkpt>
      <trkpt lat="46.23557" lon="5.34473">
        <ele>288.8</ele>
        <time>2022-03-26T12:40:50Z</time>
      </trkpt>
      <trkpt lat="46.23528" lon="5.34456">
        <ele>289</ele>
        <time>2022-03-26T12:40:55Z</time>
      </trkpt>
      <trkpt lat="46.23499" lon="5.34438">
        <ele>289.6</ele>
        <time>2022-03-26T12:41:00Z</time>
      </trkpt>
      <trkpt lat="46.23481" lon="5.34425">
        <ele>289.8</ele>
        <time>2022-03-26T12:41:03Z</time>
      </trkpt>
      <trkpt lat="46.23444" lon="5.3439">
        <ele>289.8</ele>
        <time>2022-03-26T12:41:10Z</time>
      </trkpt>
      <trkpt lat="46.23406" lon="5.34351">
        <ele>290.6</ele>
        <time>2022-03-26T12:41:18Z</time>
      </trkpt>
      <trkpt lat="46.23402" lon="5.34346">
        <ele>290.8</ele>
        <time>2022-03-26T12:41:19Z</time>
      </trkpt>
      <trkpt lat="46.23376" lon="5.34317">
        <ele>291.8</ele>
        <time>2022-03-26T12:41:25Z</time>
      </trkpt>
      <trkpt lat="46.23362" lon="5.34302">
        <ele>292.4</ele>
        <time>2022-03-26T12:41:28Z</time>
      </trkpt>
      <trkpt lat="46.23355" lon="5.34293">
        <ele>293</ele>
        <time>2022-03-26T12:41:30Z</time>
      </trkpt>
      <trkpt lat="46.23332" lon="5.34265">
        <ele>294</ele>
        <time>2022-03-26T12:41:36Z</time>
      </trkpt>
      <trkpt lat="46.23323" lon="5.34255">
        <ele>294.4</ele>
        <time>2022-03-26T12:41:38Z</time>
      </trkpt>
      <trkpt lat="46.23304" lon="5.3423">
        <ele>295</ele>
        <time>2022-03-26T12:41:43Z</time>
      </trkpt>
      <trkpt lat="46.23293" lon="5.34214">
        <ele>295.6</ele>
        <time>2022-03-26T12:41:46Z</time>
      </trkpt>
      <trkpt lat="46.23269" lon="5.34184">
        <ele>295.6</ele>
        <time>2022-03-26T12:41:51Z</time>
      </trkpt>
      <trkpt lat="46.23264" lon="5.34179">
        <ele>296</ele>
        <time>2022-03-26T12:41:52Z</time>
      </trkpt>
      <trkpt lat="46.23233" lon="5.34154">
        <ele>295.8</ele>
        <time>2022-03-26T12:41:57Z</time>
      </trkpt>
      <trkpt lat="46.23182" lon="5.34122">
        <ele>295.6</ele>
        <time>2022-03-26T12:42:04Z</time>
      </trkpt>
      <trkpt lat="46.23151" lon="5.34108">
        <ele>294.8</ele>
        <time>2022-03-26T12:42:08Z</time>
      </trkpt>
      <trkpt lat="46.23135" lon="5.34103">
        <ele>294.6</ele>
        <time>2022-03-26T12:42:10Z</time>
      </trkpt>
      <trkpt lat="46.23104" lon="5.3409">
        <ele>293.6</ele>
        <time>2022-03-26T12:42:14Z</time>
      </trkpt>
      <trkpt lat="46.23082" lon="5.34077">
        <ele>293.2</ele>
        <time>2022-03-26T12:42:17Z</time>
      </trkpt>
      <trkpt lat="46.2303" lon="5.34046">
        <ele>293.2</ele>
        <time>2022-03-26T12:42:24Z</time>
      </trkpt>
      <trkpt lat="46.23017" lon="5.34036">
        <ele>293.6</ele>
        <time>2022-03-26T12:42:26Z</time>
      </trkpt>
      <trkpt lat="46.22973" lon="5.33997">
        <ele>294.4</ele>
        <time>2022-03-26T12:42:33Z</time>
      </trkpt>
      <trkpt lat="46.22961" lon="5.33987">
        <ele>294.8</ele>
        <time>2022-03-26T12:42:35Z</time>
      </trkpt>
      <trkpt lat="46.2292" lon="5.33954">
        <ele>296</ele>
        <time>2022-03-26T12:42:42Z</time>
      </trkpt>
      <trkpt lat="46.22875" lon="5.33927">
        <ele>296.8</ele>
        <time>2022-03-26T12:42:50Z</time>
      </trkpt>
      <trkpt lat="46.22861" lon="5.33923">
        <ele>297.2</ele>
        <time>2022-03-26T12:42:52Z</time>
      </trkpt>
      <trkpt lat="46.22818" lon="5.3391">
        <ele>298.2</ele>
        <time>2022-03-26T12:42:59Z</time>
      </trkpt>
      <trkpt lat="46.22811" lon="5.33908">
        <ele>298.2</ele>
        <time>2022-03-26T12:43:00Z</time>
      </trkpt>
      <trkpt lat="46.22752" lon="5.33898">
        <ele>298.4</ele>
        <time>2022-03-26T12:43:09Z</time>
      </trkpt>
      <trkpt lat="46.22745" lon="5.33898">
        <ele>298.6</ele>
        <time>2022-03-26T12:43:10Z</time>
      </trkpt>
      <trkpt lat="46.22727" lon="5.33895">
        <ele>299.2</ele>
        <time>2022-03-26T12:43:13Z</time>
      </trkpt>
      <trkpt lat="46.22681" lon="5.3389">
        <ele>299.8</ele>
        <time>2022-03-26T12:43:20Z</time>
      </trkpt>
      <trkpt lat="46.22645" lon="5.33879">
        <ele>299.4</ele>
        <time>2022-03-26T12:43:25Z</time>
      </trkpt>
      <trkpt lat="46.22606" lon="5.33856">
        <ele>298.4</ele>
        <time>2022-03-26T12:43:30Z</time>
      </trkpt>
      <trkpt lat="46.22599" lon="5.3385">
        <ele>298.2</ele>
        <time>2022-03-26T12:43:31Z</time>
      </trkpt>
      <trkpt lat="46.22561" lon="5.33816">
        <ele>297</ele>
        <time>2022-03-26T12:43:36Z</time>
      </trkpt>
      <trkpt lat="46.2251" lon="5.33761">
        <ele>295.8</ele>
        <time>2022-03-26T12:43:43Z</time>
      </trkpt>
      <trkpt lat="46.22497" lon="5.33745">
        <ele>295.6</ele>
        <time>2022-03-26T12:43:45Z</time>
      </trkpt>
      <trkpt lat="46.22453" lon="5.33691">
        <ele>295.2</ele>
        <time>2022-03-26T12:43:52Z</time>
      </trkpt>
      <trkpt lat="46.22438" lon="5.33673">
        <ele>295.4</ele>
        <time>2022-03-26T12:43:54Z</time>
      </trkpt>
      <trkpt lat="46.2242" lon="5.33651">
        <ele>294.8</ele>
        <time>2022-03-26T12:43:57Z</time>
      </trkpt>
      <trkpt lat="46.22384" lon="5.33614">
        <ele>294.2</ele>
        <time>2022-03-26T12:44:02Z</time>
      </trkpt>
      <trkpt lat="46.22339" lon="5.33561">
        <ele>294</ele>
        <time>2022-03-26T12:44:09Z</time>
      </trkpt>
      <trkpt lat="46.22327" lon="5.33545">
        <ele>294.2</ele>
        <time>2022-03-26T12:44:11Z</time>
      </trkpt>
      <trkpt lat="46.22284" lon="5.33485">
        <ele>294.8</ele>
        <time>2022-03-26T12:44:19Z</time>
      </trkpt>
      <trkpt lat="46.22279" lon="5.33479">
        <ele>294.8</ele>
        <time>2022-03-26T12:44:20Z</time>
      </trkpt>
      <trkpt lat="46.22246" lon="5.33437">
        <ele>295.6</ele>
        <time>2022-03-26T12:44:26Z</time>
      </trkpt>
      <trkpt lat="46.22235" lon="5.33424">
        <ele>295.8</ele>
        <time>2022-03-26T12:44:28Z</time>
      </trkpt>
      <trkpt lat="46.22203" lon="5.33385">
        <ele>296.2</ele>
        <time>2022-03-26T12:44:34Z</time>
      </trkpt>
      <trkpt lat="46.22167" lon="5.33342">
        <ele>296.8</ele>
        <time>2022-03-26T12:44:41Z</time>
      </trkpt>
      <trkpt lat="46.22125" lon="5.33297">
        <ele>297.8</ele>
        <time>2022-03-26T12:44:49Z</time>
      </trkpt>
      <trkpt lat="46.2212" lon="5.33292">
        <ele>298</ele>
        <time>2022-03-26T12:44:50Z</time>
      </trkpt>
      <trkpt lat="46.22072" lon="5.33246">
        <ele>298.6</ele>
        <time>2022-03-26T12:44:59Z</time>
      </trkpt>
      <trkpt lat="46.22061" lon="5.33235">
        <ele>298.8</ele>
        <time>2022-03-26T12:45:01Z</time>
      </trkpt>
      <trkpt lat="46.22017" lon="5.33188">
        <ele>299</ele>
        <time>2022-03-26T12:45:09Z</time>
      </trkpt>
      <trkpt lat="46.22011" lon="5.33182">
        <ele>299</ele>
        <time>2022-03-26T12:45:10Z</time>
      </trkpt>
      <trkpt lat="46.21965" lon="5.33133">
        <ele>298.8</ele>
        <time>2022-03-26T12:45:18Z</time>
      </trkpt>
      <trkpt lat="46.21959" lon="5.33128">
        <ele>298.8</ele>
        <time>2022-03-26T12:45:19Z</time>
      </trkpt>
      <trkpt lat="46.21913" lon="5.33082">
        <ele>298.8</ele>
        <time>2022-03-26T12:45:27Z</time>
      </trkpt>
      <trkpt lat="46.21889" lon="5.33058">
        <ele>298.6</ele>
        <time>2022-03-26T12:45:31Z</time>
      </trkpt>
      <trkpt lat="46.21842" lon="5.33012">
        <ele>299.2</ele>
        <time>2022-03-26T12:45:39Z</time>
      </trkpt>
      <trkpt lat="46.21818" lon="5.32989">
        <ele>299.6</ele>
        <time>2022-03-26T12:45:43Z</time>
      </trkpt>
      <trkpt lat="46.2177" lon="5.32948">
        <ele>299.8</ele>
        <time>2022-03-26T12:45:51Z</time>
      </trkpt>
      <trkpt lat="46.21758" lon="5.32938">
        <ele>300.2</ele>
        <time>2022-03-26T12:45:53Z</time>
      </trkpt>
      <trkpt lat="46.21753" lon="5.32934">
        <ele>300.2</ele>
        <time>2022-03-26T12:45:54Z</time>
      </trkpt>
      <trkpt lat="46.21708" lon="5.32902">
        <ele>301</ele>
        <time>2022-03-26T12:46:02Z</time>
      </trkpt>
      <trkpt lat="46.21697" lon="5.32893">
        <ele>301.2</ele>
        <time>2022-03-26T12:46:04Z</time>
      </trkpt>
      <trkpt lat="46.21668" lon="5.32874">
        <ele>301.8</ele>
        <time>2022-03-26T12:46:09Z</time>
      </trkpt>
      <trkpt lat="46.21663" lon="5.3287">
        <ele>301.8</ele>
        <time>2022-03-26T12:46:10Z</time>
      </trkpt>
      <trkpt lat="46.2164" lon="5.32853">
        <ele>302.2</ele>
        <time>2022-03-26T12:46:14Z</time>
      </trkpt>
      <trkpt lat="46.21629" lon="5.32845">
        <ele>302.4</ele>
        <time>2022-03-26T12:46:16Z</time>
      </trkpt>
      <trkpt lat="46.21604" lon="5.32822">
        <ele>303.2</ele>
        <time>2022-03-26T12:46:21Z</time>
      </trkpt>
      <trkpt lat="46.21599" lon="5.32817">
        <ele>303.4</ele>
        <time>2022-03-26T12:46:22Z</time>
      </trkpt>
      <trkpt lat="46.21584" lon="5.32803">
        <ele>303.8</ele>
        <time>2022-03-26T12:46:25Z</time>
      </trkpt>
      <trkpt lat="46.21568" lon="5.32792">
        <ele>304</ele>
        <time>2022-03-26T12:46:28Z</time>
      </trkpt>
      <trkpt lat="46.21563" lon="5.32787">
        <ele>304</ele>
        <time>2022-03-26T12:46:29Z</time>
      </trkpt>
      <trkpt lat="46.21548" lon="5.3277">
        <ele>304</ele>
        <time>2022-03-26T12:46:32Z</time>
      </trkpt>
      <trkpt lat="46.21537" lon="5.32757">
        <ele>303.6</ele>
        <time>2022-03-26T12:46:34Z</time>
      </trkpt>
      <trkpt lat="46.21517" lon="5.32742">
        <ele>303</ele>
        <time>2022-03-26T12:46:37Z</time>
      </trkpt>
      <trkpt lat="46.21488" lon="5.32721">
        <ele>302.4</ele>
        <time>2022-03-26T12:46:41Z</time>
      </trkpt>
      <trkpt lat="46.21473" lon="5.3271">
        <ele>301.6</ele>
        <time>2022-03-26T12:46:43Z</time>
      </trkpt>
      <trkpt lat="46.21466" lon="5.32705">
        <ele>301.2</ele>
        <time>2022-03-26T12:46:44Z</time>
      </trkpt>
      <trkpt lat="46.21437" lon="5.32684">
        <ele>299.8</ele>
        <time>2022-03-26T12:46:48Z</time>
      </trkpt>
      <trkpt lat="46.21417" lon="5.3267">
        <ele>299</ele>
        <time>2022-03-26T12:46:51Z</time>
      </trkpt>
      <trkpt lat="46.21411" lon="5.32665">
        <ele>298.8</ele>
        <time>2022-03-26T12:46:52Z</time>
      </trkpt>
      <trkpt lat="46.21366" lon="5.32629">
        <ele>298.6</ele>
        <time>2022-03-26T12:46:59Z</time>
      </trkpt>
      <trkpt lat="46.21342" lon="5.32613">
        <ele>298.6</ele>
        <time>2022-03-26T12:47:03Z</time>
      </trkpt>
      <trkpt lat="46.2133" lon="5.32608">
        <ele>298.6</ele>
        <time>2022-03-26T12:47:05Z</time>
      </trkpt>
      <trkpt lat="46.21325" lon="5.32605">
        <ele>298.6</ele>
        <time>2022-03-26T12:47:06Z</time>
      </trkpt>
      <trkpt lat="46.21303" lon="5.32592">
        <ele>299</ele>
        <time>2022-03-26T12:47:10Z</time>
      </trkpt>
      <trkpt lat="46.21256" lon="5.32562">
        <ele>299.6</ele>
        <time>2022-03-26T12:47:18Z</time>
      </trkpt>
      <trkpt lat="46.21227" lon="5.32548">
        <ele>300</ele>
        <time>2022-03-26T12:47:23Z</time>
      </trkpt>
      <trkpt lat="46.21218" lon="5.32545">
        <ele>300</ele>
        <time>2022-03-26T12:47:25Z</time>
      </trkpt>
      <trkpt lat="46.21211" lon="5.32543">
        <ele>300.4</ele>
        <time>2022-03-26T12:47:28Z</time>
      </trkpt>
      <trkpt lat="46.21211" lon="5.32543">
        <ele>300.4</ele>
        <time>2022-03-26T12:47:29Z</time>
      </trkpt>
      <trkpt lat="46.21211" lon="5.32538">
        <ele>300.6</ele>
        <time>2022-03-26T12:47:31Z</time>
      </trkpt>
      <trkpt lat="46.21208" lon="5.32519">
        <ele>300.6</ele>
        <time>2022-03-26T12:47:35Z</time>
      </trkpt>
      <trkpt lat="46.21195" lon="5.32516">
        <ele>300.4</ele>
        <time>2022-03-26T12:47:38Z</time>
      </trkpt>
      <trkpt lat="46.21187" lon="5.32514">
        <ele>300.2</ele>
        <time>2022-03-26T12:47:39Z</time>
      </trkpt>
      <trkpt lat="46.21175" lon="5.32507">
        <ele>299.8</ele>
        <time>2022-03-26T12:47:41Z</time>
      </trkpt>
      <trkpt lat="46.21139" lon="5.32485">
        <ele>299.2</ele>
        <time>2022-03-26T12:47:47Z</time>
      </trkpt>
      <trkpt lat="46.2112" lon="5.32474">
        <ele>298.8</ele>
        <time>2022-03-26T12:47:50Z</time>
      </trkpt>
      <trkpt lat="46.21099" lon="5.32468">
        <ele>298.6</ele>
        <time>2022-03-26T12:47:53Z</time>
      </trkpt>
      <trkpt lat="46.21054" lon="5.32465">
        <ele>298.6</ele>
        <time>2022-03-26T12:47:59Z</time>
      </trkpt>
      <trkpt lat="46.21011" lon="5.32462">
        <ele>297.8</ele>
        <time>2022-03-26T12:48:05Z</time>
      </trkpt>
      <trkpt lat="46.20962" lon="5.32466">
        <ele>297.2</ele>
        <time>2022-03-26T12:48:11Z</time>
      </trkpt>
      <trkpt lat="46.20937" lon="5.32467">
        <ele>296.6</ele>
        <time>2022-03-26T12:48:14Z</time>
      </trkpt>
      <trkpt lat="46.20906" lon="5.32471">
        <ele>295.8</ele>
        <time>2022-03-26T12:48:18Z</time>
      </trkpt>
      <trkpt lat="46.20897" lon="5.32473">
        <ele>295.4</ele>
        <time>2022-03-26T12:48:19Z</time>
      </trkpt>
      <trkpt lat="46.20865" lon="5.32482">
        <ele>294.4</ele>
        <time>2022-03-26T12:48:23Z</time>
      </trkpt>
      <trkpt lat="46.20856" lon="5.32485">
        <ele>294.2</ele>
        <time>2022-03-26T12:48:24Z</time>
      </trkpt>
      <trkpt lat="46.20833" lon="5.32491">
        <ele>293.4</ele>
        <time>2022-03-26T12:48:27Z</time>
      </trkpt>
      <trkpt lat="46.208" lon="5.32496">
        <ele>292.8</ele>
        <time>2022-03-26T12:48:31Z</time>
      </trkpt>
      <trkpt lat="46.20765" lon="5.32501">
        <ele>292.2</ele>
        <time>2022-03-26T12:48:35Z</time>
      </trkpt>
      <trkpt lat="46.20734" lon="5.32504">
        <ele>291.8</ele>
        <time>2022-03-26T12:48:39Z</time>
      </trkpt>
      <trkpt lat="46.20679" lon="5.32509">
        <ele>292.2</ele>
        <time>2022-03-26T12:48:46Z</time>
      </trkpt>
      <trkpt lat="46.20627" lon="5.32503">
        <ele>292.8</ele>
        <time>2022-03-26T12:48:53Z</time>
      </trkpt>
      <trkpt lat="46.20607" lon="5.32498">
        <ele>293.6</ele>
        <time>2022-03-26T12:48:56Z</time>
      </trkpt>
      <trkpt lat="46.20595" lon="5.32494">
        <ele>293.8</ele>
        <time>2022-03-26T12:48:58Z</time>
      </trkpt>
      <trkpt lat="46.20573" lon="5.32488">
        <ele>294.8</ele>
        <time>2022-03-26T12:49:02Z</time>
      </trkpt>
      <trkpt lat="46.20557" lon="5.32484">
        <ele>295.6</ele>
        <time>2022-03-26T12:49:05Z</time>
      </trkpt>
      <trkpt lat="46.20552" lon="5.32483">
        <ele>295.8</ele>
        <time>2022-03-26T12:49:06Z</time>
      </trkpt>
      <trkpt lat="46.20523" lon="5.32478">
        <ele>296.8</ele>
        <time>2022-03-26T12:49:12Z</time>
      </trkpt>
      <trkpt lat="46.20518" lon="5.32477">
        <ele>297</ele>
        <time>2022-03-26T12:49:13Z</time>
      </trkpt>
      <trkpt lat="46.205" lon="5.32473">
        <ele>298</ele>
        <time>2022-03-26T12:49:17Z</time>
      </trkpt>
      <trkpt lat="46.20478" lon="5.32467">
        <ele>299</ele>
        <time>2022-03-26T12:49:22Z</time>
      </trkpt>
      <trkpt lat="46.20474" lon="5.32466">
        <ele>299.2</ele>
        <time>2022-03-26T12:49:23Z</time>
      </trkpt>
      <trkpt lat="46.20462" lon="5.32462">
        <ele>300</ele>
        <time>2022-03-26T12:49:26Z</time>
      </trkpt>
      <trkpt lat="46.20444" lon="5.32458">
        <ele>300.8</ele>
        <time>2022-03-26T12:49:30Z</time>
      </trkpt>
      <trkpt lat="46.20436" lon="5.32456">
        <ele>301.4</ele>
        <time>2022-03-26T12:49:32Z</time>
      </trkpt>
      <trkpt lat="46.20415" lon="5.32452">
        <ele>302.4</ele>
        <time>2022-03-26T12:49:37Z</time>
      </trkpt>
      <trkpt lat="46.20402" lon="5.32449">
        <ele>303.2</ele>
        <time>2022-03-26T12:49:40Z</time>
      </trkpt>
      <trkpt lat="46.20394" lon="5.32448">
        <ele>303.8</ele>
        <time>2022-03-26T12:49:42Z</time>
      </trkpt>
      <trkpt lat="46.20364" lon="5.32443">
        <ele>305</ele>
        <time>2022-03-26T12:49:49Z</time>
      </trkpt>
      <trkpt lat="46.20328" lon="5.32439">
        <ele>306</ele>
        <time>2022-03-26T12:49:57Z</time>
      </trkpt>
      <trkpt lat="46.20324" lon="5.32438">
        <ele>306.2</ele>
        <time>2022-03-26T12:49:58Z</time>
      </trkpt>
      <trkpt lat="46.20286" lon="5.32434">
        <ele>307.4</ele>
        <time>2022-03-26T12:50:06Z</time>
      </trkpt>
      <trkpt lat="46.20258" lon="5.32431">
        <ele>308.6</ele>
        <time>2022-03-26T12:50:12Z</time>
      </trkpt>
      <trkpt lat="46.20248" lon="5.32429">
        <ele>308.8</ele>
        <time>2022-03-26T12:50:14Z</time>
      </trkpt>
      <trkpt lat="46.20224" lon="5.3242">
        <ele>309.6</ele>
        <time>2022-03-26T12:50:19Z</time>
      </trkpt>
      <trkpt lat="46.2021" lon="5.32413">
        <ele>309.8</ele>
        <time>2022-03-26T12:50:22Z</time>
      </trkpt>
      <trkpt lat="46.20182" lon="5.324">
        <ele>310.8</ele>
        <time>2022-03-26T12:50:28Z</time>
      </trkpt>
      <trkpt lat="46.20161" lon="5.32395">
        <ele>311</ele>
        <time>2022-03-26T12:50:32Z</time>
      </trkpt>
      <trkpt lat="46.20135" lon="5.32391">
        <ele>311.8</ele>
        <time>2022-03-26T12:50:37Z</time>
      </trkpt>
      <trkpt lat="46.20124" lon="5.32391">
        <ele>312</ele>
        <time>2022-03-26T12:50:39Z</time>
      </trkpt>
      <trkpt lat="46.20073" lon="5.32389">
        <ele>312.4</ele>
        <time>2022-03-26T12:50:48Z</time>
      </trkpt>
      <trkpt lat="46.20045" lon="5.32377">
        <ele>312.8</ele>
        <time>2022-03-26T12:50:53Z</time>
      </trkpt>
      <trkpt lat="46.2004" lon="5.32373">
        <ele>312.8</ele>
        <time>2022-03-26T12:50:54Z</time>
      </trkpt>
      <trkpt lat="46.2003" lon="5.32364">
        <ele>312.8</ele>
        <time>2022-03-26T12:50:56Z</time>
      </trkpt>
      <trkpt lat="46.20011" lon="5.32341">
        <ele>313</ele>
        <time>2022-03-26T12:51:00Z</time>
      </trkpt>
      <trkpt lat="46.19982" lon="5.3231">
        <ele>313.2</ele>
        <time>2022-03-26T12:51:06Z</time>
      </trkpt>
      <trkpt lat="46.19949" lon="5.32295">
        <ele>314</ele>
        <time>2022-03-26T12:51:12Z</time>
      </trkpt>
      <trkpt lat="46.19921" lon="5.32295">
        <ele>314.8</ele>
        <time>2022-03-26T12:51:17Z</time>
      </trkpt>
      <trkpt lat="46.1991" lon="5.32297">
        <ele>315</ele>
        <time>2022-03-26T12:51:19Z</time>
      </trkpt>
      <trkpt lat="46.19878" lon="5.32305">
        <ele>315.6</ele>
        <time>2022-03-26T12:51:25Z</time>
      </trkpt>
      <trkpt lat="46.19861" lon="5.32308">
        <ele>316</ele>
        <time>2022-03-26T12:51:28Z</time>
      </trkpt>
      <trkpt lat="46.19838" lon="5.32311">
        <ele>316.2</ele>
        <time>2022-03-26T12:51:32Z</time>
      </trkpt>
      <trkpt lat="46.19825" lon="5.32312">
        <ele>316.2</ele>
        <time>2022-03-26T12:51:34Z</time>
      </trkpt>
      <trkpt lat="46.19781" lon="5.32309">
        <ele>315.6</ele>
        <time>2022-03-26T12:51:40Z</time>
      </trkpt>
      <trkpt lat="46.19729" lon="5.32298">
        <ele>315.2</ele>
        <time>2022-03-26T12:51:47Z</time>
      </trkpt>
      <trkpt lat="46.19672" lon="5.32279">
        <ele>315.4</ele>
        <time>2022-03-26T12:51:55Z</time>
      </trkpt>
      <trkpt lat="46.19659" lon="5.32274">
        <ele>315.6</ele>
        <time>2022-03-26T12:51:57Z</time>
      </trkpt>
      <trkpt lat="46.19623" lon="5.3226">
        <ele>315.8</ele>
        <time>2022-03-26T12:52:03Z</time>
      </trkpt>
      <trkpt lat="46.19583" lon="5.32249">
        <ele>317.2</ele>
        <time>2022-03-26T12:52:10Z</time>
      </trkpt>
      <trkpt lat="46.19567" lon="5.32244">
        <ele>318.6</ele>
        <time>2022-03-26T12:52:13Z</time>
      </trkpt>
      <trkpt lat="46.19547" lon="5.32238">
        <ele>320</ele>
        <time>2022-03-26T12:52:17Z</time>
      </trkpt>
      <trkpt lat="46.19517" lon="5.3223">
        <ele>320.6</ele>
        <time>2022-03-26T12:52:22Z</time>
      </trkpt>
      <trkpt lat="46.19476" lon="5.32221">
        <ele>320.4</ele>
        <time>2022-03-26T12:52:28Z</time>
      </trkpt>
      <trkpt lat="46.19422" lon="5.32214">
        <ele>319.8</ele>
        <time>2022-03-26T12:52:35Z</time>
      </trkpt>
      <trkpt lat="46.19368" lon="5.32204">
        <ele>319.6</ele>
        <time>2022-03-26T12:52:43Z</time>
      </trkpt>
      <trkpt lat="46.19314" lon="5.32182">
        <ele>320.4</ele>
        <time>2022-03-26T12:52:51Z</time>
      </trkpt>
      <trkpt lat="46.19262" lon="5.32158">
        <ele>320.8</ele>
        <time>2022-03-26T12:52:59Z</time>
      </trkpt>
      <trkpt lat="46.19241" lon="5.32149">
        <ele>320.8</ele>
        <time>2022-03-26T12:53:02Z</time>
      </trkpt>
      <trkpt lat="46.19184" lon="5.32128">
        <ele>320</ele>
        <time>2022-03-26T12:53:10Z</time>
      </trkpt>
      <trkpt lat="46.19176" lon="5.32125">
        <ele>319.8</ele>
        <time>2022-03-26T12:53:11Z</time>
      </trkpt>
      <trkpt lat="46.19133" lon="5.32122">
        <ele>319.8</ele>
        <time>2022-03-26T12:53:17Z</time>
      </trkpt>
      <trkpt lat="46.19072" lon="5.32136">
        <ele>320</ele>
        <time>2022-03-26T12:53:25Z</time>
      </trkpt>
      <trkpt lat="46.19028" lon="5.3215">
        <ele>318.8</ele>
        <time>2022-03-26T12:53:30Z</time>
      </trkpt>
      <trkpt lat="46.19008" lon="5.32153">
        <ele>317.6</ele>
        <time>2022-03-26T12:53:32Z</time>
      </trkpt>
      <trkpt lat="46.18989" lon="5.32153">
        <ele>316.6</ele>
        <time>2022-03-26T12:53:34Z</time>
      </trkpt>
      <trkpt lat="46.18971" lon="5.32151">
        <ele>315.2</ele>
        <time>2022-03-26T12:53:36Z</time>
      </trkpt>
      <trkpt lat="46.18958" lon="5.32148">
        <ele>314.2</ele>
        <time>2022-03-26T12:53:38Z</time>
      </trkpt>
      <trkpt lat="46.18952" lon="5.32147">
        <ele>313.6</ele>
        <time>2022-03-26T12:53:39Z</time>
      </trkpt>
      <trkpt lat="46.18929" lon="5.32147">
        <ele>313</ele>
        <time>2022-03-26T12:53:42Z</time>
      </trkpt>
      <trkpt lat="46.18921" lon="5.32149">
        <ele>312.6</ele>
        <time>2022-03-26T12:53:43Z</time>
      </trkpt>
      <trkpt lat="46.18885" lon="5.32161">
        <ele>311.6</ele>
        <time>2022-03-26T12:53:47Z</time>
      </trkpt>
      <trkpt lat="46.18875" lon="5.32167">
        <ele>311</ele>
        <time>2022-03-26T12:53:48Z</time>
      </trkpt>
      <trkpt lat="46.18856" lon="5.32181">
        <ele>309.4</ele>
        <time>2022-03-26T12:53:50Z</time>
      </trkpt>
      <trkpt lat="46.18839" lon="5.32195">
        <ele>307.8</ele>
        <time>2022-03-26T12:53:52Z</time>
      </trkpt>
      <trkpt lat="46.18816" lon="5.32208">
        <ele>306.6</ele>
        <time>2022-03-26T12:53:54Z</time>
      </trkpt>
      <trkpt lat="46.18797" lon="5.32216">
        <ele>305.8</ele>
        <time>2022-03-26T12:53:56Z</time>
      </trkpt>
      <trkpt lat="46.18786" lon="5.32219">
        <ele>304.8</ele>
        <time>2022-03-26T12:53:57Z</time>
      </trkpt>
      <trkpt lat="46.18764" lon="5.32223">
        <ele>303.6</ele>
        <time>2022-03-26T12:53:59Z</time>
      </trkpt>
      <trkpt lat="46.18747" lon="5.32225">
        <ele>302.6</ele>
        <time>2022-03-26T12:54:01Z</time>
      </trkpt>
      <trkpt lat="46.18736" lon="5.32226">
        <ele>302</ele>
        <time>2022-03-26T12:54:02Z</time>
      </trkpt>
      <trkpt lat="46.18695" lon="5.32234">
        <ele>301.8</ele>
        <time>2022-03-26T12:54:07Z</time>
      </trkpt>
      <trkpt lat="46.18661" lon="5.32245">
        <ele>303.2</ele>
        <time>2022-03-26T12:54:12Z</time>
      </trkpt>
      <trkpt lat="46.18655" lon="5.32247">
        <ele>303.8</ele>
        <time>2022-03-26T12:54:13Z</time>
      </trkpt>
      <trkpt lat="46.18643" lon="5.32252">
        <ele>304.2</ele>
        <time>2022-03-26T12:54:15Z</time>
      </trkpt>
      <trkpt lat="46.18616" lon="5.32262">
        <ele>305.4</ele>
        <time>2022-03-26T12:54:20Z</time>
      </trkpt>
      <trkpt lat="46.18597" lon="5.32268">
        <ele>306.4</ele>
        <time>2022-03-26T12:54:25Z</time>
      </trkpt>
      <trkpt lat="46.18583" lon="5.32272">
        <ele>307.4</ele>
        <time>2022-03-26T12:54:28Z</time>
      </trkpt>
      <trkpt lat="46.18578" lon="5.32274">
        <ele>307.6</ele>
        <time>2022-03-26T12:54:29Z</time>
      </trkpt>
      <trkpt lat="46.1856" lon="5.32279">
        <ele>308.8</ele>
        <time>2022-03-26T12:54:33Z</time>
      </trkpt>
      <trkpt lat="46.18537" lon="5.32285">
        <ele>310.2</ele>
        <time>2022-03-26T12:54:38Z</time>
      </trkpt>
      <trkpt lat="46.18508" lon="5.3229">
        <ele>311.4</ele>
        <time>2022-03-26T12:54:44Z</time>
      </trkpt>
      <trkpt lat="46.18487" lon="5.32293">
        <ele>312.2</ele>
        <time>2022-03-26T12:54:48Z</time>
      </trkpt>
      <trkpt lat="46.18482" lon="5.32294">
        <ele>312.4</ele>
        <time>2022-03-26T12:54:49Z</time>
      </trkpt>
      <trkpt lat="46.18448" lon="5.323">
        <ele>313.6</ele>
        <time>2022-03-26T12:54:56Z</time>
      </trkpt>
      <trkpt lat="46.18443" lon="5.32301">
        <ele>313.6</ele>
        <time>2022-03-26T12:54:57Z</time>
      </trkpt>
      <trkpt lat="46.18425" lon="5.32304">
        <ele>314.6</ele>
        <time>2022-03-26T12:55:01Z</time>
      </trkpt>
      <trkpt lat="46.18409" lon="5.32306">
        <ele>315.6</ele>
        <time>2022-03-26T12:55:05Z</time>
      </trkpt>
      <trkpt lat="46.18389" lon="5.32311">
        <ele>316.8</ele>
        <time>2022-03-26T12:55:10Z</time>
      </trkpt>
      <trkpt lat="46.18381" lon="5.32314">
        <ele>317.2</ele>
        <time>2022-03-26T12:55:12Z</time>
      </trkpt>
      <trkpt lat="46.18368" lon="5.32318">
        <ele>317.8</ele>
        <time>2022-03-26T12:55:15Z</time>
      </trkpt>
      <trkpt lat="46.18342" lon="5.3233">
        <ele>318.8</ele>
        <time>2022-03-26T12:55:21Z</time>
      </trkpt>
      <trkpt lat="46.18303" lon="5.32348">
        <ele>319.8</ele>
        <time>2022-03-26T12:55:30Z</time>
      </trkpt>
      <trkpt lat="46.18299" lon="5.3235">
        <ele>320.2</ele>
        <time>2022-03-26T12:55:31Z</time>
      </trkpt>
      <trkpt lat="46.18259" lon="5.32377">
        <ele>320.2</ele>
        <time>2022-03-26T12:55:39Z</time>
      </trkpt>
      <trkpt lat="46.18217" lon="5.32409">
        <ele>320</ele>
        <time>2022-03-26T12:55:46Z</time>
      </trkpt>
      <trkpt lat="46.18188" lon="5.32438">
        <ele>318.8</ele>
        <time>2022-03-26T12:55:51Z</time>
      </trkpt>
      <trkpt lat="46.18177" lon="5.32449">
        <ele>318.6</ele>
        <time>2022-03-26T12:55:53Z</time>
      </trkpt>
      <trkpt lat="46.18132" lon="5.32491">
        <ele>318.6</ele>
        <time>2022-03-26T12:56:01Z</time>
      </trkpt>
      <trkpt lat="46.18095" lon="5.32509">
        <ele>319.4</ele>
        <time>2022-03-26T12:56:07Z</time>
      </trkpt>
      <trkpt lat="46.18076" lon="5.32515">
        <ele>319.8</ele>
        <time>2022-03-26T12:56:10Z</time>
      </trkpt>
      <trkpt lat="46.18036" lon="5.32528">
        <ele>319.8</ele>
        <time>2022-03-26T12:56:16Z</time>
      </trkpt>
      <trkpt lat="46.17985" lon="5.32534">
        <ele>319.8</ele>
        <time>2022-03-26T12:56:24Z</time>
      </trkpt>
      <trkpt lat="46.17962" lon="5.32534">
        <ele>320.4</ele>
        <time>2022-03-26T12:56:29Z</time>
      </trkpt>
      <trkpt lat="46.17956" lon="5.32533">
        <ele>320.8</ele>
        <time>2022-03-26T12:56:32Z</time>
      </trkpt>
      <trkpt lat="46.17951" lon="5.32531">
        <ele>321.2</ele>
        <time>2022-03-26T12:56:34Z</time>
      </trkpt>
      <trkpt lat="46.17939" lon="5.32531">
        <ele>321.8</ele>
        <time>2022-03-26T12:56:37Z</time>
      </trkpt>
      <trkpt lat="46.17932" lon="5.32529">
        <ele>322</ele>
        <time>2022-03-26T12:56:39Z</time>
      </trkpt>
      <trkpt lat="46.17911" lon="5.32521">
        <ele>323.2</ele>
        <time>2022-03-26T12:56:45Z</time>
      </trkpt>
      <trkpt lat="46.17908" lon="5.32518">
        <ele>323.4</ele>
        <time>2022-03-26T12:56:46Z</time>
      </trkpt>
      <trkpt lat="46.17898" lon="5.32505">
        <ele>324.2</ele>
        <time>2022-03-26T12:56:49Z</time>
      </trkpt>
      <trkpt lat="46.17896" lon="5.32499">
        <ele>324.4</ele>
        <time>2022-03-26T12:56:50Z</time>
      </trkpt>
      <trkpt lat="46.1789" lon="5.32479">
        <ele>324.6</ele>
        <time>2022-03-26T12:56:53Z</time>
      </trkpt>
      <trkpt lat="46.17886" lon="5.32467">
        <ele>324.8</ele>
        <time>2022-03-26T12:56:55Z</time>
      </trkpt>
      <trkpt lat="46.17884" lon="5.3246">
        <ele>324.8</ele>
        <time>2022-03-26T12:56:56Z</time>
      </trkpt>
      <trkpt lat="46.1788" lon="5.3245">
        <ele>324.8</ele>
        <time>2022-03-26T12:56:59Z</time>
      </trkpt>
      <trkpt lat="46.17877" lon="5.3245">
        <ele>324.8</ele>
        <time>2022-03-26T12:57:00Z</time>
      </trkpt>
      <trkpt lat="46.17867" lon="5.3245">
        <ele>324.8</ele>
        <time>2022-03-26T12:57:02Z</time>
      </trkpt>
      <trkpt lat="46.17861" lon="5.32449">
        <ele>324.8</ele>
        <time>2022-03-26T12:57:03Z</time>
      </trkpt>
      <trkpt lat="46.17852" lon="5.3245">
        <ele>324.8</ele>
        <time>2022-03-26T12:57:05Z</time>
      </trkpt>
      <trkpt lat="46.17834" lon="5.32451">
        <ele>324.6</ele>
        <time>2022-03-26T12:57:08Z</time>
      </trkpt>
      <trkpt lat="46.17822" lon="5.32451">
        <ele>324.6</ele>
        <time>2022-03-26T12:57:10Z</time>
      </trkpt>
      <trkpt lat="46.17803" lon="5.32449">
        <ele>324.4</ele>
        <time>2022-03-26T12:57:13Z</time>
      </trkpt>
      <trkpt lat="46.17786" lon="5.32448">
        <ele>324</ele>
        <time>2022-03-26T12:57:17Z</time>
      </trkpt>
      <trkpt lat="46.17781" lon="5.32451">
        <ele>323.6</ele>
        <time>2022-03-26T12:57:18Z</time>
      </trkpt>
      <trkpt lat="46.1777" lon="5.32458">
        <ele>323.2</ele>
        <time>2022-03-26T12:57:20Z</time>
      </trkpt>
      <trkpt lat="46.17763" lon="5.32463">
        <ele>323</ele>
        <time>2022-03-26T12:57:21Z</time>
      </trkpt>
      <trkpt lat="46.1775" lon="5.32469">
        <ele>322.6</ele>
        <time>2022-03-26T12:57:23Z</time>
      </trkpt>
      <trkpt lat="46.17745" lon="5.32472">
        <ele>322.2</ele>
        <time>2022-03-26T12:57:24Z</time>
      </trkpt>
      <trkpt lat="46.1773" lon="5.3248">
        <ele>321.8</ele>
        <time>2022-03-26T12:57:26Z</time>
      </trkpt>
      <trkpt lat="46.17717" lon="5.32488">
        <ele>321</ele>
        <time>2022-03-26T12:57:28Z</time>
      </trkpt>
      <trkpt lat="46.17702" lon="5.32498">
        <ele>320.4</ele>
        <time>2022-03-26T12:57:30Z</time>
      </trkpt>
      <trkpt lat="46.17693" lon="5.32505">
        <ele>319.8</ele>
        <time>2022-03-26T12:57:31Z</time>
      </trkpt>
      <trkpt lat="46.17688" lon="5.32511">
        <ele>319.4</ele>
        <time>2022-03-26T12:57:32Z</time>
      </trkpt>
      <trkpt lat="46.17676" lon="5.32528">
        <ele>318.4</ele>
        <time>2022-03-26T12:57:34Z</time>
      </trkpt>
      <trkpt lat="46.17672" lon="5.32536">
        <ele>318.2</ele>
        <time>2022-03-26T12:57:35Z</time>
      </trkpt>
      <trkpt lat="46.17667" lon="5.32543">
        <ele>317.6</ele>
        <time>2022-03-26T12:57:36Z</time>
      </trkpt>
      <trkpt lat="46.17662" lon="5.32551">
        <ele>317.2</ele>
        <time>2022-03-26T12:57:37Z</time>
      </trkpt>
      <trkpt lat="46.17657" lon="5.32555">
        <ele>316.6</ele>
        <time>2022-03-26T12:57:38Z</time>
      </trkpt>
      <trkpt lat="46.1765" lon="5.32559">
        <ele>316</ele>
        <time>2022-03-26T12:57:39Z</time>
      </trkpt>
      <trkpt lat="46.17643" lon="5.3256">
        <ele>315.6</ele>
        <time>2022-03-26T12:57:40Z</time>
      </trkpt>
      <trkpt lat="46.17634" lon="5.3256">
        <ele>315</ele>
        <time>2022-03-26T12:57:41Z</time>
      </trkpt>
      <trkpt lat="46.17621" lon="5.32557">
        <ele>313.8</ele>
        <time>2022-03-26T12:57:43Z</time>
      </trkpt>
      <trkpt lat="46.17605" lon="5.32558">
        <ele>313</ele>
        <time>2022-03-26T12:57:45Z</time>
      </trkpt>
      <trkpt lat="46.17598" lon="5.32561">
        <ele>312.8</ele>
        <time>2022-03-26T12:57:46Z</time>
      </trkpt>
      <trkpt lat="46.17586" lon="5.32568">
        <ele>312.4</ele>
        <time>2022-03-26T12:57:48Z</time>
      </trkpt>
      <trkpt lat="46.17576" lon="5.32579">
        <ele>312.4</ele>
        <time>2022-03-26T12:57:50Z</time>
      </trkpt>
      <trkpt lat="46.1757" lon="5.32586">
        <ele>312.4</ele>
        <time>2022-03-26T12:57:51Z</time>
      </trkpt>
      <trkpt lat="46.17551" lon="5.32604">
        <ele>313.2</ele>
        <time>2022-03-26T12:57:55Z</time>
      </trkpt>
      <trkpt lat="46.17541" lon="5.32612">
        <ele>314</ele>
        <time>2022-03-26T12:57:57Z</time>
      </trkpt>
      <trkpt lat="46.17526" lon="5.32621">
        <ele>314.8</ele>
        <time>2022-03-26T12:58:00Z</time>
      </trkpt>
      <trkpt lat="46.1752" lon="5.32624">
        <ele>315</ele>
        <time>2022-03-26T12:58:01Z</time>
      </trkpt>
      <trkpt lat="46.17511" lon="5.32628">
        <ele>315.4</ele>
        <time>2022-03-26T12:58:03Z</time>
      </trkpt>
      <trkpt lat="46.17502" lon="5.32629">
        <ele>315.8</ele>
        <time>2022-03-26T12:58:05Z</time>
      </trkpt>
      <trkpt lat="46.17493" lon="5.32626">
        <ele>316.2</ele>
        <time>2022-03-26T12:58:07Z</time>
      </trkpt>
      <trkpt lat="46.1749" lon="5.32623">
        <ele>316.8</ele>
        <time>2022-03-26T12:58:08Z</time>
      </trkpt>
      <trkpt lat="46.17487" lon="5.3262">
        <ele>317.2</ele>
        <time>2022-03-26T12:58:09Z</time>
      </trkpt>
      <trkpt lat="46.17474" lon="5.32602">
        <ele>318.4</ele>
        <time>2022-03-26T12:58:13Z</time>
      </trkpt>
      <trkpt lat="46.17472" lon="5.32599">
        <ele>318.4</ele>
        <time>2022-03-26T12:58:14Z</time>
      </trkpt>
      <trkpt lat="46.17459" lon="5.32582">
        <ele>319.8</ele>
        <time>2022-03-26T12:58:18Z</time>
      </trkpt>
      <trkpt lat="46.1745" lon="5.32574">
        <ele>320.4</ele>
        <time>2022-03-26T12:58:21Z</time>
      </trkpt>
      <trkpt lat="46.17441" lon="5.32571">
        <ele>321</ele>
        <time>2022-03-26T12:58:24Z</time>
      </trkpt>
      <trkpt lat="46.17429" lon="5.3257">
        <ele>322</ele>
        <time>2022-03-26T12:58:27Z</time>
      </trkpt>
      <trkpt lat="46.17426" lon="5.32571">
        <ele>322.2</ele>
        <time>2022-03-26T12:58:28Z</time>
      </trkpt>
      <trkpt lat="46.17412" lon="5.32575">
        <ele>323.6</ele>
        <time>2022-03-26T12:58:32Z</time>
      </trkpt>
      <trkpt lat="46.17397" lon="5.32582">
        <ele>324.8</ele>
        <time>2022-03-26T12:58:36Z</time>
      </trkpt>
      <trkpt lat="46.17384" lon="5.32589">
        <ele>325.8</ele>
        <time>2022-03-26T12:58:40Z</time>
      </trkpt>
      <trkpt lat="46.17375" lon="5.32594">
        <ele>326.8</ele>
        <time>2022-03-26T12:58:43Z</time>
      </trkpt>
      <trkpt lat="46.17358" lon="5.32603">
        <ele>327.8</ele>
        <time>2022-03-26T12:58:48Z</time>
      </trkpt>
      <trkpt lat="46.17341" lon="5.32612">
        <ele>328.8</ele>
        <time>2022-03-26T12:58:53Z</time>
      </trkpt>
      <trkpt lat="46.17318" lon="5.32624">
        <ele>330.2</ele>
        <time>2022-03-26T12:59:00Z</time>
      </trkpt>
      <trkpt lat="46.17307" lon="5.32627">
        <ele>330.6</ele>
        <time>2022-03-26T12:59:03Z</time>
      </trkpt>
      <trkpt lat="46.17297" lon="5.32632">
        <ele>331.2</ele>
        <time>2022-03-26T12:59:06Z</time>
      </trkpt>
      <trkpt lat="46.1728" lon="5.32638">
        <ele>332.4</ele>
        <time>2022-03-26T12:59:11Z</time>
      </trkpt>
      <trkpt lat="46.17262" lon="5.32644">
        <ele>333.6</ele>
        <time>2022-03-26T12:59:16Z</time>
      </trkpt>
      <trkpt lat="46.17246" lon="5.32648">
        <ele>334.2</ele>
        <time>2022-03-26T12:59:20Z</time>
      </trkpt>
      <trkpt lat="46.17233" lon="5.32651">
        <ele>334.6</ele>
        <time>2022-03-26T12:59:23Z</time>
      </trkpt>
      <trkpt lat="46.17199" lon="5.32658">
        <ele>335.6</ele>
        <time>2022-03-26T12:59:31Z</time>
      </trkpt>
      <trkpt lat="46.17194" lon="5.32659">
        <ele>335.6</ele>
        <time>2022-03-26T12:59:32Z</time>
      </trkpt>
      <trkpt lat="46.17164" lon="5.32664">
        <ele>336.8</ele>
        <time>2022-03-26T12:59:39Z</time>
      </trkpt>
      <trkpt lat="46.17151" lon="5.32665">
        <ele>337.2</ele>
        <time>2022-03-26T12:59:42Z</time>
      </trkpt>
      <trkpt lat="46.17131" lon="5.32665">
        <ele>337.8</ele>
        <time>2022-03-26T12:59:46Z</time>
      </trkpt>
      <trkpt lat="46.17106" lon="5.32665">
        <ele>338.6</ele>
        <time>2022-03-26T12:59:51Z</time>
      </trkpt>
      <trkpt lat="46.1709" lon="5.32666">
        <ele>338.8</ele>
        <time>2022-03-26T12:59:54Z</time>
      </trkpt>
      <trkpt lat="46.17054" lon="5.3267">
        <ele>339.6</ele>
        <time>2022-03-26T13:00:01Z</time>
      </trkpt>
      <trkpt lat="46.17038" lon="5.32672">
        <ele>340</ele>
        <time>2022-03-26T13:00:04Z</time>
      </trkpt>
      <trkpt lat="46.17003" lon="5.32676">
        <ele>340.8</ele>
        <time>2022-03-26T13:00:11Z</time>
      </trkpt>
      <trkpt lat="46.16987" lon="5.32677">
        <ele>341.2</ele>
        <time>2022-03-26T13:00:14Z</time>
      </trkpt>
      <trkpt lat="46.16944" lon="5.32685">
        <ele>342.2</ele>
        <time>2022-03-26T13:00:22Z</time>
      </trkpt>
      <trkpt lat="46.16888" lon="5.32694">
        <ele>343.2</ele>
        <time>2022-03-26T13:00:32Z</time>
      </trkpt>
      <trkpt lat="46.16882" lon="5.32696">
        <ele>343.2</ele>
        <time>2022-03-26T13:00:33Z</time>
      </trkpt>
      <trkpt lat="46.16865" lon="5.32698">
        <ele>343.4</ele>
        <time>2022-03-26T13:00:36Z</time>
      </trkpt>
      <trkpt lat="46.16843" lon="5.32702">
        <ele>343.8</ele>
        <time>2022-03-26T13:00:40Z</time>
      </trkpt>
      <trkpt lat="46.168" lon="5.32709">
        <ele>344.6</ele>
        <time>2022-03-26T13:00:48Z</time>
      </trkpt>
      <trkpt lat="46.16789" lon="5.32711">
        <ele>344.8</ele>
        <time>2022-03-26T13:00:50Z</time>
      </trkpt>
      <trkpt lat="46.16778" lon="5.32714">
        <ele>345</ele>
        <time>2022-03-26T13:00:52Z</time>
      </trkpt>
      <trkpt lat="46.16768" lon="5.32715">
        <ele>345.2</ele>
        <time>2022-03-26T13:00:54Z</time>
      </trkpt>
      <trkpt lat="46.16747" lon="5.32719">
        <ele>345.6</ele>
        <time>2022-03-26T13:00:58Z</time>
      </trkpt>
      <trkpt lat="46.16741" lon="5.3272">
        <ele>345.8</ele>
        <time>2022-03-26T13:00:59Z</time>
      </trkpt>
      <trkpt lat="46.16708" lon="5.32726">
        <ele>346.6</ele>
        <time>2022-03-26T13:01:05Z</time>
      </trkpt>
      <trkpt lat="46.16663" lon="5.32735">
        <ele>346.6</ele>
        <time>2022-03-26T13:01:12Z</time>
      </trkpt>
      <trkpt lat="46.16614" lon="5.32747">
        <ele>345.2</ele>
        <time>2022-03-26T13:01:19Z</time>
      </trkpt>
      <trkpt lat="46.16598" lon="5.32751">
        <ele>344.6</ele>
        <time>2022-03-26T13:01:21Z</time>
      </trkpt>
      <trkpt lat="46.16552" lon="5.32762">
        <ele>343.4</ele>
        <time>2022-03-26T13:01:27Z</time>
      </trkpt>
      <trkpt lat="46.16529" lon="5.32769">
        <ele>342.6</ele>
        <time>2022-03-26T13:01:30Z</time>
      </trkpt>
      <trkpt lat="46.16505" lon="5.32776">
        <ele>342.2</ele>
        <time>2022-03-26T13:01:33Z</time>
      </trkpt>
      <trkpt lat="46.16496" lon="5.32779">
        <ele>342.2</ele>
        <time>2022-03-26T13:01:34Z</time>
      </trkpt>
      <trkpt lat="46.1647" lon="5.32785">
        <ele>341</ele>
        <time>2022-03-26T13:01:37Z</time>
      </trkpt>
      <trkpt lat="46.16451" lon="5.32789">
        <ele>340.6</ele>
        <time>2022-03-26T13:01:39Z</time>
      </trkpt>
      <trkpt lat="46.16433" lon="5.32791">
        <ele>340</ele>
        <time>2022-03-26T13:01:41Z</time>
      </trkpt>
      <trkpt lat="46.16423" lon="5.32791">
        <ele>339.2</ele>
        <time>2022-03-26T13:01:42Z</time>
      </trkpt>
      <trkpt lat="46.16405" lon="5.32787">
        <ele>338.8</ele>
        <time>2022-03-26T13:01:44Z</time>
      </trkpt>
      <trkpt lat="46.16396" lon="5.32785">
        <ele>338.6</ele>
        <time>2022-03-26T13:01:45Z</time>
      </trkpt>
      <trkpt lat="46.16386" lon="5.32784">
        <ele>337.6</ele>
        <time>2022-03-26T13:01:46Z</time>
      </trkpt>
      <trkpt lat="46.16367" lon="5.32785">
        <ele>336.4</ele>
        <time>2022-03-26T13:01:48Z</time>
      </trkpt>
      <trkpt lat="46.16351" lon="5.32787">
        <ele>334.8</ele>
        <time>2022-03-26T13:01:50Z</time>
      </trkpt>
      <trkpt lat="46.16345" lon="5.32788">
        <ele>333.4</ele>
        <time>2022-03-26T13:01:51Z</time>
      </trkpt>
      <trkpt lat="46.1634" lon="5.32787">
        <ele>332.8</ele>
        <time>2022-03-26T13:01:52Z</time>
      </trkpt>
      <trkpt lat="46.16336" lon="5.32786">
        <ele>331.2</ele>
        <time>2022-03-26T13:01:53Z</time>
      </trkpt>
      <trkpt lat="46.16334" lon="5.32783">
        <ele>329.4</ele>
        <time>2022-03-26T13:01:55Z</time>
      </trkpt>
      <trkpt lat="46.16334" lon="5.32783">
        <ele>328.2</ele>
        <time>2022-03-26T13:01:56Z</time>
      </trkpt>
      <trkpt lat="46.16334" lon="5.32783">
        <ele>327.4</ele>
        <time>2022-03-26T13:01:58Z</time>
      </trkpt>
      <trkpt lat="46.16331" lon="5.32777">
        <ele>326.4</ele>
        <time>2022-03-26T13:02:03Z</time>
      </trkpt>
      <trkpt lat="46.16318" lon="5.32769">
        <ele>326</ele>
        <time>2022-03-26T13:02:06Z</time>
      </trkpt>
      <trkpt lat="46.16287" lon="5.32761">
        <ele>325.4</ele>
        <time>2022-03-26T13:02:10Z</time>
      </trkpt>
      <trkpt lat="46.16279" lon="5.3276">
        <ele>325</ele>
        <time>2022-03-26T13:02:11Z</time>
      </trkpt>
      <trkpt lat="46.16262" lon="5.32761">
        <ele>324.2</ele>
        <time>2022-03-26T13:02:13Z</time>
      </trkpt>
      <trkpt lat="46.16253" lon="5.32762">
        <ele>323.8</ele>
        <time>2022-03-26T13:02:14Z</time>
      </trkpt>
      <trkpt lat="46.16235" lon="5.32764">
        <ele>322.8</ele>
        <time>2022-03-26T13:02:16Z</time>
      </trkpt>
      <trkpt lat="46.16197" lon="5.32767">
        <ele>321.8</ele>
        <time>2022-03-26T13:02:20Z</time>
      </trkpt>
      <trkpt lat="46.16169" lon="5.32767">
        <ele>320.6</ele>
        <time>2022-03-26T13:02:23Z</time>
      </trkpt>
      <trkpt lat="46.16141" lon="5.32766">
        <ele>319.6</ele>
        <time>2022-03-26T13:02:26Z</time>
      </trkpt>
      <trkpt lat="46.16132" lon="5.32767">
        <ele>319.4</ele>
        <time>2022-03-26T13:02:27Z</time>
      </trkpt>
      <trkpt lat="46.16081" lon="5.32771">
        <ele>318.8</ele>
        <time>2022-03-26T13:02:33Z</time>
      </trkpt>
      <trkpt lat="46.16059" lon="5.32773">
        <ele>318.6</ele>
        <time>2022-03-26T13:02:36Z</time>
      </trkpt>
      <trkpt lat="46.16045" lon="5.32776">
        <ele>318.6</ele>
        <time>2022-03-26T13:02:38Z</time>
      </trkpt>
      <trkpt lat="46.16021" lon="5.32779">
        <ele>318.6</ele>
        <time>2022-03-26T13:02:41Z</time>
      </trkpt>
      <trkpt lat="46.16014" lon="5.32778">
        <ele>318.4</ele>
        <time>2022-03-26T13:02:42Z</time>
      </trkpt>
      <trkpt lat="46.15957" lon="5.32769">
        <ele>317.6</ele>
        <time>2022-03-26T13:02:49Z</time>
      </trkpt>
      <trkpt lat="46.15948" lon="5.32768">
        <ele>317.4</ele>
        <time>2022-03-26T13:02:50Z</time>
      </trkpt>
      <trkpt lat="46.15938" lon="5.32768">
        <ele>317</ele>
        <time>2022-03-26T13:02:51Z</time>
      </trkpt>
      <trkpt lat="46.1592" lon="5.32771">
        <ele>316</ele>
        <time>2022-03-26T13:02:53Z</time>
      </trkpt>
      <trkpt lat="46.15892" lon="5.32775">
        <ele>315</ele>
        <time>2022-03-26T13:02:56Z</time>
      </trkpt>
      <trkpt lat="46.15862" lon="5.32782">
        <ele>314.2</ele>
        <time>2022-03-26T13:02:59Z</time>
      </trkpt>
      <trkpt lat="46.15843" lon="5.32788">
        <ele>313.8</ele>
        <time>2022-03-26T13:03:01Z</time>
      </trkpt>
      <trkpt lat="46.15804" lon="5.32799">
        <ele>312.6</ele>
        <time>2022-03-26T13:03:05Z</time>
      </trkpt>
      <trkpt lat="46.15784" lon="5.32802">
        <ele>312</ele>
        <time>2022-03-26T13:03:07Z</time>
      </trkpt>
      <trkpt lat="46.15738" lon="5.32803">
        <ele>311.4</ele>
        <time>2022-03-26T13:03:12Z</time>
      </trkpt>
      <trkpt lat="46.15727" lon="5.32802">
        <ele>311.2</ele>
        <time>2022-03-26T13:03:13Z</time>
      </trkpt>
      <trkpt lat="46.15696" lon="5.32799">
        <ele>310.2</ele>
        <time>2022-03-26T13:03:16Z</time>
      </trkpt>
      <trkpt lat="46.15673" lon="5.32799">
        <ele>309.6</ele>
        <time>2022-03-26T13:03:18Z</time>
      </trkpt>
      <trkpt lat="46.15662" lon="5.328">
        <ele>309.2</ele>
        <time>2022-03-26T13:03:19Z</time>
      </trkpt>
      <trkpt lat="46.15637" lon="5.32801">
        <ele>308.2</ele>
        <time>2022-03-26T13:03:21Z</time>
      </trkpt>
      <trkpt lat="46.15604" lon="5.32802">
        <ele>306.2</ele>
        <time>2022-03-26T13:03:24Z</time>
      </trkpt>
      <trkpt lat="46.15582" lon="5.32804">
        <ele>304.8</ele>
        <time>2022-03-26T13:03:26Z</time>
      </trkpt>
      <trkpt lat="46.15535" lon="5.32805">
        <ele>303.8</ele>
        <time>2022-03-26T13:03:30Z</time>
      </trkpt>
      <trkpt lat="46.15526" lon="5.32804">
        <ele>303.6</ele>
        <time>2022-03-26T13:03:31Z</time>
      </trkpt>
      <trkpt lat="46.15492" lon="5.32799">
        <ele>302.8</ele>
        <time>2022-03-26T13:03:34Z</time>
      </trkpt>
      <trkpt lat="46.15469" lon="5.32797">
        <ele>301.6</ele>
        <time>2022-03-26T13:03:36Z</time>
      </trkpt>
      <trkpt lat="46.15434" lon="5.32797">
        <ele>300.4</ele>
        <time>2022-03-26T13:03:39Z</time>
      </trkpt>
      <trkpt lat="46.15422" lon="5.32796">
        <ele>299.4</ele>
        <time>2022-03-26T13:03:40Z</time>
      </trkpt>
      <trkpt lat="46.15385" lon="5.32795">
        <ele>298.2</ele>
        <time>2022-03-26T13:03:43Z</time>
      </trkpt>
      <trkpt lat="46.15349" lon="5.32794">
        <ele>297</ele>
        <time>2022-03-26T13:03:46Z</time>
      </trkpt>
      <trkpt lat="46.15325" lon="5.32794">
        <ele>295.6</ele>
        <time>2022-03-26T13:03:48Z</time>
      </trkpt>
      <trkpt lat="46.15313" lon="5.32793">
        <ele>295</ele>
        <time>2022-03-26T13:03:49Z</time>
      </trkpt>
      <trkpt lat="46.15291" lon="5.32792">
        <ele>294.4</ele>
        <time>2022-03-26T13:03:51Z</time>
      </trkpt>
      <trkpt lat="46.15255" lon="5.32789">
        <ele>292.8</ele>
        <time>2022-03-26T13:03:54Z</time>
      </trkpt>
      <trkpt lat="46.1523" lon="5.32787">
        <ele>291.8</ele>
        <time>2022-03-26T13:03:56Z</time>
      </trkpt>
      <trkpt lat="46.15218" lon="5.32786">
        <ele>291.4</ele>
        <time>2022-03-26T13:03:57Z</time>
      </trkpt>
      <trkpt lat="46.15206" lon="5.32785">
        <ele>290.8</ele>
        <time>2022-03-26T13:03:58Z</time>
      </trkpt>
      <trkpt lat="46.1518" lon="5.32782">
        <ele>289.4</ele>
        <time>2022-03-26T13:04:00Z</time>
      </trkpt>
      <trkpt lat="46.15159" lon="5.32779">
        <ele>288.2</ele>
        <time>2022-03-26T13:04:02Z</time>
      </trkpt>
      <trkpt lat="46.15136" lon="5.32775">
        <ele>287.4</ele>
        <time>2022-03-26T13:04:04Z</time>
      </trkpt>
      <trkpt lat="46.15122" lon="5.32773">
        <ele>286.8</ele>
        <time>2022-03-26T13:04:05Z</time>
      </trkpt>
      <trkpt lat="46.15111" lon="5.32771">
        <ele>286.6</ele>
        <time>2022-03-26T13:04:06Z</time>
      </trkpt>
      <trkpt lat="46.15089" lon="5.32767">
        <ele>285.6</ele>
        <time>2022-03-26T13:04:08Z</time>
      </trkpt>
      <trkpt lat="46.15046" lon="5.32758">
        <ele>285</ele>
        <time>2022-03-26T13:04:12Z</time>
      </trkpt>
      <trkpt lat="46.15015" lon="5.32751">
        <ele>284.6</ele>
        <time>2022-03-26T13:04:15Z</time>
      </trkpt>
      <trkpt lat="46.14973" lon="5.3274">
        <ele>284.4</ele>
        <time>2022-03-26T13:04:19Z</time>
      </trkpt>
      <trkpt lat="46.14915" lon="5.32724">
        <ele>284</ele>
        <time>2022-03-26T13:04:25Z</time>
      </trkpt>
      <trkpt lat="46.14886" lon="5.32716">
        <ele>283.8</ele>
        <time>2022-03-26T13:04:28Z</time>
      </trkpt>
      <trkpt lat="46.14828" lon="5.327">
        <ele>283.6</ele>
        <time>2022-03-26T13:04:34Z</time>
      </trkpt>
      <trkpt lat="46.14801" lon="5.32693">
        <ele>283.6</ele>
        <time>2022-03-26T13:04:37Z</time>
      </trkpt>
      <trkpt lat="46.14774" lon="5.32685">
        <ele>283.6</ele>
        <time>2022-03-26T13:04:40Z</time>
      </trkpt>
      <trkpt lat="46.1474" lon="5.32673">
        <ele>283.6</ele>
        <time>2022-03-26T13:04:44Z</time>
      </trkpt>
      <trkpt lat="46.14684" lon="5.32647">
        <ele>283.4</ele>
        <time>2022-03-26T13:04:51Z</time>
      </trkpt>
      <trkpt lat="46.14668" lon="5.3264">
        <ele>283.4</ele>
        <time>2022-03-26T13:04:53Z</time>
      </trkpt>
      <trkpt lat="46.14613" lon="5.32624">
        <ele>283.4</ele>
        <time>2022-03-26T13:05:00Z</time>
      </trkpt>
      <trkpt lat="46.14605" lon="5.32623">
        <ele>283.6</ele>
        <time>2022-03-26T13:05:01Z</time>
      </trkpt>
      <trkpt lat="46.14548" lon="5.32618">
        <ele>283.6</ele>
        <time>2022-03-26T13:05:08Z</time>
      </trkpt>
      <trkpt lat="46.1454" lon="5.32618">
        <ele>283.6</ele>
        <time>2022-03-26T13:05:09Z</time>
      </trkpt>
      <trkpt lat="46.14485" lon="5.32607">
        <ele>283.2</ele>
        <time>2022-03-26T13:05:16Z</time>
      </trkpt>
      <trkpt lat="46.14477" lon="5.32605">
        <ele>283.2</ele>
        <time>2022-03-26T13:05:17Z</time>
      </trkpt>
      <trkpt lat="46.14422" lon="5.32586">
        <ele>282.4</ele>
        <time>2022-03-26T13:05:24Z</time>
      </trkpt>
      <trkpt lat="46.14378" lon="5.32557">
        <ele>282</ele>
        <time>2022-03-26T13:05:30Z</time>
      </trkpt>
      <trkpt lat="46.14348" lon="5.32519">
        <ele>281.6</ele>
        <time>2022-03-26T13:05:35Z</time>
      </trkpt>
      <trkpt lat="46.14332" lon="5.32493">
        <ele>281.2</ele>
        <time>2022-03-26T13:05:38Z</time>
      </trkpt>
      <trkpt lat="46.14319" lon="5.32463">
        <ele>280.6</ele>
        <time>2022-03-26T13:05:41Z</time>
      </trkpt>
      <trkpt lat="46.14306" lon="5.32419">
        <ele>280.2</ele>
        <time>2022-03-26T13:05:45Z</time>
      </trkpt>
      <trkpt lat="46.14303" lon="5.32407">
        <ele>280</ele>
        <time>2022-03-26T13:05:46Z</time>
      </trkpt>
      <trkpt lat="46.14296" lon="5.32372">
        <ele>279</ele>
        <time>2022-03-26T13:05:49Z</time>
      </trkpt>
      <trkpt lat="46.14289" lon="5.32323">
        <ele>278</ele>
        <time>2022-03-26T13:05:53Z</time>
      </trkpt>
      <trkpt lat="46.14281" lon="5.32274">
        <ele>277.4</ele>
        <time>2022-03-26T13:05:57Z</time>
      </trkpt>
      <trkpt lat="46.14271" lon="5.32211">
        <ele>277</ele>
        <time>2022-03-26T13:06:02Z</time>
      </trkpt>
      <trkpt lat="46.1427" lon="5.32199">
        <ele>276.4</ele>
        <time>2022-03-26T13:06:03Z</time>
      </trkpt>
      <trkpt lat="46.14262" lon="5.32149">
        <ele>275.4</ele>
        <time>2022-03-26T13:06:07Z</time>
      </trkpt>
      <trkpt lat="46.14252" lon="5.32086">
        <ele>274.4</ele>
        <time>2022-03-26T13:06:12Z</time>
      </trkpt>
      <trkpt lat="46.14243" lon="5.32024">
        <ele>273.4</ele>
        <time>2022-03-26T13:06:17Z</time>
      </trkpt>
      <trkpt lat="46.14233" lon="5.31964">
        <ele>273</ele>
        <time>2022-03-26T13:06:22Z</time>
      </trkpt>
      <trkpt lat="46.14224" lon="5.31883">
        <ele>272.8</ele>
        <time>2022-03-26T13:06:29Z</time>
      </trkpt>
      <trkpt lat="46.14222" lon="5.31872">
        <ele>272.8</ele>
        <time>2022-03-26T13:06:30Z</time>
      </trkpt>
      <trkpt lat="46.14213" lon="5.3184">
        <ele>272.6</ele>
        <time>2022-03-26T13:06:33Z</time>
      </trkpt>
      <trkpt lat="46.14208" lon="5.31819">
        <ele>272.4</ele>
        <time>2022-03-26T13:06:35Z</time>
      </trkpt>
      <trkpt lat="46.14201" lon="5.31776">
        <ele>272.2</ele>
        <time>2022-03-26T13:06:39Z</time>
      </trkpt>
      <trkpt lat="46.14191" lon="5.31703">
        <ele>272.2</ele>
        <time>2022-03-26T13:06:46Z</time>
      </trkpt>
      <trkpt lat="46.14186" lon="5.31644">
        <ele>272</ele>
        <time>2022-03-26T13:06:52Z</time>
      </trkpt>
      <trkpt lat="46.14181" lon="5.31632">
        <ele>272.2</ele>
        <time>2022-03-26T13:06:54Z</time>
      </trkpt>
      <trkpt lat="46.14176" lon="5.3163">
        <ele>272.2</ele>
        <time>2022-03-26T13:06:55Z</time>
      </trkpt>
      <trkpt lat="46.1417" lon="5.31632">
        <ele>272.2</ele>
        <time>2022-03-26T13:06:56Z</time>
      </trkpt>
      <trkpt lat="46.14152" lon="5.31637">
        <ele>272.2</ele>
        <time>2022-03-26T13:06:59Z</time>
      </trkpt>
      <trkpt lat="46.14119" lon="5.3164">
        <ele>272.4</ele>
        <time>2022-03-26T13:07:04Z</time>
      </trkpt>
      <trkpt lat="46.14112" lon="5.31639">
        <ele>272.4</ele>
        <time>2022-03-26T13:07:05Z</time>
      </trkpt>
      <trkpt lat="46.14099" lon="5.31635">
        <ele>272.4</ele>
        <time>2022-03-26T13:07:07Z</time>
      </trkpt>
      <trkpt lat="46.14086" lon="5.31632">
        <ele>272.6</ele>
        <time>2022-03-26T13:07:09Z</time>
      </trkpt>
      <trkpt lat="46.14079" lon="5.31632">
        <ele>272.6</ele>
        <time>2022-03-26T13:07:10Z</time>
      </trkpt>
      <trkpt lat="46.14033" lon="5.31635">
        <ele>272.8</ele>
        <time>2022-03-26T13:07:17Z</time>
      </trkpt>
      <trkpt lat="46.13992" lon="5.31638">
        <ele>273</ele>
        <time>2022-03-26T13:07:23Z</time>
      </trkpt>
      <trkpt lat="46.13958" lon="5.31643">
        <ele>273.2</ele>
        <time>2022-03-26T13:07:28Z</time>
      </trkpt>
      <trkpt lat="46.13939" lon="5.31648">
        <ele>273.6</ele>
        <time>2022-03-26T13:07:31Z</time>
      </trkpt>
      <trkpt lat="46.13931" lon="5.31649">
        <ele>273.6</ele>
        <time>2022-03-26T13:07:32Z</time>
      </trkpt>
      <trkpt lat="46.13893" lon="5.31658">
        <ele>274.2</ele>
        <time>2022-03-26T13:07:38Z</time>
      </trkpt>
      <trkpt lat="46.13856" lon="5.31673">
        <ele>274.2</ele>
        <time>2022-03-26T13:07:44Z</time>
      </trkpt>
      <trkpt lat="46.13803" lon="5.31697">
        <ele>273.6</ele>
        <time>2022-03-26T13:07:52Z</time>
      </trkpt>
      <trkpt lat="46.13761" lon="5.31704">
        <ele>273.6</ele>
        <time>2022-03-26T13:07:58Z</time>
      </trkpt>
      <trkpt lat="46.13707" lon="5.31704">
        <ele>273.6</ele>
        <time>2022-03-26T13:08:06Z</time>
      </trkpt>
      <trkpt lat="46.13653" lon="5.31704">
        <ele>274</ele>
        <time>2022-03-26T13:08:14Z</time>
      </trkpt>
      <trkpt lat="46.13612" lon="5.31691">
        <ele>274.2</ele>
        <time>2022-03-26T13:08:20Z</time>
      </trkpt>
      <trkpt lat="46.13578" lon="5.31682">
        <ele>274.2</ele>
        <time>2022-03-26T13:08:25Z</time>
      </trkpt>
      <trkpt lat="46.1355" lon="5.31689">
        <ele>274</ele>
        <time>2022-03-26T13:08:29Z</time>
      </trkpt>
      <trkpt lat="46.13542" lon="5.31693">
        <ele>274</ele>
        <time>2022-03-26T13:08:30Z</time>
      </trkpt>
      <trkpt lat="46.13512" lon="5.31714">
        <ele>273.4</ele>
        <time>2022-03-26T13:08:34Z</time>
      </trkpt>
      <trkpt lat="46.13504" lon="5.31718">
        <ele>273.2</ele>
        <time>2022-03-26T13:08:35Z</time>
      </trkpt>
      <trkpt lat="46.13488" lon="5.31723">
        <ele>272.6</ele>
        <time>2022-03-26T13:08:37Z</time>
      </trkpt>
      <trkpt lat="46.13454" lon="5.31732">
        <ele>272</ele>
        <time>2022-03-26T13:08:41Z</time>
      </trkpt>
      <trkpt lat="46.13439" lon="5.31738">
        <ele>271.6</ele>
        <time>2022-03-26T13:08:43Z</time>
      </trkpt>
      <trkpt lat="46.1341" lon="5.31754">
        <ele>271.6</ele>
        <time>2022-03-26T13:08:47Z</time>
      </trkpt>
      <trkpt lat="46.1336" lon="5.31781">
        <ele>271.8</ele>
        <time>2022-03-26T13:08:54Z</time>
      </trkpt>
      <trkpt lat="46.13312" lon="5.318">
        <ele>272.4</ele>
        <time>2022-03-26T13:09:01Z</time>
      </trkpt>
      <trkpt lat="46.13293" lon="5.31802">
        <ele>272.8</ele>
        <time>2022-03-26T13:09:04Z</time>
      </trkpt>
      <trkpt lat="46.13267" lon="5.31802">
        <ele>273.8</ele>
        <time>2022-03-26T13:09:08Z</time>
      </trkpt>
      <trkpt lat="46.13261" lon="5.31801">
        <ele>274.2</ele>
        <time>2022-03-26T13:09:09Z</time>
      </trkpt>
      <trkpt lat="46.13242" lon="5.318">
        <ele>275.2</ele>
        <time>2022-03-26T13:09:12Z</time>
      </trkpt>
      <trkpt lat="46.13209" lon="5.31805">
        <ele>276</ele>
        <time>2022-03-26T13:09:17Z</time>
      </trkpt>
      <trkpt lat="46.13196" lon="5.31806">
        <ele>276.4</ele>
        <time>2022-03-26T13:09:19Z</time>
      </trkpt>
      <trkpt lat="46.13164" lon="5.31818">
        <ele>277</ele>
        <time>2022-03-26T13:09:24Z</time>
      </trkpt>
      <trkpt lat="46.13151" lon="5.31824">
        <ele>277.6</ele>
        <time>2022-03-26T13:09:26Z</time>
      </trkpt>
      <trkpt lat="46.13118" lon="5.31843">
        <ele>278.4</ele>
        <time>2022-03-26T13:09:31Z</time>
      </trkpt>
      <trkpt lat="46.13066" lon="5.31882">
        <ele>278.6</ele>
        <time>2022-03-26T13:09:39Z</time>
      </trkpt>
      <trkpt lat="46.13021" lon="5.31926">
        <ele>278.2</ele>
        <time>2022-03-26T13:09:46Z</time>
      </trkpt>
      <trkpt lat="46.13011" lon="5.31945">
        <ele>278</ele>
        <time>2022-03-26T13:09:48Z</time>
      </trkpt>
      <trkpt lat="46.13003" lon="5.31967">
        <ele>277.8</ele>
        <time>2022-03-26T13:09:50Z</time>
      </trkpt>
      <trkpt lat="46.12977" lon="5.32048">
        <ele>277</ele>
        <time>2022-03-26T13:09:57Z</time>
      </trkpt>
      <trkpt lat="46.12965" lon="5.3208">
        <ele>276.6</ele>
        <time>2022-03-26T13:10:00Z</time>
      </trkpt>
      <trkpt lat="46.12953" lon="5.32098">
        <ele>276.4</ele>
        <time>2022-03-26T13:10:02Z</time>
      </trkpt>
      <trkpt lat="46.12939" lon="5.3211">
        <ele>276.4</ele>
        <time>2022-03-26T13:10:04Z</time>
      </trkpt>
      <trkpt lat="46.12931" lon="5.32115">
        <ele>276.4</ele>
        <time>2022-03-26T13:10:05Z</time>
      </trkpt>
      <trkpt lat="46.12873" lon="5.32147">
        <ele>276</ele>
        <time>2022-03-26T13:10:12Z</time>
      </trkpt>
      <trkpt lat="46.12856" lon="5.32153">
        <ele>276</ele>
        <time>2022-03-26T13:10:14Z</time>
      </trkpt>
      <trkpt lat="46.12796" lon="5.32173">
        <ele>275.8</ele>
        <time>2022-03-26T13:10:21Z</time>
      </trkpt>
      <trkpt lat="46.12787" lon="5.32175">
        <ele>275.6</ele>
        <time>2022-03-26T13:10:22Z</time>
      </trkpt>
      <trkpt lat="46.12778" lon="5.32178">
        <ele>275.4</ele>
        <time>2022-03-26T13:10:23Z</time>
      </trkpt>
      <trkpt lat="46.12716" lon="5.32191">
        <ele>274.8</ele>
        <time>2022-03-26T13:10:30Z</time>
      </trkpt>
      <trkpt lat="46.12707" lon="5.32192">
        <ele>274.6</ele>
        <time>2022-03-26T13:10:31Z</time>
      </trkpt>
      <trkpt lat="46.12647" lon="5.32202">
        <ele>274</ele>
        <time>2022-03-26T13:10:38Z</time>
      </trkpt>
      <trkpt lat="46.1263" lon="5.32204">
        <ele>274</ele>
        <time>2022-03-26T13:10:40Z</time>
      </trkpt>
      <trkpt lat="46.12572" lon="5.32215">
        <ele>274.6</ele>
        <time>2022-03-26T13:10:47Z</time>
      </trkpt>
      <trkpt lat="46.12556" lon="5.32219">
        <ele>274.8</ele>
        <time>2022-03-26T13:10:49Z</time>
      </trkpt>
      <trkpt lat="46.12533" lon="5.32228">
        <ele>274.8</ele>
        <time>2022-03-26T13:10:52Z</time>
      </trkpt>
      <trkpt lat="46.12519" lon="5.32236">
        <ele>275</ele>
        <time>2022-03-26T13:10:54Z</time>
      </trkpt>
      <trkpt lat="46.12491" lon="5.3225">
        <ele>276.2</ele>
        <time>2022-03-26T13:10:58Z</time>
      </trkpt>
      <trkpt lat="46.12471" lon="5.32262">
        <ele>277.2</ele>
        <time>2022-03-26T13:11:01Z</time>
      </trkpt>
      <trkpt lat="46.12464" lon="5.32267">
        <ele>277.4</ele>
        <time>2022-03-26T13:11:02Z</time>
      </trkpt>
      <trkpt lat="46.12444" lon="5.3228">
        <ele>278.4</ele>
        <time>2022-03-26T13:11:05Z</time>
      </trkpt>
      <trkpt lat="46.12423" lon="5.32294">
        <ele>279.2</ele>
        <time>2022-03-26T13:11:08Z</time>
      </trkpt>
      <trkpt lat="46.12416" lon="5.32299">
        <ele>279.4</ele>
        <time>2022-03-26T13:11:09Z</time>
      </trkpt>
      <trkpt lat="46.12366" lon="5.32331">
        <ele>279.6</ele>
        <time>2022-03-26T13:11:16Z</time>
      </trkpt>
      <trkpt lat="46.12321" lon="5.32359">
        <ele>279.6</ele>
        <time>2022-03-26T13:11:23Z</time>
      </trkpt>
      <trkpt lat="46.12276" lon="5.3238">
        <ele>279</ele>
        <time>2022-03-26T13:11:29Z</time>
      </trkpt>
      <trkpt lat="46.12225" lon="5.32398">
        <ele>278.2</ele>
        <time>2022-03-26T13:11:35Z</time>
      </trkpt>
      <trkpt lat="46.1221" lon="5.32404">
        <ele>278.2</ele>
        <time>2022-03-26T13:11:37Z</time>
      </trkpt>
      <trkpt lat="46.12167" lon="5.32413">
        <ele>277.6</ele>
        <time>2022-03-26T13:11:42Z</time>
      </trkpt>
      <trkpt lat="46.12141" lon="5.32419">
        <ele>277</ele>
        <time>2022-03-26T13:11:45Z</time>
      </trkpt>
      <trkpt lat="46.12108" lon="5.32426">
        <ele>276.8</ele>
        <time>2022-03-26T13:11:49Z</time>
      </trkpt>
      <trkpt lat="46.12061" lon="5.32428">
        <ele>276.6</ele>
        <time>2022-03-26T13:11:55Z</time>
      </trkpt>
      <trkpt lat="46.12004" lon="5.32418">
        <ele>277.4</ele>
        <time>2022-03-26T13:12:03Z</time>
      </trkpt>
      <trkpt lat="46.11995" lon="5.32416">
        <ele>277.6</ele>
        <time>2022-03-26T13:12:04Z</time>
      </trkpt>
      <trkpt lat="46.1197" lon="5.32409">
        <ele>278.2</ele>
        <time>2022-03-26T13:12:08Z</time>
      </trkpt>
      <trkpt lat="46.11942" lon="5.324">
        <ele>278.8</ele>
        <time>2022-03-26T13:12:12Z</time>
      </trkpt>
      <trkpt lat="46.11899" lon="5.32389">
        <ele>278.4</ele>
        <time>2022-03-26T13:12:18Z</time>
      </trkpt>
      <trkpt lat="46.1189" lon="5.32389">
        <ele>278</ele>
        <time>2022-03-26T13:12:19Z</time>
      </trkpt>
      <trkpt lat="46.11859" lon="5.3239">
        <ele>277.6</ele>
        <time>2022-03-26T13:12:23Z</time>
      </trkpt>
      <trkpt lat="46.11829" lon="5.32397">
        <ele>277</ele>
        <time>2022-03-26T13:12:27Z</time>
      </trkpt>
      <trkpt lat="46.11814" lon="5.32401">
        <ele>276.8</ele>
        <time>2022-03-26T13:12:29Z</time>
      </trkpt>
      <trkpt lat="46.11765" lon="5.32415">
        <ele>276.4</ele>
        <time>2022-03-26T13:12:35Z</time>
      </trkpt>
      <trkpt lat="46.11758" lon="5.32419">
        <ele>276.4</ele>
        <time>2022-03-26T13:12:36Z</time>
      </trkpt>
      <trkpt lat="46.11751" lon="5.32424">
        <ele>276</ele>
        <time>2022-03-26T13:12:37Z</time>
      </trkpt>
      <trkpt lat="46.11744" lon="5.32431">
        <ele>276.2</ele>
        <time>2022-03-26T13:12:38Z</time>
      </trkpt>
      <trkpt lat="46.11724" lon="5.32451">
        <ele>276</ele>
        <time>2022-03-26T13:12:41Z</time>
      </trkpt>
      <trkpt lat="46.11694" lon="5.32483">
        <ele>276</ele>
        <time>2022-03-26T13:12:46Z</time>
      </trkpt>
      <trkpt lat="46.11662" lon="5.32517">
        <ele>276.2</ele>
        <time>2022-03-26T13:12:52Z</time>
      </trkpt>
      <trkpt lat="46.11656" lon="5.32522">
        <ele>276.2</ele>
        <time>2022-03-26T13:12:53Z</time>
      </trkpt>
      <trkpt lat="46.1165" lon="5.32527">
        <ele>276.4</ele>
        <time>2022-03-26T13:12:54Z</time>
      </trkpt>
      <trkpt lat="46.11638" lon="5.32532">
        <ele>276.8</ele>
        <time>2022-03-26T13:12:56Z</time>
      </trkpt>
      <trkpt lat="46.11633" lon="5.32533">
        <ele>277</ele>
        <time>2022-03-26T13:12:57Z</time>
      </trkpt>
      <trkpt lat="46.11627" lon="5.32534">
        <ele>277.2</ele>
        <time>2022-03-26T13:12:58Z</time>
      </trkpt>
      <trkpt lat="46.11621" lon="5.32533">
        <ele>277.6</ele>
        <time>2022-03-26T13:12:59Z</time>
      </trkpt>
      <trkpt lat="46.11609" lon="5.32532">
        <ele>278.2</ele>
        <time>2022-03-26T13:13:01Z</time>
      </trkpt>
      <trkpt lat="46.11603" lon="5.32532">
        <ele>278.4</ele>
        <time>2022-03-26T13:13:02Z</time>
      </trkpt>
      <trkpt lat="46.11579" lon="5.3253">
        <ele>279.4</ele>
        <time>2022-03-26T13:13:06Z</time>
      </trkpt>
      <trkpt lat="46.11558" lon="5.32531">
        <ele>279.6</ele>
        <time>2022-03-26T13:13:09Z</time>
      </trkpt>
      <trkpt lat="46.11512" lon="5.32541">
        <ele>280.2</ele>
        <time>2022-03-26T13:13:16Z</time>
      </trkpt>
      <trkpt lat="46.11465" lon="5.32554">
        <ele>280.4</ele>
        <time>2022-03-26T13:13:24Z</time>
      </trkpt>
      <trkpt lat="46.11416" lon="5.32561">
        <ele>281.6</ele>
        <time>2022-03-26T13:13:32Z</time>
      </trkpt>
      <trkpt lat="46.11369" lon="5.32576">
        <ele>282.6</ele>
        <time>2022-03-26T13:13:40Z</time>
      </trkpt>
      <trkpt lat="46.11359" lon="5.3258">
        <ele>283</ele>
        <time>2022-03-26T13:13:42Z</time>
      </trkpt>
      <trkpt lat="46.11325" lon="5.3259">
        <ele>283.8</ele>
        <time>2022-03-26T13:13:48Z</time>
      </trkpt>
      <trkpt lat="46.1132" lon="5.32592">
        <ele>283.8</ele>
        <time>2022-03-26T13:13:49Z</time>
      </trkpt>
      <trkpt lat="46.11314" lon="5.32594">
        <ele>283.8</ele>
        <time>2022-03-26T13:13:50Z</time>
      </trkpt>
      <trkpt lat="46.11278" lon="5.32601">
        <ele>284.6</ele>
        <time>2022-03-26T13:13:56Z</time>
      </trkpt>
      <trkpt lat="46.11267" lon="5.32603">
        <ele>284.8</ele>
        <time>2022-03-26T13:13:58Z</time>
      </trkpt>
      <trkpt lat="46.11238" lon="5.32612">
        <ele>285.8</ele>
        <time>2022-03-26T13:14:03Z</time>
      </trkpt>
      <trkpt lat="46.11222" lon="5.32619">
        <ele>286</ele>
        <time>2022-03-26T13:14:06Z</time>
      </trkpt>
      <trkpt lat="46.11197" lon="5.32625">
        <ele>287</ele>
        <time>2022-03-26T13:14:11Z</time>
      </trkpt>
      <trkpt lat="46.11192" lon="5.32626">
        <ele>287.2</ele>
        <time>2022-03-26T13:14:12Z</time>
      </trkpt>
      <trkpt lat="46.11167" lon="5.32627">
        <ele>288.2</ele>
        <time>2022-03-26T13:14:17Z</time>
      </trkpt>
      <trkpt lat="46.11152" lon="5.32627">
        <ele>289</ele>
        <time>2022-03-26T13:14:20Z</time>
      </trkpt>
      <trkpt lat="46.11142" lon="5.32627">
        <ele>289.4</ele>
        <time>2022-03-26T13:14:22Z</time>
      </trkpt>
      <trkpt lat="46.11102" lon="5.32623">
        <ele>290</ele>
        <time>2022-03-26T13:14:29Z</time>
      </trkpt>
      <trkpt lat="46.11042" lon="5.32621">
        <ele>290.2</ele>
        <time>2022-03-26T13:14:39Z</time>
      </trkpt>
      <trkpt lat="46.11013" lon="5.32625">
        <ele>290.4</ele>
        <time>2022-03-26T13:14:44Z</time>
      </trkpt>
      <trkpt lat="46.10984" lon="5.32632">
        <ele>290.8</ele>
        <time>2022-03-26T13:14:49Z</time>
      </trkpt>
      <trkpt lat="46.10951" lon="5.3264">
        <ele>291.6</ele>
        <time>2022-03-26T13:14:55Z</time>
      </trkpt>
      <trkpt lat="46.10936" lon="5.32643">
        <ele>292.2</ele>
        <time>2022-03-26T13:14:58Z</time>
      </trkpt>
      <trkpt lat="46.10926" lon="5.32646">
        <ele>292.6</ele>
        <time>2022-03-26T13:15:00Z</time>
      </trkpt>
      <trkpt lat="46.10919" lon="5.32655">
        <ele>292.8</ele>
        <time>2022-03-26T13:15:02Z</time>
      </trkpt>
      <trkpt lat="46.10917" lon="5.32668">
        <ele>293.2</ele>
        <time>2022-03-26T13:15:04Z</time>
      </trkpt>
      <trkpt lat="46.10917" lon="5.32681">
        <ele>293.6</ele>
        <time>2022-03-26T13:15:06Z</time>
      </trkpt>
      <trkpt lat="46.10917" lon="5.32687">
        <ele>294</ele>
        <time>2022-03-26T13:15:07Z</time>
      </trkpt>
      <trkpt lat="46.10915" lon="5.32709">
        <ele>294.8</ele>
        <time>2022-03-26T13:15:11Z</time>
      </trkpt>
      <trkpt lat="46.10914" lon="5.32714">
        <ele>295</ele>
        <time>2022-03-26T13:15:12Z</time>
      </trkpt>
      <trkpt lat="46.10908" lon="5.32727">
        <ele>295.6</ele>
        <time>2022-03-26T13:15:15Z</time>
      </trkpt>
      <trkpt lat="46.109" lon="5.32732">
        <ele>296</ele>
        <time>2022-03-26T13:15:17Z</time>
      </trkpt>
      <trkpt lat="46.10893" lon="5.32734">
        <ele>296.4</ele>
        <time>2022-03-26T13:15:19Z</time>
      </trkpt>
      <trkpt lat="46.10885" lon="5.32734">
        <ele>297.4</ele>
        <time>2022-03-26T13:15:21Z</time>
      </trkpt>
      <trkpt lat="46.10872" lon="5.3273">
        <ele>298.4</ele>
        <time>2022-03-26T13:15:25Z</time>
      </trkpt>
      <trkpt lat="46.10857" lon="5.32724">
        <ele>299.4</ele>
        <time>2022-03-26T13:15:30Z</time>
      </trkpt>
      <trkpt lat="46.10851" lon="5.32722">
        <ele>299.8</ele>
        <time>2022-03-26T13:15:32Z</time>
      </trkpt>
      <trkpt lat="46.10842" lon="5.32719">
        <ele>300.6</ele>
        <time>2022-03-26T13:15:35Z</time>
      </trkpt>
      <trkpt lat="46.10825" lon="5.32715">
        <ele>301.8</ele>
        <time>2022-03-26T13:15:40Z</time>
      </trkpt>
      <trkpt lat="46.10821" lon="5.32714">
        <ele>302.2</ele>
        <time>2022-03-26T13:15:41Z</time>
      </trkpt>
      <trkpt lat="46.10812" lon="5.32712">
        <ele>302.8</ele>
        <time>2022-03-26T13:15:44Z</time>
      </trkpt>
      <trkpt lat="46.1079" lon="5.32709">
        <ele>304.2</ele>
        <time>2022-03-26T13:15:51Z</time>
      </trkpt>
      <trkpt lat="46.10786" lon="5.32709">
        <ele>304.4</ele>
        <time>2022-03-26T13:15:52Z</time>
      </trkpt>
      <trkpt lat="46.10771" lon="5.32708">
        <ele>305.4</ele>
        <time>2022-03-26T13:15:57Z</time>
      </trkpt>
      <trkpt lat="46.10761" lon="5.32706">
        <ele>306.4</ele>
        <time>2022-03-26T13:16:00Z</time>
      </trkpt>
      <trkpt lat="46.10758" lon="5.32705">
        <ele>306.4</ele>
        <time>2022-03-26T13:16:01Z</time>
      </trkpt>
      <trkpt lat="46.10743" lon="5.32701">
        <ele>307.6</ele>
        <time>2022-03-26T13:16:06Z</time>
      </trkpt>
      <trkpt lat="46.10736" lon="5.327">
        <ele>308.2</ele>
        <time>2022-03-26T13:16:08Z</time>
      </trkpt>
      <trkpt lat="46.1073" lon="5.32699">
        <ele>308.6</ele>
        <time>2022-03-26T13:16:10Z</time>
      </trkpt>
      <trkpt lat="46.10714" lon="5.32699">
        <ele>309.6</ele>
        <time>2022-03-26T13:16:15Z</time>
      </trkpt>
      <trkpt lat="46.10707" lon="5.327">
        <ele>310.2</ele>
        <time>2022-03-26T13:16:17Z</time>
      </trkpt>
      <trkpt lat="46.10699" lon="5.32702">
        <ele>310.8</ele>
        <time>2022-03-26T13:16:20Z</time>
      </trkpt>
      <trkpt lat="46.10689" lon="5.32704">
        <ele>311.2</ele>
        <time>2022-03-26T13:16:23Z</time>
      </trkpt>
      <trkpt lat="46.10683" lon="5.32705">
        <ele>311.8</ele>
        <time>2022-03-26T13:16:25Z</time>
      </trkpt>
      <trkpt lat="46.10677" lon="5.32706">
        <ele>312.4</ele>
        <time>2022-03-26T13:16:27Z</time>
      </trkpt>
      <trkpt lat="46.1067" lon="5.32707">
        <ele>312.8</ele>
        <time>2022-03-26T13:16:29Z</time>
      </trkpt>
      <trkpt lat="46.10654" lon="5.32709">
        <ele>314.2</ele>
        <time>2022-03-26T13:16:34Z</time>
      </trkpt>
      <trkpt lat="46.10651" lon="5.32709">
        <ele>314.6</ele>
        <time>2022-03-26T13:16:35Z</time>
      </trkpt>
      <trkpt lat="46.10635" lon="5.32707">
        <ele>315.4</ele>
        <time>2022-03-26T13:16:40Z</time>
      </trkpt>
      <trkpt lat="46.1063" lon="5.32705">
        <ele>316.4</ele>
        <time>2022-03-26T13:16:42Z</time>
      </trkpt>
      <trkpt lat="46.10626" lon="5.32705">
        <ele>316.6</ele>
        <time>2022-03-26T13:16:43Z</time>
      </trkpt>
      <trkpt lat="46.10611" lon="5.32701">
        <ele>317.8</ele>
        <time>2022-03-26T13:16:48Z</time>
      </trkpt>
      <trkpt lat="46.10599" lon="5.32697">
        <ele>318.6</ele>
        <time>2022-03-26T13:16:52Z</time>
      </trkpt>
      <trkpt lat="46.10596" lon="5.32696">
        <ele>319</ele>
        <time>2022-03-26T13:16:53Z</time>
      </trkpt>
      <trkpt lat="46.10583" lon="5.32693">
        <ele>320</ele>
        <time>2022-03-26T13:16:57Z</time>
      </trkpt>
      <trkpt lat="46.10578" lon="5.32691">
        <ele>320.4</ele>
        <time>2022-03-26T13:16:59Z</time>
      </trkpt>
      <trkpt lat="46.10571" lon="5.32691">
        <ele>321</ele>
        <time>2022-03-26T13:17:01Z</time>
      </trkpt>
      <trkpt lat="46.10559" lon="5.3269">
        <ele>322</ele>
        <time>2022-03-26T13:17:05Z</time>
      </trkpt>
      <trkpt lat="46.10549" lon="5.32689">
        <ele>322.4</ele>
        <time>2022-03-26T13:17:08Z</time>
      </trkpt>
      <trkpt lat="46.10533" lon="5.32689">
        <ele>323.2</ele>
        <time>2022-03-26T13:17:13Z</time>
      </trkpt>
      <trkpt lat="46.1052" lon="5.32689">
        <ele>324.2</ele>
        <time>2022-03-26T13:17:17Z</time>
      </trkpt>
      <trkpt lat="46.10514" lon="5.32689">
        <ele>324.6</ele>
        <time>2022-03-26T13:17:19Z</time>
      </trkpt>
      <trkpt lat="46.10501" lon="5.32688">
        <ele>325.4</ele>
        <time>2022-03-26T13:17:23Z</time>
      </trkpt>
      <trkpt lat="46.10486" lon="5.32687">
        <ele>326.6</ele>
        <time>2022-03-26T13:17:28Z</time>
      </trkpt>
      <trkpt lat="46.1048" lon="5.32687">
        <ele>327</ele>
        <time>2022-03-26T13:17:30Z</time>
      </trkpt>
      <trkpt lat="46.1047" lon="5.32687">
        <ele>328</ele>
        <time>2022-03-26T13:17:33Z</time>
      </trkpt>
      <trkpt lat="46.10451" lon="5.32689">
        <ele>329</ele>
        <time>2022-03-26T13:17:39Z</time>
      </trkpt>
      <trkpt lat="46.10436" lon="5.32693">
        <ele>330.4</ele>
        <time>2022-03-26T13:17:44Z</time>
      </trkpt>
      <trkpt lat="46.10425" lon="5.32693">
        <ele>331.2</ele>
        <time>2022-03-26T13:17:47Z</time>
      </trkpt>
      <trkpt lat="46.10419" lon="5.32693">
        <ele>331.6</ele>
        <time>2022-03-26T13:17:49Z</time>
      </trkpt>
      <trkpt lat="46.10403" lon="5.32692">
        <ele>333</ele>
        <time>2022-03-26T13:17:54Z</time>
      </trkpt>
      <trkpt lat="46.10391" lon="5.32692">
        <ele>333.6</ele>
        <time>2022-03-26T13:17:57Z</time>
      </trkpt>
      <trkpt lat="46.10384" lon="5.32693">
        <ele>334.2</ele>
        <time>2022-03-26T13:17:59Z</time>
      </trkpt>
      <trkpt lat="46.10374" lon="5.32693">
        <ele>335</ele>
        <time>2022-03-26T13:18:02Z</time>
      </trkpt>
      <trkpt lat="46.10364" lon="5.32693">
        <ele>336.2</ele>
        <time>2022-03-26T13:18:05Z</time>
      </trkpt>
      <trkpt lat="46.1036" lon="5.32693">
        <ele>336.2</ele>
        <time>2022-03-26T13:18:06Z</time>
      </trkpt>
      <trkpt lat="46.10342" lon="5.32689">
        <ele>337.6</ele>
        <time>2022-03-26T13:18:12Z</time>
      </trkpt>
      <trkpt lat="46.10339" lon="5.32689">
        <ele>337.8</ele>
        <time>2022-03-26T13:18:13Z</time>
      </trkpt>
      <trkpt lat="46.10327" lon="5.32688">
        <ele>338.6</ele>
        <time>2022-03-26T13:18:17Z</time>
      </trkpt>
      <trkpt lat="46.10311" lon="5.32686">
        <ele>339.6</ele>
        <time>2022-03-26T13:18:22Z</time>
      </trkpt>
      <trkpt lat="46.10308" lon="5.32686">
        <ele>339.8</ele>
        <time>2022-03-26T13:18:23Z</time>
      </trkpt>
      <trkpt lat="46.1029" lon="5.32686">
        <ele>341</ele>
        <time>2022-03-26T13:18:29Z</time>
      </trkpt>
      <trkpt lat="46.10287" lon="5.32686">
        <ele>341.4</ele>
        <time>2022-03-26T13:18:30Z</time>
      </trkpt>
      <trkpt lat="46.10277" lon="5.32686">
        <ele>342.2</ele>
        <time>2022-03-26T13:18:33Z</time>
      </trkpt>
      <trkpt lat="46.10257" lon="5.32686">
        <ele>343.2</ele>
        <time>2022-03-26T13:18:39Z</time>
      </trkpt>
      <trkpt lat="46.10251" lon="5.32686">
        <ele>343.8</ele>
        <time>2022-03-26T13:18:41Z</time>
      </trkpt>
      <trkpt lat="46.10241" lon="5.32688">
        <ele>344.6</ele>
        <time>2022-03-26T13:18:44Z</time>
      </trkpt>
      <trkpt lat="46.10226" lon="5.3269">
        <ele>345.4</ele>
        <time>2022-03-26T13:18:48Z</time>
      </trkpt>
      <trkpt lat="46.10219" lon="5.32691">
        <ele>345.8</ele>
        <time>2022-03-26T13:18:50Z</time>
      </trkpt>
      <trkpt lat="46.10208" lon="5.32693">
        <ele>347</ele>
        <time>2022-03-26T13:18:53Z</time>
      </trkpt>
      <trkpt lat="46.102" lon="5.32693">
        <ele>347.4</ele>
        <time>2022-03-26T13:18:55Z</time>
      </trkpt>
      <trkpt lat="46.10189" lon="5.32694">
        <ele>348</ele>
        <time>2022-03-26T13:18:58Z</time>
      </trkpt>
      <trkpt lat="46.10178" lon="5.32696">
        <ele>349</ele>
        <time>2022-03-26T13:19:01Z</time>
      </trkpt>
      <trkpt lat="46.10171" lon="5.32697">
        <ele>349.4</ele>
        <time>2022-03-26T13:19:03Z</time>
      </trkpt>
      <trkpt lat="46.10165" lon="5.32698">
        <ele>350.4</ele>
        <time>2022-03-26T13:19:05Z</time>
      </trkpt>
      <trkpt lat="46.10148" lon="5.327">
        <ele>351.6</ele>
        <time>2022-03-26T13:19:10Z</time>
      </trkpt>
      <trkpt lat="46.10144" lon="5.327">
        <ele>351.6</ele>
        <time>2022-03-26T13:19:11Z</time>
      </trkpt>
      <trkpt lat="46.10131" lon="5.32702">
        <ele>352.6</ele>
        <time>2022-03-26T13:19:15Z</time>
      </trkpt>
      <trkpt lat="46.10114" lon="5.32704">
        <ele>353.8</ele>
        <time>2022-03-26T13:19:20Z</time>
      </trkpt>
      <trkpt lat="46.10107" lon="5.32705">
        <ele>354.2</ele>
        <time>2022-03-26T13:19:22Z</time>
      </trkpt>
      <trkpt lat="46.10097" lon="5.32707">
        <ele>354.8</ele>
        <time>2022-03-26T13:19:25Z</time>
      </trkpt>
      <trkpt lat="46.10082" lon="5.32709">
        <ele>356</ele>
        <time>2022-03-26T13:19:30Z</time>
      </trkpt>
      <trkpt lat="46.10078" lon="5.3271">
        <ele>356.2</ele>
        <time>2022-03-26T13:19:31Z</time>
      </trkpt>
      <trkpt lat="46.10068" lon="5.32713">
        <ele>357</ele>
        <time>2022-03-26T13:19:34Z</time>
      </trkpt>
      <trkpt lat="46.10055" lon="5.32715">
        <ele>358</ele>
        <time>2022-03-26T13:19:38Z</time>
      </trkpt>
      <trkpt lat="46.10048" lon="5.32716">
        <ele>358.4</ele>
        <time>2022-03-26T13:19:40Z</time>
      </trkpt>
      <trkpt lat="46.10038" lon="5.32718">
        <ele>359</ele>
        <time>2022-03-26T13:19:43Z</time>
      </trkpt>
      <trkpt lat="46.10024" lon="5.32721">
        <ele>360.2</ele>
        <time>2022-03-26T13:19:47Z</time>
      </trkpt>
      <trkpt lat="46.10017" lon="5.32723">
        <ele>360.8</ele>
        <time>2022-03-26T13:19:49Z</time>
      </trkpt>
      <trkpt lat="46.10007" lon="5.32725">
        <ele>361.4</ele>
        <time>2022-03-26T13:19:52Z</time>
      </trkpt>
      <trkpt lat="46.09993" lon="5.3273">
        <ele>362.6</ele>
        <time>2022-03-26T13:19:56Z</time>
      </trkpt>
      <trkpt lat="46.09987" lon="5.32733">
        <ele>362.8</ele>
        <time>2022-03-26T13:19:58Z</time>
      </trkpt>
      <trkpt lat="46.09978" lon="5.32741">
        <ele>363.8</ele>
        <time>2022-03-26T13:20:01Z</time>
      </trkpt>
      <trkpt lat="46.09971" lon="5.32754">
        <ele>364.6</ele>
        <time>2022-03-26T13:20:04Z</time>
      </trkpt>
      <trkpt lat="46.09968" lon="5.32758">
        <ele>364.8</ele>
        <time>2022-03-26T13:20:05Z</time>
      </trkpt>
      <trkpt lat="46.09961" lon="5.32777">
        <ele>365.8</ele>
        <time>2022-03-26T13:20:09Z</time>
      </trkpt>
      <trkpt lat="46.0996" lon="5.32783">
        <ele>366</ele>
        <time>2022-03-26T13:20:10Z</time>
      </trkpt>
      <trkpt lat="46.09955" lon="5.32812">
        <ele>366.2</ele>
        <time>2022-03-26T13:20:15Z</time>
      </trkpt>
      <trkpt lat="46.09953" lon="5.32818">
        <ele>366.4</ele>
        <time>2022-03-26T13:20:16Z</time>
      </trkpt>
      <trkpt lat="46.09951" lon="5.32825">
        <ele>366.2</ele>
        <time>2022-03-26T13:20:17Z</time>
      </trkpt>
      <trkpt lat="46.09943" lon="5.3284">
        <ele>366.2</ele>
        <time>2022-03-26T13:20:19Z</time>
      </trkpt>
      <trkpt lat="46.09916" lon="5.3287">
        <ele>365</ele>
        <time>2022-03-26T13:20:23Z</time>
      </trkpt>
      <trkpt lat="46.09909" lon="5.32878">
        <ele>364.2</ele>
        <time>2022-03-26T13:20:24Z</time>
      </trkpt>
      <trkpt lat="46.09902" lon="5.32887">
        <ele>363.4</ele>
        <time>2022-03-26T13:20:25Z</time>
      </trkpt>
      <trkpt lat="46.09895" lon="5.32897">
        <ele>363</ele>
        <time>2022-03-26T13:20:26Z</time>
      </trkpt>
      <trkpt lat="46.09881" lon="5.32921">
        <ele>361.8</ele>
        <time>2022-03-26T13:20:28Z</time>
      </trkpt>
      <trkpt lat="46.09874" lon="5.32933">
        <ele>360.6</ele>
        <time>2022-03-26T13:20:29Z</time>
      </trkpt>
      <trkpt lat="46.09858" lon="5.32957">
        <ele>358.6</ele>
        <time>2022-03-26T13:20:31Z</time>
      </trkpt>
      <trkpt lat="46.09849" lon="5.3297">
        <ele>357.4</ele>
        <time>2022-03-26T13:20:32Z</time>
      </trkpt>
      <trkpt lat="46.0984" lon="5.32983">
        <ele>357.2</ele>
        <time>2022-03-26T13:20:33Z</time>
      </trkpt>
      <trkpt lat="46.09831" lon="5.32997">
        <ele>356.4</ele>
        <time>2022-03-26T13:20:34Z</time>
      </trkpt>
      <trkpt lat="46.09812" lon="5.33025">
        <ele>354.4</ele>
        <time>2022-03-26T13:20:36Z</time>
      </trkpt>
      <trkpt lat="46.09802" lon="5.33039">
        <ele>353.8</ele>
        <time>2022-03-26T13:20:37Z</time>
      </trkpt>
      <trkpt lat="46.09793" lon="5.33053">
        <ele>352</ele>
        <time>2022-03-26T13:20:38Z</time>
      </trkpt>
      <trkpt lat="46.0977" lon="5.3308">
        <ele>350.2</ele>
        <time>2022-03-26T13:20:40Z</time>
      </trkpt>
      <trkpt lat="46.09757" lon="5.33091">
        <ele>348.4</ele>
        <time>2022-03-26T13:20:41Z</time>
      </trkpt>
      <trkpt lat="46.09729" lon="5.3311">
        <ele>345.8</ele>
        <time>2022-03-26T13:20:43Z</time>
      </trkpt>
      <trkpt lat="46.09699" lon="5.33128">
        <ele>342.2</ele>
        <time>2022-03-26T13:20:45Z</time>
      </trkpt>
      <trkpt lat="46.09685" lon="5.33138">
        <ele>339</ele>
        <time>2022-03-26T13:20:46Z</time>
      </trkpt>
      <trkpt lat="46.09671" lon="5.33149">
        <ele>337.6</ele>
        <time>2022-03-26T13:20:47Z</time>
      </trkpt>
      <trkpt lat="46.09656" lon="5.33164">
        <ele>336.2</ele>
        <time>2022-03-26T13:20:48Z</time>
      </trkpt>
      <trkpt lat="46.09632" lon="5.33191">
        <ele>335</ele>
        <time>2022-03-26T13:20:50Z</time>
      </trkpt>
      <trkpt lat="46.09623" lon="5.33202">
        <ele>334</ele>
        <time>2022-03-26T13:20:51Z</time>
      </trkpt>
      <trkpt lat="46.0961" lon="5.33219">
        <ele>332.8</ele>
        <time>2022-03-26T13:20:52Z</time>
      </trkpt>
      <trkpt lat="46.09585" lon="5.33259">
        <ele>331.2</ele>
        <time>2022-03-26T13:20:55Z</time>
      </trkpt>
      <trkpt lat="46.09561" lon="5.33307">
        <ele>330</ele>
        <time>2022-03-26T13:20:58Z</time>
      </trkpt>
      <trkpt lat="46.09554" lon="5.3332">
        <ele>328.6</ele>
        <time>2022-03-26T13:20:59Z</time>
      </trkpt>
      <trkpt lat="46.0954" lon="5.33344">
        <ele>327</ele>
        <time>2022-03-26T13:21:01Z</time>
      </trkpt>
      <trkpt lat="46.0953" lon="5.33365">
        <ele>326.4</ele>
        <time>2022-03-26T13:21:03Z</time>
      </trkpt>
      <trkpt lat="46.09526" lon="5.33374">
        <ele>326</ele>
        <time>2022-03-26T13:21:04Z</time>
      </trkpt>
      <trkpt lat="46.09515" lon="5.33398">
        <ele>325.6</ele>
        <time>2022-03-26T13:21:07Z</time>
      </trkpt>
      <trkpt lat="46.09497" lon="5.33436">
        <ele>324.8</ele>
        <time>2022-03-26T13:21:11Z</time>
      </trkpt>
      <trkpt lat="46.09492" lon="5.33446">
        <ele>324.4</ele>
        <time>2022-03-26T13:21:12Z</time>
      </trkpt>
      <trkpt lat="46.09482" lon="5.33465">
        <ele>323.6</ele>
        <time>2022-03-26T13:21:14Z</time>
      </trkpt>
      <trkpt lat="46.0947" lon="5.33493">
        <ele>321.8</ele>
        <time>2022-03-26T13:21:16Z</time>
      </trkpt>
      <trkpt lat="46.09467" lon="5.33508">
        <ele>321.2</ele>
        <time>2022-03-26T13:21:17Z</time>
      </trkpt>
      <trkpt lat="46.09464" lon="5.33523">
        <ele>320.6</ele>
        <time>2022-03-26T13:21:18Z</time>
      </trkpt>
      <trkpt lat="46.09459" lon="5.33553">
        <ele>318.8</ele>
        <time>2022-03-26T13:21:20Z</time>
      </trkpt>
      <trkpt lat="46.09456" lon="5.33568">
        <ele>318.2</ele>
        <time>2022-03-26T13:21:21Z</time>
      </trkpt>
      <trkpt lat="46.09451" lon="5.33582">
        <ele>317.4</ele>
        <time>2022-03-26T13:21:22Z</time>
      </trkpt>
      <trkpt lat="46.09439" lon="5.33609">
        <ele>316.2</ele>
        <time>2022-03-26T13:21:24Z</time>
      </trkpt>
      <trkpt lat="46.09434" lon="5.33623">
        <ele>315.4</ele>
        <time>2022-03-26T13:21:25Z</time>
      </trkpt>
      <trkpt lat="46.0943" lon="5.33634">
        <ele>315</ele>
        <time>2022-03-26T13:21:26Z</time>
      </trkpt>
      <trkpt lat="46.09428" lon="5.33665">
        <ele>314.2</ele>
        <time>2022-03-26T13:21:28Z</time>
      </trkpt>
      <trkpt lat="46.09431" lon="5.33679">
        <ele>313.8</ele>
        <time>2022-03-26T13:21:29Z</time>
      </trkpt>
      <trkpt lat="46.09441" lon="5.33721">
        <ele>313.2</ele>
        <time>2022-03-26T13:21:32Z</time>
      </trkpt>
      <trkpt lat="46.09457" lon="5.33794">
        <ele>312.8</ele>
        <time>2022-03-26T13:21:37Z</time>
      </trkpt>
      <trkpt lat="46.0946" lon="5.33809">
        <ele>312.4</ele>
        <time>2022-03-26T13:21:38Z</time>
      </trkpt>
      <trkpt lat="46.09471" lon="5.33852">
        <ele>311.6</ele>
        <time>2022-03-26T13:21:41Z</time>
      </trkpt>
      <trkpt lat="46.0949" lon="5.33917">
        <ele>311.4</ele>
        <time>2022-03-26T13:21:46Z</time>
      </trkpt>
      <trkpt lat="46.09513" lon="5.33975">
        <ele>311.4</ele>
        <time>2022-03-26T13:21:51Z</time>
      </trkpt>
      <trkpt lat="46.09531" lon="5.34023">
        <ele>312</ele>
        <time>2022-03-26T13:21:56Z</time>
      </trkpt>
      <trkpt lat="46.0955" lon="5.3407">
        <ele>313.4</ele>
        <time>2022-03-26T13:22:02Z</time>
      </trkpt>
      <trkpt lat="46.09553" lon="5.34077">
        <ele>313.6</ele>
        <time>2022-03-26T13:22:03Z</time>
      </trkpt>
      <trkpt lat="46.09562" lon="5.34103">
        <ele>314.4</ele>
        <time>2022-03-26T13:22:06Z</time>
      </trkpt>
      <trkpt lat="46.09565" lon="5.34111">
        <ele>314.8</ele>
        <time>2022-03-26T13:22:07Z</time>
      </trkpt>
      <trkpt lat="46.09568" lon="5.3412">
        <ele>315</ele>
        <time>2022-03-26T13:22:08Z</time>
      </trkpt>
      <trkpt lat="46.09578" lon="5.34146">
        <ele>315.4</ele>
        <time>2022-03-26T13:22:11Z</time>
      </trkpt>
      <trkpt lat="46.09593" lon="5.34188">
        <ele>315.8</ele>
        <time>2022-03-26T13:22:16Z</time>
      </trkpt>
      <trkpt lat="46.09614" lon="5.34253">
        <ele>316</ele>
        <time>2022-03-26T13:22:24Z</time>
      </trkpt>
      <trkpt lat="46.0962" lon="5.34301">
        <ele>316.8</ele>
        <time>2022-03-26T13:22:30Z</time>
      </trkpt>
      <trkpt lat="46.0962" lon="5.3431">
        <ele>317</ele>
        <time>2022-03-26T13:22:31Z</time>
      </trkpt>
      <trkpt lat="46.0962" lon="5.34346">
        <ele>317.2</ele>
        <time>2022-03-26T13:22:35Z</time>
      </trkpt>
      <trkpt lat="46.0962" lon="5.34366">
        <ele>317.4</ele>
        <time>2022-03-26T13:22:37Z</time>
      </trkpt>
      <trkpt lat="46.0962" lon="5.34386">
        <ele>317.2</ele>
        <time>2022-03-26T13:22:39Z</time>
      </trkpt>
      <trkpt lat="46.09619" lon="5.34406">
        <ele>317</ele>
        <time>2022-03-26T13:22:41Z</time>
      </trkpt>
      <trkpt lat="46.09617" lon="5.3447">
        <ele>316.6</ele>
        <time>2022-03-26T13:22:47Z</time>
      </trkpt>
      <trkpt lat="46.09617" lon="5.34502">
        <ele>315.6</ele>
        <time>2022-03-26T13:22:50Z</time>
      </trkpt>
      <trkpt lat="46.09619" lon="5.34535">
        <ele>315</ele>
        <time>2022-03-26T13:22:53Z</time>
      </trkpt>
      <trkpt lat="46.0963" lon="5.34574">
        <ele>314.8</ele>
        <time>2022-03-26T13:22:57Z</time>
      </trkpt>
      <trkpt lat="46.09634" lon="5.34582">
        <ele>314.6</ele>
        <time>2022-03-26T13:22:58Z</time>
      </trkpt>
      <trkpt lat="46.09638" lon="5.34589">
        <ele>314.6</ele>
        <time>2022-03-26T13:22:59Z</time>
      </trkpt>
      <trkpt lat="46.09649" lon="5.34601">
        <ele>314.6</ele>
        <time>2022-03-26T13:23:01Z</time>
      </trkpt>
      <trkpt lat="46.09675" lon="5.34626">
        <ele>315.2</ele>
        <time>2022-03-26T13:23:06Z</time>
      </trkpt>
      <trkpt lat="46.09685" lon="5.34635">
        <ele>315.6</ele>
        <time>2022-03-26T13:23:08Z</time>
      </trkpt>
      <trkpt lat="46.0969" lon="5.34641">
        <ele>315.8</ele>
        <time>2022-03-26T13:23:09Z</time>
      </trkpt>
      <trkpt lat="46.09692" lon="5.34649">
        <ele>316.2</ele>
        <time>2022-03-26T13:23:10Z</time>
      </trkpt>
      <trkpt lat="46.09699" lon="5.34681">
        <ele>317.2</ele>
        <time>2022-03-26T13:23:14Z</time>
      </trkpt>
      <trkpt lat="46.09702" lon="5.34696">
        <ele>317.4</ele>
        <time>2022-03-26T13:23:16Z</time>
      </trkpt>
      <trkpt lat="46.09709" lon="5.34726">
        <ele>318.2</ele>
        <time>2022-03-26T13:23:20Z</time>
      </trkpt>
      <trkpt lat="46.09711" lon="5.34734">
        <ele>318.4</ele>
        <time>2022-03-26T13:23:21Z</time>
      </trkpt>
      <trkpt lat="46.09713" lon="5.34741">
        <ele>318.4</ele>
        <time>2022-03-26T13:23:22Z</time>
      </trkpt>
      <trkpt lat="46.09722" lon="5.34783">
        <ele>318.6</ele>
        <time>2022-03-26T13:23:27Z</time>
      </trkpt>
      <trkpt lat="46.09723" lon="5.34793">
        <ele>318.6</ele>
        <time>2022-03-26T13:23:28Z</time>
      </trkpt>
      <trkpt lat="46.09723" lon="5.34803">
        <ele>318.6</ele>
        <time>2022-03-26T13:23:29Z</time>
      </trkpt>
      <trkpt lat="46.09717" lon="5.34823">
        <ele>318.4</ele>
        <time>2022-03-26T13:23:31Z</time>
      </trkpt>
      <trkpt lat="46.09706" lon="5.34842">
        <ele>317.2</ele>
        <time>2022-03-26T13:23:33Z</time>
      </trkpt>
      <trkpt lat="46.09694" lon="5.34863">
        <ele>316.4</ele>
        <time>2022-03-26T13:23:35Z</time>
      </trkpt>
      <trkpt lat="46.09689" lon="5.34875">
        <ele>316</ele>
        <time>2022-03-26T13:23:36Z</time>
      </trkpt>
      <trkpt lat="46.09672" lon="5.34911">
        <ele>313.8</ele>
        <time>2022-03-26T13:23:39Z</time>
      </trkpt>
      <trkpt lat="46.09668" lon="5.34925">
        <ele>312.4</ele>
        <time>2022-03-26T13:23:40Z</time>
      </trkpt>
      <trkpt lat="46.09666" lon="5.34939">
        <ele>312.2</ele>
        <time>2022-03-26T13:23:41Z</time>
      </trkpt>
      <trkpt lat="46.09663" lon="5.34967">
        <ele>311.4</ele>
        <time>2022-03-26T13:23:43Z</time>
      </trkpt>
      <trkpt lat="46.09663" lon="5.34981">
        <ele>311</ele>
        <time>2022-03-26T13:23:44Z</time>
      </trkpt>
      <trkpt lat="46.09662" lon="5.35023">
        <ele>310.4</ele>
        <time>2022-03-26T13:23:47Z</time>
      </trkpt>
      <trkpt lat="46.09662" lon="5.35073">
        <ele>310</ele>
        <time>2022-03-26T13:23:51Z</time>
      </trkpt>
      <trkpt lat="46.09662" lon="5.35095">
        <ele>310.2</ele>
        <time>2022-03-26T13:23:53Z</time>
      </trkpt>
      <trkpt lat="46.09665" lon="5.35116">
        <ele>310.8</ele>
        <time>2022-03-26T13:23:55Z</time>
      </trkpt>
      <trkpt lat="46.09673" lon="5.35145">
        <ele>311.6</ele>
        <time>2022-03-26T13:23:58Z</time>
      </trkpt>
      <trkpt lat="46.09681" lon="5.35174">
        <ele>312.6</ele>
        <time>2022-03-26T13:24:01Z</time>
      </trkpt>
      <trkpt lat="46.09683" lon="5.35184">
        <ele>312.8</ele>
        <time>2022-03-26T13:24:02Z</time>
      </trkpt>
      <trkpt lat="46.09684" lon="5.35194">
        <ele>312.8</ele>
        <time>2022-03-26T13:24:03Z</time>
      </trkpt>
      <trkpt lat="46.09683" lon="5.35205">
        <ele>312.8</ele>
        <time>2022-03-26T13:24:04Z</time>
      </trkpt>
      <trkpt lat="46.09672" lon="5.35266">
        <ele>312.8</ele>
        <time>2022-03-26T13:24:10Z</time>
      </trkpt>
      <trkpt lat="46.09668" lon="5.35336">
        <ele>313.4</ele>
        <time>2022-03-26T13:24:17Z</time>
      </trkpt>
      <trkpt lat="46.09676" lon="5.35397">
        <ele>313.4</ele>
        <time>2022-03-26T13:24:23Z</time>
      </trkpt>
      <trkpt lat="46.09679" lon="5.35407">
        <ele>313.4</ele>
        <time>2022-03-26T13:24:24Z</time>
      </trkpt>
      <trkpt lat="46.09684" lon="5.35416">
        <ele>313.4</ele>
        <time>2022-03-26T13:24:25Z</time>
      </trkpt>
      <trkpt lat="46.09693" lon="5.35435">
        <ele>313.4</ele>
        <time>2022-03-26T13:24:27Z</time>
      </trkpt>
      <trkpt lat="46.09696" lon="5.35445">
        <ele>313.2</ele>
        <time>2022-03-26T13:24:28Z</time>
      </trkpt>
      <trkpt lat="46.09699" lon="5.35456">
        <ele>313.2</ele>
        <time>2022-03-26T13:24:29Z</time>
      </trkpt>
      <trkpt lat="46.09701" lon="5.35478">
        <ele>313</ele>
        <time>2022-03-26T13:24:31Z</time>
      </trkpt>
      <trkpt lat="46.09692" lon="5.35501">
        <ele>312.6</ele>
        <time>2022-03-26T13:24:33Z</time>
      </trkpt>
      <trkpt lat="46.09687" lon="5.35508">
        <ele>312.4</ele>
        <time>2022-03-26T13:24:34Z</time>
      </trkpt>
      <trkpt lat="46.09681" lon="5.35516">
        <ele>312.2</ele>
        <time>2022-03-26T13:24:35Z</time>
      </trkpt>
      <trkpt lat="46.09665" lon="5.35529">
        <ele>311.6</ele>
        <time>2022-03-26T13:24:37Z</time>
      </trkpt>
      <trkpt lat="46.09656" lon="5.35536">
        <ele>311.2</ele>
        <time>2022-03-26T13:24:38Z</time>
      </trkpt>
      <trkpt lat="46.09638" lon="5.35546">
        <ele>310.2</ele>
        <time>2022-03-26T13:24:40Z</time>
      </trkpt>
      <trkpt lat="46.09619" lon="5.35557">
        <ele>309.2</ele>
        <time>2022-03-26T13:24:42Z</time>
      </trkpt>
      <trkpt lat="46.09609" lon="5.35563">
        <ele>308.8</ele>
        <time>2022-03-26T13:24:43Z</time>
      </trkpt>
      <trkpt lat="46.09599" lon="5.35568">
        <ele>308.2</ele>
        <time>2022-03-26T13:24:44Z</time>
      </trkpt>
      <trkpt lat="46.09588" lon="5.35571">
        <ele>308</ele>
        <time>2022-03-26T13:24:45Z</time>
      </trkpt>
      <trkpt lat="46.09576" lon="5.35572">
        <ele>307.2</ele>
        <time>2022-03-26T13:24:46Z</time>
      </trkpt>
      <trkpt lat="46.09565" lon="5.35574">
        <ele>306.6</ele>
        <time>2022-03-26T13:24:47Z</time>
      </trkpt>
      <trkpt lat="46.09543" lon="5.35584">
        <ele>305.6</ele>
        <time>2022-03-26T13:24:49Z</time>
      </trkpt>
      <trkpt lat="46.09522" lon="5.35594">
        <ele>304</ele>
        <time>2022-03-26T13:24:51Z</time>
      </trkpt>
      <trkpt lat="46.09512" lon="5.35597">
        <ele>303.2</ele>
        <time>2022-03-26T13:24:52Z</time>
      </trkpt>
      <trkpt lat="46.09503" lon="5.356">
        <ele>302.2</ele>
        <time>2022-03-26T13:24:53Z</time>
      </trkpt>
      <trkpt lat="46.09496" lon="5.35606">
        <ele>301.2</ele>
        <time>2022-03-26T13:24:54Z</time>
      </trkpt>
      <trkpt lat="46.09489" lon="5.35613">
        <ele>301</ele>
        <time>2022-03-26T13:24:55Z</time>
      </trkpt>
      <trkpt lat="46.09472" lon="5.35625">
        <ele>299.4</ele>
        <time>2022-03-26T13:24:57Z</time>
      </trkpt>
      <trkpt lat="46.09463" lon="5.35629">
        <ele>298.2</ele>
        <time>2022-03-26T13:24:58Z</time>
      </trkpt>
      <trkpt lat="46.09438" lon="5.35633">
        <ele>297</ele>
        <time>2022-03-26T13:25:00Z</time>
      </trkpt>
      <trkpt lat="46.09426" lon="5.35633">
        <ele>296</ele>
        <time>2022-03-26T13:25:01Z</time>
      </trkpt>
      <trkpt lat="46.09415" lon="5.35633">
        <ele>295.2</ele>
        <time>2022-03-26T13:25:02Z</time>
      </trkpt>
      <trkpt lat="46.09404" lon="5.35633">
        <ele>293.2</ele>
        <time>2022-03-26T13:25:03Z</time>
      </trkpt>
      <trkpt lat="46.09393" lon="5.35632">
        <ele>292.2</ele>
        <time>2022-03-26T13:25:04Z</time>
      </trkpt>
      <trkpt lat="46.09379" lon="5.35632">
        <ele>290.8</ele>
        <time>2022-03-26T13:25:05Z</time>
      </trkpt>
      <trkpt lat="46.09366" lon="5.35633">
        <ele>290</ele>
        <time>2022-03-26T13:25:06Z</time>
      </trkpt>
      <trkpt lat="46.09356" lon="5.35637">
        <ele>287.4</ele>
        <time>2022-03-26T13:25:07Z</time>
      </trkpt>
      <trkpt lat="46.09343" lon="5.35645">
        <ele>285.8</ele>
        <time>2022-03-26T13:25:08Z</time>
      </trkpt>
      <trkpt lat="46.09335" lon="5.35653">
        <ele>284.6</ele>
        <time>2022-03-26T13:25:09Z</time>
      </trkpt>
      <trkpt lat="46.09329" lon="5.35661">
        <ele>283.4</ele>
        <time>2022-03-26T13:25:10Z</time>
      </trkpt>
      <trkpt lat="46.09322" lon="5.35673">
        <ele>282.8</ele>
        <time>2022-03-26T13:25:11Z</time>
      </trkpt>
      <trkpt lat="46.09315" lon="5.35685">
        <ele>280.6</ele>
        <time>2022-03-26T13:25:12Z</time>
      </trkpt>
      <trkpt lat="46.09306" lon="5.35699">
        <ele>279.4</ele>
        <time>2022-03-26T13:25:13Z</time>
      </trkpt>
      <trkpt lat="46.09298" lon="5.35705">
        <ele>277.4</ele>
        <time>2022-03-26T13:25:14Z</time>
      </trkpt>
      <trkpt lat="46.09288" lon="5.3571">
        <ele>275.4</ele>
        <time>2022-03-26T13:25:15Z</time>
      </trkpt>
      <trkpt lat="46.09264" lon="5.35703">
        <ele>273</ele>
        <time>2022-03-26T13:25:17Z</time>
      </trkpt>
      <trkpt lat="46.09245" lon="5.35697">
        <ele>271.4</ele>
        <time>2022-03-26T13:25:19Z</time>
      </trkpt>
      <trkpt lat="46.09229" lon="5.3569">
        <ele>269.8</ele>
        <time>2022-03-26T13:25:21Z</time>
      </trkpt>
      <trkpt lat="46.09218" lon="5.35684">
        <ele>269.4</ele>
        <time>2022-03-26T13:25:22Z</time>
      </trkpt>
      <trkpt lat="46.0919" lon="5.35672">
        <ele>269.2</ele>
        <time>2022-03-26T13:25:26Z</time>
      </trkpt>
      <trkpt lat="46.09182" lon="5.3567">
        <ele>269.4</ele>
        <time>2022-03-26T13:25:28Z</time>
      </trkpt>
      <trkpt lat="46.09174" lon="5.35671">
        <ele>270.8</ele>
        <time>2022-03-26T13:25:30Z</time>
      </trkpt>
      <trkpt lat="46.09163" lon="5.35671">
        <ele>272.8</ele>
        <time>2022-03-26T13:25:33Z</time>
      </trkpt>
      <trkpt lat="46.09155" lon="5.3567">
        <ele>273.8</ele>
        <time>2022-03-26T13:25:35Z</time>
      </trkpt>
      <trkpt lat="46.09148" lon="5.35669">
        <ele>275</ele>
        <time>2022-03-26T13:25:37Z</time>
      </trkpt>
      <trkpt lat="46.09138" lon="5.35668">
        <ele>276.4</ele>
        <time>2022-03-26T13:25:40Z</time>
      </trkpt>
      <trkpt lat="46.09131" lon="5.35668">
        <ele>277.4</ele>
        <time>2022-03-26T13:25:42Z</time>
      </trkpt>
      <trkpt lat="46.09128" lon="5.35667">
        <ele>277.6</ele>
        <time>2022-03-26T13:25:43Z</time>
      </trkpt>
      <trkpt lat="46.09121" lon="5.35666">
        <ele>278.6</ele>
        <time>2022-03-26T13:25:45Z</time>
      </trkpt>
      <trkpt lat="46.09114" lon="5.35666">
        <ele>279.4</ele>
        <time>2022-03-26T13:25:47Z</time>
      </trkpt>
      <trkpt lat="46.09111" lon="5.35667">
        <ele>279.8</ele>
        <time>2022-03-26T13:25:48Z</time>
      </trkpt>
      <trkpt lat="46.09109" lon="5.35668">
        <ele>280.6</ele>
        <time>2022-03-26T13:25:49Z</time>
      </trkpt>
      <trkpt lat="46.09103" lon="5.35671">
        <ele>281.4</ele>
        <time>2022-03-26T13:25:51Z</time>
      </trkpt>
      <trkpt lat="46.09095" lon="5.35676">
        <ele>282.6</ele>
        <time>2022-03-26T13:25:54Z</time>
      </trkpt>
      <trkpt lat="46.09089" lon="5.3568">
        <ele>283.6</ele>
        <time>2022-03-26T13:25:56Z</time>
      </trkpt>
      <trkpt lat="46.09086" lon="5.35683">
        <ele>283.8</ele>
        <time>2022-03-26T13:25:57Z</time>
      </trkpt>
      <trkpt lat="46.09076" lon="5.35694">
        <ele>284.8</ele>
        <time>2022-03-26T13:26:00Z</time>
      </trkpt>
      <trkpt lat="46.09073" lon="5.35698">
        <ele>285.2</ele>
        <time>2022-03-26T13:26:01Z</time>
      </trkpt>
      <trkpt lat="46.0906" lon="5.35711">
        <ele>286</ele>
        <time>2022-03-26T13:26:04Z</time>
      </trkpt>
      <trkpt lat="46.09056" lon="5.35715">
        <ele>285.8</ele>
        <time>2022-03-26T13:26:05Z</time>
      </trkpt>
      <trkpt lat="46.0905" lon="5.35722">
        <ele>286</ele>
        <time>2022-03-26T13:26:06Z</time>
      </trkpt>
      <trkpt lat="46.09022" lon="5.35754">
        <ele>286.8</ele>
        <time>2022-03-26T13:26:12Z</time>
      </trkpt>
      <trkpt lat="46.09012" lon="5.3576">
        <ele>287</ele>
        <time>2022-03-26T13:26:14Z</time>
      </trkpt>
      <trkpt lat="46.08994" lon="5.35767">
        <ele>287</ele>
        <time>2022-03-26T13:26:17Z</time>
      </trkpt>
      <trkpt lat="46.08988" lon="5.3577">
        <ele>287</ele>
        <time>2022-03-26T13:26:18Z</time>
      </trkpt>
      <trkpt lat="46.08983" lon="5.35772">
        <ele>287</ele>
        <time>2022-03-26T13:26:19Z</time>
      </trkpt>
      <trkpt lat="46.0896" lon="5.35785">
        <ele>287</ele>
        <time>2022-03-26T13:26:23Z</time>
      </trkpt>
      <trkpt lat="46.08932" lon="5.35808">
        <ele>287.2</ele>
        <time>2022-03-26T13:26:29Z</time>
      </trkpt>
      <trkpt lat="46.08919" lon="5.3582">
        <ele>288</ele>
        <time>2022-03-26T13:26:32Z</time>
      </trkpt>
      <trkpt lat="46.089" lon="5.35836">
        <ele>289.2</ele>
        <time>2022-03-26T13:26:37Z</time>
      </trkpt>
      <trkpt lat="46.08897" lon="5.35839">
        <ele>289.4</ele>
        <time>2022-03-26T13:26:38Z</time>
      </trkpt>
      <trkpt lat="46.08879" lon="5.35854">
        <ele>290.4</ele>
        <time>2022-03-26T13:26:43Z</time>
      </trkpt>
      <trkpt lat="46.08865" lon="5.35867">
        <ele>291</ele>
        <time>2022-03-26T13:26:47Z</time>
      </trkpt>
      <trkpt lat="46.08857" lon="5.35877">
        <ele>291.4</ele>
        <time>2022-03-26T13:26:50Z</time>
      </trkpt>
      <trkpt lat="46.08848" lon="5.35889">
        <ele>292.6</ele>
        <time>2022-03-26T13:26:53Z</time>
      </trkpt>
      <trkpt lat="46.08843" lon="5.35899">
        <ele>293.2</ele>
        <time>2022-03-26T13:26:55Z</time>
      </trkpt>
      <trkpt lat="46.08837" lon="5.35909">
        <ele>293.6</ele>
        <time>2022-03-26T13:26:57Z</time>
      </trkpt>
      <trkpt lat="46.08822" lon="5.35936">
        <ele>294.8</ele>
        <time>2022-03-26T13:27:03Z</time>
      </trkpt>
      <trkpt lat="46.08819" lon="5.35941">
        <ele>295</ele>
        <time>2022-03-26T13:27:04Z</time>
      </trkpt>
      <trkpt lat="46.08807" lon="5.35969">
        <ele>296</ele>
        <time>2022-03-26T13:27:09Z</time>
      </trkpt>
      <trkpt lat="46.08804" lon="5.35975">
        <ele>296.2</ele>
        <time>2022-03-26T13:27:10Z</time>
      </trkpt>
      <trkpt lat="46.08801" lon="5.35988">
        <ele>296.6</ele>
        <time>2022-03-26T13:27:12Z</time>
      </trkpt>
      <trkpt lat="46.088" lon="5.35994">
        <ele>296.6</ele>
        <time>2022-03-26T13:27:13Z</time>
      </trkpt>
      <trkpt lat="46.08799" lon="5.36007">
        <ele>297.2</ele>
        <time>2022-03-26T13:27:15Z</time>
      </trkpt>
      <trkpt lat="46.088" lon="5.36014">
        <ele>297.2</ele>
        <time>2022-03-26T13:27:16Z</time>
      </trkpt>
      <trkpt lat="46.088" lon="5.36027">
        <ele>297.6</ele>
        <time>2022-03-26T13:27:18Z</time>
      </trkpt>
      <trkpt lat="46.08798" lon="5.36041">
        <ele>298</ele>
        <time>2022-03-26T13:27:21Z</time>
      </trkpt>
      <trkpt lat="46.08796" lon="5.3605">
        <ele>298.2</ele>
        <time>2022-03-26T13:27:23Z</time>
      </trkpt>
      <trkpt lat="46.08793" lon="5.3606">
        <ele>298.8</ele>
        <time>2022-03-26T13:27:25Z</time>
      </trkpt>
      <trkpt lat="46.0879" lon="5.36068">
        <ele>299.6</ele>
        <time>2022-03-26T13:27:27Z</time>
      </trkpt>
      <trkpt lat="46.08784" lon="5.36083">
        <ele>300.4</ele>
        <time>2022-03-26T13:27:30Z</time>
      </trkpt>
      <trkpt lat="46.08781" lon="5.36095">
        <ele>300.6</ele>
        <time>2022-03-26T13:27:32Z</time>
      </trkpt>
      <trkpt lat="46.08774" lon="5.36115">
        <ele>301.8</ele>
        <time>2022-03-26T13:27:35Z</time>
      </trkpt>
      <trkpt lat="46.08752" lon="5.36156">
        <ele>302.6</ele>
        <time>2022-03-26T13:27:41Z</time>
      </trkpt>
      <trkpt lat="46.08748" lon="5.36161">
        <ele>302.8</ele>
        <time>2022-03-26T13:27:42Z</time>
      </trkpt>
      <trkpt lat="46.08736" lon="5.36179">
        <ele>302.8</ele>
        <time>2022-03-26T13:27:45Z</time>
      </trkpt>
      <trkpt lat="46.08728" lon="5.36188">
        <ele>303</ele>
        <time>2022-03-26T13:27:47Z</time>
      </trkpt>
      <trkpt lat="46.08705" lon="5.3622">
        <ele>303.6</ele>
        <time>2022-03-26T13:27:53Z</time>
      </trkpt>
      <trkpt lat="46.08701" lon="5.36227">
        <ele>304.4</ele>
        <time>2022-03-26T13:27:54Z</time>
      </trkpt>
      <trkpt lat="46.08692" lon="5.36237">
        <ele>305</ele>
        <time>2022-03-26T13:27:56Z</time>
      </trkpt>
      <trkpt lat="46.0867" lon="5.36262">
        <ele>305.4</ele>
        <time>2022-03-26T13:28:01Z</time>
      </trkpt>
      <trkpt lat="46.08665" lon="5.36268">
        <ele>305.6</ele>
        <time>2022-03-26T13:28:02Z</time>
      </trkpt>
      <trkpt lat="46.08631" lon="5.36318">
        <ele>305.4</ele>
        <time>2022-03-26T13:28:10Z</time>
      </trkpt>
      <trkpt lat="46.08598" lon="5.36368">
        <ele>305.8</ele>
        <time>2022-03-26T13:28:18Z</time>
      </trkpt>
      <trkpt lat="46.08561" lon="5.36421">
        <ele>305.8</ele>
        <time>2022-03-26T13:28:27Z</time>
      </trkpt>
      <trkpt lat="46.08557" lon="5.36426">
        <ele>306.2</ele>
        <time>2022-03-26T13:28:28Z</time>
      </trkpt>
      <trkpt lat="46.08539" lon="5.36449">
        <ele>306.4</ele>
        <time>2022-03-26T13:28:32Z</time>
      </trkpt>
      <trkpt lat="46.08531" lon="5.36462">
        <ele>306.8</ele>
        <time>2022-03-26T13:28:34Z</time>
      </trkpt>
      <trkpt lat="46.08524" lon="5.36478">
        <ele>307</ele>
        <time>2022-03-26T13:28:36Z</time>
      </trkpt>
      <trkpt lat="46.08522" lon="5.36486">
        <ele>307</ele>
        <time>2022-03-26T13:28:37Z</time>
      </trkpt>
      <trkpt lat="46.08511" lon="5.36521">
        <ele>307.6</ele>
        <time>2022-03-26T13:28:42Z</time>
      </trkpt>
      <trkpt lat="46.08507" lon="5.36534">
        <ele>308.2</ele>
        <time>2022-03-26T13:28:44Z</time>
      </trkpt>
      <trkpt lat="46.085" lon="5.3655">
        <ele>308.8</ele>
        <time>2022-03-26T13:28:47Z</time>
      </trkpt>
      <trkpt lat="46.08498" lon="5.36555">
        <ele>309</ele>
        <time>2022-03-26T13:28:48Z</time>
      </trkpt>
      <trkpt lat="46.08495" lon="5.36561">
        <ele>309.2</ele>
        <time>2022-03-26T13:28:49Z</time>
      </trkpt>
      <trkpt lat="46.08492" lon="5.36566">
        <ele>309.4</ele>
        <time>2022-03-26T13:28:50Z</time>
      </trkpt>
      <trkpt lat="46.08487" lon="5.36577">
        <ele>310</ele>
        <time>2022-03-26T13:28:52Z</time>
      </trkpt>
      <trkpt lat="46.08484" lon="5.36583">
        <ele>310.2</ele>
        <time>2022-03-26T13:28:53Z</time>
      </trkpt>
      <trkpt lat="46.08481" lon="5.3659">
        <ele>310.2</ele>
        <time>2022-03-26T13:28:54Z</time>
      </trkpt>
      <trkpt lat="46.08478" lon="5.36597">
        <ele>310.4</ele>
        <time>2022-03-26T13:28:55Z</time>
      </trkpt>
      <trkpt lat="46.08469" lon="5.3662">
        <ele>311</ele>
        <time>2022-03-26T13:28:59Z</time>
      </trkpt>
      <trkpt lat="46.08468" lon="5.36627">
        <ele>311.4</ele>
        <time>2022-03-26T13:29:00Z</time>
      </trkpt>
      <trkpt lat="46.08451" lon="5.36676">
        <ele>312.8</ele>
        <time>2022-03-26T13:29:07Z</time>
      </trkpt>
      <trkpt lat="46.08445" lon="5.36691">
        <ele>313.6</ele>
        <time>2022-03-26T13:29:09Z</time>
      </trkpt>
      <trkpt lat="46.08441" lon="5.36698">
        <ele>313.8</ele>
        <time>2022-03-26T13:29:10Z</time>
      </trkpt>
      <trkpt lat="46.08438" lon="5.36706">
        <ele>314</ele>
        <time>2022-03-26T13:29:11Z</time>
      </trkpt>
      <trkpt lat="46.08427" lon="5.36732">
        <ele>314.4</ele>
        <time>2022-03-26T13:29:15Z</time>
      </trkpt>
      <trkpt lat="46.08402" lon="5.36784">
        <ele>314.2</ele>
        <time>2022-03-26T13:29:22Z</time>
      </trkpt>
      <trkpt lat="46.08378" lon="5.36833">
        <ele>313.4</ele>
        <time>2022-03-26T13:29:27Z</time>
      </trkpt>
      <trkpt lat="46.08372" lon="5.36858">
        <ele>313</ele>
        <time>2022-03-26T13:29:29Z</time>
      </trkpt>
      <trkpt lat="46.08368" lon="5.36883">
        <ele>311.8</ele>
        <time>2022-03-26T13:29:31Z</time>
      </trkpt>
      <trkpt lat="46.08365" lon="5.36896">
        <ele>311.4</ele>
        <time>2022-03-26T13:29:32Z</time>
      </trkpt>
      <trkpt lat="46.08359" lon="5.36921">
        <ele>310.2</ele>
        <time>2022-03-26T13:29:34Z</time>
      </trkpt>
      <trkpt lat="46.08356" lon="5.36934">
        <ele>309.8</ele>
        <time>2022-03-26T13:29:35Z</time>
      </trkpt>
      <trkpt lat="46.0835" lon="5.36958">
        <ele>309.2</ele>
        <time>2022-03-26T13:29:37Z</time>
      </trkpt>
      <trkpt lat="46.08335" lon="5.37014">
        <ele>308.2</ele>
        <time>2022-03-26T13:29:42Z</time>
      </trkpt>
      <trkpt lat="46.08332" lon="5.37025">
        <ele>308</ele>
        <time>2022-03-26T13:29:43Z</time>
      </trkpt>
      <trkpt lat="46.08329" lon="5.37057">
        <ele>307.6</ele>
        <time>2022-03-26T13:29:46Z</time>
      </trkpt>
      <trkpt lat="46.08325" lon="5.37105">
        <ele>307.8</ele>
        <time>2022-03-26T13:29:52Z</time>
      </trkpt>
      <trkpt lat="46.08323" lon="5.37113">
        <ele>308</ele>
        <time>2022-03-26T13:29:54Z</time>
      </trkpt>
      <trkpt lat="46.08321" lon="5.37114">
        <ele>308</ele>
        <time>2022-03-26T13:29:55Z</time>
      </trkpt>
      <trkpt lat="46.08302" lon="5.37118">
        <ele>308.6</ele>
        <time>2022-03-26T13:29:59Z</time>
      </trkpt>
      <trkpt lat="46.08285" lon="5.37121">
        <ele>308.8</ele>
        <time>2022-03-26T13:30:02Z</time>
      </trkpt>
      <trkpt lat="46.08265" lon="5.37123">
        <ele>308.6</ele>
        <time>2022-03-26T13:30:05Z</time>
      </trkpt>
      <trkpt lat="46.0823" lon="5.37136">
        <ele>307.4</ele>
        <time>2022-03-26T13:30:10Z</time>
      </trkpt>
      <trkpt lat="46.08223" lon="5.37139">
        <ele>306.8</ele>
        <time>2022-03-26T13:30:11Z</time>
      </trkpt>
      <trkpt lat="46.08209" lon="5.37143">
        <ele>306</ele>
        <time>2022-03-26T13:30:13Z</time>
      </trkpt>
      <trkpt lat="46.082" lon="5.37143">
        <ele>305.6</ele>
        <time>2022-03-26T13:30:14Z</time>
      </trkpt>
      <trkpt lat="46.08164" lon="5.37143">
        <ele>304.6</ele>
        <time>2022-03-26T13:30:19Z</time>
      </trkpt>
      <trkpt lat="46.08156" lon="5.37146">
        <ele>304.4</ele>
        <time>2022-03-26T13:30:20Z</time>
      </trkpt>
      <trkpt lat="46.0815" lon="5.37152">
        <ele>304</ele>
        <time>2022-03-26T13:30:21Z</time>
      </trkpt>
      <trkpt lat="46.08145" lon="5.37162">
        <ele>303.8</ele>
        <time>2022-03-26T13:30:22Z</time>
      </trkpt>
      <trkpt lat="46.08143" lon="5.37174">
        <ele>303.6</ele>
        <time>2022-03-26T13:30:23Z</time>
      </trkpt>
      <trkpt lat="46.08138" lon="5.37202">
        <ele>303.2</ele>
        <time>2022-03-26T13:30:25Z</time>
      </trkpt>
      <trkpt lat="46.08132" lon="5.37219">
        <ele>302.6</ele>
        <time>2022-03-26T13:30:27Z</time>
      </trkpt>
      <trkpt lat="46.08126" lon="5.37226">
        <ele>302</ele>
        <time>2022-03-26T13:30:28Z</time>
      </trkpt>
      <trkpt lat="46.08119" lon="5.37228">
        <ele>301.6</ele>
        <time>2022-03-26T13:30:29Z</time>
      </trkpt>
      <trkpt lat="46.0811" lon="5.37228">
        <ele>300.8</ele>
        <time>2022-03-26T13:30:30Z</time>
      </trkpt>
      <trkpt lat="46.08101" lon="5.37228">
        <ele>300.4</ele>
        <time>2022-03-26T13:30:31Z</time>
      </trkpt>
      <trkpt lat="46.08092" lon="5.3723">
        <ele>299.6</ele>
        <time>2022-03-26T13:30:32Z</time>
      </trkpt>
      <trkpt lat="46.08082" lon="5.37232">
        <ele>299</ele>
        <time>2022-03-26T13:30:33Z</time>
      </trkpt>
      <trkpt lat="46.08072" lon="5.37234">
        <ele>298.2</ele>
        <time>2022-03-26T13:30:34Z</time>
      </trkpt>
      <trkpt lat="46.08061" lon="5.37236">
        <ele>297</ele>
        <time>2022-03-26T13:30:35Z</time>
      </trkpt>
      <trkpt lat="46.08039" lon="5.37238">
        <ele>295.4</ele>
        <time>2022-03-26T13:30:37Z</time>
      </trkpt>
      <trkpt lat="46.08028" lon="5.37238">
        <ele>294.8</ele>
        <time>2022-03-26T13:30:38Z</time>
      </trkpt>
      <trkpt lat="46.08015" lon="5.37235">
        <ele>293.8</ele>
        <time>2022-03-26T13:30:39Z</time>
      </trkpt>
      <trkpt lat="46.07995" lon="5.37227">
        <ele>292</ele>
        <time>2022-03-26T13:30:41Z</time>
      </trkpt>
      <trkpt lat="46.07985" lon="5.37223">
        <ele>291.2</ele>
        <time>2022-03-26T13:30:42Z</time>
      </trkpt>
      <trkpt lat="46.07975" lon="5.37218">
        <ele>291</ele>
        <time>2022-03-26T13:30:43Z</time>
      </trkpt>
      <trkpt lat="46.07945" lon="5.37207">
        <ele>289.8</ele>
        <time>2022-03-26T13:30:46Z</time>
      </trkpt>
      <trkpt lat="46.07935" lon="5.37205">
        <ele>289.6</ele>
        <time>2022-03-26T13:30:47Z</time>
      </trkpt>
      <trkpt lat="46.07925" lon="5.37205">
        <ele>289</ele>
        <time>2022-03-26T13:30:48Z</time>
      </trkpt>
      <trkpt lat="46.07916" lon="5.37207">
        <ele>288.6</ele>
        <time>2022-03-26T13:30:49Z</time>
      </trkpt>
      <trkpt lat="46.07907" lon="5.37214">
        <ele>288.4</ele>
        <time>2022-03-26T13:30:50Z</time>
      </trkpt>
      <trkpt lat="46.079" lon="5.37224">
        <ele>287.8</ele>
        <time>2022-03-26T13:30:51Z</time>
      </trkpt>
      <trkpt lat="46.07896" lon="5.37235">
        <ele>287.6</ele>
        <time>2022-03-26T13:30:52Z</time>
      </trkpt>
      <trkpt lat="46.07892" lon="5.37248">
        <ele>287.2</ele>
        <time>2022-03-26T13:30:53Z</time>
      </trkpt>
      <trkpt lat="46.07887" lon="5.37276">
        <ele>286.4</ele>
        <time>2022-03-26T13:30:55Z</time>
      </trkpt>
      <trkpt lat="46.07883" lon="5.37319">
        <ele>285.4</ele>
        <time>2022-03-26T13:30:58Z</time>
      </trkpt>
      <trkpt lat="46.07882" lon="5.37334">
        <ele>285.2</ele>
        <time>2022-03-26T13:30:59Z</time>
      </trkpt>
      <trkpt lat="46.07884" lon="5.37396">
        <ele>283.2</ele>
        <time>2022-03-26T13:31:03Z</time>
      </trkpt>
      <trkpt lat="46.07889" lon="5.37428">
        <ele>281.8</ele>
        <time>2022-03-26T13:31:05Z</time>
      </trkpt>
      <trkpt lat="46.07892" lon="5.37456">
        <ele>280.2</ele>
        <time>2022-03-26T13:31:07Z</time>
      </trkpt>
      <trkpt lat="46.07893" lon="5.37469">
        <ele>279.8</ele>
        <time>2022-03-26T13:31:08Z</time>
      </trkpt>
      <trkpt lat="46.07894" lon="5.37483">
        <ele>279</ele>
        <time>2022-03-26T13:31:09Z</time>
      </trkpt>
      <trkpt lat="46.07898" lon="5.37514">
        <ele>276.8</ele>
        <time>2022-03-26T13:31:11Z</time>
      </trkpt>
      <trkpt lat="46.07902" lon="5.37545">
        <ele>275.4</ele>
        <time>2022-03-26T13:31:13Z</time>
      </trkpt>
      <trkpt lat="46.07904" lon="5.3756">
        <ele>274.2</ele>
        <time>2022-03-26T13:31:14Z</time>
      </trkpt>
      <trkpt lat="46.07905" lon="5.37574">
        <ele>273.6</ele>
        <time>2022-03-26T13:31:15Z</time>
      </trkpt>
      <trkpt lat="46.07906" lon="5.37587">
        <ele>272.4</ele>
        <time>2022-03-26T13:31:16Z</time>
      </trkpt>
      <trkpt lat="46.07907" lon="5.37599">
        <ele>271.8</ele>
        <time>2022-03-26T13:31:17Z</time>
      </trkpt>
      <trkpt lat="46.07908" lon="5.37608">
        <ele>271</ele>
        <time>2022-03-26T13:31:18Z</time>
      </trkpt>
      <trkpt lat="46.0791" lon="5.37626">
        <ele>270</ele>
        <time>2022-03-26T13:31:20Z</time>
      </trkpt>
      <trkpt lat="46.07909" lon="5.37632">
        <ele>269.6</ele>
        <time>2022-03-26T13:31:21Z</time>
      </trkpt>
      <trkpt lat="46.07909" lon="5.3764">
        <ele>268.8</ele>
        <time>2022-03-26T13:31:24Z</time>
      </trkpt>
      <trkpt lat="46.07909" lon="5.3764">
        <ele>268.6</ele>
        <time>2022-03-26T13:31:25Z</time>
      </trkpt>
      <trkpt lat="46.07909" lon="5.37641">
        <ele>268.4</ele>
        <time>2022-03-26T13:31:26Z</time>
      </trkpt>
      <trkpt lat="46.07909" lon="5.37647">
        <ele>268.2</ele>
        <time>2022-03-26T13:31:28Z</time>
      </trkpt>
      <trkpt lat="46.0791" lon="5.37652">
        <ele>268.4</ele>
        <time>2022-03-26T13:31:29Z</time>
      </trkpt>
      <trkpt lat="46.07913" lon="5.37662">
        <ele>268.2</ele>
        <time>2022-03-26T13:31:31Z</time>
      </trkpt>
      <trkpt lat="46.07916" lon="5.37676">
        <ele>268.2</ele>
        <time>2022-03-26T13:31:33Z</time>
      </trkpt>
      <trkpt lat="46.07919" lon="5.37717">
        <ele>268.2</ele>
        <time>2022-03-26T13:31:38Z</time>
      </trkpt>
      <trkpt lat="46.07924" lon="5.37786">
        <ele>268</ele>
        <time>2022-03-26T13:31:45Z</time>
      </trkpt>
      <trkpt lat="46.07927" lon="5.37816">
        <ele>267.6</ele>
        <time>2022-03-26T13:31:48Z</time>
      </trkpt>
      <trkpt lat="46.07932" lon="5.37864">
        <ele>267</ele>
        <time>2022-03-26T13:31:53Z</time>
      </trkpt>
      <trkpt lat="46.07935" lon="5.37903">
        <ele>266.6</ele>
        <time>2022-03-26T13:31:57Z</time>
      </trkpt>
      <trkpt lat="46.0794" lon="5.37953">
        <ele>266</ele>
        <time>2022-03-26T13:32:02Z</time>
      </trkpt>
      <trkpt lat="46.07945" lon="5.38001">
        <ele>265.6</ele>
        <time>2022-03-26T13:32:07Z</time>
      </trkpt>
      <trkpt lat="46.07946" lon="5.3801">
        <ele>265.4</ele>
        <time>2022-03-26T13:32:08Z</time>
      </trkpt>
      <trkpt lat="46.07953" lon="5.38083">
        <ele>265.4</ele>
        <time>2022-03-26T13:32:16Z</time>
      </trkpt>
      <trkpt lat="46.0796" lon="5.38154">
        <ele>266.2</ele>
        <time>2022-03-26T13:32:24Z</time>
      </trkpt>
      <trkpt lat="46.07964" lon="5.38205">
        <ele>266.2</ele>
        <time>2022-03-26T13:32:30Z</time>
      </trkpt>
      <trkpt lat="46.07967" lon="5.38241">
        <ele>266.4</ele>
        <time>2022-03-26T13:32:34Z</time>
      </trkpt>
      <trkpt lat="46.07967" lon="5.38276">
        <ele>266.4</ele>
        <time>2022-03-26T13:32:38Z</time>
      </trkpt>
      <trkpt lat="46.07964" lon="5.38294">
        <ele>266.4</ele>
        <time>2022-03-26T13:32:40Z</time>
      </trkpt>
      <trkpt lat="46.07959" lon="5.38309">
        <ele>266.4</ele>
        <time>2022-03-26T13:32:42Z</time>
      </trkpt>
      <trkpt lat="46.07952" lon="5.38332">
        <ele>266.4</ele>
        <time>2022-03-26T13:32:46Z</time>
      </trkpt>
      <trkpt lat="46.07951" lon="5.38342">
        <ele>266.6</ele>
        <time>2022-03-26T13:32:50Z</time>
      </trkpt>
      <trkpt lat="46.07951" lon="5.38345">
        <ele>266.8</ele>
        <time>2022-03-26T13:32:51Z</time>
      </trkpt>
      <trkpt lat="46.07955" lon="5.38359">
        <ele>266.8</ele>
        <time>2022-03-26T13:32:55Z</time>
      </trkpt>
      <trkpt lat="46.07959" lon="5.38364">
        <ele>266.8</ele>
        <time>2022-03-26T13:32:56Z</time>
      </trkpt>
      <trkpt lat="46.07967" lon="5.38372">
        <ele>266.8</ele>
        <time>2022-03-26T13:32:58Z</time>
      </trkpt>
      <trkpt lat="46.07973" lon="5.38375">
        <ele>266.8</ele>
        <time>2022-03-26T13:32:59Z</time>
      </trkpt>
      <trkpt lat="46.07984" lon="5.38382">
        <ele>267</ele>
        <time>2022-03-26T13:33:01Z</time>
      </trkpt>
      <trkpt lat="46.08001" lon="5.38395">
        <ele>266.8</ele>
        <time>2022-03-26T13:33:04Z</time>
      </trkpt>
      <trkpt lat="46.08044" lon="5.38427">
        <ele>266.8</ele>
        <time>2022-03-26T13:33:11Z</time>
      </trkpt>
      <trkpt lat="46.0808" lon="5.38454">
        <ele>267</ele>
        <time>2022-03-26T13:33:17Z</time>
      </trkpt>
      <trkpt lat="46.0812" lon="5.3849">
        <ele>267</ele>
        <time>2022-03-26T13:33:24Z</time>
      </trkpt>
      <trkpt lat="46.08134" lon="5.38506">
        <ele>267</ele>
        <time>2022-03-26T13:33:27Z</time>
      </trkpt>
      <trkpt lat="46.08144" lon="5.38518">
        <ele>267</ele>
        <time>2022-03-26T13:33:29Z</time>
      </trkpt>
      <trkpt lat="46.08148" lon="5.38525">
        <ele>267</ele>
        <time>2022-03-26T13:33:30Z</time>
      </trkpt>
      <trkpt lat="46.08174" lon="5.38559">
        <ele>267.2</ele>
        <time>2022-03-26T13:33:35Z</time>
      </trkpt>
      <trkpt lat="46.08196" lon="5.38597">
        <ele>267.6</ele>
        <time>2022-03-26T13:33:40Z</time>
      </trkpt>
      <trkpt lat="46.082" lon="5.38605">
        <ele>267.6</ele>
        <time>2022-03-26T13:33:41Z</time>
      </trkpt>
      <trkpt lat="46.08222" lon="5.38654">
        <ele>267.4</ele>
        <time>2022-03-26T13:33:47Z</time>
      </trkpt>
      <trkpt lat="46.08236" lon="5.38688">
        <ele>267.6</ele>
        <time>2022-03-26T13:33:51Z</time>
      </trkpt>
      <trkpt lat="46.08242" lon="5.38705">
        <ele>267.4</ele>
        <time>2022-03-26T13:33:53Z</time>
      </trkpt>
      <trkpt lat="46.08246" lon="5.38714">
        <ele>267.4</ele>
        <time>2022-03-26T13:33:54Z</time>
      </trkpt>
      <trkpt lat="46.08256" lon="5.38736">
        <ele>267.6</ele>
        <time>2022-03-26T13:33:56Z</time>
      </trkpt>
      <trkpt lat="46.08261" lon="5.38753">
        <ele>267.6</ele>
        <time>2022-03-26T13:33:58Z</time>
      </trkpt>
      <trkpt lat="46.08261" lon="5.38773">
        <ele>267.8</ele>
        <time>2022-03-26T13:34:00Z</time>
      </trkpt>
      <trkpt lat="46.08267" lon="5.38801">
        <ele>268</ele>
        <time>2022-03-26T13:34:03Z</time>
      </trkpt>
      <trkpt lat="46.08287" lon="5.38878">
        <ele>268.2</ele>
        <time>2022-03-26T13:34:11Z</time>
      </trkpt>
      <trkpt lat="46.08289" lon="5.38888">
        <ele>268.2</ele>
        <time>2022-03-26T13:34:12Z</time>
      </trkpt>
      <trkpt lat="46.08309" lon="5.38947">
        <ele>268.2</ele>
        <time>2022-03-26T13:34:18Z</time>
      </trkpt>
      <trkpt lat="46.08323" lon="5.39009">
        <ele>267</ele>
        <time>2022-03-26T13:34:24Z</time>
      </trkpt>
      <trkpt lat="46.08334" lon="5.39062">
        <ele>266.6</ele>
        <time>2022-03-26T13:34:29Z</time>
      </trkpt>
      <trkpt lat="46.08336" lon="5.39073">
        <ele>266.8</ele>
        <time>2022-03-26T13:34:30Z</time>
      </trkpt>
      <trkpt lat="46.08338" lon="5.39105">
        <ele>266.6</ele>
        <time>2022-03-26T13:34:33Z</time>
      </trkpt>
      <trkpt lat="46.0835" lon="5.39155">
        <ele>267.2</ele>
        <time>2022-03-26T13:34:38Z</time>
      </trkpt>
      <trkpt lat="46.08352" lon="5.39165">
        <ele>267.4</ele>
        <time>2022-03-26T13:34:39Z</time>
      </trkpt>
      <trkpt lat="46.08353" lon="5.39174">
        <ele>267.6</ele>
        <time>2022-03-26T13:34:40Z</time>
      </trkpt>
      <trkpt lat="46.08355" lon="5.39184">
        <ele>267.6</ele>
        <time>2022-03-26T13:34:41Z</time>
      </trkpt>
      <trkpt lat="46.08358" lon="5.39194">
        <ele>267.6</ele>
        <time>2022-03-26T13:34:42Z</time>
      </trkpt>
      <trkpt lat="46.0836" lon="5.39204">
        <ele>267.6</ele>
        <time>2022-03-26T13:34:43Z</time>
      </trkpt>
      <trkpt lat="46.08375" lon="5.39244">
        <ele>268.2</ele>
        <time>2022-03-26T13:34:47Z</time>
      </trkpt>
      <trkpt lat="46.08381" lon="5.39254">
        <ele>268.2</ele>
        <time>2022-03-26T13:34:48Z</time>
      </trkpt>
      <trkpt lat="46.08396" lon="5.39295">
        <ele>268.4</ele>
        <time>2022-03-26T13:34:52Z</time>
      </trkpt>
      <trkpt lat="46.0842" lon="5.3936">
        <ele>268.2</ele>
        <time>2022-03-26T13:34:58Z</time>
      </trkpt>
      <trkpt lat="46.08423" lon="5.39405">
        <ele>267</ele>
        <time>2022-03-26T13:35:02Z</time>
      </trkpt>
      <trkpt lat="46.08417" lon="5.39416">
        <ele>267</ele>
        <time>2022-03-26T13:35:03Z</time>
      </trkpt>
      <trkpt lat="46.08409" lon="5.39481">
        <ele>266.4</ele>
        <time>2022-03-26T13:35:09Z</time>
      </trkpt>
      <trkpt lat="46.0841" lon="5.39492">
        <ele>266.2</ele>
        <time>2022-03-26T13:35:10Z</time>
      </trkpt>
      <trkpt lat="46.08418" lon="5.39571">
        <ele>266</ele>
        <time>2022-03-26T13:35:17Z</time>
      </trkpt>
      <trkpt lat="46.08419" lon="5.39582">
        <ele>266</ele>
        <time>2022-03-26T13:35:18Z</time>
      </trkpt>
      <trkpt lat="46.0842" lon="5.39602">
        <ele>265.8</ele>
        <time>2022-03-26T13:35:20Z</time>
      </trkpt>
      <trkpt lat="46.08422" lon="5.39657">
        <ele>265.6</ele>
        <time>2022-03-26T13:35:25Z</time>
      </trkpt>
      <trkpt lat="46.08424" lon="5.39741">
        <ele>265.4</ele>
        <time>2022-03-26T13:35:33Z</time>
      </trkpt>
      <trkpt lat="46.08425" lon="5.398">
        <ele>265.4</ele>
        <time>2022-03-26T13:35:39Z</time>
      </trkpt>
      <trkpt lat="46.08424" lon="5.3981">
        <ele>265.4</ele>
        <time>2022-03-26T13:35:40Z</time>
      </trkpt>
      <trkpt lat="46.08421" lon="5.39848">
        <ele>265.4</ele>
        <time>2022-03-26T13:35:44Z</time>
      </trkpt>
      <trkpt lat="46.08417" lon="5.39912">
        <ele>266</ele>
        <time>2022-03-26T13:35:51Z</time>
      </trkpt>
      <trkpt lat="46.08416" lon="5.39959">
        <ele>266.6</ele>
        <time>2022-03-26T13:35:56Z</time>
      </trkpt>
      <trkpt lat="46.08414" lon="5.39976">
        <ele>266.8</ele>
        <time>2022-03-26T13:35:58Z</time>
      </trkpt>
      <trkpt lat="46.08411" lon="5.40017">
        <ele>267.8</ele>
        <time>2022-03-26T13:36:03Z</time>
      </trkpt>
      <trkpt lat="46.0841" lon="5.40026">
        <ele>268</ele>
        <time>2022-03-26T13:36:04Z</time>
      </trkpt>
      <trkpt lat="46.08407" lon="5.40056">
        <ele>269</ele>
        <time>2022-03-26T13:36:08Z</time>
      </trkpt>
      <trkpt lat="46.08405" lon="5.40063">
        <ele>269</ele>
        <time>2022-03-26T13:36:09Z</time>
      </trkpt>
      <trkpt lat="46.08404" lon="5.40069">
        <ele>269.4</ele>
        <time>2022-03-26T13:36:10Z</time>
      </trkpt>
      <trkpt lat="46.084" lon="5.40092">
        <ele>270.2</ele>
        <time>2022-03-26T13:36:13Z</time>
      </trkpt>
      <trkpt lat="46.08396" lon="5.40105">
        <ele>270.8</ele>
        <time>2022-03-26T13:36:15Z</time>
      </trkpt>
      <trkpt lat="46.08395" lon="5.4011">
        <ele>270.8</ele>
        <time>2022-03-26T13:36:16Z</time>
      </trkpt>
      <trkpt lat="46.08392" lon="5.40125">
        <ele>271.2</ele>
        <time>2022-03-26T13:36:18Z</time>
      </trkpt>
      <trkpt lat="46.08388" lon="5.40136">
        <ele>271.8</ele>
        <time>2022-03-26T13:36:20Z</time>
      </trkpt>
      <trkpt lat="46.08387" lon="5.40143">
        <ele>272</ele>
        <time>2022-03-26T13:36:21Z</time>
      </trkpt>
      <trkpt lat="46.08385" lon="5.4015">
        <ele>272.2</ele>
        <time>2022-03-26T13:36:22Z</time>
      </trkpt>
      <trkpt lat="46.08383" lon="5.40157">
        <ele>272.2</ele>
        <time>2022-03-26T13:36:23Z</time>
      </trkpt>
      <trkpt lat="46.08378" lon="5.40178">
        <ele>273</ele>
        <time>2022-03-26T13:36:26Z</time>
      </trkpt>
      <trkpt lat="46.08376" lon="5.40184">
        <ele>273.4</ele>
        <time>2022-03-26T13:36:27Z</time>
      </trkpt>
      <trkpt lat="46.08367" lon="5.40223">
        <ele>274.4</ele>
        <time>2022-03-26T13:36:33Z</time>
      </trkpt>
      <trkpt lat="46.08362" lon="5.4025">
        <ele>275</ele>
        <time>2022-03-26T13:36:37Z</time>
      </trkpt>
      <trkpt lat="46.08357" lon="5.40271">
        <ele>275.6</ele>
        <time>2022-03-26T13:36:40Z</time>
      </trkpt>
      <trkpt lat="46.08344" lon="5.40335">
        <ele>276.6</ele>
        <time>2022-03-26T13:36:49Z</time>
      </trkpt>
      <trkpt lat="46.08342" lon="5.40341">
        <ele>276.8</ele>
        <time>2022-03-26T13:36:50Z</time>
      </trkpt>
      <trkpt lat="46.08334" lon="5.40378">
        <ele>277.2</ele>
        <time>2022-03-26T13:36:55Z</time>
      </trkpt>
      <trkpt lat="46.08316" lon="5.40455">
        <ele>277.4</ele>
        <time>2022-03-26T13:37:04Z</time>
      </trkpt>
      <trkpt lat="46.08301" lon="5.40525">
        <ele>276.8</ele>
        <time>2022-03-26T13:37:11Z</time>
      </trkpt>
      <trkpt lat="46.0829" lon="5.40577">
        <ele>276</ele>
        <time>2022-03-26T13:37:16Z</time>
      </trkpt>
      <trkpt lat="46.08281" lon="5.4062">
        <ele>275.6</ele>
        <time>2022-03-26T13:37:20Z</time>
      </trkpt>
      <trkpt lat="46.0827" lon="5.4067">
        <ele>275.6</ele>
        <time>2022-03-26T13:37:26Z</time>
      </trkpt>
      <trkpt lat="46.08275" lon="5.40682">
        <ele>275.6</ele>
        <time>2022-03-26T13:37:28Z</time>
      </trkpt>
      <trkpt lat="46.08286" lon="5.40685">
        <ele>275.6</ele>
        <time>2022-03-26T13:37:30Z</time>
      </trkpt>
      <trkpt lat="46.083" lon="5.40687">
        <ele>275.6</ele>
        <time>2022-03-26T13:37:32Z</time>
      </trkpt>
      <trkpt lat="46.08315" lon="5.40688">
        <ele>275.2</ele>
        <time>2022-03-26T13:37:34Z</time>
      </trkpt>
      <trkpt lat="46.08332" lon="5.40692">
        <ele>274.6</ele>
        <time>2022-03-26T13:37:36Z</time>
      </trkpt>
      <trkpt lat="46.08359" lon="5.40695">
        <ele>273</ele>
        <time>2022-03-26T13:37:39Z</time>
      </trkpt>
      <trkpt lat="46.08395" lon="5.407">
        <ele>271.6</ele>
        <time>2022-03-26T13:37:43Z</time>
      </trkpt>
      <trkpt lat="46.0842" lon="5.40703">
        <ele>270.6</ele>
        <time>2022-03-26T13:37:46Z</time>
      </trkpt>
      <trkpt lat="46.08432" lon="5.40705">
        <ele>269.6</ele>
        <time>2022-03-26T13:37:48Z</time>
      </trkpt>
      <trkpt lat="46.08436" lon="5.40706">
        <ele>269.6</ele>
        <time>2022-03-26T13:37:49Z</time>
      </trkpt>
      <trkpt lat="46.0844" lon="5.40708">
        <ele>269.4</ele>
        <time>2022-03-26T13:37:51Z</time>
      </trkpt>
      <trkpt lat="46.08446" lon="5.40709">
        <ele>269.4</ele>
        <time>2022-03-26T13:37:55Z</time>
      </trkpt>
      <trkpt lat="46.08464" lon="5.40709">
        <ele>269.6</ele>
        <time>2022-03-26T13:38:00Z</time>
      </trkpt>
      <trkpt lat="46.08469" lon="5.40708">
        <ele>269.4</ele>
        <time>2022-03-26T13:38:01Z</time>
      </trkpt>
      <trkpt lat="46.08478" lon="5.40705">
        <ele>269.2</ele>
        <time>2022-03-26T13:38:03Z</time>
      </trkpt>
      <trkpt lat="46.08481" lon="5.407">
        <ele>269.2</ele>
        <time>2022-03-26T13:38:04Z</time>
      </trkpt>
      <trkpt lat="46.08484" lon="5.40694">
        <ele>269.2</ele>
        <time>2022-03-26T13:38:05Z</time>
      </trkpt>
      <trkpt lat="46.08486" lon="5.40677">
        <ele>269.2</ele>
        <time>2022-03-26T13:38:07Z</time>
      </trkpt>
      <trkpt lat="46.08487" lon="5.40668">
        <ele>269</ele>
        <time>2022-03-26T13:38:08Z</time>
      </trkpt>
      <trkpt lat="46.08491" lon="5.40652">
        <ele>268.8</ele>
        <time>2022-03-26T13:38:10Z</time>
      </trkpt>
      <trkpt lat="46.08495" lon="5.40645">
        <ele>268.6</ele>
        <time>2022-03-26T13:38:11Z</time>
      </trkpt>
      <trkpt lat="46.085" lon="5.40642">
        <ele>268.6</ele>
        <time>2022-03-26T13:38:12Z</time>
      </trkpt>
      <trkpt lat="46.08511" lon="5.40639">
        <ele>268.6</ele>
        <time>2022-03-26T13:38:14Z</time>
      </trkpt>
      <trkpt lat="46.08547" lon="5.40638">
        <ele>269</ele>
        <time>2022-03-26T13:38:21Z</time>
      </trkpt>
      <trkpt lat="46.08551" lon="5.40638">
        <ele>269.4</ele>
        <time>2022-03-26T13:38:22Z</time>
      </trkpt>
      <trkpt lat="46.08561" lon="5.40638">
        <ele>270</ele>
        <time>2022-03-26T13:38:24Z</time>
      </trkpt>
      <trkpt lat="46.08575" lon="5.4064">
        <ele>270.6</ele>
        <time>2022-03-26T13:38:27Z</time>
      </trkpt>
      <trkpt lat="46.08585" lon="5.40641">
        <ele>270.8</ele>
        <time>2022-03-26T13:38:29Z</time>
      </trkpt>
      <trkpt lat="46.08595" lon="5.40641">
        <ele>271.2</ele>
        <time>2022-03-26T13:38:31Z</time>
      </trkpt>
      <trkpt lat="46.08626" lon="5.40643">
        <ele>272.2</ele>
        <time>2022-03-26T13:38:38Z</time>
      </trkpt>
      <trkpt lat="46.0863" lon="5.40644">
        <ele>272.4</ele>
        <time>2022-03-26T13:38:39Z</time>
      </trkpt>
      <trkpt lat="46.08637" lon="5.40646">
        <ele>272.8</ele>
        <time>2022-03-26T13:38:41Z</time>
      </trkpt>
      <trkpt lat="46.08648" lon="5.40646">
        <ele>273.4</ele>
        <time>2022-03-26T13:38:44Z</time>
      </trkpt>
      <trkpt lat="46.08653" lon="5.40651">
        <ele>273.8</ele>
        <time>2022-03-26T13:38:46Z</time>
      </trkpt>
      <trkpt lat="46.08655" lon="5.40656">
        <ele>274.2</ele>
        <time>2022-03-26T13:38:47Z</time>
      </trkpt>
      <trkpt lat="46.08656" lon="5.40661">
        <ele>274.6</ele>
        <time>2022-03-26T13:38:48Z</time>
      </trkpt>
      <trkpt lat="46.08655" lon="5.40676">
        <ele>275.2</ele>
        <time>2022-03-26T13:38:51Z</time>
      </trkpt>
      <trkpt lat="46.08654" lon="5.40694">
        <ele>275.6</ele>
        <time>2022-03-26T13:38:55Z</time>
      </trkpt>
      <trkpt lat="46.08655" lon="5.40699">
        <ele>275.8</ele>
        <time>2022-03-26T13:38:56Z</time>
      </trkpt>
      <trkpt lat="46.08657" lon="5.40715">
        <ele>276.8</ele>
        <time>2022-03-26T13:38:59Z</time>
      </trkpt>
      <trkpt lat="46.08659" lon="5.40732">
        <ele>278.2</ele>
        <time>2022-03-26T13:39:02Z</time>
      </trkpt>
      <trkpt lat="46.08658" lon="5.40747">
        <ele>278.4</ele>
        <time>2022-03-26T13:39:05Z</time>
      </trkpt>
      <trkpt lat="46.08659" lon="5.4075">
        <ele>278.6</ele>
        <time>2022-03-26T13:39:06Z</time>
      </trkpt>
      <trkpt lat="46.0866" lon="5.40749">
        <ele>278.6</ele>
        <time>2022-03-26T13:39:08Z</time>
      </trkpt>
      <trkpt lat="46.0866" lon="5.40745">
        <ele>278.6</ele>
        <time>2022-03-26T13:39:09Z</time>
      </trkpt>
      <trkpt lat="46.08658" lon="5.40721">
        <ele>278.4</ele>
        <time>2022-03-26T13:39:13Z</time>
      </trkpt>
      <trkpt lat="46.08656" lon="5.40708">
        <ele>278.4</ele>
        <time>2022-03-26T13:39:15Z</time>
      </trkpt>
      <trkpt lat="46.08655" lon="5.4069">
        <ele>278</ele>
        <time>2022-03-26T13:39:18Z</time>
      </trkpt>
      <trkpt lat="46.08657" lon="5.40688">
        <ele>278</ele>
        <time>2022-03-26T13:39:19Z</time>
      </trkpt>
      <trkpt lat="46.0866" lon="5.40686">
        <ele>278</ele>
        <time>2022-03-26T13:39:20Z</time>
      </trkpt>
      <trkpt lat="46.08675" lon="5.40686">
        <ele>277.4</ele>
        <time>2022-03-26T13:39:24Z</time>
      </trkpt>
      <trkpt lat="46.08696" lon="5.40691">
        <ele>277.4</ele>
        <time>2022-03-26T13:39:28Z</time>
      </trkpt>
      <trkpt lat="46.08719" lon="5.40699">
        <ele>277.4</ele>
        <time>2022-03-26T13:39:32Z</time>
      </trkpt>
      <trkpt lat="46.0873" lon="5.40704">
        <ele>277.2</ele>
        <time>2022-03-26T13:39:34Z</time>
      </trkpt>
      <trkpt lat="46.08736" lon="5.40706">
        <ele>277.2</ele>
        <time>2022-03-26T13:39:35Z</time>
      </trkpt>
      <trkpt lat="46.08761" lon="5.40711">
        <ele>277</ele>
        <time>2022-03-26T13:39:39Z</time>
      </trkpt>
      <trkpt lat="46.0882" lon="5.40719">
        <ele>276.4</ele>
        <time>2022-03-26T13:39:48Z</time>
      </trkpt>
      <trkpt lat="46.08827" lon="5.40719">
        <ele>276.4</ele>
        <time>2022-03-26T13:39:49Z</time>
      </trkpt>
      <trkpt lat="46.08848" lon="5.40722">
        <ele>275.8</ele>
        <time>2022-03-26T13:39:52Z</time>
      </trkpt>
      <trkpt lat="46.08882" lon="5.40724">
        <ele>275</ele>
        <time>2022-03-26T13:39:57Z</time>
      </trkpt>
      <trkpt lat="46.08897" lon="5.40723">
        <ele>274.8</ele>
        <time>2022-03-26T13:39:59Z</time>
      </trkpt>
      <trkpt lat="46.08904" lon="5.40723">
        <ele>274.6</ele>
        <time>2022-03-26T13:40:00Z</time>
      </trkpt>
      <trkpt lat="46.08917" lon="5.40727">
        <ele>274.4</ele>
        <time>2022-03-26T13:40:02Z</time>
      </trkpt>
      <trkpt lat="46.0893" lon="5.40731">
        <ele>274.6</ele>
        <time>2022-03-26T13:40:04Z</time>
      </trkpt>
      <trkpt lat="46.08943" lon="5.40731">
        <ele>274.8</ele>
        <time>2022-03-26T13:40:06Z</time>
      </trkpt>
      <trkpt lat="46.08995" lon="5.40727">
        <ele>275.4</ele>
        <time>2022-03-26T13:40:14Z</time>
      </trkpt>
      <trkpt lat="46.09032" lon="5.40723">
        <ele>275.4</ele>
        <time>2022-03-26T13:40:20Z</time>
      </trkpt>
      <trkpt lat="46.09081" lon="5.40724">
        <ele>276</ele>
        <time>2022-03-26T13:40:28Z</time>
      </trkpt>
      <trkpt lat="46.09137" lon="5.40723">
        <ele>276.6</ele>
        <time>2022-03-26T13:40:37Z</time>
      </trkpt>
      <trkpt lat="46.0915" lon="5.40723">
        <ele>276.6</ele>
        <time>2022-03-26T13:40:39Z</time>
      </trkpt>
      <trkpt lat="46.09209" lon="5.4072">
        <ele>276</ele>
        <time>2022-03-26T13:40:48Z</time>
      </trkpt>
      <trkpt lat="46.09215" lon="5.40719">
        <ele>276</ele>
        <time>2022-03-26T13:40:49Z</time>
      </trkpt>
      <trkpt lat="46.09256" lon="5.4071">
        <ele>276</ele>
        <time>2022-03-26T13:40:55Z</time>
      </trkpt>
      <trkpt lat="46.09295" lon="5.40708">
        <ele>276</ele>
        <time>2022-03-26T13:41:01Z</time>
      </trkpt>
      <trkpt lat="46.09336" lon="5.40721">
        <ele>276.2</ele>
        <time>2022-03-26T13:41:07Z</time>
      </trkpt>
      <trkpt lat="46.09369" lon="5.40739">
        <ele>275.8</ele>
        <time>2022-03-26T13:41:12Z</time>
      </trkpt>
      <trkpt lat="46.09387" lon="5.40754">
        <ele>275</ele>
        <time>2022-03-26T13:41:15Z</time>
      </trkpt>
      <trkpt lat="46.09406" lon="5.4077">
        <ele>274.8</ele>
        <time>2022-03-26T13:41:18Z</time>
      </trkpt>
      <trkpt lat="46.09412" lon="5.40776">
        <ele>274.8</ele>
        <time>2022-03-26T13:41:19Z</time>
      </trkpt>
      <trkpt lat="46.09431" lon="5.40795">
        <ele>274.8</ele>
        <time>2022-03-26T13:41:22Z</time>
      </trkpt>
      <trkpt lat="46.09437" lon="5.40801">
        <ele>274.8</ele>
        <time>2022-03-26T13:41:23Z</time>
      </trkpt>
      <trkpt lat="46.09443" lon="5.40806">
        <ele>274.8</ele>
        <time>2022-03-26T13:41:24Z</time>
      </trkpt>
      <trkpt lat="46.09457" lon="5.40817">
        <ele>274.8</ele>
        <time>2022-03-26T13:41:26Z</time>
      </trkpt>
      <trkpt lat="46.09463" lon="5.40821">
        <ele>274.8</ele>
        <time>2022-03-26T13:41:27Z</time>
      </trkpt>
      <trkpt lat="46.095" lon="5.40847">
        <ele>275</ele>
        <time>2022-03-26T13:41:32Z</time>
      </trkpt>
      <trkpt lat="46.09507" lon="5.4085">
        <ele>274.8</ele>
        <time>2022-03-26T13:41:33Z</time>
      </trkpt>
      <trkpt lat="46.0956" lon="5.40874">
        <ele>274.8</ele>
        <time>2022-03-26T13:41:40Z</time>
      </trkpt>
      <trkpt lat="46.09575" lon="5.40881">
        <ele>274.8</ele>
        <time>2022-03-26T13:41:42Z</time>
      </trkpt>
      <trkpt lat="46.09598" lon="5.40884">
        <ele>274.6</ele>
        <time>2022-03-26T13:41:45Z</time>
      </trkpt>
      <trkpt lat="46.09657" lon="5.40891">
        <ele>273.8</ele>
        <time>2022-03-26T13:41:53Z</time>
      </trkpt>
      <trkpt lat="46.09716" lon="5.40891">
        <ele>273.8</ele>
        <time>2022-03-26T13:42:01Z</time>
      </trkpt>
      <trkpt lat="46.09729" lon="5.40891">
        <ele>273.8</ele>
        <time>2022-03-26T13:42:03Z</time>
      </trkpt>
      <trkpt lat="46.09786" lon="5.40889">
        <ele>273.4</ele>
        <time>2022-03-26T13:42:11Z</time>
      </trkpt>
      <trkpt lat="46.09841" lon="5.40882">
        <ele>273</ele>
        <time>2022-03-26T13:42:19Z</time>
      </trkpt>
      <trkpt lat="46.09856" lon="5.40885">
        <ele>273</ele>
        <time>2022-03-26T13:42:21Z</time>
      </trkpt>
      <trkpt lat="46.09869" lon="5.4089">
        <ele>273.2</ele>
        <time>2022-03-26T13:42:23Z</time>
      </trkpt>
      <trkpt lat="46.09895" lon="5.40906">
        <ele>273.6</ele>
        <time>2022-03-26T13:42:28Z</time>
      </trkpt>
      <trkpt lat="46.09905" lon="5.40913">
        <ele>274.2</ele>
        <time>2022-03-26T13:42:30Z</time>
      </trkpt>
      <trkpt lat="46.09924" lon="5.40927">
        <ele>275</ele>
        <time>2022-03-26T13:42:34Z</time>
      </trkpt>
      <trkpt lat="46.09929" lon="5.40931">
        <ele>275.2</ele>
        <time>2022-03-26T13:42:35Z</time>
      </trkpt>
      <trkpt lat="46.09953" lon="5.4095">
        <ele>276.4</ele>
        <time>2022-03-26T13:42:40Z</time>
      </trkpt>
      <trkpt lat="46.09957" lon="5.40954">
        <ele>276.4</ele>
        <time>2022-03-26T13:42:41Z</time>
      </trkpt>
      <trkpt lat="46.09986" lon="5.40978">
        <ele>277</ele>
        <time>2022-03-26T13:42:47Z</time>
      </trkpt>
      <trkpt lat="46.09996" lon="5.40986">
        <ele>277.4</ele>
        <time>2022-03-26T13:42:49Z</time>
      </trkpt>
      <trkpt lat="46.10002" lon="5.4099">
        <ele>277.6</ele>
        <time>2022-03-26T13:42:50Z</time>
      </trkpt>
      <trkpt lat="46.10019" lon="5.41003">
        <ele>277.8</ele>
        <time>2022-03-26T13:42:53Z</time>
      </trkpt>
      <trkpt lat="46.10048" lon="5.4104">
        <ele>277.8</ele>
        <time>2022-03-26T13:42:59Z</time>
      </trkpt>
      <trkpt lat="46.10079" lon="5.41098">
        <ele>276.2</ele>
        <time>2022-03-26T13:43:07Z</time>
      </trkpt>
      <trkpt lat="46.10082" lon="5.41107">
        <ele>276</ele>
        <time>2022-03-26T13:43:08Z</time>
      </trkpt>
      <trkpt lat="46.10104" lon="5.41162">
        <ele>275.4</ele>
        <time>2022-03-26T13:43:15Z</time>
      </trkpt>
      <trkpt lat="46.1014" lon="5.41222">
        <ele>275.6</ele>
        <time>2022-03-26T13:43:23Z</time>
      </trkpt>
      <trkpt lat="46.10176" lon="5.4127">
        <ele>275.2</ele>
        <time>2022-03-26T13:43:30Z</time>
      </trkpt>
      <trkpt lat="46.10201" lon="5.41302">
        <ele>275</ele>
        <time>2022-03-26T13:43:35Z</time>
      </trkpt>
      <trkpt lat="46.10217" lon="5.41322">
        <ele>274.8</ele>
        <time>2022-03-26T13:43:38Z</time>
      </trkpt>
      <trkpt lat="46.10244" lon="5.41354">
        <ele>274.2</ele>
        <time>2022-03-26T13:43:43Z</time>
      </trkpt>
      <trkpt lat="46.10249" lon="5.4136">
        <ele>274.2</ele>
        <time>2022-03-26T13:43:44Z</time>
      </trkpt>
      <trkpt lat="46.1028" lon="5.41396">
        <ele>274.2</ele>
        <time>2022-03-26T13:43:50Z</time>
      </trkpt>
      <trkpt lat="46.10298" lon="5.41414">
        <ele>274</ele>
        <time>2022-03-26T13:43:53Z</time>
      </trkpt>
      <trkpt lat="46.10308" lon="5.41422">
        <ele>273.8</ele>
        <time>2022-03-26T13:43:55Z</time>
      </trkpt>
      <trkpt lat="46.10315" lon="5.41429">
        <ele>273.6</ele>
        <time>2022-03-26T13:43:56Z</time>
      </trkpt>
      <trkpt lat="46.10344" lon="5.41457">
        <ele>273</ele>
        <time>2022-03-26T13:44:01Z</time>
      </trkpt>
      <trkpt lat="46.10348" lon="5.41463">
        <ele>273</ele>
        <time>2022-03-26T13:44:02Z</time>
      </trkpt>
      <trkpt lat="46.10379" lon="5.41496">
        <ele>272.8</ele>
        <time>2022-03-26T13:44:07Z</time>
      </trkpt>
      <trkpt lat="46.10394" lon="5.41513">
        <ele>272.8</ele>
        <time>2022-03-26T13:44:10Z</time>
      </trkpt>
      <trkpt lat="46.10413" lon="5.41529">
        <ele>272.6</ele>
        <time>2022-03-26T13:44:13Z</time>
      </trkpt>
      <trkpt lat="46.10447" lon="5.41563">
        <ele>272.4</ele>
        <time>2022-03-26T13:44:19Z</time>
      </trkpt>
      <trkpt lat="46.1048" lon="5.41602">
        <ele>272.2</ele>
        <time>2022-03-26T13:44:25Z</time>
      </trkpt>
      <trkpt lat="46.10514" lon="5.41663">
        <ele>272.2</ele>
        <time>2022-03-26T13:44:33Z</time>
      </trkpt>
      <trkpt lat="46.10544" lon="5.41713">
        <ele>272.8</ele>
        <time>2022-03-26T13:44:40Z</time>
      </trkpt>
      <trkpt lat="46.10561" lon="5.41737">
        <ele>273.4</ele>
        <time>2022-03-26T13:44:44Z</time>
      </trkpt>
      <trkpt lat="46.10564" lon="5.41743">
        <ele>273.6</ele>
        <time>2022-03-26T13:44:45Z</time>
      </trkpt>
      <trkpt lat="46.10568" lon="5.41749">
        <ele>273.8</ele>
        <time>2022-03-26T13:44:46Z</time>
      </trkpt>
      <trkpt lat="46.10571" lon="5.41755">
        <ele>274.2</ele>
        <time>2022-03-26T13:44:47Z</time>
      </trkpt>
      <trkpt lat="46.10577" lon="5.41766">
        <ele>274.6</ele>
        <time>2022-03-26T13:44:49Z</time>
      </trkpt>
      <trkpt lat="46.10583" lon="5.41779">
        <ele>275</ele>
        <time>2022-03-26T13:44:51Z</time>
      </trkpt>
      <trkpt lat="46.10586" lon="5.41794">
        <ele>275.4</ele>
        <time>2022-03-26T13:44:53Z</time>
      </trkpt>
      <trkpt lat="46.10587" lon="5.41803">
        <ele>275.4</ele>
        <time>2022-03-26T13:44:54Z</time>
      </trkpt>
      <trkpt lat="46.10587" lon="5.41831">
        <ele>275.8</ele>
        <time>2022-03-26T13:44:57Z</time>
      </trkpt>
      <trkpt lat="46.10588" lon="5.41849">
        <ele>276</ele>
        <time>2022-03-26T13:44:59Z</time>
      </trkpt>
      <trkpt lat="46.10594" lon="5.41873">
        <ele>276.2</ele>
        <time>2022-03-26T13:45:02Z</time>
      </trkpt>
      <trkpt lat="46.10607" lon="5.41903">
        <ele>276.2</ele>
        <time>2022-03-26T13:45:06Z</time>
      </trkpt>
      <trkpt lat="46.1061" lon="5.41909">
        <ele>276.2</ele>
        <time>2022-03-26T13:45:07Z</time>
      </trkpt>
      <trkpt lat="46.10613" lon="5.41916">
        <ele>276.2</ele>
        <time>2022-03-26T13:45:08Z</time>
      </trkpt>
      <trkpt lat="46.10625" lon="5.41935">
        <ele>276.2</ele>
        <time>2022-03-26T13:45:11Z</time>
      </trkpt>
      <trkpt lat="46.10646" lon="5.41974">
        <ele>276.8</ele>
        <time>2022-03-26T13:45:17Z</time>
      </trkpt>
      <trkpt lat="46.1065" lon="5.4198">
        <ele>277</ele>
        <time>2022-03-26T13:45:18Z</time>
      </trkpt>
      <trkpt lat="46.10657" lon="5.41992">
        <ele>277.2</ele>
        <time>2022-03-26T13:45:20Z</time>
      </trkpt>
      <trkpt lat="46.10669" lon="5.42008">
        <ele>277.4</ele>
        <time>2022-03-26T13:45:23Z</time>
      </trkpt>
      <trkpt lat="46.10684" lon="5.42027">
        <ele>277.8</ele>
        <time>2022-03-26T13:45:27Z</time>
      </trkpt>
      <trkpt lat="46.10692" lon="5.42035">
        <ele>278.4</ele>
        <time>2022-03-26T13:45:29Z</time>
      </trkpt>
      <trkpt lat="46.1071" lon="5.42058">
        <ele>278.4</ele>
        <time>2022-03-26T13:45:33Z</time>
      </trkpt>
      <trkpt lat="46.10719" lon="5.42069">
        <ele>278.8</ele>
        <time>2022-03-26T13:45:35Z</time>
      </trkpt>
      <trkpt lat="46.10733" lon="5.42089">
        <ele>278.8</ele>
        <time>2022-03-26T13:45:38Z</time>
      </trkpt>
      <trkpt lat="46.10756" lon="5.42117">
        <ele>279</ele>
        <time>2022-03-26T13:45:44Z</time>
      </trkpt>
      <trkpt lat="46.1076" lon="5.42121">
        <ele>279</ele>
        <time>2022-03-26T13:45:45Z</time>
      </trkpt>
      <trkpt lat="46.10783" lon="5.42135">
        <ele>279</ele>
        <time>2022-03-26T13:45:49Z</time>
      </trkpt>
      <trkpt lat="46.10794" lon="5.42143">
        <ele>279</ele>
        <time>2022-03-26T13:45:51Z</time>
      </trkpt>
      <trkpt lat="46.10834" lon="5.42172">
        <ele>278.4</ele>
        <time>2022-03-26T13:45:58Z</time>
      </trkpt>
      <trkpt lat="46.10846" lon="5.42181">
        <ele>278.4</ele>
        <time>2022-03-26T13:46:00Z</time>
      </trkpt>
      <trkpt lat="46.10858" lon="5.42188">
        <ele>278.2</ele>
        <time>2022-03-26T13:46:02Z</time>
      </trkpt>
      <trkpt lat="46.10888" lon="5.42205">
        <ele>278.4</ele>
        <time>2022-03-26T13:46:07Z</time>
      </trkpt>
      <trkpt lat="46.10894" lon="5.4221">
        <ele>278.4</ele>
        <time>2022-03-26T13:46:08Z</time>
      </trkpt>
      <trkpt lat="46.10931" lon="5.42235">
        <ele>278.4</ele>
        <time>2022-03-26T13:46:15Z</time>
      </trkpt>
      <trkpt lat="46.10937" lon="5.42238">
        <ele>278.4</ele>
        <time>2022-03-26T13:46:16Z</time>
      </trkpt>
      <trkpt lat="46.10954" lon="5.42249">
        <ele>278.4</ele>
        <time>2022-03-26T13:46:19Z</time>
      </trkpt>
      <trkpt lat="46.10978" lon="5.42264">
        <ele>278.6</ele>
        <time>2022-03-26T13:46:23Z</time>
      </trkpt>
      <trkpt lat="46.1099" lon="5.42274">
        <ele>278.6</ele>
        <time>2022-03-26T13:46:25Z</time>
      </trkpt>
      <trkpt lat="46.11023" lon="5.42298">
        <ele>278.8</ele>
        <time>2022-03-26T13:46:31Z</time>
      </trkpt>
      <trkpt lat="46.11033" lon="5.42304">
        <ele>279</ele>
        <time>2022-03-26T13:46:33Z</time>
      </trkpt>
      <trkpt lat="46.11043" lon="5.42311">
        <ele>279.4</ele>
        <time>2022-03-26T13:46:35Z</time>
      </trkpt>
      <trkpt lat="46.11053" lon="5.42318">
        <ele>279.8</ele>
        <time>2022-03-26T13:46:37Z</time>
      </trkpt>
      <trkpt lat="46.11063" lon="5.42325">
        <ele>280.2</ele>
        <time>2022-03-26T13:46:39Z</time>
      </trkpt>
      <trkpt lat="46.11081" lon="5.42337">
        <ele>280.8</ele>
        <time>2022-03-26T13:46:43Z</time>
      </trkpt>
      <trkpt lat="46.11102" lon="5.42351">
        <ele>281.2</ele>
        <time>2022-03-26T13:46:47Z</time>
      </trkpt>
      <trkpt lat="46.11112" lon="5.42357">
        <ele>281.2</ele>
        <time>2022-03-26T13:46:49Z</time>
      </trkpt>
      <trkpt lat="46.11116" lon="5.4236">
        <ele>281.4</ele>
        <time>2022-03-26T13:46:50Z</time>
      </trkpt>
      <trkpt lat="46.11149" lon="5.42379">
        <ele>282.2</ele>
        <time>2022-03-26T13:46:57Z</time>
      </trkpt>
      <trkpt lat="46.11167" lon="5.42383">
        <ele>282.6</ele>
        <time>2022-03-26T13:47:00Z</time>
      </trkpt>
      <trkpt lat="46.11184" lon="5.42386">
        <ele>282.6</ele>
        <time>2022-03-26T13:47:03Z</time>
      </trkpt>
      <trkpt lat="46.1119" lon="5.42385">
        <ele>282.6</ele>
        <time>2022-03-26T13:47:04Z</time>
      </trkpt>
      <trkpt lat="46.11201" lon="5.42386">
        <ele>283.2</ele>
        <time>2022-03-26T13:47:06Z</time>
      </trkpt>
      <trkpt lat="46.11229" lon="5.42385">
        <ele>283.2</ele>
        <time>2022-03-26T13:47:11Z</time>
      </trkpt>
      <trkpt lat="46.11236" lon="5.42385">
        <ele>283.2</ele>
        <time>2022-03-26T13:47:12Z</time>
      </trkpt>
      <trkpt lat="46.11252" lon="5.42386">
        <ele>283.2</ele>
        <time>2022-03-26T13:47:15Z</time>
      </trkpt>
      <trkpt lat="46.11263" lon="5.42388">
        <ele>283.2</ele>
        <time>2022-03-26T13:47:17Z</time>
      </trkpt>
      <trkpt lat="46.113" lon="5.42397">
        <ele>284.2</ele>
        <time>2022-03-26T13:47:24Z</time>
      </trkpt>
      <trkpt lat="46.11317" lon="5.42398">
        <ele>284.4</ele>
        <time>2022-03-26T13:47:27Z</time>
      </trkpt>
      <trkpt lat="46.11329" lon="5.42393">
        <ele>284.6</ele>
        <time>2022-03-26T13:47:29Z</time>
      </trkpt>
      <trkpt lat="46.11334" lon="5.42393">
        <ele>284.6</ele>
        <time>2022-03-26T13:47:30Z</time>
      </trkpt>
      <trkpt lat="46.11348" lon="5.42397">
        <ele>284.4</ele>
        <time>2022-03-26T13:47:32Z</time>
      </trkpt>
      <trkpt lat="46.11367" lon="5.42397">
        <ele>284</ele>
        <time>2022-03-26T13:47:35Z</time>
      </trkpt>
      <trkpt lat="46.11417" lon="5.4239">
        <ele>283.6</ele>
        <time>2022-03-26T13:47:42Z</time>
      </trkpt>
      <trkpt lat="46.11451" lon="5.42396">
        <ele>283.2</ele>
        <time>2022-03-26T13:47:47Z</time>
      </trkpt>
      <trkpt lat="46.11493" lon="5.4242">
        <ele>283.4</ele>
        <time>2022-03-26T13:47:54Z</time>
      </trkpt>
      <trkpt lat="46.11542" lon="5.42442">
        <ele>284.4</ele>
        <time>2022-03-26T13:48:02Z</time>
      </trkpt>
      <trkpt lat="46.11588" lon="5.42455">
        <ele>284.4</ele>
        <time>2022-03-26T13:48:09Z</time>
      </trkpt>
      <trkpt lat="46.11646" lon="5.42458">
        <ele>284.2</ele>
        <time>2022-03-26T13:48:18Z</time>
      </trkpt>
      <trkpt lat="46.11701" lon="5.42454">
        <ele>283.6</ele>
        <time>2022-03-26T13:48:26Z</time>
      </trkpt>
      <trkpt lat="46.11713" lon="5.42452">
        <ele>283.6</ele>
        <time>2022-03-26T13:48:28Z</time>
      </trkpt>
      <trkpt lat="46.11763" lon="5.42448">
        <ele>283.6</ele>
        <time>2022-03-26T13:48:36Z</time>
      </trkpt>
      <trkpt lat="46.11798" lon="5.42438">
        <ele>284.2</ele>
        <time>2022-03-26T13:48:42Z</time>
      </trkpt>
      <trkpt lat="46.11831" lon="5.42419">
        <ele>285.2</ele>
        <time>2022-03-26T13:48:48Z</time>
      </trkpt>
      <trkpt lat="46.11883" lon="5.42379">
        <ele>285</ele>
        <time>2022-03-26T13:48:57Z</time>
      </trkpt>
      <trkpt lat="46.11912" lon="5.42361">
        <ele>284.2</ele>
        <time>2022-03-26T13:49:02Z</time>
      </trkpt>
      <trkpt lat="46.11949" lon="5.42338">
        <ele>284</ele>
        <time>2022-03-26T13:49:08Z</time>
      </trkpt>
      <trkpt lat="46.11973" lon="5.42325">
        <ele>284</ele>
        <time>2022-03-26T13:49:12Z</time>
      </trkpt>
      <trkpt lat="46.11987" lon="5.42322">
        <ele>284</ele>
        <time>2022-03-26T13:49:14Z</time>
      </trkpt>
      <trkpt lat="46.12007" lon="5.42319">
        <ele>284</ele>
        <time>2022-03-26T13:49:17Z</time>
      </trkpt>
      <trkpt lat="46.12026" lon="5.42321">
        <ele>284</ele>
        <time>2022-03-26T13:49:20Z</time>
      </trkpt>
      <trkpt lat="46.12066" lon="5.42336">
        <ele>283.8</ele>
        <time>2022-03-26T13:49:26Z</time>
      </trkpt>
      <trkpt lat="46.12097" lon="5.42362">
        <ele>283.6</ele>
        <time>2022-03-26T13:49:31Z</time>
      </trkpt>
      <trkpt lat="46.12116" lon="5.42388">
        <ele>283.2</ele>
        <time>2022-03-26T13:49:35Z</time>
      </trkpt>
      <trkpt lat="46.12125" lon="5.42403">
        <ele>282.8</ele>
        <time>2022-03-26T13:49:37Z</time>
      </trkpt>
      <trkpt lat="46.12134" lon="5.42427">
        <ele>282.6</ele>
        <time>2022-03-26T13:49:40Z</time>
      </trkpt>
      <trkpt lat="46.12142" lon="5.42453">
        <ele>282.4</ele>
        <time>2022-03-26T13:49:43Z</time>
      </trkpt>
      <trkpt lat="46.1215" lon="5.42504">
        <ele>282.6</ele>
        <time>2022-03-26T13:49:49Z</time>
      </trkpt>
      <trkpt lat="46.12151" lon="5.42571">
        <ele>282.8</ele>
        <time>2022-03-26T13:49:57Z</time>
      </trkpt>
      <trkpt lat="46.12151" lon="5.42588">
        <ele>283.2</ele>
        <time>2022-03-26T13:49:59Z</time>
      </trkpt>
      <trkpt lat="46.12151" lon="5.42621">
        <ele>283.8</ele>
        <time>2022-03-26T13:50:03Z</time>
      </trkpt>
      <trkpt lat="46.12152" lon="5.42648">
        <ele>284.4</ele>
        <time>2022-03-26T13:50:06Z</time>
      </trkpt>
      <trkpt lat="46.1215" lon="5.42666">
        <ele>284.4</ele>
        <time>2022-03-26T13:50:08Z</time>
      </trkpt>
      <trkpt lat="46.1215" lon="5.42683">
        <ele>284.6</ele>
        <time>2022-03-26T13:50:10Z</time>
      </trkpt>
      <trkpt lat="46.12149" lon="5.42699">
        <ele>284.8</ele>
        <time>2022-03-26T13:50:12Z</time>
      </trkpt>
      <trkpt lat="46.12144" lon="5.4273">
        <ele>285.2</ele>
        <time>2022-03-26T13:50:16Z</time>
      </trkpt>
      <trkpt lat="46.12141" lon="5.42745">
        <ele>285.2</ele>
        <time>2022-03-26T13:50:18Z</time>
      </trkpt>
      <trkpt lat="46.12136" lon="5.4276">
        <ele>285.4</ele>
        <time>2022-03-26T13:50:20Z</time>
      </trkpt>
      <trkpt lat="46.12131" lon="5.42775">
        <ele>285.6</ele>
        <time>2022-03-26T13:50:22Z</time>
      </trkpt>
      <trkpt lat="46.1211" lon="5.42812">
        <ele>285.2</ele>
        <time>2022-03-26T13:50:27Z</time>
      </trkpt>
      <trkpt lat="46.12079" lon="5.42859">
        <ele>284.8</ele>
        <time>2022-03-26T13:50:33Z</time>
      </trkpt>
      <trkpt lat="46.12065" lon="5.42888">
        <ele>284</ele>
        <time>2022-03-26T13:50:36Z</time>
      </trkpt>
      <trkpt lat="46.12059" lon="5.42908">
        <ele>283.6</ele>
        <time>2022-03-26T13:50:38Z</time>
      </trkpt>
      <trkpt lat="46.12057" lon="5.42919">
        <ele>283.4</ele>
        <time>2022-03-26T13:50:39Z</time>
      </trkpt>
      <trkpt lat="46.12054" lon="5.42951">
        <ele>283</ele>
        <time>2022-03-26T13:50:42Z</time>
      </trkpt>
      <trkpt lat="46.12054" lon="5.42961">
        <ele>283</ele>
        <time>2022-03-26T13:50:43Z</time>
      </trkpt>
      <trkpt lat="46.12057" lon="5.43004">
        <ele>282.6</ele>
        <time>2022-03-26T13:50:47Z</time>
      </trkpt>
      <trkpt lat="46.12077" lon="5.43074">
        <ele>282.6</ele>
        <time>2022-03-26T13:50:54Z</time>
      </trkpt>
      <trkpt lat="46.12095" lon="5.43126">
        <ele>282</ele>
        <time>2022-03-26T13:51:00Z</time>
      </trkpt>
      <trkpt lat="46.12098" lon="5.43134">
        <ele>281.8</ele>
        <time>2022-03-26T13:51:01Z</time>
      </trkpt>
      <trkpt lat="46.1211" lon="5.43172">
        <ele>282</ele>
        <time>2022-03-26T13:51:06Z</time>
      </trkpt>
      <trkpt lat="46.12122" lon="5.43211">
        <ele>282.4</ele>
        <time>2022-03-26T13:51:11Z</time>
      </trkpt>
      <trkpt lat="46.12125" lon="5.43228">
        <ele>282.6</ele>
        <time>2022-03-26T13:51:13Z</time>
      </trkpt>
      <trkpt lat="46.12138" lon="5.43289">
        <ele>282.8</ele>
        <time>2022-03-26T13:51:21Z</time>
      </trkpt>
      <trkpt lat="46.1214" lon="5.43296">
        <ele>283</ele>
        <time>2022-03-26T13:51:22Z</time>
      </trkpt>
      <trkpt lat="46.1215" lon="5.43322">
        <ele>283.6</ele>
        <time>2022-03-26T13:51:26Z</time>
      </trkpt>
      <trkpt lat="46.12155" lon="5.43336">
        <ele>284.2</ele>
        <time>2022-03-26T13:51:28Z</time>
      </trkpt>
      <trkpt lat="46.12174" lon="5.43381">
        <ele>285</ele>
        <time>2022-03-26T13:51:35Z</time>
      </trkpt>
      <trkpt lat="46.12178" lon="5.43385">
        <ele>285</ele>
        <time>2022-03-26T13:51:36Z</time>
      </trkpt>
      <trkpt lat="46.12181" lon="5.4339">
        <ele>285.2</ele>
        <time>2022-03-26T13:51:37Z</time>
      </trkpt>
      <trkpt lat="46.12186" lon="5.43394">
        <ele>285.2</ele>
        <time>2022-03-26T13:51:38Z</time>
      </trkpt>
      <trkpt lat="46.12196" lon="5.43399">
        <ele>285.6</ele>
        <time>2022-03-26T13:51:40Z</time>
      </trkpt>
      <trkpt lat="46.122" lon="5.434">
        <ele>285.8</ele>
        <time>2022-03-26T13:51:41Z</time>
      </trkpt>
      <trkpt lat="46.1221" lon="5.43404">
        <ele>286.2</ele>
        <time>2022-03-26T13:51:43Z</time>
      </trkpt>
      <trkpt lat="46.12215" lon="5.43407">
        <ele>286.2</ele>
        <time>2022-03-26T13:51:44Z</time>
      </trkpt>
      <trkpt lat="46.12225" lon="5.43414">
        <ele>286.2</ele>
        <time>2022-03-26T13:51:46Z</time>
      </trkpt>
      <trkpt lat="46.12253" lon="5.43436">
        <ele>287</ele>
        <time>2022-03-26T13:51:52Z</time>
      </trkpt>
      <trkpt lat="46.12257" lon="5.4344">
        <ele>287.2</ele>
        <time>2022-03-26T13:51:53Z</time>
      </trkpt>
      <trkpt lat="46.12261" lon="5.43445">
        <ele>287.4</ele>
        <time>2022-03-26T13:51:54Z</time>
      </trkpt>
      <trkpt lat="46.12269" lon="5.43454">
        <ele>287.8</ele>
        <time>2022-03-26T13:51:56Z</time>
      </trkpt>
      <trkpt lat="46.12272" lon="5.4346">
        <ele>288</ele>
        <time>2022-03-26T13:51:57Z</time>
      </trkpt>
      <trkpt lat="46.12276" lon="5.43465">
        <ele>288.4</ele>
        <time>2022-03-26T13:51:58Z</time>
      </trkpt>
      <trkpt lat="46.12295" lon="5.43503">
        <ele>288.8</ele>
        <time>2022-03-26T13:52:04Z</time>
      </trkpt>
      <trkpt lat="46.12315" lon="5.43558">
        <ele>288.6</ele>
        <time>2022-03-26T13:52:12Z</time>
      </trkpt>
      <trkpt lat="46.12334" lon="5.43615">
        <ele>288.2</ele>
        <time>2022-03-26T13:52:19Z</time>
      </trkpt>
      <trkpt lat="46.12338" lon="5.43622">
        <ele>288.2</ele>
        <time>2022-03-26T13:52:20Z</time>
      </trkpt>
      <trkpt lat="46.12343" lon="5.4363">
        <ele>288.2</ele>
        <time>2022-03-26T13:52:21Z</time>
      </trkpt>
      <trkpt lat="46.12361" lon="5.43647">
        <ele>288</ele>
        <time>2022-03-26T13:52:24Z</time>
      </trkpt>
      <trkpt lat="46.12395" lon="5.43672">
        <ele>287.6</ele>
        <time>2022-03-26T13:52:29Z</time>
      </trkpt>
      <trkpt lat="46.12409" lon="5.43684">
        <ele>287.2</ele>
        <time>2022-03-26T13:52:31Z</time>
      </trkpt>
      <trkpt lat="46.12431" lon="5.43697">
        <ele>286.6</ele>
        <time>2022-03-26T13:52:34Z</time>
      </trkpt>
      <trkpt lat="46.1247" lon="5.43708">
        <ele>286.2</ele>
        <time>2022-03-26T13:52:39Z</time>
      </trkpt>
      <trkpt lat="46.12478" lon="5.4371">
        <ele>286.2</ele>
        <time>2022-03-26T13:52:40Z</time>
      </trkpt>
      <trkpt lat="46.12516" lon="5.43729">
        <ele>285.8</ele>
        <time>2022-03-26T13:52:45Z</time>
      </trkpt>
      <trkpt lat="46.12572" lon="5.4376">
        <ele>285.4</ele>
        <time>2022-03-26T13:52:53Z</time>
      </trkpt>
      <trkpt lat="46.126" lon="5.43776">
        <ele>286</ele>
        <time>2022-03-26T13:52:58Z</time>
      </trkpt>
      <trkpt lat="46.12609" lon="5.43782">
        <ele>286.6</ele>
        <time>2022-03-26T13:53:00Z</time>
      </trkpt>
      <trkpt lat="46.12618" lon="5.43788">
        <ele>287.4</ele>
        <time>2022-03-26T13:53:02Z</time>
      </trkpt>
      <trkpt lat="46.1263" lon="5.43797">
        <ele>288.4</ele>
        <time>2022-03-26T13:53:05Z</time>
      </trkpt>
      <trkpt lat="46.1265" lon="5.43811">
        <ele>289.6</ele>
        <time>2022-03-26T13:53:10Z</time>
      </trkpt>
      <trkpt lat="46.12658" lon="5.43816">
        <ele>290.2</ele>
        <time>2022-03-26T13:53:12Z</time>
      </trkpt>
      <trkpt lat="46.12667" lon="5.43822">
        <ele>290.6</ele>
        <time>2022-03-26T13:53:14Z</time>
      </trkpt>
      <trkpt lat="46.12672" lon="5.43824">
        <ele>290.6</ele>
        <time>2022-03-26T13:53:15Z</time>
      </trkpt>
      <trkpt lat="46.12678" lon="5.43825">
        <ele>290.8</ele>
        <time>2022-03-26T13:53:16Z</time>
      </trkpt>
      <trkpt lat="46.12684" lon="5.43826">
        <ele>290.8</ele>
        <time>2022-03-26T13:53:17Z</time>
      </trkpt>
      <trkpt lat="46.12702" lon="5.43829">
        <ele>291.8</ele>
        <time>2022-03-26T13:53:21Z</time>
      </trkpt>
      <trkpt lat="46.12707" lon="5.43829">
        <ele>291.8</ele>
        <time>2022-03-26T13:53:22Z</time>
      </trkpt>
      <trkpt lat="46.12723" lon="5.4383">
        <ele>293</ele>
        <time>2022-03-26T13:53:26Z</time>
      </trkpt>
      <trkpt lat="46.12732" lon="5.43831">
        <ele>293.6</ele>
        <time>2022-03-26T13:53:28Z</time>
      </trkpt>
      <trkpt lat="46.1274" lon="5.43833">
        <ele>294.2</ele>
        <time>2022-03-26T13:53:30Z</time>
      </trkpt>
      <trkpt lat="46.12754" lon="5.43837">
        <ele>295.2</ele>
        <time>2022-03-26T13:53:34Z</time>
      </trkpt>
      <trkpt lat="46.12758" lon="5.43837">
        <ele>295.4</ele>
        <time>2022-03-26T13:53:35Z</time>
      </trkpt>
      <trkpt lat="46.12775" lon="5.43839">
        <ele>296.4</ele>
        <time>2022-03-26T13:53:40Z</time>
      </trkpt>
      <trkpt lat="46.12779" lon="5.43839">
        <ele>296.4</ele>
        <time>2022-03-26T13:53:41Z</time>
      </trkpt>
      <trkpt lat="46.12792" lon="5.43839">
        <ele>297.4</ele>
        <time>2022-03-26T13:53:44Z</time>
      </trkpt>
      <trkpt lat="46.128" lon="5.43838">
        <ele>298</ele>
        <time>2022-03-26T13:53:46Z</time>
      </trkpt>
      <trkpt lat="46.12814" lon="5.43838">
        <ele>298.6</ele>
        <time>2022-03-26T13:53:49Z</time>
      </trkpt>
      <trkpt lat="46.12829" lon="5.43839">
        <ele>299.2</ele>
        <time>2022-03-26T13:53:52Z</time>
      </trkpt>
      <trkpt lat="46.12839" lon="5.43842">
        <ele>299.4</ele>
        <time>2022-03-26T13:53:54Z</time>
      </trkpt>
      <trkpt lat="46.12844" lon="5.43845">
        <ele>299.8</ele>
        <time>2022-03-26T13:53:55Z</time>
      </trkpt>
      <trkpt lat="46.12866" lon="5.43864">
        <ele>300.8</ele>
        <time>2022-03-26T13:54:00Z</time>
      </trkpt>
      <trkpt lat="46.1287" lon="5.43867">
        <ele>301</ele>
        <time>2022-03-26T13:54:01Z</time>
      </trkpt>
      <trkpt lat="46.12894" lon="5.43879">
        <ele>301.6</ele>
        <time>2022-03-26T13:54:06Z</time>
      </trkpt>
      <trkpt lat="46.12904" lon="5.43883">
        <ele>301.8</ele>
        <time>2022-03-26T13:54:08Z</time>
      </trkpt>
      <trkpt lat="46.12915" lon="5.43886">
        <ele>302</ele>
        <time>2022-03-26T13:54:10Z</time>
      </trkpt>
      <trkpt lat="46.12925" lon="5.43886">
        <ele>302.2</ele>
        <time>2022-03-26T13:54:12Z</time>
      </trkpt>
      <trkpt lat="46.12931" lon="5.43885">
        <ele>302.2</ele>
        <time>2022-03-26T13:54:13Z</time>
      </trkpt>
      <trkpt lat="46.12936" lon="5.43884">
        <ele>302.2</ele>
        <time>2022-03-26T13:54:14Z</time>
      </trkpt>
      <trkpt lat="46.12946" lon="5.43877">
        <ele>302.4</ele>
        <time>2022-03-26T13:54:16Z</time>
      </trkpt>
      <trkpt lat="46.12951" lon="5.43872">
        <ele>302.4</ele>
        <time>2022-03-26T13:54:17Z</time>
      </trkpt>
      <trkpt lat="46.12955" lon="5.43866">
        <ele>302.4</ele>
        <time>2022-03-26T13:54:18Z</time>
      </trkpt>
      <trkpt lat="46.12962" lon="5.43846">
        <ele>302.4</ele>
        <time>2022-03-26T13:54:21Z</time>
      </trkpt>
      <trkpt lat="46.12972" lon="5.43818">
        <ele>302.4</ele>
        <time>2022-03-26T13:54:25Z</time>
      </trkpt>
      <trkpt lat="46.12978" lon="5.43808">
        <ele>302.4</ele>
        <time>2022-03-26T13:54:27Z</time>
      </trkpt>
      <trkpt lat="46.12986" lon="5.43801">
        <ele>302.6</ele>
        <time>2022-03-26T13:54:29Z</time>
      </trkpt>
      <trkpt lat="46.12995" lon="5.43795">
        <ele>302.8</ele>
        <time>2022-03-26T13:54:31Z</time>
      </trkpt>
      <trkpt lat="46.13" lon="5.43792">
        <ele>303</ele>
        <time>2022-03-26T13:54:32Z</time>
      </trkpt>
      <trkpt lat="46.13013" lon="5.43785">
        <ele>303.8</ele>
        <time>2022-03-26T13:54:35Z</time>
      </trkpt>
      <trkpt lat="46.13026" lon="5.43778">
        <ele>305</ele>
        <time>2022-03-26T13:54:38Z</time>
      </trkpt>
      <trkpt lat="46.13042" lon="5.43769">
        <ele>305.8</ele>
        <time>2022-03-26T13:54:42Z</time>
      </trkpt>
      <trkpt lat="46.13046" lon="5.43767">
        <ele>305.8</ele>
        <time>2022-03-26T13:54:43Z</time>
      </trkpt>
      <trkpt lat="46.1305" lon="5.43766">
        <ele>306.2</ele>
        <time>2022-03-26T13:54:44Z</time>
      </trkpt>
      <trkpt lat="46.13065" lon="5.43761">
        <ele>307.2</ele>
        <time>2022-03-26T13:54:48Z</time>
      </trkpt>
      <trkpt lat="46.13077" lon="5.43758">
        <ele>308.4</ele>
        <time>2022-03-26T13:54:51Z</time>
      </trkpt>
      <trkpt lat="46.13095" lon="5.43757">
        <ele>309.6</ele>
        <time>2022-03-26T13:54:56Z</time>
      </trkpt>
      <trkpt lat="46.13098" lon="5.43756">
        <ele>309.6</ele>
        <time>2022-03-26T13:54:57Z</time>
      </trkpt>
      <trkpt lat="46.13118" lon="5.43754">
        <ele>310.8</ele>
        <time>2022-03-26T13:55:03Z</time>
      </trkpt>
      <trkpt lat="46.13125" lon="5.43754">
        <ele>311</ele>
        <time>2022-03-26T13:55:05Z</time>
      </trkpt>
      <trkpt lat="46.13138" lon="5.43752">
        <ele>312.2</ele>
        <time>2022-03-26T13:55:09Z</time>
      </trkpt>
      <trkpt lat="46.13152" lon="5.43751">
        <ele>313.4</ele>
        <time>2022-03-26T13:55:13Z</time>
      </trkpt>
      <trkpt lat="46.13158" lon="5.43751">
        <ele>313.8</ele>
        <time>2022-03-26T13:55:15Z</time>
      </trkpt>
      <trkpt lat="46.13165" lon="5.4375">
        <ele>314.4</ele>
        <time>2022-03-26T13:55:17Z</time>
      </trkpt>
      <trkpt lat="46.13182" lon="5.4375">
        <ele>315</ele>
        <time>2022-03-26T13:55:22Z</time>
      </trkpt>
      <trkpt lat="46.13188" lon="5.4375">
        <ele>315.6</ele>
        <time>2022-03-26T13:55:24Z</time>
      </trkpt>
      <trkpt lat="46.13198" lon="5.4375">
        <ele>316</ele>
        <time>2022-03-26T13:55:27Z</time>
      </trkpt>
      <trkpt lat="46.13212" lon="5.43751">
        <ele>316.8</ele>
        <time>2022-03-26T13:55:31Z</time>
      </trkpt>
      <trkpt lat="46.13231" lon="5.43753">
        <ele>317.8</ele>
        <time>2022-03-26T13:55:37Z</time>
      </trkpt>
      <trkpt lat="46.13244" lon="5.43754">
        <ele>318.6</ele>
        <time>2022-03-26T13:55:41Z</time>
      </trkpt>
      <trkpt lat="46.13246" lon="5.43754">
        <ele>319.2</ele>
        <time>2022-03-26T13:55:42Z</time>
      </trkpt>
      <trkpt lat="46.13255" lon="5.43752">
        <ele>319.8</ele>
        <time>2022-03-26T13:55:45Z</time>
      </trkpt>
      <trkpt lat="46.13258" lon="5.43749">
        <ele>320.2</ele>
        <time>2022-03-26T13:55:46Z</time>
      </trkpt>
      <trkpt lat="46.13263" lon="5.43737">
        <ele>320.8</ele>
        <time>2022-03-26T13:55:49Z</time>
      </trkpt>
      <trkpt lat="46.13261" lon="5.4372">
        <ele>321.6</ele>
        <time>2022-03-26T13:55:53Z</time>
      </trkpt>
      <trkpt lat="46.1326" lon="5.43716">
        <ele>322</ele>
        <time>2022-03-26T13:55:54Z</time>
      </trkpt>
      <trkpt lat="46.13257" lon="5.43708">
        <ele>322.6</ele>
        <time>2022-03-26T13:55:56Z</time>
      </trkpt>
      <trkpt lat="46.1325" lon="5.43692">
        <ele>323.6</ele>
        <time>2022-03-26T13:56:00Z</time>
      </trkpt>
      <trkpt lat="46.13248" lon="5.43688">
        <ele>323.8</ele>
        <time>2022-03-26T13:56:01Z</time>
      </trkpt>
      <trkpt lat="46.13238" lon="5.43662">
        <ele>325.2</ele>
        <time>2022-03-26T13:56:07Z</time>
      </trkpt>
      <trkpt lat="46.13235" lon="5.43646">
        <ele>325.8</ele>
        <time>2022-03-26T13:56:10Z</time>
      </trkpt>
      <trkpt lat="46.13234" lon="5.43631">
        <ele>326.4</ele>
        <time>2022-03-26T13:56:13Z</time>
      </trkpt>
      <trkpt lat="46.13236" lon="5.43605">
        <ele>326.8</ele>
        <time>2022-03-26T13:56:17Z</time>
      </trkpt>
      <trkpt lat="46.13245" lon="5.43579">
        <ele>326.8</ele>
        <time>2022-03-26T13:56:21Z</time>
      </trkpt>
      <trkpt lat="46.13249" lon="5.43574">
        <ele>326.8</ele>
        <time>2022-03-26T13:56:22Z</time>
      </trkpt>
      <trkpt lat="46.13257" lon="5.43564">
        <ele>326.8</ele>
        <time>2022-03-26T13:56:24Z</time>
      </trkpt>
      <trkpt lat="46.13269" lon="5.4355">
        <ele>327</ele>
        <time>2022-03-26T13:56:27Z</time>
      </trkpt>
      <trkpt lat="46.13298" lon="5.43515">
        <ele>327.4</ele>
        <time>2022-03-26T13:56:35Z</time>
      </trkpt>
      <trkpt lat="46.13302" lon="5.43511">
        <ele>327.4</ele>
        <time>2022-03-26T13:56:36Z</time>
      </trkpt>
      <trkpt lat="46.13311" lon="5.43503">
        <ele>327.4</ele>
        <time>2022-03-26T13:56:38Z</time>
      </trkpt>
      <trkpt lat="46.13324" lon="5.43493">
        <ele>327.4</ele>
        <time>2022-03-26T13:56:41Z</time>
      </trkpt>
      <trkpt lat="46.13329" lon="5.4349">
        <ele>327.4</ele>
        <time>2022-03-26T13:56:42Z</time>
      </trkpt>
      <trkpt lat="46.13353" lon="5.43479">
        <ele>327.4</ele>
        <time>2022-03-26T13:56:47Z</time>
      </trkpt>
      <trkpt lat="46.13386" lon="5.43467">
        <ele>328</ele>
        <time>2022-03-26T13:56:54Z</time>
      </trkpt>
      <trkpt lat="46.134" lon="5.43462">
        <ele>328.4</ele>
        <time>2022-03-26T13:56:57Z</time>
      </trkpt>
      <trkpt lat="46.13419" lon="5.43455">
        <ele>328.8</ele>
        <time>2022-03-26T13:57:01Z</time>
      </trkpt>
      <trkpt lat="46.13454" lon="5.4345">
        <ele>329.2</ele>
        <time>2022-03-26T13:57:08Z</time>
      </trkpt>
      <trkpt lat="46.13503" lon="5.43451">
        <ele>329</ele>
        <time>2022-03-26T13:57:17Z</time>
      </trkpt>
      <trkpt lat="46.13545" lon="5.43453">
        <ele>329.4</ele>
        <time>2022-03-26T13:57:25Z</time>
      </trkpt>
      <trkpt lat="46.13571" lon="5.43452">
        <ele>329.6</ele>
        <time>2022-03-26T13:57:30Z</time>
      </trkpt>
      <trkpt lat="46.13576" lon="5.43454">
        <ele>329.8</ele>
        <time>2022-03-26T13:57:31Z</time>
      </trkpt>
      <trkpt lat="46.1358" lon="5.43458">
        <ele>329.8</ele>
        <time>2022-03-26T13:57:32Z</time>
      </trkpt>
      <trkpt lat="46.13584" lon="5.4347">
        <ele>330.2</ele>
        <time>2022-03-26T13:57:34Z</time>
      </trkpt>
      <trkpt lat="46.13583" lon="5.43475">
        <ele>330.2</ele>
        <time>2022-03-26T13:57:35Z</time>
      </trkpt>
      <trkpt lat="46.13581" lon="5.43481">
        <ele>330.6</ele>
        <time>2022-03-26T13:57:36Z</time>
      </trkpt>
      <trkpt lat="46.13578" lon="5.43487">
        <ele>330.8</ele>
        <time>2022-03-26T13:57:37Z</time>
      </trkpt>
      <trkpt lat="46.13574" lon="5.43499">
        <ele>331</ele>
        <time>2022-03-26T13:57:39Z</time>
      </trkpt>
      <trkpt lat="46.13569" lon="5.43513">
        <ele>331.2</ele>
        <time>2022-03-26T13:57:41Z</time>
      </trkpt>
      <trkpt lat="46.13556" lon="5.43551">
        <ele>331.8</ele>
        <time>2022-03-26T13:57:47Z</time>
      </trkpt>
      <trkpt lat="46.13544" lon="5.43576">
        <ele>333.2</ele>
        <time>2022-03-26T13:57:52Z</time>
      </trkpt>
      <trkpt lat="46.13537" lon="5.43589">
        <ele>333.6</ele>
        <time>2022-03-26T13:57:55Z</time>
      </trkpt>
      <trkpt lat="46.13532" lon="5.43598">
        <ele>334.2</ele>
        <time>2022-03-26T13:57:57Z</time>
      </trkpt>
      <trkpt lat="46.13523" lon="5.43614">
        <ele>335.2</ele>
        <time>2022-03-26T13:58:01Z</time>
      </trkpt>
      <trkpt lat="46.13521" lon="5.43617">
        <ele>335.4</ele>
        <time>2022-03-26T13:58:02Z</time>
      </trkpt>
      <trkpt lat="46.13515" lon="5.43628">
        <ele>336.4</ele>
        <time>2022-03-26T13:58:05Z</time>
      </trkpt>
      <trkpt lat="46.13512" lon="5.43641">
        <ele>337.4</ele>
        <time>2022-03-26T13:58:08Z</time>
      </trkpt>
      <trkpt lat="46.13512" lon="5.43652">
        <ele>338.6</ele>
        <time>2022-03-26T13:58:11Z</time>
      </trkpt>
      <trkpt lat="46.13515" lon="5.43663">
        <ele>340</ele>
        <time>2022-03-26T13:58:14Z</time>
      </trkpt>
      <trkpt lat="46.13519" lon="5.43673">
        <ele>341.4</ele>
        <time>2022-03-26T13:58:17Z</time>
      </trkpt>
      <trkpt lat="46.13523" lon="5.43679">
        <ele>342.4</ele>
        <time>2022-03-26T13:58:19Z</time>
      </trkpt>
      <trkpt lat="46.13528" lon="5.43685">
        <ele>343.2</ele>
        <time>2022-03-26T13:58:21Z</time>
      </trkpt>
      <trkpt lat="46.1353" lon="5.43687">
        <ele>343.8</ele>
        <time>2022-03-26T13:58:22Z</time>
      </trkpt>
      <trkpt lat="46.13537" lon="5.43694">
        <ele>344.8</ele>
        <time>2022-03-26T13:58:25Z</time>
      </trkpt>
      <trkpt lat="46.13546" lon="5.43704">
        <ele>345.8</ele>
        <time>2022-03-26T13:58:29Z</time>
      </trkpt>
      <trkpt lat="46.13548" lon="5.43706">
        <ele>346</ele>
        <time>2022-03-26T13:58:30Z</time>
      </trkpt>
      <trkpt lat="46.13558" lon="5.43719">
        <ele>347</ele>
        <time>2022-03-26T13:58:35Z</time>
      </trkpt>
      <trkpt lat="46.13563" lon="5.43723">
        <ele>347.4</ele>
        <time>2022-03-26T13:58:37Z</time>
      </trkpt>
      <trkpt lat="46.13571" lon="5.43733">
        <ele>348.2</ele>
        <time>2022-03-26T13:58:41Z</time>
      </trkpt>
      <trkpt lat="46.1358" lon="5.43745">
        <ele>349</ele>
        <time>2022-03-26T13:58:46Z</time>
      </trkpt>
      <trkpt lat="46.13581" lon="5.43748">
        <ele>349.2</ele>
        <time>2022-03-26T13:58:47Z</time>
      </trkpt>
      <trkpt lat="46.13591" lon="5.4376">
        <ele>350.4</ele>
        <time>2022-03-26T13:58:52Z</time>
      </trkpt>
      <trkpt lat="46.13592" lon="5.43762">
        <ele>350.6</ele>
        <time>2022-03-26T13:58:53Z</time>
      </trkpt>
      <trkpt lat="46.13596" lon="5.43768">
        <ele>351.4</ele>
        <time>2022-03-26T13:58:58Z</time>
      </trkpt>
      <trkpt lat="46.13599" lon="5.43773">
        <ele>352.2</ele>
        <time>2022-03-26T14:00:14Z</time>
      </trkpt>
      <trkpt lat="46.13603" lon="5.43779">
        <ele>352.2</ele>
        <time>2022-03-26T14:00:16Z</time>
      </trkpt>
      <trkpt lat="46.13618" lon="5.43801">
        <ele>353.4</ele>
        <time>2022-03-26T14:00:23Z</time>
      </trkpt>
      <trkpt lat="46.1362" lon="5.43804">
        <ele>353.6</ele>
        <time>2022-03-26T14:00:24Z</time>
      </trkpt>
      <trkpt lat="46.1363" lon="5.43821">
        <ele>354.6</ele>
        <time>2022-03-26T14:00:29Z</time>
      </trkpt>
      <trkpt lat="46.13634" lon="5.43828">
        <ele>355</ele>
        <time>2022-03-26T14:00:31Z</time>
      </trkpt>
      <trkpt lat="46.13644" lon="5.43845">
        <ele>355.6</ele>
        <time>2022-03-26T14:00:36Z</time>
      </trkpt>
      <trkpt lat="46.13646" lon="5.43848">
        <ele>356.2</ele>
        <time>2022-03-26T14:00:37Z</time>
      </trkpt>
      <trkpt lat="46.13649" lon="5.43854">
        <ele>356.8</ele>
        <time>2022-03-26T14:00:39Z</time>
      </trkpt>
      <trkpt lat="46.13657" lon="5.43871">
        <ele>358</ele>
        <time>2022-03-26T14:00:44Z</time>
      </trkpt>
      <trkpt lat="46.13662" lon="5.43882">
        <ele>359.2</ele>
        <time>2022-03-26T14:00:48Z</time>
      </trkpt>
      <trkpt lat="46.13669" lon="5.43897">
        <ele>360</ele>
        <time>2022-03-26T14:00:54Z</time>
      </trkpt>
      <trkpt lat="46.1367" lon="5.439">
        <ele>360.4</ele>
        <time>2022-03-26T14:00:55Z</time>
      </trkpt>
      <trkpt lat="46.13675" lon="5.43912">
        <ele>361.6</ele>
        <time>2022-03-26T14:00:59Z</time>
      </trkpt>
      <trkpt lat="46.13678" lon="5.43915">
        <ele>361.8</ele>
        <time>2022-03-26T14:01:00Z</time>
      </trkpt>
      <trkpt lat="46.13685" lon="5.43929">
        <ele>362.8</ele>
        <time>2022-03-26T14:01:05Z</time>
      </trkpt>
      <trkpt lat="46.13687" lon="5.43934">
        <ele>363.6</ele>
        <time>2022-03-26T14:01:07Z</time>
      </trkpt>
      <trkpt lat="46.13689" lon="5.43937">
        <ele>363.8</ele>
        <time>2022-03-26T14:01:08Z</time>
      </trkpt>
      <trkpt lat="46.13691" lon="5.43943">
        <ele>364.2</ele>
        <time>2022-03-26T14:01:10Z</time>
      </trkpt>
      <trkpt lat="46.1369" lon="5.43946">
        <ele>364.6</ele>
        <time>2022-03-26T14:01:11Z</time>
      </trkpt>
      <trkpt lat="46.13686" lon="5.43948">
        <ele>364.8</ele>
        <time>2022-03-26T14:01:13Z</time>
      </trkpt>
      <trkpt lat="46.13682" lon="5.43946">
        <ele>365.2</ele>
        <time>2022-03-26T14:01:15Z</time>
      </trkpt>
      <trkpt lat="46.13673" lon="5.43939">
        <ele>366</ele>
        <time>2022-03-26T14:01:19Z</time>
      </trkpt>
      <trkpt lat="46.13668" lon="5.43936">
        <ele>366.6</ele>
        <time>2022-03-26T14:01:21Z</time>
      </trkpt>
      <trkpt lat="46.13657" lon="5.43929">
        <ele>367.4</ele>
        <time>2022-03-26T14:01:25Z</time>
      </trkpt>
      <trkpt lat="46.13654" lon="5.43927">
        <ele>367.6</ele>
        <time>2022-03-26T14:01:26Z</time>
      </trkpt>
      <trkpt lat="46.13639" lon="5.43916">
        <ele>368.6</ele>
        <time>2022-03-26T14:01:32Z</time>
      </trkpt>
      <trkpt lat="46.13637" lon="5.43915">
        <ele>368.8</ele>
        <time>2022-03-26T14:01:33Z</time>
      </trkpt>
      <trkpt lat="46.13623" lon="5.43907">
        <ele>369.6</ele>
        <time>2022-03-26T14:01:38Z</time>
      </trkpt>
      <trkpt lat="46.13621" lon="5.43906">
        <ele>369.8</ele>
        <time>2022-03-26T14:01:39Z</time>
      </trkpt>
      <trkpt lat="46.13602" lon="5.43898">
        <ele>370.6</ele>
        <time>2022-03-26T14:01:46Z</time>
      </trkpt>
      <trkpt lat="46.13599" lon="5.43897">
        <ele>370.8</ele>
        <time>2022-03-26T14:01:47Z</time>
      </trkpt>
      <trkpt lat="46.13588" lon="5.43893">
        <ele>372</ele>
        <time>2022-03-26T14:01:51Z</time>
      </trkpt>
      <trkpt lat="46.1358" lon="5.43889">
        <ele>372.4</ele>
        <time>2022-03-26T14:01:54Z</time>
      </trkpt>
      <trkpt lat="46.13572" lon="5.43887">
        <ele>373</ele>
        <time>2022-03-26T14:01:57Z</time>
      </trkpt>
      <trkpt lat="46.13563" lon="5.43887">
        <ele>373.6</ele>
        <time>2022-03-26T14:02:00Z</time>
      </trkpt>
      <trkpt lat="46.13561" lon="5.43889">
        <ele>373.8</ele>
        <time>2022-03-26T14:02:01Z</time>
      </trkpt>
      <trkpt lat="46.1356" lon="5.43892">
        <ele>374.2</ele>
        <time>2022-03-26T14:02:02Z</time>
      </trkpt>
      <trkpt lat="46.1356" lon="5.439">
        <ele>374.6</ele>
        <time>2022-03-26T14:02:04Z</time>
      </trkpt>
      <trkpt lat="46.13566" lon="5.43911">
        <ele>375.2</ele>
        <time>2022-03-26T14:02:08Z</time>
      </trkpt>
      <trkpt lat="46.1357" lon="5.43915">
        <ele>376</ele>
        <time>2022-03-26T14:02:10Z</time>
      </trkpt>
      <trkpt lat="46.13573" lon="5.43918">
        <ele>376.4</ele>
        <time>2022-03-26T14:02:11Z</time>
      </trkpt>
      <trkpt lat="46.13578" lon="5.43924">
        <ele>377.8</ele>
        <time>2022-03-26T14:02:14Z</time>
      </trkpt>
      <trkpt lat="46.13586" lon="5.43934">
        <ele>379.2</ele>
        <time>2022-03-26T14:02:18Z</time>
      </trkpt>
      <trkpt lat="46.13589" lon="5.4394">
        <ele>379.6</ele>
        <time>2022-03-26T14:02:20Z</time>
      </trkpt>
      <trkpt lat="46.13593" lon="5.43948">
        <ele>380.2</ele>
        <time>2022-03-26T14:02:23Z</time>
      </trkpt>
      <trkpt lat="46.13599" lon="5.43963">
        <ele>381.4</ele>
        <time>2022-03-26T14:02:28Z</time>
      </trkpt>
      <trkpt lat="46.13604" lon="5.43973">
        <ele>381.8</ele>
        <time>2022-03-26T14:02:31Z</time>
      </trkpt>
      <trkpt lat="46.1361" lon="5.43986">
        <ele>382.6</ele>
        <time>2022-03-26T14:02:35Z</time>
      </trkpt>
      <trkpt lat="46.13618" lon="5.44">
        <ele>383.6</ele>
        <time>2022-03-26T14:02:40Z</time>
      </trkpt>
      <trkpt lat="46.1362" lon="5.44003">
        <ele>383.8</ele>
        <time>2022-03-26T14:02:41Z</time>
      </trkpt>
      <trkpt lat="46.13628" lon="5.4402">
        <ele>385</ele>
        <time>2022-03-26T14:02:46Z</time>
      </trkpt>
      <trkpt lat="46.13631" lon="5.44026">
        <ele>385.6</ele>
        <time>2022-03-26T14:02:48Z</time>
      </trkpt>
      <trkpt lat="46.13634" lon="5.44032">
        <ele>386</ele>
        <time>2022-03-26T14:02:50Z</time>
      </trkpt>
      <trkpt lat="46.13638" lon="5.44044">
        <ele>386.6</ele>
        <time>2022-03-26T14:02:54Z</time>
      </trkpt>
      <trkpt lat="46.1364" lon="5.44047">
        <ele>387</ele>
        <time>2022-03-26T14:02:55Z</time>
      </trkpt>
      <trkpt lat="46.13645" lon="5.44064">
        <ele>388.2</ele>
        <time>2022-03-26T14:03:00Z</time>
      </trkpt>
      <trkpt lat="46.13646" lon="5.44067">
        <ele>388.2</ele>
        <time>2022-03-26T14:03:01Z</time>
      </trkpt>
      <trkpt lat="46.13649" lon="5.44082">
        <ele>389.4</ele>
        <time>2022-03-26T14:03:05Z</time>
      </trkpt>
      <trkpt lat="46.1365" lon="5.44094">
        <ele>389.8</ele>
        <time>2022-03-26T14:03:08Z</time>
      </trkpt>
      <trkpt lat="46.13653" lon="5.44111">
        <ele>390.4</ele>
        <time>2022-03-26T14:03:12Z</time>
      </trkpt>
      <trkpt lat="46.13654" lon="5.44119">
        <ele>390.8</ele>
        <time>2022-03-26T14:03:14Z</time>
      </trkpt>
      <trkpt lat="46.13655" lon="5.44122">
        <ele>391</ele>
        <time>2022-03-26T14:03:15Z</time>
      </trkpt>
      <trkpt lat="46.13656" lon="5.44125">
        <ele>391.4</ele>
        <time>2022-03-26T14:03:16Z</time>
      </trkpt>
      <trkpt lat="46.13657" lon="5.44128">
        <ele>391.8</ele>
        <time>2022-03-26T14:03:17Z</time>
      </trkpt>
      <trkpt lat="46.13657" lon="5.44131">
        <ele>392</ele>
        <time>2022-03-26T14:03:18Z</time>
      </trkpt>
      <trkpt lat="46.13661" lon="5.4414">
        <ele>392.8</ele>
        <time>2022-03-26T14:03:21Z</time>
      </trkpt>
      <trkpt lat="46.13661" lon="5.44142">
        <ele>392.8</ele>
        <time>2022-03-26T14:03:22Z</time>
      </trkpt>
      <trkpt lat="46.13669" lon="5.44157">
        <ele>393.6</ele>
        <time>2022-03-26T14:03:26Z</time>
      </trkpt>
      <trkpt lat="46.13671" lon="5.44161">
        <ele>393.8</ele>
        <time>2022-03-26T14:03:27Z</time>
      </trkpt>
      <trkpt lat="46.13673" lon="5.44165">
        <ele>394</ele>
        <time>2022-03-26T14:03:28Z</time>
      </trkpt>
      <trkpt lat="46.13681" lon="5.44177">
        <ele>394.6</ele>
        <time>2022-03-26T14:03:31Z</time>
      </trkpt>
      <trkpt lat="46.13685" lon="5.44181">
        <ele>395</ele>
        <time>2022-03-26T14:03:32Z</time>
      </trkpt>
      <trkpt lat="46.13689" lon="5.44185">
        <ele>395.2</ele>
        <time>2022-03-26T14:03:33Z</time>
      </trkpt>
      <trkpt lat="46.13701" lon="5.44202">
        <ele>396.2</ele>
        <time>2022-03-26T14:03:38Z</time>
      </trkpt>
      <trkpt lat="46.13712" lon="5.44212">
        <ele>397.6</ele>
        <time>2022-03-26T14:03:42Z</time>
      </trkpt>
      <trkpt lat="46.13716" lon="5.44217">
        <ele>398.2</ele>
        <time>2022-03-26T14:03:44Z</time>
      </trkpt>
      <trkpt lat="46.13725" lon="5.44223">
        <ele>398.6</ele>
        <time>2022-03-26T14:03:46Z</time>
      </trkpt>
      <trkpt lat="46.13727" lon="5.44226">
        <ele>398.8</ele>
        <time>2022-03-26T14:03:47Z</time>
      </trkpt>
      <trkpt lat="46.13729" lon="5.4423">
        <ele>399</ele>
        <time>2022-03-26T14:03:48Z</time>
      </trkpt>
      <trkpt lat="46.13743" lon="5.44248">
        <ele>400.2</ele>
        <time>2022-03-26T14:03:53Z</time>
      </trkpt>
      <trkpt lat="46.13752" lon="5.44257">
        <ele>401</ele>
        <time>2022-03-26T14:03:56Z</time>
      </trkpt>
      <trkpt lat="46.13756" lon="5.44259">
        <ele>401.4</ele>
        <time>2022-03-26T14:03:57Z</time>
      </trkpt>
      <trkpt lat="46.13766" lon="5.44265">
        <ele>402.6</ele>
        <time>2022-03-26T14:04:00Z</time>
      </trkpt>
      <trkpt lat="46.13778" lon="5.4428">
        <ele>403.6</ele>
        <time>2022-03-26T14:04:05Z</time>
      </trkpt>
      <trkpt lat="46.13786" lon="5.44289">
        <ele>404.8</ele>
        <time>2022-03-26T14:04:09Z</time>
      </trkpt>
      <trkpt lat="46.13791" lon="5.44297">
        <ele>405.4</ele>
        <time>2022-03-26T14:04:12Z</time>
      </trkpt>
      <trkpt lat="46.138" lon="5.44307">
        <ele>406</ele>
        <time>2022-03-26T14:04:16Z</time>
      </trkpt>
      <trkpt lat="46.13808" lon="5.44316">
        <ele>407.2</ele>
        <time>2022-03-26T14:04:20Z</time>
      </trkpt>
      <trkpt lat="46.13815" lon="5.44326">
        <ele>408</ele>
        <time>2022-03-26T14:04:24Z</time>
      </trkpt>
      <trkpt lat="46.13821" lon="5.44334">
        <ele>408.6</ele>
        <time>2022-03-26T14:04:27Z</time>
      </trkpt>
      <trkpt lat="46.13828" lon="5.44341">
        <ele>409.4</ele>
        <time>2022-03-26T14:04:30Z</time>
      </trkpt>
      <trkpt lat="46.13835" lon="5.44348">
        <ele>409.8</ele>
        <time>2022-03-26T14:04:33Z</time>
      </trkpt>
      <trkpt lat="46.13844" lon="5.44358">
        <ele>410.6</ele>
        <time>2022-03-26T14:04:37Z</time>
      </trkpt>
      <trkpt lat="46.13847" lon="5.44361">
        <ele>410.6</ele>
        <time>2022-03-26T14:04:38Z</time>
      </trkpt>
      <trkpt lat="46.13858" lon="5.44371">
        <ele>411.4</ele>
        <time>2022-03-26T14:04:42Z</time>
      </trkpt>
      <trkpt lat="46.13863" lon="5.44374">
        <ele>412</ele>
        <time>2022-03-26T14:04:44Z</time>
      </trkpt>
      <trkpt lat="46.13871" lon="5.44382">
        <ele>412.6</ele>
        <time>2022-03-26T14:04:47Z</time>
      </trkpt>
      <trkpt lat="46.13883" lon="5.44392">
        <ele>413.2</ele>
        <time>2022-03-26T14:04:51Z</time>
      </trkpt>
      <trkpt lat="46.1389" lon="5.444">
        <ele>413.8</ele>
        <time>2022-03-26T14:04:54Z</time>
      </trkpt>
      <trkpt lat="46.13899" lon="5.44412">
        <ele>414.6</ele>
        <time>2022-03-26T14:04:58Z</time>
      </trkpt>
      <trkpt lat="46.13901" lon="5.44415">
        <ele>415</ele>
        <time>2022-03-26T14:04:59Z</time>
      </trkpt>
      <trkpt lat="46.13906" lon="5.44425">
        <ele>415.2</ele>
        <time>2022-03-26T14:05:02Z</time>
      </trkpt>
      <trkpt lat="46.13911" lon="5.44433">
        <ele>415.8</ele>
        <time>2022-03-26T14:05:05Z</time>
      </trkpt>
      <trkpt lat="46.13915" lon="5.44439">
        <ele>416.4</ele>
        <time>2022-03-26T14:05:07Z</time>
      </trkpt>
      <trkpt lat="46.13916" lon="5.44442">
        <ele>416.4</ele>
        <time>2022-03-26T14:05:08Z</time>
      </trkpt>
      <trkpt lat="46.13919" lon="5.44449">
        <ele>417</ele>
        <time>2022-03-26T14:05:10Z</time>
      </trkpt>
      <trkpt lat="46.13927" lon="5.44461">
        <ele>417.6</ele>
        <time>2022-03-26T14:05:14Z</time>
      </trkpt>
      <trkpt lat="46.13928" lon="5.44464">
        <ele>417.8</ele>
        <time>2022-03-26T14:05:15Z</time>
      </trkpt>
      <trkpt lat="46.13937" lon="5.44476">
        <ele>418.4</ele>
        <time>2022-03-26T14:05:20Z</time>
      </trkpt>
      <trkpt lat="46.13941" lon="5.44482">
        <ele>419</ele>
        <time>2022-03-26T14:05:22Z</time>
      </trkpt>
      <trkpt lat="46.13949" lon="5.44492">
        <ele>420.2</ele>
        <time>2022-03-26T14:05:26Z</time>
      </trkpt>
      <trkpt lat="46.13952" lon="5.44494">
        <ele>420.4</ele>
        <time>2022-03-26T14:05:27Z</time>
      </trkpt>
      <trkpt lat="46.13959" lon="5.44499">
        <ele>421.4</ele>
        <time>2022-03-26T14:05:30Z</time>
      </trkpt>
      <trkpt lat="46.13964" lon="5.44505">
        <ele>422</ele>
        <time>2022-03-26T14:05:33Z</time>
      </trkpt>
      <trkpt lat="46.13969" lon="5.44509">
        <ele>422.2</ele>
        <time>2022-03-26T14:05:35Z</time>
      </trkpt>
      <trkpt lat="46.13976" lon="5.44514">
        <ele>422.4</ele>
        <time>2022-03-26T14:05:37Z</time>
      </trkpt>
      <trkpt lat="46.13979" lon="5.44517">
        <ele>422.4</ele>
        <time>2022-03-26T14:05:38Z</time>
      </trkpt>
      <trkpt lat="46.13991" lon="5.44528">
        <ele>423.6</ele>
        <time>2022-03-26T14:05:42Z</time>
      </trkpt>
      <trkpt lat="46.13997" lon="5.44535">
        <ele>424.4</ele>
        <time>2022-03-26T14:05:45Z</time>
      </trkpt>
      <trkpt lat="46.14" lon="5.44537">
        <ele>424.6</ele>
        <time>2022-03-26T14:05:46Z</time>
      </trkpt>
      <trkpt lat="46.14011" lon="5.44543">
        <ele>425.2</ele>
        <time>2022-03-26T14:05:50Z</time>
      </trkpt>
      <trkpt lat="46.14014" lon="5.44545">
        <ele>425.6</ele>
        <time>2022-03-26T14:05:51Z</time>
      </trkpt>
      <trkpt lat="46.14019" lon="5.44549">
        <ele>425.8</ele>
        <time>2022-03-26T14:05:53Z</time>
      </trkpt>
      <trkpt lat="46.14032" lon="5.4456">
        <ele>426.8</ele>
        <time>2022-03-26T14:05:58Z</time>
      </trkpt>
      <trkpt lat="46.14038" lon="5.44564">
        <ele>427.2</ele>
        <time>2022-03-26T14:06:00Z</time>
      </trkpt>
      <trkpt lat="46.14041" lon="5.44577">
        <ele>428</ele>
        <time>2022-03-26T14:06:03Z</time>
      </trkpt>
      <trkpt lat="46.14039" lon="5.44582">
        <ele>428</ele>
        <time>2022-03-26T14:06:04Z</time>
      </trkpt>
      <trkpt lat="46.1403" lon="5.44598">
        <ele>429</ele>
        <time>2022-03-26T14:06:09Z</time>
      </trkpt>
      <trkpt lat="46.14022" lon="5.44611">
        <ele>430.4</ele>
        <time>2022-03-26T14:06:14Z</time>
      </trkpt>
      <trkpt lat="46.14017" lon="5.44628">
        <ele>431.6</ele>
        <time>2022-03-26T14:06:18Z</time>
      </trkpt>
      <trkpt lat="46.14013" lon="5.44638">
        <ele>432.2</ele>
        <time>2022-03-26T14:06:21Z</time>
      </trkpt>
      <trkpt lat="46.14012" lon="5.44646">
        <ele>432.6</ele>
        <time>2022-03-26T14:06:23Z</time>
      </trkpt>
      <trkpt lat="46.14011" lon="5.44668">
        <ele>433.8</ele>
        <time>2022-03-26T14:06:28Z</time>
      </trkpt>
      <trkpt lat="46.1401" lon="5.44699">
        <ele>434.8</ele>
        <time>2022-03-26T14:06:35Z</time>
      </trkpt>
      <trkpt lat="46.1401" lon="5.44703">
        <ele>435.2</ele>
        <time>2022-03-26T14:06:36Z</time>
      </trkpt>
      <trkpt lat="46.14012" lon="5.44726">
        <ele>436</ele>
        <time>2022-03-26T14:06:41Z</time>
      </trkpt>
      <trkpt lat="46.14011" lon="5.44735">
        <ele>436.4</ele>
        <time>2022-03-26T14:06:43Z</time>
      </trkpt>
      <trkpt lat="46.1401" lon="5.44742">
        <ele>436.8</ele>
        <time>2022-03-26T14:06:45Z</time>
      </trkpt>
      <trkpt lat="46.1401" lon="5.44746">
        <ele>437</ele>
        <time>2022-03-26T14:06:46Z</time>
      </trkpt>
      <trkpt lat="46.14009" lon="5.44748">
        <ele>437.2</ele>
        <time>2022-03-26T14:06:47Z</time>
      </trkpt>
      <trkpt lat="46.14008" lon="5.44752">
        <ele>437.4</ele>
        <time>2022-03-26T14:06:48Z</time>
      </trkpt>
      <trkpt lat="46.14007" lon="5.44759">
        <ele>438</ele>
        <time>2022-03-26T14:06:50Z</time>
      </trkpt>
      <trkpt lat="46.14006" lon="5.44765">
        <ele>438.4</ele>
        <time>2022-03-26T14:06:52Z</time>
      </trkpt>
      <trkpt lat="46.14008" lon="5.44778">
        <ele>439.2</ele>
        <time>2022-03-26T14:06:55Z</time>
      </trkpt>
      <trkpt lat="46.14005" lon="5.44786">
        <ele>440</ele>
        <time>2022-03-26T14:06:58Z</time>
      </trkpt>
      <trkpt lat="46.14006" lon="5.44791">
        <ele>440.2</ele>
        <time>2022-03-26T14:06:59Z</time>
      </trkpt>
      <trkpt lat="46.14005" lon="5.44808">
        <ele>441.2</ele>
        <time>2022-03-26T14:07:03Z</time>
      </trkpt>
      <trkpt lat="46.14005" lon="5.44818">
        <ele>442.4</ele>
        <time>2022-03-26T14:07:06Z</time>
      </trkpt>
      <trkpt lat="46.14004" lon="5.44822">
        <ele>442.6</ele>
        <time>2022-03-26T14:07:07Z</time>
      </trkpt>
      <trkpt lat="46.14" lon="5.44834">
        <ele>443.6</ele>
        <time>2022-03-26T14:07:10Z</time>
      </trkpt>
      <trkpt lat="46.13994" lon="5.44847">
        <ele>444.4</ele>
        <time>2022-03-26T14:07:15Z</time>
      </trkpt>
      <trkpt lat="46.13993" lon="5.4485">
        <ele>444.8</ele>
        <time>2022-03-26T14:07:16Z</time>
      </trkpt>
      <trkpt lat="46.13993" lon="5.44859">
        <ele>445.6</ele>
        <time>2022-03-26T14:07:19Z</time>
      </trkpt>
      <trkpt lat="46.13992" lon="5.44862">
        <ele>445.8</ele>
        <time>2022-03-26T14:07:20Z</time>
      </trkpt>
      <trkpt lat="46.13991" lon="5.44868">
        <ele>446</ele>
        <time>2022-03-26T14:07:22Z</time>
      </trkpt>
      <trkpt lat="46.13989" lon="5.4488">
        <ele>447.4</ele>
        <time>2022-03-26T14:07:26Z</time>
      </trkpt>
      <trkpt lat="46.13988" lon="5.44883">
        <ele>447.8</ele>
        <time>2022-03-26T14:07:27Z</time>
      </trkpt>
      <trkpt lat="46.13986" lon="5.44889">
        <ele>448</ele>
        <time>2022-03-26T14:07:29Z</time>
      </trkpt>
      <trkpt lat="46.13984" lon="5.44898">
        <ele>448.4</ele>
        <time>2022-03-26T14:07:32Z</time>
      </trkpt>
      <trkpt lat="46.13983" lon="5.44901">
        <ele>448.8</ele>
        <time>2022-03-26T14:07:33Z</time>
      </trkpt>
      <trkpt lat="46.1398" lon="5.44914">
        <ele>449.6</ele>
        <time>2022-03-26T14:07:37Z</time>
      </trkpt>
      <trkpt lat="46.13979" lon="5.44926">
        <ele>450.2</ele>
        <time>2022-03-26T14:07:40Z</time>
      </trkpt>
      <trkpt lat="46.13978" lon="5.44929">
        <ele>450.6</ele>
        <time>2022-03-26T14:07:41Z</time>
      </trkpt>
      <trkpt lat="46.13973" lon="5.44945">
        <ele>451.6</ele>
        <time>2022-03-26T14:07:45Z</time>
      </trkpt>
      <trkpt lat="46.13971" lon="5.44947">
        <ele>451.6</ele>
        <time>2022-03-26T14:07:46Z</time>
      </trkpt>
      <trkpt lat="46.1397" lon="5.44958">
        <ele>452.6</ele>
        <time>2022-03-26T14:07:49Z</time>
      </trkpt>
      <trkpt lat="46.13966" lon="5.44972">
        <ele>453.2</ele>
        <time>2022-03-26T14:07:53Z</time>
      </trkpt>
      <trkpt lat="46.13962" lon="5.44976">
        <ele>453.6</ele>
        <time>2022-03-26T14:07:55Z</time>
      </trkpt>
      <trkpt lat="46.13955" lon="5.44982">
        <ele>454.2</ele>
        <time>2022-03-26T14:07:58Z</time>
      </trkpt>
      <trkpt lat="46.13949" lon="5.44988">
        <ele>455</ele>
        <time>2022-03-26T14:08:01Z</time>
      </trkpt>
      <trkpt lat="46.13941" lon="5.4499">
        <ele>455.6</ele>
        <time>2022-03-26T14:08:05Z</time>
      </trkpt>
      <trkpt lat="46.13937" lon="5.4499">
        <ele>456</ele>
        <time>2022-03-26T14:08:07Z</time>
      </trkpt>
      <trkpt lat="46.13932" lon="5.4499">
        <ele>457</ele>
        <time>2022-03-26T14:08:10Z</time>
      </trkpt>
      <trkpt lat="46.1393" lon="5.44991">
        <ele>457.4</ele>
        <time>2022-03-26T14:08:11Z</time>
      </trkpt>
      <trkpt lat="46.13922" lon="5.44996">
        <ele>458.4</ele>
        <time>2022-03-26T14:08:15Z</time>
      </trkpt>
      <trkpt lat="46.13914" lon="5.45002">
        <ele>459.2</ele>
        <time>2022-03-26T14:08:19Z</time>
      </trkpt>
      <trkpt lat="46.13912" lon="5.45004">
        <ele>459.4</ele>
        <time>2022-03-26T14:08:20Z</time>
      </trkpt>
      <trkpt lat="46.13909" lon="5.45008">
        <ele>459.8</ele>
        <time>2022-03-26T14:08:22Z</time>
      </trkpt>
      <trkpt lat="46.13907" lon="5.4501">
        <ele>460.2</ele>
        <time>2022-03-26T14:08:23Z</time>
      </trkpt>
      <trkpt lat="46.13906" lon="5.45012">
        <ele>460.6</ele>
        <time>2022-03-26T14:08:24Z</time>
      </trkpt>
      <trkpt lat="46.13899" lon="5.45029">
        <ele>461.4</ele>
        <time>2022-03-26T14:08:30Z</time>
      </trkpt>
      <trkpt lat="46.13896" lon="5.45038">
        <ele>461.6</ele>
        <time>2022-03-26T14:08:32Z</time>
      </trkpt>
      <trkpt lat="46.13891" lon="5.45052">
        <ele>462.6</ele>
        <time>2022-03-26T14:08:37Z</time>
      </trkpt>
      <trkpt lat="46.13889" lon="5.45055">
        <ele>463</ele>
        <time>2022-03-26T14:08:38Z</time>
      </trkpt>
      <trkpt lat="46.13885" lon="5.45074">
        <ele>464</ele>
        <time>2022-03-26T14:08:43Z</time>
      </trkpt>
      <trkpt lat="46.13885" lon="5.45086">
        <ele>464.4</ele>
        <time>2022-03-26T14:08:46Z</time>
      </trkpt>
      <trkpt lat="46.13884" lon="5.4509">
        <ele>465</ele>
        <time>2022-03-26T14:08:48Z</time>
      </trkpt>
      <trkpt lat="46.13885" lon="5.45106">
        <ele>466</ele>
        <time>2022-03-26T14:08:53Z</time>
      </trkpt>
      <trkpt lat="46.13885" lon="5.4511">
        <ele>466.4</ele>
        <time>2022-03-26T14:08:54Z</time>
      </trkpt>
      <trkpt lat="46.1389" lon="5.45125">
        <ele>467.4</ele>
        <time>2022-03-26T14:08:59Z</time>
      </trkpt>
      <trkpt lat="46.13891" lon="5.45128">
        <ele>467.6</ele>
        <time>2022-03-26T14:09:00Z</time>
      </trkpt>
      <trkpt lat="46.13892" lon="5.45131">
        <ele>467.8</ele>
        <time>2022-03-26T14:09:01Z</time>
      </trkpt>
      <trkpt lat="46.13894" lon="5.4514">
        <ele>468.6</ele>
        <time>2022-03-26T14:09:04Z</time>
      </trkpt>
      <trkpt lat="46.13896" lon="5.45145">
        <ele>469</ele>
        <time>2022-03-26T14:09:06Z</time>
      </trkpt>
      <trkpt lat="46.139" lon="5.45149">
        <ele>469.2</ele>
        <time>2022-03-26T14:09:08Z</time>
      </trkpt>
      <trkpt lat="46.13906" lon="5.45156">
        <ele>469.8</ele>
        <time>2022-03-26T14:09:11Z</time>
      </trkpt>
      <trkpt lat="46.13913" lon="5.45168">
        <ele>470.6</ele>
        <time>2022-03-26T14:09:15Z</time>
      </trkpt>
      <trkpt lat="46.13914" lon="5.45175">
        <ele>471</ele>
        <time>2022-03-26T14:09:17Z</time>
      </trkpt>
      <trkpt lat="46.13912" lon="5.45187">
        <ele>471.6</ele>
        <time>2022-03-26T14:09:21Z</time>
      </trkpt>
      <trkpt lat="46.13911" lon="5.45191">
        <ele>472</ele>
        <time>2022-03-26T14:09:22Z</time>
      </trkpt>
      <trkpt lat="46.13904" lon="5.45213">
        <ele>473</ele>
        <time>2022-03-26T14:09:29Z</time>
      </trkpt>
      <trkpt lat="46.13898" lon="5.45223">
        <ele>474</ele>
        <time>2022-03-26T14:09:33Z</time>
      </trkpt>
      <trkpt lat="46.13898" lon="5.45224">
        <ele>474.2</ele>
        <time>2022-03-26T14:09:34Z</time>
      </trkpt>
      <trkpt lat="46.13893" lon="5.45241">
        <ele>475.4</ele>
        <time>2022-03-26T14:09:39Z</time>
      </trkpt>
      <trkpt lat="46.13893" lon="5.45245">
        <ele>475.4</ele>
        <time>2022-03-26T14:09:40Z</time>
      </trkpt>
      <trkpt lat="46.13892" lon="5.45254">
        <ele>476.6</ele>
        <time>2022-03-26T14:09:43Z</time>
      </trkpt>
      <trkpt lat="46.13891" lon="5.45277">
        <ele>477.6</ele>
        <time>2022-03-26T14:09:47Z</time>
      </trkpt>
      <trkpt lat="46.1389" lon="5.45286">
        <ele>478.4</ele>
        <time>2022-03-26T14:09:49Z</time>
      </trkpt>
      <trkpt lat="46.1389" lon="5.45294">
        <ele>478.8</ele>
        <time>2022-03-26T14:09:51Z</time>
      </trkpt>
      <trkpt lat="46.13886" lon="5.45314">
        <ele>480</ele>
        <time>2022-03-26T14:09:56Z</time>
      </trkpt>
      <trkpt lat="46.13885" lon="5.45318">
        <ele>480.6</ele>
        <time>2022-03-26T14:09:57Z</time>
      </trkpt>
      <trkpt lat="46.13883" lon="5.45332">
        <ele>481.2</ele>
        <time>2022-03-26T14:10:01Z</time>
      </trkpt>
      <trkpt lat="46.13877" lon="5.45352">
        <ele>482.4</ele>
        <time>2022-03-26T14:10:07Z</time>
      </trkpt>
      <trkpt lat="46.13876" lon="5.45355">
        <ele>482.4</ele>
        <time>2022-03-26T14:10:08Z</time>
      </trkpt>
      <trkpt lat="46.1387" lon="5.45367">
        <ele>483.4</ele>
        <time>2022-03-26T14:10:13Z</time>
      </trkpt>
      <trkpt lat="46.13869" lon="5.45369">
        <ele>483.4</ele>
        <time>2022-03-26T14:10:14Z</time>
      </trkpt>
      <trkpt lat="46.13865" lon="5.45375">
        <ele>484.4</ele>
        <time>2022-03-26T14:10:17Z</time>
      </trkpt>
      <trkpt lat="46.13864" lon="5.45375">
        <ele>484.8</ele>
        <time>2022-03-26T14:10:18Z</time>
      </trkpt>
      <trkpt lat="46.1386" lon="5.45377">
        <ele>485.4</ele>
        <time>2022-03-26T14:10:20Z</time>
      </trkpt>
      <trkpt lat="46.13857" lon="5.45378">
        <ele>485.4</ele>
        <time>2022-03-26T14:10:21Z</time>
      </trkpt>
      <trkpt lat="46.13846" lon="5.45382">
        <ele>486.6</ele>
        <time>2022-03-26T14:10:26Z</time>
      </trkpt>
      <trkpt lat="46.1384" lon="5.45385">
        <ele>487</ele>
        <time>2022-03-26T14:10:28Z</time>
      </trkpt>
      <trkpt lat="46.13835" lon="5.45388">
        <ele>487.6</ele>
        <time>2022-03-26T14:10:30Z</time>
      </trkpt>
      <trkpt lat="46.13827" lon="5.45399">
        <ele>488.6</ele>
        <time>2022-03-26T14:10:36Z</time>
      </trkpt>
      <trkpt lat="46.1382" lon="5.45415">
        <ele>489.6</ele>
        <time>2022-03-26T14:10:41Z</time>
      </trkpt>
      <trkpt lat="46.13818" lon="5.45424">
        <ele>490.2</ele>
        <time>2022-03-26T14:10:43Z</time>
      </trkpt>
      <trkpt lat="46.13816" lon="5.4543">
        <ele>490.6</ele>
        <time>2022-03-26T14:10:45Z</time>
      </trkpt>
      <trkpt lat="46.13815" lon="5.45438">
        <ele>491</ele>
        <time>2022-03-26T14:10:46Z</time>
      </trkpt>
      <trkpt lat="46.13812" lon="5.45458">
        <ele>492</ele>
        <time>2022-03-26T14:10:50Z</time>
      </trkpt>
      <trkpt lat="46.13808" lon="5.45474">
        <ele>493.2</ele>
        <time>2022-03-26T14:10:54Z</time>
      </trkpt>
      <trkpt lat="46.13809" lon="5.45499">
        <ele>494</ele>
        <time>2022-03-26T14:11:00Z</time>
      </trkpt>
      <trkpt lat="46.1381" lon="5.45505">
        <ele>494.6</ele>
        <time>2022-03-26T14:11:02Z</time>
      </trkpt>
      <trkpt lat="46.13808" lon="5.45517">
        <ele>495.4</ele>
        <time>2022-03-26T14:11:04Z</time>
      </trkpt>
      <trkpt lat="46.13807" lon="5.45523">
        <ele>496</ele>
        <time>2022-03-26T14:11:06Z</time>
      </trkpt>
      <trkpt lat="46.13807" lon="5.45526">
        <ele>496.2</ele>
        <time>2022-03-26T14:11:07Z</time>
      </trkpt>
      <trkpt lat="46.13807" lon="5.45545">
        <ele>497</ele>
        <time>2022-03-26T14:11:12Z</time>
      </trkpt>
      <trkpt lat="46.13806" lon="5.45554">
        <ele>497.2</ele>
        <time>2022-03-26T14:11:14Z</time>
      </trkpt>
      <trkpt lat="46.13805" lon="5.45576">
        <ele>498.2</ele>
        <time>2022-03-26T14:11:20Z</time>
      </trkpt>
      <trkpt lat="46.13805" lon="5.45579">
        <ele>498.6</ele>
        <time>2022-03-26T14:11:21Z</time>
      </trkpt>
      <trkpt lat="46.13803" lon="5.45596">
        <ele>499.4</ele>
        <time>2022-03-26T14:11:26Z</time>
      </trkpt>
      <trkpt lat="46.13801" lon="5.45603">
        <ele>500.4</ele>
        <time>2022-03-26T14:11:28Z</time>
      </trkpt>
      <trkpt lat="46.13799" lon="5.45605">
        <ele>500.6</ele>
        <time>2022-03-26T14:11:29Z</time>
      </trkpt>
      <trkpt lat="46.13788" lon="5.45617">
        <ele>501.2</ele>
        <time>2022-03-26T14:11:33Z</time>
      </trkpt>
      <trkpt lat="46.13784" lon="5.45619">
        <ele>501.2</ele>
        <time>2022-03-26T14:11:34Z</time>
      </trkpt>
      <trkpt lat="46.13763" lon="5.45619">
        <ele>501.4</ele>
        <time>2022-03-26T14:11:39Z</time>
      </trkpt>
      <trkpt lat="46.13725" lon="5.45621">
        <ele>501.6</ele>
        <time>2022-03-26T14:11:47Z</time>
      </trkpt>
      <trkpt lat="46.1369" lon="5.45625">
        <ele>501.6</ele>
        <time>2022-03-26T14:11:53Z</time>
      </trkpt>
      <trkpt lat="46.13673" lon="5.45625">
        <ele>501.6</ele>
        <time>2022-03-26T14:11:56Z</time>
      </trkpt>
      <trkpt lat="46.13652" lon="5.45621">
        <ele>501.8</ele>
        <time>2022-03-26T14:12:00Z</time>
      </trkpt>
      <trkpt lat="46.13628" lon="5.45613">
        <ele>502.8</ele>
        <time>2022-03-26T14:12:05Z</time>
      </trkpt>
      <trkpt lat="46.13613" lon="5.45607">
        <ele>503.8</ele>
        <time>2022-03-26T14:12:08Z</time>
      </trkpt>
      <trkpt lat="46.13577" lon="5.45593">
        <ele>505</ele>
        <time>2022-03-26T14:12:15Z</time>
      </trkpt>
      <trkpt lat="46.13547" lon="5.45582">
        <ele>505.2</ele>
        <time>2022-03-26T14:12:20Z</time>
      </trkpt>
      <trkpt lat="46.13534" lon="5.45578">
        <ele>505.2</ele>
        <time>2022-03-26T14:12:22Z</time>
      </trkpt>
      <trkpt lat="46.13522" lon="5.45581">
        <ele>505</ele>
        <time>2022-03-26T14:12:24Z</time>
      </trkpt>
      <trkpt lat="46.13513" lon="5.45596">
        <ele>504.8</ele>
        <time>2022-03-26T14:12:26Z</time>
      </trkpt>
      <trkpt lat="46.135" lon="5.45627">
        <ele>504</ele>
        <time>2022-03-26T14:12:29Z</time>
      </trkpt>
      <trkpt lat="46.135" lon="5.45627">
        <ele>503.4</ele>
        <time>2022-03-26T14:12:30Z</time>
      </trkpt>
      <trkpt lat="46.13487" lon="5.45642">
        <ele>503.2</ele>
        <time>2022-03-26T14:12:31Z</time>
      </trkpt>
      <trkpt lat="46.13462" lon="5.45653">
        <ele>502.2</ele>
        <time>2022-03-26T14:12:34Z</time>
      </trkpt>
      <trkpt lat="46.13438" lon="5.45662">
        <ele>501.2</ele>
        <time>2022-03-26T14:12:37Z</time>
      </trkpt>
      <trkpt lat="46.13423" lon="5.45672">
        <ele>500.4</ele>
        <time>2022-03-26T14:12:39Z</time>
      </trkpt>
      <trkpt lat="46.13423" lon="5.45672">
        <ele>500</ele>
        <time>2022-03-26T14:12:40Z</time>
      </trkpt>
      <trkpt lat="46.13409" lon="5.45685">
        <ele>499.6</ele>
        <time>2022-03-26T14:12:41Z</time>
      </trkpt>
      <trkpt lat="46.13389" lon="5.45707">
        <ele>499</ele>
        <time>2022-03-26T14:12:44Z</time>
      </trkpt>
      <trkpt lat="46.13384" lon="5.45712">
        <ele>498.8</ele>
        <time>2022-03-26T14:12:45Z</time>
      </trkpt>
      <trkpt lat="46.13376" lon="5.4572">
        <ele>498.4</ele>
        <time>2022-03-26T14:12:46Z</time>
      </trkpt>
      <trkpt lat="46.1337" lon="5.45724">
        <ele>498.2</ele>
        <time>2022-03-26T14:12:48Z</time>
      </trkpt>
      <trkpt lat="46.13347" lon="5.45742">
        <ele>498.2</ele>
        <time>2022-03-26T14:12:50Z</time>
      </trkpt>
      <trkpt lat="46.13334" lon="5.45758">
        <ele>498.2</ele>
        <time>2022-03-26T14:12:52Z</time>
      </trkpt>
      <trkpt lat="46.13297" lon="5.45804">
        <ele>497.6</ele>
        <time>2022-03-26T14:12:58Z</time>
      </trkpt>
      <trkpt lat="46.13291" lon="5.45812">
        <ele>497.4</ele>
        <time>2022-03-26T14:12:59Z</time>
      </trkpt>
      <trkpt lat="46.13262" lon="5.45859">
        <ele>497</ele>
        <time>2022-03-26T14:13:05Z</time>
      </trkpt>
      <trkpt lat="46.13232" lon="5.45917">
        <ele>497.2</ele>
        <time>2022-03-26T14:13:12Z</time>
      </trkpt>
      <trkpt lat="46.13207" lon="5.45951">
        <ele>497.2</ele>
        <time>2022-03-26T14:13:17Z</time>
      </trkpt>
      <trkpt lat="46.13189" lon="5.45964">
        <ele>497.4</ele>
        <time>2022-03-26T14:13:20Z</time>
      </trkpt>
      <trkpt lat="46.13177" lon="5.45971">
        <ele>497.8</ele>
        <time>2022-03-26T14:13:22Z</time>
      </trkpt>
      <trkpt lat="46.13141" lon="5.46009">
        <ele>498.6</ele>
        <time>2022-03-26T14:13:29Z</time>
      </trkpt>
      <trkpt lat="46.13136" lon="5.46014">
        <ele>499</ele>
        <time>2022-03-26T14:13:30Z</time>
      </trkpt>
      <trkpt lat="46.13097" lon="5.46048">
        <ele>499.6</ele>
        <time>2022-03-26T14:13:37Z</time>
      </trkpt>
      <trkpt lat="46.1305" lon="5.46083">
        <ele>499.4</ele>
        <time>2022-03-26T14:13:45Z</time>
      </trkpt>
      <trkpt lat="46.12996" lon="5.46125">
        <ele>499</ele>
        <time>2022-03-26T14:13:52Z</time>
      </trkpt>
      <trkpt lat="46.12983" lon="5.46135">
        <ele>499</ele>
        <time>2022-03-26T14:13:54Z</time>
      </trkpt>
      <trkpt lat="46.12931" lon="5.4617">
        <ele>498.6</ele>
        <time>2022-03-26T14:14:02Z</time>
      </trkpt>
      <trkpt lat="46.12918" lon="5.46182">
        <ele>498.8</ele>
        <time>2022-03-26T14:14:04Z</time>
      </trkpt>
      <trkpt lat="46.12908" lon="5.46196">
        <ele>498.8</ele>
        <time>2022-03-26T14:14:06Z</time>
      </trkpt>
      <trkpt lat="46.12895" lon="5.46235">
        <ele>499.4</ele>
        <time>2022-03-26T14:14:11Z</time>
      </trkpt>
      <trkpt lat="46.12889" lon="5.46249">
        <ele>499.8</ele>
        <time>2022-03-26T14:14:13Z</time>
      </trkpt>
      <trkpt lat="46.12881" lon="5.46262">
        <ele>500</ele>
        <time>2022-03-26T14:14:15Z</time>
      </trkpt>
      <trkpt lat="46.12877" lon="5.46267">
        <ele>500.4</ele>
        <time>2022-03-26T14:14:16Z</time>
      </trkpt>
      <trkpt lat="46.12854" lon="5.4629">
        <ele>501.6</ele>
        <time>2022-03-26T14:14:21Z</time>
      </trkpt>
      <trkpt lat="46.12818" lon="5.46322">
        <ele>502.2</ele>
        <time>2022-03-26T14:14:29Z</time>
      </trkpt>
      <trkpt lat="46.1281" lon="5.46333">
        <ele>502.2</ele>
        <time>2022-03-26T14:14:31Z</time>
      </trkpt>
      <trkpt lat="46.12788" lon="5.46368">
        <ele>502.2</ele>
        <time>2022-03-26T14:14:37Z</time>
      </trkpt>
      <trkpt lat="46.12768" lon="5.46399">
        <ele>502.6</ele>
        <time>2022-03-26T14:14:43Z</time>
      </trkpt>
      <trkpt lat="46.12766" lon="5.46404">
        <ele>502.6</ele>
        <time>2022-03-26T14:14:44Z</time>
      </trkpt>
      <trkpt lat="46.12766" lon="5.46404">
        <ele>502.6</ele>
        <time>2022-03-26T14:14:45Z</time>
      </trkpt>
      <trkpt lat="46.12765" lon="5.46408">
        <ele>502.8</ele>
        <time>2022-03-26T14:14:46Z</time>
      </trkpt>
      <trkpt lat="46.12769" lon="5.46416">
        <ele>502.8</ele>
        <time>2022-03-26T14:14:48Z</time>
      </trkpt>
      <trkpt lat="46.12784" lon="5.4642">
        <ele>503.2</ele>
        <time>2022-03-26T14:14:52Z</time>
      </trkpt>
      <trkpt lat="46.12811" lon="5.46424">
        <ele>503.8</ele>
        <time>2022-03-26T14:14:57Z</time>
      </trkpt>
      <trkpt lat="46.12817" lon="5.46425">
        <ele>503.8</ele>
        <time>2022-03-26T14:14:58Z</time>
      </trkpt>
      <trkpt lat="46.12837" lon="5.46429">
        <ele>504.4</ele>
        <time>2022-03-26T14:15:02Z</time>
      </trkpt>
      <trkpt lat="46.12847" lon="5.4643">
        <ele>505.2</ele>
        <time>2022-03-26T14:15:04Z</time>
      </trkpt>
      <trkpt lat="46.12856" lon="5.46429">
        <ele>505.4</ele>
        <time>2022-03-26T14:15:06Z</time>
      </trkpt>
      <trkpt lat="46.12861" lon="5.46429">
        <ele>505.4</ele>
        <time>2022-03-26T14:15:07Z</time>
      </trkpt>
      <trkpt lat="46.12879" lon="5.46425">
        <ele>505.6</ele>
        <time>2022-03-26T14:15:11Z</time>
      </trkpt>
      <trkpt lat="46.12883" lon="5.46423">
        <ele>505.6</ele>
        <time>2022-03-26T14:15:12Z</time>
      </trkpt>
      <trkpt lat="46.12895" lon="5.46418">
        <ele>506.2</ele>
        <time>2022-03-26T14:15:15Z</time>
      </trkpt>
      <trkpt lat="46.12926" lon="5.46401">
        <ele>507.4</ele>
        <time>2022-03-26T14:15:23Z</time>
      </trkpt>
      <trkpt lat="46.12954" lon="5.46388">
        <ele>508.4</ele>
        <time>2022-03-26T14:15:30Z</time>
      </trkpt>
      <trkpt lat="46.12966" lon="5.46384">
        <ele>509</ele>
        <time>2022-03-26T14:15:33Z</time>
      </trkpt>
      <trkpt lat="46.12991" lon="5.46379">
        <ele>509.6</ele>
        <time>2022-03-26T14:15:39Z</time>
      </trkpt>
      <trkpt lat="46.13002" lon="5.46378">
        <ele>510</ele>
        <time>2022-03-26T14:15:42Z</time>
      </trkpt>
      <trkpt lat="46.13012" lon="5.46378">
        <ele>510.8</ele>
        <time>2022-03-26T14:15:45Z</time>
      </trkpt>
      <trkpt lat="46.1303" lon="5.46379">
        <ele>512</ele>
        <time>2022-03-26T14:15:50Z</time>
      </trkpt>
      <trkpt lat="46.13034" lon="5.4638">
        <ele>512.2</ele>
        <time>2022-03-26T14:15:51Z</time>
      </trkpt>
      <trkpt lat="46.13052" lon="5.46385">
        <ele>513.2</ele>
        <time>2022-03-26T14:15:57Z</time>
      </trkpt>
      <trkpt lat="46.13077" lon="5.4639">
        <ele>514.2</ele>
        <time>2022-03-26T14:16:02Z</time>
      </trkpt>
      <trkpt lat="46.13106" lon="5.46398">
        <ele>514.8</ele>
        <time>2022-03-26T14:16:08Z</time>
      </trkpt>
      <trkpt lat="46.13152" lon="5.46411">
        <ele>515</ele>
        <time>2022-03-26T14:16:17Z</time>
      </trkpt>
      <trkpt lat="46.13207" lon="5.46426">
        <ele>515</ele>
        <time>2022-03-26T14:16:28Z</time>
      </trkpt>
      <trkpt lat="46.13212" lon="5.46427">
        <ele>515</ele>
        <time>2022-03-26T14:16:29Z</time>
      </trkpt>
      <trkpt lat="46.13226" lon="5.46431">
        <ele>515.2</ele>
        <time>2022-03-26T14:16:32Z</time>
      </trkpt>
      <trkpt lat="46.1326" lon="5.46443">
        <ele>516.2</ele>
        <time>2022-03-26T14:16:39Z</time>
      </trkpt>
      <trkpt lat="46.13265" lon="5.46445">
        <ele>516.6</ele>
        <time>2022-03-26T14:16:40Z</time>
      </trkpt>
      <trkpt lat="46.13311" lon="5.46458">
        <ele>516.8</ele>
        <time>2022-03-26T14:16:49Z</time>
      </trkpt>
      <trkpt lat="46.13346" lon="5.46459">
        <ele>517</ele>
        <time>2022-03-26T14:16:56Z</time>
      </trkpt>
      <trkpt lat="46.13384" lon="5.46455">
        <ele>517.6</ele>
        <time>2022-03-26T14:17:04Z</time>
      </trkpt>
      <trkpt lat="46.13411" lon="5.46461">
        <ele>518</ele>
        <time>2022-03-26T14:17:10Z</time>
      </trkpt>
      <trkpt lat="46.13415" lon="5.46463">
        <ele>518.4</ele>
        <time>2022-03-26T14:17:11Z</time>
      </trkpt>
      <trkpt lat="46.13419" lon="5.46466">
        <ele>518.6</ele>
        <time>2022-03-26T14:17:12Z</time>
      </trkpt>
      <trkpt lat="46.13423" lon="5.46469">
        <ele>518.8</ele>
        <time>2022-03-26T14:17:13Z</time>
      </trkpt>
      <trkpt lat="46.13446" lon="5.46487">
        <ele>519.2</ele>
        <time>2022-03-26T14:17:18Z</time>
      </trkpt>
      <trkpt lat="46.13479" lon="5.46509">
        <ele>519.4</ele>
        <time>2022-03-26T14:17:24Z</time>
      </trkpt>
      <trkpt lat="46.13503" lon="5.46522">
        <ele>519</ele>
        <time>2022-03-26T14:17:28Z</time>
      </trkpt>
      <trkpt lat="46.13508" lon="5.46525">
        <ele>519</ele>
        <time>2022-03-26T14:17:29Z</time>
      </trkpt>
      <trkpt lat="46.13556" lon="5.46545">
        <ele>518.4</ele>
        <time>2022-03-26T14:17:37Z</time>
      </trkpt>
      <trkpt lat="46.13562" lon="5.46547">
        <ele>518.4</ele>
        <time>2022-03-26T14:17:38Z</time>
      </trkpt>
      <trkpt lat="46.13601" lon="5.46563">
        <ele>517.4</ele>
        <time>2022-03-26T14:17:44Z</time>
      </trkpt>
      <trkpt lat="46.13608" lon="5.46566">
        <ele>517.2</ele>
        <time>2022-03-26T14:17:45Z</time>
      </trkpt>
      <trkpt lat="46.13643" lon="5.46587">
        <ele>516.8</ele>
        <time>2022-03-26T14:17:50Z</time>
      </trkpt>
      <trkpt lat="46.13691" lon="5.46619">
        <ele>517</ele>
        <time>2022-03-26T14:17:58Z</time>
      </trkpt>
      <trkpt lat="46.13696" lon="5.46622">
        <ele>517</ele>
        <time>2022-03-26T14:17:59Z</time>
      </trkpt>
      <trkpt lat="46.13702" lon="5.46623">
        <ele>517</ele>
        <time>2022-03-26T14:18:00Z</time>
      </trkpt>
      <trkpt lat="46.13721" lon="5.46627">
        <ele>517.8</ele>
        <time>2022-03-26T14:18:04Z</time>
      </trkpt>
      <trkpt lat="46.13735" lon="5.46627">
        <ele>518.6</ele>
        <time>2022-03-26T14:18:07Z</time>
      </trkpt>
      <trkpt lat="46.13752" lon="5.46624">
        <ele>519.4</ele>
        <time>2022-03-26T14:18:11Z</time>
      </trkpt>
      <trkpt lat="46.13755" lon="5.46623">
        <ele>519.6</ele>
        <time>2022-03-26T14:18:12Z</time>
      </trkpt>
      <trkpt lat="46.13783" lon="5.46618">
        <ele>520.8</ele>
        <time>2022-03-26T14:18:19Z</time>
      </trkpt>
      <trkpt lat="46.13799" lon="5.46619">
        <ele>521.8</ele>
        <time>2022-03-26T14:18:23Z</time>
      </trkpt>
      <trkpt lat="46.13811" lon="5.46622">
        <ele>522.6</ele>
        <time>2022-03-26T14:18:27Z</time>
      </trkpt>
      <trkpt lat="46.13814" lon="5.46623">
        <ele>523</ele>
        <time>2022-03-26T14:18:28Z</time>
      </trkpt>
      <trkpt lat="46.13825" lon="5.46628">
        <ele>524.4</ele>
        <time>2022-03-26T14:18:32Z</time>
      </trkpt>
      <trkpt lat="46.13834" lon="5.46631">
        <ele>525.6</ele>
        <time>2022-03-26T14:18:35Z</time>
      </trkpt>
      <trkpt lat="46.13848" lon="5.46637">
        <ele>526.8</ele>
        <time>2022-03-26T14:18:40Z</time>
      </trkpt>
      <trkpt lat="46.1386" lon="5.46642">
        <ele>527.6</ele>
        <time>2022-03-26T14:18:44Z</time>
      </trkpt>
      <trkpt lat="46.13865" lon="5.46644">
        <ele>528</ele>
        <time>2022-03-26T14:18:46Z</time>
      </trkpt>
      <trkpt lat="46.13879" lon="5.4665">
        <ele>529</ele>
        <time>2022-03-26T14:18:51Z</time>
      </trkpt>
      <trkpt lat="46.13888" lon="5.46654">
        <ele>529.6</ele>
        <time>2022-03-26T14:18:54Z</time>
      </trkpt>
      <trkpt lat="46.13893" lon="5.46656">
        <ele>530</ele>
        <time>2022-03-26T14:18:56Z</time>
      </trkpt>
      <trkpt lat="46.13909" lon="5.46662">
        <ele>531.4</ele>
        <time>2022-03-26T14:19:02Z</time>
      </trkpt>
      <trkpt lat="46.13917" lon="5.46665">
        <ele>532</ele>
        <time>2022-03-26T14:19:05Z</time>
      </trkpt>
      <trkpt lat="46.13923" lon="5.46667">
        <ele>532.4</ele>
        <time>2022-03-26T14:19:07Z</time>
      </trkpt>
      <trkpt lat="46.13936" lon="5.4667">
        <ele>533.6</ele>
        <time>2022-03-26T14:19:12Z</time>
      </trkpt>
      <trkpt lat="46.1395" lon="5.46671">
        <ele>534.4</ele>
        <time>2022-03-26T14:19:17Z</time>
      </trkpt>
      <trkpt lat="46.13959" lon="5.46669">
        <ele>535</ele>
        <time>2022-03-26T14:19:20Z</time>
      </trkpt>
      <trkpt lat="46.13966" lon="5.46663">
        <ele>535.6</ele>
        <time>2022-03-26T14:19:23Z</time>
      </trkpt>
      <trkpt lat="46.1397" lon="5.46658">
        <ele>536.2</ele>
        <time>2022-03-26T14:19:25Z</time>
      </trkpt>
      <trkpt lat="46.13978" lon="5.46644">
        <ele>537.2</ele>
        <time>2022-03-26T14:19:30Z</time>
      </trkpt>
      <trkpt lat="46.13983" lon="5.46634">
        <ele>538.4</ele>
        <time>2022-03-26T14:19:33Z</time>
      </trkpt>
      <trkpt lat="46.13992" lon="5.46618">
        <ele>539.6</ele>
        <time>2022-03-26T14:19:38Z</time>
      </trkpt>
      <trkpt lat="46.13998" lon="5.46609">
        <ele>540.2</ele>
        <time>2022-03-26T14:19:41Z</time>
      </trkpt>
      <trkpt lat="46.14005" lon="5.46602">
        <ele>540.8</ele>
        <time>2022-03-26T14:19:44Z</time>
      </trkpt>
      <trkpt lat="46.14018" lon="5.46594">
        <ele>541.8</ele>
        <time>2022-03-26T14:19:49Z</time>
      </trkpt>
      <trkpt lat="46.14029" lon="5.46588">
        <ele>543</ele>
        <time>2022-03-26T14:19:53Z</time>
      </trkpt>
      <trkpt lat="46.14041" lon="5.46581">
        <ele>543.8</ele>
        <time>2022-03-26T14:19:58Z</time>
      </trkpt>
      <trkpt lat="46.14046" lon="5.46578">
        <ele>544.4</ele>
        <time>2022-03-26T14:20:00Z</time>
      </trkpt>
      <trkpt lat="46.14057" lon="5.46566">
        <ele>545.4</ele>
        <time>2022-03-26T14:20:05Z</time>
      </trkpt>
      <trkpt lat="46.14066" lon="5.46551">
        <ele>546.8</ele>
        <time>2022-03-26T14:20:10Z</time>
      </trkpt>
      <trkpt lat="46.14069" lon="5.46544">
        <ele>547</ele>
        <time>2022-03-26T14:20:12Z</time>
      </trkpt>
      <trkpt lat="46.14076" lon="5.46531">
        <ele>547.8</ele>
        <time>2022-03-26T14:20:16Z</time>
      </trkpt>
      <trkpt lat="46.14086" lon="5.46518">
        <ele>548.8</ele>
        <time>2022-03-26T14:20:21Z</time>
      </trkpt>
      <trkpt lat="46.14088" lon="5.46516">
        <ele>549</ele>
        <time>2022-03-26T14:20:22Z</time>
      </trkpt>
      <trkpt lat="46.14099" lon="5.4651">
        <ele>550</ele>
        <time>2022-03-26T14:20:26Z</time>
      </trkpt>
      <trkpt lat="46.14105" lon="5.46509">
        <ele>550.4</ele>
        <time>2022-03-26T14:20:28Z</time>
      </trkpt>
      <trkpt lat="46.14114" lon="5.46507">
        <ele>551.4</ele>
        <time>2022-03-26T14:20:31Z</time>
      </trkpt>
      <trkpt lat="46.14128" lon="5.46505">
        <ele>552</ele>
        <time>2022-03-26T14:20:36Z</time>
      </trkpt>
      <trkpt lat="46.14133" lon="5.46504">
        <ele>552.4</ele>
        <time>2022-03-26T14:20:38Z</time>
      </trkpt>
      <trkpt lat="46.14147" lon="5.46505">
        <ele>553.2</ele>
        <time>2022-03-26T14:20:43Z</time>
      </trkpt>
      <trkpt lat="46.14149" lon="5.46506">
        <ele>553.4</ele>
        <time>2022-03-26T14:20:44Z</time>
      </trkpt>
      <trkpt lat="46.14162" lon="5.46509">
        <ele>554.6</ele>
        <time>2022-03-26T14:20:49Z</time>
      </trkpt>
      <trkpt lat="46.1417" lon="5.46512">
        <ele>555</ele>
        <time>2022-03-26T14:20:52Z</time>
      </trkpt>
      <trkpt lat="46.14175" lon="5.46514">
        <ele>555.6</ele>
        <time>2022-03-26T14:20:54Z</time>
      </trkpt>
      <trkpt lat="46.14187" lon="5.4652">
        <ele>556.6</ele>
        <time>2022-03-26T14:20:59Z</time>
      </trkpt>
      <trkpt lat="46.14193" lon="5.46524">
        <ele>557.2</ele>
        <time>2022-03-26T14:21:02Z</time>
      </trkpt>
      <trkpt lat="46.14197" lon="5.46526">
        <ele>557.6</ele>
        <time>2022-03-26T14:21:04Z</time>
      </trkpt>
      <trkpt lat="46.14206" lon="5.46531">
        <ele>558.6</ele>
        <time>2022-03-26T14:21:08Z</time>
      </trkpt>
      <trkpt lat="46.14209" lon="5.46532">
        <ele>558.8</ele>
        <time>2022-03-26T14:21:09Z</time>
      </trkpt>
      <trkpt lat="46.14225" lon="5.4654">
        <ele>560</ele>
        <time>2022-03-26T14:21:14Z</time>
      </trkpt>
      <trkpt lat="46.14231" lon="5.46543">
        <ele>561</ele>
        <time>2022-03-26T14:21:17Z</time>
      </trkpt>
      <trkpt lat="46.14246" lon="5.46547">
        <ele>561.8</ele>
        <time>2022-03-26T14:21:21Z</time>
      </trkpt>
      <trkpt lat="46.14252" lon="5.4655">
        <ele>562.2</ele>
        <time>2022-03-26T14:21:23Z</time>
      </trkpt>
      <trkpt lat="46.14261" lon="5.46553">
        <ele>563.2</ele>
        <time>2022-03-26T14:21:26Z</time>
      </trkpt>
      <trkpt lat="46.14264" lon="5.46554">
        <ele>563.6</ele>
        <time>2022-03-26T14:21:27Z</time>
      </trkpt>
      <trkpt lat="46.14274" lon="5.46561">
        <ele>564.8</ele>
        <time>2022-03-26T14:21:30Z</time>
      </trkpt>
      <trkpt lat="46.14285" lon="5.46568">
        <ele>565.6</ele>
        <time>2022-03-26T14:21:34Z</time>
      </trkpt>
      <trkpt lat="46.1429" lon="5.46571">
        <ele>566</ele>
        <time>2022-03-26T14:21:36Z</time>
      </trkpt>
      <trkpt lat="46.14302" lon="5.46582">
        <ele>566.6</ele>
        <time>2022-03-26T14:21:41Z</time>
      </trkpt>
      <trkpt lat="46.14304" lon="5.46584">
        <ele>567</ele>
        <time>2022-03-26T14:21:42Z</time>
      </trkpt>
      <trkpt lat="46.14316" lon="5.46594">
        <ele>567.8</ele>
        <time>2022-03-26T14:21:47Z</time>
      </trkpt>
      <trkpt lat="46.14318" lon="5.46595">
        <ele>568</ele>
        <time>2022-03-26T14:21:48Z</time>
      </trkpt>
      <trkpt lat="46.14323" lon="5.46599">
        <ele>568.4</ele>
        <time>2022-03-26T14:21:50Z</time>
      </trkpt>
      <trkpt lat="46.14332" lon="5.46607">
        <ele>569.2</ele>
        <time>2022-03-26T14:21:54Z</time>
      </trkpt>
      <trkpt lat="46.14337" lon="5.4661">
        <ele>569.6</ele>
        <time>2022-03-26T14:21:56Z</time>
      </trkpt>
      <trkpt lat="46.1435" lon="5.46621">
        <ele>570.4</ele>
        <time>2022-03-26T14:22:01Z</time>
      </trkpt>
      <trkpt lat="46.14359" lon="5.46629">
        <ele>571.4</ele>
        <time>2022-03-26T14:22:05Z</time>
      </trkpt>
      <trkpt lat="46.14362" lon="5.4663">
        <ele>571.4</ele>
        <time>2022-03-26T14:22:06Z</time>
      </trkpt>
      <trkpt lat="46.14379" lon="5.46642">
        <ele>572.6</ele>
        <time>2022-03-26T14:22:12Z</time>
      </trkpt>
      <trkpt lat="46.14382" lon="5.46645">
        <ele>572.8</ele>
        <time>2022-03-26T14:22:13Z</time>
      </trkpt>
      <trkpt lat="46.14394" lon="5.46654">
        <ele>573.8</ele>
        <time>2022-03-26T14:22:17Z</time>
      </trkpt>
      <trkpt lat="46.14403" lon="5.46664">
        <ele>574.2</ele>
        <time>2022-03-26T14:22:20Z</time>
      </trkpt>
      <trkpt lat="46.1441" lon="5.46672">
        <ele>574.8</ele>
        <time>2022-03-26T14:22:23Z</time>
      </trkpt>
      <trkpt lat="46.14417" lon="5.46688">
        <ele>575.4</ele>
        <time>2022-03-26T14:22:27Z</time>
      </trkpt>
      <trkpt lat="46.14419" lon="5.46699">
        <ele>576</ele>
        <time>2022-03-26T14:22:30Z</time>
      </trkpt>
      <trkpt lat="46.14418" lon="5.46702">
        <ele>576.4</ele>
        <time>2022-03-26T14:22:31Z</time>
      </trkpt>
      <trkpt lat="46.14413" lon="5.46709">
        <ele>576.8</ele>
        <time>2022-03-26T14:22:34Z</time>
      </trkpt>
      <trkpt lat="46.14411" lon="5.46711">
        <ele>577.2</ele>
        <time>2022-03-26T14:22:35Z</time>
      </trkpt>
      <trkpt lat="46.14396" lon="5.46716">
        <ele>578.6</ele>
        <time>2022-03-26T14:22:40Z</time>
      </trkpt>
      <trkpt lat="46.14388" lon="5.46718">
        <ele>579.4</ele>
        <time>2022-03-26T14:22:43Z</time>
      </trkpt>
      <trkpt lat="46.14382" lon="5.4672">
        <ele>579.8</ele>
        <time>2022-03-26T14:22:45Z</time>
      </trkpt>
      <trkpt lat="46.14362" lon="5.46729">
        <ele>581</ele>
        <time>2022-03-26T14:22:52Z</time>
      </trkpt>
      <trkpt lat="46.14344" lon="5.46739">
        <ele>582.2</ele>
        <time>2022-03-26T14:22:58Z</time>
      </trkpt>
      <trkpt lat="46.1433" lon="5.46747">
        <ele>583.2</ele>
        <time>2022-03-26T14:23:03Z</time>
      </trkpt>
      <trkpt lat="46.14327" lon="5.46749">
        <ele>583.4</ele>
        <time>2022-03-26T14:23:04Z</time>
      </trkpt>
      <trkpt lat="46.14311" lon="5.46757">
        <ele>584.4</ele>
        <time>2022-03-26T14:23:09Z</time>
      </trkpt>
      <trkpt lat="46.14299" lon="5.46761">
        <ele>585.2</ele>
        <time>2022-03-26T14:23:12Z</time>
      </trkpt>
      <trkpt lat="46.14295" lon="5.46763">
        <ele>585.4</ele>
        <time>2022-03-26T14:23:13Z</time>
      </trkpt>
      <trkpt lat="46.14272" lon="5.46771">
        <ele>586.4</ele>
        <time>2022-03-26T14:23:19Z</time>
      </trkpt>
      <trkpt lat="46.14269" lon="5.46773">
        <ele>586.6</ele>
        <time>2022-03-26T14:23:20Z</time>
      </trkpt>
      <trkpt lat="46.14256" lon="5.46781">
        <ele>587.6</ele>
        <time>2022-03-26T14:23:24Z</time>
      </trkpt>
      <trkpt lat="46.1425" lon="5.46788">
        <ele>588</ele>
        <time>2022-03-26T14:23:26Z</time>
      </trkpt>
      <trkpt lat="46.1424" lon="5.46803">
        <ele>588.8</ele>
        <time>2022-03-26T14:23:30Z</time>
      </trkpt>
      <trkpt lat="46.14236" lon="5.46816">
        <ele>589.6</ele>
        <time>2022-03-26T14:23:33Z</time>
      </trkpt>
      <trkpt lat="46.14233" lon="5.46832">
        <ele>590</ele>
        <time>2022-03-26T14:23:36Z</time>
      </trkpt>
      <trkpt lat="46.14232" lon="5.46841">
        <ele>590.2</ele>
        <time>2022-03-26T14:23:38Z</time>
      </trkpt>
      <trkpt lat="46.14234" lon="5.46858">
        <ele>591.2</ele>
        <time>2022-03-26T14:23:41Z</time>
      </trkpt>
      <trkpt lat="46.14238" lon="5.46878">
        <ele>592.2</ele>
        <time>2022-03-26T14:23:45Z</time>
      </trkpt>
      <trkpt lat="46.14239" lon="5.46884">
        <ele>592.2</ele>
        <time>2022-03-26T14:23:46Z</time>
      </trkpt>
      <trkpt lat="46.14248" lon="5.46905">
        <ele>593.2</ele>
        <time>2022-03-26T14:23:51Z</time>
      </trkpt>
      <trkpt lat="46.14262" lon="5.46923">
        <ele>594.4</ele>
        <time>2022-03-26T14:23:56Z</time>
      </trkpt>
      <trkpt lat="46.14267" lon="5.46928">
        <ele>594.6</ele>
        <time>2022-03-26T14:23:58Z</time>
      </trkpt>
      <trkpt lat="46.14281" lon="5.46939">
        <ele>595.4</ele>
        <time>2022-03-26T14:24:02Z</time>
      </trkpt>
      <trkpt lat="46.14283" lon="5.4694">
        <ele>595.8</ele>
        <time>2022-03-26T14:24:03Z</time>
      </trkpt>
      <trkpt lat="46.14297" lon="5.46951">
        <ele>596.6</ele>
        <time>2022-03-26T14:24:08Z</time>
      </trkpt>
      <trkpt lat="46.1432" lon="5.46965">
        <ele>597.8</ele>
        <time>2022-03-26T14:24:15Z</time>
      </trkpt>
      <trkpt lat="46.14324" lon="5.46967">
        <ele>598</ele>
        <time>2022-03-26T14:24:16Z</time>
      </trkpt>
      <trkpt lat="46.1434" lon="5.46976">
        <ele>599</ele>
        <time>2022-03-26T14:24:20Z</time>
      </trkpt>
      <trkpt lat="46.14348" lon="5.46981">
        <ele>599.6</ele>
        <time>2022-03-26T14:24:22Z</time>
      </trkpt>
      <trkpt lat="46.14361" lon="5.46986">
        <ele>600</ele>
        <time>2022-03-26T14:24:25Z</time>
      </trkpt>
      <trkpt lat="46.14375" lon="5.46993">
        <ele>601.2</ele>
        <time>2022-03-26T14:24:29Z</time>
      </trkpt>
      <trkpt lat="46.14395" lon="5.47006">
        <ele>602.4</ele>
        <time>2022-03-26T14:24:35Z</time>
      </trkpt>
      <trkpt lat="46.14401" lon="5.47011">
        <ele>603</ele>
        <time>2022-03-26T14:24:37Z</time>
      </trkpt>
      <trkpt lat="46.14407" lon="5.47016">
        <ele>603.4</ele>
        <time>2022-03-26T14:24:39Z</time>
      </trkpt>
      <trkpt lat="46.1442" lon="5.47029">
        <ele>604.4</ele>
        <time>2022-03-26T14:24:44Z</time>
      </trkpt>
      <trkpt lat="46.14425" lon="5.47034">
        <ele>604.6</ele>
        <time>2022-03-26T14:24:46Z</time>
      </trkpt>
      <trkpt lat="46.14439" lon="5.47047">
        <ele>605.4</ele>
        <time>2022-03-26T14:24:51Z</time>
      </trkpt>
      <trkpt lat="46.14458" lon="5.47066">
        <ele>606.6</ele>
        <time>2022-03-26T14:24:58Z</time>
      </trkpt>
      <trkpt lat="46.1447" lon="5.4708">
        <ele>607.8</ele>
        <time>2022-03-26T14:25:03Z</time>
      </trkpt>
      <trkpt lat="46.14473" lon="5.47083">
        <ele>608.2</ele>
        <time>2022-03-26T14:25:04Z</time>
      </trkpt>
      <trkpt lat="46.14481" lon="5.47092">
        <ele>608.8</ele>
        <time>2022-03-26T14:25:07Z</time>
      </trkpt>
      <trkpt lat="46.14489" lon="5.47102">
        <ele>609.6</ele>
        <time>2022-03-26T14:25:10Z</time>
      </trkpt>
      <trkpt lat="46.14497" lon="5.47113">
        <ele>610</ele>
        <time>2022-03-26T14:25:13Z</time>
      </trkpt>
      <trkpt lat="46.14504" lon="5.47129">
        <ele>610.6</ele>
        <time>2022-03-26T14:25:17Z</time>
      </trkpt>
      <trkpt lat="46.14507" lon="5.47138">
        <ele>611</ele>
        <time>2022-03-26T14:25:19Z</time>
      </trkpt>
      <trkpt lat="46.1451" lon="5.47162">
        <ele>612</ele>
        <time>2022-03-26T14:25:24Z</time>
      </trkpt>
      <trkpt lat="46.14507" lon="5.47197">
        <ele>613</ele>
        <time>2022-03-26T14:25:31Z</time>
      </trkpt>
      <trkpt lat="46.14499" lon="5.4723">
        <ele>614.2</ele>
        <time>2022-03-26T14:25:38Z</time>
      </trkpt>
      <trkpt lat="46.14494" lon="5.47245">
        <ele>614.4</ele>
        <time>2022-03-26T14:25:41Z</time>
      </trkpt>
      <trkpt lat="46.14488" lon="5.47266">
        <ele>615.2</ele>
        <time>2022-03-26T14:25:45Z</time>
      </trkpt>
      <trkpt lat="46.14482" lon="5.47286">
        <ele>615.6</ele>
        <time>2022-03-26T14:25:49Z</time>
      </trkpt>
      <trkpt lat="46.14477" lon="5.47311">
        <ele>616.4</ele>
        <time>2022-03-26T14:25:54Z</time>
      </trkpt>
      <trkpt lat="46.14476" lon="5.47321">
        <ele>616.6</ele>
        <time>2022-03-26T14:25:56Z</time>
      </trkpt>
      <trkpt lat="46.14478" lon="5.47346">
        <ele>617.4</ele>
        <time>2022-03-26T14:26:01Z</time>
      </trkpt>
      <trkpt lat="46.14481" lon="5.47361">
        <ele>618.6</ele>
        <time>2022-03-26T14:26:04Z</time>
      </trkpt>
      <trkpt lat="46.14485" lon="5.47375">
        <ele>619</ele>
        <time>2022-03-26T14:26:07Z</time>
      </trkpt>
      <trkpt lat="46.14488" lon="5.47379">
        <ele>619.2</ele>
        <time>2022-03-26T14:26:08Z</time>
      </trkpt>
      <trkpt lat="46.14497" lon="5.4739">
        <ele>619.8</ele>
        <time>2022-03-26T14:26:11Z</time>
      </trkpt>
      <trkpt lat="46.14518" lon="5.47413">
        <ele>621.2</ele>
        <time>2022-03-26T14:26:18Z</time>
      </trkpt>
      <trkpt lat="46.14535" lon="5.4743">
        <ele>622</ele>
        <time>2022-03-26T14:26:24Z</time>
      </trkpt>
      <trkpt lat="46.14548" lon="5.47442">
        <ele>623</ele>
        <time>2022-03-26T14:26:28Z</time>
      </trkpt>
      <trkpt lat="46.14557" lon="5.47454">
        <ele>624.2</ele>
        <time>2022-03-26T14:26:32Z</time>
      </trkpt>
      <trkpt lat="46.14569" lon="5.47471">
        <ele>625.2</ele>
        <time>2022-03-26T14:26:37Z</time>
      </trkpt>
      <trkpt lat="46.14574" lon="5.47475">
        <ele>625.4</ele>
        <time>2022-03-26T14:26:38Z</time>
      </trkpt>
      <trkpt lat="46.14587" lon="5.47492">
        <ele>626.4</ele>
        <time>2022-03-26T14:26:43Z</time>
      </trkpt>
      <trkpt lat="46.14589" lon="5.47496">
        <ele>626.6</ele>
        <time>2022-03-26T14:26:44Z</time>
      </trkpt>
      <trkpt lat="46.14596" lon="5.47512">
        <ele>627.6</ele>
        <time>2022-03-26T14:26:48Z</time>
      </trkpt>
      <trkpt lat="46.14604" lon="5.47525">
        <ele>628.6</ele>
        <time>2022-03-26T14:26:52Z</time>
      </trkpt>
      <trkpt lat="46.14606" lon="5.47528">
        <ele>628.8</ele>
        <time>2022-03-26T14:26:53Z</time>
      </trkpt>
      <trkpt lat="46.14614" lon="5.47537">
        <ele>629.4</ele>
        <time>2022-03-26T14:26:57Z</time>
      </trkpt>
      <trkpt lat="46.14619" lon="5.47544">
        <ele>630</ele>
        <time>2022-03-26T14:27:00Z</time>
      </trkpt>
      <trkpt lat="46.14627" lon="5.47549">
        <ele>630.2</ele>
        <time>2022-03-26T14:27:03Z</time>
      </trkpt>
      <trkpt lat="46.1464" lon="5.47555">
        <ele>630.8</ele>
        <time>2022-03-26T14:27:07Z</time>
      </trkpt>
      <trkpt lat="46.14649" lon="5.47558">
        <ele>631.4</ele>
        <time>2022-03-26T14:27:10Z</time>
      </trkpt>
      <trkpt lat="46.14656" lon="5.47561">
        <ele>632</ele>
        <time>2022-03-26T14:27:12Z</time>
      </trkpt>
      <trkpt lat="46.1467" lon="5.47566">
        <ele>633.2</ele>
        <time>2022-03-26T14:27:16Z</time>
      </trkpt>
      <trkpt lat="46.14684" lon="5.47566">
        <ele>634.2</ele>
        <time>2022-03-26T14:27:21Z</time>
      </trkpt>
      <trkpt lat="46.14694" lon="5.47566">
        <ele>635</ele>
        <time>2022-03-26T14:27:24Z</time>
      </trkpt>
      <trkpt lat="46.14703" lon="5.47563">
        <ele>635.2</ele>
        <time>2022-03-26T14:27:27Z</time>
      </trkpt>
      <trkpt lat="46.14719" lon="5.47559">
        <ele>636.2</ele>
        <time>2022-03-26T14:27:32Z</time>
      </trkpt>
      <trkpt lat="46.14723" lon="5.4756">
        <ele>636.4</ele>
        <time>2022-03-26T14:27:33Z</time>
      </trkpt>
      <trkpt lat="46.14735" lon="5.47568">
        <ele>637.2</ele>
        <time>2022-03-26T14:27:37Z</time>
      </trkpt>
      <trkpt lat="46.14741" lon="5.47576">
        <ele>638</ele>
        <time>2022-03-26T14:27:39Z</time>
      </trkpt>
      <trkpt lat="46.14746" lon="5.47581">
        <ele>638.4</ele>
        <time>2022-03-26T14:27:41Z</time>
      </trkpt>
      <trkpt lat="46.14756" lon="5.47593">
        <ele>639.2</ele>
        <time>2022-03-26T14:27:45Z</time>
      </trkpt>
      <trkpt lat="46.14759" lon="5.47595">
        <ele>639.8</ele>
        <time>2022-03-26T14:27:46Z</time>
      </trkpt>
      <trkpt lat="46.14776" lon="5.47606">
        <ele>641</ele>
        <time>2022-03-26T14:27:51Z</time>
      </trkpt>
      <trkpt lat="46.1478" lon="5.47611">
        <ele>641.6</ele>
        <time>2022-03-26T14:27:53Z</time>
      </trkpt>
      <trkpt lat="46.14784" lon="5.47617">
        <ele>642.2</ele>
        <time>2022-03-26T14:27:55Z</time>
      </trkpt>
      <trkpt lat="46.14789" lon="5.47627">
        <ele>642.4</ele>
        <time>2022-03-26T14:27:58Z</time>
      </trkpt>
      <trkpt lat="46.14793" lon="5.47633">
        <ele>643.2</ele>
        <time>2022-03-26T14:28:00Z</time>
      </trkpt>
      <trkpt lat="46.14801" lon="5.47649">
        <ele>643.8</ele>
        <time>2022-03-26T14:28:05Z</time>
      </trkpt>
      <trkpt lat="46.14802" lon="5.47653">
        <ele>644.2</ele>
        <time>2022-03-26T14:28:06Z</time>
      </trkpt>
      <trkpt lat="46.14809" lon="5.47673">
        <ele>645.2</ele>
        <time>2022-03-26T14:28:12Z</time>
      </trkpt>
      <trkpt lat="46.1481" lon="5.47677">
        <ele>645.6</ele>
        <time>2022-03-26T14:28:13Z</time>
      </trkpt>
      <trkpt lat="46.14811" lon="5.47688">
        <ele>646.6</ele>
        <time>2022-03-26T14:28:16Z</time>
      </trkpt>
      <trkpt lat="46.14811" lon="5.47701">
        <ele>647.6</ele>
        <time>2022-03-26T14:28:19Z</time>
      </trkpt>
      <trkpt lat="46.14811" lon="5.47717">
        <ele>648.6</ele>
        <time>2022-03-26T14:28:23Z</time>
      </trkpt>
      <trkpt lat="46.1481" lon="5.47722">
        <ele>649</ele>
        <time>2022-03-26T14:28:24Z</time>
      </trkpt>
      <trkpt lat="46.14809" lon="5.47743">
        <ele>650.2</ele>
        <time>2022-03-26T14:28:29Z</time>
      </trkpt>
      <trkpt lat="46.14808" lon="5.47751">
        <ele>650.4</ele>
        <time>2022-03-26T14:28:31Z</time>
      </trkpt>
      <trkpt lat="46.14806" lon="5.47783">
        <ele>651</ele>
        <time>2022-03-26T14:28:38Z</time>
      </trkpt>
      <trkpt lat="46.14804" lon="5.47805">
        <ele>650.8</ele>
        <time>2022-03-26T14:28:42Z</time>
      </trkpt>
      <trkpt lat="46.14803" lon="5.47812">
        <ele>650.6</ele>
        <time>2022-03-26T14:28:43Z</time>
      </trkpt>
      <trkpt lat="46.14802" lon="5.47819">
        <ele>650.4</ele>
        <time>2022-03-26T14:28:44Z</time>
      </trkpt>
      <trkpt lat="46.14796" lon="5.47843">
        <ele>650.2</ele>
        <time>2022-03-26T14:28:47Z</time>
      </trkpt>
      <trkpt lat="46.14777" lon="5.47876">
        <ele>649.2</ele>
        <time>2022-03-26T14:28:52Z</time>
      </trkpt>
      <trkpt lat="46.14774" lon="5.47895">
        <ele>648.6</ele>
        <time>2022-03-26T14:28:55Z</time>
      </trkpt>
      <trkpt lat="46.14775" lon="5.47907">
        <ele>648.6</ele>
        <time>2022-03-26T14:28:57Z</time>
      </trkpt>
      <trkpt lat="46.1478" lon="5.47937">
        <ele>650</ele>
        <time>2022-03-26T14:29:03Z</time>
      </trkpt>
      <trkpt lat="46.14781" lon="5.47941">
        <ele>650.4</ele>
        <time>2022-03-26T14:29:04Z</time>
      </trkpt>
      <trkpt lat="46.14785" lon="5.47953">
        <ele>651.6</ele>
        <time>2022-03-26T14:29:07Z</time>
      </trkpt>
      <trkpt lat="46.14787" lon="5.47961">
        <ele>651.8</ele>
        <time>2022-03-26T14:29:09Z</time>
      </trkpt>
      <trkpt lat="46.14791" lon="5.47974">
        <ele>652.6</ele>
        <time>2022-03-26T14:29:13Z</time>
      </trkpt>
      <trkpt lat="46.14794" lon="5.4798">
        <ele>653</ele>
        <time>2022-03-26T14:29:15Z</time>
      </trkpt>
      <trkpt lat="46.14802" lon="5.47987">
        <ele>654</ele>
        <time>2022-03-26T14:29:18Z</time>
      </trkpt>
      <trkpt lat="46.1481" lon="5.47992">
        <ele>655</ele>
        <time>2022-03-26T14:29:21Z</time>
      </trkpt>
      <trkpt lat="46.14816" lon="5.47995">
        <ele>655.4</ele>
        <time>2022-03-26T14:29:23Z</time>
      </trkpt>
      <trkpt lat="46.14822" lon="5.47997">
        <ele>655.6</ele>
        <time>2022-03-26T14:29:25Z</time>
      </trkpt>
      <trkpt lat="46.14828" lon="5.47999">
        <ele>656.2</ele>
        <time>2022-03-26T14:29:27Z</time>
      </trkpt>
      <trkpt lat="46.1484" lon="5.48002">
        <ele>657.2</ele>
        <time>2022-03-26T14:29:31Z</time>
      </trkpt>
      <trkpt lat="46.14843" lon="5.48004">
        <ele>657.4</ele>
        <time>2022-03-26T14:29:32Z</time>
      </trkpt>
      <trkpt lat="46.14863" lon="5.48008">
        <ele>658.6</ele>
        <time>2022-03-26T14:29:39Z</time>
      </trkpt>
      <trkpt lat="46.1487" lon="5.48009">
        <ele>659</ele>
        <time>2022-03-26T14:29:41Z</time>
      </trkpt>
      <trkpt lat="46.14875" lon="5.48011">
        <ele>659.6</ele>
        <time>2022-03-26T14:29:43Z</time>
      </trkpt>
      <trkpt lat="46.14887" lon="5.48014">
        <ele>660.6</ele>
        <time>2022-03-26T14:29:48Z</time>
      </trkpt>
      <trkpt lat="46.14892" lon="5.48015">
        <ele>661</ele>
        <time>2022-03-26T14:29:50Z</time>
      </trkpt>
      <trkpt lat="46.14903" lon="5.48017">
        <ele>661.8</ele>
        <time>2022-03-26T14:29:54Z</time>
      </trkpt>
      <trkpt lat="46.14913" lon="5.48018">
        <ele>662.8</ele>
        <time>2022-03-26T14:29:58Z</time>
      </trkpt>
      <trkpt lat="46.14916" lon="5.48018">
        <ele>662.8</ele>
        <time>2022-03-26T14:29:59Z</time>
      </trkpt>
      <trkpt lat="46.14933" lon="5.48018">
        <ele>663.8</ele>
        <time>2022-03-26T14:30:06Z</time>
      </trkpt>
      <trkpt lat="46.14936" lon="5.48018">
        <ele>664.2</ele>
        <time>2022-03-26T14:30:07Z</time>
      </trkpt>
      <trkpt lat="46.14952" lon="5.48017">
        <ele>665.6</ele>
        <time>2022-03-26T14:30:14Z</time>
      </trkpt>
      <trkpt lat="46.14955" lon="5.48017">
        <ele>665.8</ele>
        <time>2022-03-26T14:30:15Z</time>
      </trkpt>
      <trkpt lat="46.14962" lon="5.48017">
        <ele>666.6</ele>
        <time>2022-03-26T14:30:18Z</time>
      </trkpt>
      <trkpt lat="46.14977" lon="5.48017">
        <ele>667.6</ele>
        <time>2022-03-26T14:30:24Z</time>
      </trkpt>
      <trkpt lat="46.14989" lon="5.48018">
        <ele>668.8</ele>
        <time>2022-03-26T14:30:29Z</time>
      </trkpt>
      <trkpt lat="46.14999" lon="5.4802">
        <ele>669.8</ele>
        <time>2022-03-26T14:30:33Z</time>
      </trkpt>
      <trkpt lat="46.15001" lon="5.48021">
        <ele>670</ele>
        <time>2022-03-26T14:30:34Z</time>
      </trkpt>
      <trkpt lat="46.15016" lon="5.48027">
        <ele>671.2</ele>
        <time>2022-03-26T14:30:40Z</time>
      </trkpt>
      <trkpt lat="46.15023" lon="5.48033">
        <ele>672</ele>
        <time>2022-03-26T14:30:43Z</time>
      </trkpt>
      <trkpt lat="46.15025" lon="5.48034">
        <ele>672.2</ele>
        <time>2022-03-26T14:30:44Z</time>
      </trkpt>
      <trkpt lat="46.15042" lon="5.48041">
        <ele>673.2</ele>
        <time>2022-03-26T14:30:50Z</time>
      </trkpt>
      <trkpt lat="46.15045" lon="5.48042">
        <ele>673.2</ele>
        <time>2022-03-26T14:30:51Z</time>
      </trkpt>
      <trkpt lat="46.15061" lon="5.48047">
        <ele>674</ele>
        <time>2022-03-26T14:30:57Z</time>
      </trkpt>
      <trkpt lat="46.15065" lon="5.48047">
        <ele>674.2</ele>
        <time>2022-03-26T14:30:58Z</time>
      </trkpt>
      <trkpt lat="46.15078" lon="5.48047">
        <ele>675.4</ele>
        <time>2022-03-26T14:31:02Z</time>
      </trkpt>
      <trkpt lat="46.15087" lon="5.48045">
        <ele>676</ele>
        <time>2022-03-26T14:31:05Z</time>
      </trkpt>
      <trkpt lat="46.15093" lon="5.48045">
        <ele>676.4</ele>
        <time>2022-03-26T14:31:07Z</time>
      </trkpt>
      <trkpt lat="46.15102" lon="5.48042">
        <ele>677.4</ele>
        <time>2022-03-26T14:31:10Z</time>
      </trkpt>
      <trkpt lat="46.15104" lon="5.48042">
        <ele>677.6</ele>
        <time>2022-03-26T14:31:11Z</time>
      </trkpt>
      <trkpt lat="46.15112" lon="5.48043">
        <ele>678.6</ele>
        <time>2022-03-26T14:31:14Z</time>
      </trkpt>
      <trkpt lat="46.15124" lon="5.48045">
        <ele>679.6</ele>
        <time>2022-03-26T14:31:19Z</time>
      </trkpt>
      <trkpt lat="46.1513" lon="5.48044">
        <ele>679.8</ele>
        <time>2022-03-26T14:31:21Z</time>
      </trkpt>
      <trkpt lat="46.1514" lon="5.48045">
        <ele>680.8</ele>
        <time>2022-03-26T14:31:25Z</time>
      </trkpt>
      <trkpt lat="46.15155" lon="5.48046">
        <ele>681.8</ele>
        <time>2022-03-26T14:31:31Z</time>
      </trkpt>
      <trkpt lat="46.15158" lon="5.48046">
        <ele>682</ele>
        <time>2022-03-26T14:31:32Z</time>
      </trkpt>
      <trkpt lat="46.15165" lon="5.48046">
        <ele>683</ele>
        <time>2022-03-26T14:31:35Z</time>
      </trkpt>
      <trkpt lat="46.15183" lon="5.48049">
        <ele>684</ele>
        <time>2022-03-26T14:31:42Z</time>
      </trkpt>
      <trkpt lat="46.15188" lon="5.4805">
        <ele>684.2</ele>
        <time>2022-03-26T14:31:44Z</time>
      </trkpt>
      <trkpt lat="46.15202" lon="5.48055">
        <ele>685.4</ele>
        <time>2022-03-26T14:31:50Z</time>
      </trkpt>
      <trkpt lat="46.15205" lon="5.48056">
        <ele>685.8</ele>
        <time>2022-03-26T14:31:51Z</time>
      </trkpt>
      <trkpt lat="46.15211" lon="5.48058">
        <ele>686.8</ele>
        <time>2022-03-26T14:31:54Z</time>
      </trkpt>
      <trkpt lat="46.1522" lon="5.4806">
        <ele>687.6</ele>
        <time>2022-03-26T14:31:58Z</time>
      </trkpt>
      <trkpt lat="46.15222" lon="5.48061">
        <ele>687.8</ele>
        <time>2022-03-26T14:31:59Z</time>
      </trkpt>
      <trkpt lat="46.15231" lon="5.48065">
        <ele>689</ele>
        <time>2022-03-26T14:32:03Z</time>
      </trkpt>
      <trkpt lat="46.15243" lon="5.48072">
        <ele>690</ele>
        <time>2022-03-26T14:32:08Z</time>
      </trkpt>
      <trkpt lat="46.15245" lon="5.48074">
        <ele>690</ele>
        <time>2022-03-26T14:32:09Z</time>
      </trkpt>
      <trkpt lat="46.15257" lon="5.48084">
        <ele>691</ele>
        <time>2022-03-26T14:32:14Z</time>
      </trkpt>
      <trkpt lat="46.15262" lon="5.48088">
        <ele>691.6</ele>
        <time>2022-03-26T14:32:16Z</time>
      </trkpt>
      <trkpt lat="46.15272" lon="5.48097">
        <ele>692.2</ele>
        <time>2022-03-26T14:32:20Z</time>
      </trkpt>
      <trkpt lat="46.15286" lon="5.4811">
        <ele>693.2</ele>
        <time>2022-03-26T14:32:26Z</time>
      </trkpt>
      <trkpt lat="46.15288" lon="5.48112">
        <ele>693.4</ele>
        <time>2022-03-26T14:32:27Z</time>
      </trkpt>
      <trkpt lat="46.15296" lon="5.48121">
        <ele>694.4</ele>
        <time>2022-03-26T14:32:31Z</time>
      </trkpt>
      <trkpt lat="46.15306" lon="5.48128">
        <ele>695.6</ele>
        <time>2022-03-26T14:32:35Z</time>
      </trkpt>
      <trkpt lat="46.1531" lon="5.48133">
        <ele>696.2</ele>
        <time>2022-03-26T14:32:37Z</time>
      </trkpt>
      <trkpt lat="46.15319" lon="5.48141">
        <ele>696.6</ele>
        <time>2022-03-26T14:32:41Z</time>
      </trkpt>
      <trkpt lat="46.1533" lon="5.48153">
        <ele>697.4</ele>
        <time>2022-03-26T14:32:46Z</time>
      </trkpt>
      <trkpt lat="46.15332" lon="5.48156">
        <ele>697.8</ele>
        <time>2022-03-26T14:32:47Z</time>
      </trkpt>
      <trkpt lat="46.15344" lon="5.48169">
        <ele>699</ele>
        <time>2022-03-26T14:32:52Z</time>
      </trkpt>
      <trkpt lat="46.15351" lon="5.48175">
        <ele>699.4</ele>
        <time>2022-03-26T14:32:55Z</time>
      </trkpt>
      <trkpt lat="46.15358" lon="5.48182">
        <ele>700.2</ele>
        <time>2022-03-26T14:32:58Z</time>
      </trkpt>
      <trkpt lat="46.1537" lon="5.48194">
        <ele>701.4</ele>
        <time>2022-03-26T14:33:03Z</time>
      </trkpt>
      <trkpt lat="46.15389" lon="5.48207">
        <ele>702.6</ele>
        <time>2022-03-26T14:33:10Z</time>
      </trkpt>
      <trkpt lat="46.15391" lon="5.48208">
        <ele>702.8</ele>
        <time>2022-03-26T14:33:11Z</time>
      </trkpt>
      <trkpt lat="46.15403" lon="5.4822">
        <ele>703.8</ele>
        <time>2022-03-26T14:33:17Z</time>
      </trkpt>
      <trkpt lat="46.15407" lon="5.48224">
        <ele>704.2</ele>
        <time>2022-03-26T14:33:19Z</time>
      </trkpt>
      <trkpt lat="46.15412" lon="5.48229">
        <ele>705</ele>
        <time>2022-03-26T14:33:22Z</time>
      </trkpt>
      <trkpt lat="46.15419" lon="5.48237">
        <ele>705.6</ele>
        <time>2022-03-26T14:33:26Z</time>
      </trkpt>
      <trkpt lat="46.15422" lon="5.48242">
        <ele>706</ele>
        <time>2022-03-26T14:33:28Z</time>
      </trkpt>
      <trkpt lat="46.15431" lon="5.48253">
        <ele>707</ele>
        <time>2022-03-26T14:33:33Z</time>
      </trkpt>
      <trkpt lat="46.15433" lon="5.48256">
        <ele>707.6</ele>
        <time>2022-03-26T14:33:35Z</time>
      </trkpt>
      <trkpt lat="46.15436" lon="5.48261">
        <ele>708.2</ele>
        <time>2022-03-26T14:33:37Z</time>
      </trkpt>
      <trkpt lat="46.15444" lon="5.48274">
        <ele>709.2</ele>
        <time>2022-03-26T14:33:42Z</time>
      </trkpt>
      <trkpt lat="46.15455" lon="5.48287">
        <ele>710.2</ele>
        <time>2022-03-26T14:33:47Z</time>
      </trkpt>
      <trkpt lat="46.15458" lon="5.48289">
        <ele>710.2</ele>
        <time>2022-03-26T14:33:48Z</time>
      </trkpt>
      <trkpt lat="46.15477" lon="5.48303">
        <ele>711.4</ele>
        <time>2022-03-26T14:33:54Z</time>
      </trkpt>
      <trkpt lat="46.15481" lon="5.48304">
        <ele>711.6</ele>
        <time>2022-03-26T14:33:55Z</time>
      </trkpt>
      <trkpt lat="46.155" lon="5.48315">
        <ele>712.4</ele>
        <time>2022-03-26T14:34:02Z</time>
      </trkpt>
      <trkpt lat="46.15502" lon="5.48317">
        <ele>712.6</ele>
        <time>2022-03-26T14:34:03Z</time>
      </trkpt>
      <trkpt lat="46.1552" lon="5.48332">
        <ele>713.6</ele>
        <time>2022-03-26T14:34:10Z</time>
      </trkpt>
      <trkpt lat="46.15537" lon="5.48346">
        <ele>714.2</ele>
        <time>2022-03-26T14:34:16Z</time>
      </trkpt>
      <trkpt lat="46.15555" lon="5.48359">
        <ele>714.6</ele>
        <time>2022-03-26T14:34:22Z</time>
      </trkpt>
      <trkpt lat="46.15559" lon="5.48361">
        <ele>714.8</ele>
        <time>2022-03-26T14:34:23Z</time>
      </trkpt>
      <trkpt lat="46.15575" lon="5.48368">
        <ele>715.6</ele>
        <time>2022-03-26T14:34:27Z</time>
      </trkpt>
      <trkpt lat="46.15582" lon="5.48371">
        <ele>715.6</ele>
        <time>2022-03-26T14:34:29Z</time>
      </trkpt>
      <trkpt lat="46.15607" lon="5.48379">
        <ele>716.8</ele>
        <time>2022-03-26T14:34:36Z</time>
      </trkpt>
      <trkpt lat="46.15628" lon="5.48385">
        <ele>717.6</ele>
        <time>2022-03-26T14:34:42Z</time>
      </trkpt>
      <trkpt lat="46.15632" lon="5.48387">
        <ele>717.8</ele>
        <time>2022-03-26T14:34:43Z</time>
      </trkpt>
      <trkpt lat="46.15648" lon="5.48394">
        <ele>718.6</ele>
        <time>2022-03-26T14:34:48Z</time>
      </trkpt>
      <trkpt lat="46.15654" lon="5.48395">
        <ele>719</ele>
        <time>2022-03-26T14:34:50Z</time>
      </trkpt>
      <trkpt lat="46.15662" lon="5.48398">
        <ele>719.2</ele>
        <time>2022-03-26T14:34:52Z</time>
      </trkpt>
      <trkpt lat="46.15666" lon="5.48399">
        <ele>719.2</ele>
        <time>2022-03-26T14:34:53Z</time>
      </trkpt>
      <trkpt lat="46.15694" lon="5.48404">
        <ele>720</ele>
        <time>2022-03-26T14:34:59Z</time>
      </trkpt>
      <trkpt lat="46.15704" lon="5.48405">
        <ele>720.2</ele>
        <time>2022-03-26T14:35:01Z</time>
      </trkpt>
      <trkpt lat="46.15719" lon="5.48404">
        <ele>720.4</ele>
        <time>2022-03-26T14:35:04Z</time>
      </trkpt>
      <trkpt lat="46.15725" lon="5.48407">
        <ele>720.4</ele>
        <time>2022-03-26T14:35:05Z</time>
      </trkpt>
      <trkpt lat="46.15736" lon="5.48408">
        <ele>720.6</ele>
        <time>2022-03-26T14:35:07Z</time>
      </trkpt>
      <trkpt lat="46.15747" lon="5.48409">
        <ele>720.8</ele>
        <time>2022-03-26T14:35:09Z</time>
      </trkpt>
      <trkpt lat="46.1576" lon="5.48413">
        <ele>721</ele>
        <time>2022-03-26T14:35:11Z</time>
      </trkpt>
      <trkpt lat="46.1577" lon="5.4841">
        <ele>721.2</ele>
        <time>2022-03-26T14:35:13Z</time>
      </trkpt>
      <trkpt lat="46.15779" lon="5.48408">
        <ele>721.2</ele>
        <time>2022-03-26T14:35:15Z</time>
      </trkpt>
      <trkpt lat="46.15795" lon="5.48404">
        <ele>721.2</ele>
        <time>2022-03-26T14:35:18Z</time>
      </trkpt>
      <trkpt lat="46.15811" lon="5.48405">
        <ele>721.6</ele>
        <time>2022-03-26T14:35:21Z</time>
      </trkpt>
      <trkpt lat="46.15825" lon="5.48403">
        <ele>721.8</ele>
        <time>2022-03-26T14:35:24Z</time>
      </trkpt>
      <trkpt lat="46.15829" lon="5.48401">
        <ele>722</ele>
        <time>2022-03-26T14:35:25Z</time>
      </trkpt>
      <trkpt lat="46.1584" lon="5.48398">
        <ele>722</ele>
        <time>2022-03-26T14:35:27Z</time>
      </trkpt>
      <trkpt lat="46.15861" lon="5.48396">
        <ele>722.6</ele>
        <time>2022-03-26T14:35:31Z</time>
      </trkpt>
      <trkpt lat="46.15879" lon="5.48392">
        <ele>723</ele>
        <time>2022-03-26T14:35:35Z</time>
      </trkpt>
      <trkpt lat="46.15895" lon="5.48388">
        <ele>723.6</ele>
        <time>2022-03-26T14:35:38Z</time>
      </trkpt>
      <trkpt lat="46.15925" lon="5.48381">
        <ele>724</ele>
        <time>2022-03-26T14:35:44Z</time>
      </trkpt>
      <trkpt lat="46.15939" lon="5.48377">
        <ele>724.2</ele>
        <time>2022-03-26T14:35:47Z</time>
      </trkpt>
      <trkpt lat="46.15957" lon="5.4837">
        <ele>724.6</ele>
        <time>2022-03-26T14:35:51Z</time>
      </trkpt>
      <trkpt lat="46.15964" lon="5.48366">
        <ele>724.8</ele>
        <time>2022-03-26T14:35:53Z</time>
      </trkpt>
      <trkpt lat="46.15968" lon="5.48365">
        <ele>725</ele>
        <time>2022-03-26T14:35:54Z</time>
      </trkpt>
      <trkpt lat="46.15972" lon="5.48363">
        <ele>725.2</ele>
        <time>2022-03-26T14:35:55Z</time>
      </trkpt>
      <trkpt lat="46.15993" lon="5.48357">
        <ele>726.2</ele>
        <time>2022-03-26T14:36:01Z</time>
      </trkpt>
      <trkpt lat="46.15996" lon="5.48357">
        <ele>726.8</ele>
        <time>2022-03-26T14:36:02Z</time>
      </trkpt>
      <trkpt lat="46.16007" lon="5.4836">
        <ele>727.2</ele>
        <time>2022-03-26T14:36:04Z</time>
      </trkpt>
      <trkpt lat="46.16012" lon="5.4836">
        <ele>727.2</ele>
        <time>2022-03-26T14:36:05Z</time>
      </trkpt>
      <trkpt lat="46.16016" lon="5.48361">
        <ele>727.6</ele>
        <time>2022-03-26T14:36:06Z</time>
      </trkpt>
      <trkpt lat="46.16047" lon="5.48363">
        <ele>728.4</ele>
        <time>2022-03-26T14:36:13Z</time>
      </trkpt>
      <trkpt lat="46.16051" lon="5.48365">
        <ele>728.4</ele>
        <time>2022-03-26T14:36:14Z</time>
      </trkpt>
      <trkpt lat="46.16078" lon="5.48377">
        <ele>729</ele>
        <time>2022-03-26T14:36:21Z</time>
      </trkpt>
      <trkpt lat="46.16095" lon="5.48383">
        <ele>729.4</ele>
        <time>2022-03-26T14:36:25Z</time>
      </trkpt>
      <trkpt lat="46.16111" lon="5.48389">
        <ele>730</ele>
        <time>2022-03-26T14:36:29Z</time>
      </trkpt>
      <trkpt lat="46.16131" lon="5.48393">
        <ele>730.6</ele>
        <time>2022-03-26T14:36:34Z</time>
      </trkpt>
      <trkpt lat="46.16136" lon="5.48394">
        <ele>730.6</ele>
        <time>2022-03-26T14:36:35Z</time>
      </trkpt>
      <trkpt lat="46.1616" lon="5.48397">
        <ele>731.8</ele>
        <time>2022-03-26T14:36:41Z</time>
      </trkpt>
      <trkpt lat="46.16163" lon="5.48397">
        <ele>732.2</ele>
        <time>2022-03-26T14:36:42Z</time>
      </trkpt>
      <trkpt lat="46.1617" lon="5.48399">
        <ele>732.8</ele>
        <time>2022-03-26T14:36:44Z</time>
      </trkpt>
      <trkpt lat="46.16183" lon="5.48401">
        <ele>734</ele>
        <time>2022-03-26T14:36:48Z</time>
      </trkpt>
      <trkpt lat="46.16199" lon="5.48403">
        <ele>735.2</ele>
        <time>2022-03-26T14:36:53Z</time>
      </trkpt>
      <trkpt lat="46.16206" lon="5.48405">
        <ele>735.8</ele>
        <time>2022-03-26T14:36:55Z</time>
      </trkpt>
      <trkpt lat="46.16211" lon="5.48406">
        <ele>736.4</ele>
        <time>2022-03-26T14:36:57Z</time>
      </trkpt>
      <trkpt lat="46.16228" lon="5.48412">
        <ele>737.6</ele>
        <time>2022-03-26T14:37:02Z</time>
      </trkpt>
      <trkpt lat="46.1624" lon="5.48416">
        <ele>738.6</ele>
        <time>2022-03-26T14:37:06Z</time>
      </trkpt>
      <trkpt lat="46.16243" lon="5.48416">
        <ele>738.8</ele>
        <time>2022-03-26T14:37:07Z</time>
      </trkpt>
      <trkpt lat="46.16266" lon="5.48421">
        <ele>739.8</ele>
        <time>2022-03-26T14:37:14Z</time>
      </trkpt>
      <trkpt lat="46.16285" lon="5.48427">
        <ele>740.8</ele>
        <time>2022-03-26T14:37:20Z</time>
      </trkpt>
      <trkpt lat="46.16293" lon="5.48429">
        <ele>741.4</ele>
        <time>2022-03-26T14:37:23Z</time>
      </trkpt>
      <trkpt lat="46.163" lon="5.4843">
        <ele>742.2</ele>
        <time>2022-03-26T14:37:25Z</time>
      </trkpt>
      <trkpt lat="46.16313" lon="5.48433">
        <ele>743.4</ele>
        <time>2022-03-26T14:37:30Z</time>
      </trkpt>
      <trkpt lat="46.16318" lon="5.48433">
        <ele>743.8</ele>
        <time>2022-03-26T14:37:32Z</time>
      </trkpt>
      <trkpt lat="46.16334" lon="5.48436">
        <ele>744.6</ele>
        <time>2022-03-26T14:37:38Z</time>
      </trkpt>
      <trkpt lat="46.16346" lon="5.48439">
        <ele>745.6</ele>
        <time>2022-03-26T14:37:42Z</time>
      </trkpt>
      <trkpt lat="46.16348" lon="5.48439">
        <ele>745.8</ele>
        <time>2022-03-26T14:37:43Z</time>
      </trkpt>
      <trkpt lat="46.16363" lon="5.48442">
        <ele>747</ele>
        <time>2022-03-26T14:37:48Z</time>
      </trkpt>
      <trkpt lat="46.16377" lon="5.48445">
        <ele>747.4</ele>
        <time>2022-03-26T14:37:52Z</time>
      </trkpt>
      <trkpt lat="46.16402" lon="5.48448">
        <ele>747.6</ele>
        <time>2022-03-26T14:37:58Z</time>
      </trkpt>
      <trkpt lat="46.16434" lon="5.48451">
        <ele>747.6</ele>
        <time>2022-03-26T14:38:04Z</time>
      </trkpt>
      <trkpt lat="46.16472" lon="5.48459">
        <ele>748</ele>
        <time>2022-03-26T14:38:12Z</time>
      </trkpt>
      <trkpt lat="46.16487" lon="5.48463">
        <ele>748</ele>
        <time>2022-03-26T14:38:15Z</time>
      </trkpt>
      <trkpt lat="46.16511" lon="5.48471">
        <ele>748.4</ele>
        <time>2022-03-26T14:38:21Z</time>
      </trkpt>
      <trkpt lat="46.16524" lon="5.48476">
        <ele>749.2</ele>
        <time>2022-03-26T14:38:24Z</time>
      </trkpt>
      <trkpt lat="46.16546" lon="5.48483">
        <ele>749.8</ele>
        <time>2022-03-26T14:38:29Z</time>
      </trkpt>
      <trkpt lat="46.16563" lon="5.48489">
        <ele>750.2</ele>
        <time>2022-03-26T14:38:33Z</time>
      </trkpt>
      <trkpt lat="46.16569" lon="5.48491">
        <ele>750.2</ele>
        <time>2022-03-26T14:38:34Z</time>
      </trkpt>
      <trkpt lat="46.16581" lon="5.48496">
        <ele>750.6</ele>
        <time>2022-03-26T14:38:37Z</time>
      </trkpt>
      <trkpt lat="46.16598" lon="5.48501">
        <ele>751.2</ele>
        <time>2022-03-26T14:38:41Z</time>
      </trkpt>
      <trkpt lat="46.1661" lon="5.48507">
        <ele>751.6</ele>
        <time>2022-03-26T14:38:44Z</time>
      </trkpt>
      <trkpt lat="46.1662" lon="5.48511">
        <ele>752.2</ele>
        <time>2022-03-26T14:38:47Z</time>
      </trkpt>
      <trkpt lat="46.16624" lon="5.48513">
        <ele>752.6</ele>
        <time>2022-03-26T14:38:48Z</time>
      </trkpt>
      <trkpt lat="46.16645" lon="5.48519">
        <ele>753.2</ele>
        <time>2022-03-26T14:38:53Z</time>
      </trkpt>
      <trkpt lat="46.16675" lon="5.48524">
        <ele>753.6</ele>
        <time>2022-03-26T14:38:59Z</time>
      </trkpt>
      <trkpt lat="46.1668" lon="5.48526">
        <ele>753.6</ele>
        <time>2022-03-26T14:39:00Z</time>
      </trkpt>
      <trkpt lat="46.16684" lon="5.48527">
        <ele>753.6</ele>
        <time>2022-03-26T14:39:01Z</time>
      </trkpt>
      <trkpt lat="46.16705" lon="5.48535">
        <ele>754.2</ele>
        <time>2022-03-26T14:39:06Z</time>
      </trkpt>
      <trkpt lat="46.16714" lon="5.48538">
        <ele>754.4</ele>
        <time>2022-03-26T14:39:08Z</time>
      </trkpt>
      <trkpt lat="46.16718" lon="5.4854">
        <ele>754.6</ele>
        <time>2022-03-26T14:39:09Z</time>
      </trkpt>
      <trkpt lat="46.16729" lon="5.48546">
        <ele>755.2</ele>
        <time>2022-03-26T14:39:12Z</time>
      </trkpt>
      <trkpt lat="46.16736" lon="5.48552">
        <ele>755.8</ele>
        <time>2022-03-26T14:39:14Z</time>
      </trkpt>
      <trkpt lat="46.16749" lon="5.48561">
        <ele>757</ele>
        <time>2022-03-26T14:39:18Z</time>
      </trkpt>
      <trkpt lat="46.16762" lon="5.4857">
        <ele>758.2</ele>
        <time>2022-03-26T14:39:22Z</time>
      </trkpt>
      <trkpt lat="46.16777" lon="5.48581">
        <ele>759.8</ele>
        <time>2022-03-26T14:39:27Z</time>
      </trkpt>
      <trkpt lat="46.16789" lon="5.48587">
        <ele>760.8</ele>
        <time>2022-03-26T14:39:31Z</time>
      </trkpt>
      <trkpt lat="46.16799" lon="5.48593">
        <ele>762</ele>
        <time>2022-03-26T14:39:36Z</time>
      </trkpt>
      <trkpt lat="46.16806" lon="5.48597">
        <ele>763</ele>
        <time>2022-03-26T14:39:39Z</time>
      </trkpt>
      <trkpt lat="46.16818" lon="5.48605">
        <ele>764.4</ele>
        <time>2022-03-26T14:39:44Z</time>
      </trkpt>
      <trkpt lat="46.16828" lon="5.48613">
        <ele>765.6</ele>
        <time>2022-03-26T14:39:49Z</time>
      </trkpt>
      <trkpt lat="46.16836" lon="5.4862">
        <ele>766.6</ele>
        <time>2022-03-26T14:39:53Z</time>
      </trkpt>
      <trkpt lat="46.1684" lon="5.48622">
        <ele>766.8</ele>
        <time>2022-03-26T14:39:55Z</time>
      </trkpt>
      <trkpt lat="46.16846" lon="5.48627">
        <ele>767.6</ele>
        <time>2022-03-26T14:39:58Z</time>
      </trkpt>
      <trkpt lat="46.16858" lon="5.48638">
        <ele>769</ele>
        <time>2022-03-26T14:40:04Z</time>
      </trkpt>
      <trkpt lat="46.1686" lon="5.4864">
        <ele>769.2</ele>
        <time>2022-03-26T14:40:05Z</time>
      </trkpt>
      <trkpt lat="46.16867" lon="5.48645">
        <ele>770</ele>
        <time>2022-03-26T14:40:08Z</time>
      </trkpt>
      <trkpt lat="46.16876" lon="5.48653">
        <ele>771.2</ele>
        <time>2022-03-26T14:40:13Z</time>
      </trkpt>
      <trkpt lat="46.16879" lon="5.48654">
        <ele>771.2</ele>
        <time>2022-03-26T14:40:14Z</time>
      </trkpt>
      <trkpt lat="46.16888" lon="5.4866">
        <ele>772.4</ele>
        <time>2022-03-26T14:40:18Z</time>
      </trkpt>
      <trkpt lat="46.16896" lon="5.48666">
        <ele>773.2</ele>
        <time>2022-03-26T14:40:22Z</time>
      </trkpt>
      <trkpt lat="46.169" lon="5.48668">
        <ele>773.6</ele>
        <time>2022-03-26T14:40:24Z</time>
      </trkpt>
      <trkpt lat="46.16909" lon="5.48672">
        <ele>774.8</ele>
        <time>2022-03-26T14:40:28Z</time>
      </trkpt>
      <trkpt lat="46.16912" lon="5.48673">
        <ele>774.8</ele>
        <time>2022-03-26T14:40:29Z</time>
      </trkpt>
      <trkpt lat="46.16926" lon="5.48677">
        <ele>776</ele>
        <time>2022-03-26T14:40:34Z</time>
      </trkpt>
      <trkpt lat="46.16948" lon="5.48685">
        <ele>776.8</ele>
        <time>2022-03-26T14:40:41Z</time>
      </trkpt>
      <trkpt lat="46.16955" lon="5.48689">
        <ele>777.2</ele>
        <time>2022-03-26T14:40:43Z</time>
      </trkpt>
      <trkpt lat="46.16977" lon="5.48703">
        <ele>778</ele>
        <time>2022-03-26T14:40:49Z</time>
      </trkpt>
      <trkpt lat="46.16982" lon="5.48708">
        <ele>778.2</ele>
        <time>2022-03-26T14:40:51Z</time>
      </trkpt>
      <trkpt lat="46.16996" lon="5.48719">
        <ele>779</ele>
        <time>2022-03-26T14:40:56Z</time>
      </trkpt>
      <trkpt lat="46.17002" lon="5.48724">
        <ele>779.4</ele>
        <time>2022-03-26T14:40:58Z</time>
      </trkpt>
      <trkpt lat="46.17017" lon="5.48733">
        <ele>780.4</ele>
        <time>2022-03-26T14:41:03Z</time>
      </trkpt>
      <trkpt lat="46.17023" lon="5.48737">
        <ele>781.2</ele>
        <time>2022-03-26T14:41:05Z</time>
      </trkpt>
      <trkpt lat="46.17026" lon="5.48739">
        <ele>781.4</ele>
        <time>2022-03-26T14:41:06Z</time>
      </trkpt>
      <trkpt lat="46.17041" lon="5.48749">
        <ele>782.4</ele>
        <time>2022-03-26T14:41:11Z</time>
      </trkpt>
      <trkpt lat="46.17052" lon="5.48757">
        <ele>783.2</ele>
        <time>2022-03-26T14:41:15Z</time>
      </trkpt>
      <trkpt lat="46.17057" lon="5.48762">
        <ele>783.6</ele>
        <time>2022-03-26T14:41:17Z</time>
      </trkpt>
      <trkpt lat="46.17068" lon="5.4877">
        <ele>784.6</ele>
        <time>2022-03-26T14:41:21Z</time>
      </trkpt>
      <trkpt lat="46.1707" lon="5.48773">
        <ele>784.6</ele>
        <time>2022-03-26T14:41:22Z</time>
      </trkpt>
      <trkpt lat="46.17084" lon="5.48785">
        <ele>785.8</ele>
        <time>2022-03-26T14:41:27Z</time>
      </trkpt>
      <trkpt lat="46.17098" lon="5.48796">
        <ele>787.2</ele>
        <time>2022-03-26T14:41:32Z</time>
      </trkpt>
      <trkpt lat="46.17101" lon="5.48798">
        <ele>787.2</ele>
        <time>2022-03-26T14:41:33Z</time>
      </trkpt>
      <trkpt lat="46.17109" lon="5.48804">
        <ele>788.4</ele>
        <time>2022-03-26T14:41:36Z</time>
      </trkpt>
      <trkpt lat="46.17119" lon="5.48812">
        <ele>789.4</ele>
        <time>2022-03-26T14:41:40Z</time>
      </trkpt>
      <trkpt lat="46.17122" lon="5.48814">
        <ele>789.6</ele>
        <time>2022-03-26T14:41:41Z</time>
      </trkpt>
      <trkpt lat="46.17141" lon="5.48824">
        <ele>791</ele>
        <time>2022-03-26T14:41:48Z</time>
      </trkpt>
      <trkpt lat="46.17146" lon="5.48826">
        <ele>791.2</ele>
        <time>2022-03-26T14:41:50Z</time>
      </trkpt>
      <trkpt lat="46.17157" lon="5.48832">
        <ele>792</ele>
        <time>2022-03-26T14:41:54Z</time>
      </trkpt>
      <trkpt lat="46.17169" lon="5.48837">
        <ele>793</ele>
        <time>2022-03-26T14:41:58Z</time>
      </trkpt>
      <trkpt lat="46.17175" lon="5.48839">
        <ele>793.6</ele>
        <time>2022-03-26T14:42:00Z</time>
      </trkpt>
      <trkpt lat="46.17187" lon="5.48843">
        <ele>794</ele>
        <time>2022-03-26T14:42:04Z</time>
      </trkpt>
      <trkpt lat="46.172" lon="5.48851">
        <ele>795.4</ele>
        <time>2022-03-26T14:42:09Z</time>
      </trkpt>
      <trkpt lat="46.17213" lon="5.48859">
        <ele>796.6</ele>
        <time>2022-03-26T14:42:14Z</time>
      </trkpt>
      <trkpt lat="46.17224" lon="5.48868">
        <ele>797.2</ele>
        <time>2022-03-26T14:42:18Z</time>
      </trkpt>
      <trkpt lat="46.17227" lon="5.48871">
        <ele>797.6</ele>
        <time>2022-03-26T14:42:19Z</time>
      </trkpt>
      <trkpt lat="46.17239" lon="5.48886">
        <ele>798.8</ele>
        <time>2022-03-26T14:42:24Z</time>
      </trkpt>
      <trkpt lat="46.17243" lon="5.48893">
        <ele>799.4</ele>
        <time>2022-03-26T14:42:26Z</time>
      </trkpt>
      <trkpt lat="46.17247" lon="5.48903">
        <ele>800</ele>
        <time>2022-03-26T14:42:28Z</time>
      </trkpt>
      <trkpt lat="46.1725" lon="5.48914">
        <ele>800.4</ele>
        <time>2022-03-26T14:42:30Z</time>
      </trkpt>
      <trkpt lat="46.17251" lon="5.4892">
        <ele>800.4</ele>
        <time>2022-03-26T14:42:31Z</time>
      </trkpt>
      <trkpt lat="46.17259" lon="5.48961">
        <ele>800.4</ele>
        <time>2022-03-26T14:42:38Z</time>
      </trkpt>
      <trkpt lat="46.17271" lon="5.49009">
        <ele>800.6</ele>
        <time>2022-03-26T14:42:45Z</time>
      </trkpt>
      <trkpt lat="46.17277" lon="5.49039">
        <ele>800.6</ele>
        <time>2022-03-26T14:42:49Z</time>
      </trkpt>
      <trkpt lat="46.1728" lon="5.49063">
        <ele>800.4</ele>
        <time>2022-03-26T14:42:52Z</time>
      </trkpt>
      <trkpt lat="46.17281" lon="5.4908">
        <ele>800</ele>
        <time>2022-03-26T14:42:54Z</time>
      </trkpt>
      <trkpt lat="46.1728" lon="5.4911">
        <ele>799.6</ele>
        <time>2022-03-26T14:42:57Z</time>
      </trkpt>
      <trkpt lat="46.17278" lon="5.49123">
        <ele>799.6</ele>
        <time>2022-03-26T14:42:58Z</time>
      </trkpt>
      <trkpt lat="46.17272" lon="5.49158">
        <ele>799</ele>
        <time>2022-03-26T14:43:01Z</time>
      </trkpt>
      <trkpt lat="46.17271" lon="5.49171">
        <ele>798.6</ele>
        <time>2022-03-26T14:43:02Z</time>
      </trkpt>
      <trkpt lat="46.17268" lon="5.49219">
        <ele>796.6</ele>
        <time>2022-03-26T14:43:05Z</time>
      </trkpt>
      <trkpt lat="46.17267" lon="5.49232">
        <ele>796.2</ele>
        <time>2022-03-26T14:43:06Z</time>
      </trkpt>
      <trkpt lat="46.17267" lon="5.49248">
        <ele>795.2</ele>
        <time>2022-03-26T14:43:07Z</time>
      </trkpt>
      <trkpt lat="46.17266" lon="5.49282">
        <ele>793.8</ele>
        <time>2022-03-26T14:43:09Z</time>
      </trkpt>
      <trkpt lat="46.17266" lon="5.49297">
        <ele>792.4</ele>
        <time>2022-03-26T14:43:10Z</time>
      </trkpt>
      <trkpt lat="46.17268" lon="5.49323">
        <ele>791.6</ele>
        <time>2022-03-26T14:43:12Z</time>
      </trkpt>
      <trkpt lat="46.1727" lon="5.49335">
        <ele>791</ele>
        <time>2022-03-26T14:43:13Z</time>
      </trkpt>
      <trkpt lat="46.17273" lon="5.49345">
        <ele>790.4</ele>
        <time>2022-03-26T14:43:14Z</time>
      </trkpt>
      <trkpt lat="46.17276" lon="5.49354">
        <ele>790</ele>
        <time>2022-03-26T14:43:15Z</time>
      </trkpt>
      <trkpt lat="46.17282" lon="5.49368">
        <ele>789</ele>
        <time>2022-03-26T14:43:17Z</time>
      </trkpt>
      <trkpt lat="46.17285" lon="5.49376">
        <ele>788.8</ele>
        <time>2022-03-26T14:43:18Z</time>
      </trkpt>
      <trkpt lat="46.17286" lon="5.49384">
        <ele>788.6</ele>
        <time>2022-03-26T14:43:19Z</time>
      </trkpt>
      <trkpt lat="46.17287" lon="5.49415">
        <ele>788.2</ele>
        <time>2022-03-26T14:43:23Z</time>
      </trkpt>
      <trkpt lat="46.17288" lon="5.49443">
        <ele>787.8</ele>
        <time>2022-03-26T14:43:28Z</time>
      </trkpt>
      <trkpt lat="46.17288" lon="5.49444">
        <ele>787.4</ele>
        <time>2022-03-26T14:43:30Z</time>
      </trkpt>
      <trkpt lat="46.1729" lon="5.49448">
        <ele>786.6</ele>
        <time>2022-03-26T14:45:27Z</time>
      </trkpt>
      <trkpt lat="46.17297" lon="5.49471">
        <ele>786.6</ele>
        <time>2022-03-26T14:45:31Z</time>
      </trkpt>
      <trkpt lat="46.17307" lon="5.49492">
        <ele>786.4</ele>
        <time>2022-03-26T14:45:34Z</time>
      </trkpt>
      <trkpt lat="46.17315" lon="5.49507">
        <ele>786.2</ele>
        <time>2022-03-26T14:45:36Z</time>
      </trkpt>
      <trkpt lat="46.17329" lon="5.49533">
        <ele>785.4</ele>
        <time>2022-03-26T14:45:39Z</time>
      </trkpt>
      <trkpt lat="46.17333" lon="5.49544">
        <ele>785.2</ele>
        <time>2022-03-26T14:45:41Z</time>
      </trkpt>
      <trkpt lat="46.17336" lon="5.49556">
        <ele>785</ele>
        <time>2022-03-26T14:45:42Z</time>
      </trkpt>
      <trkpt lat="46.17338" lon="5.49568">
        <ele>784.2</ele>
        <time>2022-03-26T14:45:43Z</time>
      </trkpt>
      <trkpt lat="46.17338" lon="5.49596">
        <ele>783.6</ele>
        <time>2022-03-26T14:45:45Z</time>
      </trkpt>
      <trkpt lat="46.17332" lon="5.49623">
        <ele>782.6</ele>
        <time>2022-03-26T14:45:47Z</time>
      </trkpt>
      <trkpt lat="46.17326" lon="5.49636">
        <ele>781.6</ele>
        <time>2022-03-26T14:45:48Z</time>
      </trkpt>
      <trkpt lat="46.17319" lon="5.49649">
        <ele>781.2</ele>
        <time>2022-03-26T14:45:49Z</time>
      </trkpt>
      <trkpt lat="46.17311" lon="5.4966">
        <ele>780</ele>
        <time>2022-03-26T14:45:50Z</time>
      </trkpt>
      <trkpt lat="46.17302" lon="5.4967">
        <ele>779.6</ele>
        <time>2022-03-26T14:45:51Z</time>
      </trkpt>
      <trkpt lat="46.17292" lon="5.4968">
        <ele>778.4</ele>
        <time>2022-03-26T14:45:52Z</time>
      </trkpt>
      <trkpt lat="46.17274" lon="5.497">
        <ele>776.4</ele>
        <time>2022-03-26T14:45:54Z</time>
      </trkpt>
      <trkpt lat="46.17266" lon="5.49712">
        <ele>775.2</ele>
        <time>2022-03-26T14:45:55Z</time>
      </trkpt>
      <trkpt lat="46.17259" lon="5.49725">
        <ele>774.8</ele>
        <time>2022-03-26T14:45:56Z</time>
      </trkpt>
      <trkpt lat="46.17253" lon="5.4974">
        <ele>773.8</ele>
        <time>2022-03-26T14:45:57Z</time>
      </trkpt>
      <trkpt lat="46.1725" lon="5.49773">
        <ele>772.2</ele>
        <time>2022-03-26T14:45:59Z</time>
      </trkpt>
      <trkpt lat="46.17261" lon="5.49805">
        <ele>770.4</ele>
        <time>2022-03-26T14:46:01Z</time>
      </trkpt>
      <trkpt lat="46.17276" lon="5.4983">
        <ele>769</ele>
        <time>2022-03-26T14:46:03Z</time>
      </trkpt>
      <trkpt lat="46.17294" lon="5.49852">
        <ele>768</ele>
        <time>2022-03-26T14:46:05Z</time>
      </trkpt>
      <trkpt lat="46.17304" lon="5.49861">
        <ele>766.8</ele>
        <time>2022-03-26T14:46:06Z</time>
      </trkpt>
      <trkpt lat="46.17323" lon="5.49881">
        <ele>765</ele>
        <time>2022-03-26T14:46:08Z</time>
      </trkpt>
      <trkpt lat="46.17343" lon="5.49901">
        <ele>763.8</ele>
        <time>2022-03-26T14:46:10Z</time>
      </trkpt>
      <trkpt lat="46.17353" lon="5.4991">
        <ele>763.2</ele>
        <time>2022-03-26T14:46:11Z</time>
      </trkpt>
      <trkpt lat="46.17365" lon="5.49918">
        <ele>763</ele>
        <time>2022-03-26T14:46:12Z</time>
      </trkpt>
      <trkpt lat="46.17377" lon="5.49924">
        <ele>762.2</ele>
        <time>2022-03-26T14:46:13Z</time>
      </trkpt>
      <trkpt lat="46.17402" lon="5.49928">
        <ele>760.4</ele>
        <time>2022-03-26T14:46:15Z</time>
      </trkpt>
      <trkpt lat="46.17429" lon="5.49921">
        <ele>758.6</ele>
        <time>2022-03-26T14:46:17Z</time>
      </trkpt>
      <trkpt lat="46.17441" lon="5.49915">
        <ele>757.8</ele>
        <time>2022-03-26T14:46:18Z</time>
      </trkpt>
      <trkpt lat="46.17453" lon="5.49907">
        <ele>757.4</ele>
        <time>2022-03-26T14:46:19Z</time>
      </trkpt>
      <trkpt lat="46.17464" lon="5.49898">
        <ele>756</ele>
        <time>2022-03-26T14:46:20Z</time>
      </trkpt>
      <trkpt lat="46.17488" lon="5.49879">
        <ele>754.8</ele>
        <time>2022-03-26T14:46:22Z</time>
      </trkpt>
      <trkpt lat="46.17511" lon="5.49864">
        <ele>753.2</ele>
        <time>2022-03-26T14:46:24Z</time>
      </trkpt>
      <trkpt lat="46.17523" lon="5.4986">
        <ele>752</ele>
        <time>2022-03-26T14:46:25Z</time>
      </trkpt>
      <trkpt lat="46.17535" lon="5.49859">
        <ele>751.4</ele>
        <time>2022-03-26T14:46:26Z</time>
      </trkpt>
      <trkpt lat="46.17547" lon="5.49861">
        <ele>749.8</ele>
        <time>2022-03-26T14:46:27Z</time>
      </trkpt>
      <trkpt lat="46.1756" lon="5.49865">
        <ele>749.2</ele>
        <time>2022-03-26T14:46:28Z</time>
      </trkpt>
      <trkpt lat="46.17571" lon="5.49872">
        <ele>748.2</ele>
        <time>2022-03-26T14:46:29Z</time>
      </trkpt>
      <trkpt lat="46.17594" lon="5.4989">
        <ele>747</ele>
        <time>2022-03-26T14:46:31Z</time>
      </trkpt>
      <trkpt lat="46.17604" lon="5.49902">
        <ele>745.8</ele>
        <time>2022-03-26T14:46:32Z</time>
      </trkpt>
      <trkpt lat="46.17613" lon="5.49916">
        <ele>745.2</ele>
        <time>2022-03-26T14:46:33Z</time>
      </trkpt>
      <trkpt lat="46.17621" lon="5.49932">
        <ele>744</ele>
        <time>2022-03-26T14:46:34Z</time>
      </trkpt>
      <trkpt lat="46.17625" lon="5.4995">
        <ele>743.6</ele>
        <time>2022-03-26T14:46:35Z</time>
      </trkpt>
      <trkpt lat="46.17629" lon="5.49969">
        <ele>742.2</ele>
        <time>2022-03-26T14:46:36Z</time>
      </trkpt>
      <trkpt lat="46.17632" lon="5.50002">
        <ele>741</ele>
        <time>2022-03-26T14:46:38Z</time>
      </trkpt>
      <trkpt lat="46.17634" lon="5.5002">
        <ele>739.8</ele>
        <time>2022-03-26T14:46:39Z</time>
      </trkpt>
      <trkpt lat="46.17638" lon="5.50041">
        <ele>739.2</ele>
        <time>2022-03-26T14:46:40Z</time>
      </trkpt>
      <trkpt lat="46.17644" lon="5.50057">
        <ele>738</ele>
        <time>2022-03-26T14:46:41Z</time>
      </trkpt>
      <trkpt lat="46.17656" lon="5.50087">
        <ele>736.2</ele>
        <time>2022-03-26T14:46:43Z</time>
      </trkpt>
      <trkpt lat="46.17671" lon="5.50116">
        <ele>734.2</ele>
        <time>2022-03-26T14:46:45Z</time>
      </trkpt>
      <trkpt lat="46.1768" lon="5.50129">
        <ele>733.6</ele>
        <time>2022-03-26T14:46:46Z</time>
      </trkpt>
      <trkpt lat="46.1769" lon="5.5014">
        <ele>732.4</ele>
        <time>2022-03-26T14:46:47Z</time>
      </trkpt>
      <trkpt lat="46.17698" lon="5.50148">
        <ele>731.4</ele>
        <time>2022-03-26T14:46:48Z</time>
      </trkpt>
      <trkpt lat="46.17709" lon="5.50159">
        <ele>730.8</ele>
        <time>2022-03-26T14:46:49Z</time>
      </trkpt>
      <trkpt lat="46.17729" lon="5.50189">
        <ele>729.6</ele>
        <time>2022-03-26T14:46:51Z</time>
      </trkpt>
      <trkpt lat="46.17747" lon="5.50215">
        <ele>728.2</ele>
        <time>2022-03-26T14:46:53Z</time>
      </trkpt>
      <trkpt lat="46.17758" lon="5.50226">
        <ele>726.8</ele>
        <time>2022-03-26T14:46:54Z</time>
      </trkpt>
      <trkpt lat="46.17768" lon="5.50236">
        <ele>725.6</ele>
        <time>2022-03-26T14:46:55Z</time>
      </trkpt>
      <trkpt lat="46.17789" lon="5.50259">
        <ele>724.6</ele>
        <time>2022-03-26T14:46:57Z</time>
      </trkpt>
      <trkpt lat="46.17799" lon="5.5027">
        <ele>724.2</ele>
        <time>2022-03-26T14:46:58Z</time>
      </trkpt>
      <trkpt lat="46.17809" lon="5.50282">
        <ele>723.2</ele>
        <time>2022-03-26T14:46:59Z</time>
      </trkpt>
      <trkpt lat="46.1782" lon="5.50292">
        <ele>722.8</ele>
        <time>2022-03-26T14:47:00Z</time>
      </trkpt>
      <trkpt lat="46.17831" lon="5.50301">
        <ele>722</ele>
        <time>2022-03-26T14:47:01Z</time>
      </trkpt>
      <trkpt lat="46.17841" lon="5.50306">
        <ele>720.8</ele>
        <time>2022-03-26T14:47:02Z</time>
      </trkpt>
      <trkpt lat="46.17868" lon="5.50321">
        <ele>719.4</ele>
        <time>2022-03-26T14:47:04Z</time>
      </trkpt>
      <trkpt lat="46.1789" lon="5.50333">
        <ele>717.4</ele>
        <time>2022-03-26T14:47:06Z</time>
      </trkpt>
      <trkpt lat="46.17913" lon="5.50348">
        <ele>715.6</ele>
        <time>2022-03-26T14:47:08Z</time>
      </trkpt>
      <trkpt lat="46.17936" lon="5.50364">
        <ele>714.2</ele>
        <time>2022-03-26T14:47:10Z</time>
      </trkpt>
      <trkpt lat="46.17948" lon="5.50373">
        <ele>713.2</ele>
        <time>2022-03-26T14:47:11Z</time>
      </trkpt>
      <trkpt lat="46.17982" lon="5.50405">
        <ele>711.8</ele>
        <time>2022-03-26T14:47:14Z</time>
      </trkpt>
      <trkpt lat="46.17992" lon="5.50416">
        <ele>710</ele>
        <time>2022-03-26T14:47:15Z</time>
      </trkpt>
      <trkpt lat="46.18006" lon="5.50446">
        <ele>708.8</ele>
        <time>2022-03-26T14:47:17Z</time>
      </trkpt>
      <trkpt lat="46.18011" lon="5.50481">
        <ele>707.4</ele>
        <time>2022-03-26T14:47:19Z</time>
      </trkpt>
      <trkpt lat="46.18013" lon="5.50498">
        <ele>707</ele>
        <time>2022-03-26T14:47:20Z</time>
      </trkpt>
      <trkpt lat="46.18017" lon="5.50514">
        <ele>706.4</ele>
        <time>2022-03-26T14:47:21Z</time>
      </trkpt>
      <trkpt lat="46.18022" lon="5.5053">
        <ele>705.2</ele>
        <time>2022-03-26T14:47:22Z</time>
      </trkpt>
      <trkpt lat="46.18028" lon="5.50544">
        <ele>704.2</ele>
        <time>2022-03-26T14:47:23Z</time>
      </trkpt>
      <trkpt lat="46.18036" lon="5.50558">
        <ele>703.2</ele>
        <time>2022-03-26T14:47:24Z</time>
      </trkpt>
      <trkpt lat="46.18053" lon="5.50584">
        <ele>701.8</ele>
        <time>2022-03-26T14:47:26Z</time>
      </trkpt>
      <trkpt lat="46.18063" lon="5.50594">
        <ele>700.8</ele>
        <time>2022-03-26T14:47:27Z</time>
      </trkpt>
      <trkpt lat="46.18075" lon="5.50602">
        <ele>700.2</ele>
        <time>2022-03-26T14:47:28Z</time>
      </trkpt>
      <trkpt lat="46.18087" lon="5.50607">
        <ele>699</ele>
        <time>2022-03-26T14:47:29Z</time>
      </trkpt>
      <trkpt lat="46.18099" lon="5.5061">
        <ele>698.2</ele>
        <time>2022-03-26T14:47:30Z</time>
      </trkpt>
      <trkpt lat="46.18112" lon="5.50612">
        <ele>697</ele>
        <time>2022-03-26T14:47:31Z</time>
      </trkpt>
      <trkpt lat="46.18125" lon="5.50613">
        <ele>695.8</ele>
        <time>2022-03-26T14:47:32Z</time>
      </trkpt>
      <trkpt lat="46.18151" lon="5.50616">
        <ele>694.6</ele>
        <time>2022-03-26T14:47:34Z</time>
      </trkpt>
      <trkpt lat="46.18163" lon="5.50618">
        <ele>694</ele>
        <time>2022-03-26T14:47:35Z</time>
      </trkpt>
      <trkpt lat="46.18176" lon="5.50622">
        <ele>693.2</ele>
        <time>2022-03-26T14:47:36Z</time>
      </trkpt>
      <trkpt lat="46.18199" lon="5.50631">
        <ele>691.2</ele>
        <time>2022-03-26T14:47:38Z</time>
      </trkpt>
      <trkpt lat="46.18211" lon="5.50636">
        <ele>689.8</ele>
        <time>2022-03-26T14:47:39Z</time>
      </trkpt>
      <trkpt lat="46.18235" lon="5.50644">
        <ele>688</ele>
        <time>2022-03-26T14:47:41Z</time>
      </trkpt>
      <trkpt lat="46.18259" lon="5.5065">
        <ele>686.6</ele>
        <time>2022-03-26T14:47:43Z</time>
      </trkpt>
      <trkpt lat="46.18272" lon="5.50653">
        <ele>686.2</ele>
        <time>2022-03-26T14:47:44Z</time>
      </trkpt>
      <trkpt lat="46.18284" lon="5.50656">
        <ele>685</ele>
        <time>2022-03-26T14:47:45Z</time>
      </trkpt>
      <trkpt lat="46.1831" lon="5.50663">
        <ele>683.2</ele>
        <time>2022-03-26T14:47:47Z</time>
      </trkpt>
      <trkpt lat="46.18333" lon="5.50675">
        <ele>682.2</ele>
        <time>2022-03-26T14:47:49Z</time>
      </trkpt>
      <trkpt lat="46.18345" lon="5.50683">
        <ele>681.6</ele>
        <time>2022-03-26T14:47:50Z</time>
      </trkpt>
      <trkpt lat="46.18367" lon="5.50699">
        <ele>680.2</ele>
        <time>2022-03-26T14:47:52Z</time>
      </trkpt>
      <trkpt lat="46.18389" lon="5.50717">
        <ele>678.6</ele>
        <time>2022-03-26T14:47:54Z</time>
      </trkpt>
      <trkpt lat="46.18412" lon="5.50734">
        <ele>677.2</ele>
        <time>2022-03-26T14:47:56Z</time>
      </trkpt>
      <trkpt lat="46.18434" lon="5.5075">
        <ele>676</ele>
        <time>2022-03-26T14:47:58Z</time>
      </trkpt>
      <trkpt lat="46.18445" lon="5.50758">
        <ele>674.8</ele>
        <time>2022-03-26T14:47:59Z</time>
      </trkpt>
      <trkpt lat="46.18468" lon="5.50772">
        <ele>672.6</ele>
        <time>2022-03-26T14:48:01Z</time>
      </trkpt>
      <trkpt lat="46.18479" lon="5.5078">
        <ele>671.4</ele>
        <time>2022-03-26T14:48:02Z</time>
      </trkpt>
      <trkpt lat="46.18501" lon="5.50798">
        <ele>670</ele>
        <time>2022-03-26T14:48:04Z</time>
      </trkpt>
      <trkpt lat="46.18511" lon="5.50811">
        <ele>669.6</ele>
        <time>2022-03-26T14:48:05Z</time>
      </trkpt>
      <trkpt lat="46.1852" lon="5.50824">
        <ele>668.2</ele>
        <time>2022-03-26T14:48:06Z</time>
      </trkpt>
      <trkpt lat="46.18535" lon="5.50853">
        <ele>666.6</ele>
        <time>2022-03-26T14:48:08Z</time>
      </trkpt>
      <trkpt lat="46.18543" lon="5.50868">
        <ele>665.4</ele>
        <time>2022-03-26T14:48:09Z</time>
      </trkpt>
      <trkpt lat="46.18559" lon="5.50899">
        <ele>663.4</ele>
        <time>2022-03-26T14:48:11Z</time>
      </trkpt>
      <trkpt lat="46.18574" lon="5.5093">
        <ele>661.6</ele>
        <time>2022-03-26T14:48:13Z</time>
      </trkpt>
      <trkpt lat="46.1859" lon="5.5096">
        <ele>659.8</ele>
        <time>2022-03-26T14:48:15Z</time>
      </trkpt>
      <trkpt lat="46.18598" lon="5.50976">
        <ele>659.2</ele>
        <time>2022-03-26T14:48:16Z</time>
      </trkpt>
      <trkpt lat="46.18606" lon="5.50991">
        <ele>658.4</ele>
        <time>2022-03-26T14:48:17Z</time>
      </trkpt>
      <trkpt lat="46.18614" lon="5.51006">
        <ele>657.2</ele>
        <time>2022-03-26T14:48:18Z</time>
      </trkpt>
      <trkpt lat="46.18622" lon="5.51022">
        <ele>656.6</ele>
        <time>2022-03-26T14:48:19Z</time>
      </trkpt>
      <trkpt lat="46.18629" lon="5.51037">
        <ele>655.4</ele>
        <time>2022-03-26T14:48:20Z</time>
      </trkpt>
      <trkpt lat="46.18643" lon="5.51063">
        <ele>653.4</ele>
        <time>2022-03-26T14:48:22Z</time>
      </trkpt>
      <trkpt lat="46.1866" lon="5.51095">
        <ele>652</ele>
        <time>2022-03-26T14:48:24Z</time>
      </trkpt>
      <trkpt lat="46.18674" lon="5.51119">
        <ele>650.6</ele>
        <time>2022-03-26T14:48:26Z</time>
      </trkpt>
      <trkpt lat="46.18683" lon="5.51136">
        <ele>649.8</ele>
        <time>2022-03-26T14:48:27Z</time>
      </trkpt>
      <trkpt lat="46.1869" lon="5.5115">
        <ele>649.4</ele>
        <time>2022-03-26T14:48:28Z</time>
      </trkpt>
      <trkpt lat="46.1871" lon="5.51189">
        <ele>647.6</ele>
        <time>2022-03-26T14:48:31Z</time>
      </trkpt>
      <trkpt lat="46.18733" lon="5.51232">
        <ele>646</ele>
        <time>2022-03-26T14:48:34Z</time>
      </trkpt>
      <trkpt lat="46.1874" lon="5.51246">
        <ele>645.4</ele>
        <time>2022-03-26T14:48:35Z</time>
      </trkpt>
      <trkpt lat="46.18747" lon="5.5126">
        <ele>644.4</ele>
        <time>2022-03-26T14:48:36Z</time>
      </trkpt>
      <trkpt lat="46.18761" lon="5.51287">
        <ele>643.2</ele>
        <time>2022-03-26T14:48:38Z</time>
      </trkpt>
      <trkpt lat="46.18775" lon="5.51314">
        <ele>642</ele>
        <time>2022-03-26T14:48:40Z</time>
      </trkpt>
      <trkpt lat="46.18788" lon="5.51339">
        <ele>641</ele>
        <time>2022-03-26T14:48:42Z</time>
      </trkpt>
      <trkpt lat="46.18793" lon="5.5135">
        <ele>640.4</ele>
        <time>2022-03-26T14:48:43Z</time>
      </trkpt>
      <trkpt lat="46.18802" lon="5.51371">
        <ele>639.4</ele>
        <time>2022-03-26T14:48:45Z</time>
      </trkpt>
      <trkpt lat="46.18804" lon="5.5138">
        <ele>639.4</ele>
        <time>2022-03-26T14:48:46Z</time>
      </trkpt>
      <trkpt lat="46.18808" lon="5.51386">
        <ele>639.2</ele>
        <time>2022-03-26T14:48:47Z</time>
      </trkpt>
      <trkpt lat="46.18817" lon="5.51393">
        <ele>639</ele>
        <time>2022-03-26T14:48:49Z</time>
      </trkpt>
      <trkpt lat="46.18828" lon="5.51399">
        <ele>639</ele>
        <time>2022-03-26T14:48:51Z</time>
      </trkpt>
      <trkpt lat="46.18834" lon="5.51405">
        <ele>639</ele>
        <time>2022-03-26T14:48:52Z</time>
      </trkpt>
      <trkpt lat="46.18859" lon="5.5143">
        <ele>638.4</ele>
        <time>2022-03-26T14:48:56Z</time>
      </trkpt>
      <trkpt lat="46.18897" lon="5.51458">
        <ele>637</ele>
        <time>2022-03-26T14:49:01Z</time>
      </trkpt>
      <trkpt lat="46.18919" lon="5.51478">
        <ele>635.8</ele>
        <time>2022-03-26T14:49:04Z</time>
      </trkpt>
      <trkpt lat="46.18928" lon="5.51484">
        <ele>635.6</ele>
        <time>2022-03-26T14:49:05Z</time>
      </trkpt>
      <trkpt lat="46.18938" lon="5.51488">
        <ele>634.8</ele>
        <time>2022-03-26T14:49:06Z</time>
      </trkpt>
      <trkpt lat="46.18957" lon="5.51494">
        <ele>633.4</ele>
        <time>2022-03-26T14:49:08Z</time>
      </trkpt>
      <trkpt lat="46.18966" lon="5.51497">
        <ele>632</ele>
        <time>2022-03-26T14:49:09Z</time>
      </trkpt>
      <trkpt lat="46.18985" lon="5.51504">
        <ele>631</ele>
        <time>2022-03-26T14:49:11Z</time>
      </trkpt>
      <trkpt lat="46.18993" lon="5.51508">
        <ele>630.8</ele>
        <time>2022-03-26T14:49:12Z</time>
      </trkpt>
      <trkpt lat="46.19011" lon="5.51519">
        <ele>630</ele>
        <time>2022-03-26T14:49:14Z</time>
      </trkpt>
      <trkpt lat="46.19034" lon="5.51538">
        <ele>629.2</ele>
        <time>2022-03-26T14:49:17Z</time>
      </trkpt>
      <trkpt lat="46.19051" lon="5.51554">
        <ele>628.6</ele>
        <time>2022-03-26T14:49:19Z</time>
      </trkpt>
      <trkpt lat="46.19076" lon="5.51577">
        <ele>627.8</ele>
        <time>2022-03-26T14:49:22Z</time>
      </trkpt>
      <trkpt lat="46.19085" lon="5.51584">
        <ele>627.8</ele>
        <time>2022-03-26T14:49:23Z</time>
      </trkpt>
      <trkpt lat="46.19094" lon="5.5159">
        <ele>627</ele>
        <time>2022-03-26T14:49:24Z</time>
      </trkpt>
      <trkpt lat="46.19103" lon="5.51594">
        <ele>626.2</ele>
        <time>2022-03-26T14:49:25Z</time>
      </trkpt>
      <trkpt lat="46.19122" lon="5.51599">
        <ele>625.4</ele>
        <time>2022-03-26T14:49:27Z</time>
      </trkpt>
      <trkpt lat="46.19141" lon="5.51601">
        <ele>624</ele>
        <time>2022-03-26T14:49:29Z</time>
      </trkpt>
      <trkpt lat="46.19168" lon="5.51602">
        <ele>622.8</ele>
        <time>2022-03-26T14:49:32Z</time>
      </trkpt>
      <trkpt lat="46.19177" lon="5.51602">
        <ele>622.4</ele>
        <time>2022-03-26T14:49:33Z</time>
      </trkpt>
      <trkpt lat="46.19196" lon="5.51601">
        <ele>621.8</ele>
        <time>2022-03-26T14:49:35Z</time>
      </trkpt>
      <trkpt lat="46.19223" lon="5.51605">
        <ele>621.2</ele>
        <time>2022-03-26T14:49:38Z</time>
      </trkpt>
      <trkpt lat="46.19232" lon="5.51608">
        <ele>621</ele>
        <time>2022-03-26T14:49:39Z</time>
      </trkpt>
      <trkpt lat="46.19247" lon="5.51616">
        <ele>620.8</ele>
        <time>2022-03-26T14:49:41Z</time>
      </trkpt>
      <trkpt lat="46.19255" lon="5.5162">
        <ele>620.6</ele>
        <time>2022-03-26T14:49:42Z</time>
      </trkpt>
      <trkpt lat="46.19288" lon="5.51645">
        <ele>619.8</ele>
        <time>2022-03-26T14:49:47Z</time>
      </trkpt>
      <trkpt lat="46.19293" lon="5.51651">
        <ele>619.6</ele>
        <time>2022-03-26T14:49:48Z</time>
      </trkpt>
      <trkpt lat="46.19299" lon="5.51656">
        <ele>619.6</ele>
        <time>2022-03-26T14:49:49Z</time>
      </trkpt>
      <trkpt lat="46.19312" lon="5.51664">
        <ele>620</ele>
        <time>2022-03-26T14:49:51Z</time>
      </trkpt>
      <trkpt lat="46.19348" lon="5.51676">
        <ele>620</ele>
        <time>2022-03-26T14:49:56Z</time>
      </trkpt>
      <trkpt lat="46.19358" lon="5.51678">
        <ele>619.8</ele>
        <time>2022-03-26T14:49:57Z</time>
      </trkpt>
      <trkpt lat="46.19376" lon="5.51679">
        <ele>619.2</ele>
        <time>2022-03-26T14:49:59Z</time>
      </trkpt>
      <trkpt lat="46.19385" lon="5.51677">
        <ele>618.6</ele>
        <time>2022-03-26T14:50:00Z</time>
      </trkpt>
      <trkpt lat="46.19401" lon="5.51671">
        <ele>617.2</ele>
        <time>2022-03-26T14:50:02Z</time>
      </trkpt>
      <trkpt lat="46.19432" lon="5.51657">
        <ele>616.4</ele>
        <time>2022-03-26T14:50:06Z</time>
      </trkpt>
      <trkpt lat="46.19445" lon="5.5165">
        <ele>616</ele>
        <time>2022-03-26T14:50:08Z</time>
      </trkpt>
      <trkpt lat="46.1945" lon="5.51645">
        <ele>615.8</ele>
        <time>2022-03-26T14:50:09Z</time>
      </trkpt>
      <trkpt lat="46.19455" lon="5.51639">
        <ele>615.6</ele>
        <time>2022-03-26T14:50:10Z</time>
      </trkpt>
      <trkpt lat="46.19465" lon="5.51624">
        <ele>615.4</ele>
        <time>2022-03-26T14:50:13Z</time>
      </trkpt>
      <trkpt lat="46.19467" lon="5.5162">
        <ele>615.6</ele>
        <time>2022-03-26T14:50:14Z</time>
      </trkpt>
      <trkpt lat="46.19478" lon="5.516">
        <ele>616.4</ele>
        <time>2022-03-26T14:50:19Z</time>
      </trkpt>
      <trkpt lat="46.1949" lon="5.51582">
        <ele>616.6</ele>
        <time>2022-03-26T14:50:23Z</time>
      </trkpt>
      <trkpt lat="46.19493" lon="5.51579">
        <ele>616.8</ele>
        <time>2022-03-26T14:50:24Z</time>
      </trkpt>
      <trkpt lat="46.19505" lon="5.51571">
        <ele>617</ele>
        <time>2022-03-26T14:50:27Z</time>
      </trkpt>
      <trkpt lat="46.19513" lon="5.51569">
        <ele>617.6</ele>
        <time>2022-03-26T14:50:29Z</time>
      </trkpt>
      <trkpt lat="46.19533" lon="5.51572">
        <ele>618.8</ele>
        <time>2022-03-26T14:50:34Z</time>
      </trkpt>
      <trkpt lat="46.19537" lon="5.51572">
        <ele>619.2</ele>
        <time>2022-03-26T14:50:35Z</time>
      </trkpt>
      <trkpt lat="46.19547" lon="5.51573">
        <ele>620</ele>
        <time>2022-03-26T14:50:38Z</time>
      </trkpt>
      <trkpt lat="46.19563" lon="5.51575">
        <ele>621.2</ele>
        <time>2022-03-26T14:50:43Z</time>
      </trkpt>
      <trkpt lat="46.19578" lon="5.51577">
        <ele>622.6</ele>
        <time>2022-03-26T14:50:48Z</time>
      </trkpt>
      <trkpt lat="46.19593" lon="5.51576">
        <ele>623.6</ele>
        <time>2022-03-26T14:50:53Z</time>
      </trkpt>
      <trkpt lat="46.19602" lon="5.51575">
        <ele>623.8</ele>
        <time>2022-03-26T14:50:56Z</time>
      </trkpt>
      <trkpt lat="46.19627" lon="5.51571">
        <ele>624.6</ele>
        <time>2022-03-26T14:51:03Z</time>
      </trkpt>
      <trkpt lat="46.19634" lon="5.5157">
        <ele>624.6</ele>
        <time>2022-03-26T14:51:05Z</time>
      </trkpt>
      <trkpt lat="46.19651" lon="5.5157">
        <ele>624.8</ele>
        <time>2022-03-26T14:51:10Z</time>
      </trkpt>
      <trkpt lat="46.19659" lon="5.51569">
        <ele>624.8</ele>
        <time>2022-03-26T14:51:12Z</time>
      </trkpt>
      <trkpt lat="46.19676" lon="5.51569">
        <ele>624.8</ele>
        <time>2022-03-26T14:51:16Z</time>
      </trkpt>
      <trkpt lat="46.1971" lon="5.51565">
        <ele>624.8</ele>
        <time>2022-03-26T14:51:23Z</time>
      </trkpt>
      <trkpt lat="46.19751" lon="5.51559">
        <ele>624.4</ele>
        <time>2022-03-26T14:51:30Z</time>
      </trkpt>
      <trkpt lat="46.19794" lon="5.51569">
        <ele>624.2</ele>
        <time>2022-03-26T14:51:37Z</time>
      </trkpt>
      <trkpt lat="46.19825" lon="5.51589">
        <ele>624.6</ele>
        <time>2022-03-26T14:51:43Z</time>
      </trkpt>
      <trkpt lat="46.19853" lon="5.51607">
        <ele>625.6</ele>
        <time>2022-03-26T14:51:49Z</time>
      </trkpt>
      <trkpt lat="46.19858" lon="5.51609">
        <ele>626</ele>
        <time>2022-03-26T14:51:50Z</time>
      </trkpt>
      <trkpt lat="46.19887" lon="5.5162">
        <ele>626.6</ele>
        <time>2022-03-26T14:51:56Z</time>
      </trkpt>
      <trkpt lat="46.19897" lon="5.51621">
        <ele>626.8</ele>
        <time>2022-03-26T14:51:58Z</time>
      </trkpt>
      <trkpt lat="46.19923" lon="5.51621">
        <ele>627.8</ele>
        <time>2022-03-26T14:52:04Z</time>
      </trkpt>
      <trkpt lat="46.19927" lon="5.5162">
        <ele>628</ele>
        <time>2022-03-26T14:52:05Z</time>
      </trkpt>
      <trkpt lat="46.19943" lon="5.51619">
        <ele>629.2</ele>
        <time>2022-03-26T14:52:09Z</time>
      </trkpt>
      <trkpt lat="46.19953" lon="5.5162">
        <ele>629.6</ele>
        <time>2022-03-26T14:52:12Z</time>
      </trkpt>
      <trkpt lat="46.19967" lon="5.51622">
        <ele>630.4</ele>
        <time>2022-03-26T14:52:16Z</time>
      </trkpt>
      <trkpt lat="46.19983" lon="5.51626">
        <ele>631.2</ele>
        <time>2022-03-26T14:52:20Z</time>
      </trkpt>
      <trkpt lat="46.19991" lon="5.51631">
        <ele>631.6</ele>
        <time>2022-03-26T14:52:22Z</time>
      </trkpt>
      <trkpt lat="46.20007" lon="5.51642">
        <ele>632.6</ele>
        <time>2022-03-26T14:52:26Z</time>
      </trkpt>
      <trkpt lat="46.2001" lon="5.51645">
        <ele>632.8</ele>
        <time>2022-03-26T14:52:27Z</time>
      </trkpt>
      <trkpt lat="46.20021" lon="5.51659">
        <ele>633.6</ele>
        <time>2022-03-26T14:52:31Z</time>
      </trkpt>
      <trkpt lat="46.2003" lon="5.51669">
        <ele>634.4</ele>
        <time>2022-03-26T14:52:34Z</time>
      </trkpt>
      <trkpt lat="46.20036" lon="5.51676">
        <ele>634.6</ele>
        <time>2022-03-26T14:52:36Z</time>
      </trkpt>
      <trkpt lat="46.20053" lon="5.51694">
        <ele>635.4</ele>
        <time>2022-03-26T14:52:42Z</time>
      </trkpt>
      <trkpt lat="46.20058" lon="5.51699">
        <ele>636.2</ele>
        <time>2022-03-26T14:52:44Z</time>
      </trkpt>
      <trkpt lat="46.20074" lon="5.51714">
        <ele>637.4</ele>
        <time>2022-03-26T14:52:50Z</time>
      </trkpt>
      <trkpt lat="46.20077" lon="5.51717">
        <ele>637.8</ele>
        <time>2022-03-26T14:52:51Z</time>
      </trkpt>
      <trkpt lat="46.20094" lon="5.51722">
        <ele>638.4</ele>
        <time>2022-03-26T14:52:56Z</time>
      </trkpt>
      <trkpt lat="46.20101" lon="5.51723">
        <ele>639.2</ele>
        <time>2022-03-26T14:52:58Z</time>
      </trkpt>
      <trkpt lat="46.20104" lon="5.51723">
        <ele>639.4</ele>
        <time>2022-03-26T14:52:59Z</time>
      </trkpt>
      <trkpt lat="46.20122" lon="5.51721">
        <ele>640.4</ele>
        <time>2022-03-26T14:53:05Z</time>
      </trkpt>
      <trkpt lat="46.20125" lon="5.5172">
        <ele>640.6</ele>
        <time>2022-03-26T14:53:06Z</time>
      </trkpt>
      <trkpt lat="46.20148" lon="5.51716">
        <ele>641.6</ele>
        <time>2022-03-26T14:53:13Z</time>
      </trkpt>
      <trkpt lat="46.20154" lon="5.51715">
        <ele>642</ele>
        <time>2022-03-26T14:53:15Z</time>
      </trkpt>
      <trkpt lat="46.20168" lon="5.51712">
        <ele>642.6</ele>
        <time>2022-03-26T14:53:19Z</time>
      </trkpt>
      <trkpt lat="46.20175" lon="5.5171">
        <ele>643.2</ele>
        <time>2022-03-26T14:53:21Z</time>
      </trkpt>
      <trkpt lat="46.20193" lon="5.51706">
        <ele>643.8</ele>
        <time>2022-03-26T14:53:27Z</time>
      </trkpt>
      <trkpt lat="46.20196" lon="5.51706">
        <ele>644</ele>
        <time>2022-03-26T14:53:28Z</time>
      </trkpt>
      <trkpt lat="46.20209" lon="5.51704">
        <ele>644.8</ele>
        <time>2022-03-26T14:53:32Z</time>
      </trkpt>
      <trkpt lat="46.20218" lon="5.51703">
        <ele>645.8</ele>
        <time>2022-03-26T14:53:35Z</time>
      </trkpt>
      <trkpt lat="46.20221" lon="5.51702">
        <ele>646</ele>
        <time>2022-03-26T14:53:36Z</time>
      </trkpt>
      <trkpt lat="46.20241" lon="5.517">
        <ele>647</ele>
        <time>2022-03-26T14:53:42Z</time>
      </trkpt>
      <trkpt lat="46.20244" lon="5.51699">
        <ele>647.2</ele>
        <time>2022-03-26T14:53:43Z</time>
      </trkpt>
      <trkpt lat="46.20266" lon="5.51698">
        <ele>648</ele>
        <time>2022-03-26T14:53:49Z</time>
      </trkpt>
      <trkpt lat="46.2027" lon="5.51699">
        <ele>648.2</ele>
        <time>2022-03-26T14:53:50Z</time>
      </trkpt>
      <trkpt lat="46.20284" lon="5.51699">
        <ele>649</ele>
        <time>2022-03-26T14:53:54Z</time>
      </trkpt>
      <trkpt lat="46.20287" lon="5.517">
        <ele>649.2</ele>
        <time>2022-03-26T14:53:55Z</time>
      </trkpt>
      <trkpt lat="46.20305" lon="5.51705">
        <ele>649.6</ele>
        <time>2022-03-26T14:54:00Z</time>
      </trkpt>
      <trkpt lat="46.20325" lon="5.5171">
        <ele>650.4</ele>
        <time>2022-03-26T14:54:05Z</time>
      </trkpt>
      <trkpt lat="46.20337" lon="5.51712">
        <ele>650.8</ele>
        <time>2022-03-26T14:54:08Z</time>
      </trkpt>
      <trkpt lat="46.20356" lon="5.51715">
        <ele>651.6</ele>
        <time>2022-03-26T14:54:13Z</time>
      </trkpt>
      <trkpt lat="46.20371" lon="5.51719">
        <ele>652</ele>
        <time>2022-03-26T14:54:17Z</time>
      </trkpt>
      <trkpt lat="46.20386" lon="5.51722">
        <ele>652.6</ele>
        <time>2022-03-26T14:54:21Z</time>
      </trkpt>
      <trkpt lat="46.20398" lon="5.51727">
        <ele>652.8</ele>
        <time>2022-03-26T14:54:24Z</time>
      </trkpt>
      <trkpt lat="46.20414" lon="5.51732">
        <ele>653.8</ele>
        <time>2022-03-26T14:54:28Z</time>
      </trkpt>
      <trkpt lat="46.20418" lon="5.51733">
        <ele>654</ele>
        <time>2022-03-26T14:54:29Z</time>
      </trkpt>
      <trkpt lat="46.20422" lon="5.51734">
        <ele>654.2</ele>
        <time>2022-03-26T14:54:30Z</time>
      </trkpt>
      <trkpt lat="46.2043" lon="5.51737">
        <ele>654.6</ele>
        <time>2022-03-26T14:54:32Z</time>
      </trkpt>
      <trkpt lat="46.20438" lon="5.5174">
        <ele>654.6</ele>
        <time>2022-03-26T14:54:34Z</time>
      </trkpt>
      <trkpt lat="46.20441" lon="5.51741">
        <ele>654.8</ele>
        <time>2022-03-26T14:54:35Z</time>
      </trkpt>
      <trkpt lat="46.2045" lon="5.51743">
        <ele>655</ele>
        <time>2022-03-26T14:54:37Z</time>
      </trkpt>
      <trkpt lat="46.20457" lon="5.51745">
        <ele>655.2</ele>
        <time>2022-03-26T14:54:39Z</time>
      </trkpt>
      <trkpt lat="46.20477" lon="5.5175">
        <ele>656</ele>
        <time>2022-03-26T14:54:44Z</time>
      </trkpt>
      <trkpt lat="46.20501" lon="5.51759">
        <ele>657.2</ele>
        <time>2022-03-26T14:54:50Z</time>
      </trkpt>
      <trkpt lat="46.20509" lon="5.51761">
        <ele>657.6</ele>
        <time>2022-03-26T14:54:52Z</time>
      </trkpt>
      <trkpt lat="46.20525" lon="5.51766">
        <ele>658.4</ele>
        <time>2022-03-26T14:54:56Z</time>
      </trkpt>
      <trkpt lat="46.20528" lon="5.51766">
        <ele>658.6</ele>
        <time>2022-03-26T14:54:57Z</time>
      </trkpt>
      <trkpt lat="46.2054" lon="5.51767">
        <ele>659</ele>
        <time>2022-03-26T14:55:00Z</time>
      </trkpt>
      <trkpt lat="46.20549" lon="5.51768">
        <ele>659.6</ele>
        <time>2022-03-26T14:55:02Z</time>
      </trkpt>
      <trkpt lat="46.20573" lon="5.51768">
        <ele>660.4</ele>
        <time>2022-03-26T14:55:08Z</time>
      </trkpt>
      <trkpt lat="46.20577" lon="5.51769">
        <ele>660.6</ele>
        <time>2022-03-26T14:55:09Z</time>
      </trkpt>
      <trkpt lat="46.20592" lon="5.51776">
        <ele>661.4</ele>
        <time>2022-03-26T14:55:13Z</time>
      </trkpt>
      <trkpt lat="46.20595" lon="5.51778">
        <ele>661.6</ele>
        <time>2022-03-26T14:55:14Z</time>
      </trkpt>
      <trkpt lat="46.20614" lon="5.51792">
        <ele>662.4</ele>
        <time>2022-03-26T14:55:19Z</time>
      </trkpt>
      <trkpt lat="46.20622" lon="5.51795">
        <ele>662.8</ele>
        <time>2022-03-26T14:55:21Z</time>
      </trkpt>
      <trkpt lat="46.20633" lon="5.51802">
        <ele>663.2</ele>
        <time>2022-03-26T14:55:24Z</time>
      </trkpt>
      <trkpt lat="46.20648" lon="5.5181">
        <ele>664</ele>
        <time>2022-03-26T14:55:28Z</time>
      </trkpt>
      <trkpt lat="46.20656" lon="5.51817">
        <ele>664.2</ele>
        <time>2022-03-26T14:55:30Z</time>
      </trkpt>
      <trkpt lat="46.20686" lon="5.51836">
        <ele>664.8</ele>
        <time>2022-03-26T14:55:37Z</time>
      </trkpt>
      <trkpt lat="46.20694" lon="5.51837">
        <ele>665</ele>
        <time>2022-03-26T14:55:39Z</time>
      </trkpt>
      <trkpt lat="46.20707" lon="5.51839">
        <ele>665.8</ele>
        <time>2022-03-26T14:55:42Z</time>
      </trkpt>
      <trkpt lat="46.20714" lon="5.51837">
        <ele>666.2</ele>
        <time>2022-03-26T14:55:44Z</time>
      </trkpt>
      <trkpt lat="46.20734" lon="5.51834">
        <ele>667.4</ele>
        <time>2022-03-26T14:55:49Z</time>
      </trkpt>
      <trkpt lat="46.20746" lon="5.51836">
        <ele>667.8</ele>
        <time>2022-03-26T14:55:52Z</time>
      </trkpt>
      <trkpt lat="46.20758" lon="5.51837">
        <ele>668.2</ele>
        <time>2022-03-26T14:55:55Z</time>
      </trkpt>
      <trkpt lat="46.20767" lon="5.51838">
        <ele>668.4</ele>
        <time>2022-03-26T14:55:57Z</time>
      </trkpt>
      <trkpt lat="46.20783" lon="5.51837">
        <ele>668.8</ele>
        <time>2022-03-26T14:56:01Z</time>
      </trkpt>
      <trkpt lat="46.20786" lon="5.51838">
        <ele>669</ele>
        <time>2022-03-26T14:56:02Z</time>
      </trkpt>
      <trkpt lat="46.20798" lon="5.51841">
        <ele>669.4</ele>
        <time>2022-03-26T14:56:05Z</time>
      </trkpt>
      <trkpt lat="46.2081" lon="5.51842">
        <ele>669.8</ele>
        <time>2022-03-26T14:56:08Z</time>
      </trkpt>
      <trkpt lat="46.20823" lon="5.51844">
        <ele>670.6</ele>
        <time>2022-03-26T14:56:11Z</time>
      </trkpt>
      <trkpt lat="46.20857" lon="5.5185">
        <ele>671.6</ele>
        <time>2022-03-26T14:56:19Z</time>
      </trkpt>
      <trkpt lat="46.20861" lon="5.51851">
        <ele>671.6</ele>
        <time>2022-03-26T14:56:20Z</time>
      </trkpt>
      <trkpt lat="46.20903" lon="5.51865">
        <ele>672.2</ele>
        <time>2022-03-26T14:56:30Z</time>
      </trkpt>
      <trkpt lat="46.20908" lon="5.51866">
        <ele>672.4</ele>
        <time>2022-03-26T14:56:31Z</time>
      </trkpt>
      <trkpt lat="46.20935" lon="5.51874">
        <ele>673.4</ele>
        <time>2022-03-26T14:56:38Z</time>
      </trkpt>
      <trkpt lat="46.20958" lon="5.51872">
        <ele>674.6</ele>
        <time>2022-03-26T14:56:44Z</time>
      </trkpt>
      <trkpt lat="46.20966" lon="5.51869">
        <ele>675</ele>
        <time>2022-03-26T14:56:46Z</time>
      </trkpt>
      <trkpt lat="46.2098" lon="5.5186">
        <ele>675.6</ele>
        <time>2022-03-26T14:56:50Z</time>
      </trkpt>
      <trkpt lat="46.20984" lon="5.51859">
        <ele>675.8</ele>
        <time>2022-03-26T14:56:51Z</time>
      </trkpt>
      <trkpt lat="46.20992" lon="5.51856">
        <ele>676.2</ele>
        <time>2022-03-26T14:56:53Z</time>
      </trkpt>
      <trkpt lat="46.20995" lon="5.51854">
        <ele>676.4</ele>
        <time>2022-03-26T14:56:54Z</time>
      </trkpt>
      <trkpt lat="46.21004" lon="5.5185">
        <ele>677</ele>
        <time>2022-03-26T14:56:56Z</time>
      </trkpt>
      <trkpt lat="46.21008" lon="5.51848">
        <ele>677.2</ele>
        <time>2022-03-26T14:56:57Z</time>
      </trkpt>
      <trkpt lat="46.21022" lon="5.51843">
        <ele>678</ele>
        <time>2022-03-26T14:57:01Z</time>
      </trkpt>
      <trkpt lat="46.21033" lon="5.51839">
        <ele>678.2</ele>
        <time>2022-03-26T14:57:04Z</time>
      </trkpt>
      <trkpt lat="46.21049" lon="5.51835">
        <ele>679</ele>
        <time>2022-03-26T14:57:08Z</time>
      </trkpt>
      <trkpt lat="46.2108" lon="5.5183">
        <ele>679.8</ele>
        <time>2022-03-26T14:57:15Z</time>
      </trkpt>
      <trkpt lat="46.21097" lon="5.51832">
        <ele>680.6</ele>
        <time>2022-03-26T14:57:19Z</time>
      </trkpt>
      <trkpt lat="46.21109" lon="5.51834">
        <ele>680.8</ele>
        <time>2022-03-26T14:57:22Z</time>
      </trkpt>
      <trkpt lat="46.21139" lon="5.51836">
        <ele>681.4</ele>
        <time>2022-03-26T14:57:28Z</time>
      </trkpt>
      <trkpt lat="46.21179" lon="5.51838">
        <ele>680.6</ele>
        <time>2022-03-26T14:57:34Z</time>
      </trkpt>
      <trkpt lat="46.21202" lon="5.51841">
        <ele>679.4</ele>
        <time>2022-03-26T14:57:37Z</time>
      </trkpt>
      <trkpt lat="46.21228" lon="5.51845">
        <ele>678</ele>
        <time>2022-03-26T14:57:40Z</time>
      </trkpt>
      <trkpt lat="46.21237" lon="5.51846">
        <ele>677.4</ele>
        <time>2022-03-26T14:57:41Z</time>
      </trkpt>
      <trkpt lat="46.21247" lon="5.51846">
        <ele>676.4</ele>
        <time>2022-03-26T14:57:42Z</time>
      </trkpt>
      <trkpt lat="46.21256" lon="5.51845">
        <ele>676</ele>
        <time>2022-03-26T14:57:43Z</time>
      </trkpt>
      <trkpt lat="46.21266" lon="5.51842">
        <ele>675.2</ele>
        <time>2022-03-26T14:57:44Z</time>
      </trkpt>
      <trkpt lat="46.21284" lon="5.51833">
        <ele>674</ele>
        <time>2022-03-26T14:57:46Z</time>
      </trkpt>
      <trkpt lat="46.21305" lon="5.51821">
        <ele>672.6</ele>
        <time>2022-03-26T14:57:48Z</time>
      </trkpt>
      <trkpt lat="46.21311" lon="5.51815">
        <ele>671.8</ele>
        <time>2022-03-26T14:57:49Z</time>
      </trkpt>
      <trkpt lat="46.21317" lon="5.51805">
        <ele>671.2</ele>
        <time>2022-03-26T14:57:50Z</time>
      </trkpt>
      <trkpt lat="46.21323" lon="5.5179">
        <ele>670</ele>
        <time>2022-03-26T14:57:51Z</time>
      </trkpt>
      <trkpt lat="46.21325" lon="5.51779">
        <ele>669.4</ele>
        <time>2022-03-26T14:57:52Z</time>
      </trkpt>
      <trkpt lat="46.21328" lon="5.51765">
        <ele>668.4</ele>
        <time>2022-03-26T14:57:53Z</time>
      </trkpt>
      <trkpt lat="46.21335" lon="5.51735">
        <ele>667.4</ele>
        <time>2022-03-26T14:57:55Z</time>
      </trkpt>
      <trkpt lat="46.21341" lon="5.51719">
        <ele>666.6</ele>
        <time>2022-03-26T14:57:56Z</time>
      </trkpt>
      <trkpt lat="46.21349" lon="5.51709">
        <ele>666.2</ele>
        <time>2022-03-26T14:57:57Z</time>
      </trkpt>
      <trkpt lat="46.21357" lon="5.51704">
        <ele>665</ele>
        <time>2022-03-26T14:57:58Z</time>
      </trkpt>
      <trkpt lat="46.21368" lon="5.51701">
        <ele>664.6</ele>
        <time>2022-03-26T14:57:59Z</time>
      </trkpt>
      <trkpt lat="46.21391" lon="5.517">
        <ele>663.4</ele>
        <time>2022-03-26T14:58:01Z</time>
      </trkpt>
      <trkpt lat="46.21415" lon="5.51698">
        <ele>662.6</ele>
        <time>2022-03-26T14:58:03Z</time>
      </trkpt>
      <trkpt lat="46.21437" lon="5.51688">
        <ele>661.4</ele>
        <time>2022-03-26T14:58:05Z</time>
      </trkpt>
      <trkpt lat="46.21455" lon="5.51673">
        <ele>659.8</ele>
        <time>2022-03-26T14:58:07Z</time>
      </trkpt>
      <trkpt lat="46.21462" lon="5.51662">
        <ele>659</ele>
        <time>2022-03-26T14:58:08Z</time>
      </trkpt>
      <trkpt lat="46.21467" lon="5.5165">
        <ele>658.8</ele>
        <time>2022-03-26T14:58:09Z</time>
      </trkpt>
      <trkpt lat="46.21475" lon="5.51626">
        <ele>658.4</ele>
        <time>2022-03-26T14:58:11Z</time>
      </trkpt>
      <trkpt lat="46.21479" lon="5.51616">
        <ele>658.2</ele>
        <time>2022-03-26T14:58:12Z</time>
      </trkpt>
      <trkpt lat="46.21489" lon="5.51597">
        <ele>658</ele>
        <time>2022-03-26T14:58:14Z</time>
      </trkpt>
      <trkpt lat="46.21494" lon="5.51588">
        <ele>657.8</ele>
        <time>2022-03-26T14:58:15Z</time>
      </trkpt>
      <trkpt lat="46.21517" lon="5.51548">
        <ele>657.4</ele>
        <time>2022-03-26T14:58:19Z</time>
      </trkpt>
      <trkpt lat="46.21524" lon="5.51538">
        <ele>657</ele>
        <time>2022-03-26T14:58:20Z</time>
      </trkpt>
      <trkpt lat="46.21532" lon="5.51528">
        <ele>656.4</ele>
        <time>2022-03-26T14:58:21Z</time>
      </trkpt>
      <trkpt lat="46.2154" lon="5.5152">
        <ele>655.8</ele>
        <time>2022-03-26T14:58:22Z</time>
      </trkpt>
      <trkpt lat="46.21549" lon="5.51508">
        <ele>655.4</ele>
        <time>2022-03-26T14:58:23Z</time>
      </trkpt>
      <trkpt lat="46.21553" lon="5.51499">
        <ele>654.2</ele>
        <time>2022-03-26T14:58:24Z</time>
      </trkpt>
      <trkpt lat="46.21557" lon="5.5149">
        <ele>653.6</ele>
        <time>2022-03-26T14:58:25Z</time>
      </trkpt>
      <trkpt lat="46.2156" lon="5.51482">
        <ele>652.6</ele>
        <time>2022-03-26T14:58:26Z</time>
      </trkpt>
      <trkpt lat="46.21563" lon="5.51476">
        <ele>652.2</ele>
        <time>2022-03-26T14:58:27Z</time>
      </trkpt>
      <trkpt lat="46.21567" lon="5.51472">
        <ele>651.6</ele>
        <time>2022-03-26T14:58:28Z</time>
      </trkpt>
      <trkpt lat="46.21572" lon="5.51469">
        <ele>651</ele>
        <time>2022-03-26T14:58:29Z</time>
      </trkpt>
      <trkpt lat="46.21587" lon="5.51465">
        <ele>650.4</ele>
        <time>2022-03-26T14:58:32Z</time>
      </trkpt>
      <trkpt lat="46.21618" lon="5.51459">
        <ele>650.2</ele>
        <time>2022-03-26T14:58:37Z</time>
      </trkpt>
      <trkpt lat="46.21624" lon="5.5146">
        <ele>650.2</ele>
        <time>2022-03-26T14:58:38Z</time>
      </trkpt>
      <trkpt lat="46.2163" lon="5.51462">
        <ele>650.2</ele>
        <time>2022-03-26T14:58:39Z</time>
      </trkpt>
      <trkpt lat="46.21647" lon="5.5147">
        <ele>650.2</ele>
        <time>2022-03-26T14:58:42Z</time>
      </trkpt>
      <trkpt lat="46.21653" lon="5.51475">
        <ele>650.2</ele>
        <time>2022-03-26T14:58:43Z</time>
      </trkpt>
      <trkpt lat="46.21657" lon="5.51479">
        <ele>650.2</ele>
        <time>2022-03-26T14:58:44Z</time>
      </trkpt>
      <trkpt lat="46.21666" lon="5.51489">
        <ele>650.4</ele>
        <time>2022-03-26T14:58:46Z</time>
      </trkpt>
      <trkpt lat="46.21671" lon="5.51493">
        <ele>650.8</ele>
        <time>2022-03-26T14:58:47Z</time>
      </trkpt>
      <trkpt lat="46.21676" lon="5.51496">
        <ele>650.8</ele>
        <time>2022-03-26T14:58:48Z</time>
      </trkpt>
      <trkpt lat="46.21691" lon="5.51501">
        <ele>651</ele>
        <time>2022-03-26T14:58:51Z</time>
      </trkpt>
      <trkpt lat="46.21697" lon="5.51502">
        <ele>651.2</ele>
        <time>2022-03-26T14:58:52Z</time>
      </trkpt>
      <trkpt lat="46.2173" lon="5.51515">
        <ele>651</ele>
        <time>2022-03-26T14:58:58Z</time>
      </trkpt>
      <trkpt lat="46.21763" lon="5.51536">
        <ele>649.8</ele>
        <time>2022-03-26T14:59:04Z</time>
      </trkpt>
      <trkpt lat="46.21774" lon="5.51544">
        <ele>649.4</ele>
        <time>2022-03-26T14:59:06Z</time>
      </trkpt>
      <trkpt lat="46.21785" lon="5.51549">
        <ele>649</ele>
        <time>2022-03-26T14:59:08Z</time>
      </trkpt>
      <trkpt lat="46.21796" lon="5.51553">
        <ele>648.6</ele>
        <time>2022-03-26T14:59:10Z</time>
      </trkpt>
      <trkpt lat="46.21808" lon="5.51557">
        <ele>648.4</ele>
        <time>2022-03-26T14:59:12Z</time>
      </trkpt>
      <trkpt lat="46.21842" lon="5.51564">
        <ele>648.2</ele>
        <time>2022-03-26T14:59:18Z</time>
      </trkpt>
      <trkpt lat="46.21886" lon="5.51566">
        <ele>648.4</ele>
        <time>2022-03-26T14:59:26Z</time>
      </trkpt>
      <trkpt lat="46.21919" lon="5.51559">
        <ele>648.4</ele>
        <time>2022-03-26T14:59:32Z</time>
      </trkpt>
      <trkpt lat="46.2194" lon="5.51548">
        <ele>648.6</ele>
        <time>2022-03-26T14:59:36Z</time>
      </trkpt>
      <trkpt lat="46.2195" lon="5.51538">
        <ele>648.6</ele>
        <time>2022-03-26T14:59:38Z</time>
      </trkpt>
      <trkpt lat="46.21971" lon="5.51509">
        <ele>648.6</ele>
        <time>2022-03-26T14:59:43Z</time>
      </trkpt>
      <trkpt lat="46.22008" lon="5.51459">
        <ele>648</ele>
        <time>2022-03-26T14:59:51Z</time>
      </trkpt>
      <trkpt lat="46.22026" lon="5.51432">
        <ele>648</ele>
        <time>2022-03-26T14:59:55Z</time>
      </trkpt>
      <trkpt lat="46.2203" lon="5.51425">
        <ele>647.8</ele>
        <time>2022-03-26T14:59:56Z</time>
      </trkpt>
      <trkpt lat="46.22033" lon="5.51417">
        <ele>647.6</ele>
        <time>2022-03-26T14:59:57Z</time>
      </trkpt>
      <trkpt lat="46.22057" lon="5.51357">
        <ele>647.6</ele>
        <time>2022-03-26T15:00:04Z</time>
      </trkpt>
      <trkpt lat="46.22082" lon="5.51295">
        <ele>647.4</ele>
        <time>2022-03-26T15:00:12Z</time>
      </trkpt>
      <trkpt lat="46.22088" lon="5.51281">
        <ele>647.2</ele>
        <time>2022-03-26T15:00:14Z</time>
      </trkpt>
      <trkpt lat="46.22094" lon="5.51259">
        <ele>647.4</ele>
        <time>2022-03-26T15:00:17Z</time>
      </trkpt>
      <trkpt lat="46.221" lon="5.51237">
        <ele>647.2</ele>
        <time>2022-03-26T15:00:20Z</time>
      </trkpt>
      <trkpt lat="46.221" lon="5.51234">
        <ele>647.4</ele>
        <time>2022-03-26T15:00:21Z</time>
      </trkpt>
      <trkpt lat="46.22098" lon="5.5123">
        <ele>647.4</ele>
        <time>2022-03-26T15:00:22Z</time>
      </trkpt>
      <trkpt lat="46.22091" lon="5.51219">
        <ele>647.4</ele>
        <time>2022-03-26T15:00:24Z</time>
      </trkpt>
      <trkpt lat="46.22086" lon="5.51215">
        <ele>647.4</ele>
        <time>2022-03-26T15:00:25Z</time>
      </trkpt>
      <trkpt lat="46.22083" lon="5.51212">
        <ele>647.6</ele>
        <time>2022-03-26T15:00:26Z</time>
      </trkpt>
      <trkpt lat="46.22075" lon="5.51204">
        <ele>647.8</ele>
        <time>2022-03-26T15:00:28Z</time>
      </trkpt>
      <trkpt lat="46.22071" lon="5.512">
        <ele>647.8</ele>
        <time>2022-03-26T15:00:29Z</time>
      </trkpt>
      <trkpt lat="46.22067" lon="5.51194">
        <ele>647.8</ele>
        <time>2022-03-26T15:00:30Z</time>
      </trkpt>
      <trkpt lat="46.22058" lon="5.51179">
        <ele>647.8</ele>
        <time>2022-03-26T15:00:33Z</time>
      </trkpt>
      <trkpt lat="46.22057" lon="5.51173">
        <ele>647.8</ele>
        <time>2022-03-26T15:00:34Z</time>
      </trkpt>
      <trkpt lat="46.22059" lon="5.5115">
        <ele>648</ele>
        <time>2022-03-26T15:00:38Z</time>
      </trkpt>
      <trkpt lat="46.22067" lon="5.51112">
        <ele>647.8</ele>
        <time>2022-03-26T15:00:43Z</time>
      </trkpt>
      <trkpt lat="46.22078" lon="5.51062">
        <ele>647.2</ele>
        <time>2022-03-26T15:00:49Z</time>
      </trkpt>
      <trkpt lat="46.22081" lon="5.51045">
        <ele>647</ele>
        <time>2022-03-26T15:00:51Z</time>
      </trkpt>
      <trkpt lat="46.22082" lon="5.51012">
        <ele>647.4</ele>
        <time>2022-03-26T15:00:55Z</time>
      </trkpt>
      <trkpt lat="46.2208" lon="5.5096">
        <ele>648</ele>
        <time>2022-03-26T15:01:02Z</time>
      </trkpt>
      <trkpt lat="46.22078" lon="5.50897">
        <ele>647.2</ele>
        <time>2022-03-26T15:01:09Z</time>
      </trkpt>
      <trkpt lat="46.22077" lon="5.50873">
        <ele>646.6</ele>
        <time>2022-03-26T15:01:11Z</time>
      </trkpt>
      <trkpt lat="46.22076" lon="5.50826">
        <ele>645.2</ele>
        <time>2022-03-26T15:01:15Z</time>
      </trkpt>
      <trkpt lat="46.22075" lon="5.50784">
        <ele>644</ele>
        <time>2022-03-26T15:01:19Z</time>
      </trkpt>
      <trkpt lat="46.22074" lon="5.50753">
        <ele>643.6</ele>
        <time>2022-03-26T15:01:22Z</time>
      </trkpt>
      <trkpt lat="46.22069" lon="5.50735">
        <ele>643.6</ele>
        <time>2022-03-26T15:01:24Z</time>
      </trkpt>
      <trkpt lat="46.22063" lon="5.50725">
        <ele>643.8</ele>
        <time>2022-03-26T15:01:25Z</time>
      </trkpt>
      <trkpt lat="46.22058" lon="5.50719">
        <ele>643.8</ele>
        <time>2022-03-26T15:01:26Z</time>
      </trkpt>
      <trkpt lat="46.22033" lon="5.50696">
        <ele>644</ele>
        <time>2022-03-26T15:01:30Z</time>
      </trkpt>
      <trkpt lat="46.21984" lon="5.50649">
        <ele>644.4</ele>
        <time>2022-03-26T15:01:39Z</time>
      </trkpt>
      <trkpt lat="46.2196" lon="5.5063">
        <ele>645.6</ele>
        <time>2022-03-26T15:01:44Z</time>
      </trkpt>
      <trkpt lat="46.2195" lon="5.50623">
        <ele>646.4</ele>
        <time>2022-03-26T15:01:46Z</time>
      </trkpt>
      <trkpt lat="46.21945" lon="5.50621">
        <ele>646.6</ele>
        <time>2022-03-26T15:01:47Z</time>
      </trkpt>
      <trkpt lat="46.21925" lon="5.50612">
        <ele>647.6</ele>
        <time>2022-03-26T15:01:51Z</time>
      </trkpt>
      <trkpt lat="46.21921" lon="5.50609">
        <ele>648</ele>
        <time>2022-03-26T15:01:52Z</time>
      </trkpt>
      <trkpt lat="46.2191" lon="5.50602">
        <ele>649.4</ele>
        <time>2022-03-26T15:01:55Z</time>
      </trkpt>
      <trkpt lat="46.21899" lon="5.50594">
        <ele>650.4</ele>
        <time>2022-03-26T15:01:58Z</time>
      </trkpt>
      <trkpt lat="46.21884" lon="5.50584">
        <ele>651.6</ele>
        <time>2022-03-26T15:02:02Z</time>
      </trkpt>
      <trkpt lat="46.21865" lon="5.50572">
        <ele>652.4</ele>
        <time>2022-03-26T15:02:06Z</time>
      </trkpt>
      <trkpt lat="46.21855" lon="5.50568">
        <ele>652.8</ele>
        <time>2022-03-26T15:02:08Z</time>
      </trkpt>
      <trkpt lat="46.21841" lon="5.50559">
        <ele>653</ele>
        <time>2022-03-26T15:02:11Z</time>
      </trkpt>
      <trkpt lat="46.21804" lon="5.50534">
        <ele>653.8</ele>
        <time>2022-03-26T15:02:18Z</time>
      </trkpt>
      <trkpt lat="46.21799" lon="5.50531">
        <ele>653.8</ele>
        <time>2022-03-26T15:02:19Z</time>
      </trkpt>
      <trkpt lat="46.21782" lon="5.50521">
        <ele>653.8</ele>
        <time>2022-03-26T15:02:22Z</time>
      </trkpt>
      <trkpt lat="46.2177" lon="5.50517">
        <ele>653.8</ele>
        <time>2022-03-26T15:02:24Z</time>
      </trkpt>
      <trkpt lat="46.21764" lon="5.50516">
        <ele>653.6</ele>
        <time>2022-03-26T15:02:25Z</time>
      </trkpt>
      <trkpt lat="46.21758" lon="5.50514">
        <ele>653.6</ele>
        <time>2022-03-26T15:02:26Z</time>
      </trkpt>
      <trkpt lat="46.21742" lon="5.50504">
        <ele>653.6</ele>
        <time>2022-03-26T15:02:29Z</time>
      </trkpt>
      <trkpt lat="46.21737" lon="5.50499">
        <ele>653.4</ele>
        <time>2022-03-26T15:02:30Z</time>
      </trkpt>
      <trkpt lat="46.21701" lon="5.50467">
        <ele>653.8</ele>
        <time>2022-03-26T15:02:37Z</time>
      </trkpt>
      <trkpt lat="46.21654" lon="5.50437">
        <ele>653.2</ele>
        <time>2022-03-26T15:02:44Z</time>
      </trkpt>
      <trkpt lat="46.21633" lon="5.50414">
        <ele>652.8</ele>
        <time>2022-03-26T15:02:48Z</time>
      </trkpt>
      <trkpt lat="46.21628" lon="5.50408">
        <ele>652.6</ele>
        <time>2022-03-26T15:02:49Z</time>
      </trkpt>
      <trkpt lat="46.21624" lon="5.504">
        <ele>652.6</ele>
        <time>2022-03-26T15:02:50Z</time>
      </trkpt>
      <trkpt lat="46.21603" lon="5.50366">
        <ele>652.2</ele>
        <time>2022-03-26T15:02:54Z</time>
      </trkpt>
      <trkpt lat="46.21571" lon="5.5032">
        <ele>652.2</ele>
        <time>2022-03-26T15:03:01Z</time>
      </trkpt>
      <trkpt lat="46.2155" lon="5.50293">
        <ele>653.8</ele>
        <time>2022-03-26T15:03:06Z</time>
      </trkpt>
      <trkpt lat="46.21534" lon="5.50272">
        <ele>654.8</ele>
        <time>2022-03-26T15:03:10Z</time>
      </trkpt>
      <trkpt lat="46.2153" lon="5.50266">
        <ele>655.2</ele>
        <time>2022-03-26T15:03:11Z</time>
      </trkpt>
      <trkpt lat="46.21511" lon="5.50239">
        <ele>656</ele>
        <time>2022-03-26T15:03:16Z</time>
      </trkpt>
      <trkpt lat="46.21501" lon="5.50224">
        <ele>656.4</ele>
        <time>2022-03-26T15:03:19Z</time>
      </trkpt>
      <trkpt lat="46.21486" lon="5.50205">
        <ele>657.4</ele>
        <time>2022-03-26T15:03:23Z</time>
      </trkpt>
      <trkpt lat="46.21474" lon="5.50193">
        <ele>658</ele>
        <time>2022-03-26T15:03:26Z</time>
      </trkpt>
      <trkpt lat="46.2147" lon="5.5019">
        <ele>658.4</ele>
        <time>2022-03-26T15:03:27Z</time>
      </trkpt>
      <trkpt lat="46.21465" lon="5.50187">
        <ele>658.4</ele>
        <time>2022-03-26T15:03:28Z</time>
      </trkpt>
      <trkpt lat="46.21457" lon="5.50182">
        <ele>658.6</ele>
        <time>2022-03-26T15:03:30Z</time>
      </trkpt>
      <trkpt lat="46.21452" lon="5.50181">
        <ele>658.6</ele>
        <time>2022-03-26T15:03:31Z</time>
      </trkpt>
      <trkpt lat="46.21443" lon="5.50179">
        <ele>659.2</ele>
        <time>2022-03-26T15:03:33Z</time>
      </trkpt>
      <trkpt lat="46.21435" lon="5.50177">
        <ele>660</ele>
        <time>2022-03-26T15:03:35Z</time>
      </trkpt>
      <trkpt lat="46.21427" lon="5.50177">
        <ele>660</ele>
        <time>2022-03-26T15:03:37Z</time>
      </trkpt>
      <trkpt lat="46.21413" lon="5.50176">
        <ele>660.6</ele>
        <time>2022-03-26T15:03:41Z</time>
      </trkpt>
      <trkpt lat="46.21409" lon="5.50176">
        <ele>661.2</ele>
        <time>2022-03-26T15:03:42Z</time>
      </trkpt>
      <trkpt lat="46.21405" lon="5.50176">
        <ele>662</ele>
        <time>2022-03-26T15:03:43Z</time>
      </trkpt>
      <trkpt lat="46.21384" lon="5.50176">
        <ele>663</ele>
        <time>2022-03-26T15:03:48Z</time>
      </trkpt>
      <trkpt lat="46.2138" lon="5.50176">
        <ele>663.2</ele>
        <time>2022-03-26T15:03:49Z</time>
      </trkpt>
      <trkpt lat="46.21366" lon="5.50176">
        <ele>664.4</ele>
        <time>2022-03-26T15:03:53Z</time>
      </trkpt>
      <trkpt lat="46.21354" lon="5.50174">
        <ele>665.2</ele>
        <time>2022-03-26T15:03:56Z</time>
      </trkpt>
      <trkpt lat="46.21349" lon="5.50173">
        <ele>665.6</ele>
        <time>2022-03-26T15:03:57Z</time>
      </trkpt>
      <trkpt lat="46.21332" lon="5.50171">
        <ele>666.4</ele>
        <time>2022-03-26T15:04:01Z</time>
      </trkpt>
      <trkpt lat="46.21315" lon="5.50166">
        <ele>667</ele>
        <time>2022-03-26T15:04:05Z</time>
      </trkpt>
      <trkpt lat="46.21297" lon="5.5016">
        <ele>667.6</ele>
        <time>2022-03-26T15:04:09Z</time>
      </trkpt>
      <trkpt lat="46.21286" lon="5.50156">
        <ele>667.4</ele>
        <time>2022-03-26T15:04:11Z</time>
      </trkpt>
      <trkpt lat="46.21244" lon="5.5014">
        <ele>667.8</ele>
        <time>2022-03-26T15:04:19Z</time>
      </trkpt>
      <trkpt lat="46.21213" lon="5.5013">
        <ele>668.4</ele>
        <time>2022-03-26T15:04:25Z</time>
      </trkpt>
      <trkpt lat="46.21202" lon="5.50127">
        <ele>668.8</ele>
        <time>2022-03-26T15:04:27Z</time>
      </trkpt>
      <trkpt lat="46.21166" lon="5.50112">
        <ele>669</ele>
        <time>2022-03-26T15:04:33Z</time>
      </trkpt>
      <trkpt lat="46.21119" lon="5.50087">
        <ele>668.8</ele>
        <time>2022-03-26T15:04:40Z</time>
      </trkpt>
      <trkpt lat="46.2108" lon="5.50074">
        <ele>668.4</ele>
        <time>2022-03-26T15:04:46Z</time>
      </trkpt>
      <trkpt lat="46.2105" lon="5.50075">
        <ele>668.4</ele>
        <time>2022-03-26T15:04:51Z</time>
      </trkpt>
      <trkpt lat="46.21039" lon="5.50076">
        <ele>669.6</ele>
        <time>2022-03-26T15:04:53Z</time>
      </trkpt>
      <trkpt lat="46.21034" lon="5.50076">
        <ele>669.6</ele>
        <time>2022-03-26T15:04:54Z</time>
      </trkpt>
      <trkpt lat="46.21028" lon="5.50077">
        <ele>670.2</ele>
        <time>2022-03-26T15:04:55Z</time>
      </trkpt>
      <trkpt lat="46.21022" lon="5.50078">
        <ele>670.2</ele>
        <time>2022-03-26T15:04:56Z</time>
      </trkpt>
      <trkpt lat="46.21016" lon="5.50079">
        <ele>670.2</ele>
        <time>2022-03-26T15:04:57Z</time>
      </trkpt>
      <trkpt lat="46.20986" lon="5.50083">
        <ele>670.8</ele>
        <time>2022-03-26T15:05:01Z</time>
      </trkpt>
      <trkpt lat="46.20978" lon="5.50081">
        <ele>670.8</ele>
        <time>2022-03-26T15:05:02Z</time>
      </trkpt>
      <trkpt lat="46.2097" lon="5.50077">
        <ele>670.8</ele>
        <time>2022-03-26T15:05:03Z</time>
      </trkpt>
      <trkpt lat="46.20956" lon="5.50057">
        <ele>670.6</ele>
        <time>2022-03-26T15:05:05Z</time>
      </trkpt>
      <trkpt lat="46.20941" lon="5.50019">
        <ele>668.8</ele>
        <time>2022-03-26T15:05:08Z</time>
      </trkpt>
      <trkpt lat="46.20938" lon="5.50005">
        <ele>666.4</ele>
        <time>2022-03-26T15:05:09Z</time>
      </trkpt>
      <trkpt lat="46.20936" lon="5.4999">
        <ele>665.8</ele>
        <time>2022-03-26T15:05:10Z</time>
      </trkpt>
      <trkpt lat="46.20936" lon="5.49976">
        <ele>665</ele>
        <time>2022-03-26T15:05:11Z</time>
      </trkpt>
      <trkpt lat="46.20938" lon="5.49961">
        <ele>664.8</ele>
        <time>2022-03-26T15:05:12Z</time>
      </trkpt>
      <trkpt lat="46.20944" lon="5.49931">
        <ele>663.2</ele>
        <time>2022-03-26T15:05:14Z</time>
      </trkpt>
      <trkpt lat="46.20947" lon="5.49917">
        <ele>662.6</ele>
        <time>2022-03-26T15:05:15Z</time>
      </trkpt>
      <trkpt lat="46.20949" lon="5.49906">
        <ele>661.6</ele>
        <time>2022-03-26T15:05:16Z</time>
      </trkpt>
      <trkpt lat="46.2095" lon="5.49889">
        <ele>661.2</ele>
        <time>2022-03-26T15:05:17Z</time>
      </trkpt>
      <trkpt lat="46.20948" lon="5.49861">
        <ele>660.6</ele>
        <time>2022-03-26T15:05:19Z</time>
      </trkpt>
      <trkpt lat="46.20941" lon="5.49835">
        <ele>660</ele>
        <time>2022-03-26T15:05:21Z</time>
      </trkpt>
      <trkpt lat="46.20935" lon="5.49824">
        <ele>660</ele>
        <time>2022-03-26T15:05:22Z</time>
      </trkpt>
      <trkpt lat="46.20929" lon="5.49813">
        <ele>660</ele>
        <time>2022-03-26T15:05:23Z</time>
      </trkpt>
      <trkpt lat="46.20911" lon="5.49782">
        <ele>659.8</ele>
        <time>2022-03-26T15:05:26Z</time>
      </trkpt>
      <trkpt lat="46.20906" lon="5.49758">
        <ele>659.8</ele>
        <time>2022-03-26T15:05:28Z</time>
      </trkpt>
      <trkpt lat="46.20906" lon="5.49746">
        <ele>659.8</ele>
        <time>2022-03-26T15:05:29Z</time>
      </trkpt>
      <trkpt lat="46.20905" lon="5.49712">
        <ele>660</ele>
        <time>2022-03-26T15:05:32Z</time>
      </trkpt>
      <trkpt lat="46.20903" lon="5.49702">
        <ele>660</ele>
        <time>2022-03-26T15:05:33Z</time>
      </trkpt>
      <trkpt lat="46.209" lon="5.49694">
        <ele>660.4</ele>
        <time>2022-03-26T15:05:34Z</time>
      </trkpt>
      <trkpt lat="46.2089" lon="5.49682">
        <ele>661.2</ele>
        <time>2022-03-26T15:05:36Z</time>
      </trkpt>
      <trkpt lat="46.20875" lon="5.49676">
        <ele>662.4</ele>
        <time>2022-03-26T15:05:39Z</time>
      </trkpt>
      <trkpt lat="46.20868" lon="5.49674">
        <ele>662.6</ele>
        <time>2022-03-26T15:05:40Z</time>
      </trkpt>
      <trkpt lat="46.20854" lon="5.49669">
        <ele>663.8</ele>
        <time>2022-03-26T15:05:43Z</time>
      </trkpt>
      <trkpt lat="46.20846" lon="5.49663">
        <ele>664.2</ele>
        <time>2022-03-26T15:05:45Z</time>
      </trkpt>
      <trkpt lat="46.20842" lon="5.4966">
        <ele>664.8</ele>
        <time>2022-03-26T15:05:46Z</time>
      </trkpt>
      <trkpt lat="46.20833" lon="5.49653">
        <ele>665.8</ele>
        <time>2022-03-26T15:05:48Z</time>
      </trkpt>
      <trkpt lat="46.20818" lon="5.49636">
        <ele>666.8</ele>
        <time>2022-03-26T15:05:52Z</time>
      </trkpt>
      <trkpt lat="46.20815" lon="5.49631">
        <ele>667.2</ele>
        <time>2022-03-26T15:05:53Z</time>
      </trkpt>
      <trkpt lat="46.20812" lon="5.49627">
        <ele>667.4</ele>
        <time>2022-03-26T15:05:54Z</time>
      </trkpt>
      <trkpt lat="46.20806" lon="5.49616">
        <ele>668</ele>
        <time>2022-03-26T15:05:56Z</time>
      </trkpt>
      <trkpt lat="46.20803" lon="5.49611">
        <ele>668.4</ele>
        <time>2022-03-26T15:05:57Z</time>
      </trkpt>
      <trkpt lat="46.208" lon="5.49605">
        <ele>668.6</ele>
        <time>2022-03-26T15:05:58Z</time>
      </trkpt>
      <trkpt lat="46.20785" lon="5.49579">
        <ele>669</ele>
        <time>2022-03-26T15:06:03Z</time>
      </trkpt>
      <trkpt lat="46.20778" lon="5.49572">
        <ele>669.2</ele>
        <time>2022-03-26T15:06:05Z</time>
      </trkpt>
      <trkpt lat="46.2077" lon="5.49566">
        <ele>669.4</ele>
        <time>2022-03-26T15:06:07Z</time>
      </trkpt>
      <trkpt lat="46.20758" lon="5.49559">
        <ele>669.8</ele>
        <time>2022-03-26T15:06:10Z</time>
      </trkpt>
      <trkpt lat="46.20754" lon="5.49557">
        <ele>670.2</ele>
        <time>2022-03-26T15:06:11Z</time>
      </trkpt>
      <trkpt lat="46.20745" lon="5.49553">
        <ele>670.4</ele>
        <time>2022-03-26T15:06:13Z</time>
      </trkpt>
      <trkpt lat="46.20724" lon="5.49545">
        <ele>670.8</ele>
        <time>2022-03-26T15:06:17Z</time>
      </trkpt>
      <trkpt lat="46.20714" lon="5.49536">
        <ele>670.6</ele>
        <time>2022-03-26T15:06:19Z</time>
      </trkpt>
      <trkpt lat="46.2071" lon="5.4953">
        <ele>670.4</ele>
        <time>2022-03-26T15:06:20Z</time>
      </trkpt>
      <trkpt lat="46.20708" lon="5.49524">
        <ele>669.8</ele>
        <time>2022-03-26T15:06:21Z</time>
      </trkpt>
      <trkpt lat="46.20707" lon="5.49516">
        <ele>669.4</ele>
        <time>2022-03-26T15:06:22Z</time>
      </trkpt>
      <trkpt lat="46.20706" lon="5.49507">
        <ele>669.2</ele>
        <time>2022-03-26T15:06:23Z</time>
      </trkpt>
      <trkpt lat="46.20705" lon="5.49486">
        <ele>668.4</ele>
        <time>2022-03-26T15:06:25Z</time>
      </trkpt>
      <trkpt lat="46.20702" lon="5.49465">
        <ele>667.8</ele>
        <time>2022-03-26T15:06:27Z</time>
      </trkpt>
      <trkpt lat="46.207" lon="5.49454">
        <ele>667</ele>
        <time>2022-03-26T15:06:28Z</time>
      </trkpt>
      <trkpt lat="46.20696" lon="5.49434">
        <ele>666</ele>
        <time>2022-03-26T15:06:30Z</time>
      </trkpt>
      <trkpt lat="46.20688" lon="5.49401">
        <ele>665.2</ele>
        <time>2022-03-26T15:06:33Z</time>
      </trkpt>
      <trkpt lat="46.20684" lon="5.4939">
        <ele>665</ele>
        <time>2022-03-26T15:06:34Z</time>
      </trkpt>
      <trkpt lat="46.2067" lon="5.4936">
        <ele>663.8</ele>
        <time>2022-03-26T15:06:37Z</time>
      </trkpt>
      <trkpt lat="46.20665" lon="5.49351">
        <ele>663.6</ele>
        <time>2022-03-26T15:06:38Z</time>
      </trkpt>
      <trkpt lat="46.20653" lon="5.49336">
        <ele>663</ele>
        <time>2022-03-26T15:06:40Z</time>
      </trkpt>
      <trkpt lat="46.20645" lon="5.4933">
        <ele>662.2</ele>
        <time>2022-03-26T15:06:41Z</time>
      </trkpt>
      <trkpt lat="46.20622" lon="5.49321">
        <ele>660.8</ele>
        <time>2022-03-26T15:06:44Z</time>
      </trkpt>
      <trkpt lat="46.20615" lon="5.49317">
        <ele>660.6</ele>
        <time>2022-03-26T15:06:45Z</time>
      </trkpt>
      <trkpt lat="46.2061" lon="5.49311">
        <ele>659.8</ele>
        <time>2022-03-26T15:06:46Z</time>
      </trkpt>
      <trkpt lat="46.20605" lon="5.49304">
        <ele>659.6</ele>
        <time>2022-03-26T15:06:47Z</time>
      </trkpt>
      <trkpt lat="46.20602" lon="5.49295">
        <ele>658.8</ele>
        <time>2022-03-26T15:06:48Z</time>
      </trkpt>
      <trkpt lat="46.20602" lon="5.49283">
        <ele>658.6</ele>
        <time>2022-03-26T15:06:49Z</time>
      </trkpt>
      <trkpt lat="46.20604" lon="5.49274">
        <ele>657.8</ele>
        <time>2022-03-26T15:06:50Z</time>
      </trkpt>
      <trkpt lat="46.20606" lon="5.49262">
        <ele>657</ele>
        <time>2022-03-26T15:06:51Z</time>
      </trkpt>
      <trkpt lat="46.20608" lon="5.49239">
        <ele>655.6</ele>
        <time>2022-03-26T15:06:53Z</time>
      </trkpt>
      <trkpt lat="46.2061" lon="5.49228">
        <ele>654.8</ele>
        <time>2022-03-26T15:06:54Z</time>
      </trkpt>
      <trkpt lat="46.20611" lon="5.49218">
        <ele>653.6</ele>
        <time>2022-03-26T15:06:55Z</time>
      </trkpt>
      <trkpt lat="46.20613" lon="5.49197">
        <ele>651.8</ele>
        <time>2022-03-26T15:06:57Z</time>
      </trkpt>
      <trkpt lat="46.20614" lon="5.49186">
        <ele>651</ele>
        <time>2022-03-26T15:06:58Z</time>
      </trkpt>
      <trkpt lat="46.20614" lon="5.49179">
        <ele>650.6</ele>
        <time>2022-03-26T15:06:59Z</time>
      </trkpt>
      <trkpt lat="46.20613" lon="5.49167">
        <ele>650</ele>
        <time>2022-03-26T15:07:00Z</time>
      </trkpt>
      <trkpt lat="46.20613" lon="5.49157">
        <ele>649.8</ele>
        <time>2022-03-26T15:07:01Z</time>
      </trkpt>
      <trkpt lat="46.20614" lon="5.49147">
        <ele>649.4</ele>
        <time>2022-03-26T15:07:02Z</time>
      </trkpt>
      <trkpt lat="46.20617" lon="5.49127">
        <ele>649</ele>
        <time>2022-03-26T15:07:04Z</time>
      </trkpt>
      <trkpt lat="46.2062" lon="5.49113">
        <ele>648.4</ele>
        <time>2022-03-26T15:07:05Z</time>
      </trkpt>
      <trkpt lat="46.20631" lon="5.49079">
        <ele>647.4</ele>
        <time>2022-03-26T15:07:08Z</time>
      </trkpt>
      <trkpt lat="46.20635" lon="5.49069">
        <ele>646.2</ele>
        <time>2022-03-26T15:07:09Z</time>
      </trkpt>
      <trkpt lat="46.20645" lon="5.49052">
        <ele>644.4</ele>
        <time>2022-03-26T15:07:11Z</time>
      </trkpt>
      <trkpt lat="46.2066" lon="5.49037">
        <ele>642.8</ele>
        <time>2022-03-26T15:07:13Z</time>
      </trkpt>
      <trkpt lat="46.20676" lon="5.49022">
        <ele>641.8</ele>
        <time>2022-03-26T15:07:15Z</time>
      </trkpt>
      <trkpt lat="46.20683" lon="5.49014">
        <ele>641.2</ele>
        <time>2022-03-26T15:07:16Z</time>
      </trkpt>
      <trkpt lat="46.20688" lon="5.49006">
        <ele>640.8</ele>
        <time>2022-03-26T15:07:17Z</time>
      </trkpt>
      <trkpt lat="46.20692" lon="5.48999">
        <ele>639.4</ele>
        <time>2022-03-26T15:07:18Z</time>
      </trkpt>
      <trkpt lat="46.20694" lon="5.48993">
        <ele>638.8</ele>
        <time>2022-03-26T15:07:19Z</time>
      </trkpt>
      <trkpt lat="46.20695" lon="5.48988">
        <ele>638.2</ele>
        <time>2022-03-26T15:07:20Z</time>
      </trkpt>
      <trkpt lat="46.20695" lon="5.4898">
        <ele>637.6</ele>
        <time>2022-03-26T15:07:21Z</time>
      </trkpt>
      <trkpt lat="46.20693" lon="5.48973">
        <ele>637.2</ele>
        <time>2022-03-26T15:07:22Z</time>
      </trkpt>
      <trkpt lat="46.20691" lon="5.48966">
        <ele>637</ele>
        <time>2022-03-26T15:07:23Z</time>
      </trkpt>
      <trkpt lat="46.2068" lon="5.48949">
        <ele>636.6</ele>
        <time>2022-03-26T15:07:25Z</time>
      </trkpt>
      <trkpt lat="46.20667" lon="5.48939">
        <ele>635.8</ele>
        <time>2022-03-26T15:07:27Z</time>
      </trkpt>
      <trkpt lat="46.20661" lon="5.48934">
        <ele>634.8</ele>
        <time>2022-03-26T15:07:28Z</time>
      </trkpt>
      <trkpt lat="46.20656" lon="5.4893">
        <ele>634.4</ele>
        <time>2022-03-26T15:07:29Z</time>
      </trkpt>
      <trkpt lat="46.20652" lon="5.48926">
        <ele>633.6</ele>
        <time>2022-03-26T15:07:30Z</time>
      </trkpt>
      <trkpt lat="46.20646" lon="5.48919">
        <ele>632.2</ele>
        <time>2022-03-26T15:07:32Z</time>
      </trkpt>
      <trkpt lat="46.20643" lon="5.48916">
        <ele>631.8</ele>
        <time>2022-03-26T15:07:33Z</time>
      </trkpt>
      <trkpt lat="46.2064" lon="5.48913">
        <ele>630.4</ele>
        <time>2022-03-26T15:07:34Z</time>
      </trkpt>
      <trkpt lat="46.20635" lon="5.48906">
        <ele>629.2</ele>
        <time>2022-03-26T15:07:36Z</time>
      </trkpt>
      <trkpt lat="46.20626" lon="5.48897">
        <ele>627.8</ele>
        <time>2022-03-26T15:07:38Z</time>
      </trkpt>
      <trkpt lat="46.2062" lon="5.48892">
        <ele>627</ele>
        <time>2022-03-26T15:07:39Z</time>
      </trkpt>
      <trkpt lat="46.20605" lon="5.48884">
        <ele>626</ele>
        <time>2022-03-26T15:07:41Z</time>
      </trkpt>
      <trkpt lat="46.20584" lon="5.48879">
        <ele>624.4</ele>
        <time>2022-03-26T15:07:43Z</time>
      </trkpt>
      <trkpt lat="46.20572" lon="5.48879">
        <ele>623.2</ele>
        <time>2022-03-26T15:07:44Z</time>
      </trkpt>
      <trkpt lat="46.20551" lon="5.48879">
        <ele>621</ele>
        <time>2022-03-26T15:07:46Z</time>
      </trkpt>
      <trkpt lat="46.20533" lon="5.48875">
        <ele>618.4</ele>
        <time>2022-03-26T15:07:48Z</time>
      </trkpt>
      <trkpt lat="46.20515" lon="5.4887">
        <ele>617.4</ele>
        <time>2022-03-26T15:07:50Z</time>
      </trkpt>
      <trkpt lat="46.20506" lon="5.48867">
        <ele>616.4</ele>
        <time>2022-03-26T15:07:51Z</time>
      </trkpt>
      <trkpt lat="46.20489" lon="5.48861">
        <ele>614.8</ele>
        <time>2022-03-26T15:07:53Z</time>
      </trkpt>
      <trkpt lat="46.20481" lon="5.48859">
        <ele>614.4</ele>
        <time>2022-03-26T15:07:54Z</time>
      </trkpt>
      <trkpt lat="46.20472" lon="5.48857">
        <ele>613.8</ele>
        <time>2022-03-26T15:07:55Z</time>
      </trkpt>
      <trkpt lat="46.20447" lon="5.48851">
        <ele>611.8</ele>
        <time>2022-03-26T15:07:58Z</time>
      </trkpt>
      <trkpt lat="46.20431" lon="5.4885">
        <ele>610</ele>
        <time>2022-03-26T15:08:00Z</time>
      </trkpt>
      <trkpt lat="46.20411" lon="5.48847">
        <ele>608.8</ele>
        <time>2022-03-26T15:08:02Z</time>
      </trkpt>
      <trkpt lat="46.20393" lon="5.48845">
        <ele>608.2</ele>
        <time>2022-03-26T15:08:04Z</time>
      </trkpt>
      <trkpt lat="46.20383" lon="5.48845">
        <ele>606.6</ele>
        <time>2022-03-26T15:08:05Z</time>
      </trkpt>
      <trkpt lat="46.20361" lon="5.48844">
        <ele>603.6</ele>
        <time>2022-03-26T15:08:07Z</time>
      </trkpt>
      <trkpt lat="46.20352" lon="5.48845">
        <ele>603</ele>
        <time>2022-03-26T15:08:08Z</time>
      </trkpt>
      <trkpt lat="46.20342" lon="5.48845">
        <ele>602.4</ele>
        <time>2022-03-26T15:08:09Z</time>
      </trkpt>
      <trkpt lat="46.20318" lon="5.48844">
        <ele>600.4</ele>
        <time>2022-03-26T15:08:11Z</time>
      </trkpt>
      <trkpt lat="46.20306" lon="5.48843">
        <ele>599.4</ele>
        <time>2022-03-26T15:08:12Z</time>
      </trkpt>
      <trkpt lat="46.20294" lon="5.48842">
        <ele>598.8</ele>
        <time>2022-03-26T15:08:13Z</time>
      </trkpt>
      <trkpt lat="46.20284" lon="5.4884">
        <ele>596.6</ele>
        <time>2022-03-26T15:08:14Z</time>
      </trkpt>
      <trkpt lat="46.20274" lon="5.48841">
        <ele>595.6</ele>
        <time>2022-03-26T15:08:15Z</time>
      </trkpt>
      <trkpt lat="46.20264" lon="5.4884">
        <ele>594</ele>
        <time>2022-03-26T15:08:16Z</time>
      </trkpt>
      <trkpt lat="46.20256" lon="5.48839">
        <ele>593</ele>
        <time>2022-03-26T15:08:17Z</time>
      </trkpt>
      <trkpt lat="46.20247" lon="5.4884">
        <ele>592.2</ele>
        <time>2022-03-26T15:08:18Z</time>
      </trkpt>
      <trkpt lat="46.20221" lon="5.48847">
        <ele>590.6</ele>
        <time>2022-03-26T15:08:21Z</time>
      </trkpt>
      <trkpt lat="46.20212" lon="5.4885">
        <ele>589.8</ele>
        <time>2022-03-26T15:08:22Z</time>
      </trkpt>
      <trkpt lat="46.20203" lon="5.48852">
        <ele>588.4</ele>
        <time>2022-03-26T15:08:23Z</time>
      </trkpt>
      <trkpt lat="46.20185" lon="5.48858">
        <ele>586.6</ele>
        <time>2022-03-26T15:08:25Z</time>
      </trkpt>
      <trkpt lat="46.20176" lon="5.48859">
        <ele>585.6</ele>
        <time>2022-03-26T15:08:26Z</time>
      </trkpt>
      <trkpt lat="46.20167" lon="5.48861">
        <ele>585</ele>
        <time>2022-03-26T15:08:27Z</time>
      </trkpt>
      <trkpt lat="46.20158" lon="5.48863">
        <ele>584.2</ele>
        <time>2022-03-26T15:08:28Z</time>
      </trkpt>
      <trkpt lat="46.2015" lon="5.48865">
        <ele>583.2</ele>
        <time>2022-03-26T15:08:29Z</time>
      </trkpt>
      <trkpt lat="46.2014" lon="5.48868">
        <ele>581.2</ele>
        <time>2022-03-26T15:08:30Z</time>
      </trkpt>
      <trkpt lat="46.2013" lon="5.48871">
        <ele>580.2</ele>
        <time>2022-03-26T15:08:31Z</time>
      </trkpt>
      <trkpt lat="46.2012" lon="5.48872">
        <ele>579</ele>
        <time>2022-03-26T15:08:32Z</time>
      </trkpt>
      <trkpt lat="46.20096" lon="5.48873">
        <ele>577.2</ele>
        <time>2022-03-26T15:08:34Z</time>
      </trkpt>
      <trkpt lat="46.20084" lon="5.48874">
        <ele>576.2</ele>
        <time>2022-03-26T15:08:35Z</time>
      </trkpt>
      <trkpt lat="46.20071" lon="5.48875">
        <ele>575.4</ele>
        <time>2022-03-26T15:08:36Z</time>
      </trkpt>
      <trkpt lat="46.20059" lon="5.48876">
        <ele>573.4</ele>
        <time>2022-03-26T15:08:37Z</time>
      </trkpt>
      <trkpt lat="46.20046" lon="5.48876">
        <ele>571.8</ele>
        <time>2022-03-26T15:08:38Z</time>
      </trkpt>
      <trkpt lat="46.20033" lon="5.48877">
        <ele>569.8</ele>
        <time>2022-03-26T15:08:39Z</time>
      </trkpt>
      <trkpt lat="46.2002" lon="5.48877">
        <ele>568.8</ele>
        <time>2022-03-26T15:08:40Z</time>
      </trkpt>
      <trkpt lat="46.20005" lon="5.48877">
        <ele>567.2</ele>
        <time>2022-03-26T15:08:41Z</time>
      </trkpt>
      <trkpt lat="46.19995" lon="5.48877">
        <ele>565.8</ele>
        <time>2022-03-26T15:08:42Z</time>
      </trkpt>
      <trkpt lat="46.19972" lon="5.48876">
        <ele>563.4</ele>
        <time>2022-03-26T15:08:44Z</time>
      </trkpt>
      <trkpt lat="46.19949" lon="5.48876">
        <ele>562</ele>
        <time>2022-03-26T15:08:46Z</time>
      </trkpt>
      <trkpt lat="46.19939" lon="5.48876">
        <ele>561.2</ele>
        <time>2022-03-26T15:08:47Z</time>
      </trkpt>
      <trkpt lat="46.19929" lon="5.48877">
        <ele>559.8</ele>
        <time>2022-03-26T15:08:48Z</time>
      </trkpt>
      <trkpt lat="46.19919" lon="5.48878">
        <ele>557.8</ele>
        <time>2022-03-26T15:08:49Z</time>
      </trkpt>
      <trkpt lat="46.19897" lon="5.48881">
        <ele>556.4</ele>
        <time>2022-03-26T15:08:51Z</time>
      </trkpt>
      <trkpt lat="46.19886" lon="5.4888">
        <ele>556</ele>
        <time>2022-03-26T15:08:52Z</time>
      </trkpt>
      <trkpt lat="46.19874" lon="5.48878">
        <ele>555.4</ele>
        <time>2022-03-26T15:08:53Z</time>
      </trkpt>
      <trkpt lat="46.19851" lon="5.4887">
        <ele>554.2</ele>
        <time>2022-03-26T15:08:55Z</time>
      </trkpt>
      <trkpt lat="46.19838" lon="5.48867">
        <ele>553</ele>
        <time>2022-03-26T15:08:56Z</time>
      </trkpt>
      <trkpt lat="46.19815" lon="5.48864">
        <ele>551.6</ele>
        <time>2022-03-26T15:08:58Z</time>
      </trkpt>
      <trkpt lat="46.19795" lon="5.48859">
        <ele>550.4</ele>
        <time>2022-03-26T15:09:00Z</time>
      </trkpt>
      <trkpt lat="46.19775" lon="5.48847">
        <ele>549.2</ele>
        <time>2022-03-26T15:09:02Z</time>
      </trkpt>
      <trkpt lat="46.19764" lon="5.4884">
        <ele>548.2</ele>
        <time>2022-03-26T15:09:03Z</time>
      </trkpt>
      <trkpt lat="46.19756" lon="5.48834">
        <ele>547.6</ele>
        <time>2022-03-26T15:09:04Z</time>
      </trkpt>
      <trkpt lat="46.19746" lon="5.48829">
        <ele>546.4</ele>
        <time>2022-03-26T15:09:05Z</time>
      </trkpt>
      <trkpt lat="46.19733" lon="5.48823">
        <ele>545.6</ele>
        <time>2022-03-26T15:09:06Z</time>
      </trkpt>
      <trkpt lat="46.19723" lon="5.48819">
        <ele>544.6</ele>
        <time>2022-03-26T15:09:07Z</time>
      </trkpt>
      <trkpt lat="46.19714" lon="5.48815">
        <ele>544</ele>
        <time>2022-03-26T15:09:08Z</time>
      </trkpt>
      <trkpt lat="46.19703" lon="5.48811">
        <ele>543.2</ele>
        <time>2022-03-26T15:09:09Z</time>
      </trkpt>
      <trkpt lat="46.19691" lon="5.48806">
        <ele>542</ele>
        <time>2022-03-26T15:09:10Z</time>
      </trkpt>
      <trkpt lat="46.19669" lon="5.48797">
        <ele>540.2</ele>
        <time>2022-03-26T15:09:12Z</time>
      </trkpt>
      <trkpt lat="46.19647" lon="5.48787">
        <ele>538.8</ele>
        <time>2022-03-26T15:09:14Z</time>
      </trkpt>
      <trkpt lat="46.19636" lon="5.48782">
        <ele>537.6</ele>
        <time>2022-03-26T15:09:15Z</time>
      </trkpt>
      <trkpt lat="46.19625" lon="5.48775">
        <ele>535.2</ele>
        <time>2022-03-26T15:09:16Z</time>
      </trkpt>
      <trkpt lat="46.19614" lon="5.48768">
        <ele>534</ele>
        <time>2022-03-26T15:09:17Z</time>
      </trkpt>
      <trkpt lat="46.19607" lon="5.48762">
        <ele>531.8</ele>
        <time>2022-03-26T15:09:18Z</time>
      </trkpt>
      <trkpt lat="46.19598" lon="5.48756">
        <ele>530.2</ele>
        <time>2022-03-26T15:09:19Z</time>
      </trkpt>
      <trkpt lat="46.19587" lon="5.4875">
        <ele>529.4</ele>
        <time>2022-03-26T15:09:20Z</time>
      </trkpt>
      <trkpt lat="46.19577" lon="5.48746">
        <ele>528</ele>
        <time>2022-03-26T15:09:21Z</time>
      </trkpt>
      <trkpt lat="46.19567" lon="5.48743">
        <ele>527</ele>
        <time>2022-03-26T15:09:22Z</time>
      </trkpt>
      <trkpt lat="46.19558" lon="5.48739">
        <ele>525.2</ele>
        <time>2022-03-26T15:09:23Z</time>
      </trkpt>
      <trkpt lat="46.19541" lon="5.48733">
        <ele>523.4</ele>
        <time>2022-03-26T15:09:25Z</time>
      </trkpt>
      <trkpt lat="46.1953" lon="5.48728">
        <ele>522.4</ele>
        <time>2022-03-26T15:09:26Z</time>
      </trkpt>
      <trkpt lat="46.19514" lon="5.48721">
        <ele>520.2</ele>
        <time>2022-03-26T15:09:28Z</time>
      </trkpt>
      <trkpt lat="46.19505" lon="5.48718">
        <ele>518.8</ele>
        <time>2022-03-26T15:09:29Z</time>
      </trkpt>
      <trkpt lat="46.19496" lon="5.48714">
        <ele>516.4</ele>
        <time>2022-03-26T15:09:30Z</time>
      </trkpt>
      <trkpt lat="46.1948" lon="5.48706">
        <ele>513.2</ele>
        <time>2022-03-26T15:09:32Z</time>
      </trkpt>
      <trkpt lat="46.19472" lon="5.48703">
        <ele>511.4</ele>
        <time>2022-03-26T15:09:33Z</time>
      </trkpt>
      <trkpt lat="46.19466" lon="5.48701">
        <ele>510.4</ele>
        <time>2022-03-26T15:09:34Z</time>
      </trkpt>
      <trkpt lat="46.19459" lon="5.487">
        <ele>508.4</ele>
        <time>2022-03-26T15:09:35Z</time>
      </trkpt>
      <trkpt lat="46.19454" lon="5.48699">
        <ele>507.2</ele>
        <time>2022-03-26T15:09:36Z</time>
      </trkpt>
      <trkpt lat="46.1945" lon="5.48699">
        <ele>505.6</ele>
        <time>2022-03-26T15:09:37Z</time>
      </trkpt>
      <trkpt lat="46.19446" lon="5.48698">
        <ele>505</ele>
        <time>2022-03-26T15:09:38Z</time>
      </trkpt>
      <trkpt lat="46.19442" lon="5.48697">
        <ele>503.6</ele>
        <time>2022-03-26T15:09:39Z</time>
      </trkpt>
      <trkpt lat="46.1944" lon="5.48695">
        <ele>502.4</ele>
        <time>2022-03-26T15:09:40Z</time>
      </trkpt>
      <trkpt lat="46.19438" lon="5.48692">
        <ele>502</ele>
        <time>2022-03-26T15:09:41Z</time>
      </trkpt>
      <trkpt lat="46.19437" lon="5.48691">
        <ele>501.4</ele>
        <time>2022-03-26T15:09:42Z</time>
      </trkpt>
      <trkpt lat="46.19437" lon="5.48691">
        <ele>501.2</ele>
        <time>2022-03-26T15:09:43Z</time>
      </trkpt>
      <trkpt lat="46.19437" lon="5.48691">
        <ele>500.6</ele>
        <time>2022-03-26T15:09:44Z</time>
      </trkpt>
      <trkpt lat="46.1944" lon="5.48688">
        <ele>499.4</ele>
        <time>2022-03-26T15:10:08Z</time>
      </trkpt>
      <trkpt lat="46.19445" lon="5.48689">
        <ele>499.4</ele>
        <time>2022-03-26T15:10:09Z</time>
      </trkpt>
      <trkpt lat="46.19455" lon="5.48692">
        <ele>499.2</ele>
        <time>2022-03-26T15:10:11Z</time>
      </trkpt>
      <trkpt lat="46.19461" lon="5.48692">
        <ele>499.2</ele>
        <time>2022-03-26T15:10:12Z</time>
      </trkpt>
      <trkpt lat="46.19468" lon="5.48692">
        <ele>499.2</ele>
        <time>2022-03-26T15:10:13Z</time>
      </trkpt>
      <trkpt lat="46.19484" lon="5.48693">
        <ele>498.6</ele>
        <time>2022-03-26T15:10:15Z</time>
      </trkpt>
      <trkpt lat="46.19493" lon="5.48692">
        <ele>498</ele>
        <time>2022-03-26T15:10:16Z</time>
      </trkpt>
      <trkpt lat="46.19504" lon="5.48691">
        <ele>497</ele>
        <time>2022-03-26T15:10:17Z</time>
      </trkpt>
      <trkpt lat="46.19512" lon="5.4869">
        <ele>496.4</ele>
        <time>2022-03-26T15:10:18Z</time>
      </trkpt>
      <trkpt lat="46.19522" lon="5.48688">
        <ele>495.2</ele>
        <time>2022-03-26T15:10:19Z</time>
      </trkpt>
      <trkpt lat="46.19545" lon="5.48685">
        <ele>494</ele>
        <time>2022-03-26T15:10:21Z</time>
      </trkpt>
      <trkpt lat="46.19565" lon="5.48685">
        <ele>492.2</ele>
        <time>2022-03-26T15:10:23Z</time>
      </trkpt>
      <trkpt lat="46.19576" lon="5.48685">
        <ele>490.6</ele>
        <time>2022-03-26T15:10:24Z</time>
      </trkpt>
      <trkpt lat="46.19588" lon="5.48685">
        <ele>490.2</ele>
        <time>2022-03-26T15:10:25Z</time>
      </trkpt>
      <trkpt lat="46.19601" lon="5.48687">
        <ele>489</ele>
        <time>2022-03-26T15:10:26Z</time>
      </trkpt>
      <trkpt lat="46.19621" lon="5.48688">
        <ele>486.2</ele>
        <time>2022-03-26T15:10:28Z</time>
      </trkpt>
      <trkpt lat="46.19645" lon="5.48691">
        <ele>484.8</ele>
        <time>2022-03-26T15:10:30Z</time>
      </trkpt>
      <trkpt lat="46.19658" lon="5.48694">
        <ele>483.6</ele>
        <time>2022-03-26T15:10:31Z</time>
      </trkpt>
      <trkpt lat="46.19673" lon="5.48697">
        <ele>482.8</ele>
        <time>2022-03-26T15:10:32Z</time>
      </trkpt>
      <trkpt lat="46.19684" lon="5.48699">
        <ele>481.6</ele>
        <time>2022-03-26T15:10:33Z</time>
      </trkpt>
      <trkpt lat="46.19711" lon="5.48698">
        <ele>479.6</ele>
        <time>2022-03-26T15:10:35Z</time>
      </trkpt>
      <trkpt lat="46.19737" lon="5.48695">
        <ele>478</ele>
        <time>2022-03-26T15:10:37Z</time>
      </trkpt>
      <trkpt lat="46.19761" lon="5.48692">
        <ele>476.6</ele>
        <time>2022-03-26T15:10:39Z</time>
      </trkpt>
      <trkpt lat="46.19772" lon="5.48689">
        <ele>475.6</ele>
        <time>2022-03-26T15:10:40Z</time>
      </trkpt>
      <trkpt lat="46.19783" lon="5.48688">
        <ele>475</ele>
        <time>2022-03-26T15:10:41Z</time>
      </trkpt>
      <trkpt lat="46.19793" lon="5.48688">
        <ele>474.2</ele>
        <time>2022-03-26T15:10:42Z</time>
      </trkpt>
      <trkpt lat="46.19812" lon="5.4869">
        <ele>472.8</ele>
        <time>2022-03-26T15:10:44Z</time>
      </trkpt>
      <trkpt lat="46.19819" lon="5.48688">
        <ele>472.2</ele>
        <time>2022-03-26T15:10:45Z</time>
      </trkpt>
      <trkpt lat="46.19825" lon="5.48685">
        <ele>471.6</ele>
        <time>2022-03-26T15:10:46Z</time>
      </trkpt>
      <trkpt lat="46.19828" lon="5.48679">
        <ele>471.4</ele>
        <time>2022-03-26T15:10:47Z</time>
      </trkpt>
      <trkpt lat="46.19825" lon="5.48664">
        <ele>470.8</ele>
        <time>2022-03-26T15:10:49Z</time>
      </trkpt>
      <trkpt lat="46.19821" lon="5.48658">
        <ele>470.6</ele>
        <time>2022-03-26T15:10:50Z</time>
      </trkpt>
      <trkpt lat="46.19816" lon="5.4865">
        <ele>470.4</ele>
        <time>2022-03-26T15:10:51Z</time>
      </trkpt>
      <trkpt lat="46.19803" lon="5.48635">
        <ele>469.8</ele>
        <time>2022-03-26T15:10:53Z</time>
      </trkpt>
      <trkpt lat="46.19796" lon="5.48625">
        <ele>469.4</ele>
        <time>2022-03-26T15:10:54Z</time>
      </trkpt>
      <trkpt lat="46.19782" lon="5.48605">
        <ele>468</ele>
        <time>2022-03-26T15:10:56Z</time>
      </trkpt>
      <trkpt lat="46.19766" lon="5.48584">
        <ele>466.8</ele>
        <time>2022-03-26T15:10:58Z</time>
      </trkpt>
      <trkpt lat="46.1975" lon="5.48561">
        <ele>465.4</ele>
        <time>2022-03-26T15:11:00Z</time>
      </trkpt>
      <trkpt lat="46.1974" lon="5.48548">
        <ele>464.2</ele>
        <time>2022-03-26T15:11:01Z</time>
      </trkpt>
      <trkpt lat="46.19722" lon="5.48528">
        <ele>462.2</ele>
        <time>2022-03-26T15:11:03Z</time>
      </trkpt>
      <trkpt lat="46.19711" lon="5.48519">
        <ele>461.8</ele>
        <time>2022-03-26T15:11:04Z</time>
      </trkpt>
      <trkpt lat="46.197" lon="5.48511">
        <ele>461</ele>
        <time>2022-03-26T15:11:05Z</time>
      </trkpt>
      <trkpt lat="46.19677" lon="5.48495">
        <ele>459.4</ele>
        <time>2022-03-26T15:11:07Z</time>
      </trkpt>
      <trkpt lat="46.19664" lon="5.48486">
        <ele>459</ele>
        <time>2022-03-26T15:11:08Z</time>
      </trkpt>
      <trkpt lat="46.19641" lon="5.48465">
        <ele>457.2</ele>
        <time>2022-03-26T15:11:10Z</time>
      </trkpt>
      <trkpt lat="46.19618" lon="5.48444">
        <ele>454.6</ele>
        <time>2022-03-26T15:11:12Z</time>
      </trkpt>
      <trkpt lat="46.19607" lon="5.48432">
        <ele>453.6</ele>
        <time>2022-03-26T15:11:13Z</time>
      </trkpt>
      <trkpt lat="46.19597" lon="5.48422">
        <ele>452.2</ele>
        <time>2022-03-26T15:11:14Z</time>
      </trkpt>
      <trkpt lat="46.19588" lon="5.48413">
        <ele>451</ele>
        <time>2022-03-26T15:11:15Z</time>
      </trkpt>
      <trkpt lat="46.19569" lon="5.48397">
        <ele>449.8</ele>
        <time>2022-03-26T15:11:17Z</time>
      </trkpt>
      <trkpt lat="46.1955" lon="5.48379">
        <ele>448</ele>
        <time>2022-03-26T15:11:19Z</time>
      </trkpt>
      <trkpt lat="46.19531" lon="5.48361">
        <ele>446.2</ele>
        <time>2022-03-26T15:11:21Z</time>
      </trkpt>
      <trkpt lat="46.19522" lon="5.48353">
        <ele>445</ele>
        <time>2022-03-26T15:11:22Z</time>
      </trkpt>
      <trkpt lat="46.19508" lon="5.48335">
        <ele>443.4</ele>
        <time>2022-03-26T15:11:24Z</time>
      </trkpt>
      <trkpt lat="46.19493" lon="5.48315">
        <ele>442.2</ele>
        <time>2022-03-26T15:11:26Z</time>
      </trkpt>
      <trkpt lat="46.19486" lon="5.48303">
        <ele>441.6</ele>
        <time>2022-03-26T15:11:27Z</time>
      </trkpt>
      <trkpt lat="46.1948" lon="5.48291">
        <ele>440.4</ele>
        <time>2022-03-26T15:11:28Z</time>
      </trkpt>
      <trkpt lat="46.19465" lon="5.48267">
        <ele>439.4</ele>
        <time>2022-03-26T15:11:30Z</time>
      </trkpt>
      <trkpt lat="46.19456" lon="5.48256">
        <ele>439</ele>
        <time>2022-03-26T15:11:31Z</time>
      </trkpt>
      <trkpt lat="46.19438" lon="5.48236">
        <ele>437.6</ele>
        <time>2022-03-26T15:11:33Z</time>
      </trkpt>
      <trkpt lat="46.19421" lon="5.48217">
        <ele>434.8</ele>
        <time>2022-03-26T15:11:35Z</time>
      </trkpt>
      <trkpt lat="46.19412" lon="5.48208">
        <ele>433.8</ele>
        <time>2022-03-26T15:11:36Z</time>
      </trkpt>
      <trkpt lat="46.19404" lon="5.48199">
        <ele>432</ele>
        <time>2022-03-26T15:11:37Z</time>
      </trkpt>
      <trkpt lat="46.19396" lon="5.4819">
        <ele>430.6</ele>
        <time>2022-03-26T15:11:38Z</time>
      </trkpt>
      <trkpt lat="46.19382" lon="5.48176">
        <ele>429</ele>
        <time>2022-03-26T15:11:40Z</time>
      </trkpt>
      <trkpt lat="46.19376" lon="5.4817">
        <ele>428.6</ele>
        <time>2022-03-26T15:11:41Z</time>
      </trkpt>
      <trkpt lat="46.19366" lon="5.48159">
        <ele>427.6</ele>
        <time>2022-03-26T15:11:43Z</time>
      </trkpt>
      <trkpt lat="46.19364" lon="5.48153">
        <ele>426.8</ele>
        <time>2022-03-26T15:11:44Z</time>
      </trkpt>
      <trkpt lat="46.19365" lon="5.48146">
        <ele>425.6</ele>
        <time>2022-03-26T15:11:45Z</time>
      </trkpt>
      <trkpt lat="46.19369" lon="5.48139">
        <ele>425</ele>
        <time>2022-03-26T15:11:46Z</time>
      </trkpt>
      <trkpt lat="46.19374" lon="5.48133">
        <ele>423.6</ele>
        <time>2022-03-26T15:11:47Z</time>
      </trkpt>
      <trkpt lat="46.19393" lon="5.48114">
        <ele>422.2</ele>
        <time>2022-03-26T15:11:50Z</time>
      </trkpt>
      <trkpt lat="46.19401" lon="5.48107">
        <ele>421.4</ele>
        <time>2022-03-26T15:11:51Z</time>
      </trkpt>
      <trkpt lat="46.19409" lon="5.48101">
        <ele>420.8</ele>
        <time>2022-03-26T15:11:52Z</time>
      </trkpt>
      <trkpt lat="46.19418" lon="5.48094">
        <ele>420.4</ele>
        <time>2022-03-26T15:11:53Z</time>
      </trkpt>
      <trkpt lat="46.19427" lon="5.48087">
        <ele>419.2</ele>
        <time>2022-03-26T15:11:54Z</time>
      </trkpt>
      <trkpt lat="46.19446" lon="5.48071">
        <ele>417</ele>
        <time>2022-03-26T15:11:56Z</time>
      </trkpt>
      <trkpt lat="46.19476" lon="5.48048">
        <ele>414.4</ele>
        <time>2022-03-26T15:11:59Z</time>
      </trkpt>
      <trkpt lat="46.19497" lon="5.48031">
        <ele>412.6</ele>
        <time>2022-03-26T15:12:01Z</time>
      </trkpt>
      <trkpt lat="46.19518" lon="5.48014">
        <ele>411.6</ele>
        <time>2022-03-26T15:12:03Z</time>
      </trkpt>
      <trkpt lat="46.19528" lon="5.48005">
        <ele>411.2</ele>
        <time>2022-03-26T15:12:04Z</time>
      </trkpt>
      <trkpt lat="46.19536" lon="5.47997">
        <ele>410</ele>
        <time>2022-03-26T15:12:05Z</time>
      </trkpt>
      <trkpt lat="46.19547" lon="5.47971">
        <ele>408.4</ele>
        <time>2022-03-26T15:12:07Z</time>
      </trkpt>
      <trkpt lat="46.19548" lon="5.47956">
        <ele>407.4</ele>
        <time>2022-03-26T15:12:08Z</time>
      </trkpt>
      <trkpt lat="46.19548" lon="5.47942">
        <ele>406.6</ele>
        <time>2022-03-26T15:12:09Z</time>
      </trkpt>
      <trkpt lat="46.19543" lon="5.47931">
        <ele>405.2</ele>
        <time>2022-03-26T15:12:10Z</time>
      </trkpt>
      <trkpt lat="46.19536" lon="5.47919">
        <ele>404.6</ele>
        <time>2022-03-26T15:12:11Z</time>
      </trkpt>
      <trkpt lat="46.1953" lon="5.47908">
        <ele>403.6</ele>
        <time>2022-03-26T15:12:12Z</time>
      </trkpt>
      <trkpt lat="46.19522" lon="5.47897">
        <ele>402.6</ele>
        <time>2022-03-26T15:12:13Z</time>
      </trkpt>
      <trkpt lat="46.19515" lon="5.47884">
        <ele>401.8</ele>
        <time>2022-03-26T15:12:14Z</time>
      </trkpt>
      <trkpt lat="46.19506" lon="5.47872">
        <ele>401.2</ele>
        <time>2022-03-26T15:12:15Z</time>
      </trkpt>
      <trkpt lat="46.19488" lon="5.4785">
        <ele>399.4</ele>
        <time>2022-03-26T15:12:17Z</time>
      </trkpt>
      <trkpt lat="46.19468" lon="5.4783">
        <ele>396.4</ele>
        <time>2022-03-26T15:12:19Z</time>
      </trkpt>
      <trkpt lat="46.19459" lon="5.4782">
        <ele>394.8</ele>
        <time>2022-03-26T15:12:20Z</time>
      </trkpt>
      <trkpt lat="46.19441" lon="5.47803">
        <ele>393</ele>
        <time>2022-03-26T15:12:22Z</time>
      </trkpt>
      <trkpt lat="46.19423" lon="5.47782">
        <ele>391.8</ele>
        <time>2022-03-26T15:12:24Z</time>
      </trkpt>
      <trkpt lat="46.19413" lon="5.4777">
        <ele>391.6</ele>
        <time>2022-03-26T15:12:25Z</time>
      </trkpt>
      <trkpt lat="46.19402" lon="5.47758">
        <ele>390.4</ele>
        <time>2022-03-26T15:12:26Z</time>
      </trkpt>
      <trkpt lat="46.19392" lon="5.47747">
        <ele>389</ele>
        <time>2022-03-26T15:12:27Z</time>
      </trkpt>
      <trkpt lat="46.19376" lon="5.47724">
        <ele>387.2</ele>
        <time>2022-03-26T15:12:29Z</time>
      </trkpt>
      <trkpt lat="46.19359" lon="5.47705">
        <ele>384.6</ele>
        <time>2022-03-26T15:12:31Z</time>
      </trkpt>
      <trkpt lat="46.19346" lon="5.47688">
        <ele>382.8</ele>
        <time>2022-03-26T15:12:33Z</time>
      </trkpt>
      <trkpt lat="46.19335" lon="5.47671">
        <ele>380.4</ele>
        <time>2022-03-26T15:12:35Z</time>
      </trkpt>
      <trkpt lat="46.19332" lon="5.47661">
        <ele>379.6</ele>
        <time>2022-03-26T15:12:36Z</time>
      </trkpt>
      <trkpt lat="46.19332" lon="5.4765">
        <ele>378.6</ele>
        <time>2022-03-26T15:12:37Z</time>
      </trkpt>
      <trkpt lat="46.19334" lon="5.47638">
        <ele>377.2</ele>
        <time>2022-03-26T15:12:38Z</time>
      </trkpt>
      <trkpt lat="46.19339" lon="5.47628">
        <ele>376.6</ele>
        <time>2022-03-26T15:12:39Z</time>
      </trkpt>
      <trkpt lat="46.19344" lon="5.47617">
        <ele>375.6</ele>
        <time>2022-03-26T15:12:40Z</time>
      </trkpt>
      <trkpt lat="46.19351" lon="5.47606">
        <ele>374.8</ele>
        <time>2022-03-26T15:12:41Z</time>
      </trkpt>
      <trkpt lat="46.19357" lon="5.47597">
        <ele>372.8</ele>
        <time>2022-03-26T15:12:42Z</time>
      </trkpt>
      <trkpt lat="46.19365" lon="5.47591">
        <ele>371.4</ele>
        <time>2022-03-26T15:12:43Z</time>
      </trkpt>
      <trkpt lat="46.19374" lon="5.47585">
        <ele>370.6</ele>
        <time>2022-03-26T15:12:44Z</time>
      </trkpt>
      <trkpt lat="46.19383" lon="5.4758">
        <ele>369.8</ele>
        <time>2022-03-26T15:12:45Z</time>
      </trkpt>
      <trkpt lat="46.19396" lon="5.47561">
        <ele>368.4</ele>
        <time>2022-03-26T15:12:47Z</time>
      </trkpt>
      <trkpt lat="46.19398" lon="5.47532">
        <ele>366.4</ele>
        <time>2022-03-26T15:12:49Z</time>
      </trkpt>
      <trkpt lat="46.19397" lon="5.47517">
        <ele>365</ele>
        <time>2022-03-26T15:12:50Z</time>
      </trkpt>
      <trkpt lat="46.19395" lon="5.47503">
        <ele>364.2</ele>
        <time>2022-03-26T15:12:51Z</time>
      </trkpt>
      <trkpt lat="46.19391" lon="5.4749">
        <ele>362.8</ele>
        <time>2022-03-26T15:12:52Z</time>
      </trkpt>
      <trkpt lat="46.19387" lon="5.4748">
        <ele>361.4</ele>
        <time>2022-03-26T15:12:53Z</time>
      </trkpt>
      <trkpt lat="46.19383" lon="5.4747">
        <ele>360.2</ele>
        <time>2022-03-26T15:12:54Z</time>
      </trkpt>
      <trkpt lat="46.19379" lon="5.47464">
        <ele>359.6</ele>
        <time>2022-03-26T15:12:55Z</time>
      </trkpt>
      <trkpt lat="46.19374" lon="5.47462">
        <ele>358.4</ele>
        <time>2022-03-26T15:12:56Z</time>
      </trkpt>
      <trkpt lat="46.19369" lon="5.47465">
        <ele>357.2</ele>
        <time>2022-03-26T15:12:57Z</time>
      </trkpt>
      <trkpt lat="46.19359" lon="5.47475">
        <ele>355.8</ele>
        <time>2022-03-26T15:12:59Z</time>
      </trkpt>
      <trkpt lat="46.19354" lon="5.47483">
        <ele>355.2</ele>
        <time>2022-03-26T15:13:00Z</time>
      </trkpt>
      <trkpt lat="46.1935" lon="5.4749">
        <ele>354.4</ele>
        <time>2022-03-26T15:13:01Z</time>
      </trkpt>
      <trkpt lat="46.19341" lon="5.47498">
        <ele>352.8</ele>
        <time>2022-03-26T15:13:03Z</time>
      </trkpt>
      <trkpt lat="46.19336" lon="5.47498">
        <ele>351.8</ele>
        <time>2022-03-26T15:13:04Z</time>
      </trkpt>
      <trkpt lat="46.19333" lon="5.47494">
        <ele>351.2</ele>
        <time>2022-03-26T15:13:05Z</time>
      </trkpt>
      <trkpt lat="46.19331" lon="5.47488">
        <ele>349.6</ele>
        <time>2022-03-26T15:13:06Z</time>
      </trkpt>
      <trkpt lat="46.1933" lon="5.4748">
        <ele>349</ele>
        <time>2022-03-26T15:13:07Z</time>
      </trkpt>
      <trkpt lat="46.19328" lon="5.47471">
        <ele>348</ele>
        <time>2022-03-26T15:13:08Z</time>
      </trkpt>
      <trkpt lat="46.19326" lon="5.47462">
        <ele>347.8</ele>
        <time>2022-03-26T15:13:09Z</time>
      </trkpt>
      <trkpt lat="46.19322" lon="5.47453">
        <ele>346.6</ele>
        <time>2022-03-26T15:13:10Z</time>
      </trkpt>
      <trkpt lat="46.19318" lon="5.47445">
        <ele>345.8</ele>
        <time>2022-03-26T15:13:11Z</time>
      </trkpt>
      <trkpt lat="46.19313" lon="5.47436">
        <ele>345.6</ele>
        <time>2022-03-26T15:13:12Z</time>
      </trkpt>
      <trkpt lat="46.19307" lon="5.47429">
        <ele>345.2</ele>
        <time>2022-03-26T15:13:13Z</time>
      </trkpt>
      <trkpt lat="46.19301" lon="5.4742">
        <ele>345</ele>
        <time>2022-03-26T15:13:14Z</time>
      </trkpt>
      <trkpt lat="46.19293" lon="5.47412">
        <ele>344.2</ele>
        <time>2022-03-26T15:13:15Z</time>
      </trkpt>
      <trkpt lat="46.19286" lon="5.47405">
        <ele>344</ele>
        <time>2022-03-26T15:13:16Z</time>
      </trkpt>
      <trkpt lat="46.1927" lon="5.47392">
        <ele>342.8</ele>
        <time>2022-03-26T15:13:18Z</time>
      </trkpt>
      <trkpt lat="46.19258" lon="5.47384">
        <ele>341.6</ele>
        <time>2022-03-26T15:13:20Z</time>
      </trkpt>
      <trkpt lat="46.19249" lon="5.47377">
        <ele>340.4</ele>
        <time>2022-03-26T15:13:22Z</time>
      </trkpt>
      <trkpt lat="46.1924" lon="5.47366">
        <ele>339.6</ele>
        <time>2022-03-26T15:13:24Z</time>
      </trkpt>
      <trkpt lat="46.19238" lon="5.4736">
        <ele>339</ele>
        <time>2022-03-26T15:13:25Z</time>
      </trkpt>
      <trkpt lat="46.19239" lon="5.47353">
        <ele>338.6</ele>
        <time>2022-03-26T15:13:26Z</time>
      </trkpt>
      <trkpt lat="46.19245" lon="5.4734">
        <ele>338</ele>
        <time>2022-03-26T15:13:28Z</time>
      </trkpt>
      <trkpt lat="46.19249" lon="5.47334">
        <ele>337.4</ele>
        <time>2022-03-26T15:13:29Z</time>
      </trkpt>
      <trkpt lat="46.19253" lon="5.47328">
        <ele>337.2</ele>
        <time>2022-03-26T15:13:30Z</time>
      </trkpt>
      <trkpt lat="46.1927" lon="5.47297">
        <ele>336.2</ele>
        <time>2022-03-26T15:13:34Z</time>
      </trkpt>
      <trkpt lat="46.19275" lon="5.47288">
        <ele>336.2</ele>
        <time>2022-03-26T15:13:35Z</time>
      </trkpt>
      <trkpt lat="46.19286" lon="5.47273">
        <ele>335.8</ele>
        <time>2022-03-26T15:13:37Z</time>
      </trkpt>
      <trkpt lat="46.19292" lon="5.47267">
        <ele>335.6</ele>
        <time>2022-03-26T15:13:38Z</time>
      </trkpt>
      <trkpt lat="46.19302" lon="5.47253">
        <ele>335.2</ele>
        <time>2022-03-26T15:13:40Z</time>
      </trkpt>
      <trkpt lat="46.19306" lon="5.47245">
        <ele>335</ele>
        <time>2022-03-26T15:13:41Z</time>
      </trkpt>
      <trkpt lat="46.19315" lon="5.47228">
        <ele>334.8</ele>
        <time>2022-03-26T15:13:43Z</time>
      </trkpt>
      <trkpt lat="46.19339" lon="5.47168">
        <ele>334.4</ele>
        <time>2022-03-26T15:13:49Z</time>
      </trkpt>
      <trkpt lat="46.19362" lon="5.47102">
        <ele>332.8</ele>
        <time>2022-03-26T15:13:55Z</time>
      </trkpt>
      <trkpt lat="46.19372" lon="5.47067">
        <ele>331.8</ele>
        <time>2022-03-26T15:13:58Z</time>
      </trkpt>
      <trkpt lat="46.19384" lon="5.47024">
        <ele>330.4</ele>
        <time>2022-03-26T15:14:02Z</time>
      </trkpt>
      <trkpt lat="46.19388" lon="5.47004">
        <ele>330</ele>
        <time>2022-03-26T15:14:04Z</time>
      </trkpt>
      <trkpt lat="46.19399" lon="5.46964">
        <ele>329.8</ele>
        <time>2022-03-26T15:14:08Z</time>
      </trkpt>
      <trkpt lat="46.19422" lon="5.46902">
        <ele>329.6</ele>
        <time>2022-03-26T15:14:15Z</time>
      </trkpt>
      <trkpt lat="46.19434" lon="5.46844">
        <ele>329.6</ele>
        <time>2022-03-26T15:14:21Z</time>
      </trkpt>
      <trkpt lat="46.19437" lon="5.46832">
        <ele>329.4</ele>
        <time>2022-03-26T15:14:22Z</time>
      </trkpt>
      <trkpt lat="46.1944" lon="5.46822">
        <ele>329.2</ele>
        <time>2022-03-26T15:14:23Z</time>
      </trkpt>
      <trkpt lat="46.19447" lon="5.46802">
        <ele>329</ele>
        <time>2022-03-26T15:14:25Z</time>
      </trkpt>
      <trkpt lat="46.19451" lon="5.46792">
        <ele>329</ele>
        <time>2022-03-26T15:14:26Z</time>
      </trkpt>
      <trkpt lat="46.19462" lon="5.46775">
        <ele>328.2</ele>
        <time>2022-03-26T15:14:28Z</time>
      </trkpt>
      <trkpt lat="46.19478" lon="5.46756">
        <ele>327.4</ele>
        <time>2022-03-26T15:14:30Z</time>
      </trkpt>
      <trkpt lat="46.19486" lon="5.46747">
        <ele>326.6</ele>
        <time>2022-03-26T15:14:31Z</time>
      </trkpt>
      <trkpt lat="46.19502" lon="5.46732">
        <ele>325.6</ele>
        <time>2022-03-26T15:14:33Z</time>
      </trkpt>
      <trkpt lat="46.19518" lon="5.46713">
        <ele>324.8</ele>
        <time>2022-03-26T15:14:35Z</time>
      </trkpt>
      <trkpt lat="46.19527" lon="5.467">
        <ele>322.8</ele>
        <time>2022-03-26T15:14:36Z</time>
      </trkpt>
      <trkpt lat="46.19542" lon="5.46677">
        <ele>320.6</ele>
        <time>2022-03-26T15:14:38Z</time>
      </trkpt>
      <trkpt lat="46.19546" lon="5.46667">
        <ele>319.2</ele>
        <time>2022-03-26T15:14:39Z</time>
      </trkpt>
      <trkpt lat="46.19555" lon="5.46636">
        <ele>317</ele>
        <time>2022-03-26T15:14:41Z</time>
      </trkpt>
      <trkpt lat="46.19563" lon="5.46607">
        <ele>315.8</ele>
        <time>2022-03-26T15:14:43Z</time>
      </trkpt>
      <trkpt lat="46.19583" lon="5.4657">
        <ele>314.2</ele>
        <time>2022-03-26T15:14:46Z</time>
      </trkpt>
      <trkpt lat="46.19593" lon="5.46555">
        <ele>313.6</ele>
        <time>2022-03-26T15:14:47Z</time>
      </trkpt>
      <trkpt lat="46.19603" lon="5.46544">
        <ele>312.6</ele>
        <time>2022-03-26T15:14:48Z</time>
      </trkpt>
      <trkpt lat="46.19613" lon="5.46534">
        <ele>312.2</ele>
        <time>2022-03-26T15:14:49Z</time>
      </trkpt>
      <trkpt lat="46.19635" lon="5.4652">
        <ele>311</ele>
        <time>2022-03-26T15:14:51Z</time>
      </trkpt>
      <trkpt lat="46.19646" lon="5.46516">
        <ele>310.4</ele>
        <time>2022-03-26T15:14:52Z</time>
      </trkpt>
      <trkpt lat="46.19658" lon="5.46513">
        <ele>309.2</ele>
        <time>2022-03-26T15:14:53Z</time>
      </trkpt>
      <trkpt lat="46.19688" lon="5.46505">
        <ele>308.2</ele>
        <time>2022-03-26T15:14:56Z</time>
      </trkpt>
      <trkpt lat="46.19711" lon="5.46498">
        <ele>307.4</ele>
        <time>2022-03-26T15:14:58Z</time>
      </trkpt>
      <trkpt lat="46.1972" lon="5.46496">
        <ele>307</ele>
        <time>2022-03-26T15:14:59Z</time>
      </trkpt>
      <trkpt lat="46.19762" lon="5.46488">
        <ele>305.8</ele>
        <time>2022-03-26T15:15:03Z</time>
      </trkpt>
      <trkpt lat="46.1978" lon="5.46486">
        <ele>304.6</ele>
        <time>2022-03-26T15:15:05Z</time>
      </trkpt>
      <trkpt lat="46.19802" lon="5.46481">
        <ele>304</ele>
        <time>2022-03-26T15:15:07Z</time>
      </trkpt>
      <trkpt lat="46.19812" lon="5.4648">
        <ele>303</ele>
        <time>2022-03-26T15:15:08Z</time>
      </trkpt>
      <trkpt lat="46.19821" lon="5.46481">
        <ele>302.6</ele>
        <time>2022-03-26T15:15:09Z</time>
      </trkpt>
      <trkpt lat="46.1983" lon="5.46483">
        <ele>302</ele>
        <time>2022-03-26T15:15:10Z</time>
      </trkpt>
      <trkpt lat="46.19848" lon="5.4649">
        <ele>301.2</ele>
        <time>2022-03-26T15:15:12Z</time>
      </trkpt>
      <trkpt lat="46.19857" lon="5.46493">
        <ele>300.6</ele>
        <time>2022-03-26T15:15:13Z</time>
      </trkpt>
      <trkpt lat="46.19905" lon="5.4651">
        <ele>300.2</ele>
        <time>2022-03-26T15:15:19Z</time>
      </trkpt>
      <trkpt lat="46.19913" lon="5.46514">
        <ele>300</ele>
        <time>2022-03-26T15:15:20Z</time>
      </trkpt>
      <trkpt lat="46.19958" lon="5.4653">
        <ele>300.2</ele>
        <time>2022-03-26T15:15:26Z</time>
      </trkpt>
      <trkpt lat="46.19999" lon="5.46543">
        <ele>300</ele>
        <time>2022-03-26T15:15:32Z</time>
      </trkpt>
      <trkpt lat="46.20031" lon="5.4655">
        <ele>300.4</ele>
        <time>2022-03-26T15:15:37Z</time>
      </trkpt>
      <trkpt lat="46.20038" lon="5.46551">
        <ele>300.4</ele>
        <time>2022-03-26T15:15:38Z</time>
      </trkpt>
      <trkpt lat="46.20048" lon="5.46553">
        <ele>300.4</ele>
        <time>2022-03-26T15:15:40Z</time>
      </trkpt>
      <trkpt lat="46.20061" lon="5.46556">
        <ele>300.6</ele>
        <time>2022-03-26T15:15:42Z</time>
      </trkpt>
      <trkpt lat="46.20088" lon="5.46561">
        <ele>301.2</ele>
        <time>2022-03-26T15:15:47Z</time>
      </trkpt>
      <trkpt lat="46.20111" lon="5.46565">
        <ele>301.8</ele>
        <time>2022-03-26T15:15:51Z</time>
      </trkpt>
      <trkpt lat="46.20128" lon="5.46569">
        <ele>302.2</ele>
        <time>2022-03-26T15:15:54Z</time>
      </trkpt>
      <trkpt lat="46.20139" lon="5.46572">
        <ele>302.4</ele>
        <time>2022-03-26T15:15:56Z</time>
      </trkpt>
      <trkpt lat="46.2015" lon="5.46575">
        <ele>302.6</ele>
        <time>2022-03-26T15:15:58Z</time>
      </trkpt>
      <trkpt lat="46.20196" lon="5.46586">
        <ele>303.2</ele>
        <time>2022-03-26T15:16:06Z</time>
      </trkpt>
      <trkpt lat="46.20202" lon="5.46587">
        <ele>303.2</ele>
        <time>2022-03-26T15:16:07Z</time>
      </trkpt>
      <trkpt lat="46.20213" lon="5.46589">
        <ele>303.4</ele>
        <time>2022-03-26T15:16:09Z</time>
      </trkpt>
      <trkpt lat="46.20231" lon="5.46592">
        <ele>303.4</ele>
        <time>2022-03-26T15:16:12Z</time>
      </trkpt>
      <trkpt lat="46.20242" lon="5.46594">
        <ele>303.4</ele>
        <time>2022-03-26T15:16:14Z</time>
      </trkpt>
      <trkpt lat="46.20265" lon="5.466">
        <ele>303.4</ele>
        <time>2022-03-26T15:16:18Z</time>
      </trkpt>
      <trkpt lat="46.20314" lon="5.46614">
        <ele>303.8</ele>
        <time>2022-03-26T15:16:26Z</time>
      </trkpt>
      <trkpt lat="46.2032" lon="5.46615">
        <ele>304</ele>
        <time>2022-03-26T15:16:27Z</time>
      </trkpt>
      <trkpt lat="46.2035" lon="5.46614">
        <ele>304.2</ele>
        <time>2022-03-26T15:16:32Z</time>
      </trkpt>
      <trkpt lat="46.20368" lon="5.46613">
        <ele>304.2</ele>
        <time>2022-03-26T15:16:35Z</time>
      </trkpt>
      <trkpt lat="46.20374" lon="5.46612">
        <ele>304.4</ele>
        <time>2022-03-26T15:16:36Z</time>
      </trkpt>
      <trkpt lat="46.20386" lon="5.4661">
        <ele>304.6</ele>
        <time>2022-03-26T15:16:38Z</time>
      </trkpt>
      <trkpt lat="46.20427" lon="5.466">
        <ele>305.2</ele>
        <time>2022-03-26T15:16:45Z</time>
      </trkpt>
      <trkpt lat="46.20433" lon="5.46598">
        <ele>305.4</ele>
        <time>2022-03-26T15:16:46Z</time>
      </trkpt>
      <trkpt lat="46.2044" lon="5.46596">
        <ele>305.4</ele>
        <time>2022-03-26T15:16:47Z</time>
      </trkpt>
      <trkpt lat="46.2045" lon="5.46594">
        <ele>305.4</ele>
        <time>2022-03-26T15:16:49Z</time>
      </trkpt>
      <trkpt lat="46.20456" lon="5.46591">
        <ele>305.6</ele>
        <time>2022-03-26T15:16:50Z</time>
      </trkpt>
      <trkpt lat="46.20467" lon="5.46586">
        <ele>306</ele>
        <time>2022-03-26T15:16:52Z</time>
      </trkpt>
      <trkpt lat="46.20483" lon="5.46574">
        <ele>306.2</ele>
        <time>2022-03-26T15:16:55Z</time>
      </trkpt>
      <trkpt lat="46.20516" lon="5.46552">
        <ele>306.4</ele>
        <time>2022-03-26T15:17:01Z</time>
      </trkpt>
      <trkpt lat="46.20538" lon="5.46545">
        <ele>306.4</ele>
        <time>2022-03-26T15:17:05Z</time>
      </trkpt>
      <trkpt lat="46.20549" lon="5.4654">
        <ele>306.2</ele>
        <time>2022-03-26T15:17:07Z</time>
      </trkpt>
      <trkpt lat="46.20565" lon="5.46528">
        <ele>306</ele>
        <time>2022-03-26T15:17:10Z</time>
      </trkpt>
      <trkpt lat="46.20578" lon="5.46514">
        <ele>306.4</ele>
        <time>2022-03-26T15:17:13Z</time>
      </trkpt>
      <trkpt lat="46.20582" lon="5.46509">
        <ele>306.4</ele>
        <time>2022-03-26T15:17:14Z</time>
      </trkpt>
      <trkpt lat="46.20598" lon="5.46485">
        <ele>306.4</ele>
        <time>2022-03-26T15:17:18Z</time>
      </trkpt>
      <trkpt lat="46.20615" lon="5.46459">
        <ele>306.6</ele>
        <time>2022-03-26T15:17:22Z</time>
      </trkpt>
      <trkpt lat="46.20622" lon="5.46446">
        <ele>306.6</ele>
        <time>2022-03-26T15:17:24Z</time>
      </trkpt>
      <trkpt lat="46.2065" lon="5.46389">
        <ele>307.2</ele>
        <time>2022-03-26T15:17:32Z</time>
      </trkpt>
      <trkpt lat="46.20656" lon="5.46374">
        <ele>307.4</ele>
        <time>2022-03-26T15:17:34Z</time>
      </trkpt>
      <trkpt lat="46.20665" lon="5.46352">
        <ele>307.8</ele>
        <time>2022-03-26T15:17:37Z</time>
      </trkpt>
      <trkpt lat="46.20667" lon="5.46344">
        <ele>307.8</ele>
        <time>2022-03-26T15:17:38Z</time>
      </trkpt>
      <trkpt lat="46.20675" lon="5.46323">
        <ele>308</ele>
        <time>2022-03-26T15:17:41Z</time>
      </trkpt>
      <trkpt lat="46.20678" lon="5.46314">
        <ele>308</ele>
        <time>2022-03-26T15:17:42Z</time>
      </trkpt>
      <trkpt lat="46.20688" lon="5.46274">
        <ele>308.4</ele>
        <time>2022-03-26T15:17:47Z</time>
      </trkpt>
      <trkpt lat="46.2069" lon="5.46266">
        <ele>308.6</ele>
        <time>2022-03-26T15:17:48Z</time>
      </trkpt>
      <trkpt lat="46.20692" lon="5.46258">
        <ele>308.8</ele>
        <time>2022-03-26T15:17:49Z</time>
      </trkpt>
      <trkpt lat="46.20697" lon="5.46234">
        <ele>309.4</ele>
        <time>2022-03-26T15:17:52Z</time>
      </trkpt>
      <trkpt lat="46.20703" lon="5.4621">
        <ele>309.8</ele>
        <time>2022-03-26T15:17:55Z</time>
      </trkpt>
      <trkpt lat="46.20704" lon="5.46201">
        <ele>309.8</ele>
        <time>2022-03-26T15:17:56Z</time>
      </trkpt>
      <trkpt lat="46.2071" lon="5.46141">
        <ele>310.2</ele>
        <time>2022-03-26T15:18:03Z</time>
      </trkpt>
      <trkpt lat="46.20715" lon="5.46072">
        <ele>310.2</ele>
        <time>2022-03-26T15:18:11Z</time>
      </trkpt>
      <trkpt lat="46.20716" lon="5.46056">
        <ele>310.4</ele>
        <time>2022-03-26T15:18:13Z</time>
      </trkpt>
      <trkpt lat="46.20719" lon="5.46009">
        <ele>310.6</ele>
        <time>2022-03-26T15:18:19Z</time>
      </trkpt>
      <trkpt lat="46.20723" lon="5.45987">
        <ele>311</ele>
        <time>2022-03-26T15:18:22Z</time>
      </trkpt>
      <trkpt lat="46.20728" lon="5.45964">
        <ele>311.6</ele>
        <time>2022-03-26T15:18:25Z</time>
      </trkpt>
      <trkpt lat="46.20734" lon="5.45941">
        <ele>312.2</ele>
        <time>2022-03-26T15:18:28Z</time>
      </trkpt>
      <trkpt lat="46.20742" lon="5.45908">
        <ele>312.2</ele>
        <time>2022-03-26T15:18:32Z</time>
      </trkpt>
      <trkpt lat="46.20762" lon="5.4584">
        <ele>312.6</ele>
        <time>2022-03-26T15:18:41Z</time>
      </trkpt>
      <trkpt lat="46.2078" lon="5.45769">
        <ele>312.8</ele>
        <time>2022-03-26T15:18:50Z</time>
      </trkpt>
      <trkpt lat="46.20789" lon="5.45731">
        <ele>313.2</ele>
        <time>2022-03-26T15:18:55Z</time>
      </trkpt>
      <trkpt lat="46.20796" lon="5.45708">
        <ele>313.2</ele>
        <time>2022-03-26T15:18:58Z</time>
      </trkpt>
      <trkpt lat="46.20819" lon="5.45638">
        <ele>314</ele>
        <time>2022-03-26T15:19:07Z</time>
      </trkpt>
      <trkpt lat="46.20822" lon="5.4563">
        <ele>314</ele>
        <time>2022-03-26T15:19:08Z</time>
      </trkpt>
      <trkpt lat="46.20831" lon="5.45609">
        <ele>314</ele>
        <time>2022-03-26T15:19:11Z</time>
      </trkpt>
      <trkpt lat="46.20834" lon="5.45601">
        <ele>314</ele>
        <time>2022-03-26T15:19:12Z</time>
      </trkpt>
      <trkpt lat="46.20836" lon="5.45585">
        <ele>314.2</ele>
        <time>2022-03-26T15:19:14Z</time>
      </trkpt>
      <trkpt lat="46.20836" lon="5.45569">
        <ele>314.6</ele>
        <time>2022-03-26T15:19:16Z</time>
      </trkpt>
      <trkpt lat="46.20831" lon="5.45533">
        <ele>315.4</ele>
        <time>2022-03-26T15:19:21Z</time>
      </trkpt>
      <trkpt lat="46.2083" lon="5.4551">
        <ele>315.6</ele>
        <time>2022-03-26T15:19:24Z</time>
      </trkpt>
      <trkpt lat="46.20832" lon="5.45487">
        <ele>315.8</ele>
        <time>2022-03-26T15:19:27Z</time>
      </trkpt>
      <trkpt lat="46.20833" lon="5.4548">
        <ele>316</ele>
        <time>2022-03-26T15:19:28Z</time>
      </trkpt>
      <trkpt lat="46.20836" lon="5.45457">
        <ele>316.4</ele>
        <time>2022-03-26T15:19:31Z</time>
      </trkpt>
      <trkpt lat="46.2084" lon="5.45443">
        <ele>316.8</ele>
        <time>2022-03-26T15:19:33Z</time>
      </trkpt>
      <trkpt lat="46.2086" lon="5.4539">
        <ele>318</ele>
        <time>2022-03-26T15:19:41Z</time>
      </trkpt>
      <trkpt lat="46.20875" lon="5.45357">
        <ele>318.6</ele>
        <time>2022-03-26T15:19:46Z</time>
      </trkpt>
      <trkpt lat="46.20882" lon="5.45344">
        <ele>319.2</ele>
        <time>2022-03-26T15:19:48Z</time>
      </trkpt>
      <trkpt lat="46.2089" lon="5.45331">
        <ele>319.4</ele>
        <time>2022-03-26T15:19:50Z</time>
      </trkpt>
      <trkpt lat="46.2092" lon="5.45277">
        <ele>320.4</ele>
        <time>2022-03-26T15:19:58Z</time>
      </trkpt>
      <trkpt lat="46.20924" lon="5.4527">
        <ele>320.4</ele>
        <time>2022-03-26T15:19:59Z</time>
      </trkpt>
      <trkpt lat="46.20952" lon="5.45237">
        <ele>320.8</ele>
        <time>2022-03-26T15:20:05Z</time>
      </trkpt>
      <trkpt lat="46.20981" lon="5.45209">
        <ele>321.4</ele>
        <time>2022-03-26T15:20:11Z</time>
      </trkpt>
      <trkpt lat="46.20993" lon="5.452">
        <ele>321.8</ele>
        <time>2022-03-26T15:20:13Z</time>
      </trkpt>
      <trkpt lat="46.21048" lon="5.45168">
        <ele>322.2</ele>
        <time>2022-03-26T15:20:23Z</time>
      </trkpt>
      <trkpt lat="46.21071" lon="5.45161">
        <ele>322.8</ele>
        <time>2022-03-26T15:20:27Z</time>
      </trkpt>
      <trkpt lat="46.2109" lon="5.45158">
        <ele>322.8</ele>
        <time>2022-03-26T15:20:30Z</time>
      </trkpt>
      <trkpt lat="46.21138" lon="5.4515">
        <ele>323.2</ele>
        <time>2022-03-26T15:20:38Z</time>
      </trkpt>
      <trkpt lat="46.21163" lon="5.45151">
        <ele>323.8</ele>
        <time>2022-03-26T15:20:42Z</time>
      </trkpt>
      <trkpt lat="46.21203" lon="5.45155">
        <ele>324.2</ele>
        <time>2022-03-26T15:20:48Z</time>
      </trkpt>
      <trkpt lat="46.2126" lon="5.45161">
        <ele>324.4</ele>
        <time>2022-03-26T15:20:56Z</time>
      </trkpt>
      <trkpt lat="46.21272" lon="5.45163">
        <ele>324.4</ele>
        <time>2022-03-26T15:20:58Z</time>
      </trkpt>
      <trkpt lat="46.21328" lon="5.45169">
        <ele>324.2</ele>
        <time>2022-03-26T15:21:06Z</time>
      </trkpt>
      <trkpt lat="46.21347" lon="5.45172">
        <ele>324.4</ele>
        <time>2022-03-26T15:21:09Z</time>
      </trkpt>
      <trkpt lat="46.21399" lon="5.45185">
        <ele>324.8</ele>
        <time>2022-03-26T15:21:17Z</time>
      </trkpt>
      <trkpt lat="46.21451" lon="5.45209">
        <ele>325</ele>
        <time>2022-03-26T15:21:25Z</time>
      </trkpt>
      <trkpt lat="46.21473" lon="5.45225">
        <ele>324.8</ele>
        <time>2022-03-26T15:21:29Z</time>
      </trkpt>
      <trkpt lat="46.21478" lon="5.45225">
        <ele>324.8</ele>
        <time>2022-03-26T15:21:30Z</time>
      </trkpt>
      <trkpt lat="46.21481" lon="5.45218">
        <ele>324.6</ele>
        <time>2022-03-26T15:21:32Z</time>
      </trkpt>
      <trkpt lat="46.21469" lon="5.45206">
        <ele>324.4</ele>
        <time>2022-03-26T15:21:35Z</time>
      </trkpt>
      <trkpt lat="46.2145" lon="5.45193">
        <ele>324</ele>
        <time>2022-03-26T15:21:38Z</time>
      </trkpt>
      <trkpt lat="46.2142" lon="5.45173">
        <ele>323</ele>
        <time>2022-03-26T15:21:42Z</time>
      </trkpt>
      <trkpt lat="46.21395" lon="5.4516">
        <ele>321.8</ele>
        <time>2022-03-26T15:21:45Z</time>
      </trkpt>
      <trkpt lat="46.21356" lon="5.4515">
        <ele>320.6</ele>
        <time>2022-03-26T15:21:49Z</time>
      </trkpt>
      <trkpt lat="46.21337" lon="5.45147">
        <ele>319.8</ele>
        <time>2022-03-26T15:21:51Z</time>
      </trkpt>
      <trkpt lat="46.21332" lon="5.45146">
        <ele>319.4</ele>
        <time>2022-03-26T15:21:52Z</time>
      </trkpt>
      <trkpt lat="46.21326" lon="5.45144">
        <ele>318.8</ele>
        <time>2022-03-26T15:21:53Z</time>
      </trkpt>
      <trkpt lat="46.21324" lon="5.45138">
        <ele>318</ele>
        <time>2022-03-26T15:21:54Z</time>
      </trkpt>
      <trkpt lat="46.21331" lon="5.45125">
        <ele>317.2</ele>
        <time>2022-03-26T15:21:56Z</time>
      </trkpt>
      <trkpt lat="46.21337" lon="5.45122">
        <ele>317</ele>
        <time>2022-03-26T15:21:57Z</time>
      </trkpt>
      <trkpt lat="46.21344" lon="5.45122">
        <ele>316.4</ele>
        <time>2022-03-26T15:21:58Z</time>
      </trkpt>
      <trkpt lat="46.21352" lon="5.45122">
        <ele>315.8</ele>
        <time>2022-03-26T15:21:59Z</time>
      </trkpt>
      <trkpt lat="46.2137" lon="5.45123">
        <ele>314.6</ele>
        <time>2022-03-26T15:22:01Z</time>
      </trkpt>
      <trkpt lat="46.21386" lon="5.45125">
        <ele>313</ele>
        <time>2022-03-26T15:22:03Z</time>
      </trkpt>
      <trkpt lat="46.21395" lon="5.45127">
        <ele>312.6</ele>
        <time>2022-03-26T15:22:04Z</time>
      </trkpt>
      <trkpt lat="46.21415" lon="5.45132">
        <ele>311.4</ele>
        <time>2022-03-26T15:22:06Z</time>
      </trkpt>
      <trkpt lat="46.21432" lon="5.45138">
        <ele>310.4</ele>
        <time>2022-03-26T15:22:08Z</time>
      </trkpt>
      <trkpt lat="46.21442" lon="5.45143">
        <ele>310.2</ele>
        <time>2022-03-26T15:22:09Z</time>
      </trkpt>
      <trkpt lat="46.21462" lon="5.45155">
        <ele>308.8</ele>
        <time>2022-03-26T15:22:11Z</time>
      </trkpt>
      <trkpt lat="46.2148" lon="5.45166">
        <ele>307</ele>
        <time>2022-03-26T15:22:13Z</time>
      </trkpt>
      <trkpt lat="46.21496" lon="5.45179">
        <ele>305.2</ele>
        <time>2022-03-26T15:22:15Z</time>
      </trkpt>
      <trkpt lat="46.21517" lon="5.45185">
        <ele>304.2</ele>
        <time>2022-03-26T15:22:17Z</time>
      </trkpt>
      <trkpt lat="46.21523" lon="5.45182">
        <ele>303.4</ele>
        <time>2022-03-26T15:22:18Z</time>
      </trkpt>
      <trkpt lat="46.21528" lon="5.45177">
        <ele>302.4</ele>
        <time>2022-03-26T15:22:19Z</time>
      </trkpt>
      <trkpt lat="46.21533" lon="5.45169">
        <ele>302</ele>
        <time>2022-03-26T15:22:20Z</time>
      </trkpt>
      <trkpt lat="46.21543" lon="5.45152">
        <ele>301.6</ele>
        <time>2022-03-26T15:22:22Z</time>
      </trkpt>
      <trkpt lat="46.21553" lon="5.45134">
        <ele>301.4</ele>
        <time>2022-03-26T15:22:24Z</time>
      </trkpt>
      <trkpt lat="46.21583" lon="5.45079">
        <ele>301.6</ele>
        <time>2022-03-26T15:22:30Z</time>
      </trkpt>
      <trkpt lat="46.21595" lon="5.45053">
        <ele>301.6</ele>
        <time>2022-03-26T15:22:33Z</time>
      </trkpt>
      <trkpt lat="46.21597" lon="5.45034">
        <ele>301.4</ele>
        <time>2022-03-26T15:22:35Z</time>
      </trkpt>
      <trkpt lat="46.2159" lon="5.45015">
        <ele>301.2</ele>
        <time>2022-03-26T15:22:37Z</time>
      </trkpt>
      <trkpt lat="46.21583" lon="5.45005">
        <ele>301</ele>
        <time>2022-03-26T15:22:38Z</time>
      </trkpt>
      <trkpt lat="46.21576" lon="5.44998">
        <ele>300.8</ele>
        <time>2022-03-26T15:22:39Z</time>
      </trkpt>
      <trkpt lat="46.2156" lon="5.44984">
        <ele>300.6</ele>
        <time>2022-03-26T15:22:41Z</time>
      </trkpt>
      <trkpt lat="46.21543" lon="5.44966">
        <ele>299</ele>
        <time>2022-03-26T15:22:43Z</time>
      </trkpt>
      <trkpt lat="46.2152" lon="5.44937">
        <ele>298</ele>
        <time>2022-03-26T15:22:46Z</time>
      </trkpt>
      <trkpt lat="46.21512" lon="5.44928">
        <ele>297.6</ele>
        <time>2022-03-26T15:22:47Z</time>
      </trkpt>
      <trkpt lat="46.21478" lon="5.44898">
        <ele>296.8</ele>
        <time>2022-03-26T15:22:51Z</time>
      </trkpt>
      <trkpt lat="46.2147" lon="5.44892">
        <ele>296.6</ele>
        <time>2022-03-26T15:22:52Z</time>
      </trkpt>
      <trkpt lat="46.2145" lon="5.44881">
        <ele>296.6</ele>
        <time>2022-03-26T15:22:54Z</time>
      </trkpt>
      <trkpt lat="46.21434" lon="5.44876">
        <ele>296.4</ele>
        <time>2022-03-26T15:22:56Z</time>
      </trkpt>
      <trkpt lat="46.21399" lon="5.44863">
        <ele>296.2</ele>
        <time>2022-03-26T15:23:00Z</time>
      </trkpt>
      <trkpt lat="46.21349" lon="5.44844">
        <ele>295.8</ele>
        <time>2022-03-26T15:23:06Z</time>
      </trkpt>
      <trkpt lat="46.21293" lon="5.44824">
        <ele>295.8</ele>
        <time>2022-03-26T15:23:13Z</time>
      </trkpt>
      <trkpt lat="46.21285" lon="5.44822">
        <ele>295.8</ele>
        <time>2022-03-26T15:23:14Z</time>
      </trkpt>
      <trkpt lat="46.21262" lon="5.4482">
        <ele>295.4</ele>
        <time>2022-03-26T15:23:17Z</time>
      </trkpt>
      <trkpt lat="46.21252" lon="5.44818">
        <ele>295.4</ele>
        <time>2022-03-26T15:23:18Z</time>
      </trkpt>
      <trkpt lat="46.2123" lon="5.44816">
        <ele>295.2</ele>
        <time>2022-03-26T15:23:21Z</time>
      </trkpt>
      <trkpt lat="46.21199" lon="5.44811">
        <ele>295</ele>
        <time>2022-03-26T15:23:25Z</time>
      </trkpt>
      <trkpt lat="46.21151" lon="5.44804">
        <ele>294.2</ele>
        <time>2022-03-26T15:23:31Z</time>
      </trkpt>
      <trkpt lat="46.21096" lon="5.44806">
        <ele>294.2</ele>
        <time>2022-03-26T15:23:38Z</time>
      </trkpt>
      <trkpt lat="46.21048" lon="5.44814">
        <ele>294.8</ele>
        <time>2022-03-26T15:23:45Z</time>
      </trkpt>
      <trkpt lat="46.21028" lon="5.44819">
        <ele>295.6</ele>
        <time>2022-03-26T15:23:48Z</time>
      </trkpt>
      <trkpt lat="46.21007" lon="5.44825">
        <ele>296.2</ele>
        <time>2022-03-26T15:23:52Z</time>
      </trkpt>
      <trkpt lat="46.21001" lon="5.44827">
        <ele>296.2</ele>
        <time>2022-03-26T15:23:53Z</time>
      </trkpt>
      <trkpt lat="46.20988" lon="5.44832">
        <ele>296.6</ele>
        <time>2022-03-26T15:23:56Z</time>
      </trkpt>
      <trkpt lat="46.20984" lon="5.44832">
        <ele>296.8</ele>
        <time>2022-03-26T15:23:57Z</time>
      </trkpt>
      <trkpt lat="46.20978" lon="5.44833">
        <ele>297</ele>
        <time>2022-03-26T15:23:58Z</time>
      </trkpt>
      <trkpt lat="46.20963" lon="5.44837">
        <ele>298</ele>
        <time>2022-03-26T15:24:02Z</time>
      </trkpt>
      <trkpt lat="46.20955" lon="5.4484">
        <ele>298.2</ele>
        <time>2022-03-26T15:24:04Z</time>
      </trkpt>
      <trkpt lat="46.20949" lon="5.44841">
        <ele>299.2</ele>
        <time>2022-03-26T15:24:06Z</time>
      </trkpt>
      <trkpt lat="46.20941" lon="5.44845">
        <ele>299.6</ele>
        <time>2022-03-26T15:24:08Z</time>
      </trkpt>
      <trkpt lat="46.20935" lon="5.44848">
        <ele>300.2</ele>
        <time>2022-03-26T15:24:10Z</time>
      </trkpt>
      <trkpt lat="46.20922" lon="5.44855">
        <ele>301</ele>
        <time>2022-03-26T15:24:13Z</time>
      </trkpt>
      <trkpt lat="46.20916" lon="5.44857">
        <ele>301.8</ele>
        <time>2022-03-26T15:24:15Z</time>
      </trkpt>
      <trkpt lat="46.2091" lon="5.4486">
        <ele>302.6</ele>
        <time>2022-03-26T15:24:17Z</time>
      </trkpt>
      <trkpt lat="46.20907" lon="5.44861">
        <ele>302.8</ele>
        <time>2022-03-26T15:24:18Z</time>
      </trkpt>
      <trkpt lat="46.20898" lon="5.44863">
        <ele>303.4</ele>
        <time>2022-03-26T15:24:21Z</time>
      </trkpt>
      <trkpt lat="46.2089" lon="5.44869">
        <ele>304</ele>
        <time>2022-03-26T15:24:24Z</time>
      </trkpt>
      <trkpt lat="46.20887" lon="5.44872">
        <ele>304.4</ele>
        <time>2022-03-26T15:24:25Z</time>
      </trkpt>
      <trkpt lat="46.20875" lon="5.44881">
        <ele>305.2</ele>
        <time>2022-03-26T15:24:28Z</time>
      </trkpt>
      <trkpt lat="46.20867" lon="5.44887">
        <ele>305.6</ele>
        <time>2022-03-26T15:24:30Z</time>
      </trkpt>
      <trkpt lat="46.2086" lon="5.44894">
        <ele>305.6</ele>
        <time>2022-03-26T15:24:31Z</time>
      </trkpt>
      <trkpt lat="46.20853" lon="5.449">
        <ele>306.2</ele>
        <time>2022-03-26T15:24:34Z</time>
      </trkpt>
      <trkpt lat="46.20844" lon="5.44902">
        <ele>307</ele>
        <time>2022-03-26T15:24:37Z</time>
      </trkpt>
      <trkpt lat="46.20839" lon="5.44906">
        <ele>307.4</ele>
        <time>2022-03-26T15:24:40Z</time>
      </trkpt>
      <trkpt lat="46.20837" lon="5.44908">
        <ele>307.6</ele>
        <time>2022-03-26T15:24:41Z</time>
      </trkpt>
      <trkpt lat="46.20826" lon="5.44919">
        <ele>308.6</ele>
        <time>2022-03-26T15:24:46Z</time>
      </trkpt>
      <trkpt lat="46.20821" lon="5.44924">
        <ele>308.8</ele>
        <time>2022-03-26T15:24:48Z</time>
      </trkpt>
      <trkpt lat="46.20814" lon="5.4493">
        <ele>309.6</ele>
        <time>2022-03-26T15:24:51Z</time>
      </trkpt>
      <trkpt lat="46.20807" lon="5.44936">
        <ele>310</ele>
        <time>2022-03-26T15:24:54Z</time>
      </trkpt>
      <trkpt lat="46.20796" lon="5.44946">
        <ele>311.2</ele>
        <time>2022-03-26T15:24:58Z</time>
      </trkpt>
      <trkpt lat="46.20794" lon="5.44949">
        <ele>311.4</ele>
        <time>2022-03-26T15:24:59Z</time>
      </trkpt>
      <trkpt lat="46.20777" lon="5.44967">
        <ele>312.4</ele>
        <time>2022-03-26T15:25:05Z</time>
      </trkpt>
      <trkpt lat="46.20771" lon="5.44973">
        <ele>313.2</ele>
        <time>2022-03-26T15:25:07Z</time>
      </trkpt>
      <trkpt lat="46.20766" lon="5.44979">
        <ele>313.8</ele>
        <time>2022-03-26T15:25:09Z</time>
      </trkpt>
      <trkpt lat="46.20753" lon="5.44993">
        <ele>315</ele>
        <time>2022-03-26T15:25:14Z</time>
      </trkpt>
      <trkpt lat="46.2075" lon="5.44995">
        <ele>315.2</ele>
        <time>2022-03-26T15:25:15Z</time>
      </trkpt>
      <trkpt lat="46.20735" lon="5.45007">
        <ele>316.4</ele>
        <time>2022-03-26T15:25:20Z</time>
      </trkpt>
      <trkpt lat="46.20723" lon="5.45017">
        <ele>316.8</ele>
        <time>2022-03-26T15:25:24Z</time>
      </trkpt>
      <trkpt lat="46.20721" lon="5.45019">
        <ele>317.2</ele>
        <time>2022-03-26T15:25:25Z</time>
      </trkpt>
      <trkpt lat="46.20719" lon="5.45021">
        <ele>317.4</ele>
        <time>2022-03-26T15:25:26Z</time>
      </trkpt>
      <trkpt lat="46.20711" lon="5.45028">
        <ele>318</ele>
        <time>2022-03-26T15:25:29Z</time>
      </trkpt>
      <trkpt lat="46.20708" lon="5.4503">
        <ele>318.4</ele>
        <time>2022-03-26T15:25:30Z</time>
      </trkpt>
      <trkpt lat="46.2069" lon="5.4505">
        <ele>319.6</ele>
        <time>2022-03-26T15:25:37Z</time>
      </trkpt>
      <trkpt lat="46.20685" lon="5.45058">
        <ele>319.8</ele>
        <time>2022-03-26T15:25:39Z</time>
      </trkpt>
      <trkpt lat="46.20676" lon="5.45073">
        <ele>320.6</ele>
        <time>2022-03-26T15:25:43Z</time>
      </trkpt>
      <trkpt lat="46.20666" lon="5.45093">
        <ele>321.6</ele>
        <time>2022-03-26T15:25:47Z</time>
      </trkpt>
      <trkpt lat="46.20664" lon="5.45097">
        <ele>321.8</ele>
        <time>2022-03-26T15:25:48Z</time>
      </trkpt>
      <trkpt lat="46.20653" lon="5.45123">
        <ele>323</ele>
        <time>2022-03-26T15:25:54Z</time>
      </trkpt>
      <trkpt lat="46.20651" lon="5.45128">
        <ele>323.2</ele>
        <time>2022-03-26T15:25:55Z</time>
      </trkpt>
      <trkpt lat="46.20645" lon="5.45152">
        <ele>324.2</ele>
        <time>2022-03-26T15:26:00Z</time>
      </trkpt>
      <trkpt lat="46.20643" lon="5.45157">
        <ele>324.2</ele>
        <time>2022-03-26T15:26:01Z</time>
      </trkpt>
      <trkpt lat="46.20637" lon="5.45175">
        <ele>325.2</ele>
        <time>2022-03-26T15:26:05Z</time>
      </trkpt>
      <trkpt lat="46.20631" lon="5.45193">
        <ele>326</ele>
        <time>2022-03-26T15:26:09Z</time>
      </trkpt>
      <trkpt lat="46.20628" lon="5.45202">
        <ele>326.6</ele>
        <time>2022-03-26T15:26:11Z</time>
      </trkpt>
      <trkpt lat="46.20619" lon="5.45227">
        <ele>327.6</ele>
        <time>2022-03-26T15:26:17Z</time>
      </trkpt>
      <trkpt lat="46.20618" lon="5.45231">
        <ele>327.8</ele>
        <time>2022-03-26T15:26:18Z</time>
      </trkpt>
      <trkpt lat="46.20609" lon="5.45253">
        <ele>328.8</ele>
        <time>2022-03-26T15:26:23Z</time>
      </trkpt>
      <trkpt lat="46.20606" lon="5.4526">
        <ele>329.4</ele>
        <time>2022-03-26T15:26:25Z</time>
      </trkpt>
      <trkpt lat="46.206" lon="5.45272">
        <ele>330</ele>
        <time>2022-03-26T15:26:28Z</time>
      </trkpt>
      <trkpt lat="46.20586" lon="5.45292">
        <ele>331.2</ele>
        <time>2022-03-26T15:26:34Z</time>
      </trkpt>
      <trkpt lat="46.20584" lon="5.45295">
        <ele>331.4</ele>
        <time>2022-03-26T15:26:35Z</time>
      </trkpt>
      <trkpt lat="46.20568" lon="5.45308">
        <ele>332.4</ele>
        <time>2022-03-26T15:26:40Z</time>
      </trkpt>
      <trkpt lat="46.20565" lon="5.45309">
        <ele>332.6</ele>
        <time>2022-03-26T15:26:41Z</time>
      </trkpt>
      <trkpt lat="46.20548" lon="5.45304">
        <ele>333.6</ele>
        <time>2022-03-26T15:26:46Z</time>
      </trkpt>
      <trkpt lat="46.20536" lon="5.45291">
        <ele>334.8</ele>
        <time>2022-03-26T15:26:50Z</time>
      </trkpt>
      <trkpt lat="46.20531" lon="5.45282">
        <ele>335</ele>
        <time>2022-03-26T15:26:52Z</time>
      </trkpt>
      <trkpt lat="46.2052" lon="5.45261">
        <ele>335.8</ele>
        <time>2022-03-26T15:26:57Z</time>
      </trkpt>
      <trkpt lat="46.20515" lon="5.45249">
        <ele>336.8</ele>
        <time>2022-03-26T15:27:00Z</time>
      </trkpt>
      <trkpt lat="46.20514" lon="5.45244">
        <ele>336.8</ele>
        <time>2022-03-26T15:27:01Z</time>
      </trkpt>
      <trkpt lat="46.20504" lon="5.45204">
        <ele>337.4</ele>
        <time>2022-03-26T15:27:08Z</time>
      </trkpt>
      <trkpt lat="46.20496" lon="5.45142">
        <ele>337.2</ele>
        <time>2022-03-26T15:27:17Z</time>
      </trkpt>
      <trkpt lat="46.20497" lon="5.45101">
        <ele>337.8</ele>
        <time>2022-03-26T15:27:23Z</time>
      </trkpt>
      <trkpt lat="46.20499" lon="5.45053">
        <ele>339</ele>
        <time>2022-03-26T15:27:30Z</time>
      </trkpt>
      <trkpt lat="46.205" lon="5.45047">
        <ele>339.2</ele>
        <time>2022-03-26T15:27:31Z</time>
      </trkpt>
      <trkpt lat="46.20503" lon="5.44999">
        <ele>340</ele>
        <time>2022-03-26T15:27:38Z</time>
      </trkpt>
      <trkpt lat="46.20505" lon="5.44984">
        <ele>340.2</ele>
        <time>2022-03-26T15:27:40Z</time>
      </trkpt>
      <trkpt lat="46.20511" lon="5.44927">
        <ele>340.8</ele>
        <time>2022-03-26T15:27:48Z</time>
      </trkpt>
      <trkpt lat="46.20513" lon="5.44903">
        <ele>341.2</ele>
        <time>2022-03-26T15:27:51Z</time>
      </trkpt>
      <trkpt lat="46.20515" lon="5.44879">
        <ele>341</ele>
        <time>2022-03-26T15:27:54Z</time>
      </trkpt>
      <trkpt lat="46.20519" lon="5.44854">
        <ele>341.2</ele>
        <time>2022-03-26T15:27:57Z</time>
      </trkpt>
      <trkpt lat="46.20524" lon="5.44819">
        <ele>341.4</ele>
        <time>2022-03-26T15:28:01Z</time>
      </trkpt>
      <trkpt lat="46.20537" lon="5.4474">
        <ele>341</ele>
        <time>2022-03-26T15:28:11Z</time>
      </trkpt>
      <trkpt lat="46.20552" lon="5.44669">
        <ele>341</ele>
        <time>2022-03-26T15:28:20Z</time>
      </trkpt>
      <trkpt lat="46.20552" lon="5.44653">
        <ele>341.2</ele>
        <time>2022-03-26T15:28:22Z</time>
      </trkpt>
      <trkpt lat="46.20549" lon="5.44633">
        <ele>341.2</ele>
        <time>2022-03-26T15:28:24Z</time>
      </trkpt>
      <trkpt lat="46.20541" lon="5.44619">
        <ele>341.2</ele>
        <time>2022-03-26T15:28:26Z</time>
      </trkpt>
      <trkpt lat="46.20533" lon="5.44608">
        <ele>341.2</ele>
        <time>2022-03-26T15:28:28Z</time>
      </trkpt>
      <trkpt lat="46.20513" lon="5.44576">
        <ele>341.2</ele>
        <time>2022-03-26T15:28:33Z</time>
      </trkpt>
      <trkpt lat="46.20505" lon="5.4456">
        <ele>341.2</ele>
        <time>2022-03-26T15:28:35Z</time>
      </trkpt>
      <trkpt lat="46.20496" lon="5.4454">
        <ele>341</ele>
        <time>2022-03-26T15:28:38Z</time>
      </trkpt>
      <trkpt lat="46.20497" lon="5.44525">
        <ele>341</ele>
        <time>2022-03-26T15:28:40Z</time>
      </trkpt>
      <trkpt lat="46.205" lon="5.44521">
        <ele>341</ele>
        <time>2022-03-26T15:28:41Z</time>
      </trkpt>
      <trkpt lat="46.2051" lon="5.4452">
        <ele>340.8</ele>
        <time>2022-03-26T15:28:43Z</time>
      </trkpt>
      <trkpt lat="46.20528" lon="5.44516">
        <ele>340.4</ele>
        <time>2022-03-26T15:28:46Z</time>
      </trkpt>
      <trkpt lat="46.20547" lon="5.44511">
        <ele>340.2</ele>
        <time>2022-03-26T15:28:49Z</time>
      </trkpt>
      <trkpt lat="46.20602" lon="5.44495">
        <ele>340.8</ele>
        <time>2022-03-26T15:28:58Z</time>
      </trkpt>
      <trkpt lat="46.20625" lon="5.44491">
        <ele>341.4</ele>
        <time>2022-03-26T15:29:02Z</time>
      </trkpt>
      <trkpt lat="46.20633" lon="5.44492">
        <ele>341.8</ele>
        <time>2022-03-26T15:29:04Z</time>
      </trkpt>
      <trkpt lat="46.2065" lon="5.44492">
        <ele>342.8</ele>
        <time>2022-03-26T15:29:08Z</time>
      </trkpt>
      <trkpt lat="46.20657" lon="5.44492">
        <ele>343.4</ele>
        <time>2022-03-26T15:29:10Z</time>
      </trkpt>
      <trkpt lat="46.20677" lon="5.44489">
        <ele>344</ele>
        <time>2022-03-26T15:29:15Z</time>
      </trkpt>
      <trkpt lat="46.20683" lon="5.44487">
        <ele>344.2</ele>
        <time>2022-03-26T15:29:17Z</time>
      </trkpt>
      <trkpt lat="46.20696" lon="5.44482">
        <ele>345</ele>
        <time>2022-03-26T15:29:20Z</time>
      </trkpt>
      <trkpt lat="46.2071" lon="5.44475">
        <ele>346.2</ele>
        <time>2022-03-26T15:29:24Z</time>
      </trkpt>
      <trkpt lat="46.20714" lon="5.44472">
        <ele>346.4</ele>
        <time>2022-03-26T15:29:25Z</time>
      </trkpt>
      <trkpt lat="46.20723" lon="5.44466">
        <ele>347.2</ele>
        <time>2022-03-26T15:29:28Z</time>
      </trkpt>
      <trkpt lat="46.20736" lon="5.44456">
        <ele>348.2</ele>
        <time>2022-03-26T15:29:32Z</time>
      </trkpt>
      <trkpt lat="46.20746" lon="5.44448">
        <ele>349</ele>
        <time>2022-03-26T15:29:35Z</time>
      </trkpt>
      <trkpt lat="46.20752" lon="5.44443">
        <ele>349.6</ele>
        <time>2022-03-26T15:29:37Z</time>
      </trkpt>
      <trkpt lat="46.20773" lon="5.44428">
        <ele>350.6</ele>
        <time>2022-03-26T15:29:43Z</time>
      </trkpt>
      <trkpt lat="46.20776" lon="5.44426">
        <ele>350.8</ele>
        <time>2022-03-26T15:29:44Z</time>
      </trkpt>
      <trkpt lat="46.208" lon="5.44416">
        <ele>352</ele>
        <time>2022-03-26T15:29:51Z</time>
      </trkpt>
      <trkpt lat="46.20813" lon="5.44415">
        <ele>353.2</ele>
        <time>2022-03-26T15:29:55Z</time>
      </trkpt>
      <trkpt lat="46.20834" lon="5.44413">
        <ele>354.4</ele>
        <time>2022-03-26T15:30:01Z</time>
      </trkpt>
      <trkpt lat="46.20858" lon="5.44411">
        <ele>355.6</ele>
        <time>2022-03-26T15:30:08Z</time>
      </trkpt>
      <trkpt lat="46.20868" lon="5.44409">
        <ele>356.2</ele>
        <time>2022-03-26T15:30:11Z</time>
      </trkpt>
      <trkpt lat="46.20877" lon="5.44407">
        <ele>356.8</ele>
        <time>2022-03-26T15:30:14Z</time>
      </trkpt>
      <trkpt lat="46.20894" lon="5.44404">
        <ele>357.8</ele>
        <time>2022-03-26T15:30:19Z</time>
      </trkpt>
      <trkpt lat="46.20897" lon="5.44403">
        <ele>358</ele>
        <time>2022-03-26T15:30:20Z</time>
      </trkpt>
      <trkpt lat="46.2091" lon="5.44398">
        <ele>359.2</ele>
        <time>2022-03-26T15:30:24Z</time>
      </trkpt>
      <trkpt lat="46.20919" lon="5.44392">
        <ele>359.8</ele>
        <time>2022-03-26T15:30:27Z</time>
      </trkpt>
      <trkpt lat="46.20928" lon="5.44384">
        <ele>360.2</ele>
        <time>2022-03-26T15:30:30Z</time>
      </trkpt>
      <trkpt lat="46.20939" lon="5.44374">
        <ele>361</ele>
        <time>2022-03-26T15:30:34Z</time>
      </trkpt>
      <trkpt lat="46.20943" lon="5.44372">
        <ele>361.2</ele>
        <time>2022-03-26T15:30:35Z</time>
      </trkpt>
      <trkpt lat="46.20962" lon="5.44371">
        <ele>362</ele>
        <time>2022-03-26T15:30:40Z</time>
      </trkpt>
      <trkpt lat="46.20974" lon="5.44375">
        <ele>362.4</ele>
        <time>2022-03-26T15:30:44Z</time>
      </trkpt>
      <trkpt lat="46.2098" lon="5.44379">
        <ele>362.8</ele>
        <time>2022-03-26T15:30:46Z</time>
      </trkpt>
      <trkpt lat="46.20989" lon="5.44385">
        <ele>363.4</ele>
        <time>2022-03-26T15:30:49Z</time>
      </trkpt>
      <trkpt lat="46.21006" lon="5.44395">
        <ele>364.6</ele>
        <time>2022-03-26T15:30:55Z</time>
      </trkpt>
      <trkpt lat="46.21025" lon="5.44408">
        <ele>365.8</ele>
        <time>2022-03-26T15:31:01Z</time>
      </trkpt>
      <trkpt lat="46.21027" lon="5.44409">
        <ele>366</ele>
        <time>2022-03-26T15:31:02Z</time>
      </trkpt>
      <trkpt lat="46.21042" lon="5.44418">
        <ele>367</ele>
        <time>2022-03-26T15:31:07Z</time>
      </trkpt>
      <trkpt lat="46.21055" lon="5.44426">
        <ele>368</ele>
        <time>2022-03-26T15:31:11Z</time>
      </trkpt>
      <trkpt lat="46.21059" lon="5.44428">
        <ele>368.2</ele>
        <time>2022-03-26T15:31:12Z</time>
      </trkpt>
      <trkpt lat="46.21075" lon="5.44439">
        <ele>369</ele>
        <time>2022-03-26T15:31:17Z</time>
      </trkpt>
      <trkpt lat="46.2109" lon="5.4445">
        <ele>369.6</ele>
        <time>2022-03-26T15:31:22Z</time>
      </trkpt>
      <trkpt lat="46.21099" lon="5.44455">
        <ele>370</ele>
        <time>2022-03-26T15:31:25Z</time>
      </trkpt>
      <trkpt lat="46.21111" lon="5.44464">
        <ele>370.6</ele>
        <time>2022-03-26T15:31:29Z</time>
      </trkpt>
      <trkpt lat="46.21131" lon="5.44479">
        <ele>371.2</ele>
        <time>2022-03-26T15:31:35Z</time>
      </trkpt>
      <trkpt lat="46.21141" lon="5.44485">
        <ele>371.6</ele>
        <time>2022-03-26T15:31:38Z</time>
      </trkpt>
      <trkpt lat="46.21151" lon="5.4449">
        <ele>372.4</ele>
        <time>2022-03-26T15:31:41Z</time>
      </trkpt>
      <trkpt lat="46.21164" lon="5.44499">
        <ele>373.6</ele>
        <time>2022-03-26T15:31:45Z</time>
      </trkpt>
      <trkpt lat="46.21185" lon="5.44515">
        <ele>375</ele>
        <time>2022-03-26T15:31:51Z</time>
      </trkpt>
      <trkpt lat="46.21188" lon="5.44517">
        <ele>375.2</ele>
        <time>2022-03-26T15:31:52Z</time>
      </trkpt>
      <trkpt lat="46.21197" lon="5.44523">
        <ele>376</ele>
        <time>2022-03-26T15:31:55Z</time>
      </trkpt>
      <trkpt lat="46.21209" lon="5.4453">
        <ele>377</ele>
        <time>2022-03-26T15:31:59Z</time>
      </trkpt>
      <trkpt lat="46.21232" lon="5.44545">
        <ele>378.2</ele>
        <time>2022-03-26T15:32:07Z</time>
      </trkpt>
      <trkpt lat="46.21247" lon="5.44555">
        <ele>379.2</ele>
        <time>2022-03-26T15:32:12Z</time>
      </trkpt>
      <trkpt lat="46.21269" lon="5.44567">
        <ele>380.2</ele>
        <time>2022-03-26T15:32:19Z</time>
      </trkpt>
      <trkpt lat="46.21272" lon="5.44569">
        <ele>380.6</ele>
        <time>2022-03-26T15:32:20Z</time>
      </trkpt>
      <trkpt lat="46.21285" lon="5.44575">
        <ele>381.4</ele>
        <time>2022-03-26T15:32:24Z</time>
      </trkpt>
      <trkpt lat="46.21296" lon="5.44582">
        <ele>382</ele>
        <time>2022-03-26T15:32:28Z</time>
      </trkpt>
      <trkpt lat="46.21305" lon="5.44588">
        <ele>382.6</ele>
        <time>2022-03-26T15:32:31Z</time>
      </trkpt>
      <trkpt lat="46.2132" lon="5.44598">
        <ele>383.8</ele>
        <time>2022-03-26T15:32:36Z</time>
      </trkpt>
      <trkpt lat="46.21327" lon="5.44603">
        <ele>384</ele>
        <time>2022-03-26T15:32:38Z</time>
      </trkpt>
      <trkpt lat="46.21347" lon="5.44618">
        <ele>385</ele>
        <time>2022-03-26T15:32:45Z</time>
      </trkpt>
      <trkpt lat="46.21353" lon="5.44623">
        <ele>385.4</ele>
        <time>2022-03-26T15:32:47Z</time>
      </trkpt>
      <trkpt lat="46.21359" lon="5.44627">
        <ele>385.6</ele>
        <time>2022-03-26T15:32:49Z</time>
      </trkpt>
      <trkpt lat="46.21368" lon="5.44635">
        <ele>386.2</ele>
        <time>2022-03-26T15:32:52Z</time>
      </trkpt>
      <trkpt lat="46.21378" lon="5.44643">
        <ele>386.6</ele>
        <time>2022-03-26T15:32:55Z</time>
      </trkpt>
      <trkpt lat="46.21384" lon="5.44648">
        <ele>387.2</ele>
        <time>2022-03-26T15:32:57Z</time>
      </trkpt>
      <trkpt lat="46.21404" lon="5.44663">
        <ele>388.2</ele>
        <time>2022-03-26T15:33:03Z</time>
      </trkpt>
      <trkpt lat="46.21407" lon="5.44665">
        <ele>388.4</ele>
        <time>2022-03-26T15:33:04Z</time>
      </trkpt>
      <trkpt lat="46.21422" lon="5.44677">
        <ele>389.4</ele>
        <time>2022-03-26T15:33:09Z</time>
      </trkpt>
      <trkpt lat="46.21426" lon="5.44678">
        <ele>389.8</ele>
        <time>2022-03-26T15:33:10Z</time>
      </trkpt>
      <trkpt lat="46.21443" lon="5.44688">
        <ele>390.6</ele>
        <time>2022-03-26T15:33:15Z</time>
      </trkpt>
      <trkpt lat="46.2146" lon="5.44698">
        <ele>391.2</ele>
        <time>2022-03-26T15:33:20Z</time>
      </trkpt>
      <trkpt lat="46.21475" lon="5.44705">
        <ele>391.8</ele>
        <time>2022-03-26T15:33:24Z</time>
      </trkpt>
      <trkpt lat="46.21489" lon="5.44713">
        <ele>392.4</ele>
        <time>2022-03-26T15:33:28Z</time>
      </trkpt>
      <trkpt lat="46.21496" lon="5.44717">
        <ele>392.8</ele>
        <time>2022-03-26T15:33:30Z</time>
      </trkpt>
      <trkpt lat="46.2151" lon="5.44726">
        <ele>394</ele>
        <time>2022-03-26T15:33:34Z</time>
      </trkpt>
      <trkpt lat="46.21514" lon="5.44726">
        <ele>394.2</ele>
        <time>2022-03-26T15:33:35Z</time>
      </trkpt>
      <trkpt lat="46.21519" lon="5.44714">
        <ele>395</ele>
        <time>2022-03-26T15:33:38Z</time>
      </trkpt>
      <trkpt lat="46.21512" lon="5.44706">
        <ele>395.4</ele>
        <time>2022-03-26T15:33:40Z</time>
      </trkpt>
      <trkpt lat="46.21507" lon="5.44704">
        <ele>395.6</ele>
        <time>2022-03-26T15:33:41Z</time>
      </trkpt>
      <trkpt lat="46.21502" lon="5.44702">
        <ele>396.2</ele>
        <time>2022-03-26T15:33:42Z</time>
      </trkpt>
      <trkpt lat="46.21486" lon="5.44691">
        <ele>397.4</ele>
        <time>2022-03-26T15:33:46Z</time>
      </trkpt>
      <trkpt lat="46.21482" lon="5.44688">
        <ele>397.6</ele>
        <time>2022-03-26T15:33:47Z</time>
      </trkpt>
      <trkpt lat="46.21479" lon="5.44684">
        <ele>397.8</ele>
        <time>2022-03-26T15:33:48Z</time>
      </trkpt>
      <trkpt lat="46.21469" lon="5.44674">
        <ele>398.4</ele>
        <time>2022-03-26T15:33:51Z</time>
      </trkpt>
      <trkpt lat="46.21457" lon="5.44662">
        <ele>399.4</ele>
        <time>2022-03-26T15:33:55Z</time>
      </trkpt>
      <trkpt lat="46.21455" lon="5.44659">
        <ele>399.6</ele>
        <time>2022-03-26T15:33:56Z</time>
      </trkpt>
      <trkpt lat="46.21441" lon="5.44646">
        <ele>400.6</ele>
        <time>2022-03-26T15:34:01Z</time>
      </trkpt>
      <trkpt lat="46.21434" lon="5.44637">
        <ele>401</ele>
        <time>2022-03-26T15:34:04Z</time>
      </trkpt>
      <trkpt lat="46.21424" lon="5.44626">
        <ele>401.8</ele>
        <time>2022-03-26T15:34:08Z</time>
      </trkpt>
      <trkpt lat="46.21411" lon="5.44612">
        <ele>402.6</ele>
        <time>2022-03-26T15:34:13Z</time>
      </trkpt>
      <trkpt lat="46.21406" lon="5.44606">
        <ele>403</ele>
        <time>2022-03-26T15:34:15Z</time>
      </trkpt>
      <trkpt lat="46.2139" lon="5.44589">
        <ele>404.2</ele>
        <time>2022-03-26T15:34:21Z</time>
      </trkpt>
      <trkpt lat="46.21383" lon="5.4458">
        <ele>404.6</ele>
        <time>2022-03-26T15:34:24Z</time>
      </trkpt>
      <trkpt lat="46.21372" lon="5.44568">
        <ele>405.2</ele>
        <time>2022-03-26T15:34:28Z</time>
      </trkpt>
      <trkpt lat="46.21362" lon="5.44556">
        <ele>406.2</ele>
        <time>2022-03-26T15:34:32Z</time>
      </trkpt>
      <trkpt lat="46.2136" lon="5.44552">
        <ele>406.4</ele>
        <time>2022-03-26T15:34:33Z</time>
      </trkpt>
      <trkpt lat="46.21344" lon="5.44535">
        <ele>407.4</ele>
        <time>2022-03-26T15:34:39Z</time>
      </trkpt>
      <trkpt lat="46.21335" lon="5.44523">
        <ele>408.6</ele>
        <time>2022-03-26T15:34:43Z</time>
      </trkpt>
      <trkpt lat="46.21327" lon="5.44514">
        <ele>409.2</ele>
        <time>2022-03-26T15:34:46Z</time>
      </trkpt>
      <trkpt lat="46.21323" lon="5.44508">
        <ele>409.6</ele>
        <time>2022-03-26T15:34:48Z</time>
      </trkpt>
      <trkpt lat="46.21305" lon="5.44487">
        <ele>410.8</ele>
        <time>2022-03-26T15:34:55Z</time>
      </trkpt>
      <trkpt lat="46.21292" lon="5.44472">
        <ele>411.8</ele>
        <time>2022-03-26T15:35:00Z</time>
      </trkpt>
      <trkpt lat="46.21279" lon="5.44457">
        <ele>412.8</ele>
        <time>2022-03-26T15:35:05Z</time>
      </trkpt>
      <trkpt lat="46.21276" lon="5.44453">
        <ele>413.2</ele>
        <time>2022-03-26T15:35:06Z</time>
      </trkpt>
      <trkpt lat="46.2126" lon="5.44434">
        <ele>414.4</ele>
        <time>2022-03-26T15:35:12Z</time>
      </trkpt>
      <trkpt lat="46.2125" lon="5.44421">
        <ele>415.4</ele>
        <time>2022-03-26T15:35:16Z</time>
      </trkpt>
      <trkpt lat="46.21239" lon="5.44409">
        <ele>416.6</ele>
        <time>2022-03-26T15:35:20Z</time>
      </trkpt>
      <trkpt lat="46.21227" lon="5.44394">
        <ele>417.6</ele>
        <time>2022-03-26T15:35:25Z</time>
      </trkpt>
      <trkpt lat="46.21222" lon="5.44388">
        <ele>418</ele>
        <time>2022-03-26T15:35:27Z</time>
      </trkpt>
      <trkpt lat="46.21212" lon="5.44377">
        <ele>418.8</ele>
        <time>2022-03-26T15:35:31Z</time>
      </trkpt>
      <trkpt lat="46.21202" lon="5.44365">
        <ele>419.6</ele>
        <time>2022-03-26T15:35:35Z</time>
      </trkpt>
      <trkpt lat="46.21199" lon="5.44362">
        <ele>419.8</ele>
        <time>2022-03-26T15:35:36Z</time>
      </trkpt>
      <trkpt lat="46.21179" lon="5.44339">
        <ele>421</ele>
        <time>2022-03-26T15:35:44Z</time>
      </trkpt>
      <trkpt lat="46.21167" lon="5.44325">
        <ele>422.2</ele>
        <time>2022-03-26T15:35:49Z</time>
      </trkpt>
      <trkpt lat="46.21162" lon="5.44319">
        <ele>422.6</ele>
        <time>2022-03-26T15:35:51Z</time>
      </trkpt>
      <trkpt lat="46.21155" lon="5.44311">
        <ele>423.2</ele>
        <time>2022-03-26T15:35:54Z</time>
      </trkpt>
      <trkpt lat="46.21142" lon="5.44297">
        <ele>424.6</ele>
        <time>2022-03-26T15:35:59Z</time>
      </trkpt>
      <trkpt lat="46.21135" lon="5.44288">
        <ele>425</ele>
        <time>2022-03-26T15:36:02Z</time>
      </trkpt>
      <trkpt lat="46.21124" lon="5.44278">
        <ele>426</ele>
        <time>2022-03-26T15:36:06Z</time>
      </trkpt>
      <trkpt lat="46.2111" lon="5.44265">
        <ele>427</ele>
        <time>2022-03-26T15:36:11Z</time>
      </trkpt>
      <trkpt lat="46.21094" lon="5.44248">
        <ele>428.2</ele>
        <time>2022-03-26T15:36:17Z</time>
      </trkpt>
      <trkpt lat="46.21085" lon="5.44237">
        <ele>429.2</ele>
        <time>2022-03-26T15:36:21Z</time>
      </trkpt>
      <trkpt lat="46.21082" lon="5.44234">
        <ele>429.4</ele>
        <time>2022-03-26T15:36:22Z</time>
      </trkpt>
      <trkpt lat="46.21066" lon="5.44218">
        <ele>430.6</ele>
        <time>2022-03-26T15:36:28Z</time>
      </trkpt>
      <trkpt lat="46.21064" lon="5.44216">
        <ele>430.8</ele>
        <time>2022-03-26T15:36:29Z</time>
      </trkpt>
      <trkpt lat="46.21051" lon="5.44202">
        <ele>431.8</ele>
        <time>2022-03-26T15:36:34Z</time>
      </trkpt>
      <trkpt lat="46.21038" lon="5.44188">
        <ele>432.8</ele>
        <time>2022-03-26T15:36:39Z</time>
      </trkpt>
      <trkpt lat="46.21035" lon="5.44186">
        <ele>433.2</ele>
        <time>2022-03-26T15:36:40Z</time>
      </trkpt>
      <trkpt lat="46.21022" lon="5.44173">
        <ele>434</ele>
        <time>2022-03-26T15:36:45Z</time>
      </trkpt>
      <trkpt lat="46.21016" lon="5.44168">
        <ele>434.4</ele>
        <time>2022-03-26T15:36:47Z</time>
      </trkpt>
      <trkpt lat="46.21008" lon="5.44161">
        <ele>435</ele>
        <time>2022-03-26T15:36:50Z</time>
      </trkpt>
      <trkpt lat="46.20991" lon="5.44144">
        <ele>436</ele>
        <time>2022-03-26T15:36:56Z</time>
      </trkpt>
      <trkpt lat="46.20977" lon="5.44131">
        <ele>437</ele>
        <time>2022-03-26T15:37:01Z</time>
      </trkpt>
      <trkpt lat="46.20967" lon="5.44119">
        <ele>438</ele>
        <time>2022-03-26T15:37:05Z</time>
      </trkpt>
      <trkpt lat="46.20964" lon="5.44117">
        <ele>438.2</ele>
        <time>2022-03-26T15:37:06Z</time>
      </trkpt>
      <trkpt lat="46.20951" lon="5.44103">
        <ele>439.2</ele>
        <time>2022-03-26T15:37:11Z</time>
      </trkpt>
      <trkpt lat="46.20949" lon="5.44101">
        <ele>439.4</ele>
        <time>2022-03-26T15:37:12Z</time>
      </trkpt>
      <trkpt lat="46.20935" lon="5.44087">
        <ele>440.2</ele>
        <time>2022-03-26T15:37:17Z</time>
      </trkpt>
      <trkpt lat="46.20925" lon="5.44077">
        <ele>441.2</ele>
        <time>2022-03-26T15:37:21Z</time>
      </trkpt>
      <trkpt lat="46.2092" lon="5.44072">
        <ele>441.8</ele>
        <time>2022-03-26T15:37:23Z</time>
      </trkpt>
      <trkpt lat="46.20909" lon="5.4406">
        <ele>442.4</ele>
        <time>2022-03-26T15:37:27Z</time>
      </trkpt>
      <trkpt lat="46.20895" lon="5.44047">
        <ele>443.6</ele>
        <time>2022-03-26T15:37:32Z</time>
      </trkpt>
      <trkpt lat="46.20893" lon="5.44044">
        <ele>443.8</ele>
        <time>2022-03-26T15:37:33Z</time>
      </trkpt>
      <trkpt lat="46.20878" lon="5.4403">
        <ele>444.6</ele>
        <time>2022-03-26T15:37:38Z</time>
      </trkpt>
      <trkpt lat="46.20872" lon="5.44024">
        <ele>445</ele>
        <time>2022-03-26T15:37:40Z</time>
      </trkpt>
      <trkpt lat="46.20863" lon="5.44015">
        <ele>445.6</ele>
        <time>2022-03-26T15:37:43Z</time>
      </trkpt>
      <trkpt lat="46.20849" lon="5.44">
        <ele>446.6</ele>
        <time>2022-03-26T15:37:48Z</time>
      </trkpt>
      <trkpt lat="46.20846" lon="5.43997">
        <ele>446.8</ele>
        <time>2022-03-26T15:37:49Z</time>
      </trkpt>
      <trkpt lat="46.20831" lon="5.43982">
        <ele>447.8</ele>
        <time>2022-03-26T15:37:54Z</time>
      </trkpt>
      <trkpt lat="46.20816" lon="5.43968">
        <ele>448.8</ele>
        <time>2022-03-26T15:37:59Z</time>
      </trkpt>
      <trkpt lat="46.20813" lon="5.43965">
        <ele>449</ele>
        <time>2022-03-26T15:38:00Z</time>
      </trkpt>
      <trkpt lat="46.20793" lon="5.43944">
        <ele>450.2</ele>
        <time>2022-03-26T15:38:07Z</time>
      </trkpt>
      <trkpt lat="46.20773" lon="5.43927">
        <ele>451.2</ele>
        <time>2022-03-26T15:38:13Z</time>
      </trkpt>
      <trkpt lat="46.20766" lon="5.43921">
        <ele>451.4</ele>
        <time>2022-03-26T15:38:15Z</time>
      </trkpt>
      <trkpt lat="46.20759" lon="5.43914">
        <ele>451.6</ele>
        <time>2022-03-26T15:38:17Z</time>
      </trkpt>
      <trkpt lat="46.20747" lon="5.43903">
        <ele>452.4</ele>
        <time>2022-03-26T15:38:20Z</time>
      </trkpt>
      <trkpt lat="46.20743" lon="5.439">
        <ele>452.4</ele>
        <time>2022-03-26T15:38:21Z</time>
      </trkpt>
      <trkpt lat="46.20725" lon="5.43884">
        <ele>453.4</ele>
        <time>2022-03-26T15:38:26Z</time>
      </trkpt>
      <trkpt lat="46.20711" lon="5.43873">
        <ele>454.2</ele>
        <time>2022-03-26T15:38:30Z</time>
      </trkpt>
      <trkpt lat="46.20701" lon="5.43866">
        <ele>454.6</ele>
        <time>2022-03-26T15:38:33Z</time>
      </trkpt>
      <trkpt lat="46.20688" lon="5.43856">
        <ele>455.6</ele>
        <time>2022-03-26T15:38:37Z</time>
      </trkpt>
      <trkpt lat="46.20671" lon="5.43844">
        <ele>456.6</ele>
        <time>2022-03-26T15:38:42Z</time>
      </trkpt>
      <trkpt lat="46.20654" lon="5.43831">
        <ele>457.6</ele>
        <time>2022-03-26T15:38:47Z</time>
      </trkpt>
      <trkpt lat="46.2065" lon="5.43828">
        <ele>457.8</ele>
        <time>2022-03-26T15:38:48Z</time>
      </trkpt>
      <trkpt lat="46.20627" lon="5.4381">
        <ele>458.8</ele>
        <time>2022-03-26T15:38:55Z</time>
      </trkpt>
      <trkpt lat="46.20624" lon="5.43808">
        <ele>459</ele>
        <time>2022-03-26T15:38:56Z</time>
      </trkpt>
      <trkpt lat="46.20608" lon="5.43795">
        <ele>460</ele>
        <time>2022-03-26T15:39:01Z</time>
      </trkpt>
      <trkpt lat="46.20595" lon="5.43784">
        <ele>460.6</ele>
        <time>2022-03-26T15:39:05Z</time>
      </trkpt>
      <trkpt lat="46.20589" lon="5.43779">
        <ele>461</ele>
        <time>2022-03-26T15:39:07Z</time>
      </trkpt>
      <trkpt lat="46.2057" lon="5.43762">
        <ele>462</ele>
        <time>2022-03-26T15:39:13Z</time>
      </trkpt>
      <trkpt lat="46.20556" lon="5.4375">
        <ele>463.2</ele>
        <time>2022-03-26T15:39:17Z</time>
      </trkpt>
      <trkpt lat="46.2054" lon="5.43736">
        <ele>463.8</ele>
        <time>2022-03-26T15:39:22Z</time>
      </trkpt>
      <trkpt lat="46.2053" lon="5.43728">
        <ele>464.4</ele>
        <time>2022-03-26T15:39:25Z</time>
      </trkpt>
      <trkpt lat="46.20513" lon="5.43716">
        <ele>465.2</ele>
        <time>2022-03-26T15:39:30Z</time>
      </trkpt>
      <trkpt lat="46.20506" lon="5.43712">
        <ele>465.4</ele>
        <time>2022-03-26T15:39:32Z</time>
      </trkpt>
      <trkpt lat="46.2049" lon="5.43699">
        <ele>466.6</ele>
        <time>2022-03-26T15:39:37Z</time>
      </trkpt>
      <trkpt lat="46.20476" lon="5.43689">
        <ele>467.2</ele>
        <time>2022-03-26T15:39:41Z</time>
      </trkpt>
      <trkpt lat="46.20466" lon="5.43681">
        <ele>467.6</ele>
        <time>2022-03-26T15:39:44Z</time>
      </trkpt>
      <trkpt lat="46.20451" lon="5.43666">
        <ele>468.6</ele>
        <time>2022-03-26T15:39:49Z</time>
      </trkpt>
      <trkpt lat="46.20448" lon="5.43663">
        <ele>468.8</ele>
        <time>2022-03-26T15:39:50Z</time>
      </trkpt>
      <trkpt lat="46.20432" lon="5.43648">
        <ele>470</ele>
        <time>2022-03-26T15:39:55Z</time>
      </trkpt>
      <trkpt lat="46.2042" lon="5.43636">
        <ele>470.8</ele>
        <time>2022-03-26T15:39:59Z</time>
      </trkpt>
      <trkpt lat="46.20411" lon="5.43627">
        <ele>471</ele>
        <time>2022-03-26T15:40:02Z</time>
      </trkpt>
      <trkpt lat="46.20396" lon="5.4361">
        <ele>472.2</ele>
        <time>2022-03-26T15:40:07Z</time>
      </trkpt>
      <trkpt lat="46.20385" lon="5.43602">
        <ele>472.6</ele>
        <time>2022-03-26T15:40:10Z</time>
      </trkpt>
      <trkpt lat="46.20376" lon="5.43593">
        <ele>473.4</ele>
        <time>2022-03-26T15:40:13Z</time>
      </trkpt>
      <trkpt lat="46.2036" lon="5.43581">
        <ele>474</ele>
        <time>2022-03-26T15:40:18Z</time>
      </trkpt>
      <trkpt lat="46.20348" lon="5.43572">
        <ele>474.6</ele>
        <time>2022-03-26T15:40:22Z</time>
      </trkpt>
      <trkpt lat="46.20341" lon="5.43566">
        <ele>475.4</ele>
        <time>2022-03-26T15:40:24Z</time>
      </trkpt>
      <trkpt lat="46.20338" lon="5.43563">
        <ele>475.6</ele>
        <time>2022-03-26T15:40:25Z</time>
      </trkpt>
      <trkpt lat="46.20315" lon="5.43545">
        <ele>477</ele>
        <time>2022-03-26T15:40:32Z</time>
      </trkpt>
      <trkpt lat="46.20299" lon="5.43533">
        <ele>478</ele>
        <time>2022-03-26T15:40:37Z</time>
      </trkpt>
      <trkpt lat="46.20277" lon="5.43518">
        <ele>479.4</ele>
        <time>2022-03-26T15:40:43Z</time>
      </trkpt>
      <trkpt lat="46.20253" lon="5.43497">
        <ele>480.6</ele>
        <time>2022-03-26T15:40:50Z</time>
      </trkpt>
      <trkpt lat="46.20247" lon="5.4349">
        <ele>480.8</ele>
        <time>2022-03-26T15:40:52Z</time>
      </trkpt>
      <trkpt lat="46.20229" lon="5.43474">
        <ele>481.6</ele>
        <time>2022-03-26T15:40:57Z</time>
      </trkpt>
      <trkpt lat="46.20222" lon="5.43468">
        <ele>482.4</ele>
        <time>2022-03-26T15:40:59Z</time>
      </trkpt>
      <trkpt lat="46.20219" lon="5.43465">
        <ele>482.6</ele>
        <time>2022-03-26T15:41:00Z</time>
      </trkpt>
      <trkpt lat="46.202" lon="5.43448">
        <ele>484</ele>
        <time>2022-03-26T15:41:06Z</time>
      </trkpt>
      <trkpt lat="46.20188" lon="5.43437">
        <ele>485</ele>
        <time>2022-03-26T15:41:10Z</time>
      </trkpt>
      <trkpt lat="46.20185" lon="5.43434">
        <ele>485.2</ele>
        <time>2022-03-26T15:41:11Z</time>
      </trkpt>
      <trkpt lat="46.20166" lon="5.43417">
        <ele>486.4</ele>
        <time>2022-03-26T15:41:17Z</time>
      </trkpt>
      <trkpt lat="46.20157" lon="5.43409">
        <ele>486.8</ele>
        <time>2022-03-26T15:41:20Z</time>
      </trkpt>
      <trkpt lat="46.20145" lon="5.43398">
        <ele>487.4</ele>
        <time>2022-03-26T15:41:24Z</time>
      </trkpt>
      <trkpt lat="46.20131" lon="5.43382">
        <ele>488.4</ele>
        <time>2022-03-26T15:41:29Z</time>
      </trkpt>
      <trkpt lat="46.20128" lon="5.43378">
        <ele>488.6</ele>
        <time>2022-03-26T15:41:30Z</time>
      </trkpt>
      <trkpt lat="46.20119" lon="5.43355">
        <ele>489.6</ele>
        <time>2022-03-26T15:41:35Z</time>
      </trkpt>
      <trkpt lat="46.20118" lon="5.4335">
        <ele>489.8</ele>
        <time>2022-03-26T15:41:36Z</time>
      </trkpt>
      <trkpt lat="46.20117" lon="5.43324">
        <ele>490.8</ele>
        <time>2022-03-26T15:41:41Z</time>
      </trkpt>
      <trkpt lat="46.20118" lon="5.43319">
        <ele>490.8</ele>
        <time>2022-03-26T15:41:42Z</time>
      </trkpt>
      <trkpt lat="46.20123" lon="5.43292">
        <ele>492</ele>
        <time>2022-03-26T15:41:47Z</time>
      </trkpt>
      <trkpt lat="46.20123" lon="5.43281">
        <ele>492.2</ele>
        <time>2022-03-26T15:41:49Z</time>
      </trkpt>
      <trkpt lat="46.20119" lon="5.43261">
        <ele>493</ele>
        <time>2022-03-26T15:41:53Z</time>
      </trkpt>
      <trkpt lat="46.20117" lon="5.43257">
        <ele>493</ele>
        <time>2022-03-26T15:41:54Z</time>
      </trkpt>
      <trkpt lat="46.20107" lon="5.43241">
        <ele>494</ele>
        <time>2022-03-26T15:41:58Z</time>
      </trkpt>
      <trkpt lat="46.20099" lon="5.43231">
        <ele>495</ele>
        <time>2022-03-26T15:42:01Z</time>
      </trkpt>
      <trkpt lat="46.20083" lon="5.43212">
        <ele>496</ele>
        <time>2022-03-26T15:42:07Z</time>
      </trkpt>
      <trkpt lat="46.20078" lon="5.43204">
        <ele>496.4</ele>
        <time>2022-03-26T15:42:09Z</time>
      </trkpt>
      <trkpt lat="46.2007" lon="5.43194">
        <ele>497</ele>
        <time>2022-03-26T15:42:12Z</time>
      </trkpt>
      <trkpt lat="46.2006" lon="5.43177">
        <ele>498.2</ele>
        <time>2022-03-26T15:42:17Z</time>
      </trkpt>
      <trkpt lat="46.20061" lon="5.43161">
        <ele>499.4</ele>
        <time>2022-03-26T15:42:21Z</time>
      </trkpt>
      <trkpt lat="46.20061" lon="5.43157">
        <ele>499.6</ele>
        <time>2022-03-26T15:42:22Z</time>
      </trkpt>
      <trkpt lat="46.2006" lon="5.43153">
        <ele>500</ele>
        <time>2022-03-26T15:42:23Z</time>
      </trkpt>
      <trkpt lat="46.20058" lon="5.43148">
        <ele>500.4</ele>
        <time>2022-03-26T15:42:25Z</time>
      </trkpt>
      <trkpt lat="46.20053" lon="5.43144">
        <ele>501</ele>
        <time>2022-03-26T15:42:29Z</time>
      </trkpt>
      <trkpt lat="46.20052" lon="5.43143">
        <ele>501.2</ele>
        <time>2022-03-26T15:42:31Z</time>
      </trkpt>
      <trkpt lat="46.20057" lon="5.43149">
        <ele>502</ele>
        <time>2022-03-26T15:43:06Z</time>
      </trkpt>
      <trkpt lat="46.20059" lon="5.43148">
        <ele>502</ele>
        <time>2022-03-26T15:43:07Z</time>
      </trkpt>
      <trkpt lat="46.20072" lon="5.43148">
        <ele>502</ele>
        <time>2022-03-26T15:43:11Z</time>
      </trkpt>
      <trkpt lat="46.20097" lon="5.43145">
        <ele>501.4</ele>
        <time>2022-03-26T15:43:17Z</time>
      </trkpt>
      <trkpt lat="46.20125" lon="5.43142">
        <ele>501</ele>
        <time>2022-03-26T15:43:23Z</time>
      </trkpt>
      <trkpt lat="46.2013" lon="5.43142">
        <ele>500.8</ele>
        <time>2022-03-26T15:43:24Z</time>
      </trkpt>
      <trkpt lat="46.20163" lon="5.43138">
        <ele>500.2</ele>
        <time>2022-03-26T15:43:31Z</time>
      </trkpt>
      <trkpt lat="46.20166" lon="5.43138">
        <ele>500.2</ele>
        <time>2022-03-26T15:43:32Z</time>
      </trkpt>
      <trkpt lat="46.2019" lon="5.43136">
        <ele>500</ele>
        <time>2022-03-26T15:43:37Z</time>
      </trkpt>
      <trkpt lat="46.20194" lon="5.43135">
        <ele>500</ele>
        <time>2022-03-26T15:43:38Z</time>
      </trkpt>
      <trkpt lat="46.20207" lon="5.43129">
        <ele>499.8</ele>
        <time>2022-03-26T15:43:41Z</time>
      </trkpt>
      <trkpt lat="46.20217" lon="5.43124">
        <ele>499.8</ele>
        <time>2022-03-26T15:43:43Z</time>
      </trkpt>
      <trkpt lat="46.20226" lon="5.43118">
        <ele>499.6</ele>
        <time>2022-03-26T15:43:45Z</time>
      </trkpt>
      <trkpt lat="46.20251" lon="5.43088">
        <ele>499</ele>
        <time>2022-03-26T15:43:51Z</time>
      </trkpt>
      <trkpt lat="46.20255" lon="5.43083">
        <ele>498.8</ele>
        <time>2022-03-26T15:43:52Z</time>
      </trkpt>
      <trkpt lat="46.20267" lon="5.43066">
        <ele>498.2</ele>
        <time>2022-03-26T15:43:55Z</time>
      </trkpt>
      <trkpt lat="46.20301" lon="5.43027">
        <ele>497.8</ele>
        <time>2022-03-26T15:44:03Z</time>
      </trkpt>
      <trkpt lat="46.20306" lon="5.43022">
        <ele>497.6</ele>
        <time>2022-03-26T15:44:04Z</time>
      </trkpt>
      <trkpt lat="46.20325" lon="5.42991">
        <ele>497</ele>
        <time>2022-03-26T15:44:09Z</time>
      </trkpt>
      <trkpt lat="46.20336" lon="5.42967">
        <ele>496.6</ele>
        <time>2022-03-26T15:44:12Z</time>
      </trkpt>
      <trkpt lat="46.20347" lon="5.42944">
        <ele>495.4</ele>
        <time>2022-03-26T15:44:15Z</time>
      </trkpt>
      <trkpt lat="46.20355" lon="5.4293">
        <ele>495</ele>
        <time>2022-03-26T15:44:17Z</time>
      </trkpt>
      <trkpt lat="46.2037" lon="5.42911">
        <ele>494.6</ele>
        <time>2022-03-26T15:44:20Z</time>
      </trkpt>
      <trkpt lat="46.20391" lon="5.42888">
        <ele>494.4</ele>
        <time>2022-03-26T15:44:24Z</time>
      </trkpt>
      <trkpt lat="46.20407" lon="5.42871">
        <ele>493.4</ele>
        <time>2022-03-26T15:44:27Z</time>
      </trkpt>
      <trkpt lat="46.20413" lon="5.42866">
        <ele>493.2</ele>
        <time>2022-03-26T15:44:28Z</time>
      </trkpt>
      <trkpt lat="46.20433" lon="5.42845">
        <ele>492.2</ele>
        <time>2022-03-26T15:44:32Z</time>
      </trkpt>
      <trkpt lat="46.20443" lon="5.42834">
        <ele>491.6</ele>
        <time>2022-03-26T15:44:34Z</time>
      </trkpt>
      <trkpt lat="46.20486" lon="5.42795">
        <ele>491.2</ele>
        <time>2022-03-26T15:44:42Z</time>
      </trkpt>
      <trkpt lat="46.2051" lon="5.4277">
        <ele>491.2</ele>
        <time>2022-03-26T15:44:47Z</time>
      </trkpt>
      <trkpt lat="46.20514" lon="5.42763">
        <ele>491.2</ele>
        <time>2022-03-26T15:44:48Z</time>
      </trkpt>
      <trkpt lat="46.20529" lon="5.42735">
        <ele>491.2</ele>
        <time>2022-03-26T15:44:52Z</time>
      </trkpt>
      <trkpt lat="46.20535" lon="5.42727">
        <ele>491</ele>
        <time>2022-03-26T15:44:53Z</time>
      </trkpt>
      <trkpt lat="46.20546" lon="5.42715">
        <ele>490.6</ele>
        <time>2022-03-26T15:44:55Z</time>
      </trkpt>
      <trkpt lat="46.2056" lon="5.42708">
        <ele>490</ele>
        <time>2022-03-26T15:44:57Z</time>
      </trkpt>
      <trkpt lat="46.20568" lon="5.42706">
        <ele>489.6</ele>
        <time>2022-03-26T15:44:58Z</time>
      </trkpt>
      <trkpt lat="46.20588" lon="5.42706">
        <ele>488.8</ele>
        <time>2022-03-26T15:45:01Z</time>
      </trkpt>
      <trkpt lat="46.20596" lon="5.42706">
        <ele>488.6</ele>
        <time>2022-03-26T15:45:02Z</time>
      </trkpt>
      <trkpt lat="46.20603" lon="5.42708">
        <ele>488.4</ele>
        <time>2022-03-26T15:45:03Z</time>
      </trkpt>
      <trkpt lat="46.20644" lon="5.42717">
        <ele>488</ele>
        <time>2022-03-26T15:45:09Z</time>
      </trkpt>
      <trkpt lat="46.20695" lon="5.42728">
        <ele>488.2</ele>
        <time>2022-03-26T15:45:17Z</time>
      </trkpt>
      <trkpt lat="46.2074" lon="5.42746">
        <ele>488.2</ele>
        <time>2022-03-26T15:45:24Z</time>
      </trkpt>
      <trkpt lat="46.20761" lon="5.42757">
        <ele>487.4</ele>
        <time>2022-03-26T15:45:27Z</time>
      </trkpt>
      <trkpt lat="46.20768" lon="5.4276">
        <ele>487.2</ele>
        <time>2022-03-26T15:45:28Z</time>
      </trkpt>
      <trkpt lat="46.20774" lon="5.42761">
        <ele>486.8</ele>
        <time>2022-03-26T15:45:29Z</time>
      </trkpt>
      <trkpt lat="46.20782" lon="5.4276">
        <ele>486.6</ele>
        <time>2022-03-26T15:45:30Z</time>
      </trkpt>
      <trkpt lat="46.208" lon="5.42753">
        <ele>485.6</ele>
        <time>2022-03-26T15:45:32Z</time>
      </trkpt>
      <trkpt lat="46.20819" lon="5.42747">
        <ele>484.2</ele>
        <time>2022-03-26T15:45:34Z</time>
      </trkpt>
      <trkpt lat="46.20839" lon="5.42744">
        <ele>483.4</ele>
        <time>2022-03-26T15:45:36Z</time>
      </trkpt>
      <trkpt lat="46.20849" lon="5.42744">
        <ele>483.2</ele>
        <time>2022-03-26T15:45:37Z</time>
      </trkpt>
      <trkpt lat="46.20869" lon="5.42748">
        <ele>482</ele>
        <time>2022-03-26T15:45:39Z</time>
      </trkpt>
      <trkpt lat="46.20879" lon="5.42749">
        <ele>481.6</ele>
        <time>2022-03-26T15:45:40Z</time>
      </trkpt>
      <trkpt lat="46.20889" lon="5.42749">
        <ele>480.6</ele>
        <time>2022-03-26T15:45:41Z</time>
      </trkpt>
      <trkpt lat="46.20911" lon="5.42744">
        <ele>479.2</ele>
        <time>2022-03-26T15:45:43Z</time>
      </trkpt>
      <trkpt lat="46.20943" lon="5.42732">
        <ele>477.6</ele>
        <time>2022-03-26T15:45:46Z</time>
      </trkpt>
      <trkpt lat="46.20965" lon="5.42727">
        <ele>476.4</ele>
        <time>2022-03-26T15:45:48Z</time>
      </trkpt>
      <trkpt lat="46.20987" lon="5.42732">
        <ele>474.6</ele>
        <time>2022-03-26T15:45:50Z</time>
      </trkpt>
      <trkpt lat="46.20997" lon="5.4274">
        <ele>474.4</ele>
        <time>2022-03-26T15:45:51Z</time>
      </trkpt>
      <trkpt lat="46.21006" lon="5.42751">
        <ele>474</ele>
        <time>2022-03-26T15:45:52Z</time>
      </trkpt>
      <trkpt lat="46.21014" lon="5.42765">
        <ele>473.2</ele>
        <time>2022-03-26T15:45:53Z</time>
      </trkpt>
      <trkpt lat="46.21028" lon="5.42791">
        <ele>472</ele>
        <time>2022-03-26T15:45:55Z</time>
      </trkpt>
      <trkpt lat="46.21036" lon="5.428">
        <ele>471.4</ele>
        <time>2022-03-26T15:45:56Z</time>
      </trkpt>
      <trkpt lat="46.21046" lon="5.42807">
        <ele>470</ele>
        <time>2022-03-26T15:45:57Z</time>
      </trkpt>
      <trkpt lat="46.21067" lon="5.42818">
        <ele>468.6</ele>
        <time>2022-03-26T15:45:59Z</time>
      </trkpt>
      <trkpt lat="46.21077" lon="5.42822">
        <ele>467.2</ele>
        <time>2022-03-26T15:46:00Z</time>
      </trkpt>
      <trkpt lat="46.21096" lon="5.42828">
        <ele>465.4</ele>
        <time>2022-03-26T15:46:02Z</time>
      </trkpt>
      <trkpt lat="46.21109" lon="5.4283">
        <ele>465</ele>
        <time>2022-03-26T15:46:03Z</time>
      </trkpt>
      <trkpt lat="46.2112" lon="5.42831">
        <ele>464.2</ele>
        <time>2022-03-26T15:46:04Z</time>
      </trkpt>
      <trkpt lat="46.21131" lon="5.4283">
        <ele>463.8</ele>
        <time>2022-03-26T15:46:05Z</time>
      </trkpt>
      <trkpt lat="46.21142" lon="5.42828">
        <ele>463</ele>
        <time>2022-03-26T15:46:06Z</time>
      </trkpt>
      <trkpt lat="46.21165" lon="5.42825">
        <ele>461.6</ele>
        <time>2022-03-26T15:46:08Z</time>
      </trkpt>
      <trkpt lat="46.21188" lon="5.42825">
        <ele>460.6</ele>
        <time>2022-03-26T15:46:10Z</time>
      </trkpt>
      <trkpt lat="46.21211" lon="5.42824">
        <ele>459</ele>
        <time>2022-03-26T15:46:12Z</time>
      </trkpt>
      <trkpt lat="46.21235" lon="5.42826">
        <ele>457.6</ele>
        <time>2022-03-26T15:46:14Z</time>
      </trkpt>
      <trkpt lat="46.21258" lon="5.42829">
        <ele>455.8</ele>
        <time>2022-03-26T15:46:16Z</time>
      </trkpt>
      <trkpt lat="46.21282" lon="5.42835">
        <ele>454.2</ele>
        <time>2022-03-26T15:46:18Z</time>
      </trkpt>
      <trkpt lat="46.21305" lon="5.42841">
        <ele>452.2</ele>
        <time>2022-03-26T15:46:20Z</time>
      </trkpt>
      <trkpt lat="46.21329" lon="5.42846">
        <ele>451</ele>
        <time>2022-03-26T15:46:22Z</time>
      </trkpt>
      <trkpt lat="46.21341" lon="5.42848">
        <ele>449.6</ele>
        <time>2022-03-26T15:46:23Z</time>
      </trkpt>
      <trkpt lat="46.21365" lon="5.42852">
        <ele>448.2</ele>
        <time>2022-03-26T15:46:25Z</time>
      </trkpt>
      <trkpt lat="46.21377" lon="5.42854">
        <ele>447.8</ele>
        <time>2022-03-26T15:46:26Z</time>
      </trkpt>
      <trkpt lat="46.21412" lon="5.42858">
        <ele>446.6</ele>
        <time>2022-03-26T15:46:29Z</time>
      </trkpt>
      <trkpt lat="46.21423" lon="5.42859">
        <ele>445.4</ele>
        <time>2022-03-26T15:46:30Z</time>
      </trkpt>
      <trkpt lat="46.21435" lon="5.4286">
        <ele>444.2</ele>
        <time>2022-03-26T15:46:31Z</time>
      </trkpt>
      <trkpt lat="46.21447" lon="5.42861">
        <ele>443</ele>
        <time>2022-03-26T15:46:32Z</time>
      </trkpt>
      <trkpt lat="46.2147" lon="5.42867">
        <ele>441.6</ele>
        <time>2022-03-26T15:46:34Z</time>
      </trkpt>
      <trkpt lat="46.21494" lon="5.42877">
        <ele>440</ele>
        <time>2022-03-26T15:46:36Z</time>
      </trkpt>
      <trkpt lat="46.21518" lon="5.42889">
        <ele>438.4</ele>
        <time>2022-03-26T15:46:38Z</time>
      </trkpt>
      <trkpt lat="46.21542" lon="5.42902">
        <ele>436.8</ele>
        <time>2022-03-26T15:46:40Z</time>
      </trkpt>
      <trkpt lat="46.21566" lon="5.42915">
        <ele>435.2</ele>
        <time>2022-03-26T15:46:42Z</time>
      </trkpt>
      <trkpt lat="46.21578" lon="5.4292">
        <ele>434</ele>
        <time>2022-03-26T15:46:43Z</time>
      </trkpt>
      <trkpt lat="46.21602" lon="5.4293">
        <ele>431.6</ele>
        <time>2022-03-26T15:46:45Z</time>
      </trkpt>
      <trkpt lat="46.21614" lon="5.42934">
        <ele>429.6</ele>
        <time>2022-03-26T15:46:46Z</time>
      </trkpt>
      <trkpt lat="46.21627" lon="5.42938">
        <ele>429</ele>
        <time>2022-03-26T15:46:47Z</time>
      </trkpt>
      <trkpt lat="46.2164" lon="5.42942">
        <ele>427.8</ele>
        <time>2022-03-26T15:46:48Z</time>
      </trkpt>
      <trkpt lat="46.21678" lon="5.42949">
        <ele>426</ele>
        <time>2022-03-26T15:46:51Z</time>
      </trkpt>
      <trkpt lat="46.21691" lon="5.42949">
        <ele>425</ele>
        <time>2022-03-26T15:46:52Z</time>
      </trkpt>
      <trkpt lat="46.21718" lon="5.42949">
        <ele>423.8</ele>
        <time>2022-03-26T15:46:54Z</time>
      </trkpt>
      <trkpt lat="46.21745" lon="5.42949">
        <ele>422.8</ele>
        <time>2022-03-26T15:46:56Z</time>
      </trkpt>
      <trkpt lat="46.21758" lon="5.4295">
        <ele>422</ele>
        <time>2022-03-26T15:46:57Z</time>
      </trkpt>
      <trkpt lat="46.21772" lon="5.42952">
        <ele>421.2</ele>
        <time>2022-03-26T15:46:58Z</time>
      </trkpt>
      <trkpt lat="46.21785" lon="5.42954">
        <ele>420</ele>
        <time>2022-03-26T15:46:59Z</time>
      </trkpt>
      <trkpt lat="46.21811" lon="5.4296">
        <ele>418.8</ele>
        <time>2022-03-26T15:47:01Z</time>
      </trkpt>
      <trkpt lat="46.21824" lon="5.42964">
        <ele>417.6</ele>
        <time>2022-03-26T15:47:02Z</time>
      </trkpt>
      <trkpt lat="46.21836" lon="5.42968">
        <ele>416.8</ele>
        <time>2022-03-26T15:47:03Z</time>
      </trkpt>
      <trkpt lat="46.21849" lon="5.42972">
        <ele>415.8</ele>
        <time>2022-03-26T15:47:04Z</time>
      </trkpt>
      <trkpt lat="46.21875" lon="5.4298">
        <ele>414.2</ele>
        <time>2022-03-26T15:47:06Z</time>
      </trkpt>
      <trkpt lat="46.21901" lon="5.42988">
        <ele>412.4</ele>
        <time>2022-03-26T15:47:08Z</time>
      </trkpt>
      <trkpt lat="46.21926" lon="5.42996">
        <ele>410.8</ele>
        <time>2022-03-26T15:47:10Z</time>
      </trkpt>
      <trkpt lat="46.21939" lon="5.43">
        <ele>409.8</ele>
        <time>2022-03-26T15:47:11Z</time>
      </trkpt>
      <trkpt lat="46.21965" lon="5.43008">
        <ele>408.2</ele>
        <time>2022-03-26T15:47:13Z</time>
      </trkpt>
      <trkpt lat="46.21991" lon="5.43017">
        <ele>407</ele>
        <time>2022-03-26T15:47:15Z</time>
      </trkpt>
      <trkpt lat="46.22004" lon="5.43022">
        <ele>406</ele>
        <time>2022-03-26T15:47:16Z</time>
      </trkpt>
      <trkpt lat="46.22031" lon="5.43028">
        <ele>403.8</ele>
        <time>2022-03-26T15:47:18Z</time>
      </trkpt>
      <trkpt lat="46.22058" lon="5.43031">
        <ele>402</ele>
        <time>2022-03-26T15:47:20Z</time>
      </trkpt>
      <trkpt lat="46.22072" lon="5.43031">
        <ele>401.4</ele>
        <time>2022-03-26T15:47:21Z</time>
      </trkpt>
      <trkpt lat="46.22085" lon="5.4303">
        <ele>400.2</ele>
        <time>2022-03-26T15:47:22Z</time>
      </trkpt>
      <trkpt lat="46.22112" lon="5.43027">
        <ele>398.8</ele>
        <time>2022-03-26T15:47:24Z</time>
      </trkpt>
      <trkpt lat="46.22139" lon="5.4302">
        <ele>397.8</ele>
        <time>2022-03-26T15:47:26Z</time>
      </trkpt>
      <trkpt lat="46.22152" lon="5.43016">
        <ele>396.4</ele>
        <time>2022-03-26T15:47:27Z</time>
      </trkpt>
      <trkpt lat="46.22166" lon="5.43012">
        <ele>395.4</ele>
        <time>2022-03-26T15:47:28Z</time>
      </trkpt>
      <trkpt lat="46.2218" lon="5.43008">
        <ele>393.6</ele>
        <time>2022-03-26T15:47:29Z</time>
      </trkpt>
      <trkpt lat="46.22207" lon="5.43002">
        <ele>391.8</ele>
        <time>2022-03-26T15:47:31Z</time>
      </trkpt>
      <trkpt lat="46.2222" lon="5.43">
        <ele>390</ele>
        <time>2022-03-26T15:47:32Z</time>
      </trkpt>
      <trkpt lat="46.22248" lon="5.42996">
        <ele>388.6</ele>
        <time>2022-03-26T15:47:34Z</time>
      </trkpt>
      <trkpt lat="46.22274" lon="5.42995">
        <ele>387</ele>
        <time>2022-03-26T15:47:36Z</time>
      </trkpt>
      <trkpt lat="46.22288" lon="5.42995">
        <ele>385.6</ele>
        <time>2022-03-26T15:47:37Z</time>
      </trkpt>
      <trkpt lat="46.22301" lon="5.42995">
        <ele>384</ele>
        <time>2022-03-26T15:47:38Z</time>
      </trkpt>
      <trkpt lat="46.22314" lon="5.42995">
        <ele>382.8</ele>
        <time>2022-03-26T15:47:39Z</time>
      </trkpt>
      <trkpt lat="46.22341" lon="5.42996">
        <ele>381.4</ele>
        <time>2022-03-26T15:47:41Z</time>
      </trkpt>
      <trkpt lat="46.22365" lon="5.42998">
        <ele>380.2</ele>
        <time>2022-03-26T15:47:43Z</time>
      </trkpt>
      <trkpt lat="46.22395" lon="5.42998">
        <ele>378.8</ele>
        <time>2022-03-26T15:47:45Z</time>
      </trkpt>
      <trkpt lat="46.22422" lon="5.42997">
        <ele>377.2</ele>
        <time>2022-03-26T15:47:47Z</time>
      </trkpt>
      <trkpt lat="46.22449" lon="5.42996">
        <ele>376.2</ele>
        <time>2022-03-26T15:47:49Z</time>
      </trkpt>
      <trkpt lat="46.22476" lon="5.42996">
        <ele>375.2</ele>
        <time>2022-03-26T15:47:51Z</time>
      </trkpt>
      <trkpt lat="46.22489" lon="5.42995">
        <ele>373.8</ele>
        <time>2022-03-26T15:47:52Z</time>
      </trkpt>
      <trkpt lat="46.22517" lon="5.42994">
        <ele>372.6</ele>
        <time>2022-03-26T15:47:54Z</time>
      </trkpt>
      <trkpt lat="46.2253" lon="5.42993">
        <ele>371.2</ele>
        <time>2022-03-26T15:47:55Z</time>
      </trkpt>
      <trkpt lat="46.22557" lon="5.42989">
        <ele>369</ele>
        <time>2022-03-26T15:47:57Z</time>
      </trkpt>
      <trkpt lat="46.22583" lon="5.42985">
        <ele>367.2</ele>
        <time>2022-03-26T15:47:59Z</time>
      </trkpt>
      <trkpt lat="46.22596" lon="5.42983">
        <ele>366.8</ele>
        <time>2022-03-26T15:48:00Z</time>
      </trkpt>
      <trkpt lat="46.22609" lon="5.42981">
        <ele>365.8</ele>
        <time>2022-03-26T15:48:01Z</time>
      </trkpt>
      <trkpt lat="46.22634" lon="5.42977">
        <ele>364.4</ele>
        <time>2022-03-26T15:48:03Z</time>
      </trkpt>
      <trkpt lat="46.22659" lon="5.42973">
        <ele>363.2</ele>
        <time>2022-03-26T15:48:05Z</time>
      </trkpt>
      <trkpt lat="46.22683" lon="5.42969">
        <ele>361.6</ele>
        <time>2022-03-26T15:48:07Z</time>
      </trkpt>
      <trkpt lat="46.22695" lon="5.42967">
        <ele>360.6</ele>
        <time>2022-03-26T15:48:08Z</time>
      </trkpt>
      <trkpt lat="46.22707" lon="5.42966">
        <ele>359.2</ele>
        <time>2022-03-26T15:48:09Z</time>
      </trkpt>
      <trkpt lat="46.2273" lon="5.42963">
        <ele>357.2</ele>
        <time>2022-03-26T15:48:11Z</time>
      </trkpt>
      <trkpt lat="46.22749" lon="5.42965">
        <ele>356.2</ele>
        <time>2022-03-26T15:48:13Z</time>
      </trkpt>
      <trkpt lat="46.22766" lon="5.4298">
        <ele>355.4</ele>
        <time>2022-03-26T15:48:15Z</time>
      </trkpt>
      <trkpt lat="46.22772" lon="5.42992">
        <ele>354.8</ele>
        <time>2022-03-26T15:48:16Z</time>
      </trkpt>
      <trkpt lat="46.22776" lon="5.43002">
        <ele>354.4</ele>
        <time>2022-03-26T15:48:17Z</time>
      </trkpt>
      <trkpt lat="46.2278" lon="5.43016">
        <ele>353.8</ele>
        <time>2022-03-26T15:48:18Z</time>
      </trkpt>
      <trkpt lat="46.22782" lon="5.43027">
        <ele>353.4</ele>
        <time>2022-03-26T15:48:19Z</time>
      </trkpt>
      <trkpt lat="46.22785" lon="5.43035">
        <ele>352.2</ele>
        <time>2022-03-26T15:48:20Z</time>
      </trkpt>
      <trkpt lat="46.22788" lon="5.43039">
        <ele>351.6</ele>
        <time>2022-03-26T15:48:21Z</time>
      </trkpt>
      <trkpt lat="46.22794" lon="5.4304">
        <ele>350.6</ele>
        <time>2022-03-26T15:48:22Z</time>
      </trkpt>
      <trkpt lat="46.22799" lon="5.43038">
        <ele>350</ele>
        <time>2022-03-26T15:48:23Z</time>
      </trkpt>
      <trkpt lat="46.22808" lon="5.43032">
        <ele>349.4</ele>
        <time>2022-03-26T15:48:24Z</time>
      </trkpt>
      <trkpt lat="46.22827" lon="5.43015">
        <ele>348.6</ele>
        <time>2022-03-26T15:48:27Z</time>
      </trkpt>
      <trkpt lat="46.22832" lon="5.4301">
        <ele>348.4</ele>
        <time>2022-03-26T15:48:28Z</time>
      </trkpt>
      <trkpt lat="46.22849" lon="5.4299">
        <ele>347.2</ele>
        <time>2022-03-26T15:48:31Z</time>
      </trkpt>
      <trkpt lat="46.22854" lon="5.42984">
        <ele>346.6</ele>
        <time>2022-03-26T15:48:32Z</time>
      </trkpt>
      <trkpt lat="46.22857" lon="5.42976">
        <ele>346.4</ele>
        <time>2022-03-26T15:48:33Z</time>
      </trkpt>
      <trkpt lat="46.22858" lon="5.42966">
        <ele>345.8</ele>
        <time>2022-03-26T15:48:34Z</time>
      </trkpt>
      <trkpt lat="46.2286" lon="5.42957">
        <ele>345.6</ele>
        <time>2022-03-26T15:48:35Z</time>
      </trkpt>
      <trkpt lat="46.22862" lon="5.42935">
        <ele>344.6</ele>
        <time>2022-03-26T15:48:37Z</time>
      </trkpt>
      <trkpt lat="46.2286" lon="5.42911">
        <ele>343.2</ele>
        <time>2022-03-26T15:48:39Z</time>
      </trkpt>
      <trkpt lat="46.22852" lon="5.4286">
        <ele>342</ele>
        <time>2022-03-26T15:48:43Z</time>
      </trkpt>
      <trkpt lat="46.2285" lon="5.42847">
        <ele>341.6</ele>
        <time>2022-03-26T15:48:44Z</time>
      </trkpt>
      <trkpt lat="46.22845" lon="5.42818">
        <ele>340.8</ele>
        <time>2022-03-26T15:48:46Z</time>
      </trkpt>
      <trkpt lat="46.2284" lon="5.42788">
        <ele>339.4</ele>
        <time>2022-03-26T15:48:48Z</time>
      </trkpt>
      <trkpt lat="46.22837" lon="5.42772">
        <ele>338.8</ele>
        <time>2022-03-26T15:48:49Z</time>
      </trkpt>
      <trkpt lat="46.22834" lon="5.42758">
        <ele>338</ele>
        <time>2022-03-26T15:48:50Z</time>
      </trkpt>
      <trkpt lat="46.22832" lon="5.42744">
        <ele>337.4</ele>
        <time>2022-03-26T15:48:51Z</time>
      </trkpt>
      <trkpt lat="46.22831" lon="5.42729">
        <ele>336.6</ele>
        <time>2022-03-26T15:48:52Z</time>
      </trkpt>
      <trkpt lat="46.22831" lon="5.42715">
        <ele>336.2</ele>
        <time>2022-03-26T15:48:53Z</time>
      </trkpt>
      <trkpt lat="46.22833" lon="5.427">
        <ele>335</ele>
        <time>2022-03-26T15:48:54Z</time>
      </trkpt>
      <trkpt lat="46.22833" lon="5.42653">
        <ele>333.6</ele>
        <time>2022-03-26T15:48:57Z</time>
      </trkpt>
      <trkpt lat="46.2283" lon="5.42622">
        <ele>332</ele>
        <time>2022-03-26T15:48:59Z</time>
      </trkpt>
      <trkpt lat="46.22825" lon="5.42592">
        <ele>330.6</ele>
        <time>2022-03-26T15:49:01Z</time>
      </trkpt>
      <trkpt lat="46.22814" lon="5.42549">
        <ele>329.2</ele>
        <time>2022-03-26T15:49:04Z</time>
      </trkpt>
      <trkpt lat="46.22804" lon="5.42523">
        <ele>328</ele>
        <time>2022-03-26T15:49:06Z</time>
      </trkpt>
      <trkpt lat="46.22791" lon="5.42485">
        <ele>327</ele>
        <time>2022-03-26T15:49:09Z</time>
      </trkpt>
      <trkpt lat="46.22777" lon="5.42436">
        <ele>326</ele>
        <time>2022-03-26T15:49:13Z</time>
      </trkpt>
      <trkpt lat="46.22759" lon="5.42371">
        <ele>324.8</ele>
        <time>2022-03-26T15:49:18Z</time>
      </trkpt>
      <trkpt lat="46.22751" lon="5.42348">
        <ele>324.4</ele>
        <time>2022-03-26T15:49:20Z</time>
      </trkpt>
      <trkpt lat="46.22738" lon="5.42317">
        <ele>323.8</ele>
        <time>2022-03-26T15:49:23Z</time>
      </trkpt>
      <trkpt lat="46.22719" lon="5.42272">
        <ele>322.8</ele>
        <time>2022-03-26T15:49:27Z</time>
      </trkpt>
      <trkpt lat="46.22715" lon="5.42261">
        <ele>322.6</ele>
        <time>2022-03-26T15:49:28Z</time>
      </trkpt>
      <trkpt lat="46.22701" lon="5.42226">
        <ele>321.6</ele>
        <time>2022-03-26T15:49:31Z</time>
      </trkpt>
      <trkpt lat="46.22685" lon="5.42185">
        <ele>320.8</ele>
        <time>2022-03-26T15:49:35Z</time>
      </trkpt>
      <trkpt lat="46.22677" lon="5.42165">
        <ele>320.4</ele>
        <time>2022-03-26T15:49:37Z</time>
      </trkpt>
      <trkpt lat="46.2266" lon="5.42126">
        <ele>320</ele>
        <time>2022-03-26T15:49:41Z</time>
      </trkpt>
      <trkpt lat="46.22644" lon="5.42101">
        <ele>320</ele>
        <time>2022-03-26T15:49:44Z</time>
      </trkpt>
      <trkpt lat="46.22637" lon="5.42095">
        <ele>320</ele>
        <time>2022-03-26T15:49:45Z</time>
      </trkpt>
      <trkpt lat="46.22631" lon="5.4209">
        <ele>320.2</ele>
        <time>2022-03-26T15:49:46Z</time>
      </trkpt>
      <trkpt lat="46.22602" lon="5.42073">
        <ele>320.4</ele>
        <time>2022-03-26T15:49:50Z</time>
      </trkpt>
      <trkpt lat="46.22549" lon="5.42046">
        <ele>320.2</ele>
        <time>2022-03-26T15:49:58Z</time>
      </trkpt>
      <trkpt lat="46.22542" lon="5.42044">
        <ele>320.2</ele>
        <time>2022-03-26T15:49:59Z</time>
      </trkpt>
      <trkpt lat="46.22499" lon="5.42021">
        <ele>320.8</ele>
        <time>2022-03-26T15:50:06Z</time>
      </trkpt>
      <trkpt lat="46.22457" lon="5.41996">
        <ele>321.4</ele>
        <time>2022-03-26T15:50:13Z</time>
      </trkpt>
      <trkpt lat="46.22433" lon="5.41979">
        <ele>322.2</ele>
        <time>2022-03-26T15:50:18Z</time>
      </trkpt>
      <trkpt lat="46.22412" lon="5.4196">
        <ele>322.4</ele>
        <time>2022-03-26T15:50:23Z</time>
      </trkpt>
      <trkpt lat="46.2241" lon="5.41955">
        <ele>322.6</ele>
        <time>2022-03-26T15:50:24Z</time>
      </trkpt>
      <trkpt lat="46.22412" lon="5.41943">
        <ele>322.6</ele>
        <time>2022-03-26T15:50:26Z</time>
      </trkpt>
      <trkpt lat="46.22415" lon="5.41936">
        <ele>322.6</ele>
        <time>2022-03-26T15:50:27Z</time>
      </trkpt>
      <trkpt lat="46.22427" lon="5.41891">
        <ele>321.8</ele>
        <time>2022-03-26T15:50:32Z</time>
      </trkpt>
      <trkpt lat="46.22432" lon="5.41871">
        <ele>321</ele>
        <time>2022-03-26T15:50:34Z</time>
      </trkpt>
      <trkpt lat="46.22438" lon="5.41851">
        <ele>320.6</ele>
        <time>2022-03-26T15:50:36Z</time>
      </trkpt>
      <trkpt lat="46.22443" lon="5.4183">
        <ele>320</ele>
        <time>2022-03-26T15:50:38Z</time>
      </trkpt>
      <trkpt lat="46.22445" lon="5.41819">
        <ele>319.6</ele>
        <time>2022-03-26T15:50:39Z</time>
      </trkpt>
      <trkpt lat="46.2246" lon="5.41754">
        <ele>319</ele>
        <time>2022-03-26T15:50:45Z</time>
      </trkpt>
      <trkpt lat="46.2248" lon="5.41676">
        <ele>318.6</ele>
        <time>2022-03-26T15:50:53Z</time>
      </trkpt>
      <trkpt lat="46.22483" lon="5.41668">
        <ele>318.6</ele>
        <time>2022-03-26T15:50:54Z</time>
      </trkpt>
      <trkpt lat="46.22491" lon="5.41649">
        <ele>318.6</ele>
        <time>2022-03-26T15:50:57Z</time>
      </trkpt>
      <trkpt lat="46.22499" lon="5.41645">
        <ele>318.8</ele>
        <time>2022-03-26T15:50:59Z</time>
      </trkpt>
      <trkpt lat="46.22507" lon="5.41649">
        <ele>318.8</ele>
        <time>2022-03-26T15:51:01Z</time>
      </trkpt>
      <trkpt lat="46.22512" lon="5.41654">
        <ele>319</ele>
        <time>2022-03-26T15:51:02Z</time>
      </trkpt>
      <trkpt lat="46.22536" lon="5.41683">
        <ele>319.2</ele>
        <time>2022-03-26T15:51:07Z</time>
      </trkpt>
      <trkpt lat="46.22541" lon="5.4169">
        <ele>319.2</ele>
        <time>2022-03-26T15:51:08Z</time>
      </trkpt>
      <trkpt lat="46.22557" lon="5.41719">
        <ele>319.4</ele>
        <time>2022-03-26T15:51:12Z</time>
      </trkpt>
      <trkpt lat="46.22562" lon="5.41725">
        <ele>319.4</ele>
        <time>2022-03-26T15:51:13Z</time>
      </trkpt>
      <trkpt lat="46.22571" lon="5.41733">
        <ele>319.6</ele>
        <time>2022-03-26T15:51:15Z</time>
      </trkpt>
      <trkpt lat="46.22586" lon="5.41738">
        <ele>320</ele>
        <time>2022-03-26T15:51:18Z</time>
      </trkpt>
      <trkpt lat="46.22592" lon="5.41739">
        <ele>320.2</ele>
        <time>2022-03-26T15:51:19Z</time>
      </trkpt>
      <trkpt lat="46.22622" lon="5.41742">
        <ele>321.4</ele>
        <time>2022-03-26T15:51:25Z</time>
      </trkpt>
      <trkpt lat="46.2264" lon="5.41746">
        <ele>322.4</ele>
        <time>2022-03-26T15:51:29Z</time>
      </trkpt>
      <trkpt lat="46.2265" lon="5.41747">
        <ele>322.8</ele>
        <time>2022-03-26T15:51:31Z</time>
      </trkpt>
      <trkpt lat="46.22666" lon="5.41747">
        <ele>323.6</ele>
        <time>2022-03-26T15:51:34Z</time>
      </trkpt>
      <trkpt lat="46.22691" lon="5.4175">
        <ele>324</ele>
        <time>2022-03-26T15:51:39Z</time>
      </trkpt>
      <trkpt lat="46.22747" lon="5.4175">
        <ele>324.4</ele>
        <time>2022-03-26T15:51:49Z</time>
      </trkpt>
      <trkpt lat="46.22752" lon="5.41751">
        <ele>324.4</ele>
        <time>2022-03-26T15:51:50Z</time>
      </trkpt>
      <trkpt lat="46.22773" lon="5.41754">
        <ele>324.6</ele>
        <time>2022-03-26T15:51:54Z</time>
      </trkpt>
      <trkpt lat="46.22782" lon="5.41755">
        <ele>324.6</ele>
        <time>2022-03-26T15:51:56Z</time>
      </trkpt>
      <trkpt lat="46.22841" lon="5.41766">
        <ele>325.2</ele>
        <time>2022-03-26T15:52:06Z</time>
      </trkpt>
      <trkpt lat="46.22848" lon="5.41767">
        <ele>325.2</ele>
        <time>2022-03-26T15:52:07Z</time>
      </trkpt>
      <trkpt lat="46.2286" lon="5.41769">
        <ele>325.2</ele>
        <time>2022-03-26T15:52:09Z</time>
      </trkpt>
      <trkpt lat="46.22882" lon="5.4178">
        <ele>325</ele>
        <time>2022-03-26T15:52:13Z</time>
      </trkpt>
      <trkpt lat="46.22923" lon="5.4181">
        <ele>325</ele>
        <time>2022-03-26T15:52:21Z</time>
      </trkpt>
      <trkpt lat="46.22963" lon="5.41843">
        <ele>325.8</ele>
        <time>2022-03-26T15:52:29Z</time>
      </trkpt>
      <trkpt lat="46.22969" lon="5.41848">
        <ele>325.8</ele>
        <time>2022-03-26T15:52:30Z</time>
      </trkpt>
      <trkpt lat="46.23013" lon="5.41883">
        <ele>326.2</ele>
        <time>2022-03-26T15:52:38Z</time>
      </trkpt>
      <trkpt lat="46.23064" lon="5.41917">
        <ele>326.2</ele>
        <time>2022-03-26T15:52:46Z</time>
      </trkpt>
      <trkpt lat="46.23071" lon="5.41921">
        <ele>326.2</ele>
        <time>2022-03-26T15:52:47Z</time>
      </trkpt>
      <trkpt lat="46.23118" lon="5.41952">
        <ele>326.2</ele>
        <time>2022-03-26T15:52:55Z</time>
      </trkpt>
      <trkpt lat="46.2317" lon="5.41981">
        <ele>327</ele>
        <time>2022-03-26T15:53:04Z</time>
      </trkpt>
      <trkpt lat="46.23181" lon="5.41987">
        <ele>327.2</ele>
        <time>2022-03-26T15:53:06Z</time>
      </trkpt>
      <trkpt lat="46.23219" lon="5.42009">
        <ele>327.4</ele>
        <time>2022-03-26T15:53:13Z</time>
      </trkpt>
      <trkpt lat="46.23265" lon="5.42044">
        <ele>327.8</ele>
        <time>2022-03-26T15:53:22Z</time>
      </trkpt>
      <trkpt lat="46.2327" lon="5.42048">
        <ele>328.2</ele>
        <time>2022-03-26T15:53:23Z</time>
      </trkpt>
      <trkpt lat="46.23276" lon="5.42053">
        <ele>328.2</ele>
        <time>2022-03-26T15:53:24Z</time>
      </trkpt>
      <trkpt lat="46.23295" lon="5.42075">
        <ele>328.6</ele>
        <time>2022-03-26T15:53:28Z</time>
      </trkpt>
      <trkpt lat="46.23333" lon="5.42118">
        <ele>329.2</ele>
        <time>2022-03-26T15:53:36Z</time>
      </trkpt>
      <trkpt lat="46.23342" lon="5.42128">
        <ele>329.2</ele>
        <time>2022-03-26T15:53:38Z</time>
      </trkpt>
      <trkpt lat="46.23385" lon="5.42168">
        <ele>328.4</ele>
        <time>2022-03-26T15:53:46Z</time>
      </trkpt>
      <trkpt lat="46.23391" lon="5.42172">
        <ele>328.2</ele>
        <time>2022-03-26T15:53:47Z</time>
      </trkpt>
      <trkpt lat="46.23396" lon="5.42176">
        <ele>328.2</ele>
        <time>2022-03-26T15:53:48Z</time>
      </trkpt>
      <trkpt lat="46.23434" lon="5.42209">
        <ele>327.2</ele>
        <time>2022-03-26T15:53:55Z</time>
      </trkpt>
      <trkpt lat="46.2344" lon="5.42215">
        <ele>327</ele>
        <time>2022-03-26T15:53:56Z</time>
      </trkpt>
      <trkpt lat="46.23458" lon="5.4223">
        <ele>325.8</ele>
        <time>2022-03-26T15:53:59Z</time>
      </trkpt>
      <trkpt lat="46.23465" lon="5.42234">
        <ele>325.6</ele>
        <time>2022-03-26T15:54:00Z</time>
      </trkpt>
      <trkpt lat="46.23505" lon="5.42254">
        <ele>325.2</ele>
        <time>2022-03-26T15:54:06Z</time>
      </trkpt>
      <trkpt lat="46.23558" lon="5.42271">
        <ele>325.6</ele>
        <time>2022-03-26T15:54:14Z</time>
      </trkpt>
      <trkpt lat="46.23564" lon="5.42274">
        <ele>325.6</ele>
        <time>2022-03-26T15:54:15Z</time>
      </trkpt>
      <trkpt lat="46.23616" lon="5.42296">
        <ele>325.8</ele>
        <time>2022-03-26T15:54:23Z</time>
      </trkpt>
      <trkpt lat="46.23623" lon="5.42299">
        <ele>325.8</ele>
        <time>2022-03-26T15:54:24Z</time>
      </trkpt>
      <trkpt lat="46.23678" lon="5.42322">
        <ele>325</ele>
        <time>2022-03-26T15:54:32Z</time>
      </trkpt>
      <trkpt lat="46.23692" lon="5.42328">
        <ele>324.8</ele>
        <time>2022-03-26T15:54:34Z</time>
      </trkpt>
      <trkpt lat="46.23699" lon="5.42331">
        <ele>324.8</ele>
        <time>2022-03-26T15:54:35Z</time>
      </trkpt>
      <trkpt lat="46.23741" lon="5.42346">
        <ele>324</ele>
        <time>2022-03-26T15:54:41Z</time>
      </trkpt>
      <trkpt lat="46.23755" lon="5.42349">
        <ele>323.6</ele>
        <time>2022-03-26T15:54:43Z</time>
      </trkpt>
      <trkpt lat="46.23798" lon="5.42354">
        <ele>323.2</ele>
        <time>2022-03-26T15:54:49Z</time>
      </trkpt>
      <trkpt lat="46.23847" lon="5.42355">
        <ele>322.6</ele>
        <time>2022-03-26T15:54:56Z</time>
      </trkpt>
      <trkpt lat="46.23893" lon="5.4234">
        <ele>322.6</ele>
        <time>2022-03-26T15:55:03Z</time>
      </trkpt>
      <trkpt lat="46.23919" lon="5.42332">
        <ele>322.8</ele>
        <time>2022-03-26T15:55:07Z</time>
      </trkpt>
      <trkpt lat="46.23939" lon="5.42328">
        <ele>323</ele>
        <time>2022-03-26T15:55:10Z</time>
      </trkpt>
      <trkpt lat="46.23997" lon="5.42326">
        <ele>323.4</ele>
        <time>2022-03-26T15:55:19Z</time>
      </trkpt>
      <trkpt lat="46.24003" lon="5.42327">
        <ele>323.6</ele>
        <time>2022-03-26T15:55:20Z</time>
      </trkpt>
      <trkpt lat="46.24028" lon="5.42328">
        <ele>323.6</ele>
        <time>2022-03-26T15:55:24Z</time>
      </trkpt>
      <trkpt lat="46.24034" lon="5.42327">
        <ele>323.6</ele>
        <time>2022-03-26T15:55:25Z</time>
      </trkpt>
      <trkpt lat="46.24052" lon="5.42327">
        <ele>324.2</ele>
        <time>2022-03-26T15:55:28Z</time>
      </trkpt>
      <trkpt lat="46.24076" lon="5.42325">
        <ele>324.8</ele>
        <time>2022-03-26T15:55:32Z</time>
      </trkpt>
      <trkpt lat="46.24087" lon="5.42321">
        <ele>325</ele>
        <time>2022-03-26T15:55:34Z</time>
      </trkpt>
      <trkpt lat="46.24115" lon="5.42309">
        <ele>325.8</ele>
        <time>2022-03-26T15:55:39Z</time>
      </trkpt>
      <trkpt lat="46.24132" lon="5.42302">
        <ele>326.2</ele>
        <time>2022-03-26T15:55:42Z</time>
      </trkpt>
      <trkpt lat="46.24149" lon="5.42298">
        <ele>326.6</ele>
        <time>2022-03-26T15:55:45Z</time>
      </trkpt>
      <trkpt lat="46.2416" lon="5.42297">
        <ele>326.8</ele>
        <time>2022-03-26T15:55:47Z</time>
      </trkpt>
      <trkpt lat="46.24199" lon="5.42302">
        <ele>328</ele>
        <time>2022-03-26T15:55:54Z</time>
      </trkpt>
      <trkpt lat="46.24211" lon="5.42303">
        <ele>328</ele>
        <time>2022-03-26T15:55:56Z</time>
      </trkpt>
      <trkpt lat="46.24246" lon="5.42301">
        <ele>328.4</ele>
        <time>2022-03-26T15:56:02Z</time>
      </trkpt>
      <trkpt lat="46.24279" lon="5.42299">
        <ele>328.6</ele>
        <time>2022-03-26T15:56:08Z</time>
      </trkpt>
      <trkpt lat="46.24284" lon="5.42299">
        <ele>328.6</ele>
        <time>2022-03-26T15:56:09Z</time>
      </trkpt>
      <trkpt lat="46.24304" lon="5.42296">
        <ele>328.8</ele>
        <time>2022-03-26T15:56:13Z</time>
      </trkpt>
      <trkpt lat="46.24324" lon="5.42294">
        <ele>328.8</ele>
        <time>2022-03-26T15:56:17Z</time>
      </trkpt>
      <trkpt lat="46.24335" lon="5.42293">
        <ele>329</ele>
        <time>2022-03-26T15:56:19Z</time>
      </trkpt>
      <trkpt lat="46.2437" lon="5.42293">
        <ele>329.4</ele>
        <time>2022-03-26T15:56:25Z</time>
      </trkpt>
      <trkpt lat="46.24376" lon="5.42292">
        <ele>329.4</ele>
        <time>2022-03-26T15:56:26Z</time>
      </trkpt>
      <trkpt lat="46.24421" lon="5.42291">
        <ele>328.8</ele>
        <time>2022-03-26T15:56:33Z</time>
      </trkpt>
      <trkpt lat="46.24461" lon="5.42291">
        <ele>328</ele>
        <time>2022-03-26T15:56:39Z</time>
      </trkpt>
      <trkpt lat="46.24517" lon="5.42298">
        <ele>328.2</ele>
        <time>2022-03-26T15:56:47Z</time>
      </trkpt>
      <trkpt lat="46.24531" lon="5.42301">
        <ele>328.2</ele>
        <time>2022-03-26T15:56:49Z</time>
      </trkpt>
      <trkpt lat="46.2458" lon="5.42314">
        <ele>327.6</ele>
        <time>2022-03-26T15:56:56Z</time>
      </trkpt>
      <trkpt lat="46.24594" lon="5.42317">
        <ele>327.4</ele>
        <time>2022-03-26T15:56:58Z</time>
      </trkpt>
      <trkpt lat="46.24623" lon="5.42326">
        <ele>327.2</ele>
        <time>2022-03-26T15:57:03Z</time>
      </trkpt>
      <trkpt lat="46.24637" lon="5.4233">
        <ele>327.2</ele>
        <time>2022-03-26T15:57:06Z</time>
      </trkpt>
      <trkpt lat="46.24646" lon="5.42334">
        <ele>327.2</ele>
        <time>2022-03-26T15:57:08Z</time>
      </trkpt>
      <trkpt lat="46.24673" lon="5.42338">
        <ele>327.4</ele>
        <time>2022-03-26T15:57:13Z</time>
      </trkpt>
      <trkpt lat="46.24708" lon="5.42344">
        <ele>326.4</ele>
        <time>2022-03-26T15:57:18Z</time>
      </trkpt>
      <trkpt lat="46.24721" lon="5.42346">
        <ele>326.4</ele>
        <time>2022-03-26T15:57:20Z</time>
      </trkpt>
      <trkpt lat="46.24765" lon="5.42352">
        <ele>326.2</ele>
        <time>2022-03-26T15:57:27Z</time>
      </trkpt>
      <trkpt lat="46.24819" lon="5.4236">
        <ele>326.2</ele>
        <time>2022-03-26T15:57:35Z</time>
      </trkpt>
      <trkpt lat="46.24876" lon="5.42369">
        <ele>326.2</ele>
        <time>2022-03-26T15:57:44Z</time>
      </trkpt>
      <trkpt lat="46.24882" lon="5.42369">
        <ele>326.2</ele>
        <time>2022-03-26T15:57:45Z</time>
      </trkpt>
      <trkpt lat="46.24926" lon="5.42376">
        <ele>326.2</ele>
        <time>2022-03-26T15:57:52Z</time>
      </trkpt>
      <trkpt lat="46.2498" lon="5.42382">
        <ele>326.4</ele>
        <time>2022-03-26T15:58:00Z</time>
      </trkpt>
      <trkpt lat="46.25039" lon="5.42389">
        <ele>326.4</ele>
        <time>2022-03-26T15:58:09Z</time>
      </trkpt>
      <trkpt lat="46.25058" lon="5.42391">
        <ele>326.4</ele>
        <time>2022-03-26T15:58:12Z</time>
      </trkpt>
      <trkpt lat="46.25116" lon="5.42397">
        <ele>326.6</ele>
        <time>2022-03-26T15:58:21Z</time>
      </trkpt>
      <trkpt lat="46.25122" lon="5.42397">
        <ele>326.6</ele>
        <time>2022-03-26T15:58:22Z</time>
      </trkpt>
      <trkpt lat="46.25179" lon="5.42404">
        <ele>326.6</ele>
        <time>2022-03-26T15:58:31Z</time>
      </trkpt>
      <trkpt lat="46.25204" lon="5.42408">
        <ele>326.8</ele>
        <time>2022-03-26T15:58:35Z</time>
      </trkpt>
      <trkpt lat="46.2526" lon="5.42417">
        <ele>327</ele>
        <time>2022-03-26T15:58:44Z</time>
      </trkpt>
      <trkpt lat="46.25267" lon="5.42418">
        <ele>327</ele>
        <time>2022-03-26T15:58:45Z</time>
      </trkpt>
      <trkpt lat="46.25326" lon="5.42427">
        <ele>326.8</ele>
        <time>2022-03-26T15:58:54Z</time>
      </trkpt>
      <trkpt lat="46.25339" lon="5.4243">
        <ele>326.6</ele>
        <time>2022-03-26T15:58:56Z</time>
      </trkpt>
      <trkpt lat="46.25396" lon="5.42439">
        <ele>326.6</ele>
        <time>2022-03-26T15:59:05Z</time>
      </trkpt>
      <trkpt lat="46.25409" lon="5.42441">
        <ele>326.6</ele>
        <time>2022-03-26T15:59:07Z</time>
      </trkpt>
      <trkpt lat="46.25466" lon="5.4245">
        <ele>326.6</ele>
        <time>2022-03-26T15:59:16Z</time>
      </trkpt>
      <trkpt lat="46.25522" lon="5.42458">
        <ele>326.8</ele>
        <time>2022-03-26T15:59:25Z</time>
      </trkpt>
      <trkpt lat="46.25534" lon="5.4246">
        <ele>326.8</ele>
        <time>2022-03-26T15:59:27Z</time>
      </trkpt>
      <trkpt lat="46.25591" lon="5.4247">
        <ele>326.8</ele>
        <time>2022-03-26T15:59:36Z</time>
      </trkpt>
      <trkpt lat="46.25604" lon="5.42471">
        <ele>326.8</ele>
        <time>2022-03-26T15:59:38Z</time>
      </trkpt>
      <trkpt lat="46.25659" lon="5.42481">
        <ele>326.4</ele>
        <time>2022-03-26T15:59:47Z</time>
      </trkpt>
      <trkpt lat="46.2571" lon="5.42489">
        <ele>327</ele>
        <time>2022-03-26T15:59:56Z</time>
      </trkpt>
      <trkpt lat="46.25766" lon="5.42497">
        <ele>327.6</ele>
        <time>2022-03-26T16:00:06Z</time>
      </trkpt>
      <trkpt lat="46.25822" lon="5.42505">
        <ele>327.4</ele>
        <time>2022-03-26T16:00:16Z</time>
      </trkpt>
      <trkpt lat="46.25872" lon="5.42514">
        <ele>327.4</ele>
        <time>2022-03-26T16:00:25Z</time>
      </trkpt>
      <trkpt lat="46.25904" lon="5.42519">
        <ele>327.8</ele>
        <time>2022-03-26T16:00:31Z</time>
      </trkpt>
      <trkpt lat="46.25931" lon="5.42523">
        <ele>328</ele>
        <time>2022-03-26T16:00:36Z</time>
      </trkpt>
      <trkpt lat="46.25937" lon="5.42524">
        <ele>328.2</ele>
        <time>2022-03-26T16:00:37Z</time>
      </trkpt>
      <trkpt lat="46.25995" lon="5.42533">
        <ele>328.6</ele>
        <time>2022-03-26T16:00:47Z</time>
      </trkpt>
      <trkpt lat="46.26054" lon="5.42542">
        <ele>328.6</ele>
        <time>2022-03-26T16:00:57Z</time>
      </trkpt>
      <trkpt lat="46.2606" lon="5.42543">
        <ele>328.6</ele>
        <time>2022-03-26T16:00:58Z</time>
      </trkpt>
      <trkpt lat="46.2612" lon="5.42552">
        <ele>328.6</ele>
        <time>2022-03-26T16:01:08Z</time>
      </trkpt>
      <trkpt lat="46.26132" lon="5.42554">
        <ele>328.6</ele>
        <time>2022-03-26T16:01:10Z</time>
      </trkpt>
      <trkpt lat="46.2619" lon="5.42563">
        <ele>328.8</ele>
        <time>2022-03-26T16:01:20Z</time>
      </trkpt>
      <trkpt lat="46.26196" lon="5.42563">
        <ele>328.8</ele>
        <time>2022-03-26T16:01:21Z</time>
      </trkpt>
      <trkpt lat="46.26225" lon="5.42566">
        <ele>329</ele>
        <time>2022-03-26T16:01:26Z</time>
      </trkpt>
      <trkpt lat="46.26244" lon="5.42567">
        <ele>329</ele>
        <time>2022-03-26T16:01:29Z</time>
      </trkpt>
      <trkpt lat="46.26291" lon="5.42575">
        <ele>329</ele>
        <time>2022-03-26T16:01:37Z</time>
      </trkpt>
      <trkpt lat="46.26326" lon="5.42579">
        <ele>329.2</ele>
        <time>2022-03-26T16:01:43Z</time>
      </trkpt>
      <trkpt lat="46.26366" lon="5.42588">
        <ele>329.4</ele>
        <time>2022-03-26T16:01:50Z</time>
      </trkpt>
      <trkpt lat="46.26405" lon="5.42593">
        <ele>329.4</ele>
        <time>2022-03-26T16:01:57Z</time>
      </trkpt>
      <trkpt lat="46.26437" lon="5.42597">
        <ele>329.8</ele>
        <time>2022-03-26T16:02:02Z</time>
      </trkpt>
      <trkpt lat="46.26448" lon="5.42598">
        <ele>329.8</ele>
        <time>2022-03-26T16:02:04Z</time>
      </trkpt>
      <trkpt lat="46.26465" lon="5.42604">
        <ele>330</ele>
        <time>2022-03-26T16:02:07Z</time>
      </trkpt>
      <trkpt lat="46.26508" lon="5.42617">
        <ele>330.4</ele>
        <time>2022-03-26T16:02:15Z</time>
      </trkpt>
      <trkpt lat="46.26556" lon="5.42624">
        <ele>330.6</ele>
        <time>2022-03-26T16:02:23Z</time>
      </trkpt>
      <trkpt lat="46.26606" lon="5.42635">
        <ele>330.6</ele>
        <time>2022-03-26T16:02:31Z</time>
      </trkpt>
      <trkpt lat="46.26659" lon="5.42649">
        <ele>331</ele>
        <time>2022-03-26T16:02:40Z</time>
      </trkpt>
      <trkpt lat="46.26665" lon="5.42651">
        <ele>331</ele>
        <time>2022-03-26T16:02:41Z</time>
      </trkpt>
      <trkpt lat="46.26722" lon="5.42666">
        <ele>331.8</ele>
        <time>2022-03-26T16:02:51Z</time>
      </trkpt>
      <trkpt lat="46.2678" lon="5.42681">
        <ele>331.4</ele>
        <time>2022-03-26T16:03:00Z</time>
      </trkpt>
      <trkpt lat="46.26836" lon="5.42697">
        <ele>331.2</ele>
        <time>2022-03-26T16:03:09Z</time>
      </trkpt>
      <trkpt lat="46.26848" lon="5.42702">
        <ele>331.2</ele>
        <time>2022-03-26T16:03:11Z</time>
      </trkpt>
      <trkpt lat="46.26895" lon="5.42721">
        <ele>332</ele>
        <time>2022-03-26T16:03:20Z</time>
      </trkpt>
      <trkpt lat="46.269" lon="5.42723">
        <ele>332.4</ele>
        <time>2022-03-26T16:03:21Z</time>
      </trkpt>
      <trkpt lat="46.26937" lon="5.42737">
        <ele>333.4</ele>
        <time>2022-03-26T16:03:28Z</time>
      </trkpt>
      <trkpt lat="46.26943" lon="5.42738">
        <ele>333.4</ele>
        <time>2022-03-26T16:03:29Z</time>
      </trkpt>
      <trkpt lat="46.26974" lon="5.42748">
        <ele>334</ele>
        <time>2022-03-26T16:03:35Z</time>
      </trkpt>
      <trkpt lat="46.27028" lon="5.42761">
        <ele>334.2</ele>
        <time>2022-03-26T16:03:44Z</time>
      </trkpt>
      <trkpt lat="46.27028" lon="5.42761">
        <ele>334.2</ele>
        <time>2022-03-26T16:03:45Z</time>
      </trkpt>
      <trkpt lat="46.27052" lon="5.42765">
        <ele>334.4</ele>
        <time>2022-03-26T16:03:49Z</time>
      </trkpt>
      <trkpt lat="46.27073" lon="5.42767">
        <ele>334.8</ele>
        <time>2022-03-26T16:03:53Z</time>
      </trkpt>
      <trkpt lat="46.27092" lon="5.42769">
        <ele>335.4</ele>
        <time>2022-03-26T16:03:58Z</time>
      </trkpt>
      <trkpt lat="46.27111" lon="5.4277">
        <ele>336</ele>
        <time>2022-03-26T16:04:01Z</time>
      </trkpt>
      <trkpt lat="46.27135" lon="5.42774">
        <ele>336.6</ele>
        <time>2022-03-26T16:04:06Z</time>
      </trkpt>
      <trkpt lat="46.27145" lon="5.42776">
        <ele>337</ele>
        <time>2022-03-26T16:04:08Z</time>
      </trkpt>
      <trkpt lat="46.2716" lon="5.42782">
        <ele>337.2</ele>
        <time>2022-03-26T16:04:11Z</time>
      </trkpt>
      <trkpt lat="46.27184" lon="5.42794">
        <ele>337.8</ele>
        <time>2022-03-26T16:04:16Z</time>
      </trkpt>
      <trkpt lat="46.27211" lon="5.42809">
        <ele>338.4</ele>
        <time>2022-03-26T16:04:21Z</time>
      </trkpt>
      <trkpt lat="46.27251" lon="5.42835">
        <ele>338</ele>
        <time>2022-03-26T16:04:28Z</time>
      </trkpt>
      <trkpt lat="46.273" lon="5.42868">
        <ele>336.8</ele>
        <time>2022-03-26T16:04:36Z</time>
      </trkpt>
      <trkpt lat="46.27307" lon="5.42872">
        <ele>336.4</ele>
        <time>2022-03-26T16:04:37Z</time>
      </trkpt>
      <trkpt lat="46.27328" lon="5.42884">
        <ele>335.8</ele>
        <time>2022-03-26T16:04:40Z</time>
      </trkpt>
      <trkpt lat="46.2735" lon="5.42892">
        <ele>335.2</ele>
        <time>2022-03-26T16:04:43Z</time>
      </trkpt>
      <trkpt lat="46.27377" lon="5.42902">
        <ele>334.6</ele>
        <time>2022-03-26T16:04:47Z</time>
      </trkpt>
      <trkpt lat="46.27397" lon="5.42909">
        <ele>334</ele>
        <time>2022-03-26T16:04:50Z</time>
      </trkpt>
      <trkpt lat="46.2745" lon="5.42926">
        <ele>333.8</ele>
        <time>2022-03-26T16:04:58Z</time>
      </trkpt>
      <trkpt lat="46.27503" lon="5.42942">
        <ele>334.2</ele>
        <time>2022-03-26T16:05:06Z</time>
      </trkpt>
      <trkpt lat="46.27521" lon="5.42948">
        <ele>334.2</ele>
        <time>2022-03-26T16:05:09Z</time>
      </trkpt>
      <trkpt lat="46.27577" lon="5.42967">
        <ele>334</ele>
        <time>2022-03-26T16:05:18Z</time>
      </trkpt>
      <trkpt lat="46.27584" lon="5.4297">
        <ele>334</ele>
        <time>2022-03-26T16:05:19Z</time>
      </trkpt>
      <trkpt lat="46.27639" lon="5.42988">
        <ele>333.8</ele>
        <time>2022-03-26T16:05:28Z</time>
      </trkpt>
      <trkpt lat="46.27692" lon="5.43006">
        <ele>334</ele>
        <time>2022-03-26T16:05:37Z</time>
      </trkpt>
      <trkpt lat="46.27698" lon="5.43009">
        <ele>334</ele>
        <time>2022-03-26T16:05:38Z</time>
      </trkpt>
      <trkpt lat="46.27754" lon="5.43031">
        <ele>334</ele>
        <time>2022-03-26T16:05:47Z</time>
      </trkpt>
      <trkpt lat="46.27813" lon="5.4305">
        <ele>333.4</ele>
        <time>2022-03-26T16:05:56Z</time>
      </trkpt>
      <trkpt lat="46.2786" lon="5.43048">
        <ele>332.4</ele>
        <time>2022-03-26T16:06:03Z</time>
      </trkpt>
      <trkpt lat="46.2791" lon="5.43054">
        <ele>332.4</ele>
        <time>2022-03-26T16:06:11Z</time>
      </trkpt>
      <trkpt lat="46.27952" lon="5.43062">
        <ele>332.6</ele>
        <time>2022-03-26T16:06:18Z</time>
      </trkpt>
      <trkpt lat="46.2801" lon="5.43075">
        <ele>332.8</ele>
        <time>2022-03-26T16:06:27Z</time>
      </trkpt>
      <trkpt lat="46.28022" lon="5.43078">
        <ele>332.6</ele>
        <time>2022-03-26T16:06:29Z</time>
      </trkpt>
      <trkpt lat="46.2808" lon="5.4309">
        <ele>332.6</ele>
        <time>2022-03-26T16:06:38Z</time>
      </trkpt>
      <trkpt lat="46.28092" lon="5.43092">
        <ele>332.4</ele>
        <time>2022-03-26T16:06:40Z</time>
      </trkpt>
      <trkpt lat="46.28149" lon="5.43104">
        <ele>333.2</ele>
        <time>2022-03-26T16:06:49Z</time>
      </trkpt>
      <trkpt lat="46.28155" lon="5.43105">
        <ele>333.2</ele>
        <time>2022-03-26T16:06:50Z</time>
      </trkpt>
      <trkpt lat="46.28211" lon="5.43116">
        <ele>333.2</ele>
        <time>2022-03-26T16:06:59Z</time>
      </trkpt>
      <trkpt lat="46.28224" lon="5.43118">
        <ele>333.2</ele>
        <time>2022-03-26T16:07:01Z</time>
      </trkpt>
      <trkpt lat="46.28279" lon="5.43128">
        <ele>333.4</ele>
        <time>2022-03-26T16:07:10Z</time>
      </trkpt>
      <trkpt lat="46.28291" lon="5.43131">
        <ele>333.6</ele>
        <time>2022-03-26T16:07:12Z</time>
      </trkpt>
      <trkpt lat="46.28332" lon="5.43132">
        <ele>333.6</ele>
        <time>2022-03-26T16:07:19Z</time>
      </trkpt>
      <trkpt lat="46.28338" lon="5.43131">
        <ele>333.6</ele>
        <time>2022-03-26T16:07:20Z</time>
      </trkpt>
      <trkpt lat="46.28393" lon="5.43124">
        <ele>333</ele>
        <time>2022-03-26T16:07:29Z</time>
      </trkpt>
      <trkpt lat="46.28399" lon="5.43123">
        <ele>333</ele>
        <time>2022-03-26T16:07:30Z</time>
      </trkpt>
      <trkpt lat="46.28459" lon="5.43115">
        <ele>333.4</ele>
        <time>2022-03-26T16:07:40Z</time>
      </trkpt>
      <trkpt lat="46.28513" lon="5.4311">
        <ele>334</ele>
        <time>2022-03-26T16:07:49Z</time>
      </trkpt>
      <trkpt lat="46.28532" lon="5.43109">
        <ele>334.2</ele>
        <time>2022-03-26T16:07:52Z</time>
      </trkpt>
      <trkpt lat="46.28589" lon="5.43109">
        <ele>334.4</ele>
        <time>2022-03-26T16:08:02Z</time>
      </trkpt>
      <trkpt lat="46.28595" lon="5.43109">
        <ele>334.4</ele>
        <time>2022-03-26T16:08:03Z</time>
      </trkpt>
      <trkpt lat="46.28617" lon="5.4311">
        <ele>334.6</ele>
        <time>2022-03-26T16:08:07Z</time>
      </trkpt>
      <trkpt lat="46.2865" lon="5.43114">
        <ele>335</ele>
        <time>2022-03-26T16:08:13Z</time>
      </trkpt>
      <trkpt lat="46.28708" lon="5.43119">
        <ele>335.4</ele>
        <time>2022-03-26T16:08:23Z</time>
      </trkpt>
      <trkpt lat="46.28715" lon="5.4312">
        <ele>335.4</ele>
        <time>2022-03-26T16:08:24Z</time>
      </trkpt>
      <trkpt lat="46.28771" lon="5.43129">
        <ele>335.6</ele>
        <time>2022-03-26T16:08:34Z</time>
      </trkpt>
      <trkpt lat="46.28816" lon="5.43144">
        <ele>335.6</ele>
        <time>2022-03-26T16:08:42Z</time>
      </trkpt>
      <trkpt lat="46.28848" lon="5.43158">
        <ele>335.8</ele>
        <time>2022-03-26T16:08:48Z</time>
      </trkpt>
      <trkpt lat="46.28866" lon="5.43165">
        <ele>336</ele>
        <time>2022-03-26T16:08:51Z</time>
      </trkpt>
      <trkpt lat="46.28923" lon="5.43189">
        <ele>336</ele>
        <time>2022-03-26T16:09:01Z</time>
      </trkpt>
      <trkpt lat="46.28979" lon="5.43216">
        <ele>336</ele>
        <time>2022-03-26T16:09:11Z</time>
      </trkpt>
      <trkpt lat="46.29028" lon="5.43254">
        <ele>336</ele>
        <time>2022-03-26T16:09:20Z</time>
      </trkpt>
      <trkpt lat="46.2906" lon="5.43285">
        <ele>336</ele>
        <time>2022-03-26T16:09:26Z</time>
      </trkpt>
      <trkpt lat="46.29099" lon="5.43321">
        <ele>336</ele>
        <time>2022-03-26T16:09:33Z</time>
      </trkpt>
      <trkpt lat="46.29143" lon="5.43358">
        <ele>336.4</ele>
        <time>2022-03-26T16:09:41Z</time>
      </trkpt>
      <trkpt lat="46.29192" lon="5.43391">
        <ele>336.4</ele>
        <time>2022-03-26T16:09:50Z</time>
      </trkpt>
      <trkpt lat="46.29234" lon="5.4341">
        <ele>336.4</ele>
        <time>2022-03-26T16:09:57Z</time>
      </trkpt>
      <trkpt lat="46.29282" lon="5.43427">
        <ele>336.4</ele>
        <time>2022-03-26T16:10:05Z</time>
      </trkpt>
      <trkpt lat="46.29337" lon="5.43453">
        <ele>336.4</ele>
        <time>2022-03-26T16:10:14Z</time>
      </trkpt>
      <trkpt lat="46.29343" lon="5.43456">
        <ele>336.4</ele>
        <time>2022-03-26T16:10:15Z</time>
      </trkpt>
      <trkpt lat="46.29388" lon="5.43486">
        <ele>336.8</ele>
        <time>2022-03-26T16:10:23Z</time>
      </trkpt>
      <trkpt lat="46.29432" lon="5.43515">
        <ele>337.6</ele>
        <time>2022-03-26T16:10:31Z</time>
      </trkpt>
      <trkpt lat="46.29443" lon="5.43522">
        <ele>338</ele>
        <time>2022-03-26T16:10:33Z</time>
      </trkpt>
      <trkpt lat="46.29478" lon="5.43541">
        <ele>339</ele>
        <time>2022-03-26T16:10:39Z</time>
      </trkpt>
      <trkpt lat="46.29533" lon="5.4357">
        <ele>339.4</ele>
        <time>2022-03-26T16:10:49Z</time>
      </trkpt>
      <trkpt lat="46.29544" lon="5.43576">
        <ele>339.8</ele>
        <time>2022-03-26T16:10:51Z</time>
      </trkpt>
      <trkpt lat="46.29595" lon="5.43602">
        <ele>340</ele>
        <time>2022-03-26T16:11:00Z</time>
      </trkpt>
      <trkpt lat="46.296" lon="5.43606">
        <ele>340</ele>
        <time>2022-03-26T16:11:01Z</time>
      </trkpt>
      <trkpt lat="46.29655" lon="5.43634">
        <ele>340.4</ele>
        <time>2022-03-26T16:11:11Z</time>
      </trkpt>
      <trkpt lat="46.29709" lon="5.43663">
        <ele>341</ele>
        <time>2022-03-26T16:11:21Z</time>
      </trkpt>
      <trkpt lat="46.29715" lon="5.43666">
        <ele>341</ele>
        <time>2022-03-26T16:11:22Z</time>
      </trkpt>
      <trkpt lat="46.29766" lon="5.43693">
        <ele>341</ele>
        <time>2022-03-26T16:11:31Z</time>
      </trkpt>
      <trkpt lat="46.29799" lon="5.43709">
        <ele>341</ele>
        <time>2022-03-26T16:11:37Z</time>
      </trkpt>
      <trkpt lat="46.29811" lon="5.43715">
        <ele>341</ele>
        <time>2022-03-26T16:11:39Z</time>
      </trkpt>
      <trkpt lat="46.29868" lon="5.4374">
        <ele>341</ele>
        <time>2022-03-26T16:11:49Z</time>
      </trkpt>
      <trkpt lat="46.29873" lon="5.43743">
        <ele>341</ele>
        <time>2022-03-26T16:11:50Z</time>
      </trkpt>
      <trkpt lat="46.2993" lon="5.43767">
        <ele>341</ele>
        <time>2022-03-26T16:12:00Z</time>
      </trkpt>
      <trkpt lat="46.29941" lon="5.43771">
        <ele>341.2</ele>
        <time>2022-03-26T16:12:02Z</time>
      </trkpt>
      <trkpt lat="46.29958" lon="5.43779">
        <ele>341.4</ele>
        <time>2022-03-26T16:12:05Z</time>
      </trkpt>
      <trkpt lat="46.29992" lon="5.43794">
        <ele>341.6</ele>
        <time>2022-03-26T16:12:11Z</time>
      </trkpt>
      <trkpt lat="46.30049" lon="5.43821">
        <ele>341.4</ele>
        <time>2022-03-26T16:12:21Z</time>
      </trkpt>
      <trkpt lat="46.30054" lon="5.43824">
        <ele>341.4</ele>
        <time>2022-03-26T16:12:22Z</time>
      </trkpt>
      <trkpt lat="46.30104" lon="5.4385">
        <ele>341.6</ele>
        <time>2022-03-26T16:12:31Z</time>
      </trkpt>
      <trkpt lat="46.30153" lon="5.43876">
        <ele>342</ele>
        <time>2022-03-26T16:12:40Z</time>
      </trkpt>
      <trkpt lat="46.30207" lon="5.43904">
        <ele>342.4</ele>
        <time>2022-03-26T16:12:50Z</time>
      </trkpt>
      <trkpt lat="46.30213" lon="5.43907">
        <ele>342.6</ele>
        <time>2022-03-26T16:12:51Z</time>
      </trkpt>
      <trkpt lat="46.30219" lon="5.4391">
        <ele>342.6</ele>
        <time>2022-03-26T16:12:52Z</time>
      </trkpt>
      <trkpt lat="46.30265" lon="5.43933">
        <ele>342.6</ele>
        <time>2022-03-26T16:13:00Z</time>
      </trkpt>
      <trkpt lat="46.30316" lon="5.43957">
        <ele>342.6</ele>
        <time>2022-03-26T16:13:09Z</time>
      </trkpt>
      <trkpt lat="46.30321" lon="5.4396">
        <ele>342.6</ele>
        <time>2022-03-26T16:13:10Z</time>
      </trkpt>
      <trkpt lat="46.30368" lon="5.43982">
        <ele>341.8</ele>
        <time>2022-03-26T16:13:18Z</time>
      </trkpt>
      <trkpt lat="46.30399" lon="5.43997">
        <ele>342</ele>
        <time>2022-03-26T16:13:24Z</time>
      </trkpt>
      <trkpt lat="46.30422" lon="5.44005">
        <ele>342.4</ele>
        <time>2022-03-26T16:13:30Z</time>
      </trkpt>
      <trkpt lat="46.3043" lon="5.44005">
        <ele>342.4</ele>
        <time>2022-03-26T16:13:33Z</time>
      </trkpt>
      <trkpt lat="46.30432" lon="5.44001">
        <ele>342.4</ele>
        <time>2022-03-26T16:13:34Z</time>
      </trkpt>
      <trkpt lat="46.3043" lon="5.43988">
        <ele>342.4</ele>
        <time>2022-03-26T16:13:36Z</time>
      </trkpt>
      <trkpt lat="46.30429" lon="5.43981">
        <ele>342.4</ele>
        <time>2022-03-26T16:13:37Z</time>
      </trkpt>
      <trkpt lat="46.30428" lon="5.43973">
        <ele>342.4</ele>
        <time>2022-03-26T16:13:38Z</time>
      </trkpt>
      <trkpt lat="46.30426" lon="5.4394">
        <ele>342.2</ele>
        <time>2022-03-26T16:13:42Z</time>
      </trkpt>
      <trkpt lat="46.30422" lon="5.43873">
        <ele>342.2</ele>
        <time>2022-03-26T16:13:50Z</time>
      </trkpt>
      <trkpt lat="46.30421" lon="5.43827">
        <ele>342.6</ele>
        <time>2022-03-26T16:13:56Z</time>
      </trkpt>
      <trkpt lat="46.30421" lon="5.43798">
        <ele>343</ele>
        <time>2022-03-26T16:14:00Z</time>
      </trkpt>
      <trkpt lat="46.30423" lon="5.43783">
        <ele>343.4</ele>
        <time>2022-03-26T16:14:02Z</time>
      </trkpt>
      <trkpt lat="46.30429" lon="5.4377">
        <ele>343.6</ele>
        <time>2022-03-26T16:14:04Z</time>
      </trkpt>
      <trkpt lat="46.30433" lon="5.43765">
        <ele>343.6</ele>
        <time>2022-03-26T16:14:05Z</time>
      </trkpt>
      <trkpt lat="46.30437" lon="5.43763">
        <ele>343.6</ele>
        <time>2022-03-26T16:14:06Z</time>
      </trkpt>
      <trkpt lat="46.30452" lon="5.43758">
        <ele>343.8</ele>
        <time>2022-03-26T16:14:09Z</time>
      </trkpt>
      <trkpt lat="46.30494" lon="5.4375">
        <ele>345</ele>
        <time>2022-03-26T16:14:18Z</time>
      </trkpt>
      <trkpt lat="46.30511" lon="5.43749">
        <ele>346.2</ele>
        <time>2022-03-26T16:14:22Z</time>
      </trkpt>
      <trkpt lat="46.30527" lon="5.43747">
        <ele>347.2</ele>
        <time>2022-03-26T16:14:26Z</time>
      </trkpt>
      <trkpt lat="46.30546" lon="5.43741">
        <ele>348.4</ele>
        <time>2022-03-26T16:14:31Z</time>
      </trkpt>
      <trkpt lat="46.30562" lon="5.43735">
        <ele>349.4</ele>
        <time>2022-03-26T16:14:35Z</time>
      </trkpt>
      <trkpt lat="46.30587" lon="5.43727">
        <ele>350.4</ele>
        <time>2022-03-26T16:14:41Z</time>
      </trkpt>
      <trkpt lat="46.30595" lon="5.43724">
        <ele>350.8</ele>
        <time>2022-03-26T16:14:43Z</time>
      </trkpt>
      <trkpt lat="46.30611" lon="5.43719">
        <ele>351.4</ele>
        <time>2022-03-26T16:14:47Z</time>
      </trkpt>
      <trkpt lat="46.30623" lon="5.43715">
        <ele>351.8</ele>
        <time>2022-03-26T16:14:50Z</time>
      </trkpt>
      <trkpt lat="46.30639" lon="5.43708">
        <ele>352</ele>
        <time>2022-03-26T16:14:54Z</time>
      </trkpt>
      <trkpt lat="46.30661" lon="5.43696">
        <ele>352.4</ele>
        <time>2022-03-26T16:14:59Z</time>
      </trkpt>
      <trkpt lat="46.30671" lon="5.43692">
        <ele>352.4</ele>
        <time>2022-03-26T16:15:01Z</time>
      </trkpt>
      <trkpt lat="46.30714" lon="5.43673">
        <ele>351.8</ele>
        <time>2022-03-26T16:15:09Z</time>
      </trkpt>
      <trkpt lat="46.30753" lon="5.4365">
        <ele>351.4</ele>
        <time>2022-03-26T16:15:16Z</time>
      </trkpt>
      <trkpt lat="46.30758" lon="5.43645">
        <ele>351.4</ele>
        <time>2022-03-26T16:15:17Z</time>
      </trkpt>
      <trkpt lat="46.30767" lon="5.43634">
        <ele>351.2</ele>
        <time>2022-03-26T16:15:19Z</time>
      </trkpt>
      <trkpt lat="46.30775" lon="5.43623">
        <ele>351.2</ele>
        <time>2022-03-26T16:15:21Z</time>
      </trkpt>
      <trkpt lat="46.3078" lon="5.43615">
        <ele>351</ele>
        <time>2022-03-26T16:15:22Z</time>
      </trkpt>
      <trkpt lat="46.30793" lon="5.43585">
        <ele>350.8</ele>
        <time>2022-03-26T16:15:26Z</time>
      </trkpt>
      <trkpt lat="46.308" lon="5.43567">
        <ele>350.4</ele>
        <time>2022-03-26T16:15:28Z</time>
      </trkpt>
      <trkpt lat="46.30807" lon="5.43554">
        <ele>350.2</ele>
        <time>2022-03-26T16:15:30Z</time>
      </trkpt>
      <trkpt lat="46.30813" lon="5.43546">
        <ele>350.2</ele>
        <time>2022-03-26T16:15:31Z</time>
      </trkpt>
      <trkpt lat="46.3085" lon="5.43517">
        <ele>349.8</ele>
        <time>2022-03-26T16:15:38Z</time>
      </trkpt>
      <trkpt lat="46.30898" lon="5.43485">
        <ele>350.6</ele>
        <time>2022-03-26T16:15:47Z</time>
      </trkpt>
      <trkpt lat="46.30951" lon="5.43457">
        <ele>351</ele>
        <time>2022-03-26T16:15:57Z</time>
      </trkpt>
      <trkpt lat="46.30966" lon="5.43448">
        <ele>351.2</ele>
        <time>2022-03-26T16:16:00Z</time>
      </trkpt>
      <trkpt lat="46.31" lon="5.43428">
        <ele>351.8</ele>
        <time>2022-03-26T16:16:07Z</time>
      </trkpt>
      <trkpt lat="46.31024" lon="5.43414">
        <ele>352.2</ele>
        <time>2022-03-26T16:16:12Z</time>
      </trkpt>
      <trkpt lat="46.31033" lon="5.43409">
        <ele>352.4</ele>
        <time>2022-03-26T16:16:14Z</time>
      </trkpt>
      <trkpt lat="46.3106" lon="5.43394">
        <ele>353.4</ele>
        <time>2022-03-26T16:16:20Z</time>
      </trkpt>
      <trkpt lat="46.31075" lon="5.4339">
        <ele>353.8</ele>
        <time>2022-03-26T16:16:23Z</time>
      </trkpt>
      <trkpt lat="46.31089" lon="5.43384">
        <ele>354.4</ele>
        <time>2022-03-26T16:16:26Z</time>
      </trkpt>
      <trkpt lat="46.31113" lon="5.43374">
        <ele>355.4</ele>
        <time>2022-03-26T16:16:31Z</time>
      </trkpt>
      <trkpt lat="46.31118" lon="5.43372">
        <ele>355.4</ele>
        <time>2022-03-26T16:16:32Z</time>
      </trkpt>
      <trkpt lat="46.31141" lon="5.43359">
        <ele>356.6</ele>
        <time>2022-03-26T16:16:37Z</time>
      </trkpt>
      <trkpt lat="46.31146" lon="5.43357">
        <ele>356.6</ele>
        <time>2022-03-26T16:16:38Z</time>
      </trkpt>
      <trkpt lat="46.3115" lon="5.43353">
        <ele>356.8</ele>
        <time>2022-03-26T16:16:39Z</time>
      </trkpt>
      <trkpt lat="46.31191" lon="5.43327">
        <ele>357.6</ele>
        <time>2022-03-26T16:16:48Z</time>
      </trkpt>
      <trkpt lat="46.312" lon="5.4332">
        <ele>357.8</ele>
        <time>2022-03-26T16:16:50Z</time>
      </trkpt>
      <trkpt lat="46.31223" lon="5.43304">
        <ele>358.6</ele>
        <time>2022-03-26T16:16:55Z</time>
      </trkpt>
      <trkpt lat="46.31245" lon="5.43288">
        <ele>359</ele>
        <time>2022-03-26T16:17:00Z</time>
      </trkpt>
      <trkpt lat="46.31276" lon="5.43266">
        <ele>359.6</ele>
        <time>2022-03-26T16:17:07Z</time>
      </trkpt>
      <trkpt lat="46.3128" lon="5.43262">
        <ele>359.6</ele>
        <time>2022-03-26T16:17:08Z</time>
      </trkpt>
      <trkpt lat="46.31308" lon="5.43242">
        <ele>360.6</ele>
        <time>2022-03-26T16:17:14Z</time>
      </trkpt>
      <trkpt lat="46.31317" lon="5.43235">
        <ele>360.6</ele>
        <time>2022-03-26T16:17:16Z</time>
      </trkpt>
      <trkpt lat="46.31348" lon="5.43214">
        <ele>361.2</ele>
        <time>2022-03-26T16:17:23Z</time>
      </trkpt>
      <trkpt lat="46.31357" lon="5.43209">
        <ele>361.2</ele>
        <time>2022-03-26T16:17:25Z</time>
      </trkpt>
      <trkpt lat="46.31378" lon="5.43201">
        <ele>361.4</ele>
        <time>2022-03-26T16:17:29Z</time>
      </trkpt>
      <trkpt lat="46.31394" lon="5.43196">
        <ele>361.4</ele>
        <time>2022-03-26T16:17:32Z</time>
      </trkpt>
      <trkpt lat="46.31399" lon="5.43197">
        <ele>361.4</ele>
        <time>2022-03-26T16:17:33Z</time>
      </trkpt>
      <trkpt lat="46.31431" lon="5.43205">
        <ele>361.8</ele>
        <time>2022-03-26T16:17:39Z</time>
      </trkpt>
      <trkpt lat="46.31464" lon="5.43205">
        <ele>362</ele>
        <time>2022-03-26T16:17:45Z</time>
      </trkpt>
      <trkpt lat="46.31517" lon="5.43198">
        <ele>362.4</ele>
        <time>2022-03-26T16:17:55Z</time>
      </trkpt>
      <trkpt lat="46.31533" lon="5.43195">
        <ele>362.8</ele>
        <time>2022-03-26T16:17:58Z</time>
      </trkpt>
      <trkpt lat="46.31569" lon="5.43188">
        <ele>363.8</ele>
        <time>2022-03-26T16:18:05Z</time>
      </trkpt>
      <trkpt lat="46.31574" lon="5.43188">
        <ele>364</ele>
        <time>2022-03-26T16:18:06Z</time>
      </trkpt>
      <trkpt lat="46.31606" lon="5.43184">
        <ele>364.4</ele>
        <time>2022-03-26T16:18:12Z</time>
      </trkpt>
      <trkpt lat="46.31611" lon="5.43183">
        <ele>364.4</ele>
        <time>2022-03-26T16:18:13Z</time>
      </trkpt>
      <trkpt lat="46.31631" lon="5.43183">
        <ele>365</ele>
        <time>2022-03-26T16:18:17Z</time>
      </trkpt>
      <trkpt lat="46.31641" lon="5.43184">
        <ele>365.2</ele>
        <time>2022-03-26T16:18:19Z</time>
      </trkpt>
      <trkpt lat="46.31669" lon="5.43189">
        <ele>365.4</ele>
        <time>2022-03-26T16:18:25Z</time>
      </trkpt>
      <trkpt lat="46.31674" lon="5.4319">
        <ele>365.8</ele>
        <time>2022-03-26T16:18:26Z</time>
      </trkpt>
      <trkpt lat="46.31698" lon="5.43187">
        <ele>366.2</ele>
        <time>2022-03-26T16:18:31Z</time>
      </trkpt>
      <trkpt lat="46.31711" lon="5.43185">
        <ele>366.8</ele>
        <time>2022-03-26T16:18:34Z</time>
      </trkpt>
      <trkpt lat="46.31727" lon="5.4318">
        <ele>367.4</ele>
        <time>2022-03-26T16:18:38Z</time>
      </trkpt>
      <trkpt lat="46.31735" lon="5.43177">
        <ele>368</ele>
        <time>2022-03-26T16:18:40Z</time>
      </trkpt>
      <trkpt lat="46.31764" lon="5.43166">
        <ele>368.6</ele>
        <time>2022-03-26T16:18:46Z</time>
      </trkpt>
      <trkpt lat="46.31769" lon="5.43164">
        <ele>369</ele>
        <time>2022-03-26T16:18:47Z</time>
      </trkpt>
      <trkpt lat="46.31797" lon="5.43152">
        <ele>369.8</ele>
        <time>2022-03-26T16:18:53Z</time>
      </trkpt>
      <trkpt lat="46.31807" lon="5.43147">
        <ele>370</ele>
        <time>2022-03-26T16:18:55Z</time>
      </trkpt>
      <trkpt lat="46.31812" lon="5.43145">
        <ele>370.2</ele>
        <time>2022-03-26T16:18:56Z</time>
      </trkpt>
      <trkpt lat="46.31841" lon="5.43134">
        <ele>370.4</ele>
        <time>2022-03-26T16:19:02Z</time>
      </trkpt>
      <trkpt lat="46.3188" lon="5.43119">
        <ele>371</ele>
        <time>2022-03-26T16:19:10Z</time>
      </trkpt>
      <trkpt lat="46.31884" lon="5.43117">
        <ele>371.2</ele>
        <time>2022-03-26T16:19:11Z</time>
      </trkpt>
      <trkpt lat="46.31889" lon="5.43115">
        <ele>371.4</ele>
        <time>2022-03-26T16:19:12Z</time>
      </trkpt>
      <trkpt lat="46.31912" lon="5.43108">
        <ele>372</ele>
        <time>2022-03-26T16:19:17Z</time>
      </trkpt>
      <trkpt lat="46.31922" lon="5.43105">
        <ele>372.2</ele>
        <time>2022-03-26T16:19:19Z</time>
      </trkpt>
      <trkpt lat="46.31951" lon="5.43096">
        <ele>373.2</ele>
        <time>2022-03-26T16:19:26Z</time>
      </trkpt>
      <trkpt lat="46.31955" lon="5.43095">
        <ele>373.4</ele>
        <time>2022-03-26T16:19:27Z</time>
      </trkpt>
      <trkpt lat="46.31976" lon="5.43089">
        <ele>374.4</ele>
        <time>2022-03-26T16:19:32Z</time>
      </trkpt>
      <trkpt lat="46.31983" lon="5.43087">
        <ele>374.6</ele>
        <time>2022-03-26T16:19:34Z</time>
      </trkpt>
      <trkpt lat="46.32004" lon="5.43082">
        <ele>375.4</ele>
        <time>2022-03-26T16:19:39Z</time>
      </trkpt>
      <trkpt lat="46.32023" lon="5.43076">
        <ele>376.2</ele>
        <time>2022-03-26T16:19:44Z</time>
      </trkpt>
      <trkpt lat="46.32031" lon="5.43073">
        <ele>376.4</ele>
        <time>2022-03-26T16:19:46Z</time>
      </trkpt>
      <trkpt lat="46.32063" lon="5.43062">
        <ele>377</ele>
        <time>2022-03-26T16:19:54Z</time>
      </trkpt>
      <trkpt lat="46.32079" lon="5.43057">
        <ele>377.6</ele>
        <time>2022-03-26T16:19:58Z</time>
      </trkpt>
      <trkpt lat="46.32102" lon="5.43049">
        <ele>378.4</ele>
        <time>2022-03-26T16:20:04Z</time>
      </trkpt>
      <trkpt lat="46.3211" lon="5.43047">
        <ele>378.6</ele>
        <time>2022-03-26T16:20:06Z</time>
      </trkpt>
      <trkpt lat="46.32128" lon="5.43043">
        <ele>379.6</ele>
        <time>2022-03-26T16:20:11Z</time>
      </trkpt>
      <trkpt lat="46.32144" lon="5.43039">
        <ele>380.4</ele>
        <time>2022-03-26T16:20:15Z</time>
      </trkpt>
      <trkpt lat="46.32152" lon="5.43037">
        <ele>380.8</ele>
        <time>2022-03-26T16:20:17Z</time>
      </trkpt>
      <trkpt lat="46.32176" lon="5.43028">
        <ele>381.6</ele>
        <time>2022-03-26T16:20:23Z</time>
      </trkpt>
      <trkpt lat="46.32191" lon="5.43023">
        <ele>382</ele>
        <time>2022-03-26T16:20:27Z</time>
      </trkpt>
      <trkpt lat="46.32211" lon="5.43015">
        <ele>382.6</ele>
        <time>2022-03-26T16:20:32Z</time>
      </trkpt>
      <trkpt lat="46.32222" lon="5.43011">
        <ele>383</ele>
        <time>2022-03-26T16:20:35Z</time>
      </trkpt>
      <trkpt lat="46.32247" lon="5.42998">
        <ele>384</ele>
        <time>2022-03-26T16:20:42Z</time>
      </trkpt>
      <trkpt lat="46.3225" lon="5.42996">
        <ele>384.2</ele>
        <time>2022-03-26T16:20:43Z</time>
      </trkpt>
      <trkpt lat="46.3226" lon="5.4298">
        <ele>385</ele>
        <time>2022-03-26T16:20:47Z</time>
      </trkpt>
      <trkpt lat="46.32272" lon="5.42939">
        <ele>386</ele>
        <time>2022-03-26T16:20:54Z</time>
      </trkpt>
      <trkpt lat="46.3229" lon="5.4292">
        <ele>386</ele>
        <time>2022-03-26T16:20:59Z</time>
      </trkpt>
      <trkpt lat="46.32312" lon="5.42906">
        <ele>385.8</ele>
        <time>2022-03-26T16:21:04Z</time>
      </trkpt>
      <trkpt lat="46.32322" lon="5.42904">
        <ele>385.6</ele>
        <time>2022-03-26T16:21:06Z</time>
      </trkpt>
      <trkpt lat="46.32357" lon="5.42897">
        <ele>385</ele>
        <time>2022-03-26T16:21:12Z</time>
      </trkpt>
      <trkpt lat="46.32393" lon="5.42888">
        <ele>384.2</ele>
        <time>2022-03-26T16:21:17Z</time>
      </trkpt>
      <trkpt lat="46.32401" lon="5.42888">
        <ele>384</ele>
        <time>2022-03-26T16:21:18Z</time>
      </trkpt>
      <trkpt lat="46.32409" lon="5.42889">
        <ele>383.4</ele>
        <time>2022-03-26T16:21:19Z</time>
      </trkpt>
      <trkpt lat="46.32427" lon="5.42895">
        <ele>382.8</ele>
        <time>2022-03-26T16:21:21Z</time>
      </trkpt>
      <trkpt lat="46.32452" lon="5.4291">
        <ele>381.6</ele>
        <time>2022-03-26T16:21:24Z</time>
      </trkpt>
      <trkpt lat="46.32461" lon="5.42914">
        <ele>380.8</ele>
        <time>2022-03-26T16:21:25Z</time>
      </trkpt>
      <trkpt lat="46.3247" lon="5.42916">
        <ele>380.2</ele>
        <time>2022-03-26T16:21:26Z</time>
      </trkpt>
      <trkpt lat="46.32479" lon="5.42918">
        <ele>380</ele>
        <time>2022-03-26T16:21:27Z</time>
      </trkpt>
      <trkpt lat="46.32498" lon="5.42919">
        <ele>379</ele>
        <time>2022-03-26T16:21:29Z</time>
      </trkpt>
      <trkpt lat="46.32507" lon="5.42919">
        <ele>378.6</ele>
        <time>2022-03-26T16:21:30Z</time>
      </trkpt>
      <trkpt lat="46.32526" lon="5.42919">
        <ele>377.4</ele>
        <time>2022-03-26T16:21:32Z</time>
      </trkpt>
      <trkpt lat="46.32545" lon="5.4292">
        <ele>376.4</ele>
        <time>2022-03-26T16:21:34Z</time>
      </trkpt>
      <trkpt lat="46.32573" lon="5.42925">
        <ele>375.2</ele>
        <time>2022-03-26T16:21:37Z</time>
      </trkpt>
      <trkpt lat="46.326" lon="5.42931">
        <ele>374</ele>
        <time>2022-03-26T16:21:40Z</time>
      </trkpt>
      <trkpt lat="46.32636" lon="5.42939">
        <ele>372.6</ele>
        <time>2022-03-26T16:21:44Z</time>
      </trkpt>
      <trkpt lat="46.32663" lon="5.42944">
        <ele>372.2</ele>
        <time>2022-03-26T16:21:47Z</time>
      </trkpt>
      <trkpt lat="46.32714" lon="5.42956">
        <ele>371.4</ele>
        <time>2022-03-26T16:21:53Z</time>
      </trkpt>
      <trkpt lat="46.32721" lon="5.42959">
        <ele>371.2</ele>
        <time>2022-03-26T16:21:54Z</time>
      </trkpt>
      <trkpt lat="46.32729" lon="5.42963">
        <ele>371</ele>
        <time>2022-03-26T16:21:55Z</time>
      </trkpt>
      <trkpt lat="46.32742" lon="5.42975">
        <ele>370.8</ele>
        <time>2022-03-26T16:21:57Z</time>
      </trkpt>
      <trkpt lat="46.32752" lon="5.42989">
        <ele>370.8</ele>
        <time>2022-03-26T16:21:59Z</time>
      </trkpt>
      <trkpt lat="46.32763" lon="5.43006">
        <ele>370.6</ele>
        <time>2022-03-26T16:22:01Z</time>
      </trkpt>
      <trkpt lat="46.32775" lon="5.43017">
        <ele>370.2</ele>
        <time>2022-03-26T16:22:03Z</time>
      </trkpt>
      <trkpt lat="46.32788" lon="5.43027">
        <ele>369.8</ele>
        <time>2022-03-26T16:22:05Z</time>
      </trkpt>
      <trkpt lat="46.32825" lon="5.43048">
        <ele>369</ele>
        <time>2022-03-26T16:22:10Z</time>
      </trkpt>
      <trkpt lat="46.3284" lon="5.43054">
        <ele>368.8</ele>
        <time>2022-03-26T16:22:12Z</time>
      </trkpt>
      <trkpt lat="46.32891" lon="5.43076">
        <ele>368</ele>
        <time>2022-03-26T16:22:19Z</time>
      </trkpt>
      <trkpt lat="46.32923" lon="5.43082">
        <ele>367.8</ele>
        <time>2022-03-26T16:22:24Z</time>
      </trkpt>
      <trkpt lat="46.32964" lon="5.43089">
        <ele>368.6</ele>
        <time>2022-03-26T16:22:31Z</time>
      </trkpt>
      <trkpt lat="46.32985" lon="5.43093">
        <ele>369.4</ele>
        <time>2022-03-26T16:22:35Z</time>
      </trkpt>
      <trkpt lat="46.33007" lon="5.43093">
        <ele>370.4</ele>
        <time>2022-03-26T16:22:39Z</time>
      </trkpt>
      <trkpt lat="46.33024" lon="5.4309">
        <ele>370.6</ele>
        <time>2022-03-26T16:22:42Z</time>
      </trkpt>
      <trkpt lat="46.33036" lon="5.43084">
        <ele>370.6</ele>
        <time>2022-03-26T16:22:44Z</time>
      </trkpt>
      <trkpt lat="46.33042" lon="5.4308">
        <ele>370.8</ele>
        <time>2022-03-26T16:22:45Z</time>
      </trkpt>
      <trkpt lat="46.33073" lon="5.43052">
        <ele>370.4</ele>
        <time>2022-03-26T16:22:50Z</time>
      </trkpt>
      <trkpt lat="46.33096" lon="5.4304">
        <ele>370</ele>
        <time>2022-03-26T16:22:53Z</time>
      </trkpt>
      <trkpt lat="46.33103" lon="5.43034">
        <ele>370</ele>
        <time>2022-03-26T16:22:54Z</time>
      </trkpt>
      <trkpt lat="46.3311" lon="5.43027">
        <ele>369.2</ele>
        <time>2022-03-26T16:22:55Z</time>
      </trkpt>
      <trkpt lat="46.33121" lon="5.4301">
        <ele>368</ele>
        <time>2022-03-26T16:22:57Z</time>
      </trkpt>
      <trkpt lat="46.33126" lon="5.43">
        <ele>367.6</ele>
        <time>2022-03-26T16:22:58Z</time>
      </trkpt>
      <trkpt lat="46.33143" lon="5.42954">
        <ele>367.2</ele>
        <time>2022-03-26T16:23:03Z</time>
      </trkpt>
      <trkpt lat="46.33151" lon="5.42941">
        <ele>367.2</ele>
        <time>2022-03-26T16:23:05Z</time>
      </trkpt>
      <trkpt lat="46.33165" lon="5.42925">
        <ele>367.2</ele>
        <time>2022-03-26T16:23:08Z</time>
      </trkpt>
      <trkpt lat="46.33176" lon="5.42919">
        <ele>367.6</ele>
        <time>2022-03-26T16:23:10Z</time>
      </trkpt>
      <trkpt lat="46.33193" lon="5.42913">
        <ele>368.2</ele>
        <time>2022-03-26T16:23:13Z</time>
      </trkpt>
      <trkpt lat="46.33248" lon="5.42891">
        <ele>368.6</ele>
        <time>2022-03-26T16:23:22Z</time>
      </trkpt>
      <trkpt lat="46.33276" lon="5.42858">
        <ele>367.8</ele>
        <time>2022-03-26T16:23:27Z</time>
      </trkpt>
      <trkpt lat="46.33294" lon="5.42832">
        <ele>366.8</ele>
        <time>2022-03-26T16:23:30Z</time>
      </trkpt>
      <trkpt lat="46.33309" lon="5.42819">
        <ele>365.6</ele>
        <time>2022-03-26T16:23:32Z</time>
      </trkpt>
      <trkpt lat="46.33335" lon="5.42807">
        <ele>363.8</ele>
        <time>2022-03-26T16:23:35Z</time>
      </trkpt>
      <trkpt lat="46.33343" lon="5.42805">
        <ele>363.4</ele>
        <time>2022-03-26T16:23:36Z</time>
      </trkpt>
      <trkpt lat="46.33369" lon="5.42797">
        <ele>362</ele>
        <time>2022-03-26T16:23:39Z</time>
      </trkpt>
      <trkpt lat="46.33394" lon="5.42795">
        <ele>360.8</ele>
        <time>2022-03-26T16:23:42Z</time>
      </trkpt>
      <trkpt lat="46.33419" lon="5.42797">
        <ele>359.8</ele>
        <time>2022-03-26T16:23:45Z</time>
      </trkpt>
      <trkpt lat="46.33443" lon="5.428">
        <ele>358.6</ele>
        <time>2022-03-26T16:23:48Z</time>
      </trkpt>
      <trkpt lat="46.33451" lon="5.42801">
        <ele>358.2</ele>
        <time>2022-03-26T16:23:49Z</time>
      </trkpt>
      <trkpt lat="46.33501" lon="5.4282">
        <ele>357</ele>
        <time>2022-03-26T16:23:55Z</time>
      </trkpt>
      <trkpt lat="46.33517" lon="5.4283">
        <ele>355.8</ele>
        <time>2022-03-26T16:23:57Z</time>
      </trkpt>
      <trkpt lat="46.33531" lon="5.42837">
        <ele>355.2</ele>
        <time>2022-03-26T16:23:59Z</time>
      </trkpt>
      <trkpt lat="46.33538" lon="5.42839">
        <ele>354.6</ele>
        <time>2022-03-26T16:24:00Z</time>
      </trkpt>
      <trkpt lat="46.33543" lon="5.42839">
        <ele>354.4</ele>
        <time>2022-03-26T16:24:01Z</time>
      </trkpt>
      <trkpt lat="46.33556" lon="5.42836">
        <ele>353.6</ele>
        <time>2022-03-26T16:24:03Z</time>
      </trkpt>
      <trkpt lat="46.33562" lon="5.42833">
        <ele>353</ele>
        <time>2022-03-26T16:24:04Z</time>
      </trkpt>
      <trkpt lat="46.3357" lon="5.42827">
        <ele>352.4</ele>
        <time>2022-03-26T16:24:05Z</time>
      </trkpt>
      <trkpt lat="46.33587" lon="5.42813">
        <ele>351.4</ele>
        <time>2022-03-26T16:24:08Z</time>
      </trkpt>
      <trkpt lat="46.33593" lon="5.42809">
        <ele>351</ele>
        <time>2022-03-26T16:24:09Z</time>
      </trkpt>
      <trkpt lat="46.33613" lon="5.42798">
        <ele>350</ele>
        <time>2022-03-26T16:24:12Z</time>
      </trkpt>
      <trkpt lat="46.33636" lon="5.42789">
        <ele>349.6</ele>
        <time>2022-03-26T16:24:15Z</time>
      </trkpt>
      <trkpt lat="46.33687" lon="5.42764">
        <ele>349.8</ele>
        <time>2022-03-26T16:24:23Z</time>
      </trkpt>
      <trkpt lat="46.33706" lon="5.42745">
        <ele>350.2</ele>
        <time>2022-03-26T16:24:27Z</time>
      </trkpt>
      <trkpt lat="46.33711" lon="5.42738">
        <ele>350.4</ele>
        <time>2022-03-26T16:24:28Z</time>
      </trkpt>
      <trkpt lat="46.33715" lon="5.4273">
        <ele>350.4</ele>
        <time>2022-03-26T16:24:29Z</time>
      </trkpt>
      <trkpt lat="46.33727" lon="5.42703">
        <ele>351</ele>
        <time>2022-03-26T16:24:33Z</time>
      </trkpt>
      <trkpt lat="46.33729" lon="5.42696">
        <ele>351.2</ele>
        <time>2022-03-26T16:24:34Z</time>
      </trkpt>
      <trkpt lat="46.33743" lon="5.42649">
        <ele>352.2</ele>
        <time>2022-03-26T16:24:40Z</time>
      </trkpt>
      <trkpt lat="46.33745" lon="5.42642">
        <ele>352.4</ele>
        <time>2022-03-26T16:24:41Z</time>
      </trkpt>
      <trkpt lat="46.33764" lon="5.42602">
        <ele>352.6</ele>
        <time>2022-03-26T16:24:47Z</time>
      </trkpt>
      <trkpt lat="46.33802" lon="5.42549">
        <ele>353.4</ele>
        <time>2022-03-26T16:24:57Z</time>
      </trkpt>
      <trkpt lat="46.33839" lon="5.42505">
        <ele>354.2</ele>
        <time>2022-03-26T16:25:07Z</time>
      </trkpt>
      <trkpt lat="46.33847" lon="5.42496">
        <ele>354.6</ele>
        <time>2022-03-26T16:25:09Z</time>
      </trkpt>
      <trkpt lat="46.33854" lon="5.42488">
        <ele>354.6</ele>
        <time>2022-03-26T16:25:11Z</time>
      </trkpt>
      <trkpt lat="46.33881" lon="5.42458">
        <ele>355.4</ele>
        <time>2022-03-26T16:25:18Z</time>
      </trkpt>
      <trkpt lat="46.33885" lon="5.42454">
        <ele>355.6</ele>
        <time>2022-03-26T16:25:19Z</time>
      </trkpt>
      <trkpt lat="46.33917" lon="5.42426">
        <ele>356.2</ele>
        <time>2022-03-26T16:25:27Z</time>
      </trkpt>
      <trkpt lat="46.33925" lon="5.42419">
        <ele>356.8</ele>
        <time>2022-03-26T16:25:29Z</time>
      </trkpt>
      <trkpt lat="46.33958" lon="5.42393">
        <ele>357.8</ele>
        <time>2022-03-26T16:25:37Z</time>
      </trkpt>
      <trkpt lat="46.33995" lon="5.42362">
        <ele>358.8</ele>
        <time>2022-03-26T16:25:46Z</time>
      </trkpt>
      <trkpt lat="46.34004" lon="5.42356">
        <ele>359</ele>
        <time>2022-03-26T16:25:48Z</time>
      </trkpt>
      <trkpt lat="46.34052" lon="5.42328">
        <ele>359.6</ele>
        <time>2022-03-26T16:25:59Z</time>
      </trkpt>
      <trkpt lat="46.34065" lon="5.42321">
        <ele>360</ele>
        <time>2022-03-26T16:26:02Z</time>
      </trkpt>
      <trkpt lat="46.34086" lon="5.42302">
        <ele>360.8</ele>
        <time>2022-03-26T16:26:07Z</time>
      </trkpt>
      <trkpt lat="46.34117" lon="5.42269">
        <ele>360.6</ele>
        <time>2022-03-26T16:26:13Z</time>
      </trkpt>
      <trkpt lat="46.34156" lon="5.42225">
        <ele>359.6</ele>
        <time>2022-03-26T16:26:20Z</time>
      </trkpt>
      <trkpt lat="46.34178" lon="5.42198">
        <ele>358.8</ele>
        <time>2022-03-26T16:26:24Z</time>
      </trkpt>
      <trkpt lat="46.342" lon="5.42172">
        <ele>357.6</ele>
        <time>2022-03-26T16:26:28Z</time>
      </trkpt>
      <trkpt lat="46.34206" lon="5.42166">
        <ele>357.6</ele>
        <time>2022-03-26T16:26:29Z</time>
      </trkpt>
      <trkpt lat="46.34249" lon="5.42115">
        <ele>357.2</ele>
        <time>2022-03-26T16:26:38Z</time>
      </trkpt>
      <trkpt lat="46.34279" lon="5.42076">
        <ele>357.8</ele>
        <time>2022-03-26T16:26:45Z</time>
      </trkpt>
      <trkpt lat="46.34314" lon="5.42027">
        <ele>358.2</ele>
        <time>2022-03-26T16:26:54Z</time>
      </trkpt>
      <trkpt lat="46.34329" lon="5.42005">
        <ele>358.6</ele>
        <time>2022-03-26T16:26:58Z</time>
      </trkpt>
      <trkpt lat="46.34341" lon="5.41982">
        <ele>359.2</ele>
        <time>2022-03-26T16:27:02Z</time>
      </trkpt>
      <trkpt lat="46.34343" lon="5.41976">
        <ele>359.4</ele>
        <time>2022-03-26T16:27:03Z</time>
      </trkpt>
      <trkpt lat="46.34347" lon="5.41962">
        <ele>359.4</ele>
        <time>2022-03-26T16:27:05Z</time>
      </trkpt>
      <trkpt lat="46.34349" lon="5.41947">
        <ele>359.8</ele>
        <time>2022-03-26T16:27:07Z</time>
      </trkpt>
      <trkpt lat="46.34357" lon="5.41905">
        <ele>360</ele>
        <time>2022-03-26T16:27:12Z</time>
      </trkpt>
      <trkpt lat="46.3436" lon="5.41897">
        <ele>360</ele>
        <time>2022-03-26T16:27:13Z</time>
      </trkpt>
      <trkpt lat="46.34371" lon="5.41876">
        <ele>359.8</ele>
        <time>2022-03-26T16:27:16Z</time>
      </trkpt>
      <trkpt lat="46.34396" lon="5.41855">
        <ele>359.8</ele>
        <time>2022-03-26T16:27:21Z</time>
      </trkpt>
      <trkpt lat="46.34436" lon="5.41823">
        <ele>360.2</ele>
        <time>2022-03-26T16:27:29Z</time>
      </trkpt>
      <trkpt lat="46.3445" lon="5.41809">
        <ele>360.8</ele>
        <time>2022-03-26T16:27:32Z</time>
      </trkpt>
      <trkpt lat="46.3448" lon="5.41779">
        <ele>360.8</ele>
        <time>2022-03-26T16:27:38Z</time>
      </trkpt>
      <trkpt lat="46.34517" lon="5.41743">
        <ele>360.4</ele>
        <time>2022-03-26T16:27:45Z</time>
      </trkpt>
      <trkpt lat="46.34563" lon="5.41704">
        <ele>360.2</ele>
        <time>2022-03-26T16:27:54Z</time>
      </trkpt>
      <trkpt lat="46.34593" lon="5.41685">
        <ele>360.6</ele>
        <time>2022-03-26T16:28:00Z</time>
      </trkpt>
      <trkpt lat="46.34616" lon="5.41668">
        <ele>361.8</ele>
        <time>2022-03-26T16:28:05Z</time>
      </trkpt>
      <trkpt lat="46.3462" lon="5.41663">
        <ele>361.8</ele>
        <time>2022-03-26T16:28:06Z</time>
      </trkpt>
      <trkpt lat="46.34625" lon="5.41658">
        <ele>362</ele>
        <time>2022-03-26T16:28:07Z</time>
      </trkpt>
      <trkpt lat="46.34653" lon="5.41611">
        <ele>362.4</ele>
        <time>2022-03-26T16:28:14Z</time>
      </trkpt>
      <trkpt lat="46.34683" lon="5.4156">
        <ele>362.8</ele>
        <time>2022-03-26T16:28:22Z</time>
      </trkpt>
      <trkpt lat="46.34691" lon="5.41548">
        <ele>363</ele>
        <time>2022-03-26T16:28:24Z</time>
      </trkpt>
      <trkpt lat="46.34731" lon="5.41485">
        <ele>362.8</ele>
        <time>2022-03-26T16:28:34Z</time>
      </trkpt>
      <trkpt lat="46.34746" lon="5.41461">
        <ele>362.8</ele>
        <time>2022-03-26T16:28:38Z</time>
      </trkpt>
      <trkpt lat="46.3476" lon="5.41443">
        <ele>362.8</ele>
        <time>2022-03-26T16:28:41Z</time>
      </trkpt>
      <trkpt lat="46.34798" lon="5.41397">
        <ele>362.8</ele>
        <time>2022-03-26T16:28:49Z</time>
      </trkpt>
      <trkpt lat="46.34842" lon="5.41349">
        <ele>362.8</ele>
        <time>2022-03-26T16:28:58Z</time>
      </trkpt>
      <trkpt lat="46.34877" lon="5.41305">
        <ele>363.2</ele>
        <time>2022-03-26T16:29:06Z</time>
      </trkpt>
      <trkpt lat="46.34885" lon="5.41294">
        <ele>363.2</ele>
        <time>2022-03-26T16:29:08Z</time>
      </trkpt>
      <trkpt lat="46.34899" lon="5.41268">
        <ele>363</ele>
        <time>2022-03-26T16:29:12Z</time>
      </trkpt>
      <trkpt lat="46.34933" lon="5.41212">
        <ele>363</ele>
        <time>2022-03-26T16:29:21Z</time>
      </trkpt>
      <trkpt lat="46.34967" lon="5.41164">
        <ele>363.8</ele>
        <time>2022-03-26T16:29:30Z</time>
      </trkpt>
      <trkpt lat="46.34985" lon="5.4114">
        <ele>364</ele>
        <time>2022-03-26T16:29:35Z</time>
      </trkpt>
      <trkpt lat="46.34991" lon="5.41129">
        <ele>364.2</ele>
        <time>2022-03-26T16:29:37Z</time>
      </trkpt>
      <trkpt lat="46.35011" lon="5.41085">
        <ele>364.8</ele>
        <time>2022-03-26T16:29:44Z</time>
      </trkpt>
      <trkpt lat="46.35018" lon="5.41066">
        <ele>365.2</ele>
        <time>2022-03-26T16:29:47Z</time>
      </trkpt>
      <trkpt lat="46.35038" lon="5.41022">
        <ele>366</ele>
        <time>2022-03-26T16:29:55Z</time>
      </trkpt>
      <trkpt lat="46.35041" lon="5.41017">
        <ele>366</ele>
        <time>2022-03-26T16:29:56Z</time>
      </trkpt>
      <trkpt lat="46.35058" lon="5.40988">
        <ele>367</ele>
        <time>2022-03-26T16:30:02Z</time>
      </trkpt>
      <trkpt lat="46.35067" lon="5.40977">
        <ele>367.6</ele>
        <time>2022-03-26T16:30:05Z</time>
      </trkpt>
      <trkpt lat="46.35078" lon="5.40962">
        <ele>368.2</ele>
        <time>2022-03-26T16:30:09Z</time>
      </trkpt>
      <trkpt lat="46.35094" lon="5.40946">
        <ele>369.2</ele>
        <time>2022-03-26T16:30:14Z</time>
      </trkpt>
      <trkpt lat="46.35097" lon="5.40942">
        <ele>369.4</ele>
        <time>2022-03-26T16:30:15Z</time>
      </trkpt>
      <trkpt lat="46.3511" lon="5.40932">
        <ele>370.6</ele>
        <time>2022-03-26T16:30:19Z</time>
      </trkpt>
      <trkpt lat="46.3512" lon="5.40925">
        <ele>371.2</ele>
        <time>2022-03-26T16:30:22Z</time>
      </trkpt>
      <trkpt lat="46.35126" lon="5.40922">
        <ele>371.6</ele>
        <time>2022-03-26T16:30:24Z</time>
      </trkpt>
      <trkpt lat="46.35139" lon="5.40916">
        <ele>372.6</ele>
        <time>2022-03-26T16:30:28Z</time>
      </trkpt>
      <trkpt lat="46.35153" lon="5.40911">
        <ele>373</ele>
        <time>2022-03-26T16:30:32Z</time>
      </trkpt>
      <trkpt lat="46.35163" lon="5.40909">
        <ele>374</ele>
        <time>2022-03-26T16:30:35Z</time>
      </trkpt>
      <trkpt lat="46.35179" lon="5.40906">
        <ele>375.4</ele>
        <time>2022-03-26T16:30:40Z</time>
      </trkpt>
      <trkpt lat="46.35186" lon="5.40905">
        <ele>376</ele>
        <time>2022-03-26T16:30:42Z</time>
      </trkpt>
      <trkpt lat="46.35191" lon="5.40904">
        <ele>376.4</ele>
        <time>2022-03-26T16:30:44Z</time>
      </trkpt>
      <trkpt lat="46.35207" lon="5.40903">
        <ele>377.4</ele>
        <time>2022-03-26T16:30:49Z</time>
      </trkpt>
      <trkpt lat="46.35216" lon="5.40903">
        <ele>378</ele>
        <time>2022-03-26T16:30:52Z</time>
      </trkpt>
      <trkpt lat="46.35221" lon="5.40902">
        <ele>378.4</ele>
        <time>2022-03-26T16:30:54Z</time>
      </trkpt>
      <trkpt lat="46.35239" lon="5.40894">
        <ele>379.2</ele>
        <time>2022-03-26T16:31:00Z</time>
      </trkpt>
      <trkpt lat="46.35244" lon="5.40888">
        <ele>379.6</ele>
        <time>2022-03-26T16:31:02Z</time>
      </trkpt>
      <trkpt lat="46.35251" lon="5.40877">
        <ele>380</ele>
        <time>2022-03-26T16:31:05Z</time>
      </trkpt>
      <trkpt lat="46.35262" lon="5.40855">
        <ele>380.6</ele>
        <time>2022-03-26T16:31:10Z</time>
      </trkpt>
      <trkpt lat="46.35264" lon="5.40851">
        <ele>380.6</ele>
        <time>2022-03-26T16:31:11Z</time>
      </trkpt>
      <trkpt lat="46.3529" lon="5.40795">
        <ele>381</ele>
        <time>2022-03-26T16:31:22Z</time>
      </trkpt>
      <trkpt lat="46.35313" lon="5.40743">
        <ele>381</ele>
        <time>2022-03-26T16:31:31Z</time>
      </trkpt>
      <trkpt lat="46.35323" lon="5.40723">
        <ele>380.8</ele>
        <time>2022-03-26T16:31:34Z</time>
      </trkpt>
      <trkpt lat="46.35334" lon="5.40711">
        <ele>380.6</ele>
        <time>2022-03-26T16:31:36Z</time>
      </trkpt>
      <trkpt lat="46.35361" lon="5.40694">
        <ele>379.4</ele>
        <time>2022-03-26T16:31:40Z</time>
      </trkpt>
      <trkpt lat="46.35368" lon="5.40689">
        <ele>379</ele>
        <time>2022-03-26T16:31:41Z</time>
      </trkpt>
      <trkpt lat="46.35375" lon="5.40683">
        <ele>378.6</ele>
        <time>2022-03-26T16:31:42Z</time>
      </trkpt>
      <trkpt lat="46.35382" lon="5.40676">
        <ele>378.4</ele>
        <time>2022-03-26T16:31:43Z</time>
      </trkpt>
      <trkpt lat="46.35388" lon="5.40666">
        <ele>378</ele>
        <time>2022-03-26T16:31:44Z</time>
      </trkpt>
      <trkpt lat="46.35395" lon="5.40641">
        <ele>376.8</ele>
        <time>2022-03-26T16:31:46Z</time>
      </trkpt>
      <trkpt lat="46.35396" lon="5.40628">
        <ele>376</ele>
        <time>2022-03-26T16:31:47Z</time>
      </trkpt>
      <trkpt lat="46.35398" lon="5.40614">
        <ele>375.8</ele>
        <time>2022-03-26T16:31:48Z</time>
      </trkpt>
      <trkpt lat="46.35404" lon="5.40574">
        <ele>374.4</ele>
        <time>2022-03-26T16:31:51Z</time>
      </trkpt>
      <trkpt lat="46.35407" lon="5.40548">
        <ele>373.4</ele>
        <time>2022-03-26T16:31:53Z</time>
      </trkpt>
      <trkpt lat="46.35408" lon="5.40534">
        <ele>372.4</ele>
        <time>2022-03-26T16:31:54Z</time>
      </trkpt>
      <trkpt lat="46.35407" lon="5.40521">
        <ele>372</ele>
        <time>2022-03-26T16:31:55Z</time>
      </trkpt>
      <trkpt lat="46.35406" lon="5.40508">
        <ele>371.6</ele>
        <time>2022-03-26T16:31:56Z</time>
      </trkpt>
      <trkpt lat="46.35402" lon="5.40484">
        <ele>371</ele>
        <time>2022-03-26T16:31:58Z</time>
      </trkpt>
      <trkpt lat="46.35393" lon="5.40433">
        <ele>370.4</ele>
        <time>2022-03-26T16:32:03Z</time>
      </trkpt>
      <trkpt lat="46.35387" lon="5.40419">
        <ele>370.4</ele>
        <time>2022-03-26T16:32:05Z</time>
      </trkpt>
      <trkpt lat="46.35382" lon="5.40413">
        <ele>370.4</ele>
        <time>2022-03-26T16:32:06Z</time>
      </trkpt>
      <trkpt lat="46.35376" lon="5.40406">
        <ele>370.4</ele>
        <time>2022-03-26T16:32:07Z</time>
      </trkpt>
      <trkpt lat="46.35362" lon="5.40398">
        <ele>370.4</ele>
        <time>2022-03-26T16:32:09Z</time>
      </trkpt>
      <trkpt lat="46.35323" lon="5.40384">
        <ele>369.8</ele>
        <time>2022-03-26T16:32:14Z</time>
      </trkpt>
      <trkpt lat="46.35314" lon="5.4038">
        <ele>369.6</ele>
        <time>2022-03-26T16:32:15Z</time>
      </trkpt>
      <trkpt lat="46.353" lon="5.40367">
        <ele>368.4</ele>
        <time>2022-03-26T16:32:17Z</time>
      </trkpt>
      <trkpt lat="46.35289" lon="5.40346">
        <ele>367.4</ele>
        <time>2022-03-26T16:32:19Z</time>
      </trkpt>
      <trkpt lat="46.35287" lon="5.40335">
        <ele>367.2</ele>
        <time>2022-03-26T16:32:20Z</time>
      </trkpt>
      <trkpt lat="46.3528" lon="5.40255">
        <ele>366.8</ele>
        <time>2022-03-26T16:32:27Z</time>
      </trkpt>
      <trkpt lat="46.35277" lon="5.40192">
        <ele>367.6</ele>
        <time>2022-03-26T16:32:33Z</time>
      </trkpt>
      <trkpt lat="46.35274" lon="5.4014">
        <ele>368.4</ele>
        <time>2022-03-26T16:32:39Z</time>
      </trkpt>
      <trkpt lat="46.35272" lon="5.40131">
        <ele>368.6</ele>
        <time>2022-03-26T16:32:40Z</time>
      </trkpt>
      <trkpt lat="46.35271" lon="5.40123">
        <ele>368.6</ele>
        <time>2022-03-26T16:32:41Z</time>
      </trkpt>
      <trkpt lat="46.35265" lon="5.40108">
        <ele>369.2</ele>
        <time>2022-03-26T16:32:43Z</time>
      </trkpt>
      <trkpt lat="46.35261" lon="5.40101">
        <ele>369.4</ele>
        <time>2022-03-26T16:32:44Z</time>
      </trkpt>
      <trkpt lat="46.35237" lon="5.40067">
        <ele>369.8</ele>
        <time>2022-03-26T16:32:49Z</time>
      </trkpt>
      <trkpt lat="46.35211" lon="5.40021">
        <ele>369.8</ele>
        <time>2022-03-26T16:32:55Z</time>
      </trkpt>
      <trkpt lat="46.3518" lon="5.39963">
        <ele>369.8</ele>
        <time>2022-03-26T16:33:02Z</time>
      </trkpt>
      <trkpt lat="46.35151" lon="5.39914">
        <ele>370</ele>
        <time>2022-03-26T16:33:09Z</time>
      </trkpt>
      <trkpt lat="46.35137" lon="5.39884">
        <ele>370.4</ele>
        <time>2022-03-26T16:33:13Z</time>
      </trkpt>
      <trkpt lat="46.35122" lon="5.39849">
        <ele>371.2</ele>
        <time>2022-03-26T16:33:18Z</time>
      </trkpt>
      <trkpt lat="46.3511" lon="5.39819">
        <ele>371.6</ele>
        <time>2022-03-26T16:33:22Z</time>
      </trkpt>
      <trkpt lat="46.35102" lon="5.39794">
        <ele>371.8</ele>
        <time>2022-03-26T16:33:25Z</time>
      </trkpt>
      <trkpt lat="46.35084" lon="5.39725">
        <ele>372.2</ele>
        <time>2022-03-26T16:33:34Z</time>
      </trkpt>
      <trkpt lat="46.35081" lon="5.39699">
        <ele>372</ele>
        <time>2022-03-26T16:33:37Z</time>
      </trkpt>
      <trkpt lat="46.35082" lon="5.39681">
        <ele>372</ele>
        <time>2022-03-26T16:33:39Z</time>
      </trkpt>
      <trkpt lat="46.35086" lon="5.3961">
        <ele>372</ele>
        <time>2022-03-26T16:33:47Z</time>
      </trkpt>
      <trkpt lat="46.35082" lon="5.39531">
        <ele>372.4</ele>
        <time>2022-03-26T16:33:56Z</time>
      </trkpt>
      <trkpt lat="46.3508" lon="5.3949">
        <ele>373</ele>
        <time>2022-03-26T16:34:01Z</time>
      </trkpt>
      <trkpt lat="46.35081" lon="5.39458">
        <ele>373.2</ele>
        <time>2022-03-26T16:34:05Z</time>
      </trkpt>
      <trkpt lat="46.35083" lon="5.39392">
        <ele>373.2</ele>
        <time>2022-03-26T16:34:12Z</time>
      </trkpt>
      <trkpt lat="46.35086" lon="5.39327">
        <ele>373</ele>
        <time>2022-03-26T16:34:19Z</time>
      </trkpt>
      <trkpt lat="46.35082" lon="5.39268">
        <ele>373.4</ele>
        <time>2022-03-26T16:34:26Z</time>
      </trkpt>
      <trkpt lat="46.35078" lon="5.39231">
        <ele>374.2</ele>
        <time>2022-03-26T16:34:31Z</time>
      </trkpt>
      <trkpt lat="46.35077" lon="5.39209">
        <ele>374.8</ele>
        <time>2022-03-26T16:34:34Z</time>
      </trkpt>
      <trkpt lat="46.35076" lon="5.39195">
        <ele>375.4</ele>
        <time>2022-03-26T16:34:36Z</time>
      </trkpt>
      <trkpt lat="46.35075" lon="5.39163">
        <ele>376</ele>
        <time>2022-03-26T16:34:41Z</time>
      </trkpt>
      <trkpt lat="46.35075" lon="5.39151">
        <ele>376.6</ele>
        <time>2022-03-26T16:34:43Z</time>
      </trkpt>
      <trkpt lat="46.35075" lon="5.39132">
        <ele>376.8</ele>
        <time>2022-03-26T16:34:46Z</time>
      </trkpt>
      <trkpt lat="46.35076" lon="5.39113">
        <ele>377.2</ele>
        <time>2022-03-26T16:34:49Z</time>
      </trkpt>
      <trkpt lat="46.35076" lon="5.39096">
        <ele>377.6</ele>
        <time>2022-03-26T16:34:52Z</time>
      </trkpt>
      <trkpt lat="46.35077" lon="5.39085">
        <ele>378</ele>
        <time>2022-03-26T16:34:54Z</time>
      </trkpt>
      <trkpt lat="46.35079" lon="5.39074">
        <ele>378.6</ele>
        <time>2022-03-26T16:34:56Z</time>
      </trkpt>
      <trkpt lat="46.3508" lon="5.39069">
        <ele>378.8</ele>
        <time>2022-03-26T16:34:57Z</time>
      </trkpt>
      <trkpt lat="46.3508" lon="5.39041">
        <ele>379.6</ele>
        <time>2022-03-26T16:35:02Z</time>
      </trkpt>
      <trkpt lat="46.3508" lon="5.39036">
        <ele>379.8</ele>
        <time>2022-03-26T16:35:03Z</time>
      </trkpt>
      <trkpt lat="46.3508" lon="5.39017">
        <ele>381</ele>
        <time>2022-03-26T16:35:07Z</time>
      </trkpt>
      <trkpt lat="46.3508" lon="5.39013">
        <ele>381.2</ele>
        <time>2022-03-26T16:35:08Z</time>
      </trkpt>
      <trkpt lat="46.35082" lon="5.38995">
        <ele>382.4</ele>
        <time>2022-03-26T16:35:12Z</time>
      </trkpt>
      <trkpt lat="46.35082" lon="5.38995">
        <ele>382.8</ele>
        <time>2022-03-26T16:35:13Z</time>
      </trkpt>
      <trkpt lat="46.35089" lon="5.38989">
        <ele>383.2</ele>
        <time>2022-03-26T16:35:14Z</time>
      </trkpt>
      <trkpt lat="46.35098" lon="5.38983">
        <ele>383.6</ele>
        <time>2022-03-26T16:35:16Z</time>
      </trkpt>
      <trkpt lat="46.35124" lon="5.38957">
        <ele>384</ele>
        <time>2022-03-26T16:35:22Z</time>
      </trkpt>
      <trkpt lat="46.35167" lon="5.38907">
        <ele>384.4</ele>
        <time>2022-03-26T16:35:33Z</time>
      </trkpt>
      <trkpt lat="46.35174" lon="5.38898">
        <ele>384.6</ele>
        <time>2022-03-26T16:35:35Z</time>
      </trkpt>
      <trkpt lat="46.35199" lon="5.38869">
        <ele>385.6</ele>
        <time>2022-03-26T16:35:42Z</time>
      </trkpt>
      <trkpt lat="46.35203" lon="5.38865">
        <ele>385.8</ele>
        <time>2022-03-26T16:35:43Z</time>
      </trkpt>
      <trkpt lat="46.35222" lon="5.38844">
        <ele>387</ele>
        <time>2022-03-26T16:35:49Z</time>
      </trkpt>
      <trkpt lat="46.35226" lon="5.3884">
        <ele>387.2</ele>
        <time>2022-03-26T16:35:50Z</time>
      </trkpt>
      <trkpt lat="46.35247" lon="5.38823">
        <ele>388.2</ele>
        <time>2022-03-26T16:35:56Z</time>
      </trkpt>
      <trkpt lat="46.35265" lon="5.3881">
        <ele>388.8</ele>
        <time>2022-03-26T16:36:01Z</time>
      </trkpt>
      <trkpt lat="46.35268" lon="5.38807">
        <ele>389</ele>
        <time>2022-03-26T16:36:02Z</time>
      </trkpt>
      <trkpt lat="46.35272" lon="5.38805">
        <ele>389.2</ele>
        <time>2022-03-26T16:36:03Z</time>
      </trkpt>
      <trkpt lat="46.35287" lon="5.38794">
        <ele>390</ele>
        <time>2022-03-26T16:36:07Z</time>
      </trkpt>
      <trkpt lat="46.35289" lon="5.38792">
        <ele>390.2</ele>
        <time>2022-03-26T16:36:08Z</time>
      </trkpt>
      <trkpt lat="46.35293" lon="5.38789">
        <ele>390.4</ele>
        <time>2022-03-26T16:36:09Z</time>
      </trkpt>
      <trkpt lat="46.35308" lon="5.38778">
        <ele>391.6</ele>
        <time>2022-03-26T16:36:14Z</time>
      </trkpt>
      <trkpt lat="46.35321" lon="5.3877">
        <ele>392.6</ele>
        <time>2022-03-26T16:36:18Z</time>
      </trkpt>
      <trkpt lat="46.3533" lon="5.38765">
        <ele>393.2</ele>
        <time>2022-03-26T16:36:21Z</time>
      </trkpt>
      <trkpt lat="46.35337" lon="5.38762">
        <ele>393.6</ele>
        <time>2022-03-26T16:36:23Z</time>
      </trkpt>
      <trkpt lat="46.35354" lon="5.38755">
        <ele>395</ele>
        <time>2022-03-26T16:36:28Z</time>
      </trkpt>
      <trkpt lat="46.35359" lon="5.38752">
        <ele>395.4</ele>
        <time>2022-03-26T16:36:30Z</time>
      </trkpt>
      <trkpt lat="46.35369" lon="5.38748">
        <ele>396</ele>
        <time>2022-03-26T16:36:33Z</time>
      </trkpt>
      <trkpt lat="46.35389" lon="5.38742">
        <ele>397.2</ele>
        <time>2022-03-26T16:36:38Z</time>
      </trkpt>
      <trkpt lat="46.35393" lon="5.3874">
        <ele>397.4</ele>
        <time>2022-03-26T16:36:39Z</time>
      </trkpt>
      <trkpt lat="46.35419" lon="5.38734">
        <ele>398.4</ele>
        <time>2022-03-26T16:36:45Z</time>
      </trkpt>
      <trkpt lat="46.35433" lon="5.38733">
        <ele>399</ele>
        <time>2022-03-26T16:36:48Z</time>
      </trkpt>
      <trkpt lat="46.35449" lon="5.38733">
        <ele>399.4</ele>
        <time>2022-03-26T16:36:52Z</time>
      </trkpt>
      <trkpt lat="46.35472" lon="5.38733">
        <ele>400.4</ele>
        <time>2022-03-26T16:36:58Z</time>
      </trkpt>
      <trkpt lat="46.35475" lon="5.38733">
        <ele>400.6</ele>
        <time>2022-03-26T16:36:59Z</time>
      </trkpt>
      <trkpt lat="46.35498" lon="5.38733">
        <ele>401.8</ele>
        <time>2022-03-26T16:37:05Z</time>
      </trkpt>
      <trkpt lat="46.35512" lon="5.38733">
        <ele>402.4</ele>
        <time>2022-03-26T16:37:09Z</time>
      </trkpt>
      <trkpt lat="46.35523" lon="5.38733">
        <ele>403</ele>
        <time>2022-03-26T16:37:12Z</time>
      </trkpt>
      <trkpt lat="46.3554" lon="5.38733">
        <ele>404.2</ele>
        <time>2022-03-26T16:37:17Z</time>
      </trkpt>
      <trkpt lat="46.35546" lon="5.38733">
        <ele>404.8</ele>
        <time>2022-03-26T16:37:19Z</time>
      </trkpt>
      <trkpt lat="46.35556" lon="5.38732">
        <ele>405.4</ele>
        <time>2022-03-26T16:37:22Z</time>
      </trkpt>
      <trkpt lat="46.35574" lon="5.38731">
        <ele>406.2</ele>
        <time>2022-03-26T16:37:27Z</time>
      </trkpt>
      <trkpt lat="46.35577" lon="5.3873">
        <ele>406.6</ele>
        <time>2022-03-26T16:37:28Z</time>
      </trkpt>
      <trkpt lat="46.35598" lon="5.38726">
        <ele>407.6</ele>
        <time>2022-03-26T16:37:34Z</time>
      </trkpt>
      <trkpt lat="46.35611" lon="5.38723">
        <ele>408.4</ele>
        <time>2022-03-26T16:37:38Z</time>
      </trkpt>
      <trkpt lat="46.35618" lon="5.38721">
        <ele>408.6</ele>
        <time>2022-03-26T16:37:40Z</time>
      </trkpt>
      <trkpt lat="46.35635" lon="5.38717">
        <ele>409.8</ele>
        <time>2022-03-26T16:37:45Z</time>
      </trkpt>
      <trkpt lat="46.35652" lon="5.38714">
        <ele>410.6</ele>
        <time>2022-03-26T16:37:50Z</time>
      </trkpt>
      <trkpt lat="46.35659" lon="5.38713">
        <ele>410.8</ele>
        <time>2022-03-26T16:37:52Z</time>
      </trkpt>
      <trkpt lat="46.35686" lon="5.38712">
        <ele>411.8</ele>
        <time>2022-03-26T16:38:00Z</time>
      </trkpt>
      <trkpt lat="46.35689" lon="5.38712">
        <ele>412</ele>
        <time>2022-03-26T16:38:01Z</time>
      </trkpt>
      <trkpt lat="46.35703" lon="5.38713">
        <ele>413</ele>
        <time>2022-03-26T16:38:05Z</time>
      </trkpt>
      <trkpt lat="46.3572" lon="5.38714">
        <ele>414.2</ele>
        <time>2022-03-26T16:38:10Z</time>
      </trkpt>
      <trkpt lat="46.35731" lon="5.38715">
        <ele>415</ele>
        <time>2022-03-26T16:38:13Z</time>
      </trkpt>
      <trkpt lat="46.35738" lon="5.38716">
        <ele>415.4</ele>
        <time>2022-03-26T16:38:15Z</time>
      </trkpt>
      <trkpt lat="46.35757" lon="5.38718">
        <ele>416.6</ele>
        <time>2022-03-26T16:38:21Z</time>
      </trkpt>
      <trkpt lat="46.35768" lon="5.38718">
        <ele>417.2</ele>
        <time>2022-03-26T16:38:24Z</time>
      </trkpt>
      <trkpt lat="46.35774" lon="5.38718">
        <ele>417.6</ele>
        <time>2022-03-26T16:38:26Z</time>
      </trkpt>
      <trkpt lat="46.35795" lon="5.38719">
        <ele>418.6</ele>
        <time>2022-03-26T16:38:32Z</time>
      </trkpt>
      <trkpt lat="46.35804" lon="5.3872">
        <ele>419.2</ele>
        <time>2022-03-26T16:38:35Z</time>
      </trkpt>
      <trkpt lat="46.35811" lon="5.3872">
        <ele>419.8</ele>
        <time>2022-03-26T16:38:37Z</time>
      </trkpt>
      <trkpt lat="46.35829" lon="5.3872">
        <ele>420.8</ele>
        <time>2022-03-26T16:38:43Z</time>
      </trkpt>
      <trkpt lat="46.35842" lon="5.38721">
        <ele>421.8</ele>
        <time>2022-03-26T16:38:47Z</time>
      </trkpt>
      <trkpt lat="46.35845" lon="5.38721">
        <ele>421.8</ele>
        <time>2022-03-26T16:38:48Z</time>
      </trkpt>
      <trkpt lat="46.35864" lon="5.38721">
        <ele>423</ele>
        <time>2022-03-26T16:38:54Z</time>
      </trkpt>
      <trkpt lat="46.35867" lon="5.38721">
        <ele>423.2</ele>
        <time>2022-03-26T16:38:55Z</time>
      </trkpt>
      <trkpt lat="46.3587" lon="5.38721">
        <ele>423.4</ele>
        <time>2022-03-26T16:38:56Z</time>
      </trkpt>
      <trkpt lat="46.35883" lon="5.38721">
        <ele>424.2</ele>
        <time>2022-03-26T16:39:00Z</time>
      </trkpt>
      <trkpt lat="46.35901" lon="5.3872">
        <ele>425.4</ele>
        <time>2022-03-26T16:39:05Z</time>
      </trkpt>
      <trkpt lat="46.3592" lon="5.38719">
        <ele>426.4</ele>
        <time>2022-03-26T16:39:11Z</time>
      </trkpt>
      <trkpt lat="46.35936" lon="5.38719">
        <ele>427.6</ele>
        <time>2022-03-26T16:39:16Z</time>
      </trkpt>
      <trkpt lat="46.35952" lon="5.38719">
        <ele>428.4</ele>
        <time>2022-03-26T16:39:21Z</time>
      </trkpt>
      <trkpt lat="46.35955" lon="5.38719">
        <ele>428.6</ele>
        <time>2022-03-26T16:39:22Z</time>
      </trkpt>
      <trkpt lat="46.35974" lon="5.38719">
        <ele>429.8</ele>
        <time>2022-03-26T16:39:28Z</time>
      </trkpt>
      <trkpt lat="46.35992" lon="5.38718">
        <ele>430.6</ele>
        <time>2022-03-26T16:39:34Z</time>
      </trkpt>
      <trkpt lat="46.35996" lon="5.38717">
        <ele>431</ele>
        <time>2022-03-26T16:39:35Z</time>
      </trkpt>
      <trkpt lat="46.36019" lon="5.38718">
        <ele>432.2</ele>
        <time>2022-03-26T16:39:42Z</time>
      </trkpt>
      <trkpt lat="46.36037" lon="5.38718">
        <ele>433.4</ele>
        <time>2022-03-26T16:39:47Z</time>
      </trkpt>
      <trkpt lat="46.36045" lon="5.38718">
        <ele>433.8</ele>
        <time>2022-03-26T16:39:49Z</time>
      </trkpt>
      <trkpt lat="46.36055" lon="5.38719">
        <ele>434.4</ele>
        <time>2022-03-26T16:39:52Z</time>
      </trkpt>
      <trkpt lat="46.36074" lon="5.38718">
        <ele>435.6</ele>
        <time>2022-03-26T16:39:58Z</time>
      </trkpt>
      <trkpt lat="46.3608" lon="5.38718">
        <ele>436</ele>
        <time>2022-03-26T16:40:00Z</time>
      </trkpt>
      <trkpt lat="46.36096" lon="5.38718">
        <ele>436.8</ele>
        <time>2022-03-26T16:40:05Z</time>
      </trkpt>
      <trkpt lat="46.3611" lon="5.38718">
        <ele>437.4</ele>
        <time>2022-03-26T16:40:09Z</time>
      </trkpt>
      <trkpt lat="46.36119" lon="5.38718">
        <ele>438</ele>
        <time>2022-03-26T16:40:12Z</time>
      </trkpt>
      <trkpt lat="46.36135" lon="5.38718">
        <ele>439.2</ele>
        <time>2022-03-26T16:40:17Z</time>
      </trkpt>
      <trkpt lat="46.36141" lon="5.38718">
        <ele>439.4</ele>
        <time>2022-03-26T16:40:19Z</time>
      </trkpt>
      <trkpt lat="46.36157" lon="5.38716">
        <ele>440.2</ele>
        <time>2022-03-26T16:40:24Z</time>
      </trkpt>
      <trkpt lat="46.36161" lon="5.38716">
        <ele>440.2</ele>
        <time>2022-03-26T16:40:25Z</time>
      </trkpt>
      <trkpt lat="46.36174" lon="5.38716">
        <ele>441.2</ele>
        <time>2022-03-26T16:40:29Z</time>
      </trkpt>
      <trkpt lat="46.36192" lon="5.38717">
        <ele>442.4</ele>
        <time>2022-03-26T16:40:35Z</time>
      </trkpt>
      <trkpt lat="46.36211" lon="5.38716">
        <ele>443.4</ele>
        <time>2022-03-26T16:40:41Z</time>
      </trkpt>
      <trkpt lat="46.36224" lon="5.38716">
        <ele>444.2</ele>
        <time>2022-03-26T16:40:45Z</time>
      </trkpt>
      <trkpt lat="46.3623" lon="5.38716">
        <ele>444.6</ele>
        <time>2022-03-26T16:40:47Z</time>
      </trkpt>
      <trkpt lat="46.36247" lon="5.38717">
        <ele>445.6</ele>
        <time>2022-03-26T16:40:52Z</time>
      </trkpt>
      <trkpt lat="46.36257" lon="5.38717">
        <ele>446</ele>
        <time>2022-03-26T16:40:55Z</time>
      </trkpt>
      <trkpt lat="46.36276" lon="5.38716">
        <ele>446.6</ele>
        <time>2022-03-26T16:41:01Z</time>
      </trkpt>
      <trkpt lat="46.36285" lon="5.38716">
        <ele>447.2</ele>
        <time>2022-03-26T16:41:04Z</time>
      </trkpt>
      <trkpt lat="46.36296" lon="5.38716">
        <ele>448</ele>
        <time>2022-03-26T16:41:08Z</time>
      </trkpt>
      <trkpt lat="46.36312" lon="5.38717">
        <ele>448.6</ele>
        <time>2022-03-26T16:41:13Z</time>
      </trkpt>
      <trkpt lat="46.36319" lon="5.38717">
        <ele>448.8</ele>
        <time>2022-03-26T16:41:15Z</time>
      </trkpt>
      <trkpt lat="46.36337" lon="5.38717">
        <ele>449.8</ele>
        <time>2022-03-26T16:41:21Z</time>
      </trkpt>
      <trkpt lat="46.36349" lon="5.38716">
        <ele>450.6</ele>
        <time>2022-03-26T16:41:25Z</time>
      </trkpt>
      <trkpt lat="46.36352" lon="5.38716">
        <ele>450.8</ele>
        <time>2022-03-26T16:41:26Z</time>
      </trkpt>
      <trkpt lat="46.36367" lon="5.38714">
        <ele>451.8</ele>
        <time>2022-03-26T16:41:31Z</time>
      </trkpt>
      <trkpt lat="46.36377" lon="5.38712">
        <ele>452.4</ele>
        <time>2022-03-26T16:41:34Z</time>
      </trkpt>
      <trkpt lat="46.36385" lon="5.38709">
        <ele>453</ele>
        <time>2022-03-26T16:41:37Z</time>
      </trkpt>
      <trkpt lat="46.36408" lon="5.38702">
        <ele>454.2</ele>
        <time>2022-03-26T16:41:44Z</time>
      </trkpt>
      <trkpt lat="46.36423" lon="5.38697">
        <ele>455.2</ele>
        <time>2022-03-26T16:41:49Z</time>
      </trkpt>
      <trkpt lat="46.36432" lon="5.38692">
        <ele>455.6</ele>
        <time>2022-03-26T16:41:52Z</time>
      </trkpt>
      <trkpt lat="46.36443" lon="5.38687">
        <ele>456.4</ele>
        <time>2022-03-26T16:41:56Z</time>
      </trkpt>
      <trkpt lat="46.36462" lon="5.38677">
        <ele>457.6</ele>
        <time>2022-03-26T16:42:02Z</time>
      </trkpt>
      <trkpt lat="46.36477" lon="5.3867">
        <ele>458.6</ele>
        <time>2022-03-26T16:42:07Z</time>
      </trkpt>
      <trkpt lat="46.3649" lon="5.38664">
        <ele>459.2</ele>
        <time>2022-03-26T16:42:11Z</time>
      </trkpt>
      <trkpt lat="46.36499" lon="5.38658">
        <ele>459.8</ele>
        <time>2022-03-26T16:42:14Z</time>
      </trkpt>
      <trkpt lat="46.36521" lon="5.38647">
        <ele>460.8</ele>
        <time>2022-03-26T16:42:20Z</time>
      </trkpt>
      <trkpt lat="46.36524" lon="5.38645">
        <ele>461</ele>
        <time>2022-03-26T16:42:21Z</time>
      </trkpt>
      <trkpt lat="46.36538" lon="5.38637">
        <ele>461.8</ele>
        <time>2022-03-26T16:42:25Z</time>
      </trkpt>
      <trkpt lat="46.36556" lon="5.38628">
        <ele>463</ele>
        <time>2022-03-26T16:42:30Z</time>
      </trkpt>
      <trkpt lat="46.36566" lon="5.38622">
        <ele>463.6</ele>
        <time>2022-03-26T16:42:33Z</time>
      </trkpt>
      <trkpt lat="46.36574" lon="5.38618">
        <ele>464</ele>
        <time>2022-03-26T16:42:35Z</time>
      </trkpt>
      <trkpt lat="46.36592" lon="5.38609">
        <ele>465</ele>
        <time>2022-03-26T16:42:40Z</time>
      </trkpt>
      <trkpt lat="46.36605" lon="5.38603">
        <ele>466.2</ele>
        <time>2022-03-26T16:42:44Z</time>
      </trkpt>
      <trkpt lat="46.36624" lon="5.38596">
        <ele>467.2</ele>
        <time>2022-03-26T16:42:49Z</time>
      </trkpt>
      <trkpt lat="46.36627" lon="5.38595">
        <ele>467.4</ele>
        <time>2022-03-26T16:42:50Z</time>
      </trkpt>
      <trkpt lat="46.36641" lon="5.38591">
        <ele>468.4</ele>
        <time>2022-03-26T16:42:54Z</time>
      </trkpt>
      <trkpt lat="46.36661" lon="5.38589">
        <ele>469.4</ele>
        <time>2022-03-26T16:43:00Z</time>
      </trkpt>
      <trkpt lat="46.36677" lon="5.38588">
        <ele>470.6</ele>
        <time>2022-03-26T16:43:05Z</time>
      </trkpt>
      <trkpt lat="46.36696" lon="5.38587">
        <ele>471.4</ele>
        <time>2022-03-26T16:43:11Z</time>
      </trkpt>
      <trkpt lat="46.36703" lon="5.38586">
        <ele>471.8</ele>
        <time>2022-03-26T16:43:13Z</time>
      </trkpt>
      <trkpt lat="46.36726" lon="5.38581">
        <ele>472.8</ele>
        <time>2022-03-26T16:43:20Z</time>
      </trkpt>
      <trkpt lat="46.36729" lon="5.3858">
        <ele>473.2</ele>
        <time>2022-03-26T16:43:21Z</time>
      </trkpt>
      <trkpt lat="46.36745" lon="5.38573">
        <ele>474</ele>
        <time>2022-03-26T16:43:26Z</time>
      </trkpt>
      <trkpt lat="46.36762" lon="5.38564">
        <ele>474.8</ele>
        <time>2022-03-26T16:43:31Z</time>
      </trkpt>
      <trkpt lat="46.3677" lon="5.38559">
        <ele>475.2</ele>
        <time>2022-03-26T16:43:33Z</time>
      </trkpt>
      <trkpt lat="46.36794" lon="5.38543">
        <ele>475.8</ele>
        <time>2022-03-26T16:43:40Z</time>
      </trkpt>
      <trkpt lat="46.36802" lon="5.38537">
        <ele>476.2</ele>
        <time>2022-03-26T16:43:42Z</time>
      </trkpt>
      <trkpt lat="46.36824" lon="5.38513">
        <ele>477.2</ele>
        <time>2022-03-26T16:43:49Z</time>
      </trkpt>
      <trkpt lat="46.36827" lon="5.38509">
        <ele>477.2</ele>
        <time>2022-03-26T16:43:50Z</time>
      </trkpt>
      <trkpt lat="46.3685" lon="5.38477">
        <ele>478.2</ele>
        <time>2022-03-26T16:43:57Z</time>
      </trkpt>
      <trkpt lat="46.36853" lon="5.38472">
        <ele>478.2</ele>
        <time>2022-03-26T16:43:58Z</time>
      </trkpt>
      <trkpt lat="46.36867" lon="5.38447">
        <ele>478.2</ele>
        <time>2022-03-26T16:44:02Z</time>
      </trkpt>
      <trkpt lat="46.36901" lon="5.38389">
        <ele>478</ele>
        <time>2022-03-26T16:44:11Z</time>
      </trkpt>
      <trkpt lat="46.36934" lon="5.38334">
        <ele>477.4</ele>
        <time>2022-03-26T16:44:19Z</time>
      </trkpt>
      <trkpt lat="46.36939" lon="5.38327">
        <ele>477.4</ele>
        <time>2022-03-26T16:44:20Z</time>
      </trkpt>
      <trkpt lat="46.36952" lon="5.38308">
        <ele>477.2</ele>
        <time>2022-03-26T16:44:23Z</time>
      </trkpt>
      <trkpt lat="46.36956" lon="5.38301">
        <ele>477.2</ele>
        <time>2022-03-26T16:44:24Z</time>
      </trkpt>
      <trkpt lat="46.36995" lon="5.38237">
        <ele>476.4</ele>
        <time>2022-03-26T16:44:32Z</time>
      </trkpt>
      <trkpt lat="46.37" lon="5.38228">
        <ele>476.4</ele>
        <time>2022-03-26T16:44:33Z</time>
      </trkpt>
      <trkpt lat="46.37011" lon="5.38208">
        <ele>476.2</ele>
        <time>2022-03-26T16:44:35Z</time>
      </trkpt>
      <trkpt lat="46.37028" lon="5.38179">
        <ele>475.4</ele>
        <time>2022-03-26T16:44:38Z</time>
      </trkpt>
      <trkpt lat="46.37041" lon="5.38159">
        <ele>474.8</ele>
        <time>2022-03-26T16:44:40Z</time>
      </trkpt>
      <trkpt lat="46.37059" lon="5.38129">
        <ele>473.4</ele>
        <time>2022-03-26T16:44:43Z</time>
      </trkpt>
      <trkpt lat="46.37074" lon="5.38104">
        <ele>472.4</ele>
        <time>2022-03-26T16:44:45Z</time>
      </trkpt>
      <trkpt lat="46.37094" lon="5.38066">
        <ele>471.4</ele>
        <time>2022-03-26T16:44:48Z</time>
      </trkpt>
      <trkpt lat="46.3711" lon="5.38031">
        <ele>469.8</ele>
        <time>2022-03-26T16:44:51Z</time>
      </trkpt>
      <trkpt lat="46.37127" lon="5.37992">
        <ele>468.6</ele>
        <time>2022-03-26T16:44:54Z</time>
      </trkpt>
      <trkpt lat="46.37148" lon="5.37946">
        <ele>468</ele>
        <time>2022-03-26T16:44:58Z</time>
      </trkpt>
      <trkpt lat="46.37169" lon="5.37901">
        <ele>467.4</ele>
        <time>2022-03-26T16:45:02Z</time>
      </trkpt>
      <trkpt lat="46.37184" lon="5.37872">
        <ele>467.2</ele>
        <time>2022-03-26T16:45:05Z</time>
      </trkpt>
      <trkpt lat="46.37217" lon="5.3781">
        <ele>466.8</ele>
        <time>2022-03-26T16:45:11Z</time>
      </trkpt>
      <trkpt lat="46.37222" lon="5.378">
        <ele>466.8</ele>
        <time>2022-03-26T16:45:12Z</time>
      </trkpt>
      <trkpt lat="46.3725" lon="5.3775">
        <ele>466.4</ele>
        <time>2022-03-26T16:45:17Z</time>
      </trkpt>
      <trkpt lat="46.37278" lon="5.37701">
        <ele>465.4</ele>
        <time>2022-03-26T16:45:22Z</time>
      </trkpt>
      <trkpt lat="46.37283" lon="5.37692">
        <ele>465.4</ele>
        <time>2022-03-26T16:45:23Z</time>
      </trkpt>
      <trkpt lat="46.37301" lon="5.37662">
        <ele>464.2</ele>
        <time>2022-03-26T16:45:26Z</time>
      </trkpt>
      <trkpt lat="46.37318" lon="5.37632">
        <ele>463</ele>
        <time>2022-03-26T16:45:29Z</time>
      </trkpt>
      <trkpt lat="46.37347" lon="5.37582">
        <ele>461</ele>
        <time>2022-03-26T16:45:33Z</time>
      </trkpt>
      <trkpt lat="46.37353" lon="5.37574">
        <ele>460.6</ele>
        <time>2022-03-26T16:45:34Z</time>
      </trkpt>
      <trkpt lat="46.37364" lon="5.37561">
        <ele>459.8</ele>
        <time>2022-03-26T16:45:35Z</time>
      </trkpt>
      <trkpt lat="46.37373" lon="5.37551">
        <ele>458.8</ele>
        <time>2022-03-26T16:45:36Z</time>
      </trkpt>
      <trkpt lat="46.37391" lon="5.37531">
        <ele>457.4</ele>
        <time>2022-03-26T16:45:38Z</time>
      </trkpt>
      <trkpt lat="46.37398" lon="5.37523">
        <ele>456.8</ele>
        <time>2022-03-26T16:45:39Z</time>
      </trkpt>
      <trkpt lat="46.3741" lon="5.37511">
        <ele>456</ele>
        <time>2022-03-26T16:45:40Z</time>
      </trkpt>
      <trkpt lat="46.37429" lon="5.37491">
        <ele>454.4</ele>
        <time>2022-03-26T16:45:42Z</time>
      </trkpt>
      <trkpt lat="46.37448" lon="5.37472">
        <ele>453</ele>
        <time>2022-03-26T16:45:44Z</time>
      </trkpt>
      <trkpt lat="46.37466" lon="5.37453">
        <ele>451.6</ele>
        <time>2022-03-26T16:45:46Z</time>
      </trkpt>
      <trkpt lat="46.37474" lon="5.37445">
        <ele>450.6</ele>
        <time>2022-03-26T16:45:47Z</time>
      </trkpt>
      <trkpt lat="46.3749" lon="5.37425">
        <ele>449.4</ele>
        <time>2022-03-26T16:45:49Z</time>
      </trkpt>
      <trkpt lat="46.37496" lon="5.37412">
        <ele>448.8</ele>
        <time>2022-03-26T16:45:50Z</time>
      </trkpt>
      <trkpt lat="46.37498" lon="5.37398">
        <ele>448</ele>
        <time>2022-03-26T16:45:51Z</time>
      </trkpt>
      <trkpt lat="46.37495" lon="5.37384">
        <ele>447.2</ele>
        <time>2022-03-26T16:45:52Z</time>
      </trkpt>
      <trkpt lat="46.3749" lon="5.37372">
        <ele>447</ele>
        <time>2022-03-26T16:45:53Z</time>
      </trkpt>
      <trkpt lat="46.37483" lon="5.37361">
        <ele>446.8</ele>
        <time>2022-03-26T16:45:54Z</time>
      </trkpt>
      <trkpt lat="46.37475" lon="5.37351">
        <ele>446.6</ele>
        <time>2022-03-26T16:45:55Z</time>
      </trkpt>
      <trkpt lat="46.37447" lon="5.37319">
        <ele>446</ele>
        <time>2022-03-26T16:45:58Z</time>
      </trkpt>
      <trkpt lat="46.37438" lon="5.37308">
        <ele>445.6</ele>
        <time>2022-03-26T16:45:59Z</time>
      </trkpt>
      <trkpt lat="46.37413" lon="5.37274">
        <ele>444.6</ele>
        <time>2022-03-26T16:46:02Z</time>
      </trkpt>
      <trkpt lat="46.37384" lon="5.37243">
        <ele>443.2</ele>
        <time>2022-03-26T16:46:05Z</time>
      </trkpt>
      <trkpt lat="46.37377" lon="5.37234">
        <ele>443</ele>
        <time>2022-03-26T16:46:06Z</time>
      </trkpt>
      <trkpt lat="46.37357" lon="5.37206">
        <ele>441.6</ele>
        <time>2022-03-26T16:46:08Z</time>
      </trkpt>
      <trkpt lat="46.37342" lon="5.37181">
        <ele>440.8</ele>
        <time>2022-03-26T16:46:10Z</time>
      </trkpt>
      <trkpt lat="46.37333" lon="5.37168">
        <ele>440.4</ele>
        <time>2022-03-26T16:46:11Z</time>
      </trkpt>
      <trkpt lat="46.37312" lon="5.37148">
        <ele>438.4</ele>
        <time>2022-03-26T16:46:13Z</time>
      </trkpt>
      <trkpt lat="46.37289" lon="5.37133">
        <ele>436.8</ele>
        <time>2022-03-26T16:46:15Z</time>
      </trkpt>
      <trkpt lat="46.37267" lon="5.37118">
        <ele>435.6</ele>
        <time>2022-03-26T16:46:17Z</time>
      </trkpt>
      <trkpt lat="46.37256" lon="5.3711">
        <ele>435</ele>
        <time>2022-03-26T16:46:18Z</time>
      </trkpt>
      <trkpt lat="46.37245" lon="5.37102">
        <ele>434.4</ele>
        <time>2022-03-26T16:46:19Z</time>
      </trkpt>
      <trkpt lat="46.37223" lon="5.37085">
        <ele>433.4</ele>
        <time>2022-03-26T16:46:21Z</time>
      </trkpt>
      <trkpt lat="46.37199" lon="5.37068">
        <ele>432</ele>
        <time>2022-03-26T16:46:23Z</time>
      </trkpt>
      <trkpt lat="46.37179" lon="5.37053">
        <ele>430.6</ele>
        <time>2022-03-26T16:46:25Z</time>
      </trkpt>
      <trkpt lat="46.37158" lon="5.37033">
        <ele>429.6</ele>
        <time>2022-03-26T16:46:27Z</time>
      </trkpt>
      <trkpt lat="46.37139" lon="5.37011">
        <ele>427.8</ele>
        <time>2022-03-26T16:46:29Z</time>
      </trkpt>
      <trkpt lat="46.3713" lon="5.36999">
        <ele>427.6</ele>
        <time>2022-03-26T16:46:30Z</time>
      </trkpt>
      <trkpt lat="46.37121" lon="5.36987">
        <ele>426.8</ele>
        <time>2022-03-26T16:46:31Z</time>
      </trkpt>
      <trkpt lat="46.37099" lon="5.36946">
        <ele>425.4</ele>
        <time>2022-03-26T16:46:34Z</time>
      </trkpt>
      <trkpt lat="46.37085" lon="5.36918">
        <ele>423.8</ele>
        <time>2022-03-26T16:46:36Z</time>
      </trkpt>
      <trkpt lat="46.37073" lon="5.36889">
        <ele>422.6</ele>
        <time>2022-03-26T16:46:38Z</time>
      </trkpt>
      <trkpt lat="46.3707" lon="5.36872">
        <ele>422.2</ele>
        <time>2022-03-26T16:46:39Z</time>
      </trkpt>
      <trkpt lat="46.37068" lon="5.36851">
        <ele>421.4</ele>
        <time>2022-03-26T16:46:40Z</time>
      </trkpt>
      <trkpt lat="46.37068" lon="5.36818">
        <ele>420.2</ele>
        <time>2022-03-26T16:46:42Z</time>
      </trkpt>
      <trkpt lat="46.37072" lon="5.36783">
        <ele>419</ele>
        <time>2022-03-26T16:46:44Z</time>
      </trkpt>
      <trkpt lat="46.37075" lon="5.36763">
        <ele>418.2</ele>
        <time>2022-03-26T16:46:45Z</time>
      </trkpt>
      <trkpt lat="46.37079" lon="5.36749">
        <ele>417.6</ele>
        <time>2022-03-26T16:46:46Z</time>
      </trkpt>
      <trkpt lat="46.37089" lon="5.36718">
        <ele>416.2</ele>
        <time>2022-03-26T16:46:48Z</time>
      </trkpt>
      <trkpt lat="46.37096" lon="5.367">
        <ele>415.2</ele>
        <time>2022-03-26T16:46:49Z</time>
      </trkpt>
      <trkpt lat="46.37106" lon="5.36673">
        <ele>413.6</ele>
        <time>2022-03-26T16:46:51Z</time>
      </trkpt>
      <trkpt lat="46.37117" lon="5.36642">
        <ele>412.6</ele>
        <time>2022-03-26T16:46:53Z</time>
      </trkpt>
      <trkpt lat="46.3713" lon="5.36611">
        <ele>411.6</ele>
        <time>2022-03-26T16:46:55Z</time>
      </trkpt>
      <trkpt lat="46.37138" lon="5.36599">
        <ele>410.8</ele>
        <time>2022-03-26T16:46:56Z</time>
      </trkpt>
      <trkpt lat="46.37154" lon="5.36574">
        <ele>409.8</ele>
        <time>2022-03-26T16:46:58Z</time>
      </trkpt>
      <trkpt lat="46.37161" lon="5.36565">
        <ele>408.8</ele>
        <time>2022-03-26T16:46:59Z</time>
      </trkpt>
      <trkpt lat="46.3717" lon="5.36555">
        <ele>408.4</ele>
        <time>2022-03-26T16:47:00Z</time>
      </trkpt>
      <trkpt lat="46.37182" lon="5.36543">
        <ele>407.6</ele>
        <time>2022-03-26T16:47:01Z</time>
      </trkpt>
      <trkpt lat="46.3719" lon="5.36536">
        <ele>407.2</ele>
        <time>2022-03-26T16:47:02Z</time>
      </trkpt>
      <trkpt lat="46.37201" lon="5.36528">
        <ele>406.4</ele>
        <time>2022-03-26T16:47:03Z</time>
      </trkpt>
      <trkpt lat="46.37225" lon="5.36515">
        <ele>405</ele>
        <time>2022-03-26T16:47:05Z</time>
      </trkpt>
      <trkpt lat="46.37245" lon="5.36509">
        <ele>403.6</ele>
        <time>2022-03-26T16:47:07Z</time>
      </trkpt>
      <trkpt lat="46.37256" lon="5.36506">
        <ele>403</ele>
        <time>2022-03-26T16:47:08Z</time>
      </trkpt>
      <trkpt lat="46.37266" lon="5.36504">
        <ele>402.6</ele>
        <time>2022-03-26T16:47:09Z</time>
      </trkpt>
      <trkpt lat="46.37278" lon="5.36502">
        <ele>401.8</ele>
        <time>2022-03-26T16:47:10Z</time>
      </trkpt>
      <trkpt lat="46.37287" lon="5.36499">
        <ele>401.4</ele>
        <time>2022-03-26T16:47:11Z</time>
      </trkpt>
      <trkpt lat="46.37293" lon="5.36491">
        <ele>401</ele>
        <time>2022-03-26T16:47:12Z</time>
      </trkpt>
      <trkpt lat="46.37295" lon="5.36482">
        <ele>400.4</ele>
        <time>2022-03-26T16:47:13Z</time>
      </trkpt>
      <trkpt lat="46.37296" lon="5.36468">
        <ele>399.8</ele>
        <time>2022-03-26T16:47:14Z</time>
      </trkpt>
      <trkpt lat="46.37293" lon="5.36455">
        <ele>399</ele>
        <time>2022-03-26T16:47:15Z</time>
      </trkpt>
      <trkpt lat="46.37288" lon="5.36442">
        <ele>398.6</ele>
        <time>2022-03-26T16:47:16Z</time>
      </trkpt>
      <trkpt lat="46.37278" lon="5.36419">
        <ele>397.6</ele>
        <time>2022-03-26T16:47:18Z</time>
      </trkpt>
      <trkpt lat="46.37266" lon="5.36391">
        <ele>396.2</ele>
        <time>2022-03-26T16:47:20Z</time>
      </trkpt>
      <trkpt lat="46.37257" lon="5.36374">
        <ele>395</ele>
        <time>2022-03-26T16:47:21Z</time>
      </trkpt>
      <trkpt lat="46.37242" lon="5.36345">
        <ele>393.8</ele>
        <time>2022-03-26T16:47:23Z</time>
      </trkpt>
      <trkpt lat="46.37233" lon="5.3633">
        <ele>393.2</ele>
        <time>2022-03-26T16:47:24Z</time>
      </trkpt>
      <trkpt lat="46.37223" lon="5.36313">
        <ele>392.8</ele>
        <time>2022-03-26T16:47:25Z</time>
      </trkpt>
      <trkpt lat="46.37217" lon="5.36298">
        <ele>392.2</ele>
        <time>2022-03-26T16:47:26Z</time>
      </trkpt>
      <trkpt lat="46.37204" lon="5.3627">
        <ele>391</ele>
        <time>2022-03-26T16:47:28Z</time>
      </trkpt>
      <trkpt lat="46.37197" lon="5.36252">
        <ele>390</ele>
        <time>2022-03-26T16:47:29Z</time>
      </trkpt>
      <trkpt lat="46.37192" lon="5.36236">
        <ele>389.6</ele>
        <time>2022-03-26T16:47:30Z</time>
      </trkpt>
      <trkpt lat="46.37188" lon="5.36219">
        <ele>389</ele>
        <time>2022-03-26T16:47:31Z</time>
      </trkpt>
      <trkpt lat="46.37182" lon="5.36189">
        <ele>387.6</ele>
        <time>2022-03-26T16:47:33Z</time>
      </trkpt>
      <trkpt lat="46.37175" lon="5.36152">
        <ele>386.8</ele>
        <time>2022-03-26T16:47:35Z</time>
      </trkpt>
      <trkpt lat="46.37173" lon="5.36134">
        <ele>386.4</ele>
        <time>2022-03-26T16:47:36Z</time>
      </trkpt>
      <trkpt lat="46.37174" lon="5.36104">
        <ele>384.8</ele>
        <time>2022-03-26T16:47:38Z</time>
      </trkpt>
      <trkpt lat="46.37186" lon="5.36072">
        <ele>384</ele>
        <time>2022-03-26T16:47:40Z</time>
      </trkpt>
      <trkpt lat="46.37196" lon="5.36063">
        <ele>383.8</ele>
        <time>2022-03-26T16:47:41Z</time>
      </trkpt>
      <trkpt lat="46.37205" lon="5.36058">
        <ele>383.2</ele>
        <time>2022-03-26T16:47:42Z</time>
      </trkpt>
      <trkpt lat="46.37227" lon="5.36044">
        <ele>381.6</ele>
        <time>2022-03-26T16:47:44Z</time>
      </trkpt>
      <trkpt lat="46.37237" lon="5.36034">
        <ele>380.4</ele>
        <time>2022-03-26T16:47:45Z</time>
      </trkpt>
      <trkpt lat="46.37248" lon="5.36022">
        <ele>379.8</ele>
        <time>2022-03-26T16:47:46Z</time>
      </trkpt>
      <trkpt lat="46.37256" lon="5.36014">
        <ele>378.6</ele>
        <time>2022-03-26T16:47:47Z</time>
      </trkpt>
      <trkpt lat="46.37266" lon="5.36005">
        <ele>378</ele>
        <time>2022-03-26T16:47:48Z</time>
      </trkpt>
      <trkpt lat="46.37276" lon="5.35997">
        <ele>377.2</ele>
        <time>2022-03-26T16:47:49Z</time>
      </trkpt>
      <trkpt lat="46.37289" lon="5.35991">
        <ele>376.8</ele>
        <time>2022-03-26T16:47:50Z</time>
      </trkpt>
      <trkpt lat="46.37299" lon="5.3599">
        <ele>375.6</ele>
        <time>2022-03-26T16:47:51Z</time>
      </trkpt>
      <trkpt lat="46.37307" lon="5.35994">
        <ele>375</ele>
        <time>2022-03-26T16:47:52Z</time>
      </trkpt>
      <trkpt lat="46.37326" lon="5.36009">
        <ele>374.2</ele>
        <time>2022-03-26T16:47:54Z</time>
      </trkpt>
      <trkpt lat="46.37337" lon="5.36013">
        <ele>373.8</ele>
        <time>2022-03-26T16:47:55Z</time>
      </trkpt>
      <trkpt lat="46.37343" lon="5.3601">
        <ele>372.8</ele>
        <time>2022-03-26T16:47:56Z</time>
      </trkpt>
      <trkpt lat="46.3735" lon="5.36001">
        <ele>372.2</ele>
        <time>2022-03-26T16:47:57Z</time>
      </trkpt>
      <trkpt lat="46.37354" lon="5.35988">
        <ele>371.6</ele>
        <time>2022-03-26T16:47:58Z</time>
      </trkpt>
      <trkpt lat="46.37357" lon="5.35971">
        <ele>371.4</ele>
        <time>2022-03-26T16:47:59Z</time>
      </trkpt>
      <trkpt lat="46.3736" lon="5.35956">
        <ele>370.4</ele>
        <time>2022-03-26T16:48:00Z</time>
      </trkpt>
      <trkpt lat="46.37363" lon="5.35942">
        <ele>369</ele>
        <time>2022-03-26T16:48:01Z</time>
      </trkpt>
      <trkpt lat="46.37367" lon="5.35913">
        <ele>367.8</ele>
        <time>2022-03-26T16:48:03Z</time>
      </trkpt>
      <trkpt lat="46.3738" lon="5.35886">
        <ele>367</ele>
        <time>2022-03-26T16:48:05Z</time>
      </trkpt>
      <trkpt lat="46.37387" lon="5.35878">
        <ele>366.6</ele>
        <time>2022-03-26T16:48:06Z</time>
      </trkpt>
      <trkpt lat="46.37396" lon="5.35869">
        <ele>365.8</ele>
        <time>2022-03-26T16:48:07Z</time>
      </trkpt>
      <trkpt lat="46.37406" lon="5.35862">
        <ele>365</ele>
        <time>2022-03-26T16:48:08Z</time>
      </trkpt>
      <trkpt lat="46.37416" lon="5.35856">
        <ele>364.8</ele>
        <time>2022-03-26T16:48:09Z</time>
      </trkpt>
      <trkpt lat="46.3744" lon="5.35841">
        <ele>363.6</ele>
        <time>2022-03-26T16:48:11Z</time>
      </trkpt>
      <trkpt lat="46.3746" lon="5.35826">
        <ele>362.6</ele>
        <time>2022-03-26T16:48:13Z</time>
      </trkpt>
      <trkpt lat="46.37468" lon="5.3582">
        <ele>361.8</ele>
        <time>2022-03-26T16:48:14Z</time>
      </trkpt>
      <trkpt lat="46.37478" lon="5.35813">
        <ele>360.6</ele>
        <time>2022-03-26T16:48:15Z</time>
      </trkpt>
      <trkpt lat="46.37498" lon="5.35794">
        <ele>359.2</ele>
        <time>2022-03-26T16:48:17Z</time>
      </trkpt>
      <trkpt lat="46.37506" lon="5.35783">
        <ele>358.6</ele>
        <time>2022-03-26T16:48:18Z</time>
      </trkpt>
      <trkpt lat="46.37513" lon="5.35774">
        <ele>357.8</ele>
        <time>2022-03-26T16:48:19Z</time>
      </trkpt>
      <trkpt lat="46.37521" lon="5.3576">
        <ele>357.4</ele>
        <time>2022-03-26T16:48:20Z</time>
      </trkpt>
      <trkpt lat="46.37527" lon="5.35748">
        <ele>356.8</ele>
        <time>2022-03-26T16:48:21Z</time>
      </trkpt>
      <trkpt lat="46.37532" lon="5.35735">
        <ele>356.4</ele>
        <time>2022-03-26T16:48:22Z</time>
      </trkpt>
      <trkpt lat="46.37542" lon="5.35707">
        <ele>355</ele>
        <time>2022-03-26T16:48:24Z</time>
      </trkpt>
      <trkpt lat="46.37553" lon="5.3568">
        <ele>353.6</ele>
        <time>2022-03-26T16:48:26Z</time>
      </trkpt>
      <trkpt lat="46.37568" lon="5.3564">
        <ele>352.2</ele>
        <time>2022-03-26T16:48:29Z</time>
      </trkpt>
      <trkpt lat="46.37574" lon="5.35628">
        <ele>351.6</ele>
        <time>2022-03-26T16:48:30Z</time>
      </trkpt>
      <trkpt lat="46.37581" lon="5.35617">
        <ele>351</ele>
        <time>2022-03-26T16:48:31Z</time>
      </trkpt>
      <trkpt lat="46.37589" lon="5.35606">
        <ele>350.6</ele>
        <time>2022-03-26T16:48:32Z</time>
      </trkpt>
      <trkpt lat="46.37598" lon="5.35598">
        <ele>350.2</ele>
        <time>2022-03-26T16:48:33Z</time>
      </trkpt>
      <trkpt lat="46.37608" lon="5.35593">
        <ele>349.8</ele>
        <time>2022-03-26T16:48:34Z</time>
      </trkpt>
      <trkpt lat="46.3763" lon="5.35587">
        <ele>348.8</ele>
        <time>2022-03-26T16:48:36Z</time>
      </trkpt>
      <trkpt lat="46.37641" lon="5.35583">
        <ele>348</ele>
        <time>2022-03-26T16:48:37Z</time>
      </trkpt>
      <trkpt lat="46.37672" lon="5.35568">
        <ele>346.4</ele>
        <time>2022-03-26T16:48:40Z</time>
      </trkpt>
      <trkpt lat="46.37682" lon="5.3556">
        <ele>346.2</ele>
        <time>2022-03-26T16:48:41Z</time>
      </trkpt>
      <trkpt lat="46.37691" lon="5.3555">
        <ele>345.2</ele>
        <time>2022-03-26T16:48:42Z</time>
      </trkpt>
      <trkpt lat="46.37704" lon="5.35525">
        <ele>343.8</ele>
        <time>2022-03-26T16:48:44Z</time>
      </trkpt>
      <trkpt lat="46.37709" lon="5.35512">
        <ele>343.2</ele>
        <time>2022-03-26T16:48:45Z</time>
      </trkpt>
      <trkpt lat="46.37714" lon="5.35483">
        <ele>341.8</ele>
        <time>2022-03-26T16:48:47Z</time>
      </trkpt>
      <trkpt lat="46.37713" lon="5.35453">
        <ele>340.4</ele>
        <time>2022-03-26T16:48:49Z</time>
      </trkpt>
      <trkpt lat="46.3771" lon="5.35422">
        <ele>339</ele>
        <time>2022-03-26T16:48:51Z</time>
      </trkpt>
      <trkpt lat="46.3771" lon="5.35408">
        <ele>338.6</ele>
        <time>2022-03-26T16:48:52Z</time>
      </trkpt>
      <trkpt lat="46.37712" lon="5.35394">
        <ele>338</ele>
        <time>2022-03-26T16:48:53Z</time>
      </trkpt>
      <trkpt lat="46.37715" lon="5.35381">
        <ele>337.4</ele>
        <time>2022-03-26T16:48:54Z</time>
      </trkpt>
      <trkpt lat="46.37727" lon="5.35365">
        <ele>336.4</ele>
        <time>2022-03-26T16:48:56Z</time>
      </trkpt>
      <trkpt lat="46.37743" lon="5.35369">
        <ele>335.2</ele>
        <time>2022-03-26T16:48:58Z</time>
      </trkpt>
      <trkpt lat="46.37759" lon="5.35376">
        <ele>334.4</ele>
        <time>2022-03-26T16:49:00Z</time>
      </trkpt>
      <trkpt lat="46.3777" lon="5.35375">
        <ele>333.8</ele>
        <time>2022-03-26T16:49:01Z</time>
      </trkpt>
      <trkpt lat="46.37779" lon="5.3537">
        <ele>333.4</ele>
        <time>2022-03-26T16:49:02Z</time>
      </trkpt>
      <trkpt lat="46.37786" lon="5.3536">
        <ele>332.6</ele>
        <time>2022-03-26T16:49:03Z</time>
      </trkpt>
      <trkpt lat="46.3779" lon="5.35348">
        <ele>332.2</ele>
        <time>2022-03-26T16:49:04Z</time>
      </trkpt>
      <trkpt lat="46.37793" lon="5.35324">
        <ele>331.6</ele>
        <time>2022-03-26T16:49:06Z</time>
      </trkpt>
      <trkpt lat="46.37788" lon="5.35292">
        <ele>330.6</ele>
        <time>2022-03-26T16:49:08Z</time>
      </trkpt>
      <trkpt lat="46.37785" lon="5.35282">
        <ele>330</ele>
        <time>2022-03-26T16:49:09Z</time>
      </trkpt>
      <trkpt lat="46.37778" lon="5.35253">
        <ele>328.8</ele>
        <time>2022-03-26T16:49:11Z</time>
      </trkpt>
      <trkpt lat="46.37779" lon="5.35239">
        <ele>328.4</ele>
        <time>2022-03-26T16:49:12Z</time>
      </trkpt>
      <trkpt lat="46.37783" lon="5.35225">
        <ele>327.8</ele>
        <time>2022-03-26T16:49:13Z</time>
      </trkpt>
      <trkpt lat="46.37793" lon="5.35201">
        <ele>326.6</ele>
        <time>2022-03-26T16:49:15Z</time>
      </trkpt>
      <trkpt lat="46.37802" lon="5.35174">
        <ele>325.4</ele>
        <time>2022-03-26T16:49:17Z</time>
      </trkpt>
      <trkpt lat="46.37808" lon="5.35145">
        <ele>324.4</ele>
        <time>2022-03-26T16:49:19Z</time>
      </trkpt>
      <trkpt lat="46.37811" lon="5.3513">
        <ele>324.2</ele>
        <time>2022-03-26T16:49:20Z</time>
      </trkpt>
      <trkpt lat="46.37822" lon="5.35087">
        <ele>322.2</ele>
        <time>2022-03-26T16:49:23Z</time>
      </trkpt>
      <trkpt lat="46.37826" lon="5.35073">
        <ele>321.2</ele>
        <time>2022-03-26T16:49:24Z</time>
      </trkpt>
      <trkpt lat="46.37831" lon="5.35062">
        <ele>320.6</ele>
        <time>2022-03-26T16:49:25Z</time>
      </trkpt>
      <trkpt lat="46.37836" lon="5.35047">
        <ele>319.8</ele>
        <time>2022-03-26T16:49:26Z</time>
      </trkpt>
      <trkpt lat="46.37846" lon="5.35014">
        <ele>318.6</ele>
        <time>2022-03-26T16:49:28Z</time>
      </trkpt>
      <trkpt lat="46.37851" lon="5.34999">
        <ele>317.8</ele>
        <time>2022-03-26T16:49:29Z</time>
      </trkpt>
      <trkpt lat="46.37857" lon="5.34984">
        <ele>317.2</ele>
        <time>2022-03-26T16:49:30Z</time>
      </trkpt>
      <trkpt lat="46.37863" lon="5.34974">
        <ele>316.2</ele>
        <time>2022-03-26T16:49:31Z</time>
      </trkpt>
      <trkpt lat="46.37872" lon="5.34958">
        <ele>316.2</ele>
        <time>2022-03-26T16:49:32Z</time>
      </trkpt>
      <trkpt lat="46.3788" lon="5.34945">
        <ele>315.2</ele>
        <time>2022-03-26T16:49:33Z</time>
      </trkpt>
      <trkpt lat="46.37889" lon="5.34934">
        <ele>314.8</ele>
        <time>2022-03-26T16:49:34Z</time>
      </trkpt>
      <trkpt lat="46.37898" lon="5.34924">
        <ele>313.6</ele>
        <time>2022-03-26T16:49:35Z</time>
      </trkpt>
      <trkpt lat="46.37915" lon="5.34908">
        <ele>312.4</ele>
        <time>2022-03-26T16:49:37Z</time>
      </trkpt>
      <trkpt lat="46.37923" lon="5.34899">
        <ele>311.8</ele>
        <time>2022-03-26T16:49:38Z</time>
      </trkpt>
      <trkpt lat="46.37931" lon="5.34889">
        <ele>310.4</ele>
        <time>2022-03-26T16:49:39Z</time>
      </trkpt>
      <trkpt lat="46.37935" lon="5.34882">
        <ele>309.8</ele>
        <time>2022-03-26T16:49:40Z</time>
      </trkpt>
      <trkpt lat="46.3794" lon="5.34873">
        <ele>309.2</ele>
        <time>2022-03-26T16:49:41Z</time>
      </trkpt>
      <trkpt lat="46.37943" lon="5.34865">
        <ele>308.4</ele>
        <time>2022-03-26T16:49:42Z</time>
      </trkpt>
      <trkpt lat="46.37945" lon="5.34856">
        <ele>308</ele>
        <time>2022-03-26T16:49:43Z</time>
      </trkpt>
      <trkpt lat="46.37944" lon="5.34851">
        <ele>307.6</ele>
        <time>2022-03-26T16:49:44Z</time>
      </trkpt>
      <trkpt lat="46.37941" lon="5.34844">
        <ele>306.8</ele>
        <time>2022-03-26T16:49:46Z</time>
      </trkpt>
      <trkpt lat="46.3794" lon="5.34842">
        <ele>306.4</ele>
        <time>2022-03-26T16:49:47Z</time>
      </trkpt>
      <trkpt lat="46.37938" lon="5.3484">
        <ele>306.2</ele>
        <time>2022-03-26T16:49:49Z</time>
      </trkpt>
    </trkseg>
  </trk>
</gpx>